<?xml version="1.0" encoding="UTF-8" standalone="no" ?>
<gpx xmlns="http://www.topografix.com/GPX/1/1" xmlns:xsi="http://www.w3.org/2001/XMLSchema-instance" xsi:schemaLocation="http://www.topografix.com/GPX/1/1 http://www.topografix.com/GPX/1/1/gpx.xsd" version="1.1" creator="VisuGPX - https://www.visugpx.com">
  <metadata>
    <name>Jean Collet par la Gorge de St Agnés</name>
    <desc><![CDATA[Avec Sylvie. 
la montée est raide, mais plus courte que par le pré Marcel ou Prélong. Bien à l'ombre jusqu'au pont pour rejoindre le versant du refuge. Casse croûte, café, sieste au refuge puis retour.]]></desc>
  </metadata>
  <trk>
    <name><![CDATA[Jean Collet par la Gorge de St Agnés_1]]></name>
    <trkseg>
      <trkpt lat="45.20468" lon="5.94546">
        <ele>932.7</ele>
        <time>2026-07-14T07:23:48Z</time>
      </trkpt>
      <trkpt lat="45.20468" lon="5.94546">
        <ele>932.7</ele>
        <time>2026-07-14T07:23:49Z</time>
      </trkpt>
      <trkpt lat="45.20468" lon="5.94546">
        <ele>932.7</ele>
        <time>2026-07-14T07:23:50Z</time>
      </trkpt>
      <trkpt lat="45.20468" lon="5.94547">
        <ele>932.7</ele>
        <time>2026-07-14T07:23:51Z</time>
      </trkpt>
      <trkpt lat="45.20467" lon="5.94547">
        <ele>932.7</ele>
        <time>2026-07-14T07:23:52Z</time>
      </trkpt>
      <trkpt lat="45.20467" lon="5.94547">
        <ele>932.7</ele>
        <time>2026-07-14T07:23:53Z</time>
      </trkpt>
      <trkpt lat="45.20468" lon="5.94548">
        <ele>932.7</ele>
        <time>2026-07-14T07:23:54Z</time>
      </trkpt>
      <trkpt lat="45.20468" lon="5.94547">
        <ele>932.7</ele>
        <time>2026-07-14T07:23:55Z</time>
      </trkpt>
      <trkpt lat="45.20468" lon="5.94547">
        <ele>932.7</ele>
        <time>2026-07-14T07:23:56Z</time>
      </trkpt>
      <trkpt lat="45.20468" lon="5.94546">
        <ele>932.7</ele>
        <time>2026-07-14T07:23:57Z</time>
      </trkpt>
      <trkpt lat="45.20467" lon="5.94545">
        <ele>932.7</ele>
        <time>2026-07-14T07:23:58Z</time>
      </trkpt>
      <trkpt lat="45.20467" lon="5.94543">
        <ele>932.7</ele>
        <time>2026-07-14T07:23:59Z</time>
      </trkpt>
      <trkpt lat="45.20467" lon="5.94541">
        <ele>932.6</ele>
        <time>2026-07-14T07:24:01Z</time>
      </trkpt>
      <trkpt lat="45.20466" lon="5.94539">
        <ele>932.6</ele>
        <time>2026-07-14T07:24:02Z</time>
      </trkpt>
      <trkpt lat="45.20466" lon="5.94537">
        <ele>932.6</ele>
        <time>2026-07-14T07:24:03Z</time>
      </trkpt>
      <trkpt lat="45.20467" lon="5.94536">
        <ele>932.6</ele>
        <time>2026-07-14T07:24:04Z</time>
      </trkpt>
      <trkpt lat="45.20467" lon="5.94535">
        <ele>932.5</ele>
        <time>2026-07-14T07:24:05Z</time>
      </trkpt>
      <trkpt lat="45.20468" lon="5.94534">
        <ele>932.5</ele>
        <time>2026-07-14T07:24:06Z</time>
      </trkpt>
      <trkpt lat="45.20468" lon="5.94532">
        <ele>932.5</ele>
        <time>2026-07-14T07:24:07Z</time>
      </trkpt>
      <trkpt lat="45.20468" lon="5.94531">
        <ele>932.5</ele>
        <time>2026-07-14T07:24:08Z</time>
      </trkpt>
      <trkpt lat="45.20469" lon="5.9453">
        <ele>932.5</ele>
        <time>2026-07-14T07:24:09Z</time>
      </trkpt>
      <trkpt lat="45.20469" lon="5.94528">
        <ele>932.4</ele>
        <time>2026-07-14T07:24:10Z</time>
      </trkpt>
      <trkpt lat="45.2047" lon="5.94527">
        <ele>932.4</ele>
        <time>2026-07-14T07:24:11Z</time>
      </trkpt>
      <trkpt lat="45.2047" lon="5.94526">
        <ele>932.4</ele>
        <time>2026-07-14T07:24:12Z</time>
      </trkpt>
      <trkpt lat="45.20471" lon="5.94524">
        <ele>932.4</ele>
        <time>2026-07-14T07:24:13Z</time>
      </trkpt>
      <trkpt lat="45.20471" lon="5.94523">
        <ele>932.3</ele>
        <time>2026-07-14T07:24:14Z</time>
      </trkpt>
      <trkpt lat="45.20472" lon="5.94521">
        <ele>932.3</ele>
        <time>2026-07-14T07:24:15Z</time>
      </trkpt>
      <trkpt lat="45.20472" lon="5.9452">
        <ele>932.3</ele>
        <time>2026-07-14T07:24:16Z</time>
      </trkpt>
      <trkpt lat="45.20471" lon="5.94517">
        <ele>932.2</ele>
        <time>2026-07-14T07:24:18Z</time>
      </trkpt>
      <trkpt lat="45.20471" lon="5.94516">
        <ele>932.2</ele>
        <time>2026-07-14T07:24:19Z</time>
      </trkpt>
      <trkpt lat="45.20471" lon="5.94515">
        <ele>932.2</ele>
        <time>2026-07-14T07:24:20Z</time>
      </trkpt>
      <trkpt lat="45.20471" lon="5.94514">
        <ele>932.2</ele>
        <time>2026-07-14T07:24:21Z</time>
      </trkpt>
      <trkpt lat="45.20471" lon="5.94513">
        <ele>932.2</ele>
        <time>2026-07-14T07:24:23Z</time>
      </trkpt>
      <trkpt lat="45.2047" lon="5.94513">
        <ele>932.2</ele>
        <time>2026-07-14T07:24:24Z</time>
      </trkpt>
      <trkpt lat="45.20471" lon="5.94513">
        <ele>932.2</ele>
        <time>2026-07-14T07:24:25Z</time>
      </trkpt>
      <trkpt lat="45.2047" lon="5.94512">
        <ele>932.2</ele>
        <time>2026-07-14T07:24:26Z</time>
      </trkpt>
      <trkpt lat="45.2047" lon="5.94512">
        <ele>932.2</ele>
        <time>2026-07-14T07:24:28Z</time>
      </trkpt>
      <trkpt lat="45.2047" lon="5.94512">
        <ele>932.2</ele>
        <time>2026-07-14T07:24:29Z</time>
      </trkpt>
      <trkpt lat="45.2047" lon="5.94512">
        <ele>932.2</ele>
        <time>2026-07-14T07:24:30Z</time>
      </trkpt>
      <trkpt lat="45.2047" lon="5.94512">
        <ele>932.2</ele>
        <time>2026-07-14T07:24:31Z</time>
      </trkpt>
      <trkpt lat="45.2047" lon="5.94512">
        <ele>932.2</ele>
        <time>2026-07-14T07:24:32Z</time>
      </trkpt>
      <trkpt lat="45.2047" lon="5.94512">
        <ele>932.2</ele>
        <time>2026-07-14T07:24:33Z</time>
      </trkpt>
      <trkpt lat="45.20469" lon="5.94512">
        <ele>932.2</ele>
        <time>2026-07-14T07:24:34Z</time>
      </trkpt>
      <trkpt lat="45.20468" lon="5.94512">
        <ele>932.2</ele>
        <time>2026-07-14T07:24:35Z</time>
      </trkpt>
      <trkpt lat="45.20468" lon="5.94511">
        <ele>932.2</ele>
        <time>2026-07-14T07:24:36Z</time>
      </trkpt>
      <trkpt lat="45.20468" lon="5.9451">
        <ele>932.2</ele>
        <time>2026-07-14T07:24:37Z</time>
      </trkpt>
      <trkpt lat="45.20467" lon="5.94509">
        <ele>932.2</ele>
        <time>2026-07-14T07:24:38Z</time>
      </trkpt>
      <trkpt lat="45.20466" lon="5.94509">
        <ele>932.2</ele>
        <time>2026-07-14T07:24:39Z</time>
      </trkpt>
      <trkpt lat="45.20465" lon="5.94508">
        <ele>932.2</ele>
        <time>2026-07-14T07:24:40Z</time>
      </trkpt>
      <trkpt lat="45.20464" lon="5.94508">
        <ele>932.2</ele>
        <time>2026-07-14T07:24:42Z</time>
      </trkpt>
      <trkpt lat="45.20463" lon="5.94507">
        <ele>932.3</ele>
        <time>2026-07-14T07:24:43Z</time>
      </trkpt>
      <trkpt lat="45.20462" lon="5.94507">
        <ele>932.4</ele>
        <time>2026-07-14T07:24:44Z</time>
      </trkpt>
      <trkpt lat="45.20461" lon="5.94507">
        <ele>932.6</ele>
        <time>2026-07-14T07:24:45Z</time>
      </trkpt>
      <trkpt lat="45.2046" lon="5.94507">
        <ele>932.7</ele>
        <time>2026-07-14T07:24:46Z</time>
      </trkpt>
      <trkpt lat="45.20459" lon="5.94506">
        <ele>932.8</ele>
        <time>2026-07-14T07:24:47Z</time>
      </trkpt>
      <trkpt lat="45.20458" lon="5.94506">
        <ele>933</ele>
        <time>2026-07-14T07:24:48Z</time>
      </trkpt>
      <trkpt lat="45.20457" lon="5.94505">
        <ele>933.1</ele>
        <time>2026-07-14T07:24:49Z</time>
      </trkpt>
      <trkpt lat="45.20457" lon="5.94505">
        <ele>933.2</ele>
        <time>2026-07-14T07:24:50Z</time>
      </trkpt>
      <trkpt lat="45.20456" lon="5.94505">
        <ele>933.3</ele>
        <time>2026-07-14T07:24:51Z</time>
      </trkpt>
      <trkpt lat="45.20455" lon="5.94505">
        <ele>933.4</ele>
        <time>2026-07-14T07:24:52Z</time>
      </trkpt>
      <trkpt lat="45.20454" lon="5.94505">
        <ele>933.5</ele>
        <time>2026-07-14T07:24:53Z</time>
      </trkpt>
      <trkpt lat="45.20453" lon="5.94506">
        <ele>933.7</ele>
        <time>2026-07-14T07:24:55Z</time>
      </trkpt>
      <trkpt lat="45.20453" lon="5.94506">
        <ele>933.8</ele>
        <time>2026-07-14T07:24:56Z</time>
      </trkpt>
      <trkpt lat="45.20452" lon="5.94505">
        <ele>933.9</ele>
        <time>2026-07-14T07:24:57Z</time>
      </trkpt>
      <trkpt lat="45.20451" lon="5.94505">
        <ele>934.1</ele>
        <time>2026-07-14T07:24:58Z</time>
      </trkpt>
      <trkpt lat="45.2045" lon="5.94505">
        <ele>934.2</ele>
        <time>2026-07-14T07:24:59Z</time>
      </trkpt>
      <trkpt lat="45.2045" lon="5.94505">
        <ele>934.3</ele>
        <time>2026-07-14T07:25:00Z</time>
      </trkpt>
      <trkpt lat="45.20449" lon="5.94505">
        <ele>934.4</ele>
        <time>2026-07-14T07:25:01Z</time>
      </trkpt>
      <trkpt lat="45.20448" lon="5.94506">
        <ele>934.5</ele>
        <time>2026-07-14T07:25:02Z</time>
      </trkpt>
      <trkpt lat="45.20447" lon="5.94506">
        <ele>934.7</ele>
        <time>2026-07-14T07:25:04Z</time>
      </trkpt>
      <trkpt lat="45.20447" lon="5.94506">
        <ele>934.8</ele>
        <time>2026-07-14T07:25:05Z</time>
      </trkpt>
      <trkpt lat="45.20446" lon="5.94506">
        <ele>935</ele>
        <time>2026-07-14T07:25:06Z</time>
      </trkpt>
      <trkpt lat="45.20444" lon="5.94506">
        <ele>935.2</ele>
        <time>2026-07-14T07:25:08Z</time>
      </trkpt>
      <trkpt lat="45.20443" lon="5.94507">
        <ele>935.4</ele>
        <time>2026-07-14T07:25:09Z</time>
      </trkpt>
      <trkpt lat="45.20442" lon="5.94507">
        <ele>935.6</ele>
        <time>2026-07-14T07:25:11Z</time>
      </trkpt>
      <trkpt lat="45.20442" lon="5.94508">
        <ele>935.7</ele>
        <time>2026-07-14T07:25:12Z</time>
      </trkpt>
      <trkpt lat="45.20441" lon="5.94508">
        <ele>935.8</ele>
        <time>2026-07-14T07:25:13Z</time>
      </trkpt>
      <trkpt lat="45.2044" lon="5.94508">
        <ele>935.9</ele>
        <time>2026-07-14T07:25:14Z</time>
      </trkpt>
      <trkpt lat="45.2044" lon="5.94508">
        <ele>936.1</ele>
        <time>2026-07-14T07:25:15Z</time>
      </trkpt>
      <trkpt lat="45.20439" lon="5.94508">
        <ele>936.2</ele>
        <time>2026-07-14T07:25:16Z</time>
      </trkpt>
      <trkpt lat="45.20438" lon="5.94508">
        <ele>936.3</ele>
        <time>2026-07-14T07:25:17Z</time>
      </trkpt>
      <trkpt lat="45.20438" lon="5.94508">
        <ele>936.4</ele>
        <time>2026-07-14T07:25:18Z</time>
      </trkpt>
      <trkpt lat="45.20437" lon="5.94508">
        <ele>936.5</ele>
        <time>2026-07-14T07:25:19Z</time>
      </trkpt>
      <trkpt lat="45.20437" lon="5.94508">
        <ele>936.6</ele>
        <time>2026-07-14T07:25:20Z</time>
      </trkpt>
      <trkpt lat="45.20436" lon="5.94509">
        <ele>936.7</ele>
        <time>2026-07-14T07:25:21Z</time>
      </trkpt>
      <trkpt lat="45.20436" lon="5.9451">
        <ele>936.9</ele>
        <time>2026-07-14T07:25:22Z</time>
      </trkpt>
      <trkpt lat="45.20435" lon="5.94511">
        <ele>937</ele>
        <time>2026-07-14T07:25:23Z</time>
      </trkpt>
      <trkpt lat="45.20435" lon="5.94512">
        <ele>937.1</ele>
        <time>2026-07-14T07:25:24Z</time>
      </trkpt>
      <trkpt lat="45.20435" lon="5.94513">
        <ele>937.3</ele>
        <time>2026-07-14T07:25:25Z</time>
      </trkpt>
      <trkpt lat="45.20434" lon="5.94513">
        <ele>937.4</ele>
        <time>2026-07-14T07:25:26Z</time>
      </trkpt>
      <trkpt lat="45.20433" lon="5.94515">
        <ele>937.7</ele>
        <time>2026-07-14T07:25:28Z</time>
      </trkpt>
      <trkpt lat="45.20433" lon="5.94516">
        <ele>937.9</ele>
        <time>2026-07-14T07:25:29Z</time>
      </trkpt>
      <trkpt lat="45.20431" lon="5.94517">
        <ele>938.2</ele>
        <time>2026-07-14T07:25:31Z</time>
      </trkpt>
      <trkpt lat="45.2043" lon="5.94518">
        <ele>938.3</ele>
        <time>2026-07-14T07:25:32Z</time>
      </trkpt>
      <trkpt lat="45.20429" lon="5.94518">
        <ele>938.5</ele>
        <time>2026-07-14T07:25:33Z</time>
      </trkpt>
      <trkpt lat="45.20429" lon="5.94519">
        <ele>938.7</ele>
        <time>2026-07-14T07:25:34Z</time>
      </trkpt>
      <trkpt lat="45.20428" lon="5.94519">
        <ele>938.8</ele>
        <time>2026-07-14T07:25:35Z</time>
      </trkpt>
      <trkpt lat="45.20427" lon="5.9452">
        <ele>939</ele>
        <time>2026-07-14T07:25:36Z</time>
      </trkpt>
      <trkpt lat="45.20426" lon="5.9452">
        <ele>939.1</ele>
        <time>2026-07-14T07:25:37Z</time>
      </trkpt>
      <trkpt lat="45.20426" lon="5.9452">
        <ele>939.2</ele>
        <time>2026-07-14T07:25:38Z</time>
      </trkpt>
      <trkpt lat="45.20425" lon="5.94521">
        <ele>939.4</ele>
        <time>2026-07-14T07:25:39Z</time>
      </trkpt>
      <trkpt lat="45.20424" lon="5.94522">
        <ele>939.6</ele>
        <time>2026-07-14T07:25:40Z</time>
      </trkpt>
      <trkpt lat="45.20424" lon="5.94523">
        <ele>939.7</ele>
        <time>2026-07-14T07:25:41Z</time>
      </trkpt>
      <trkpt lat="45.20423" lon="5.94523">
        <ele>939.9</ele>
        <time>2026-07-14T07:25:42Z</time>
      </trkpt>
      <trkpt lat="45.20423" lon="5.94524">
        <ele>940</ele>
        <time>2026-07-14T07:25:43Z</time>
      </trkpt>
      <trkpt lat="45.20422" lon="5.94524">
        <ele>940</ele>
        <time>2026-07-14T07:25:45Z</time>
      </trkpt>
      <trkpt lat="45.20422" lon="5.94525">
        <ele>940.2</ele>
        <time>2026-07-14T07:25:46Z</time>
      </trkpt>
      <trkpt lat="45.20422" lon="5.94525">
        <ele>940.2</ele>
        <time>2026-07-14T07:25:47Z</time>
      </trkpt>
      <trkpt lat="45.20421" lon="5.94526">
        <ele>940.3</ele>
        <time>2026-07-14T07:25:48Z</time>
      </trkpt>
      <trkpt lat="45.20421" lon="5.94526">
        <ele>940.4</ele>
        <time>2026-07-14T07:25:49Z</time>
      </trkpt>
      <trkpt lat="45.20421" lon="5.94527">
        <ele>940.5</ele>
        <time>2026-07-14T07:25:50Z</time>
      </trkpt>
      <trkpt lat="45.2042" lon="5.94528">
        <ele>940.6</ele>
        <time>2026-07-14T07:25:51Z</time>
      </trkpt>
      <trkpt lat="45.2042" lon="5.94528">
        <ele>940.7</ele>
        <time>2026-07-14T07:25:52Z</time>
      </trkpt>
      <trkpt lat="45.20419" lon="5.94529">
        <ele>940.9</ele>
        <time>2026-07-14T07:25:54Z</time>
      </trkpt>
      <trkpt lat="45.20419" lon="5.9453">
        <ele>941.1</ele>
        <time>2026-07-14T07:25:55Z</time>
      </trkpt>
      <trkpt lat="45.20418" lon="5.94531">
        <ele>941.3</ele>
        <time>2026-07-14T07:25:56Z</time>
      </trkpt>
      <trkpt lat="45.20417" lon="5.94531">
        <ele>941.5</ele>
        <time>2026-07-14T07:25:57Z</time>
      </trkpt>
      <trkpt lat="45.20416" lon="5.94532">
        <ele>941.7</ele>
        <time>2026-07-14T07:25:58Z</time>
      </trkpt>
      <trkpt lat="45.20415" lon="5.94532">
        <ele>941.9</ele>
        <time>2026-07-14T07:25:59Z</time>
      </trkpt>
      <trkpt lat="45.20415" lon="5.94533">
        <ele>942</ele>
        <time>2026-07-14T07:26:00Z</time>
      </trkpt>
      <trkpt lat="45.20414" lon="5.94533">
        <ele>942.1</ele>
        <time>2026-07-14T07:26:01Z</time>
      </trkpt>
      <trkpt lat="45.20414" lon="5.94533">
        <ele>942.2</ele>
        <time>2026-07-14T07:26:02Z</time>
      </trkpt>
      <trkpt lat="45.20414" lon="5.94534">
        <ele>942.2</ele>
        <time>2026-07-14T07:26:03Z</time>
      </trkpt>
      <trkpt lat="45.20413" lon="5.94534">
        <ele>942.3</ele>
        <time>2026-07-14T07:26:04Z</time>
      </trkpt>
      <trkpt lat="45.20413" lon="5.94535">
        <ele>942.4</ele>
        <time>2026-07-14T07:26:05Z</time>
      </trkpt>
      <trkpt lat="45.20413" lon="5.94535">
        <ele>942.5</ele>
        <time>2026-07-14T07:26:06Z</time>
      </trkpt>
      <trkpt lat="45.20412" lon="5.94536">
        <ele>942.7</ele>
        <time>2026-07-14T07:26:07Z</time>
      </trkpt>
      <trkpt lat="45.20411" lon="5.94537">
        <ele>942.9</ele>
        <time>2026-07-14T07:26:09Z</time>
      </trkpt>
      <trkpt lat="45.2041" lon="5.94538">
        <ele>943.2</ele>
        <time>2026-07-14T07:26:11Z</time>
      </trkpt>
      <trkpt lat="45.20409" lon="5.94538">
        <ele>943.3</ele>
        <time>2026-07-14T07:26:12Z</time>
      </trkpt>
      <trkpt lat="45.20409" lon="5.94539">
        <ele>943.4</ele>
        <time>2026-07-14T07:26:13Z</time>
      </trkpt>
      <trkpt lat="45.20408" lon="5.94539">
        <ele>943.5</ele>
        <time>2026-07-14T07:26:14Z</time>
      </trkpt>
      <trkpt lat="45.20408" lon="5.9454">
        <ele>943.7</ele>
        <time>2026-07-14T07:26:15Z</time>
      </trkpt>
      <trkpt lat="45.20407" lon="5.9454">
        <ele>943.8</ele>
        <time>2026-07-14T07:26:16Z</time>
      </trkpt>
      <trkpt lat="45.20407" lon="5.9454">
        <ele>943.8</ele>
        <time>2026-07-14T07:26:17Z</time>
      </trkpt>
      <trkpt lat="45.20407" lon="5.94541">
        <ele>943.9</ele>
        <time>2026-07-14T07:26:18Z</time>
      </trkpt>
      <trkpt lat="45.20406" lon="5.94541">
        <ele>944</ele>
        <time>2026-07-14T07:26:19Z</time>
      </trkpt>
      <trkpt lat="45.20405" lon="5.94542">
        <ele>944.2</ele>
        <time>2026-07-14T07:26:20Z</time>
      </trkpt>
      <trkpt lat="45.20404" lon="5.94543">
        <ele>944.4</ele>
        <time>2026-07-14T07:26:21Z</time>
      </trkpt>
      <trkpt lat="45.20403" lon="5.94544">
        <ele>944.6</ele>
        <time>2026-07-14T07:26:22Z</time>
      </trkpt>
      <trkpt lat="45.20402" lon="5.94545">
        <ele>944.8</ele>
        <time>2026-07-14T07:26:24Z</time>
      </trkpt>
      <trkpt lat="45.20402" lon="5.94545">
        <ele>944.9</ele>
        <time>2026-07-14T07:26:25Z</time>
      </trkpt>
      <trkpt lat="45.20401" lon="5.94547">
        <ele>945.2</ele>
        <time>2026-07-14T07:26:26Z</time>
      </trkpt>
      <trkpt lat="45.204" lon="5.94548">
        <ele>945.4</ele>
        <time>2026-07-14T07:26:27Z</time>
      </trkpt>
      <trkpt lat="45.204" lon="5.94548">
        <ele>945.5</ele>
        <time>2026-07-14T07:26:28Z</time>
      </trkpt>
      <trkpt lat="45.20399" lon="5.94549">
        <ele>945.6</ele>
        <time>2026-07-14T07:26:29Z</time>
      </trkpt>
      <trkpt lat="45.20399" lon="5.9455">
        <ele>945.7</ele>
        <time>2026-07-14T07:26:30Z</time>
      </trkpt>
      <trkpt lat="45.20399" lon="5.9455">
        <ele>945.8</ele>
        <time>2026-07-14T07:26:31Z</time>
      </trkpt>
      <trkpt lat="45.20398" lon="5.94552">
        <ele>946</ele>
        <time>2026-07-14T07:26:33Z</time>
      </trkpt>
      <trkpt lat="45.20398" lon="5.94552">
        <ele>946.1</ele>
        <time>2026-07-14T07:26:34Z</time>
      </trkpt>
      <trkpt lat="45.20398" lon="5.94553">
        <ele>946.2</ele>
        <time>2026-07-14T07:26:35Z</time>
      </trkpt>
      <trkpt lat="45.20398" lon="5.94553">
        <ele>946.2</ele>
        <time>2026-07-14T07:26:36Z</time>
      </trkpt>
      <trkpt lat="45.20398" lon="5.94554">
        <ele>946.3</ele>
        <time>2026-07-14T07:26:37Z</time>
      </trkpt>
      <trkpt lat="45.20397" lon="5.94555">
        <ele>946.4</ele>
        <time>2026-07-14T07:26:38Z</time>
      </trkpt>
      <trkpt lat="45.20397" lon="5.94555">
        <ele>946.5</ele>
        <time>2026-07-14T07:26:39Z</time>
      </trkpt>
      <trkpt lat="45.20397" lon="5.94556">
        <ele>946.6</ele>
        <time>2026-07-14T07:26:40Z</time>
      </trkpt>
      <trkpt lat="45.20396" lon="5.94556">
        <ele>946.7</ele>
        <time>2026-07-14T07:26:42Z</time>
      </trkpt>
      <trkpt lat="45.20396" lon="5.94557">
        <ele>946.7</ele>
        <time>2026-07-14T07:26:43Z</time>
      </trkpt>
      <trkpt lat="45.20395" lon="5.94558">
        <ele>946.9</ele>
        <time>2026-07-14T07:26:44Z</time>
      </trkpt>
      <trkpt lat="45.20395" lon="5.94558">
        <ele>947</ele>
        <time>2026-07-14T07:26:45Z</time>
      </trkpt>
      <trkpt lat="45.20395" lon="5.94559">
        <ele>947.1</ele>
        <time>2026-07-14T07:26:46Z</time>
      </trkpt>
      <trkpt lat="45.20394" lon="5.9456">
        <ele>947.2</ele>
        <time>2026-07-14T07:26:47Z</time>
      </trkpt>
      <trkpt lat="45.20394" lon="5.9456">
        <ele>947.4</ele>
        <time>2026-07-14T07:26:48Z</time>
      </trkpt>
      <trkpt lat="45.20393" lon="5.94561">
        <ele>947.5</ele>
        <time>2026-07-14T07:26:49Z</time>
      </trkpt>
      <trkpt lat="45.20392" lon="5.94563">
        <ele>947.7</ele>
        <time>2026-07-14T07:26:51Z</time>
      </trkpt>
      <trkpt lat="45.20391" lon="5.94564">
        <ele>948</ele>
        <time>2026-07-14T07:26:53Z</time>
      </trkpt>
      <trkpt lat="45.2039" lon="5.94565">
        <ele>948.1</ele>
        <time>2026-07-14T07:26:54Z</time>
      </trkpt>
      <trkpt lat="45.2039" lon="5.94566">
        <ele>948.2</ele>
        <time>2026-07-14T07:26:55Z</time>
      </trkpt>
      <trkpt lat="45.20389" lon="5.94567">
        <ele>948.4</ele>
        <time>2026-07-14T07:26:57Z</time>
      </trkpt>
      <trkpt lat="45.20389" lon="5.94569">
        <ele>948.6</ele>
        <time>2026-07-14T07:26:59Z</time>
      </trkpt>
      <trkpt lat="45.20388" lon="5.9457">
        <ele>948.7</ele>
        <time>2026-07-14T07:27:00Z</time>
      </trkpt>
      <trkpt lat="45.20388" lon="5.94571">
        <ele>948.8</ele>
        <time>2026-07-14T07:27:01Z</time>
      </trkpt>
      <trkpt lat="45.20388" lon="5.94571">
        <ele>948.8</ele>
        <time>2026-07-14T07:27:02Z</time>
      </trkpt>
      <trkpt lat="45.20388" lon="5.94571">
        <ele>948.9</ele>
        <time>2026-07-14T07:27:03Z</time>
      </trkpt>
      <trkpt lat="45.20387" lon="5.94572">
        <ele>949</ele>
        <time>2026-07-14T07:27:05Z</time>
      </trkpt>
      <trkpt lat="45.20386" lon="5.94573">
        <ele>949.1</ele>
        <time>2026-07-14T07:27:06Z</time>
      </trkpt>
      <trkpt lat="45.20386" lon="5.94573">
        <ele>949.2</ele>
        <time>2026-07-14T07:27:07Z</time>
      </trkpt>
      <trkpt lat="45.20386" lon="5.94573">
        <ele>949.2</ele>
        <time>2026-07-14T07:27:08Z</time>
      </trkpt>
      <trkpt lat="45.20385" lon="5.94574">
        <ele>949.3</ele>
        <time>2026-07-14T07:27:09Z</time>
      </trkpt>
      <trkpt lat="45.20385" lon="5.94575">
        <ele>949.4</ele>
        <time>2026-07-14T07:27:10Z</time>
      </trkpt>
      <trkpt lat="45.20384" lon="5.94575">
        <ele>949.5</ele>
        <time>2026-07-14T07:27:11Z</time>
      </trkpt>
      <trkpt lat="45.20384" lon="5.94576">
        <ele>949.6</ele>
        <time>2026-07-14T07:27:12Z</time>
      </trkpt>
      <trkpt lat="45.20384" lon="5.94576">
        <ele>949.6</ele>
        <time>2026-07-14T07:27:13Z</time>
      </trkpt>
      <trkpt lat="45.20383" lon="5.94577">
        <ele>949.7</ele>
        <time>2026-07-14T07:27:14Z</time>
      </trkpt>
      <trkpt lat="45.20383" lon="5.94578">
        <ele>949.8</ele>
        <time>2026-07-14T07:27:15Z</time>
      </trkpt>
      <trkpt lat="45.20383" lon="5.94578">
        <ele>949.9</ele>
        <time>2026-07-14T07:27:16Z</time>
      </trkpt>
      <trkpt lat="45.20382" lon="5.94579">
        <ele>950</ele>
        <time>2026-07-14T07:27:17Z</time>
      </trkpt>
      <trkpt lat="45.20381" lon="5.9458">
        <ele>950.2</ele>
        <time>2026-07-14T07:27:18Z</time>
      </trkpt>
      <trkpt lat="45.20381" lon="5.94581">
        <ele>950.3</ele>
        <time>2026-07-14T07:27:19Z</time>
      </trkpt>
      <trkpt lat="45.2038" lon="5.94582">
        <ele>950.4</ele>
        <time>2026-07-14T07:27:20Z</time>
      </trkpt>
      <trkpt lat="45.20379" lon="5.94582">
        <ele>950.5</ele>
        <time>2026-07-14T07:27:22Z</time>
      </trkpt>
      <trkpt lat="45.20378" lon="5.94584">
        <ele>950.7</ele>
        <time>2026-07-14T07:27:23Z</time>
      </trkpt>
      <trkpt lat="45.20377" lon="5.94586">
        <ele>950.9</ele>
        <time>2026-07-14T07:27:25Z</time>
      </trkpt>
      <trkpt lat="45.20376" lon="5.94587">
        <ele>951.1</ele>
        <time>2026-07-14T07:27:26Z</time>
      </trkpt>
      <trkpt lat="45.20375" lon="5.94588">
        <ele>951.2</ele>
        <time>2026-07-14T07:27:27Z</time>
      </trkpt>
      <trkpt lat="45.20375" lon="5.94589">
        <ele>951.3</ele>
        <time>2026-07-14T07:27:28Z</time>
      </trkpt>
      <trkpt lat="45.20374" lon="5.9459">
        <ele>951.4</ele>
        <time>2026-07-14T07:27:29Z</time>
      </trkpt>
      <trkpt lat="45.20373" lon="5.94591">
        <ele>951.5</ele>
        <time>2026-07-14T07:27:31Z</time>
      </trkpt>
      <trkpt lat="45.20372" lon="5.94593">
        <ele>951.7</ele>
        <time>2026-07-14T07:27:32Z</time>
      </trkpt>
      <trkpt lat="45.20371" lon="5.94594">
        <ele>951.8</ele>
        <time>2026-07-14T07:27:33Z</time>
      </trkpt>
      <trkpt lat="45.2037" lon="5.94595">
        <ele>951.9</ele>
        <time>2026-07-14T07:27:34Z</time>
      </trkpt>
      <trkpt lat="45.2037" lon="5.94596">
        <ele>952</ele>
        <time>2026-07-14T07:27:35Z</time>
      </trkpt>
      <trkpt lat="45.20369" lon="5.94596">
        <ele>952.1</ele>
        <time>2026-07-14T07:27:36Z</time>
      </trkpt>
      <trkpt lat="45.20368" lon="5.94597">
        <ele>952.2</ele>
        <time>2026-07-14T07:27:37Z</time>
      </trkpt>
      <trkpt lat="45.20368" lon="5.94599">
        <ele>952.4</ele>
        <time>2026-07-14T07:27:39Z</time>
      </trkpt>
      <trkpt lat="45.20367" lon="5.94602">
        <ele>952.6</ele>
        <time>2026-07-14T07:27:41Z</time>
      </trkpt>
      <trkpt lat="45.20367" lon="5.94603">
        <ele>952.7</ele>
        <time>2026-07-14T07:27:42Z</time>
      </trkpt>
      <trkpt lat="45.20366" lon="5.94604">
        <ele>952.8</ele>
        <time>2026-07-14T07:27:43Z</time>
      </trkpt>
      <trkpt lat="45.20365" lon="5.94605">
        <ele>952.9</ele>
        <time>2026-07-14T07:27:44Z</time>
      </trkpt>
      <trkpt lat="45.20365" lon="5.94607">
        <ele>953</ele>
        <time>2026-07-14T07:27:45Z</time>
      </trkpt>
      <trkpt lat="45.20364" lon="5.94607">
        <ele>953.1</ele>
        <time>2026-07-14T07:27:46Z</time>
      </trkpt>
      <trkpt lat="45.20364" lon="5.94609">
        <ele>953.2</ele>
        <time>2026-07-14T07:27:48Z</time>
      </trkpt>
      <trkpt lat="45.20363" lon="5.9461">
        <ele>953.3</ele>
        <time>2026-07-14T07:27:49Z</time>
      </trkpt>
      <trkpt lat="45.20363" lon="5.94611">
        <ele>953.4</ele>
        <time>2026-07-14T07:27:50Z</time>
      </trkpt>
      <trkpt lat="45.20362" lon="5.94612">
        <ele>953.5</ele>
        <time>2026-07-14T07:27:51Z</time>
      </trkpt>
      <trkpt lat="45.20362" lon="5.94613">
        <ele>953.5</ele>
        <time>2026-07-14T07:27:52Z</time>
      </trkpt>
      <trkpt lat="45.20362" lon="5.94613">
        <ele>953.6</ele>
        <time>2026-07-14T07:27:53Z</time>
      </trkpt>
      <trkpt lat="45.20362" lon="5.94613">
        <ele>953.6</ele>
        <time>2026-07-14T07:27:55Z</time>
      </trkpt>
      <trkpt lat="45.20362" lon="5.94613">
        <ele>953.6</ele>
        <time>2026-07-14T07:27:56Z</time>
      </trkpt>
      <trkpt lat="45.20362" lon="5.94613">
        <ele>953.6</ele>
        <time>2026-07-14T07:27:58Z</time>
      </trkpt>
      <trkpt lat="45.20362" lon="5.94613">
        <ele>953.6</ele>
        <time>2026-07-14T07:27:59Z</time>
      </trkpt>
      <trkpt lat="45.20362" lon="5.94613">
        <ele>953.6</ele>
        <time>2026-07-14T07:28:00Z</time>
      </trkpt>
      <trkpt lat="45.20362" lon="5.94613">
        <ele>953.7</ele>
        <time>2026-07-14T07:28:01Z</time>
      </trkpt>
      <trkpt lat="45.20362" lon="5.94613">
        <ele>953.7</ele>
        <time>2026-07-14T07:28:03Z</time>
      </trkpt>
      <trkpt lat="45.20362" lon="5.94613">
        <ele>953.7</ele>
        <time>2026-07-14T07:28:04Z</time>
      </trkpt>
      <trkpt lat="45.20362" lon="5.94613">
        <ele>953.7</ele>
        <time>2026-07-14T07:28:05Z</time>
      </trkpt>
      <trkpt lat="45.20362" lon="5.94614">
        <ele>953.7</ele>
        <time>2026-07-14T07:28:06Z</time>
      </trkpt>
      <trkpt lat="45.20362" lon="5.94614">
        <ele>953.7</ele>
        <time>2026-07-14T07:28:07Z</time>
      </trkpt>
      <trkpt lat="45.20362" lon="5.94614">
        <ele>953.7</ele>
        <time>2026-07-14T07:28:08Z</time>
      </trkpt>
      <trkpt lat="45.20362" lon="5.94614">
        <ele>953.8</ele>
        <time>2026-07-14T07:28:09Z</time>
      </trkpt>
      <trkpt lat="45.20362" lon="5.94615">
        <ele>953.8</ele>
        <time>2026-07-14T07:28:10Z</time>
      </trkpt>
      <trkpt lat="45.20361" lon="5.94616">
        <ele>953.9</ele>
        <time>2026-07-14T07:28:11Z</time>
      </trkpt>
      <trkpt lat="45.20361" lon="5.94616">
        <ele>954</ele>
        <time>2026-07-14T07:28:13Z</time>
      </trkpt>
      <trkpt lat="45.2036" lon="5.94617">
        <ele>954</ele>
        <time>2026-07-14T07:28:15Z</time>
      </trkpt>
      <trkpt lat="45.2036" lon="5.94617">
        <ele>954.1</ele>
        <time>2026-07-14T07:28:16Z</time>
      </trkpt>
      <trkpt lat="45.2036" lon="5.94617">
        <ele>954.1</ele>
        <time>2026-07-14T07:28:17Z</time>
      </trkpt>
      <trkpt lat="45.20359" lon="5.94617">
        <ele>954.1</ele>
        <time>2026-07-14T07:28:18Z</time>
      </trkpt>
      <trkpt lat="45.20359" lon="5.94617">
        <ele>954.1</ele>
        <time>2026-07-14T07:28:19Z</time>
      </trkpt>
      <trkpt lat="45.20359" lon="5.94617">
        <ele>954.1</ele>
        <time>2026-07-14T07:28:21Z</time>
      </trkpt>
      <trkpt lat="45.20359" lon="5.94617">
        <ele>954.1</ele>
        <time>2026-07-14T07:28:22Z</time>
      </trkpt>
      <trkpt lat="45.20359" lon="5.94617">
        <ele>954.1</ele>
        <time>2026-07-14T07:28:23Z</time>
      </trkpt>
      <trkpt lat="45.20359" lon="5.94617">
        <ele>954.1</ele>
        <time>2026-07-14T07:28:24Z</time>
      </trkpt>
      <trkpt lat="45.20359" lon="5.94617">
        <ele>954.2</ele>
        <time>2026-07-14T07:28:25Z</time>
      </trkpt>
      <trkpt lat="45.20359" lon="5.94617">
        <ele>954.2</ele>
        <time>2026-07-14T07:28:26Z</time>
      </trkpt>
      <trkpt lat="45.20359" lon="5.94617">
        <ele>954.2</ele>
        <time>2026-07-14T07:28:27Z</time>
      </trkpt>
      <trkpt lat="45.20359" lon="5.94617">
        <ele>954.2</ele>
        <time>2026-07-14T07:28:28Z</time>
      </trkpt>
      <trkpt lat="45.20359" lon="5.94617">
        <ele>954.2</ele>
        <time>2026-07-14T07:28:29Z</time>
      </trkpt>
      <trkpt lat="45.20359" lon="5.94617">
        <ele>954.2</ele>
        <time>2026-07-14T07:28:30Z</time>
      </trkpt>
      <trkpt lat="45.20359" lon="5.94617">
        <ele>954.2</ele>
        <time>2026-07-14T07:28:31Z</time>
      </trkpt>
      <trkpt lat="45.2036" lon="5.94617">
        <ele>954.2</ele>
        <time>2026-07-14T07:28:32Z</time>
      </trkpt>
      <trkpt lat="45.2036" lon="5.94617">
        <ele>954.2</ele>
        <time>2026-07-14T07:28:33Z</time>
      </trkpt>
      <trkpt lat="45.2036" lon="5.94617">
        <ele>954.2</ele>
        <time>2026-07-14T07:28:34Z</time>
      </trkpt>
      <trkpt lat="45.2036" lon="5.94617">
        <ele>954.2</ele>
        <time>2026-07-14T07:28:35Z</time>
      </trkpt>
      <trkpt lat="45.20359" lon="5.94618">
        <ele>954.3</ele>
        <time>2026-07-14T07:28:36Z</time>
      </trkpt>
      <trkpt lat="45.20358" lon="5.94618">
        <ele>954.4</ele>
        <time>2026-07-14T07:28:37Z</time>
      </trkpt>
      <trkpt lat="45.20357" lon="5.94619">
        <ele>954.5</ele>
        <time>2026-07-14T07:28:38Z</time>
      </trkpt>
      <trkpt lat="45.20356" lon="5.9462">
        <ele>954.6</ele>
        <time>2026-07-14T07:28:39Z</time>
      </trkpt>
      <trkpt lat="45.20355" lon="5.94622">
        <ele>954.8</ele>
        <time>2026-07-14T07:28:40Z</time>
      </trkpt>
      <trkpt lat="45.20354" lon="5.94623">
        <ele>954.9</ele>
        <time>2026-07-14T07:28:41Z</time>
      </trkpt>
      <trkpt lat="45.20354" lon="5.94625">
        <ele>955.1</ele>
        <time>2026-07-14T07:28:42Z</time>
      </trkpt>
      <trkpt lat="45.20353" lon="5.94626">
        <ele>955.2</ele>
        <time>2026-07-14T07:28:43Z</time>
      </trkpt>
      <trkpt lat="45.20353" lon="5.94627">
        <ele>955.3</ele>
        <time>2026-07-14T07:28:44Z</time>
      </trkpt>
      <trkpt lat="45.20352" lon="5.94629">
        <ele>955.5</ele>
        <time>2026-07-14T07:28:45Z</time>
      </trkpt>
      <trkpt lat="45.20351" lon="5.9463">
        <ele>955.6</ele>
        <time>2026-07-14T07:28:46Z</time>
      </trkpt>
      <trkpt lat="45.2035" lon="5.94631">
        <ele>955.7</ele>
        <time>2026-07-14T07:28:47Z</time>
      </trkpt>
      <trkpt lat="45.2035" lon="5.94632">
        <ele>955.8</ele>
        <time>2026-07-14T07:28:48Z</time>
      </trkpt>
      <trkpt lat="45.20349" lon="5.94633">
        <ele>955.9</ele>
        <time>2026-07-14T07:28:49Z</time>
      </trkpt>
      <trkpt lat="45.20348" lon="5.94633">
        <ele>956</ele>
        <time>2026-07-14T07:28:50Z</time>
      </trkpt>
      <trkpt lat="45.20348" lon="5.94635">
        <ele>956.2</ele>
        <time>2026-07-14T07:28:51Z</time>
      </trkpt>
      <trkpt lat="45.20347" lon="5.94635">
        <ele>956.2</ele>
        <time>2026-07-14T07:28:52Z</time>
      </trkpt>
      <trkpt lat="45.20347" lon="5.94636">
        <ele>956.3</ele>
        <time>2026-07-14T07:28:53Z</time>
      </trkpt>
      <trkpt lat="45.20346" lon="5.94637">
        <ele>956.4</ele>
        <time>2026-07-14T07:28:54Z</time>
      </trkpt>
      <trkpt lat="45.20346" lon="5.94638">
        <ele>956.5</ele>
        <time>2026-07-14T07:28:55Z</time>
      </trkpt>
      <trkpt lat="45.20345" lon="5.94639">
        <ele>956.7</ele>
        <time>2026-07-14T07:28:56Z</time>
      </trkpt>
      <trkpt lat="45.20344" lon="5.9464">
        <ele>956.8</ele>
        <time>2026-07-14T07:28:57Z</time>
      </trkpt>
      <trkpt lat="45.20344" lon="5.94641">
        <ele>956.9</ele>
        <time>2026-07-14T07:28:58Z</time>
      </trkpt>
      <trkpt lat="45.20343" lon="5.94642">
        <ele>957</ele>
        <time>2026-07-14T07:28:59Z</time>
      </trkpt>
      <trkpt lat="45.20342" lon="5.94643">
        <ele>957.1</ele>
        <time>2026-07-14T07:29:00Z</time>
      </trkpt>
      <trkpt lat="45.20342" lon="5.94644">
        <ele>957.2</ele>
        <time>2026-07-14T07:29:01Z</time>
      </trkpt>
      <trkpt lat="45.20341" lon="5.94645">
        <ele>957.4</ele>
        <time>2026-07-14T07:29:02Z</time>
      </trkpt>
      <trkpt lat="45.2034" lon="5.94646">
        <ele>957.5</ele>
        <time>2026-07-14T07:29:03Z</time>
      </trkpt>
      <trkpt lat="45.2034" lon="5.94647">
        <ele>957.6</ele>
        <time>2026-07-14T07:29:04Z</time>
      </trkpt>
      <trkpt lat="45.20339" lon="5.94648">
        <ele>957.7</ele>
        <time>2026-07-14T07:29:05Z</time>
      </trkpt>
      <trkpt lat="45.20339" lon="5.94649">
        <ele>957.8</ele>
        <time>2026-07-14T07:29:06Z</time>
      </trkpt>
      <trkpt lat="45.20337" lon="5.94651">
        <ele>958.1</ele>
        <time>2026-07-14T07:29:08Z</time>
      </trkpt>
      <trkpt lat="45.20337" lon="5.94652">
        <ele>958.2</ele>
        <time>2026-07-14T07:29:09Z</time>
      </trkpt>
      <trkpt lat="45.20336" lon="5.94653">
        <ele>958.3</ele>
        <time>2026-07-14T07:29:10Z</time>
      </trkpt>
      <trkpt lat="45.20335" lon="5.94653">
        <ele>958.4</ele>
        <time>2026-07-14T07:29:11Z</time>
      </trkpt>
      <trkpt lat="45.20335" lon="5.94654">
        <ele>958.6</ele>
        <time>2026-07-14T07:29:12Z</time>
      </trkpt>
      <trkpt lat="45.20334" lon="5.94655">
        <ele>958.7</ele>
        <time>2026-07-14T07:29:13Z</time>
      </trkpt>
      <trkpt lat="45.20333" lon="5.94655">
        <ele>958.8</ele>
        <time>2026-07-14T07:29:14Z</time>
      </trkpt>
      <trkpt lat="45.20333" lon="5.94656">
        <ele>958.9</ele>
        <time>2026-07-14T07:29:15Z</time>
      </trkpt>
      <trkpt lat="45.20332" lon="5.94657">
        <ele>959</ele>
        <time>2026-07-14T07:29:16Z</time>
      </trkpt>
      <trkpt lat="45.20331" lon="5.94657">
        <ele>959.1</ele>
        <time>2026-07-14T07:29:17Z</time>
      </trkpt>
      <trkpt lat="45.2033" lon="5.94659">
        <ele>959.3</ele>
        <time>2026-07-14T07:29:19Z</time>
      </trkpt>
      <trkpt lat="45.20329" lon="5.9466">
        <ele>959.4</ele>
        <time>2026-07-14T07:29:20Z</time>
      </trkpt>
      <trkpt lat="45.20329" lon="5.94661">
        <ele>959.5</ele>
        <time>2026-07-14T07:29:21Z</time>
      </trkpt>
      <trkpt lat="45.20329" lon="5.94662">
        <ele>959.6</ele>
        <time>2026-07-14T07:29:22Z</time>
      </trkpt>
      <trkpt lat="45.20328" lon="5.94663">
        <ele>959.8</ele>
        <time>2026-07-14T07:29:23Z</time>
      </trkpt>
      <trkpt lat="45.20328" lon="5.94664">
        <ele>959.9</ele>
        <time>2026-07-14T07:29:25Z</time>
      </trkpt>
      <trkpt lat="45.20327" lon="5.94666">
        <ele>960.1</ele>
        <time>2026-07-14T07:29:26Z</time>
      </trkpt>
      <trkpt lat="45.20327" lon="5.94667">
        <ele>960.2</ele>
        <time>2026-07-14T07:29:27Z</time>
      </trkpt>
      <trkpt lat="45.20326" lon="5.94668">
        <ele>960.3</ele>
        <time>2026-07-14T07:29:28Z</time>
      </trkpt>
      <trkpt lat="45.20326" lon="5.94669">
        <ele>960.5</ele>
        <time>2026-07-14T07:29:29Z</time>
      </trkpt>
      <trkpt lat="45.20325" lon="5.9467">
        <ele>960.6</ele>
        <time>2026-07-14T07:29:30Z</time>
      </trkpt>
      <trkpt lat="45.20325" lon="5.94672">
        <ele>960.8</ele>
        <time>2026-07-14T07:29:32Z</time>
      </trkpt>
      <trkpt lat="45.20324" lon="5.94673">
        <ele>960.9</ele>
        <time>2026-07-14T07:29:33Z</time>
      </trkpt>
      <trkpt lat="45.20323" lon="5.94674">
        <ele>961.1</ele>
        <time>2026-07-14T07:29:34Z</time>
      </trkpt>
      <trkpt lat="45.20322" lon="5.94676">
        <ele>961.3</ele>
        <time>2026-07-14T07:29:36Z</time>
      </trkpt>
      <trkpt lat="45.20321" lon="5.94675">
        <ele>961.5</ele>
        <time>2026-07-14T07:29:37Z</time>
      </trkpt>
      <trkpt lat="45.20319" lon="5.94676">
        <ele>961.7</ele>
        <time>2026-07-14T07:29:39Z</time>
      </trkpt>
      <trkpt lat="45.20319" lon="5.94676">
        <ele>961.8</ele>
        <time>2026-07-14T07:29:41Z</time>
      </trkpt>
      <trkpt lat="45.20318" lon="5.94677">
        <ele>961.9</ele>
        <time>2026-07-14T07:29:42Z</time>
      </trkpt>
      <trkpt lat="45.20316" lon="5.94678">
        <ele>962.2</ele>
        <time>2026-07-14T07:29:43Z</time>
      </trkpt>
      <trkpt lat="45.20314" lon="5.94678">
        <ele>962.5</ele>
        <time>2026-07-14T07:29:45Z</time>
      </trkpt>
      <trkpt lat="45.20314" lon="5.94679">
        <ele>962.6</ele>
        <time>2026-07-14T07:29:46Z</time>
      </trkpt>
      <trkpt lat="45.20313" lon="5.94679">
        <ele>962.7</ele>
        <time>2026-07-14T07:29:47Z</time>
      </trkpt>
      <trkpt lat="45.20312" lon="5.9468">
        <ele>962.8</ele>
        <time>2026-07-14T07:29:49Z</time>
      </trkpt>
      <trkpt lat="45.20312" lon="5.94681">
        <ele>962.9</ele>
        <time>2026-07-14T07:29:50Z</time>
      </trkpt>
      <trkpt lat="45.20311" lon="5.94681">
        <ele>963.1</ele>
        <time>2026-07-14T07:29:51Z</time>
      </trkpt>
      <trkpt lat="45.2031" lon="5.94682">
        <ele>963.2</ele>
        <time>2026-07-14T07:29:52Z</time>
      </trkpt>
      <trkpt lat="45.2031" lon="5.94682">
        <ele>963.2</ele>
        <time>2026-07-14T07:29:54Z</time>
      </trkpt>
      <trkpt lat="45.20309" lon="5.94683">
        <ele>963.5</ele>
        <time>2026-07-14T07:29:55Z</time>
      </trkpt>
      <trkpt lat="45.20308" lon="5.94684">
        <ele>963.6</ele>
        <time>2026-07-14T07:29:57Z</time>
      </trkpt>
      <trkpt lat="45.20307" lon="5.94684">
        <ele>963.7</ele>
        <time>2026-07-14T07:29:58Z</time>
      </trkpt>
      <trkpt lat="45.20306" lon="5.94685">
        <ele>963.9</ele>
        <time>2026-07-14T07:30:00Z</time>
      </trkpt>
      <trkpt lat="45.20305" lon="5.94686">
        <ele>964.1</ele>
        <time>2026-07-14T07:30:02Z</time>
      </trkpt>
      <trkpt lat="45.20304" lon="5.94686">
        <ele>964.2</ele>
        <time>2026-07-14T07:30:03Z</time>
      </trkpt>
      <trkpt lat="45.20304" lon="5.94687">
        <ele>964.3</ele>
        <time>2026-07-14T07:30:05Z</time>
      </trkpt>
      <trkpt lat="45.20303" lon="5.94687">
        <ele>964.4</ele>
        <time>2026-07-14T07:30:06Z</time>
      </trkpt>
      <trkpt lat="45.20302" lon="5.94688">
        <ele>964.6</ele>
        <time>2026-07-14T07:30:07Z</time>
      </trkpt>
      <trkpt lat="45.20302" lon="5.94688">
        <ele>964.6</ele>
        <time>2026-07-14T07:30:08Z</time>
      </trkpt>
      <trkpt lat="45.20301" lon="5.94688">
        <ele>964.8</ele>
        <time>2026-07-14T07:30:09Z</time>
      </trkpt>
      <trkpt lat="45.20301" lon="5.94688">
        <ele>964.9</ele>
        <time>2026-07-14T07:30:10Z</time>
      </trkpt>
      <trkpt lat="45.203" lon="5.94689">
        <ele>965</ele>
        <time>2026-07-14T07:30:11Z</time>
      </trkpt>
      <trkpt lat="45.20299" lon="5.94689">
        <ele>965</ele>
        <time>2026-07-14T07:30:13Z</time>
      </trkpt>
      <trkpt lat="45.20298" lon="5.9469">
        <ele>965.3</ele>
        <time>2026-07-14T07:30:14Z</time>
      </trkpt>
      <trkpt lat="45.20298" lon="5.94691">
        <ele>965.4</ele>
        <time>2026-07-14T07:30:16Z</time>
      </trkpt>
      <trkpt lat="45.20297" lon="5.94692">
        <ele>965.5</ele>
        <time>2026-07-14T07:30:17Z</time>
      </trkpt>
      <trkpt lat="45.20296" lon="5.94692">
        <ele>965.6</ele>
        <time>2026-07-14T07:30:18Z</time>
      </trkpt>
      <trkpt lat="45.20295" lon="5.94693">
        <ele>965.9</ele>
        <time>2026-07-14T07:30:20Z</time>
      </trkpt>
      <trkpt lat="45.20294" lon="5.94693">
        <ele>966</ele>
        <time>2026-07-14T07:30:21Z</time>
      </trkpt>
      <trkpt lat="45.20294" lon="5.94693">
        <ele>966.1</ele>
        <time>2026-07-14T07:30:22Z</time>
      </trkpt>
      <trkpt lat="45.20293" lon="5.94693">
        <ele>966.2</ele>
        <time>2026-07-14T07:30:24Z</time>
      </trkpt>
      <trkpt lat="45.20292" lon="5.94694">
        <ele>966.4</ele>
        <time>2026-07-14T07:30:25Z</time>
      </trkpt>
      <trkpt lat="45.20291" lon="5.94694">
        <ele>966.6</ele>
        <time>2026-07-14T07:30:26Z</time>
      </trkpt>
      <trkpt lat="45.2029" lon="5.94694">
        <ele>966.7</ele>
        <time>2026-07-14T07:30:27Z</time>
      </trkpt>
      <trkpt lat="45.20289" lon="5.94694">
        <ele>966.8</ele>
        <time>2026-07-14T07:30:29Z</time>
      </trkpt>
      <trkpt lat="45.20289" lon="5.94694">
        <ele>966.8</ele>
        <time>2026-07-14T07:30:30Z</time>
      </trkpt>
      <trkpt lat="45.20288" lon="5.94695">
        <ele>967</ele>
        <time>2026-07-14T07:30:31Z</time>
      </trkpt>
      <trkpt lat="45.20287" lon="5.94695">
        <ele>967.1</ele>
        <time>2026-07-14T07:30:33Z</time>
      </trkpt>
      <trkpt lat="45.20286" lon="5.94695">
        <ele>967.2</ele>
        <time>2026-07-14T07:30:34Z</time>
      </trkpt>
      <trkpt lat="45.20286" lon="5.94695">
        <ele>967.3</ele>
        <time>2026-07-14T07:30:35Z</time>
      </trkpt>
      <trkpt lat="45.20285" lon="5.94696">
        <ele>967.4</ele>
        <time>2026-07-14T07:30:36Z</time>
      </trkpt>
      <trkpt lat="45.20285" lon="5.94696">
        <ele>967.5</ele>
        <time>2026-07-14T07:30:38Z</time>
      </trkpt>
      <trkpt lat="45.20283" lon="5.94698">
        <ele>967.7</ele>
        <time>2026-07-14T07:30:39Z</time>
      </trkpt>
      <trkpt lat="45.20283" lon="5.94698">
        <ele>967.9</ele>
        <time>2026-07-14T07:30:40Z</time>
      </trkpt>
      <trkpt lat="45.20282" lon="5.94699">
        <ele>968</ele>
        <time>2026-07-14T07:30:41Z</time>
      </trkpt>
      <trkpt lat="45.20282" lon="5.947">
        <ele>968.1</ele>
        <time>2026-07-14T07:30:42Z</time>
      </trkpt>
      <trkpt lat="45.20281" lon="5.94701">
        <ele>968.2</ele>
        <time>2026-07-14T07:30:43Z</time>
      </trkpt>
      <trkpt lat="45.20281" lon="5.94702">
        <ele>968.3</ele>
        <time>2026-07-14T07:30:44Z</time>
      </trkpt>
      <trkpt lat="45.2028" lon="5.94703">
        <ele>968.4</ele>
        <time>2026-07-14T07:30:45Z</time>
      </trkpt>
      <trkpt lat="45.20278" lon="5.94703">
        <ele>968.6</ele>
        <time>2026-07-14T07:30:47Z</time>
      </trkpt>
      <trkpt lat="45.20278" lon="5.94703">
        <ele>968.7</ele>
        <time>2026-07-14T07:30:48Z</time>
      </trkpt>
      <trkpt lat="45.20277" lon="5.94703">
        <ele>968.7</ele>
        <time>2026-07-14T07:30:49Z</time>
      </trkpt>
      <trkpt lat="45.20277" lon="5.94704">
        <ele>968.8</ele>
        <time>2026-07-14T07:30:50Z</time>
      </trkpt>
      <trkpt lat="45.20276" lon="5.94705">
        <ele>968.9</ele>
        <time>2026-07-14T07:30:51Z</time>
      </trkpt>
      <trkpt lat="45.20275" lon="5.94705">
        <ele>969</ele>
        <time>2026-07-14T07:30:52Z</time>
      </trkpt>
      <trkpt lat="45.20274" lon="5.94706">
        <ele>969.2</ele>
        <time>2026-07-14T07:30:54Z</time>
      </trkpt>
      <trkpt lat="45.20274" lon="5.94707">
        <ele>969.3</ele>
        <time>2026-07-14T07:30:55Z</time>
      </trkpt>
      <trkpt lat="45.20273" lon="5.94707">
        <ele>969.4</ele>
        <time>2026-07-14T07:30:56Z</time>
      </trkpt>
      <trkpt lat="45.20272" lon="5.94708">
        <ele>969.5</ele>
        <time>2026-07-14T07:30:57Z</time>
      </trkpt>
      <trkpt lat="45.20272" lon="5.94709">
        <ele>969.6</ele>
        <time>2026-07-14T07:30:58Z</time>
      </trkpt>
      <trkpt lat="45.20271" lon="5.94709">
        <ele>969.7</ele>
        <time>2026-07-14T07:30:59Z</time>
      </trkpt>
      <trkpt lat="45.2027" lon="5.9471">
        <ele>969.8</ele>
        <time>2026-07-14T07:31:00Z</time>
      </trkpt>
      <trkpt lat="45.20269" lon="5.94711">
        <ele>970</ele>
        <time>2026-07-14T07:31:01Z</time>
      </trkpt>
      <trkpt lat="45.20268" lon="5.94712">
        <ele>970.2</ele>
        <time>2026-07-14T07:31:03Z</time>
      </trkpt>
      <trkpt lat="45.20268" lon="5.94713">
        <ele>970.3</ele>
        <time>2026-07-14T07:31:04Z</time>
      </trkpt>
      <trkpt lat="45.20267" lon="5.94713">
        <ele>970.4</ele>
        <time>2026-07-14T07:31:05Z</time>
      </trkpt>
      <trkpt lat="45.20266" lon="5.94714">
        <ele>970.5</ele>
        <time>2026-07-14T07:31:06Z</time>
      </trkpt>
      <trkpt lat="45.20265" lon="5.94714">
        <ele>970.7</ele>
        <time>2026-07-14T07:31:07Z</time>
      </trkpt>
      <trkpt lat="45.20264" lon="5.94715">
        <ele>970.8</ele>
        <time>2026-07-14T07:31:08Z</time>
      </trkpt>
      <trkpt lat="45.20263" lon="5.94715">
        <ele>970.9</ele>
        <time>2026-07-14T07:31:09Z</time>
      </trkpt>
      <trkpt lat="45.20263" lon="5.94715">
        <ele>971.1</ele>
        <time>2026-07-14T07:31:10Z</time>
      </trkpt>
      <trkpt lat="45.20262" lon="5.94716">
        <ele>971.2</ele>
        <time>2026-07-14T07:31:11Z</time>
      </trkpt>
      <trkpt lat="45.20262" lon="5.94717">
        <ele>971.3</ele>
        <time>2026-07-14T07:31:12Z</time>
      </trkpt>
      <trkpt lat="45.20262" lon="5.94718">
        <ele>971.4</ele>
        <time>2026-07-14T07:31:13Z</time>
      </trkpt>
      <trkpt lat="45.20261" lon="5.94719">
        <ele>971.4</ele>
        <time>2026-07-14T07:31:14Z</time>
      </trkpt>
      <trkpt lat="45.20261" lon="5.9472">
        <ele>971.6</ele>
        <time>2026-07-14T07:31:15Z</time>
      </trkpt>
      <trkpt lat="45.20261" lon="5.94721">
        <ele>971.7</ele>
        <time>2026-07-14T07:31:16Z</time>
      </trkpt>
      <trkpt lat="45.2026" lon="5.94721">
        <ele>971.8</ele>
        <time>2026-07-14T07:31:17Z</time>
      </trkpt>
      <trkpt lat="45.20259" lon="5.94723">
        <ele>972</ele>
        <time>2026-07-14T07:31:18Z</time>
      </trkpt>
      <trkpt lat="45.20259" lon="5.94723">
        <ele>972.1</ele>
        <time>2026-07-14T07:31:19Z</time>
      </trkpt>
      <trkpt lat="45.20258" lon="5.94725">
        <ele>972.3</ele>
        <time>2026-07-14T07:31:21Z</time>
      </trkpt>
      <trkpt lat="45.20257" lon="5.94725">
        <ele>972.5</ele>
        <time>2026-07-14T07:31:22Z</time>
      </trkpt>
      <trkpt lat="45.20257" lon="5.94726">
        <ele>972.6</ele>
        <time>2026-07-14T07:31:23Z</time>
      </trkpt>
      <trkpt lat="45.20256" lon="5.94727">
        <ele>972.7</ele>
        <time>2026-07-14T07:31:24Z</time>
      </trkpt>
      <trkpt lat="45.20256" lon="5.94727">
        <ele>972.8</ele>
        <time>2026-07-14T07:31:25Z</time>
      </trkpt>
      <trkpt lat="45.20255" lon="5.94728">
        <ele>973</ele>
        <time>2026-07-14T07:31:26Z</time>
      </trkpt>
      <trkpt lat="45.20255" lon="5.94729">
        <ele>973.1</ele>
        <time>2026-07-14T07:31:27Z</time>
      </trkpt>
      <trkpt lat="45.20254" lon="5.94729">
        <ele>973.2</ele>
        <time>2026-07-14T07:31:28Z</time>
      </trkpt>
      <trkpt lat="45.20254" lon="5.9473">
        <ele>973.3</ele>
        <time>2026-07-14T07:31:29Z</time>
      </trkpt>
      <trkpt lat="45.20254" lon="5.94731">
        <ele>973.4</ele>
        <time>2026-07-14T07:31:30Z</time>
      </trkpt>
      <trkpt lat="45.20253" lon="5.94731">
        <ele>973.5</ele>
        <time>2026-07-14T07:31:31Z</time>
      </trkpt>
      <trkpt lat="45.20253" lon="5.94732">
        <ele>973.6</ele>
        <time>2026-07-14T07:31:32Z</time>
      </trkpt>
      <trkpt lat="45.20253" lon="5.94732">
        <ele>973.7</ele>
        <time>2026-07-14T07:31:33Z</time>
      </trkpt>
      <trkpt lat="45.20252" lon="5.94733">
        <ele>973.8</ele>
        <time>2026-07-14T07:31:34Z</time>
      </trkpt>
      <trkpt lat="45.20251" lon="5.94733">
        <ele>974</ele>
        <time>2026-07-14T07:31:36Z</time>
      </trkpt>
      <trkpt lat="45.2025" lon="5.94734">
        <ele>974.3</ele>
        <time>2026-07-14T07:31:38Z</time>
      </trkpt>
      <trkpt lat="45.20249" lon="5.94735">
        <ele>974.4</ele>
        <time>2026-07-14T07:31:39Z</time>
      </trkpt>
      <trkpt lat="45.20249" lon="5.94735">
        <ele>974.6</ele>
        <time>2026-07-14T07:31:40Z</time>
      </trkpt>
      <trkpt lat="45.20248" lon="5.94736">
        <ele>974.7</ele>
        <time>2026-07-14T07:31:41Z</time>
      </trkpt>
      <trkpt lat="45.20247" lon="5.94736">
        <ele>975</ele>
        <time>2026-07-14T07:31:42Z</time>
      </trkpt>
      <trkpt lat="45.20246" lon="5.94736">
        <ele>975.1</ele>
        <time>2026-07-14T07:31:43Z</time>
      </trkpt>
      <trkpt lat="45.20245" lon="5.94738">
        <ele>975.4</ele>
        <time>2026-07-14T07:31:45Z</time>
      </trkpt>
      <trkpt lat="45.20244" lon="5.94738">
        <ele>975.5</ele>
        <time>2026-07-14T07:31:46Z</time>
      </trkpt>
      <trkpt lat="45.20244" lon="5.94738">
        <ele>975.6</ele>
        <time>2026-07-14T07:31:47Z</time>
      </trkpt>
      <trkpt lat="45.20243" lon="5.94738">
        <ele>975.8</ele>
        <time>2026-07-14T07:31:48Z</time>
      </trkpt>
      <trkpt lat="45.20242" lon="5.94739">
        <ele>976</ele>
        <time>2026-07-14T07:31:49Z</time>
      </trkpt>
      <trkpt lat="45.20242" lon="5.94739">
        <ele>976.1</ele>
        <time>2026-07-14T07:31:50Z</time>
      </trkpt>
      <trkpt lat="45.20242" lon="5.94739">
        <ele>976.1</ele>
        <time>2026-07-14T07:31:51Z</time>
      </trkpt>
      <trkpt lat="45.20241" lon="5.9474">
        <ele>976.3</ele>
        <time>2026-07-14T07:31:52Z</time>
      </trkpt>
      <trkpt lat="45.2024" lon="5.9474">
        <ele>976.4</ele>
        <time>2026-07-14T07:31:53Z</time>
      </trkpt>
      <trkpt lat="45.20239" lon="5.94741">
        <ele>976.7</ele>
        <time>2026-07-14T07:31:55Z</time>
      </trkpt>
      <trkpt lat="45.20239" lon="5.94742">
        <ele>976.8</ele>
        <time>2026-07-14T07:31:56Z</time>
      </trkpt>
      <trkpt lat="45.20239" lon="5.94744">
        <ele>977.2</ele>
        <time>2026-07-14T07:31:58Z</time>
      </trkpt>
      <trkpt lat="45.20238" lon="5.94747">
        <ele>977.6</ele>
        <time>2026-07-14T07:32:00Z</time>
      </trkpt>
      <trkpt lat="45.20238" lon="5.94747">
        <ele>977.7</ele>
        <time>2026-07-14T07:32:01Z</time>
      </trkpt>
      <trkpt lat="45.20237" lon="5.94747">
        <ele>977.8</ele>
        <time>2026-07-14T07:32:02Z</time>
      </trkpt>
      <trkpt lat="45.20237" lon="5.94748">
        <ele>977.9</ele>
        <time>2026-07-14T07:32:03Z</time>
      </trkpt>
      <trkpt lat="45.20237" lon="5.94748">
        <ele>978</ele>
        <time>2026-07-14T07:32:04Z</time>
      </trkpt>
      <trkpt lat="45.20237" lon="5.94748">
        <ele>978</ele>
        <time>2026-07-14T07:32:05Z</time>
      </trkpt>
      <trkpt lat="45.20236" lon="5.94749">
        <ele>978.2</ele>
        <time>2026-07-14T07:32:06Z</time>
      </trkpt>
      <trkpt lat="45.20236" lon="5.94749">
        <ele>978.2</ele>
        <time>2026-07-14T07:32:07Z</time>
      </trkpt>
      <trkpt lat="45.20236" lon="5.94749">
        <ele>978.2</ele>
        <time>2026-07-14T07:32:08Z</time>
      </trkpt>
      <trkpt lat="45.20236" lon="5.94749">
        <ele>978.3</ele>
        <time>2026-07-14T07:32:09Z</time>
      </trkpt>
      <trkpt lat="45.20235" lon="5.9475">
        <ele>978.5</ele>
        <time>2026-07-14T07:32:10Z</time>
      </trkpt>
      <trkpt lat="45.20235" lon="5.9475">
        <ele>978.6</ele>
        <time>2026-07-14T07:32:11Z</time>
      </trkpt>
      <trkpt lat="45.20234" lon="5.9475">
        <ele>978.7</ele>
        <time>2026-07-14T07:32:12Z</time>
      </trkpt>
      <trkpt lat="45.20234" lon="5.9475">
        <ele>978.8</ele>
        <time>2026-07-14T07:32:13Z</time>
      </trkpt>
      <trkpt lat="45.20233" lon="5.9475">
        <ele>978.9</ele>
        <time>2026-07-14T07:32:14Z</time>
      </trkpt>
      <trkpt lat="45.20232" lon="5.9475">
        <ele>979.1</ele>
        <time>2026-07-14T07:32:16Z</time>
      </trkpt>
      <trkpt lat="45.20231" lon="5.94751">
        <ele>979.4</ele>
        <time>2026-07-14T07:32:17Z</time>
      </trkpt>
      <trkpt lat="45.20231" lon="5.94751">
        <ele>979.5</ele>
        <time>2026-07-14T07:32:18Z</time>
      </trkpt>
      <trkpt lat="45.2023" lon="5.94751">
        <ele>979.7</ele>
        <time>2026-07-14T07:32:19Z</time>
      </trkpt>
      <trkpt lat="45.20229" lon="5.94751">
        <ele>979.8</ele>
        <time>2026-07-14T07:32:20Z</time>
      </trkpt>
      <trkpt lat="45.20229" lon="5.94751">
        <ele>979.9</ele>
        <time>2026-07-14T07:32:21Z</time>
      </trkpt>
      <trkpt lat="45.20229" lon="5.94752">
        <ele>980</ele>
        <time>2026-07-14T07:32:22Z</time>
      </trkpt>
      <trkpt lat="45.20228" lon="5.94752">
        <ele>980.2</ele>
        <time>2026-07-14T07:32:23Z</time>
      </trkpt>
      <trkpt lat="45.20228" lon="5.94753">
        <ele>980.3</ele>
        <time>2026-07-14T07:32:25Z</time>
      </trkpt>
      <trkpt lat="45.20227" lon="5.94753">
        <ele>980.4</ele>
        <time>2026-07-14T07:32:26Z</time>
      </trkpt>
      <trkpt lat="45.20227" lon="5.94754">
        <ele>980.6</ele>
        <time>2026-07-14T07:32:27Z</time>
      </trkpt>
      <trkpt lat="45.20226" lon="5.94754">
        <ele>980.7</ele>
        <time>2026-07-14T07:32:28Z</time>
      </trkpt>
      <trkpt lat="45.20226" lon="5.94754">
        <ele>980.8</ele>
        <time>2026-07-14T07:32:29Z</time>
      </trkpt>
      <trkpt lat="45.20226" lon="5.94755">
        <ele>980.9</ele>
        <time>2026-07-14T07:32:30Z</time>
      </trkpt>
      <trkpt lat="45.20225" lon="5.94756">
        <ele>981.1</ele>
        <time>2026-07-14T07:32:31Z</time>
      </trkpt>
      <trkpt lat="45.20225" lon="5.94756">
        <ele>981.1</ele>
        <time>2026-07-14T07:32:32Z</time>
      </trkpt>
      <trkpt lat="45.20225" lon="5.94756">
        <ele>981.2</ele>
        <time>2026-07-14T07:32:33Z</time>
      </trkpt>
      <trkpt lat="45.20224" lon="5.94757">
        <ele>981.3</ele>
        <time>2026-07-14T07:32:34Z</time>
      </trkpt>
      <trkpt lat="45.20224" lon="5.94757">
        <ele>981.4</ele>
        <time>2026-07-14T07:32:35Z</time>
      </trkpt>
      <trkpt lat="45.20224" lon="5.94757">
        <ele>981.4</ele>
        <time>2026-07-14T07:32:36Z</time>
      </trkpt>
      <trkpt lat="45.20224" lon="5.94758">
        <ele>981.6</ele>
        <time>2026-07-14T07:32:37Z</time>
      </trkpt>
      <trkpt lat="45.20224" lon="5.94764">
        <ele>982.5</ele>
        <time>2026-07-14T07:32:39Z</time>
      </trkpt>
      <trkpt lat="45.20225" lon="5.94766">
        <ele>982.9</ele>
        <time>2026-07-14T07:32:41Z</time>
      </trkpt>
      <trkpt lat="45.20224" lon="5.94768">
        <ele>983.1</ele>
        <time>2026-07-14T07:32:42Z</time>
      </trkpt>
      <trkpt lat="45.20224" lon="5.94769">
        <ele>983.2</ele>
        <time>2026-07-14T07:32:43Z</time>
      </trkpt>
      <trkpt lat="45.20223" lon="5.94769">
        <ele>983.4</ele>
        <time>2026-07-14T07:32:44Z</time>
      </trkpt>
      <trkpt lat="45.20222" lon="5.94769">
        <ele>983.5</ele>
        <time>2026-07-14T07:32:45Z</time>
      </trkpt>
      <trkpt lat="45.20222" lon="5.9477">
        <ele>983.7</ele>
        <time>2026-07-14T07:32:46Z</time>
      </trkpt>
      <trkpt lat="45.20221" lon="5.94769">
        <ele>983.8</ele>
        <time>2026-07-14T07:32:47Z</time>
      </trkpt>
      <trkpt lat="45.20221" lon="5.9477">
        <ele>983.8</ele>
        <time>2026-07-14T07:32:48Z</time>
      </trkpt>
      <trkpt lat="45.20221" lon="5.9477">
        <ele>984</ele>
        <time>2026-07-14T07:32:49Z</time>
      </trkpt>
      <trkpt lat="45.2022" lon="5.9477">
        <ele>984.1</ele>
        <time>2026-07-14T07:32:50Z</time>
      </trkpt>
      <trkpt lat="45.20219" lon="5.94771">
        <ele>984.3</ele>
        <time>2026-07-14T07:32:51Z</time>
      </trkpt>
      <trkpt lat="45.20219" lon="5.94771">
        <ele>984.4</ele>
        <time>2026-07-14T07:32:52Z</time>
      </trkpt>
      <trkpt lat="45.20218" lon="5.94771">
        <ele>984.5</ele>
        <time>2026-07-14T07:32:53Z</time>
      </trkpt>
      <trkpt lat="45.20218" lon="5.9477">
        <ele>984.6</ele>
        <time>2026-07-14T07:32:54Z</time>
      </trkpt>
      <trkpt lat="45.20218" lon="5.94769">
        <ele>984.7</ele>
        <time>2026-07-14T07:32:55Z</time>
      </trkpt>
      <trkpt lat="45.20217" lon="5.9477">
        <ele>984.9</ele>
        <time>2026-07-14T07:32:56Z</time>
      </trkpt>
      <trkpt lat="45.20217" lon="5.9477">
        <ele>984.9</ele>
        <time>2026-07-14T07:32:57Z</time>
      </trkpt>
      <trkpt lat="45.20216" lon="5.9477">
        <ele>985.1</ele>
        <time>2026-07-14T07:32:58Z</time>
      </trkpt>
      <trkpt lat="45.20216" lon="5.9477">
        <ele>985.1</ele>
        <time>2026-07-14T07:32:59Z</time>
      </trkpt>
      <trkpt lat="45.20214" lon="5.9477">
        <ele>985.5</ele>
        <time>2026-07-14T07:33:01Z</time>
      </trkpt>
      <trkpt lat="45.20213" lon="5.94771">
        <ele>985.8</ele>
        <time>2026-07-14T07:33:03Z</time>
      </trkpt>
      <trkpt lat="45.20212" lon="5.94772">
        <ele>986</ele>
        <time>2026-07-14T07:33:04Z</time>
      </trkpt>
      <trkpt lat="45.20212" lon="5.94773">
        <ele>986.1</ele>
        <time>2026-07-14T07:33:05Z</time>
      </trkpt>
      <trkpt lat="45.20212" lon="5.94773">
        <ele>986.2</ele>
        <time>2026-07-14T07:33:06Z</time>
      </trkpt>
      <trkpt lat="45.20211" lon="5.94773">
        <ele>986.2</ele>
        <time>2026-07-14T07:33:07Z</time>
      </trkpt>
      <trkpt lat="45.20211" lon="5.94774">
        <ele>986.4</ele>
        <time>2026-07-14T07:33:09Z</time>
      </trkpt>
      <trkpt lat="45.2021" lon="5.94774">
        <ele>986.5</ele>
        <time>2026-07-14T07:33:10Z</time>
      </trkpt>
      <trkpt lat="45.20211" lon="5.94774">
        <ele>986.5</ele>
        <time>2026-07-14T07:33:11Z</time>
      </trkpt>
      <trkpt lat="45.2021" lon="5.94775">
        <ele>986.6</ele>
        <time>2026-07-14T07:33:12Z</time>
      </trkpt>
      <trkpt lat="45.2021" lon="5.94775">
        <ele>986.7</ele>
        <time>2026-07-14T07:33:13Z</time>
      </trkpt>
      <trkpt lat="45.20209" lon="5.94776">
        <ele>986.8</ele>
        <time>2026-07-14T07:33:14Z</time>
      </trkpt>
      <trkpt lat="45.20209" lon="5.94776">
        <ele>986.9</ele>
        <time>2026-07-14T07:33:15Z</time>
      </trkpt>
      <trkpt lat="45.20209" lon="5.94776">
        <ele>986.9</ele>
        <time>2026-07-14T07:33:16Z</time>
      </trkpt>
      <trkpt lat="45.20209" lon="5.94776">
        <ele>987</ele>
        <time>2026-07-14T07:33:17Z</time>
      </trkpt>
      <trkpt lat="45.20209" lon="5.94775">
        <ele>987</ele>
        <time>2026-07-14T07:33:18Z</time>
      </trkpt>
      <trkpt lat="45.20209" lon="5.94775">
        <ele>987.1</ele>
        <time>2026-07-14T07:33:19Z</time>
      </trkpt>
      <trkpt lat="45.20208" lon="5.94776">
        <ele>987.3</ele>
        <time>2026-07-14T07:33:20Z</time>
      </trkpt>
      <trkpt lat="45.20207" lon="5.94777">
        <ele>987.5</ele>
        <time>2026-07-14T07:33:21Z</time>
      </trkpt>
      <trkpt lat="45.20207" lon="5.94777">
        <ele>987.6</ele>
        <time>2026-07-14T07:33:22Z</time>
      </trkpt>
      <trkpt lat="45.20205" lon="5.94778">
        <ele>988</ele>
        <time>2026-07-14T07:33:24Z</time>
      </trkpt>
      <trkpt lat="45.20203" lon="5.94777">
        <ele>988.3</ele>
        <time>2026-07-14T07:33:26Z</time>
      </trkpt>
      <trkpt lat="45.20202" lon="5.94777">
        <ele>988.5</ele>
        <time>2026-07-14T07:33:27Z</time>
      </trkpt>
      <trkpt lat="45.20202" lon="5.94776">
        <ele>988.6</ele>
        <time>2026-07-14T07:33:28Z</time>
      </trkpt>
      <trkpt lat="45.20201" lon="5.94776">
        <ele>988.7</ele>
        <time>2026-07-14T07:33:29Z</time>
      </trkpt>
      <trkpt lat="45.20201" lon="5.94776">
        <ele>988.8</ele>
        <time>2026-07-14T07:33:30Z</time>
      </trkpt>
      <trkpt lat="45.20201" lon="5.94776">
        <ele>988.8</ele>
        <time>2026-07-14T07:33:31Z</time>
      </trkpt>
      <trkpt lat="45.202" lon="5.94776">
        <ele>988.9</ele>
        <time>2026-07-14T07:33:32Z</time>
      </trkpt>
      <trkpt lat="45.202" lon="5.94776">
        <ele>989</ele>
        <time>2026-07-14T07:33:34Z</time>
      </trkpt>
      <trkpt lat="45.20198" lon="5.94776">
        <ele>989.2</ele>
        <time>2026-07-14T07:33:35Z</time>
      </trkpt>
      <trkpt lat="45.20198" lon="5.94776">
        <ele>989.4</ele>
        <time>2026-07-14T07:33:36Z</time>
      </trkpt>
      <trkpt lat="45.20197" lon="5.94776">
        <ele>989.5</ele>
        <time>2026-07-14T07:33:37Z</time>
      </trkpt>
      <trkpt lat="45.20197" lon="5.94777">
        <ele>989.5</ele>
        <time>2026-07-14T07:33:38Z</time>
      </trkpt>
      <trkpt lat="45.20196" lon="5.94777">
        <ele>989.8</ele>
        <time>2026-07-14T07:33:39Z</time>
      </trkpt>
      <trkpt lat="45.20195" lon="5.94777">
        <ele>989.8</ele>
        <time>2026-07-14T07:33:40Z</time>
      </trkpt>
      <trkpt lat="45.20195" lon="5.94777">
        <ele>989.9</ele>
        <time>2026-07-14T07:33:42Z</time>
      </trkpt>
      <trkpt lat="45.20194" lon="5.94778">
        <ele>990.1</ele>
        <time>2026-07-14T07:33:44Z</time>
      </trkpt>
      <trkpt lat="45.20194" lon="5.94779">
        <ele>990.2</ele>
        <time>2026-07-14T07:33:45Z</time>
      </trkpt>
      <trkpt lat="45.20193" lon="5.94779">
        <ele>990.3</ele>
        <time>2026-07-14T07:33:46Z</time>
      </trkpt>
      <trkpt lat="45.20192" lon="5.94779">
        <ele>990.4</ele>
        <time>2026-07-14T07:33:48Z</time>
      </trkpt>
      <trkpt lat="45.20192" lon="5.94779">
        <ele>990.6</ele>
        <time>2026-07-14T07:33:49Z</time>
      </trkpt>
      <trkpt lat="45.20191" lon="5.94779">
        <ele>990.7</ele>
        <time>2026-07-14T07:33:50Z</time>
      </trkpt>
      <trkpt lat="45.20191" lon="5.94779">
        <ele>990.8</ele>
        <time>2026-07-14T07:33:51Z</time>
      </trkpt>
      <trkpt lat="45.2019" lon="5.94779">
        <ele>990.8</ele>
        <time>2026-07-14T07:33:52Z</time>
      </trkpt>
      <trkpt lat="45.2019" lon="5.94779">
        <ele>990.9</ele>
        <time>2026-07-14T07:33:53Z</time>
      </trkpt>
      <trkpt lat="45.2019" lon="5.94779">
        <ele>991</ele>
        <time>2026-07-14T07:33:54Z</time>
      </trkpt>
      <trkpt lat="45.20188" lon="5.94779">
        <ele>991.2</ele>
        <time>2026-07-14T07:33:56Z</time>
      </trkpt>
      <trkpt lat="45.20188" lon="5.94779">
        <ele>991.3</ele>
        <time>2026-07-14T07:33:57Z</time>
      </trkpt>
      <trkpt lat="45.20187" lon="5.9478">
        <ele>991.4</ele>
        <time>2026-07-14T07:33:58Z</time>
      </trkpt>
      <trkpt lat="45.20187" lon="5.9478">
        <ele>991.6</ele>
        <time>2026-07-14T07:33:59Z</time>
      </trkpt>
      <trkpt lat="45.20186" lon="5.9478">
        <ele>991.6</ele>
        <time>2026-07-14T07:34:00Z</time>
      </trkpt>
      <trkpt lat="45.20186" lon="5.9478">
        <ele>991.7</ele>
        <time>2026-07-14T07:34:01Z</time>
      </trkpt>
      <trkpt lat="45.20186" lon="5.94781">
        <ele>991.8</ele>
        <time>2026-07-14T07:34:02Z</time>
      </trkpt>
      <trkpt lat="45.20185" lon="5.94781">
        <ele>991.9</ele>
        <time>2026-07-14T07:34:03Z</time>
      </trkpt>
      <trkpt lat="45.20185" lon="5.94781">
        <ele>992</ele>
        <time>2026-07-14T07:34:04Z</time>
      </trkpt>
      <trkpt lat="45.20184" lon="5.94782">
        <ele>992.2</ele>
        <time>2026-07-14T07:34:06Z</time>
      </trkpt>
      <trkpt lat="45.20183" lon="5.94783">
        <ele>992.3</ele>
        <time>2026-07-14T07:34:07Z</time>
      </trkpt>
      <trkpt lat="45.20183" lon="5.94784">
        <ele>992.4</ele>
        <time>2026-07-14T07:34:08Z</time>
      </trkpt>
      <trkpt lat="45.20184" lon="5.94785">
        <ele>992.5</ele>
        <time>2026-07-14T07:34:09Z</time>
      </trkpt>
      <trkpt lat="45.20184" lon="5.94785">
        <ele>992.6</ele>
        <time>2026-07-14T07:34:10Z</time>
      </trkpt>
      <trkpt lat="45.20184" lon="5.94785">
        <ele>992.7</ele>
        <time>2026-07-14T07:34:11Z</time>
      </trkpt>
      <trkpt lat="45.20184" lon="5.94785">
        <ele>992.7</ele>
        <time>2026-07-14T07:34:12Z</time>
      </trkpt>
      <trkpt lat="45.20185" lon="5.94785">
        <ele>992.8</ele>
        <time>2026-07-14T07:34:13Z</time>
      </trkpt>
      <trkpt lat="45.20185" lon="5.94785">
        <ele>992.8</ele>
        <time>2026-07-14T07:34:14Z</time>
      </trkpt>
      <trkpt lat="45.20185" lon="5.94786">
        <ele>992.8</ele>
        <time>2026-07-14T07:34:15Z</time>
      </trkpt>
      <trkpt lat="45.20185" lon="5.94786">
        <ele>992.9</ele>
        <time>2026-07-14T07:34:16Z</time>
      </trkpt>
      <trkpt lat="45.20185" lon="5.94787">
        <ele>993</ele>
        <time>2026-07-14T07:34:17Z</time>
      </trkpt>
      <trkpt lat="45.20185" lon="5.94788">
        <ele>993.2</ele>
        <time>2026-07-14T07:34:18Z</time>
      </trkpt>
      <trkpt lat="45.20184" lon="5.94791">
        <ele>993.6</ele>
        <time>2026-07-14T07:34:20Z</time>
      </trkpt>
      <trkpt lat="45.20183" lon="5.94792">
        <ele>993.8</ele>
        <time>2026-07-14T07:34:21Z</time>
      </trkpt>
      <trkpt lat="45.20183" lon="5.94793">
        <ele>994</ele>
        <time>2026-07-14T07:34:22Z</time>
      </trkpt>
      <trkpt lat="45.20183" lon="5.94794">
        <ele>994.1</ele>
        <time>2026-07-14T07:34:23Z</time>
      </trkpt>
      <trkpt lat="45.20182" lon="5.94795">
        <ele>994.2</ele>
        <time>2026-07-14T07:34:24Z</time>
      </trkpt>
      <trkpt lat="45.20182" lon="5.94795">
        <ele>994.4</ele>
        <time>2026-07-14T07:34:25Z</time>
      </trkpt>
      <trkpt lat="45.20181" lon="5.94796">
        <ele>994.5</ele>
        <time>2026-07-14T07:34:26Z</time>
      </trkpt>
      <trkpt lat="45.20181" lon="5.94797">
        <ele>994.6</ele>
        <time>2026-07-14T07:34:27Z</time>
      </trkpt>
      <trkpt lat="45.2018" lon="5.94797">
        <ele>994.8</ele>
        <time>2026-07-14T07:34:28Z</time>
      </trkpt>
      <trkpt lat="45.2018" lon="5.94799">
        <ele>995.1</ele>
        <time>2026-07-14T07:34:30Z</time>
      </trkpt>
      <trkpt lat="45.20179" lon="5.948">
        <ele>995.3</ele>
        <time>2026-07-14T07:34:31Z</time>
      </trkpt>
      <trkpt lat="45.20179" lon="5.94801">
        <ele>995.4</ele>
        <time>2026-07-14T07:34:32Z</time>
      </trkpt>
      <trkpt lat="45.20179" lon="5.94802">
        <ele>995.5</ele>
        <time>2026-07-14T07:34:33Z</time>
      </trkpt>
      <trkpt lat="45.20178" lon="5.94803">
        <ele>995.8</ele>
        <time>2026-07-14T07:34:35Z</time>
      </trkpt>
      <trkpt lat="45.20177" lon="5.94804">
        <ele>995.9</ele>
        <time>2026-07-14T07:34:36Z</time>
      </trkpt>
      <trkpt lat="45.20177" lon="5.94804">
        <ele>996.1</ele>
        <time>2026-07-14T07:34:37Z</time>
      </trkpt>
      <trkpt lat="45.20176" lon="5.94804">
        <ele>996.2</ele>
        <time>2026-07-14T07:34:38Z</time>
      </trkpt>
      <trkpt lat="45.20175" lon="5.94805">
        <ele>996.4</ele>
        <time>2026-07-14T07:34:39Z</time>
      </trkpt>
      <trkpt lat="45.20175" lon="5.94805">
        <ele>996.5</ele>
        <time>2026-07-14T07:34:40Z</time>
      </trkpt>
      <trkpt lat="45.20174" lon="5.94806">
        <ele>996.7</ele>
        <time>2026-07-14T07:34:41Z</time>
      </trkpt>
      <trkpt lat="45.20173" lon="5.94806">
        <ele>996.9</ele>
        <time>2026-07-14T07:34:42Z</time>
      </trkpt>
      <trkpt lat="45.20172" lon="5.94807">
        <ele>997.1</ele>
        <time>2026-07-14T07:34:44Z</time>
      </trkpt>
      <trkpt lat="45.20171" lon="5.94806">
        <ele>997.3</ele>
        <time>2026-07-14T07:34:45Z</time>
      </trkpt>
      <trkpt lat="45.20169" lon="5.94806">
        <ele>997.7</ele>
        <time>2026-07-14T07:34:46Z</time>
      </trkpt>
      <trkpt lat="45.20168" lon="5.94806">
        <ele>997.9</ele>
        <time>2026-07-14T07:34:47Z</time>
      </trkpt>
      <trkpt lat="45.20167" lon="5.94806">
        <ele>998.1</ele>
        <time>2026-07-14T07:34:48Z</time>
      </trkpt>
      <trkpt lat="45.20167" lon="5.94805">
        <ele>998.3</ele>
        <time>2026-07-14T07:34:49Z</time>
      </trkpt>
      <trkpt lat="45.20166" lon="5.94805">
        <ele>998.4</ele>
        <time>2026-07-14T07:34:50Z</time>
      </trkpt>
      <trkpt lat="45.20166" lon="5.94805">
        <ele>998.6</ele>
        <time>2026-07-14T07:34:51Z</time>
      </trkpt>
      <trkpt lat="45.20165" lon="5.94804">
        <ele>998.7</ele>
        <time>2026-07-14T07:34:52Z</time>
      </trkpt>
      <trkpt lat="45.20164" lon="5.94804">
        <ele>998.9</ele>
        <time>2026-07-14T07:34:53Z</time>
      </trkpt>
      <trkpt lat="45.20164" lon="5.94804">
        <ele>999</ele>
        <time>2026-07-14T07:34:54Z</time>
      </trkpt>
      <trkpt lat="45.20163" lon="5.94804">
        <ele>999.1</ele>
        <time>2026-07-14T07:34:55Z</time>
      </trkpt>
      <trkpt lat="45.20163" lon="5.94803">
        <ele>999.2</ele>
        <time>2026-07-14T07:34:57Z</time>
      </trkpt>
      <trkpt lat="45.20163" lon="5.94803">
        <ele>999.3</ele>
        <time>2026-07-14T07:34:58Z</time>
      </trkpt>
      <trkpt lat="45.20162" lon="5.94802">
        <ele>999.4</ele>
        <time>2026-07-14T07:34:59Z</time>
      </trkpt>
      <trkpt lat="45.20162" lon="5.94802">
        <ele>999.6</ele>
        <time>2026-07-14T07:35:00Z</time>
      </trkpt>
      <trkpt lat="45.20161" lon="5.94802">
        <ele>999.7</ele>
        <time>2026-07-14T07:35:01Z</time>
      </trkpt>
      <trkpt lat="45.20161" lon="5.94801">
        <ele>999.9</ele>
        <time>2026-07-14T07:35:02Z</time>
      </trkpt>
      <trkpt lat="45.2016" lon="5.94801">
        <ele>1000</ele>
        <time>2026-07-14T07:35:03Z</time>
      </trkpt>
      <trkpt lat="45.2016" lon="5.948">
        <ele>1000.1</ele>
        <time>2026-07-14T07:35:05Z</time>
      </trkpt>
      <trkpt lat="45.2016" lon="5.948">
        <ele>1000.2</ele>
        <time>2026-07-14T07:35:06Z</time>
      </trkpt>
      <trkpt lat="45.20159" lon="5.948">
        <ele>1000.4</ele>
        <time>2026-07-14T07:35:07Z</time>
      </trkpt>
      <trkpt lat="45.20158" lon="5.94799">
        <ele>1000.6</ele>
        <time>2026-07-14T07:35:08Z</time>
      </trkpt>
      <trkpt lat="45.20157" lon="5.94799">
        <ele>1000.7</ele>
        <time>2026-07-14T07:35:09Z</time>
      </trkpt>
      <trkpt lat="45.20157" lon="5.94799">
        <ele>1000.9</ele>
        <time>2026-07-14T07:35:10Z</time>
      </trkpt>
      <trkpt lat="45.20157" lon="5.94798">
        <ele>1001</ele>
        <time>2026-07-14T07:35:11Z</time>
      </trkpt>
      <trkpt lat="45.20156" lon="5.94798">
        <ele>1001.1</ele>
        <time>2026-07-14T07:35:12Z</time>
      </trkpt>
      <trkpt lat="45.20156" lon="5.94797">
        <ele>1001.2</ele>
        <time>2026-07-14T07:35:13Z</time>
      </trkpt>
      <trkpt lat="45.20155" lon="5.94797">
        <ele>1001.4</ele>
        <time>2026-07-14T07:35:14Z</time>
      </trkpt>
      <trkpt lat="45.20155" lon="5.94797">
        <ele>1001.5</ele>
        <time>2026-07-14T07:35:15Z</time>
      </trkpt>
      <trkpt lat="45.20154" lon="5.94796">
        <ele>1001.6</ele>
        <time>2026-07-14T07:35:16Z</time>
      </trkpt>
      <trkpt lat="45.20154" lon="5.94796">
        <ele>1001.7</ele>
        <time>2026-07-14T07:35:17Z</time>
      </trkpt>
      <trkpt lat="45.20154" lon="5.94796">
        <ele>1001.8</ele>
        <time>2026-07-14T07:35:18Z</time>
      </trkpt>
      <trkpt lat="45.20153" lon="5.94796">
        <ele>1001.9</ele>
        <time>2026-07-14T07:35:19Z</time>
      </trkpt>
      <trkpt lat="45.20153" lon="5.94796">
        <ele>1002</ele>
        <time>2026-07-14T07:35:20Z</time>
      </trkpt>
      <trkpt lat="45.20153" lon="5.94796">
        <ele>1002.1</ele>
        <time>2026-07-14T07:35:21Z</time>
      </trkpt>
      <trkpt lat="45.20153" lon="5.94796">
        <ele>1002.2</ele>
        <time>2026-07-14T07:35:22Z</time>
      </trkpt>
      <trkpt lat="45.20152" lon="5.94796">
        <ele>1002.2</ele>
        <time>2026-07-14T07:35:23Z</time>
      </trkpt>
      <trkpt lat="45.20152" lon="5.94797">
        <ele>1002.3</ele>
        <time>2026-07-14T07:35:24Z</time>
      </trkpt>
      <trkpt lat="45.20151" lon="5.94797">
        <ele>1002.4</ele>
        <time>2026-07-14T07:35:25Z</time>
      </trkpt>
      <trkpt lat="45.20151" lon="5.94797">
        <ele>1002.6</ele>
        <time>2026-07-14T07:35:26Z</time>
      </trkpt>
      <trkpt lat="45.2015" lon="5.94797">
        <ele>1002.7</ele>
        <time>2026-07-14T07:35:27Z</time>
      </trkpt>
      <trkpt lat="45.2015" lon="5.94798">
        <ele>1002.9</ele>
        <time>2026-07-14T07:35:28Z</time>
      </trkpt>
      <trkpt lat="45.20149" lon="5.94798">
        <ele>1003</ele>
        <time>2026-07-14T07:35:29Z</time>
      </trkpt>
      <trkpt lat="45.20149" lon="5.94798">
        <ele>1003.1</ele>
        <time>2026-07-14T07:35:30Z</time>
      </trkpt>
      <trkpt lat="45.20148" lon="5.94798">
        <ele>1003.4</ele>
        <time>2026-07-14T07:35:32Z</time>
      </trkpt>
      <trkpt lat="45.20147" lon="5.94799">
        <ele>1003.5</ele>
        <time>2026-07-14T07:35:33Z</time>
      </trkpt>
      <trkpt lat="45.20147" lon="5.948">
        <ele>1003.7</ele>
        <time>2026-07-14T07:35:34Z</time>
      </trkpt>
      <trkpt lat="45.20147" lon="5.94801">
        <ele>1003.9</ele>
        <time>2026-07-14T07:35:35Z</time>
      </trkpt>
      <trkpt lat="45.20146" lon="5.94802">
        <ele>1004.2</ele>
        <time>2026-07-14T07:35:37Z</time>
      </trkpt>
      <trkpt lat="45.20145" lon="5.94803">
        <ele>1004.4</ele>
        <time>2026-07-14T07:35:39Z</time>
      </trkpt>
      <trkpt lat="45.20145" lon="5.94803">
        <ele>1004.6</ele>
        <time>2026-07-14T07:35:40Z</time>
      </trkpt>
      <trkpt lat="45.20144" lon="5.94804">
        <ele>1004.7</ele>
        <time>2026-07-14T07:35:41Z</time>
      </trkpt>
      <trkpt lat="45.20144" lon="5.94804">
        <ele>1004.8</ele>
        <time>2026-07-14T07:35:42Z</time>
      </trkpt>
      <trkpt lat="45.20143" lon="5.94804">
        <ele>1005</ele>
        <time>2026-07-14T07:35:43Z</time>
      </trkpt>
      <trkpt lat="45.20142" lon="5.94805">
        <ele>1005.3</ele>
        <time>2026-07-14T07:35:45Z</time>
      </trkpt>
      <trkpt lat="45.20142" lon="5.94805">
        <ele>1005.3</ele>
        <time>2026-07-14T07:35:46Z</time>
      </trkpt>
      <trkpt lat="45.20141" lon="5.94805">
        <ele>1005.5</ele>
        <time>2026-07-14T07:35:47Z</time>
      </trkpt>
      <trkpt lat="45.20141" lon="5.94805">
        <ele>1005.6</ele>
        <time>2026-07-14T07:35:48Z</time>
      </trkpt>
      <trkpt lat="45.20141" lon="5.94805">
        <ele>1005.7</ele>
        <time>2026-07-14T07:35:49Z</time>
      </trkpt>
      <trkpt lat="45.2014" lon="5.94806">
        <ele>1005.8</ele>
        <time>2026-07-14T07:35:50Z</time>
      </trkpt>
      <trkpt lat="45.2014" lon="5.94806">
        <ele>1005.9</ele>
        <time>2026-07-14T07:35:51Z</time>
      </trkpt>
      <trkpt lat="45.20139" lon="5.94807">
        <ele>1006.2</ele>
        <time>2026-07-14T07:35:53Z</time>
      </trkpt>
      <trkpt lat="45.20139" lon="5.94808">
        <ele>1006.3</ele>
        <time>2026-07-14T07:35:54Z</time>
      </trkpt>
      <trkpt lat="45.20138" lon="5.94808">
        <ele>1006.4</ele>
        <time>2026-07-14T07:35:55Z</time>
      </trkpt>
      <trkpt lat="45.20138" lon="5.94808">
        <ele>1006.6</ele>
        <time>2026-07-14T07:35:56Z</time>
      </trkpt>
      <trkpt lat="45.20137" lon="5.94808">
        <ele>1006.8</ele>
        <time>2026-07-14T07:35:57Z</time>
      </trkpt>
      <trkpt lat="45.20136" lon="5.94808">
        <ele>1006.9</ele>
        <time>2026-07-14T07:35:58Z</time>
      </trkpt>
      <trkpt lat="45.20136" lon="5.94809">
        <ele>1007</ele>
        <time>2026-07-14T07:35:59Z</time>
      </trkpt>
      <trkpt lat="45.20135" lon="5.94809">
        <ele>1007.2</ele>
        <time>2026-07-14T07:36:00Z</time>
      </trkpt>
      <trkpt lat="45.20135" lon="5.94809">
        <ele>1007.3</ele>
        <time>2026-07-14T07:36:01Z</time>
      </trkpt>
      <trkpt lat="45.20135" lon="5.9481">
        <ele>1007.4</ele>
        <time>2026-07-14T07:36:03Z</time>
      </trkpt>
      <trkpt lat="45.20134" lon="5.9481">
        <ele>1007.6</ele>
        <time>2026-07-14T07:36:04Z</time>
      </trkpt>
      <trkpt lat="45.20134" lon="5.9481">
        <ele>1007.7</ele>
        <time>2026-07-14T07:36:05Z</time>
      </trkpt>
      <trkpt lat="45.20133" lon="5.94809">
        <ele>1007.8</ele>
        <time>2026-07-14T07:36:06Z</time>
      </trkpt>
      <trkpt lat="45.20133" lon="5.94809">
        <ele>1007.9</ele>
        <time>2026-07-14T07:36:07Z</time>
      </trkpt>
      <trkpt lat="45.20132" lon="5.94809">
        <ele>1008.1</ele>
        <time>2026-07-14T07:36:08Z</time>
      </trkpt>
      <trkpt lat="45.20132" lon="5.94809">
        <ele>1008.2</ele>
        <time>2026-07-14T07:36:09Z</time>
      </trkpt>
      <trkpt lat="45.20131" lon="5.94809">
        <ele>1008.4</ele>
        <time>2026-07-14T07:36:11Z</time>
      </trkpt>
      <trkpt lat="45.2013" lon="5.94809">
        <ele>1008.6</ele>
        <time>2026-07-14T07:36:12Z</time>
      </trkpt>
      <trkpt lat="45.2013" lon="5.94809">
        <ele>1008.7</ele>
        <time>2026-07-14T07:36:13Z</time>
      </trkpt>
      <trkpt lat="45.20129" lon="5.9481">
        <ele>1008.8</ele>
        <time>2026-07-14T07:36:14Z</time>
      </trkpt>
      <trkpt lat="45.20129" lon="5.9481">
        <ele>1009</ele>
        <time>2026-07-14T07:36:15Z</time>
      </trkpt>
      <trkpt lat="45.20129" lon="5.94811">
        <ele>1009.1</ele>
        <time>2026-07-14T07:36:16Z</time>
      </trkpt>
      <trkpt lat="45.20128" lon="5.94811">
        <ele>1009.3</ele>
        <time>2026-07-14T07:36:18Z</time>
      </trkpt>
      <trkpt lat="45.20128" lon="5.94812">
        <ele>1009.4</ele>
        <time>2026-07-14T07:36:19Z</time>
      </trkpt>
      <trkpt lat="45.20127" lon="5.94812">
        <ele>1009.5</ele>
        <time>2026-07-14T07:36:20Z</time>
      </trkpt>
      <trkpt lat="45.20127" lon="5.94812">
        <ele>1009.6</ele>
        <time>2026-07-14T07:36:21Z</time>
      </trkpt>
      <trkpt lat="45.20127" lon="5.94813">
        <ele>1009.7</ele>
        <time>2026-07-14T07:36:22Z</time>
      </trkpt>
      <trkpt lat="45.20127" lon="5.94813">
        <ele>1009.7</ele>
        <time>2026-07-14T07:36:23Z</time>
      </trkpt>
      <trkpt lat="45.20127" lon="5.94813">
        <ele>1009.7</ele>
        <time>2026-07-14T07:36:24Z</time>
      </trkpt>
      <trkpt lat="45.20126" lon="5.94813">
        <ele>1010</ele>
        <time>2026-07-14T07:36:26Z</time>
      </trkpt>
      <trkpt lat="45.20125" lon="5.94814">
        <ele>1010.1</ele>
        <time>2026-07-14T07:36:27Z</time>
      </trkpt>
      <trkpt lat="45.20125" lon="5.94814">
        <ele>1010.2</ele>
        <time>2026-07-14T07:36:28Z</time>
      </trkpt>
      <trkpt lat="45.20124" lon="5.94814">
        <ele>1010.3</ele>
        <time>2026-07-14T07:36:29Z</time>
      </trkpt>
      <trkpt lat="45.20124" lon="5.94814">
        <ele>1010.5</ele>
        <time>2026-07-14T07:36:30Z</time>
      </trkpt>
      <trkpt lat="45.20123" lon="5.94814">
        <ele>1010.6</ele>
        <time>2026-07-14T07:36:31Z</time>
      </trkpt>
      <trkpt lat="45.20123" lon="5.94814">
        <ele>1010.6</ele>
        <time>2026-07-14T07:36:32Z</time>
      </trkpt>
      <trkpt lat="45.20122" lon="5.94815">
        <ele>1010.8</ele>
        <time>2026-07-14T07:36:33Z</time>
      </trkpt>
      <trkpt lat="45.20122" lon="5.94815">
        <ele>1010.9</ele>
        <time>2026-07-14T07:36:35Z</time>
      </trkpt>
      <trkpt lat="45.20122" lon="5.94816">
        <ele>1011</ele>
        <time>2026-07-14T07:36:36Z</time>
      </trkpt>
      <trkpt lat="45.20121" lon="5.94816">
        <ele>1011.1</ele>
        <time>2026-07-14T07:36:37Z</time>
      </trkpt>
      <trkpt lat="45.20121" lon="5.94817">
        <ele>1011.2</ele>
        <time>2026-07-14T07:36:38Z</time>
      </trkpt>
      <trkpt lat="45.20121" lon="5.94817">
        <ele>1011.3</ele>
        <time>2026-07-14T07:36:39Z</time>
      </trkpt>
      <trkpt lat="45.2012" lon="5.94818">
        <ele>1011.5</ele>
        <time>2026-07-14T07:36:40Z</time>
      </trkpt>
      <trkpt lat="45.2012" lon="5.94818">
        <ele>1011.6</ele>
        <time>2026-07-14T07:36:41Z</time>
      </trkpt>
      <trkpt lat="45.2012" lon="5.94819">
        <ele>1011.7</ele>
        <time>2026-07-14T07:36:42Z</time>
      </trkpt>
      <trkpt lat="45.2012" lon="5.94819">
        <ele>1011.8</ele>
        <time>2026-07-14T07:36:43Z</time>
      </trkpt>
      <trkpt lat="45.20119" lon="5.9482">
        <ele>1011.9</ele>
        <time>2026-07-14T07:36:44Z</time>
      </trkpt>
      <trkpt lat="45.20119" lon="5.9482">
        <ele>1012.1</ele>
        <time>2026-07-14T07:36:45Z</time>
      </trkpt>
      <trkpt lat="45.20118" lon="5.94821">
        <ele>1012.2</ele>
        <time>2026-07-14T07:36:46Z</time>
      </trkpt>
      <trkpt lat="45.20118" lon="5.94821">
        <ele>1012.3</ele>
        <time>2026-07-14T07:36:47Z</time>
      </trkpt>
      <trkpt lat="45.20117" lon="5.94822">
        <ele>1012.4</ele>
        <time>2026-07-14T07:36:48Z</time>
      </trkpt>
      <trkpt lat="45.20117" lon="5.94822">
        <ele>1012.5</ele>
        <time>2026-07-14T07:36:49Z</time>
      </trkpt>
      <trkpt lat="45.20117" lon="5.94822">
        <ele>1012.6</ele>
        <time>2026-07-14T07:36:50Z</time>
      </trkpt>
      <trkpt lat="45.20117" lon="5.94822">
        <ele>1012.6</ele>
        <time>2026-07-14T07:36:51Z</time>
      </trkpt>
      <trkpt lat="45.20116" lon="5.94822">
        <ele>1012.7</ele>
        <time>2026-07-14T07:36:52Z</time>
      </trkpt>
      <trkpt lat="45.20116" lon="5.94822">
        <ele>1012.8</ele>
        <time>2026-07-14T07:36:53Z</time>
      </trkpt>
      <trkpt lat="45.20115" lon="5.94823">
        <ele>1012.9</ele>
        <time>2026-07-14T07:36:54Z</time>
      </trkpt>
      <trkpt lat="45.20115" lon="5.94823">
        <ele>1013</ele>
        <time>2026-07-14T07:36:55Z</time>
      </trkpt>
      <trkpt lat="45.20115" lon="5.94822">
        <ele>1013.1</ele>
        <time>2026-07-14T07:36:56Z</time>
      </trkpt>
      <trkpt lat="45.20115" lon="5.94822">
        <ele>1013.1</ele>
        <time>2026-07-14T07:36:57Z</time>
      </trkpt>
      <trkpt lat="45.20115" lon="5.94822">
        <ele>1013.2</ele>
        <time>2026-07-14T07:36:58Z</time>
      </trkpt>
      <trkpt lat="45.20115" lon="5.94822">
        <ele>1013.2</ele>
        <time>2026-07-14T07:36:59Z</time>
      </trkpt>
      <trkpt lat="45.20114" lon="5.94823">
        <ele>1013.3</ele>
        <time>2026-07-14T07:37:00Z</time>
      </trkpt>
      <trkpt lat="45.20114" lon="5.94824">
        <ele>1013.4</ele>
        <time>2026-07-14T07:37:01Z</time>
      </trkpt>
      <trkpt lat="45.20114" lon="5.94824">
        <ele>1013.6</ele>
        <time>2026-07-14T07:37:02Z</time>
      </trkpt>
      <trkpt lat="45.20113" lon="5.94826">
        <ele>1013.8</ele>
        <time>2026-07-14T07:37:03Z</time>
      </trkpt>
      <trkpt lat="45.20113" lon="5.94827">
        <ele>1014</ele>
        <time>2026-07-14T07:37:04Z</time>
      </trkpt>
      <trkpt lat="45.20113" lon="5.94828">
        <ele>1014.1</ele>
        <time>2026-07-14T07:37:05Z</time>
      </trkpt>
      <trkpt lat="45.20113" lon="5.94829">
        <ele>1014.3</ele>
        <time>2026-07-14T07:37:06Z</time>
      </trkpt>
      <trkpt lat="45.20113" lon="5.9483">
        <ele>1014.4</ele>
        <time>2026-07-14T07:37:07Z</time>
      </trkpt>
      <trkpt lat="45.20112" lon="5.94831">
        <ele>1014.6</ele>
        <time>2026-07-14T07:37:09Z</time>
      </trkpt>
      <trkpt lat="45.20112" lon="5.94832">
        <ele>1014.7</ele>
        <time>2026-07-14T07:37:10Z</time>
      </trkpt>
      <trkpt lat="45.20112" lon="5.94833">
        <ele>1014.8</ele>
        <time>2026-07-14T07:37:11Z</time>
      </trkpt>
      <trkpt lat="45.20112" lon="5.94834">
        <ele>1014.9</ele>
        <time>2026-07-14T07:37:12Z</time>
      </trkpt>
      <trkpt lat="45.20111" lon="5.94834">
        <ele>1015</ele>
        <time>2026-07-14T07:37:13Z</time>
      </trkpt>
      <trkpt lat="45.20111" lon="5.94835">
        <ele>1015.1</ele>
        <time>2026-07-14T07:37:14Z</time>
      </trkpt>
      <trkpt lat="45.20111" lon="5.94835">
        <ele>1015.2</ele>
        <time>2026-07-14T07:37:15Z</time>
      </trkpt>
      <trkpt lat="45.20111" lon="5.94836">
        <ele>1015.3</ele>
        <time>2026-07-14T07:37:16Z</time>
      </trkpt>
      <trkpt lat="45.20111" lon="5.94837">
        <ele>1015.4</ele>
        <time>2026-07-14T07:37:17Z</time>
      </trkpt>
      <trkpt lat="45.20111" lon="5.94838">
        <ele>1015.6</ele>
        <time>2026-07-14T07:37:18Z</time>
      </trkpt>
      <trkpt lat="45.2011" lon="5.94839">
        <ele>1015.7</ele>
        <time>2026-07-14T07:37:19Z</time>
      </trkpt>
      <trkpt lat="45.2011" lon="5.9484">
        <ele>1015.8</ele>
        <time>2026-07-14T07:37:20Z</time>
      </trkpt>
      <trkpt lat="45.2011" lon="5.9484">
        <ele>1015.9</ele>
        <time>2026-07-14T07:37:21Z</time>
      </trkpt>
      <trkpt lat="45.20109" lon="5.94842">
        <ele>1016.2</ele>
        <time>2026-07-14T07:37:23Z</time>
      </trkpt>
      <trkpt lat="45.20109" lon="5.94843">
        <ele>1016.3</ele>
        <time>2026-07-14T07:37:24Z</time>
      </trkpt>
      <trkpt lat="45.20109" lon="5.94844">
        <ele>1016.4</ele>
        <time>2026-07-14T07:37:25Z</time>
      </trkpt>
      <trkpt lat="45.20108" lon="5.94845">
        <ele>1016.5</ele>
        <time>2026-07-14T07:37:26Z</time>
      </trkpt>
      <trkpt lat="45.20108" lon="5.94845">
        <ele>1016.7</ele>
        <time>2026-07-14T07:37:27Z</time>
      </trkpt>
      <trkpt lat="45.20108" lon="5.94846">
        <ele>1016.8</ele>
        <time>2026-07-14T07:37:28Z</time>
      </trkpt>
      <trkpt lat="45.20107" lon="5.94847">
        <ele>1016.9</ele>
        <time>2026-07-14T07:37:29Z</time>
      </trkpt>
      <trkpt lat="45.20107" lon="5.94848">
        <ele>1017</ele>
        <time>2026-07-14T07:37:30Z</time>
      </trkpt>
      <trkpt lat="45.20107" lon="5.94849">
        <ele>1017.1</ele>
        <time>2026-07-14T07:37:31Z</time>
      </trkpt>
      <trkpt lat="45.20107" lon="5.94849">
        <ele>1017.2</ele>
        <time>2026-07-14T07:37:32Z</time>
      </trkpt>
      <trkpt lat="45.20106" lon="5.9485">
        <ele>1017.3</ele>
        <time>2026-07-14T07:37:33Z</time>
      </trkpt>
      <trkpt lat="45.20106" lon="5.9485">
        <ele>1017.4</ele>
        <time>2026-07-14T07:37:34Z</time>
      </trkpt>
      <trkpt lat="45.20106" lon="5.94851">
        <ele>1017.5</ele>
        <time>2026-07-14T07:37:35Z</time>
      </trkpt>
      <trkpt lat="45.20105" lon="5.94852">
        <ele>1017.7</ele>
        <time>2026-07-14T07:37:36Z</time>
      </trkpt>
      <trkpt lat="45.20105" lon="5.94853">
        <ele>1017.8</ele>
        <time>2026-07-14T07:37:37Z</time>
      </trkpt>
      <trkpt lat="45.20105" lon="5.94854">
        <ele>1017.9</ele>
        <time>2026-07-14T07:37:38Z</time>
      </trkpt>
      <trkpt lat="45.20105" lon="5.94855">
        <ele>1018.1</ele>
        <time>2026-07-14T07:37:39Z</time>
      </trkpt>
      <trkpt lat="45.20105" lon="5.94856">
        <ele>1018.2</ele>
        <time>2026-07-14T07:37:40Z</time>
      </trkpt>
      <trkpt lat="45.20105" lon="5.94856">
        <ele>1018.3</ele>
        <time>2026-07-14T07:37:41Z</time>
      </trkpt>
      <trkpt lat="45.20104" lon="5.94857">
        <ele>1018.5</ele>
        <time>2026-07-14T07:37:42Z</time>
      </trkpt>
      <trkpt lat="45.20104" lon="5.94858">
        <ele>1018.6</ele>
        <time>2026-07-14T07:37:43Z</time>
      </trkpt>
      <trkpt lat="45.20104" lon="5.94859">
        <ele>1018.7</ele>
        <time>2026-07-14T07:37:44Z</time>
      </trkpt>
      <trkpt lat="45.20104" lon="5.94859">
        <ele>1018.8</ele>
        <time>2026-07-14T07:37:45Z</time>
      </trkpt>
      <trkpt lat="45.20104" lon="5.9486">
        <ele>1018.9</ele>
        <time>2026-07-14T07:37:46Z</time>
      </trkpt>
      <trkpt lat="45.20104" lon="5.94861">
        <ele>1019</ele>
        <time>2026-07-14T07:37:47Z</time>
      </trkpt>
      <trkpt lat="45.20104" lon="5.94862">
        <ele>1019.2</ele>
        <time>2026-07-14T07:37:49Z</time>
      </trkpt>
      <trkpt lat="45.20103" lon="5.94863">
        <ele>1019.3</ele>
        <time>2026-07-14T07:37:50Z</time>
      </trkpt>
      <trkpt lat="45.20103" lon="5.94863">
        <ele>1019.4</ele>
        <time>2026-07-14T07:37:51Z</time>
      </trkpt>
      <trkpt lat="45.20103" lon="5.94864">
        <ele>1019.5</ele>
        <time>2026-07-14T07:37:52Z</time>
      </trkpt>
      <trkpt lat="45.20103" lon="5.94865">
        <ele>1019.6</ele>
        <time>2026-07-14T07:37:53Z</time>
      </trkpt>
      <trkpt lat="45.20103" lon="5.94865">
        <ele>1019.7</ele>
        <time>2026-07-14T07:37:54Z</time>
      </trkpt>
      <trkpt lat="45.20103" lon="5.94866">
        <ele>1019.9</ele>
        <time>2026-07-14T07:37:55Z</time>
      </trkpt>
      <trkpt lat="45.20103" lon="5.94867">
        <ele>1020</ele>
        <time>2026-07-14T07:37:56Z</time>
      </trkpt>
      <trkpt lat="45.20103" lon="5.94868">
        <ele>1020.1</ele>
        <time>2026-07-14T07:37:57Z</time>
      </trkpt>
      <trkpt lat="45.20102" lon="5.94869">
        <ele>1020.2</ele>
        <time>2026-07-14T07:37:58Z</time>
      </trkpt>
      <trkpt lat="45.20102" lon="5.94869">
        <ele>1020.3</ele>
        <time>2026-07-14T07:37:59Z</time>
      </trkpt>
      <trkpt lat="45.20102" lon="5.9487">
        <ele>1020.5</ele>
        <time>2026-07-14T07:38:00Z</time>
      </trkpt>
      <trkpt lat="45.20101" lon="5.94871">
        <ele>1020.6</ele>
        <time>2026-07-14T07:38:01Z</time>
      </trkpt>
      <trkpt lat="45.20101" lon="5.94871">
        <ele>1020.8</ele>
        <time>2026-07-14T07:38:02Z</time>
      </trkpt>
      <trkpt lat="45.201" lon="5.94872">
        <ele>1020.9</ele>
        <time>2026-07-14T07:38:03Z</time>
      </trkpt>
      <trkpt lat="45.201" lon="5.94873">
        <ele>1021.1</ele>
        <time>2026-07-14T07:38:04Z</time>
      </trkpt>
      <trkpt lat="45.20099" lon="5.94874">
        <ele>1021.3</ele>
        <time>2026-07-14T07:38:05Z</time>
      </trkpt>
      <trkpt lat="45.20099" lon="5.94875">
        <ele>1021.4</ele>
        <time>2026-07-14T07:38:06Z</time>
      </trkpt>
      <trkpt lat="45.20099" lon="5.94875">
        <ele>1021.6</ele>
        <time>2026-07-14T07:38:07Z</time>
      </trkpt>
      <trkpt lat="45.20098" lon="5.94876">
        <ele>1021.7</ele>
        <time>2026-07-14T07:38:08Z</time>
      </trkpt>
      <trkpt lat="45.20098" lon="5.94876">
        <ele>1021.8</ele>
        <time>2026-07-14T07:38:09Z</time>
      </trkpt>
      <trkpt lat="45.20097" lon="5.94876">
        <ele>1021.9</ele>
        <time>2026-07-14T07:38:10Z</time>
      </trkpt>
      <trkpt lat="45.20097" lon="5.94876">
        <ele>1022</ele>
        <time>2026-07-14T07:38:11Z</time>
      </trkpt>
      <trkpt lat="45.20097" lon="5.94877">
        <ele>1022.2</ele>
        <time>2026-07-14T07:38:12Z</time>
      </trkpt>
      <trkpt lat="45.20096" lon="5.94878">
        <ele>1022.3</ele>
        <time>2026-07-14T07:38:13Z</time>
      </trkpt>
      <trkpt lat="45.20096" lon="5.94878">
        <ele>1022.4</ele>
        <time>2026-07-14T07:38:14Z</time>
      </trkpt>
      <trkpt lat="45.20096" lon="5.94879">
        <ele>1022.5</ele>
        <time>2026-07-14T07:38:15Z</time>
      </trkpt>
      <trkpt lat="45.20096" lon="5.94879">
        <ele>1022.6</ele>
        <time>2026-07-14T07:38:16Z</time>
      </trkpt>
      <trkpt lat="45.20096" lon="5.9488">
        <ele>1022.7</ele>
        <time>2026-07-14T07:38:17Z</time>
      </trkpt>
      <trkpt lat="45.20096" lon="5.94881">
        <ele>1022.9</ele>
        <time>2026-07-14T07:38:18Z</time>
      </trkpt>
      <trkpt lat="45.20096" lon="5.94881">
        <ele>1022.9</ele>
        <time>2026-07-14T07:38:19Z</time>
      </trkpt>
      <trkpt lat="45.20096" lon="5.94882">
        <ele>1023</ele>
        <time>2026-07-14T07:38:20Z</time>
      </trkpt>
      <trkpt lat="45.20096" lon="5.94882">
        <ele>1023.1</ele>
        <time>2026-07-14T07:38:21Z</time>
      </trkpt>
      <trkpt lat="45.20096" lon="5.94882">
        <ele>1023.2</ele>
        <time>2026-07-14T07:38:22Z</time>
      </trkpt>
      <trkpt lat="45.20096" lon="5.94883">
        <ele>1023.4</ele>
        <time>2026-07-14T07:38:24Z</time>
      </trkpt>
      <trkpt lat="45.20095" lon="5.94884">
        <ele>1023.4</ele>
        <time>2026-07-14T07:38:25Z</time>
      </trkpt>
      <trkpt lat="45.20095" lon="5.94884">
        <ele>1023.5</ele>
        <time>2026-07-14T07:38:26Z</time>
      </trkpt>
      <trkpt lat="45.20095" lon="5.94885">
        <ele>1023.6</ele>
        <time>2026-07-14T07:38:28Z</time>
      </trkpt>
      <trkpt lat="45.20095" lon="5.94885">
        <ele>1023.7</ele>
        <time>2026-07-14T07:38:29Z</time>
      </trkpt>
      <trkpt lat="45.20095" lon="5.94887">
        <ele>1024</ele>
        <time>2026-07-14T07:38:30Z</time>
      </trkpt>
      <trkpt lat="45.20095" lon="5.94888">
        <ele>1024.2</ele>
        <time>2026-07-14T07:38:32Z</time>
      </trkpt>
      <trkpt lat="45.20096" lon="5.94888">
        <ele>1024.2</ele>
        <time>2026-07-14T07:38:34Z</time>
      </trkpt>
      <trkpt lat="45.20096" lon="5.94889">
        <ele>1024.4</ele>
        <time>2026-07-14T07:38:35Z</time>
      </trkpt>
      <trkpt lat="45.20096" lon="5.94889">
        <ele>1024.5</ele>
        <time>2026-07-14T07:38:36Z</time>
      </trkpt>
      <trkpt lat="45.20095" lon="5.9489">
        <ele>1024.6</ele>
        <time>2026-07-14T07:38:37Z</time>
      </trkpt>
      <trkpt lat="45.20096" lon="5.94891">
        <ele>1024.7</ele>
        <time>2026-07-14T07:38:38Z</time>
      </trkpt>
      <trkpt lat="45.20096" lon="5.94891">
        <ele>1024.9</ele>
        <time>2026-07-14T07:38:39Z</time>
      </trkpt>
      <trkpt lat="45.20096" lon="5.94892">
        <ele>1024.9</ele>
        <time>2026-07-14T07:38:40Z</time>
      </trkpt>
      <trkpt lat="45.20096" lon="5.94892">
        <ele>1025</ele>
        <time>2026-07-14T07:38:41Z</time>
      </trkpt>
      <trkpt lat="45.20095" lon="5.94893">
        <ele>1025.2</ele>
        <time>2026-07-14T07:38:42Z</time>
      </trkpt>
      <trkpt lat="45.20095" lon="5.94894">
        <ele>1025.4</ele>
        <time>2026-07-14T07:38:43Z</time>
      </trkpt>
      <trkpt lat="45.20095" lon="5.94895">
        <ele>1025.6</ele>
        <time>2026-07-14T07:38:44Z</time>
      </trkpt>
      <trkpt lat="45.20095" lon="5.94895">
        <ele>1025.7</ele>
        <time>2026-07-14T07:38:45Z</time>
      </trkpt>
      <trkpt lat="45.20094" lon="5.94896">
        <ele>1025.8</ele>
        <time>2026-07-14T07:38:46Z</time>
      </trkpt>
      <trkpt lat="45.20094" lon="5.94897">
        <ele>1026</ele>
        <time>2026-07-14T07:38:47Z</time>
      </trkpt>
      <trkpt lat="45.20094" lon="5.94897">
        <ele>1026.1</ele>
        <time>2026-07-14T07:38:48Z</time>
      </trkpt>
      <trkpt lat="45.20093" lon="5.94898">
        <ele>1026.3</ele>
        <time>2026-07-14T07:38:49Z</time>
      </trkpt>
      <trkpt lat="45.20093" lon="5.94898">
        <ele>1026.3</ele>
        <time>2026-07-14T07:38:50Z</time>
      </trkpt>
      <trkpt lat="45.20093" lon="5.94899">
        <ele>1026.4</ele>
        <time>2026-07-14T07:38:51Z</time>
      </trkpt>
      <trkpt lat="45.20093" lon="5.94899">
        <ele>1026.5</ele>
        <time>2026-07-14T07:38:52Z</time>
      </trkpt>
      <trkpt lat="45.20093" lon="5.949">
        <ele>1026.6</ele>
        <time>2026-07-14T07:38:53Z</time>
      </trkpt>
      <trkpt lat="45.20092" lon="5.949">
        <ele>1026.7</ele>
        <time>2026-07-14T07:38:54Z</time>
      </trkpt>
      <trkpt lat="45.20092" lon="5.949">
        <ele>1026.8</ele>
        <time>2026-07-14T07:38:55Z</time>
      </trkpt>
      <trkpt lat="45.20092" lon="5.94901">
        <ele>1026.9</ele>
        <time>2026-07-14T07:38:56Z</time>
      </trkpt>
      <trkpt lat="45.20091" lon="5.94901">
        <ele>1027</ele>
        <time>2026-07-14T07:38:57Z</time>
      </trkpt>
      <trkpt lat="45.20091" lon="5.94901">
        <ele>1027.1</ele>
        <time>2026-07-14T07:38:58Z</time>
      </trkpt>
      <trkpt lat="45.20091" lon="5.94902">
        <ele>1027.2</ele>
        <time>2026-07-14T07:38:59Z</time>
      </trkpt>
      <trkpt lat="45.20091" lon="5.94901">
        <ele>1027.2</ele>
        <time>2026-07-14T07:39:00Z</time>
      </trkpt>
      <trkpt lat="45.20091" lon="5.94902">
        <ele>1027.3</ele>
        <time>2026-07-14T07:39:01Z</time>
      </trkpt>
      <trkpt lat="45.20091" lon="5.94901">
        <ele>1027.4</ele>
        <time>2026-07-14T07:39:02Z</time>
      </trkpt>
      <trkpt lat="45.20091" lon="5.94901">
        <ele>1027.4</ele>
        <time>2026-07-14T07:39:03Z</time>
      </trkpt>
      <trkpt lat="45.20091" lon="5.94902">
        <ele>1027.6</ele>
        <time>2026-07-14T07:39:04Z</time>
      </trkpt>
      <trkpt lat="45.20091" lon="5.94903">
        <ele>1027.7</ele>
        <time>2026-07-14T07:39:05Z</time>
      </trkpt>
      <trkpt lat="45.20091" lon="5.94904">
        <ele>1027.9</ele>
        <time>2026-07-14T07:39:06Z</time>
      </trkpt>
      <trkpt lat="45.20091" lon="5.94904">
        <ele>1027.9</ele>
        <time>2026-07-14T07:39:07Z</time>
      </trkpt>
      <trkpt lat="45.20091" lon="5.94904">
        <ele>1027.9</ele>
        <time>2026-07-14T07:39:08Z</time>
      </trkpt>
      <trkpt lat="45.2009" lon="5.94903">
        <ele>1028.2</ele>
        <time>2026-07-14T07:39:09Z</time>
      </trkpt>
      <trkpt lat="45.20089" lon="5.94901">
        <ele>1028.6</ele>
        <time>2026-07-14T07:39:11Z</time>
      </trkpt>
      <trkpt lat="45.20089" lon="5.94901">
        <ele>1028.6</ele>
        <time>2026-07-14T07:39:12Z</time>
      </trkpt>
      <trkpt lat="45.20089" lon="5.94901">
        <ele>1028.7</ele>
        <time>2026-07-14T07:39:13Z</time>
      </trkpt>
      <trkpt lat="45.20089" lon="5.949">
        <ele>1028.7</ele>
        <time>2026-07-14T07:39:14Z</time>
      </trkpt>
      <trkpt lat="45.20089" lon="5.949">
        <ele>1028.7</ele>
        <time>2026-07-14T07:39:15Z</time>
      </trkpt>
      <trkpt lat="45.20089" lon="5.949">
        <ele>1028.8</ele>
        <time>2026-07-14T07:39:16Z</time>
      </trkpt>
      <trkpt lat="45.20089" lon="5.949">
        <ele>1028.8</ele>
        <time>2026-07-14T07:39:17Z</time>
      </trkpt>
      <trkpt lat="45.20089" lon="5.949">
        <ele>1028.8</ele>
        <time>2026-07-14T07:39:19Z</time>
      </trkpt>
      <trkpt lat="45.20089" lon="5.949">
        <ele>1028.8</ele>
        <time>2026-07-14T07:39:20Z</time>
      </trkpt>
      <trkpt lat="45.20089" lon="5.949">
        <ele>1028.9</ele>
        <time>2026-07-14T07:39:21Z</time>
      </trkpt>
      <trkpt lat="45.20089" lon="5.949">
        <ele>1028.9</ele>
        <time>2026-07-14T07:39:22Z</time>
      </trkpt>
      <trkpt lat="45.20089" lon="5.949">
        <ele>1028.9</ele>
        <time>2026-07-14T07:39:23Z</time>
      </trkpt>
      <trkpt lat="45.20089" lon="5.949">
        <ele>1028.9</ele>
        <time>2026-07-14T07:39:24Z</time>
      </trkpt>
      <trkpt lat="45.20089" lon="5.949">
        <ele>1028.9</ele>
        <time>2026-07-14T07:39:25Z</time>
      </trkpt>
      <trkpt lat="45.20089" lon="5.949">
        <ele>1029</ele>
        <time>2026-07-14T07:39:26Z</time>
      </trkpt>
      <trkpt lat="45.20089" lon="5.949">
        <ele>1029</ele>
        <time>2026-07-14T07:39:27Z</time>
      </trkpt>
      <trkpt lat="45.20089" lon="5.949">
        <ele>1029</ele>
        <time>2026-07-14T07:39:28Z</time>
      </trkpt>
      <trkpt lat="45.20089" lon="5.949">
        <ele>1029</ele>
        <time>2026-07-14T07:39:29Z</time>
      </trkpt>
      <trkpt lat="45.20089" lon="5.949">
        <ele>1029</ele>
        <time>2026-07-14T07:39:30Z</time>
      </trkpt>
      <trkpt lat="45.20089" lon="5.949">
        <ele>1029</ele>
        <time>2026-07-14T07:39:31Z</time>
      </trkpt>
      <trkpt lat="45.20089" lon="5.949">
        <ele>1029.1</ele>
        <time>2026-07-14T07:39:32Z</time>
      </trkpt>
      <trkpt lat="45.20089" lon="5.949">
        <ele>1029.1</ele>
        <time>2026-07-14T07:39:33Z</time>
      </trkpt>
      <trkpt lat="45.20089" lon="5.949">
        <ele>1029.1</ele>
        <time>2026-07-14T07:39:34Z</time>
      </trkpt>
      <trkpt lat="45.20089" lon="5.949">
        <ele>1029.1</ele>
        <time>2026-07-14T07:39:35Z</time>
      </trkpt>
      <trkpt lat="45.20089" lon="5.949">
        <ele>1029.1</ele>
        <time>2026-07-14T07:39:36Z</time>
      </trkpt>
      <trkpt lat="45.20089" lon="5.949">
        <ele>1029.1</ele>
        <time>2026-07-14T07:39:37Z</time>
      </trkpt>
      <trkpt lat="45.20089" lon="5.949">
        <ele>1029.1</ele>
        <time>2026-07-14T07:39:38Z</time>
      </trkpt>
      <trkpt lat="45.20089" lon="5.949">
        <ele>1029.1</ele>
        <time>2026-07-14T07:39:39Z</time>
      </trkpt>
      <trkpt lat="45.20089" lon="5.949">
        <ele>1029.1</ele>
        <time>2026-07-14T07:39:40Z</time>
      </trkpt>
      <trkpt lat="45.20089" lon="5.949">
        <ele>1029.1</ele>
        <time>2026-07-14T07:39:41Z</time>
      </trkpt>
      <trkpt lat="45.20089" lon="5.949">
        <ele>1029.1</ele>
        <time>2026-07-14T07:39:42Z</time>
      </trkpt>
      <trkpt lat="45.20089" lon="5.949">
        <ele>1029.1</ele>
        <time>2026-07-14T07:39:44Z</time>
      </trkpt>
      <trkpt lat="45.20089" lon="5.949">
        <ele>1029.2</ele>
        <time>2026-07-14T07:39:45Z</time>
      </trkpt>
      <trkpt lat="45.20089" lon="5.949">
        <ele>1029.2</ele>
        <time>2026-07-14T07:39:46Z</time>
      </trkpt>
      <trkpt lat="45.20089" lon="5.949">
        <ele>1029.2</ele>
        <time>2026-07-14T07:39:47Z</time>
      </trkpt>
      <trkpt lat="45.20089" lon="5.949">
        <ele>1029.2</ele>
        <time>2026-07-14T07:39:48Z</time>
      </trkpt>
      <trkpt lat="45.20089" lon="5.949">
        <ele>1029.2</ele>
        <time>2026-07-14T07:39:49Z</time>
      </trkpt>
      <trkpt lat="45.20089" lon="5.949">
        <ele>1029.2</ele>
        <time>2026-07-14T07:39:50Z</time>
      </trkpt>
      <trkpt lat="45.20089" lon="5.949">
        <ele>1029.2</ele>
        <time>2026-07-14T07:39:51Z</time>
      </trkpt>
      <trkpt lat="45.20089" lon="5.949">
        <ele>1029.2</ele>
        <time>2026-07-14T07:39:52Z</time>
      </trkpt>
      <trkpt lat="45.20089" lon="5.949">
        <ele>1029.2</ele>
        <time>2026-07-14T07:39:53Z</time>
      </trkpt>
      <trkpt lat="45.20089" lon="5.949">
        <ele>1029.2</ele>
        <time>2026-07-14T07:39:54Z</time>
      </trkpt>
      <trkpt lat="45.20089" lon="5.949">
        <ele>1029.2</ele>
        <time>2026-07-14T07:39:55Z</time>
      </trkpt>
      <trkpt lat="45.20089" lon="5.949">
        <ele>1029.2</ele>
        <time>2026-07-14T07:39:56Z</time>
      </trkpt>
      <trkpt lat="45.20089" lon="5.949">
        <ele>1029.2</ele>
        <time>2026-07-14T07:39:57Z</time>
      </trkpt>
      <trkpt lat="45.20089" lon="5.949">
        <ele>1029.2</ele>
        <time>2026-07-14T07:39:59Z</time>
      </trkpt>
      <trkpt lat="45.20089" lon="5.949">
        <ele>1029.2</ele>
        <time>2026-07-14T07:40:00Z</time>
      </trkpt>
      <trkpt lat="45.20089" lon="5.949">
        <ele>1029.2</ele>
        <time>2026-07-14T07:40:01Z</time>
      </trkpt>
      <trkpt lat="45.20089" lon="5.949">
        <ele>1029.2</ele>
        <time>2026-07-14T07:40:02Z</time>
      </trkpt>
      <trkpt lat="45.20089" lon="5.949">
        <ele>1029.2</ele>
        <time>2026-07-14T07:40:03Z</time>
      </trkpt>
      <trkpt lat="45.2009" lon="5.949">
        <ele>1029.3</ele>
        <time>2026-07-14T07:40:04Z</time>
      </trkpt>
      <trkpt lat="45.2009" lon="5.949">
        <ele>1029.3</ele>
        <time>2026-07-14T07:40:05Z</time>
      </trkpt>
      <trkpt lat="45.2009" lon="5.949">
        <ele>1029.3</ele>
        <time>2026-07-14T07:40:06Z</time>
      </trkpt>
      <trkpt lat="45.2009" lon="5.949">
        <ele>1029.3</ele>
        <time>2026-07-14T07:40:07Z</time>
      </trkpt>
      <trkpt lat="45.2009" lon="5.949">
        <ele>1029.3</ele>
        <time>2026-07-14T07:40:08Z</time>
      </trkpt>
      <trkpt lat="45.2009" lon="5.949">
        <ele>1029.3</ele>
        <time>2026-07-14T07:40:09Z</time>
      </trkpt>
      <trkpt lat="45.2009" lon="5.949">
        <ele>1029.3</ele>
        <time>2026-07-14T07:40:10Z</time>
      </trkpt>
      <trkpt lat="45.2009" lon="5.949">
        <ele>1029.3</ele>
        <time>2026-07-14T07:40:11Z</time>
      </trkpt>
      <trkpt lat="45.2009" lon="5.949">
        <ele>1029.3</ele>
        <time>2026-07-14T07:40:12Z</time>
      </trkpt>
      <trkpt lat="45.2009" lon="5.949">
        <ele>1029.3</ele>
        <time>2026-07-14T07:40:13Z</time>
      </trkpt>
      <trkpt lat="45.2009" lon="5.949">
        <ele>1029.3</ele>
        <time>2026-07-14T07:40:14Z</time>
      </trkpt>
      <trkpt lat="45.2009" lon="5.949">
        <ele>1029.3</ele>
        <time>2026-07-14T07:40:15Z</time>
      </trkpt>
      <trkpt lat="45.2009" lon="5.949">
        <ele>1029.3</ele>
        <time>2026-07-14T07:40:16Z</time>
      </trkpt>
      <trkpt lat="45.2009" lon="5.949">
        <ele>1029.4</ele>
        <time>2026-07-14T07:40:17Z</time>
      </trkpt>
      <trkpt lat="45.2009" lon="5.949">
        <ele>1029.4</ele>
        <time>2026-07-14T07:40:18Z</time>
      </trkpt>
      <trkpt lat="45.2009" lon="5.949">
        <ele>1029.4</ele>
        <time>2026-07-14T07:40:19Z</time>
      </trkpt>
      <trkpt lat="45.2009" lon="5.949">
        <ele>1029.4</ele>
        <time>2026-07-14T07:40:20Z</time>
      </trkpt>
      <trkpt lat="45.2009" lon="5.949">
        <ele>1029.4</ele>
        <time>2026-07-14T07:40:21Z</time>
      </trkpt>
      <trkpt lat="45.2009" lon="5.949">
        <ele>1029.4</ele>
        <time>2026-07-14T07:40:22Z</time>
      </trkpt>
      <trkpt lat="45.2009" lon="5.949">
        <ele>1029.5</ele>
        <time>2026-07-14T07:40:23Z</time>
      </trkpt>
      <trkpt lat="45.2009" lon="5.949">
        <ele>1029.5</ele>
        <time>2026-07-14T07:40:24Z</time>
      </trkpt>
      <trkpt lat="45.2009" lon="5.949">
        <ele>1029.5</ele>
        <time>2026-07-14T07:40:25Z</time>
      </trkpt>
      <trkpt lat="45.2009" lon="5.949">
        <ele>1029.5</ele>
        <time>2026-07-14T07:40:26Z</time>
      </trkpt>
      <trkpt lat="45.2009" lon="5.949">
        <ele>1029.5</ele>
        <time>2026-07-14T07:40:27Z</time>
      </trkpt>
      <trkpt lat="45.2009" lon="5.949">
        <ele>1029.5</ele>
        <time>2026-07-14T07:40:28Z</time>
      </trkpt>
      <trkpt lat="45.2009" lon="5.949">
        <ele>1029.5</ele>
        <time>2026-07-14T07:40:29Z</time>
      </trkpt>
      <trkpt lat="45.2009" lon="5.949">
        <ele>1029.5</ele>
        <time>2026-07-14T07:40:30Z</time>
      </trkpt>
      <trkpt lat="45.2009" lon="5.949">
        <ele>1029.5</ele>
        <time>2026-07-14T07:40:31Z</time>
      </trkpt>
      <trkpt lat="45.2009" lon="5.949">
        <ele>1029.5</ele>
        <time>2026-07-14T07:40:32Z</time>
      </trkpt>
      <trkpt lat="45.2009" lon="5.949">
        <ele>1029.5</ele>
        <time>2026-07-14T07:40:33Z</time>
      </trkpt>
      <trkpt lat="45.2009" lon="5.949">
        <ele>1029.5</ele>
        <time>2026-07-14T07:40:34Z</time>
      </trkpt>
      <trkpt lat="45.2009" lon="5.949">
        <ele>1029.6</ele>
        <time>2026-07-14T07:40:35Z</time>
      </trkpt>
      <trkpt lat="45.2009" lon="5.949">
        <ele>1029.6</ele>
        <time>2026-07-14T07:40:36Z</time>
      </trkpt>
      <trkpt lat="45.2009" lon="5.949">
        <ele>1029.6</ele>
        <time>2026-07-14T07:40:37Z</time>
      </trkpt>
      <trkpt lat="45.2009" lon="5.949">
        <ele>1029.6</ele>
        <time>2026-07-14T07:40:38Z</time>
      </trkpt>
      <trkpt lat="45.2009" lon="5.949">
        <ele>1029.6</ele>
        <time>2026-07-14T07:40:39Z</time>
      </trkpt>
      <trkpt lat="45.2009" lon="5.949">
        <ele>1029.6</ele>
        <time>2026-07-14T07:40:41Z</time>
      </trkpt>
      <trkpt lat="45.2009" lon="5.949">
        <ele>1029.6</ele>
        <time>2026-07-14T07:40:42Z</time>
      </trkpt>
      <trkpt lat="45.2009" lon="5.949">
        <ele>1029.6</ele>
        <time>2026-07-14T07:40:43Z</time>
      </trkpt>
      <trkpt lat="45.2009" lon="5.949">
        <ele>1029.6</ele>
        <time>2026-07-14T07:40:44Z</time>
      </trkpt>
      <trkpt lat="45.2009" lon="5.949">
        <ele>1029.6</ele>
        <time>2026-07-14T07:40:45Z</time>
      </trkpt>
      <trkpt lat="45.2009" lon="5.949">
        <ele>1029.6</ele>
        <time>2026-07-14T07:40:47Z</time>
      </trkpt>
      <trkpt lat="45.2009" lon="5.949">
        <ele>1029.6</ele>
        <time>2026-07-14T07:40:48Z</time>
      </trkpt>
      <trkpt lat="45.2009" lon="5.949">
        <ele>1029.6</ele>
        <time>2026-07-14T07:40:49Z</time>
      </trkpt>
      <trkpt lat="45.20089" lon="5.949">
        <ele>1029.6</ele>
        <time>2026-07-14T07:40:50Z</time>
      </trkpt>
      <trkpt lat="45.20089" lon="5.949">
        <ele>1029.7</ele>
        <time>2026-07-14T07:40:51Z</time>
      </trkpt>
      <trkpt lat="45.20089" lon="5.949">
        <ele>1029.7</ele>
        <time>2026-07-14T07:40:52Z</time>
      </trkpt>
      <trkpt lat="45.20089" lon="5.949">
        <ele>1029.7</ele>
        <time>2026-07-14T07:40:53Z</time>
      </trkpt>
      <trkpt lat="45.20089" lon="5.949">
        <ele>1029.7</ele>
        <time>2026-07-14T07:40:55Z</time>
      </trkpt>
      <trkpt lat="45.20089" lon="5.949">
        <ele>1029.7</ele>
        <time>2026-07-14T07:40:56Z</time>
      </trkpt>
      <trkpt lat="45.20089" lon="5.949">
        <ele>1029.7</ele>
        <time>2026-07-14T07:40:57Z</time>
      </trkpt>
      <trkpt lat="45.20089" lon="5.949">
        <ele>1029.7</ele>
        <time>2026-07-14T07:40:58Z</time>
      </trkpt>
      <trkpt lat="45.20089" lon="5.94899">
        <ele>1029.7</ele>
        <time>2026-07-14T07:40:59Z</time>
      </trkpt>
      <trkpt lat="45.20089" lon="5.94899">
        <ele>1029.7</ele>
        <time>2026-07-14T07:41:00Z</time>
      </trkpt>
      <trkpt lat="45.20089" lon="5.94899">
        <ele>1029.7</ele>
        <time>2026-07-14T07:41:01Z</time>
      </trkpt>
      <trkpt lat="45.20089" lon="5.94899">
        <ele>1029.7</ele>
        <time>2026-07-14T07:41:02Z</time>
      </trkpt>
      <trkpt lat="45.20089" lon="5.94899">
        <ele>1029.7</ele>
        <time>2026-07-14T07:41:03Z</time>
      </trkpt>
      <trkpt lat="45.20089" lon="5.94899">
        <ele>1029.7</ele>
        <time>2026-07-14T07:41:04Z</time>
      </trkpt>
      <trkpt lat="45.20089" lon="5.94899">
        <ele>1029.7</ele>
        <time>2026-07-14T07:41:05Z</time>
      </trkpt>
      <trkpt lat="45.20089" lon="5.94899">
        <ele>1029.8</ele>
        <time>2026-07-14T07:41:06Z</time>
      </trkpt>
      <trkpt lat="45.20089" lon="5.94899">
        <ele>1029.8</ele>
        <time>2026-07-14T07:41:07Z</time>
      </trkpt>
      <trkpt lat="45.20089" lon="5.94899">
        <ele>1029.8</ele>
        <time>2026-07-14T07:41:08Z</time>
      </trkpt>
      <trkpt lat="45.20089" lon="5.949">
        <ele>1029.9</ele>
        <time>2026-07-14T07:41:09Z</time>
      </trkpt>
      <trkpt lat="45.20089" lon="5.949">
        <ele>1029.9</ele>
        <time>2026-07-14T07:41:10Z</time>
      </trkpt>
      <trkpt lat="45.20089" lon="5.949">
        <ele>1029.9</ele>
        <time>2026-07-14T07:41:12Z</time>
      </trkpt>
      <trkpt lat="45.20089" lon="5.949">
        <ele>1029.9</ele>
        <time>2026-07-14T07:41:13Z</time>
      </trkpt>
      <trkpt lat="45.20089" lon="5.949">
        <ele>1029.9</ele>
        <time>2026-07-14T07:41:14Z</time>
      </trkpt>
      <trkpt lat="45.20089" lon="5.949">
        <ele>1029.9</ele>
        <time>2026-07-14T07:41:15Z</time>
      </trkpt>
      <trkpt lat="45.20089" lon="5.949">
        <ele>1030</ele>
        <time>2026-07-14T07:41:16Z</time>
      </trkpt>
      <trkpt lat="45.20089" lon="5.949">
        <ele>1030</ele>
        <time>2026-07-14T07:41:17Z</time>
      </trkpt>
      <trkpt lat="45.20089" lon="5.949">
        <ele>1030</ele>
        <time>2026-07-14T07:41:18Z</time>
      </trkpt>
      <trkpt lat="45.20089" lon="5.949">
        <ele>1030</ele>
        <time>2026-07-14T07:41:19Z</time>
      </trkpt>
      <trkpt lat="45.20089" lon="5.949">
        <ele>1030.1</ele>
        <time>2026-07-14T07:41:20Z</time>
      </trkpt>
      <trkpt lat="45.20089" lon="5.949">
        <ele>1030.1</ele>
        <time>2026-07-14T07:41:21Z</time>
      </trkpt>
      <trkpt lat="45.20089" lon="5.949">
        <ele>1030.1</ele>
        <time>2026-07-14T07:41:22Z</time>
      </trkpt>
      <trkpt lat="45.20088" lon="5.949">
        <ele>1030.3</ele>
        <time>2026-07-14T07:41:23Z</time>
      </trkpt>
      <trkpt lat="45.20088" lon="5.949">
        <ele>1030.4</ele>
        <time>2026-07-14T07:41:24Z</time>
      </trkpt>
      <trkpt lat="45.20087" lon="5.94899">
        <ele>1030.7</ele>
        <time>2026-07-14T07:41:25Z</time>
      </trkpt>
      <trkpt lat="45.20086" lon="5.94899">
        <ele>1030.9</ele>
        <time>2026-07-14T07:41:26Z</time>
      </trkpt>
      <trkpt lat="45.20085" lon="5.94899">
        <ele>1031.1</ele>
        <time>2026-07-14T07:41:27Z</time>
      </trkpt>
      <trkpt lat="45.20084" lon="5.949">
        <ele>1031.4</ele>
        <time>2026-07-14T07:41:28Z</time>
      </trkpt>
      <trkpt lat="45.20084" lon="5.949">
        <ele>1031.6</ele>
        <time>2026-07-14T07:41:29Z</time>
      </trkpt>
      <trkpt lat="45.20083" lon="5.949">
        <ele>1031.7</ele>
        <time>2026-07-14T07:41:30Z</time>
      </trkpt>
      <trkpt lat="45.20083" lon="5.949">
        <ele>1032</ele>
        <time>2026-07-14T07:41:31Z</time>
      </trkpt>
      <trkpt lat="45.20082" lon="5.94901">
        <ele>1032.1</ele>
        <time>2026-07-14T07:41:32Z</time>
      </trkpt>
      <trkpt lat="45.20082" lon="5.94901">
        <ele>1032.2</ele>
        <time>2026-07-14T07:41:33Z</time>
      </trkpt>
      <trkpt lat="45.20082" lon="5.94901">
        <ele>1032.3</ele>
        <time>2026-07-14T07:41:34Z</time>
      </trkpt>
      <trkpt lat="45.20081" lon="5.94902">
        <ele>1032.5</ele>
        <time>2026-07-14T07:41:36Z</time>
      </trkpt>
      <trkpt lat="45.20081" lon="5.94903">
        <ele>1032.6</ele>
        <time>2026-07-14T07:41:38Z</time>
      </trkpt>
      <trkpt lat="45.20081" lon="5.94903">
        <ele>1032.7</ele>
        <time>2026-07-14T07:41:39Z</time>
      </trkpt>
      <trkpt lat="45.20081" lon="5.94903">
        <ele>1032.8</ele>
        <time>2026-07-14T07:41:40Z</time>
      </trkpt>
      <trkpt lat="45.20081" lon="5.94904">
        <ele>1032.8</ele>
        <time>2026-07-14T07:41:41Z</time>
      </trkpt>
      <trkpt lat="45.20081" lon="5.94904">
        <ele>1032.9</ele>
        <time>2026-07-14T07:41:42Z</time>
      </trkpt>
      <trkpt lat="45.20081" lon="5.94904">
        <ele>1032.9</ele>
        <time>2026-07-14T07:41:43Z</time>
      </trkpt>
      <trkpt lat="45.20081" lon="5.94904">
        <ele>1033</ele>
        <time>2026-07-14T07:41:44Z</time>
      </trkpt>
      <trkpt lat="45.20081" lon="5.94903">
        <ele>1033</ele>
        <time>2026-07-14T07:41:45Z</time>
      </trkpt>
      <trkpt lat="45.20081" lon="5.94903">
        <ele>1033.1</ele>
        <time>2026-07-14T07:41:46Z</time>
      </trkpt>
      <trkpt lat="45.20081" lon="5.94903">
        <ele>1033.1</ele>
        <time>2026-07-14T07:41:47Z</time>
      </trkpt>
      <trkpt lat="45.20081" lon="5.94903">
        <ele>1033.2</ele>
        <time>2026-07-14T07:41:48Z</time>
      </trkpt>
      <trkpt lat="45.20081" lon="5.94903">
        <ele>1033.2</ele>
        <time>2026-07-14T07:41:49Z</time>
      </trkpt>
      <trkpt lat="45.20081" lon="5.94903">
        <ele>1033.2</ele>
        <time>2026-07-14T07:41:50Z</time>
      </trkpt>
      <trkpt lat="45.20081" lon="5.94903">
        <ele>1033.2</ele>
        <time>2026-07-14T07:41:51Z</time>
      </trkpt>
      <trkpt lat="45.20081" lon="5.94903">
        <ele>1033.2</ele>
        <time>2026-07-14T07:41:52Z</time>
      </trkpt>
      <trkpt lat="45.20081" lon="5.94903">
        <ele>1033.2</ele>
        <time>2026-07-14T07:41:53Z</time>
      </trkpt>
      <trkpt lat="45.20081" lon="5.94903">
        <ele>1033.3</ele>
        <time>2026-07-14T07:41:54Z</time>
      </trkpt>
      <trkpt lat="45.20081" lon="5.94903">
        <ele>1033.3</ele>
        <time>2026-07-14T07:41:55Z</time>
      </trkpt>
      <trkpt lat="45.20081" lon="5.94904">
        <ele>1033.4</ele>
        <time>2026-07-14T07:41:56Z</time>
      </trkpt>
      <trkpt lat="45.2008" lon="5.94904">
        <ele>1033.6</ele>
        <time>2026-07-14T07:41:57Z</time>
      </trkpt>
      <trkpt lat="45.20079" lon="5.94904">
        <ele>1033.8</ele>
        <time>2026-07-14T07:41:58Z</time>
      </trkpt>
      <trkpt lat="45.20079" lon="5.94905">
        <ele>1034</ele>
        <time>2026-07-14T07:41:59Z</time>
      </trkpt>
      <trkpt lat="45.20078" lon="5.94905">
        <ele>1034.2</ele>
        <time>2026-07-14T07:42:00Z</time>
      </trkpt>
      <trkpt lat="45.20078" lon="5.94906">
        <ele>1034.5</ele>
        <time>2026-07-14T07:42:02Z</time>
      </trkpt>
      <trkpt lat="45.20077" lon="5.94907">
        <ele>1034.7</ele>
        <time>2026-07-14T07:42:03Z</time>
      </trkpt>
      <trkpt lat="45.20077" lon="5.94908">
        <ele>1034.9</ele>
        <time>2026-07-14T07:42:04Z</time>
      </trkpt>
      <trkpt lat="45.20076" lon="5.94908">
        <ele>1035</ele>
        <time>2026-07-14T07:42:05Z</time>
      </trkpt>
      <trkpt lat="45.20076" lon="5.94909">
        <ele>1035.2</ele>
        <time>2026-07-14T07:42:06Z</time>
      </trkpt>
      <trkpt lat="45.20075" lon="5.94909">
        <ele>1035.4</ele>
        <time>2026-07-14T07:42:07Z</time>
      </trkpt>
      <trkpt lat="45.20075" lon="5.94909">
        <ele>1035.5</ele>
        <time>2026-07-14T07:42:08Z</time>
      </trkpt>
      <trkpt lat="45.20074" lon="5.9491">
        <ele>1035.7</ele>
        <time>2026-07-14T07:42:10Z</time>
      </trkpt>
      <trkpt lat="45.20074" lon="5.9491">
        <ele>1035.8</ele>
        <time>2026-07-14T07:42:11Z</time>
      </trkpt>
      <trkpt lat="45.20074" lon="5.9491">
        <ele>1035.8</ele>
        <time>2026-07-14T07:42:12Z</time>
      </trkpt>
      <trkpt lat="45.20074" lon="5.9491">
        <ele>1035.9</ele>
        <time>2026-07-14T07:42:13Z</time>
      </trkpt>
      <trkpt lat="45.20074" lon="5.94911">
        <ele>1036</ele>
        <time>2026-07-14T07:42:14Z</time>
      </trkpt>
      <trkpt lat="45.20074" lon="5.94911">
        <ele>1036.1</ele>
        <time>2026-07-14T07:42:15Z</time>
      </trkpt>
      <trkpt lat="45.20074" lon="5.94911">
        <ele>1036.1</ele>
        <time>2026-07-14T07:42:16Z</time>
      </trkpt>
      <trkpt lat="45.20074" lon="5.94912">
        <ele>1036.2</ele>
        <time>2026-07-14T07:42:17Z</time>
      </trkpt>
      <trkpt lat="45.20074" lon="5.94912">
        <ele>1036.3</ele>
        <time>2026-07-14T07:42:18Z</time>
      </trkpt>
      <trkpt lat="45.20074" lon="5.94913">
        <ele>1036.4</ele>
        <time>2026-07-14T07:42:19Z</time>
      </trkpt>
      <trkpt lat="45.20074" lon="5.94913">
        <ele>1036.5</ele>
        <time>2026-07-14T07:42:20Z</time>
      </trkpt>
      <trkpt lat="45.20074" lon="5.94914">
        <ele>1036.6</ele>
        <time>2026-07-14T07:42:21Z</time>
      </trkpt>
      <trkpt lat="45.20074" lon="5.94915">
        <ele>1036.8</ele>
        <time>2026-07-14T07:42:22Z</time>
      </trkpt>
      <trkpt lat="45.20074" lon="5.94915">
        <ele>1036.9</ele>
        <time>2026-07-14T07:42:23Z</time>
      </trkpt>
      <trkpt lat="45.20074" lon="5.94916">
        <ele>1037</ele>
        <time>2026-07-14T07:42:24Z</time>
      </trkpt>
      <trkpt lat="45.20074" lon="5.94916">
        <ele>1037.2</ele>
        <time>2026-07-14T07:42:25Z</time>
      </trkpt>
      <trkpt lat="45.20074" lon="5.94917">
        <ele>1037.3</ele>
        <time>2026-07-14T07:42:26Z</time>
      </trkpt>
      <trkpt lat="45.20074" lon="5.94917">
        <ele>1037.4</ele>
        <time>2026-07-14T07:42:27Z</time>
      </trkpt>
      <trkpt lat="45.20074" lon="5.94918">
        <ele>1037.6</ele>
        <time>2026-07-14T07:42:28Z</time>
      </trkpt>
      <trkpt lat="45.20074" lon="5.94919">
        <ele>1037.7</ele>
        <time>2026-07-14T07:42:29Z</time>
      </trkpt>
      <trkpt lat="45.20073" lon="5.94919">
        <ele>1037.9</ele>
        <time>2026-07-14T07:42:30Z</time>
      </trkpt>
      <trkpt lat="45.20073" lon="5.9492">
        <ele>1038</ele>
        <time>2026-07-14T07:42:31Z</time>
      </trkpt>
      <trkpt lat="45.20073" lon="5.9492">
        <ele>1038.1</ele>
        <time>2026-07-14T07:42:32Z</time>
      </trkpt>
      <trkpt lat="45.20073" lon="5.9492">
        <ele>1038.2</ele>
        <time>2026-07-14T07:42:33Z</time>
      </trkpt>
      <trkpt lat="45.20072" lon="5.9492">
        <ele>1038.3</ele>
        <time>2026-07-14T07:42:34Z</time>
      </trkpt>
      <trkpt lat="45.20072" lon="5.9492">
        <ele>1038.4</ele>
        <time>2026-07-14T07:42:35Z</time>
      </trkpt>
      <trkpt lat="45.20072" lon="5.94921">
        <ele>1038.5</ele>
        <time>2026-07-14T07:42:36Z</time>
      </trkpt>
      <trkpt lat="45.20072" lon="5.94921">
        <ele>1038.6</ele>
        <time>2026-07-14T07:42:37Z</time>
      </trkpt>
      <trkpt lat="45.20071" lon="5.94921">
        <ele>1038.7</ele>
        <time>2026-07-14T07:42:38Z</time>
      </trkpt>
      <trkpt lat="45.20071" lon="5.94922">
        <ele>1038.8</ele>
        <time>2026-07-14T07:42:39Z</time>
      </trkpt>
      <trkpt lat="45.20071" lon="5.94922">
        <ele>1038.9</ele>
        <time>2026-07-14T07:42:40Z</time>
      </trkpt>
      <trkpt lat="45.20071" lon="5.94923">
        <ele>1039</ele>
        <time>2026-07-14T07:42:41Z</time>
      </trkpt>
      <trkpt lat="45.2007" lon="5.94923">
        <ele>1039.1</ele>
        <time>2026-07-14T07:42:42Z</time>
      </trkpt>
      <trkpt lat="45.2007" lon="5.94924">
        <ele>1039.2</ele>
        <time>2026-07-14T07:42:43Z</time>
      </trkpt>
      <trkpt lat="45.2007" lon="5.94924">
        <ele>1039.3</ele>
        <time>2026-07-14T07:42:45Z</time>
      </trkpt>
      <trkpt lat="45.20069" lon="5.94924">
        <ele>1039.5</ele>
        <time>2026-07-14T07:42:46Z</time>
      </trkpt>
      <trkpt lat="45.20069" lon="5.94925">
        <ele>1039.6</ele>
        <time>2026-07-14T07:42:47Z</time>
      </trkpt>
      <trkpt lat="45.20069" lon="5.94925">
        <ele>1039.7</ele>
        <time>2026-07-14T07:42:48Z</time>
      </trkpt>
      <trkpt lat="45.20069" lon="5.94925">
        <ele>1039.7</ele>
        <time>2026-07-14T07:42:49Z</time>
      </trkpt>
      <trkpt lat="45.20069" lon="5.94926">
        <ele>1039.9</ele>
        <time>2026-07-14T07:42:50Z</time>
      </trkpt>
      <trkpt lat="45.20068" lon="5.94927">
        <ele>1040</ele>
        <time>2026-07-14T07:42:51Z</time>
      </trkpt>
      <trkpt lat="45.20068" lon="5.94927">
        <ele>1040.2</ele>
        <time>2026-07-14T07:42:52Z</time>
      </trkpt>
      <trkpt lat="45.20068" lon="5.94928">
        <ele>1040.4</ele>
        <time>2026-07-14T07:42:53Z</time>
      </trkpt>
      <trkpt lat="45.20068" lon="5.94929">
        <ele>1040.5</ele>
        <time>2026-07-14T07:42:54Z</time>
      </trkpt>
      <trkpt lat="45.20067" lon="5.94929">
        <ele>1040.7</ele>
        <time>2026-07-14T07:42:55Z</time>
      </trkpt>
      <trkpt lat="45.20067" lon="5.9493">
        <ele>1040.8</ele>
        <time>2026-07-14T07:42:56Z</time>
      </trkpt>
      <trkpt lat="45.20067" lon="5.9493">
        <ele>1040.9</ele>
        <time>2026-07-14T07:42:57Z</time>
      </trkpt>
      <trkpt lat="45.20066" lon="5.94931">
        <ele>1041.1</ele>
        <time>2026-07-14T07:42:58Z</time>
      </trkpt>
      <trkpt lat="45.20066" lon="5.94932">
        <ele>1041.2</ele>
        <time>2026-07-14T07:42:59Z</time>
      </trkpt>
      <trkpt lat="45.20066" lon="5.94932">
        <ele>1041.3</ele>
        <time>2026-07-14T07:43:00Z</time>
      </trkpt>
      <trkpt lat="45.20066" lon="5.94933">
        <ele>1041.4</ele>
        <time>2026-07-14T07:43:01Z</time>
      </trkpt>
      <trkpt lat="45.20066" lon="5.94933">
        <ele>1041.5</ele>
        <time>2026-07-14T07:43:02Z</time>
      </trkpt>
      <trkpt lat="45.20066" lon="5.94933">
        <ele>1041.6</ele>
        <time>2026-07-14T07:43:03Z</time>
      </trkpt>
      <trkpt lat="45.20066" lon="5.94934">
        <ele>1041.7</ele>
        <time>2026-07-14T07:43:04Z</time>
      </trkpt>
      <trkpt lat="45.20067" lon="5.94934">
        <ele>1041.8</ele>
        <time>2026-07-14T07:43:05Z</time>
      </trkpt>
      <trkpt lat="45.20067" lon="5.94935">
        <ele>1041.9</ele>
        <time>2026-07-14T07:43:06Z</time>
      </trkpt>
      <trkpt lat="45.20067" lon="5.94936">
        <ele>1042</ele>
        <time>2026-07-14T07:43:07Z</time>
      </trkpt>
      <trkpt lat="45.20067" lon="5.94936">
        <ele>1042.1</ele>
        <time>2026-07-14T07:43:08Z</time>
      </trkpt>
      <trkpt lat="45.20067" lon="5.94937">
        <ele>1042.2</ele>
        <time>2026-07-14T07:43:09Z</time>
      </trkpt>
      <trkpt lat="45.20067" lon="5.94937">
        <ele>1042.2</ele>
        <time>2026-07-14T07:43:10Z</time>
      </trkpt>
      <trkpt lat="45.20067" lon="5.94937">
        <ele>1042.3</ele>
        <time>2026-07-14T07:43:11Z</time>
      </trkpt>
      <trkpt lat="45.20067" lon="5.94937">
        <ele>1042.3</ele>
        <time>2026-07-14T07:43:12Z</time>
      </trkpt>
      <trkpt lat="45.20067" lon="5.94937">
        <ele>1042.4</ele>
        <time>2026-07-14T07:43:13Z</time>
      </trkpt>
      <trkpt lat="45.20066" lon="5.94937">
        <ele>1042.5</ele>
        <time>2026-07-14T07:43:14Z</time>
      </trkpt>
      <trkpt lat="45.20066" lon="5.94936">
        <ele>1042.6</ele>
        <time>2026-07-14T07:43:15Z</time>
      </trkpt>
      <trkpt lat="45.20066" lon="5.94936">
        <ele>1042.7</ele>
        <time>2026-07-14T07:43:16Z</time>
      </trkpt>
      <trkpt lat="45.20066" lon="5.94936">
        <ele>1042.7</ele>
        <time>2026-07-14T07:43:17Z</time>
      </trkpt>
      <trkpt lat="45.20066" lon="5.94936">
        <ele>1042.7</ele>
        <time>2026-07-14T07:43:18Z</time>
      </trkpt>
      <trkpt lat="45.20066" lon="5.94936">
        <ele>1042.7</ele>
        <time>2026-07-14T07:43:20Z</time>
      </trkpt>
      <trkpt lat="45.20066" lon="5.94936">
        <ele>1042.8</ele>
        <time>2026-07-14T07:43:21Z</time>
      </trkpt>
      <trkpt lat="45.20066" lon="5.94937">
        <ele>1042.9</ele>
        <time>2026-07-14T07:43:22Z</time>
      </trkpt>
      <trkpt lat="45.20066" lon="5.94937">
        <ele>1043</ele>
        <time>2026-07-14T07:43:23Z</time>
      </trkpt>
      <trkpt lat="45.20066" lon="5.94938">
        <ele>1043.1</ele>
        <time>2026-07-14T07:43:24Z</time>
      </trkpt>
      <trkpt lat="45.20065" lon="5.94938">
        <ele>1043.2</ele>
        <time>2026-07-14T07:43:25Z</time>
      </trkpt>
      <trkpt lat="45.20065" lon="5.94939">
        <ele>1043.3</ele>
        <time>2026-07-14T07:43:26Z</time>
      </trkpt>
      <trkpt lat="45.20065" lon="5.94939">
        <ele>1043.4</ele>
        <time>2026-07-14T07:43:27Z</time>
      </trkpt>
      <trkpt lat="45.20065" lon="5.9494">
        <ele>1043.5</ele>
        <time>2026-07-14T07:43:28Z</time>
      </trkpt>
      <trkpt lat="45.20065" lon="5.94941">
        <ele>1043.6</ele>
        <time>2026-07-14T07:43:29Z</time>
      </trkpt>
      <trkpt lat="45.20064" lon="5.94942">
        <ele>1043.7</ele>
        <time>2026-07-14T07:43:30Z</time>
      </trkpt>
      <trkpt lat="45.20064" lon="5.94943">
        <ele>1043.9</ele>
        <time>2026-07-14T07:43:32Z</time>
      </trkpt>
      <trkpt lat="45.20064" lon="5.94944">
        <ele>1044.2</ele>
        <time>2026-07-14T07:43:33Z</time>
      </trkpt>
      <trkpt lat="45.20063" lon="5.94945">
        <ele>1044.4</ele>
        <time>2026-07-14T07:43:34Z</time>
      </trkpt>
      <trkpt lat="45.20063" lon="5.94946">
        <ele>1044.6</ele>
        <time>2026-07-14T07:43:35Z</time>
      </trkpt>
      <trkpt lat="45.20062" lon="5.94947">
        <ele>1044.7</ele>
        <time>2026-07-14T07:43:36Z</time>
      </trkpt>
      <trkpt lat="45.20062" lon="5.94948">
        <ele>1044.9</ele>
        <time>2026-07-14T07:43:37Z</time>
      </trkpt>
      <trkpt lat="45.20062" lon="5.94949">
        <ele>1045</ele>
        <time>2026-07-14T07:43:38Z</time>
      </trkpt>
      <trkpt lat="45.20062" lon="5.94951">
        <ele>1045.2</ele>
        <time>2026-07-14T07:43:39Z</time>
      </trkpt>
      <trkpt lat="45.20062" lon="5.94952">
        <ele>1045.4</ele>
        <time>2026-07-14T07:43:41Z</time>
      </trkpt>
      <trkpt lat="45.20063" lon="5.94953">
        <ele>1045.5</ele>
        <time>2026-07-14T07:43:42Z</time>
      </trkpt>
      <trkpt lat="45.20063" lon="5.94953">
        <ele>1045.6</ele>
        <time>2026-07-14T07:43:44Z</time>
      </trkpt>
      <trkpt lat="45.20063" lon="5.94952">
        <ele>1045.6</ele>
        <time>2026-07-14T07:43:45Z</time>
      </trkpt>
      <trkpt lat="45.20063" lon="5.94952">
        <ele>1045.7</ele>
        <time>2026-07-14T07:43:46Z</time>
      </trkpt>
      <trkpt lat="45.20063" lon="5.94952">
        <ele>1045.7</ele>
        <time>2026-07-14T07:43:47Z</time>
      </trkpt>
      <trkpt lat="45.20063" lon="5.94953">
        <ele>1045.7</ele>
        <time>2026-07-14T07:43:48Z</time>
      </trkpt>
      <trkpt lat="45.20063" lon="5.94953">
        <ele>1045.7</ele>
        <time>2026-07-14T07:43:49Z</time>
      </trkpt>
      <trkpt lat="45.20063" lon="5.94953">
        <ele>1045.7</ele>
        <time>2026-07-14T07:43:50Z</time>
      </trkpt>
      <trkpt lat="45.20063" lon="5.94953">
        <ele>1045.8</ele>
        <time>2026-07-14T07:43:51Z</time>
      </trkpt>
      <trkpt lat="45.20063" lon="5.94955">
        <ele>1046</ele>
        <time>2026-07-14T07:43:53Z</time>
      </trkpt>
      <trkpt lat="45.20064" lon="5.94956">
        <ele>1046.1</ele>
        <time>2026-07-14T07:43:54Z</time>
      </trkpt>
      <trkpt lat="45.20064" lon="5.94957">
        <ele>1046.2</ele>
        <time>2026-07-14T07:43:55Z</time>
      </trkpt>
      <trkpt lat="45.20064" lon="5.94957">
        <ele>1046.3</ele>
        <time>2026-07-14T07:43:56Z</time>
      </trkpt>
      <trkpt lat="45.20065" lon="5.94957">
        <ele>1046.3</ele>
        <time>2026-07-14T07:43:57Z</time>
      </trkpt>
      <trkpt lat="45.20065" lon="5.94957">
        <ele>1046.4</ele>
        <time>2026-07-14T07:43:58Z</time>
      </trkpt>
      <trkpt lat="45.20065" lon="5.94957">
        <ele>1046.4</ele>
        <time>2026-07-14T07:43:59Z</time>
      </trkpt>
      <trkpt lat="45.20065" lon="5.94957">
        <ele>1046.4</ele>
        <time>2026-07-14T07:44:00Z</time>
      </trkpt>
      <trkpt lat="45.20065" lon="5.94958">
        <ele>1046.5</ele>
        <time>2026-07-14T07:44:01Z</time>
      </trkpt>
      <trkpt lat="45.20065" lon="5.94958">
        <ele>1046.5</ele>
        <time>2026-07-14T07:44:02Z</time>
      </trkpt>
      <trkpt lat="45.20065" lon="5.94958">
        <ele>1046.5</ele>
        <time>2026-07-14T07:44:03Z</time>
      </trkpt>
      <trkpt lat="45.20065" lon="5.94959">
        <ele>1046.5</ele>
        <time>2026-07-14T07:44:04Z</time>
      </trkpt>
      <trkpt lat="45.20065" lon="5.94959">
        <ele>1046.6</ele>
        <time>2026-07-14T07:44:06Z</time>
      </trkpt>
      <trkpt lat="45.20065" lon="5.94959">
        <ele>1046.6</ele>
        <time>2026-07-14T07:44:07Z</time>
      </trkpt>
      <trkpt lat="45.20065" lon="5.94959">
        <ele>1046.6</ele>
        <time>2026-07-14T07:44:08Z</time>
      </trkpt>
      <trkpt lat="45.20066" lon="5.94959">
        <ele>1046.6</ele>
        <time>2026-07-14T07:44:09Z</time>
      </trkpt>
      <trkpt lat="45.20066" lon="5.94959">
        <ele>1046.6</ele>
        <time>2026-07-14T07:44:10Z</time>
      </trkpt>
      <trkpt lat="45.20066" lon="5.94959">
        <ele>1046.7</ele>
        <time>2026-07-14T07:44:11Z</time>
      </trkpt>
      <trkpt lat="45.20066" lon="5.94959">
        <ele>1046.7</ele>
        <time>2026-07-14T07:44:12Z</time>
      </trkpt>
      <trkpt lat="45.20066" lon="5.94959">
        <ele>1046.7</ele>
        <time>2026-07-14T07:44:13Z</time>
      </trkpt>
      <trkpt lat="45.20065" lon="5.9496">
        <ele>1046.8</ele>
        <time>2026-07-14T07:44:14Z</time>
      </trkpt>
      <trkpt lat="45.20065" lon="5.94961">
        <ele>1047</ele>
        <time>2026-07-14T07:44:16Z</time>
      </trkpt>
      <trkpt lat="45.20064" lon="5.94963">
        <ele>1047.2</ele>
        <time>2026-07-14T07:44:17Z</time>
      </trkpt>
      <trkpt lat="45.20064" lon="5.94965">
        <ele>1047.3</ele>
        <time>2026-07-14T07:44:18Z</time>
      </trkpt>
      <trkpt lat="45.20064" lon="5.94966">
        <ele>1047.4</ele>
        <time>2026-07-14T07:44:19Z</time>
      </trkpt>
      <trkpt lat="45.20064" lon="5.9497">
        <ele>1047.7</ele>
        <time>2026-07-14T07:44:21Z</time>
      </trkpt>
      <trkpt lat="45.20064" lon="5.94971">
        <ele>1047.9</ele>
        <time>2026-07-14T07:44:22Z</time>
      </trkpt>
      <trkpt lat="45.20064" lon="5.94973">
        <ele>1048.1</ele>
        <time>2026-07-14T07:44:23Z</time>
      </trkpt>
      <trkpt lat="45.20064" lon="5.94975">
        <ele>1048.2</ele>
        <time>2026-07-14T07:44:24Z</time>
      </trkpt>
      <trkpt lat="45.20064" lon="5.94977">
        <ele>1048.5</ele>
        <time>2026-07-14T07:44:26Z</time>
      </trkpt>
      <trkpt lat="45.20064" lon="5.94979">
        <ele>1048.6</ele>
        <time>2026-07-14T07:44:27Z</time>
      </trkpt>
      <trkpt lat="45.20064" lon="5.9498">
        <ele>1048.7</ele>
        <time>2026-07-14T07:44:28Z</time>
      </trkpt>
      <trkpt lat="45.20064" lon="5.94981">
        <ele>1048.8</ele>
        <time>2026-07-14T07:44:29Z</time>
      </trkpt>
      <trkpt lat="45.20065" lon="5.94982">
        <ele>1049</ele>
        <time>2026-07-14T07:44:30Z</time>
      </trkpt>
      <trkpt lat="45.20065" lon="5.94984">
        <ele>1049.1</ele>
        <time>2026-07-14T07:44:31Z</time>
      </trkpt>
      <trkpt lat="45.20065" lon="5.94985">
        <ele>1049.2</ele>
        <time>2026-07-14T07:44:32Z</time>
      </trkpt>
      <trkpt lat="45.20065" lon="5.94986">
        <ele>1049.3</ele>
        <time>2026-07-14T07:44:33Z</time>
      </trkpt>
      <trkpt lat="45.20065" lon="5.94987">
        <ele>1049.4</ele>
        <time>2026-07-14T07:44:34Z</time>
      </trkpt>
      <trkpt lat="45.20065" lon="5.94988">
        <ele>1049.6</ele>
        <time>2026-07-14T07:44:35Z</time>
      </trkpt>
      <trkpt lat="45.20065" lon="5.94989">
        <ele>1049.7</ele>
        <time>2026-07-14T07:44:36Z</time>
      </trkpt>
      <trkpt lat="45.20065" lon="5.9499">
        <ele>1049.8</ele>
        <time>2026-07-14T07:44:38Z</time>
      </trkpt>
      <trkpt lat="45.20065" lon="5.94992">
        <ele>1050</ele>
        <time>2026-07-14T07:44:39Z</time>
      </trkpt>
      <trkpt lat="45.20065" lon="5.94993">
        <ele>1050.2</ele>
        <time>2026-07-14T07:44:40Z</time>
      </trkpt>
      <trkpt lat="45.20065" lon="5.94994">
        <ele>1050.3</ele>
        <time>2026-07-14T07:44:41Z</time>
      </trkpt>
      <trkpt lat="45.20064" lon="5.94995">
        <ele>1050.5</ele>
        <time>2026-07-14T07:44:42Z</time>
      </trkpt>
      <trkpt lat="45.20064" lon="5.94996">
        <ele>1050.6</ele>
        <time>2026-07-14T07:44:43Z</time>
      </trkpt>
      <trkpt lat="45.20063" lon="5.94997">
        <ele>1050.8</ele>
        <time>2026-07-14T07:44:44Z</time>
      </trkpt>
      <trkpt lat="45.20063" lon="5.94998">
        <ele>1050.9</ele>
        <time>2026-07-14T07:44:45Z</time>
      </trkpt>
      <trkpt lat="45.20062" lon="5.95">
        <ele>1051.2</ele>
        <time>2026-07-14T07:44:47Z</time>
      </trkpt>
      <trkpt lat="45.20062" lon="5.95001">
        <ele>1051.3</ele>
        <time>2026-07-14T07:44:48Z</time>
      </trkpt>
      <trkpt lat="45.20061" lon="5.95002">
        <ele>1051.4</ele>
        <time>2026-07-14T07:44:49Z</time>
      </trkpt>
      <trkpt lat="45.20061" lon="5.95003">
        <ele>1051.6</ele>
        <time>2026-07-14T07:44:50Z</time>
      </trkpt>
      <trkpt lat="45.20061" lon="5.95003">
        <ele>1051.7</ele>
        <time>2026-07-14T07:44:51Z</time>
      </trkpt>
      <trkpt lat="45.20061" lon="5.95004">
        <ele>1051.8</ele>
        <time>2026-07-14T07:44:52Z</time>
      </trkpt>
      <trkpt lat="45.20061" lon="5.95005">
        <ele>1051.9</ele>
        <time>2026-07-14T07:44:53Z</time>
      </trkpt>
      <trkpt lat="45.2006" lon="5.95007">
        <ele>1052.2</ele>
        <time>2026-07-14T07:44:55Z</time>
      </trkpt>
      <trkpt lat="45.2006" lon="5.95008">
        <ele>1052.3</ele>
        <time>2026-07-14T07:44:56Z</time>
      </trkpt>
      <trkpt lat="45.2006" lon="5.95009">
        <ele>1052.5</ele>
        <time>2026-07-14T07:44:57Z</time>
      </trkpt>
      <trkpt lat="45.2006" lon="5.9501">
        <ele>1052.7</ele>
        <time>2026-07-14T07:44:58Z</time>
      </trkpt>
      <trkpt lat="45.20061" lon="5.95011">
        <ele>1052.8</ele>
        <time>2026-07-14T07:44:59Z</time>
      </trkpt>
      <trkpt lat="45.20061" lon="5.95012">
        <ele>1053</ele>
        <time>2026-07-14T07:45:01Z</time>
      </trkpt>
      <trkpt lat="45.20062" lon="5.95014">
        <ele>1053.3</ele>
        <time>2026-07-14T07:45:03Z</time>
      </trkpt>
      <trkpt lat="45.20063" lon="5.95015">
        <ele>1053.5</ele>
        <time>2026-07-14T07:45:04Z</time>
      </trkpt>
      <trkpt lat="45.20063" lon="5.95016">
        <ele>1053.7</ele>
        <time>2026-07-14T07:45:05Z</time>
      </trkpt>
      <trkpt lat="45.20064" lon="5.95017">
        <ele>1053.9</ele>
        <time>2026-07-14T07:45:06Z</time>
      </trkpt>
      <trkpt lat="45.20064" lon="5.95018">
        <ele>1054.1</ele>
        <time>2026-07-14T07:45:07Z</time>
      </trkpt>
      <trkpt lat="45.20065" lon="5.95019">
        <ele>1054.3</ele>
        <time>2026-07-14T07:45:08Z</time>
      </trkpt>
      <trkpt lat="45.20065" lon="5.9502">
        <ele>1054.4</ele>
        <time>2026-07-14T07:45:09Z</time>
      </trkpt>
      <trkpt lat="45.20065" lon="5.95021">
        <ele>1054.6</ele>
        <time>2026-07-14T07:45:10Z</time>
      </trkpt>
      <trkpt lat="45.20065" lon="5.95021">
        <ele>1054.7</ele>
        <time>2026-07-14T07:45:11Z</time>
      </trkpt>
      <trkpt lat="45.20064" lon="5.95022">
        <ele>1054.8</ele>
        <time>2026-07-14T07:45:12Z</time>
      </trkpt>
      <trkpt lat="45.20064" lon="5.95023">
        <ele>1054.9</ele>
        <time>2026-07-14T07:45:13Z</time>
      </trkpt>
      <trkpt lat="45.20064" lon="5.95023">
        <ele>1055</ele>
        <time>2026-07-14T07:45:14Z</time>
      </trkpt>
      <trkpt lat="45.20064" lon="5.95024">
        <ele>1055.2</ele>
        <time>2026-07-14T07:45:15Z</time>
      </trkpt>
      <trkpt lat="45.20064" lon="5.95025">
        <ele>1055.3</ele>
        <time>2026-07-14T07:45:16Z</time>
      </trkpt>
      <trkpt lat="45.20064" lon="5.95025">
        <ele>1055.3</ele>
        <time>2026-07-14T07:45:17Z</time>
      </trkpt>
      <trkpt lat="45.20064" lon="5.95026">
        <ele>1055.5</ele>
        <time>2026-07-14T07:45:18Z</time>
      </trkpt>
      <trkpt lat="45.20064" lon="5.95026">
        <ele>1055.6</ele>
        <time>2026-07-14T07:45:19Z</time>
      </trkpt>
      <trkpt lat="45.20063" lon="5.95028">
        <ele>1055.8</ele>
        <time>2026-07-14T07:45:21Z</time>
      </trkpt>
      <trkpt lat="45.20063" lon="5.95029">
        <ele>1056</ele>
        <time>2026-07-14T07:45:22Z</time>
      </trkpt>
      <trkpt lat="45.20063" lon="5.95029">
        <ele>1056.1</ele>
        <time>2026-07-14T07:45:23Z</time>
      </trkpt>
      <trkpt lat="45.20062" lon="5.9503">
        <ele>1056.3</ele>
        <time>2026-07-14T07:45:24Z</time>
      </trkpt>
      <trkpt lat="45.20062" lon="5.95031">
        <ele>1056.4</ele>
        <time>2026-07-14T07:45:25Z</time>
      </trkpt>
      <trkpt lat="45.20062" lon="5.95031">
        <ele>1056.5</ele>
        <time>2026-07-14T07:45:26Z</time>
      </trkpt>
      <trkpt lat="45.20061" lon="5.95031">
        <ele>1056.6</ele>
        <time>2026-07-14T07:45:27Z</time>
      </trkpt>
      <trkpt lat="45.20061" lon="5.95032">
        <ele>1056.8</ele>
        <time>2026-07-14T07:45:28Z</time>
      </trkpt>
      <trkpt lat="45.20061" lon="5.95032">
        <ele>1056.8</ele>
        <time>2026-07-14T07:45:29Z</time>
      </trkpt>
      <trkpt lat="45.20061" lon="5.95033">
        <ele>1056.9</ele>
        <time>2026-07-14T07:45:30Z</time>
      </trkpt>
      <trkpt lat="45.20061" lon="5.95033">
        <ele>1057</ele>
        <time>2026-07-14T07:45:31Z</time>
      </trkpt>
      <trkpt lat="45.20061" lon="5.95034">
        <ele>1057.1</ele>
        <time>2026-07-14T07:45:32Z</time>
      </trkpt>
      <trkpt lat="45.2006" lon="5.95035">
        <ele>1057.2</ele>
        <time>2026-07-14T07:45:33Z</time>
      </trkpt>
      <trkpt lat="45.2006" lon="5.95035">
        <ele>1057.3</ele>
        <time>2026-07-14T07:45:34Z</time>
      </trkpt>
      <trkpt lat="45.2006" lon="5.95036">
        <ele>1057.5</ele>
        <time>2026-07-14T07:45:35Z</time>
      </trkpt>
      <trkpt lat="45.20059" lon="5.95036">
        <ele>1057.6</ele>
        <time>2026-07-14T07:45:36Z</time>
      </trkpt>
      <trkpt lat="45.20059" lon="5.95037">
        <ele>1057.7</ele>
        <time>2026-07-14T07:45:37Z</time>
      </trkpt>
      <trkpt lat="45.20059" lon="5.95037">
        <ele>1057.8</ele>
        <time>2026-07-14T07:45:38Z</time>
      </trkpt>
      <trkpt lat="45.20059" lon="5.95038">
        <ele>1057.9</ele>
        <time>2026-07-14T07:45:39Z</time>
      </trkpt>
      <trkpt lat="45.20059" lon="5.95038">
        <ele>1058</ele>
        <time>2026-07-14T07:45:40Z</time>
      </trkpt>
      <trkpt lat="45.20059" lon="5.95039">
        <ele>1058.1</ele>
        <time>2026-07-14T07:45:42Z</time>
      </trkpt>
      <trkpt lat="45.20058" lon="5.9504">
        <ele>1058.3</ele>
        <time>2026-07-14T07:45:43Z</time>
      </trkpt>
      <trkpt lat="45.20058" lon="5.9504">
        <ele>1058.4</ele>
        <time>2026-07-14T07:45:44Z</time>
      </trkpt>
      <trkpt lat="45.20058" lon="5.95041">
        <ele>1058.5</ele>
        <time>2026-07-14T07:45:45Z</time>
      </trkpt>
      <trkpt lat="45.20058" lon="5.95041">
        <ele>1058.6</ele>
        <time>2026-07-14T07:45:46Z</time>
      </trkpt>
      <trkpt lat="45.20058" lon="5.95041">
        <ele>1058.6</ele>
        <time>2026-07-14T07:45:47Z</time>
      </trkpt>
      <trkpt lat="45.20058" lon="5.95042">
        <ele>1058.7</ele>
        <time>2026-07-14T07:45:48Z</time>
      </trkpt>
      <trkpt lat="45.20057" lon="5.95042">
        <ele>1058.8</ele>
        <time>2026-07-14T07:45:49Z</time>
      </trkpt>
      <trkpt lat="45.20057" lon="5.95043">
        <ele>1058.9</ele>
        <time>2026-07-14T07:45:50Z</time>
      </trkpt>
      <trkpt lat="45.20057" lon="5.95043">
        <ele>1059</ele>
        <time>2026-07-14T07:45:51Z</time>
      </trkpt>
      <trkpt lat="45.20057" lon="5.95044">
        <ele>1059.2</ele>
        <time>2026-07-14T07:45:52Z</time>
      </trkpt>
      <trkpt lat="45.20057" lon="5.95044">
        <ele>1059.2</ele>
        <time>2026-07-14T07:45:53Z</time>
      </trkpt>
      <trkpt lat="45.20056" lon="5.95045">
        <ele>1059.3</ele>
        <time>2026-07-14T07:45:54Z</time>
      </trkpt>
      <trkpt lat="45.20056" lon="5.95045">
        <ele>1059.4</ele>
        <time>2026-07-14T07:45:55Z</time>
      </trkpt>
      <trkpt lat="45.20057" lon="5.95046">
        <ele>1059.5</ele>
        <time>2026-07-14T07:45:56Z</time>
      </trkpt>
      <trkpt lat="45.20056" lon="5.95047">
        <ele>1059.6</ele>
        <time>2026-07-14T07:45:57Z</time>
      </trkpt>
      <trkpt lat="45.20056" lon="5.95047">
        <ele>1059.8</ele>
        <time>2026-07-14T07:45:58Z</time>
      </trkpt>
      <trkpt lat="45.20056" lon="5.95047">
        <ele>1059.8</ele>
        <time>2026-07-14T07:45:59Z</time>
      </trkpt>
      <trkpt lat="45.20056" lon="5.95048">
        <ele>1059.9</ele>
        <time>2026-07-14T07:46:00Z</time>
      </trkpt>
      <trkpt lat="45.20056" lon="5.95048">
        <ele>1060</ele>
        <time>2026-07-14T07:46:01Z</time>
      </trkpt>
      <trkpt lat="45.20056" lon="5.95048">
        <ele>1060</ele>
        <time>2026-07-14T07:46:02Z</time>
      </trkpt>
      <trkpt lat="45.20056" lon="5.95048">
        <ele>1060.1</ele>
        <time>2026-07-14T07:46:03Z</time>
      </trkpt>
      <trkpt lat="45.20056" lon="5.95048">
        <ele>1060.2</ele>
        <time>2026-07-14T07:46:04Z</time>
      </trkpt>
      <trkpt lat="45.20056" lon="5.95048">
        <ele>1060.2</ele>
        <time>2026-07-14T07:46:05Z</time>
      </trkpt>
      <trkpt lat="45.20056" lon="5.95048">
        <ele>1060.3</ele>
        <time>2026-07-14T07:46:06Z</time>
      </trkpt>
      <trkpt lat="45.20056" lon="5.95049">
        <ele>1060.4</ele>
        <time>2026-07-14T07:46:07Z</time>
      </trkpt>
      <trkpt lat="45.20056" lon="5.95049">
        <ele>1060.4</ele>
        <time>2026-07-14T07:46:08Z</time>
      </trkpt>
      <trkpt lat="45.20055" lon="5.95049">
        <ele>1060.5</ele>
        <time>2026-07-14T07:46:09Z</time>
      </trkpt>
      <trkpt lat="45.20055" lon="5.9505">
        <ele>1060.7</ele>
        <time>2026-07-14T07:46:10Z</time>
      </trkpt>
      <trkpt lat="45.20054" lon="5.9505">
        <ele>1060.8</ele>
        <time>2026-07-14T07:46:11Z</time>
      </trkpt>
      <trkpt lat="45.20054" lon="5.9505">
        <ele>1060.9</ele>
        <time>2026-07-14T07:46:12Z</time>
      </trkpt>
      <trkpt lat="45.20054" lon="5.95051">
        <ele>1061</ele>
        <time>2026-07-14T07:46:13Z</time>
      </trkpt>
      <trkpt lat="45.20053" lon="5.95051">
        <ele>1061.1</ele>
        <time>2026-07-14T07:46:14Z</time>
      </trkpt>
      <trkpt lat="45.20053" lon="5.95051">
        <ele>1061.1</ele>
        <time>2026-07-14T07:46:15Z</time>
      </trkpt>
      <trkpt lat="45.20053" lon="5.95051">
        <ele>1061.2</ele>
        <time>2026-07-14T07:46:16Z</time>
      </trkpt>
      <trkpt lat="45.20053" lon="5.95051">
        <ele>1061.3</ele>
        <time>2026-07-14T07:46:17Z</time>
      </trkpt>
      <trkpt lat="45.20053" lon="5.95052">
        <ele>1061.4</ele>
        <time>2026-07-14T07:46:18Z</time>
      </trkpt>
      <trkpt lat="45.20052" lon="5.95053">
        <ele>1061.6</ele>
        <time>2026-07-14T07:46:20Z</time>
      </trkpt>
      <trkpt lat="45.20052" lon="5.95053">
        <ele>1061.7</ele>
        <time>2026-07-14T07:46:21Z</time>
      </trkpt>
      <trkpt lat="45.20052" lon="5.95054">
        <ele>1061.8</ele>
        <time>2026-07-14T07:46:22Z</time>
      </trkpt>
      <trkpt lat="45.20051" lon="5.95055">
        <ele>1062</ele>
        <time>2026-07-14T07:46:23Z</time>
      </trkpt>
      <trkpt lat="45.20051" lon="5.95055">
        <ele>1062.1</ele>
        <time>2026-07-14T07:46:24Z</time>
      </trkpt>
      <trkpt lat="45.20051" lon="5.95056">
        <ele>1062.2</ele>
        <time>2026-07-14T07:46:25Z</time>
      </trkpt>
      <trkpt lat="45.20051" lon="5.95056">
        <ele>1062.3</ele>
        <time>2026-07-14T07:46:26Z</time>
      </trkpt>
      <trkpt lat="45.20051" lon="5.95057">
        <ele>1062.4</ele>
        <time>2026-07-14T07:46:27Z</time>
      </trkpt>
      <trkpt lat="45.20051" lon="5.95058">
        <ele>1062.6</ele>
        <time>2026-07-14T07:46:28Z</time>
      </trkpt>
      <trkpt lat="45.2005" lon="5.95058">
        <ele>1062.7</ele>
        <time>2026-07-14T07:46:29Z</time>
      </trkpt>
      <trkpt lat="45.2005" lon="5.95059">
        <ele>1062.8</ele>
        <time>2026-07-14T07:46:30Z</time>
      </trkpt>
      <trkpt lat="45.2005" lon="5.9506">
        <ele>1062.9</ele>
        <time>2026-07-14T07:46:31Z</time>
      </trkpt>
      <trkpt lat="45.2005" lon="5.9506">
        <ele>1063</ele>
        <time>2026-07-14T07:46:32Z</time>
      </trkpt>
      <trkpt lat="45.2005" lon="5.95061">
        <ele>1063.2</ele>
        <time>2026-07-14T07:46:33Z</time>
      </trkpt>
      <trkpt lat="45.2005" lon="5.95062">
        <ele>1063.4</ele>
        <time>2026-07-14T07:46:34Z</time>
      </trkpt>
      <trkpt lat="45.2005" lon="5.95063">
        <ele>1063.4</ele>
        <time>2026-07-14T07:46:35Z</time>
      </trkpt>
      <trkpt lat="45.20051" lon="5.95063">
        <ele>1063.5</ele>
        <time>2026-07-14T07:46:36Z</time>
      </trkpt>
      <trkpt lat="45.20051" lon="5.95064">
        <ele>1063.6</ele>
        <time>2026-07-14T07:46:37Z</time>
      </trkpt>
      <trkpt lat="45.20051" lon="5.95064">
        <ele>1063.8</ele>
        <time>2026-07-14T07:46:38Z</time>
      </trkpt>
      <trkpt lat="45.20052" lon="5.95065">
        <ele>1063.9</ele>
        <time>2026-07-14T07:46:39Z</time>
      </trkpt>
      <trkpt lat="45.20052" lon="5.95066">
        <ele>1064</ele>
        <time>2026-07-14T07:46:40Z</time>
      </trkpt>
      <trkpt lat="45.20052" lon="5.95067">
        <ele>1064.2</ele>
        <time>2026-07-14T07:46:41Z</time>
      </trkpt>
      <trkpt lat="45.20052" lon="5.95068">
        <ele>1064.4</ele>
        <time>2026-07-14T07:46:42Z</time>
      </trkpt>
      <trkpt lat="45.20052" lon="5.95069">
        <ele>1064.6</ele>
        <time>2026-07-14T07:46:43Z</time>
      </trkpt>
      <trkpt lat="45.20052" lon="5.9507">
        <ele>1064.8</ele>
        <time>2026-07-14T07:46:44Z</time>
      </trkpt>
      <trkpt lat="45.20052" lon="5.95071">
        <ele>1064.9</ele>
        <time>2026-07-14T07:46:45Z</time>
      </trkpt>
      <trkpt lat="45.20052" lon="5.95071">
        <ele>1065</ele>
        <time>2026-07-14T07:46:46Z</time>
      </trkpt>
      <trkpt lat="45.20052" lon="5.95072">
        <ele>1065.2</ele>
        <time>2026-07-14T07:46:47Z</time>
      </trkpt>
      <trkpt lat="45.20052" lon="5.95074">
        <ele>1065.4</ele>
        <time>2026-07-14T07:46:49Z</time>
      </trkpt>
      <trkpt lat="45.20051" lon="5.95074">
        <ele>1065.5</ele>
        <time>2026-07-14T07:46:50Z</time>
      </trkpt>
      <trkpt lat="45.20052" lon="5.95073">
        <ele>1065.5</ele>
        <time>2026-07-14T07:46:51Z</time>
      </trkpt>
      <trkpt lat="45.20052" lon="5.95073">
        <ele>1065.5</ele>
        <time>2026-07-14T07:46:52Z</time>
      </trkpt>
      <trkpt lat="45.20052" lon="5.95074">
        <ele>1065.6</ele>
        <time>2026-07-14T07:46:54Z</time>
      </trkpt>
      <trkpt lat="45.20052" lon="5.95075">
        <ele>1065.7</ele>
        <time>2026-07-14T07:46:55Z</time>
      </trkpt>
      <trkpt lat="45.20052" lon="5.95075">
        <ele>1065.9</ele>
        <time>2026-07-14T07:46:56Z</time>
      </trkpt>
      <trkpt lat="45.20052" lon="5.95076">
        <ele>1066</ele>
        <time>2026-07-14T07:46:57Z</time>
      </trkpt>
      <trkpt lat="45.20051" lon="5.95077">
        <ele>1066.2</ele>
        <time>2026-07-14T07:46:58Z</time>
      </trkpt>
      <trkpt lat="45.20051" lon="5.95078">
        <ele>1066.3</ele>
        <time>2026-07-14T07:47:00Z</time>
      </trkpt>
      <trkpt lat="45.20051" lon="5.95079">
        <ele>1066.4</ele>
        <time>2026-07-14T07:47:01Z</time>
      </trkpt>
      <trkpt lat="45.20051" lon="5.9508">
        <ele>1066.6</ele>
        <time>2026-07-14T07:47:02Z</time>
      </trkpt>
      <trkpt lat="45.20051" lon="5.95082">
        <ele>1067</ele>
        <time>2026-07-14T07:47:03Z</time>
      </trkpt>
      <trkpt lat="45.20051" lon="5.95083">
        <ele>1067.2</ele>
        <time>2026-07-14T07:47:04Z</time>
      </trkpt>
      <trkpt lat="45.20051" lon="5.95084">
        <ele>1067.3</ele>
        <time>2026-07-14T07:47:05Z</time>
      </trkpt>
      <trkpt lat="45.2005" lon="5.95085">
        <ele>1067.5</ele>
        <time>2026-07-14T07:47:07Z</time>
      </trkpt>
      <trkpt lat="45.2005" lon="5.95085">
        <ele>1067.6</ele>
        <time>2026-07-14T07:47:08Z</time>
      </trkpt>
      <trkpt lat="45.2005" lon="5.95086">
        <ele>1067.8</ele>
        <time>2026-07-14T07:47:09Z</time>
      </trkpt>
      <trkpt lat="45.2005" lon="5.95087">
        <ele>1067.9</ele>
        <time>2026-07-14T07:47:10Z</time>
      </trkpt>
      <trkpt lat="45.2005" lon="5.95089">
        <ele>1068.2</ele>
        <time>2026-07-14T07:47:11Z</time>
      </trkpt>
      <trkpt lat="45.20049" lon="5.9509">
        <ele>1068.5</ele>
        <time>2026-07-14T07:47:13Z</time>
      </trkpt>
      <trkpt lat="45.20048" lon="5.95091">
        <ele>1068.8</ele>
        <time>2026-07-14T07:47:14Z</time>
      </trkpt>
      <trkpt lat="45.20047" lon="5.95092">
        <ele>1069.1</ele>
        <time>2026-07-14T07:47:15Z</time>
      </trkpt>
      <trkpt lat="45.20047" lon="5.95093">
        <ele>1069.2</ele>
        <time>2026-07-14T07:47:16Z</time>
      </trkpt>
      <trkpt lat="45.20046" lon="5.95094">
        <ele>1069.6</ele>
        <time>2026-07-14T07:47:17Z</time>
      </trkpt>
      <trkpt lat="45.20045" lon="5.95095">
        <ele>1069.7</ele>
        <time>2026-07-14T07:47:18Z</time>
      </trkpt>
      <trkpt lat="45.20045" lon="5.95095">
        <ele>1069.8</ele>
        <time>2026-07-14T07:47:19Z</time>
      </trkpt>
      <trkpt lat="45.20045" lon="5.95096">
        <ele>1070</ele>
        <time>2026-07-14T07:47:20Z</time>
      </trkpt>
      <trkpt lat="45.20045" lon="5.95096">
        <ele>1070.1</ele>
        <time>2026-07-14T07:47:21Z</time>
      </trkpt>
      <trkpt lat="45.20045" lon="5.95098">
        <ele>1070.3</ele>
        <time>2026-07-14T07:47:23Z</time>
      </trkpt>
      <trkpt lat="45.20045" lon="5.95098">
        <ele>1070.4</ele>
        <time>2026-07-14T07:47:25Z</time>
      </trkpt>
      <trkpt lat="45.20045" lon="5.95099">
        <ele>1070.7</ele>
        <time>2026-07-14T07:47:26Z</time>
      </trkpt>
      <trkpt lat="45.20045" lon="5.951">
        <ele>1070.8</ele>
        <time>2026-07-14T07:47:27Z</time>
      </trkpt>
      <trkpt lat="45.20044" lon="5.951">
        <ele>1071</ele>
        <time>2026-07-14T07:47:28Z</time>
      </trkpt>
      <trkpt lat="45.20044" lon="5.95101">
        <ele>1071.1</ele>
        <time>2026-07-14T07:47:29Z</time>
      </trkpt>
      <trkpt lat="45.20043" lon="5.95101">
        <ele>1071.2</ele>
        <time>2026-07-14T07:47:30Z</time>
      </trkpt>
      <trkpt lat="45.20043" lon="5.95102">
        <ele>1071.4</ele>
        <time>2026-07-14T07:47:31Z</time>
      </trkpt>
      <trkpt lat="45.20043" lon="5.95102">
        <ele>1071.5</ele>
        <time>2026-07-14T07:47:32Z</time>
      </trkpt>
      <trkpt lat="45.20042" lon="5.95103">
        <ele>1071.7</ele>
        <time>2026-07-14T07:47:33Z</time>
      </trkpt>
      <trkpt lat="45.20042" lon="5.95104">
        <ele>1071.8</ele>
        <time>2026-07-14T07:47:34Z</time>
      </trkpt>
      <trkpt lat="45.20042" lon="5.95104">
        <ele>1071.9</ele>
        <time>2026-07-14T07:47:35Z</time>
      </trkpt>
      <trkpt lat="45.20042" lon="5.95105">
        <ele>1072</ele>
        <time>2026-07-14T07:47:36Z</time>
      </trkpt>
      <trkpt lat="45.20042" lon="5.95105">
        <ele>1072.1</ele>
        <time>2026-07-14T07:47:37Z</time>
      </trkpt>
      <trkpt lat="45.20042" lon="5.95106">
        <ele>1072.2</ele>
        <time>2026-07-14T07:47:38Z</time>
      </trkpt>
      <trkpt lat="45.20042" lon="5.95106">
        <ele>1072.3</ele>
        <time>2026-07-14T07:47:39Z</time>
      </trkpt>
      <trkpt lat="45.20042" lon="5.95107">
        <ele>1072.4</ele>
        <time>2026-07-14T07:47:40Z</time>
      </trkpt>
      <trkpt lat="45.20042" lon="5.95107">
        <ele>1072.6</ele>
        <time>2026-07-14T07:47:41Z</time>
      </trkpt>
      <trkpt lat="45.20042" lon="5.95109">
        <ele>1073</ele>
        <time>2026-07-14T07:47:43Z</time>
      </trkpt>
      <trkpt lat="45.20042" lon="5.9511">
        <ele>1073.1</ele>
        <time>2026-07-14T07:47:44Z</time>
      </trkpt>
      <trkpt lat="45.20043" lon="5.95111">
        <ele>1073.3</ele>
        <time>2026-07-14T07:47:45Z</time>
      </trkpt>
      <trkpt lat="45.20042" lon="5.95112">
        <ele>1073.5</ele>
        <time>2026-07-14T07:47:46Z</time>
      </trkpt>
      <trkpt lat="45.20043" lon="5.95113">
        <ele>1073.7</ele>
        <time>2026-07-14T07:47:47Z</time>
      </trkpt>
      <trkpt lat="45.20043" lon="5.95113">
        <ele>1073.8</ele>
        <time>2026-07-14T07:47:48Z</time>
      </trkpt>
      <trkpt lat="45.20043" lon="5.95114">
        <ele>1073.8</ele>
        <time>2026-07-14T07:47:49Z</time>
      </trkpt>
      <trkpt lat="45.20043" lon="5.95114">
        <ele>1073.9</ele>
        <time>2026-07-14T07:47:50Z</time>
      </trkpt>
      <trkpt lat="45.20043" lon="5.95114">
        <ele>1074</ele>
        <time>2026-07-14T07:47:51Z</time>
      </trkpt>
      <trkpt lat="45.20043" lon="5.95114">
        <ele>1074.1</ele>
        <time>2026-07-14T07:47:53Z</time>
      </trkpt>
      <trkpt lat="45.20043" lon="5.95114">
        <ele>1074.1</ele>
        <time>2026-07-14T07:47:54Z</time>
      </trkpt>
      <trkpt lat="45.20043" lon="5.95113">
        <ele>1074.3</ele>
        <time>2026-07-14T07:47:56Z</time>
      </trkpt>
      <trkpt lat="45.20043" lon="5.95113">
        <ele>1074.3</ele>
        <time>2026-07-14T07:47:57Z</time>
      </trkpt>
      <trkpt lat="45.20043" lon="5.95114">
        <ele>1074.3</ele>
        <time>2026-07-14T07:47:58Z</time>
      </trkpt>
      <trkpt lat="45.20043" lon="5.95114">
        <ele>1074.4</ele>
        <time>2026-07-14T07:47:59Z</time>
      </trkpt>
      <trkpt lat="45.20043" lon="5.95114">
        <ele>1074.5</ele>
        <time>2026-07-14T07:48:00Z</time>
      </trkpt>
      <trkpt lat="45.20043" lon="5.95114">
        <ele>1074.6</ele>
        <time>2026-07-14T07:48:01Z</time>
      </trkpt>
      <trkpt lat="45.20043" lon="5.95115">
        <ele>1074.7</ele>
        <time>2026-07-14T07:48:02Z</time>
      </trkpt>
      <trkpt lat="45.20043" lon="5.95116">
        <ele>1075</ele>
        <time>2026-07-14T07:48:04Z</time>
      </trkpt>
      <trkpt lat="45.20043" lon="5.95117">
        <ele>1075.2</ele>
        <time>2026-07-14T07:48:05Z</time>
      </trkpt>
      <trkpt lat="45.20043" lon="5.95118">
        <ele>1075.3</ele>
        <time>2026-07-14T07:48:06Z</time>
      </trkpt>
      <trkpt lat="45.20043" lon="5.95118">
        <ele>1075.5</ele>
        <time>2026-07-14T07:48:07Z</time>
      </trkpt>
      <trkpt lat="45.20042" lon="5.95118">
        <ele>1075.6</ele>
        <time>2026-07-14T07:48:08Z</time>
      </trkpt>
      <trkpt lat="45.20042" lon="5.95118">
        <ele>1075.6</ele>
        <time>2026-07-14T07:48:10Z</time>
      </trkpt>
      <trkpt lat="45.20042" lon="5.95118">
        <ele>1075.9</ele>
        <time>2026-07-14T07:48:11Z</time>
      </trkpt>
      <trkpt lat="45.20041" lon="5.95118">
        <ele>1076</ele>
        <time>2026-07-14T07:48:12Z</time>
      </trkpt>
      <trkpt lat="45.20041" lon="5.95117">
        <ele>1076.2</ele>
        <time>2026-07-14T07:48:14Z</time>
      </trkpt>
      <trkpt lat="45.20041" lon="5.95116">
        <ele>1076.4</ele>
        <time>2026-07-14T07:48:16Z</time>
      </trkpt>
      <trkpt lat="45.2004" lon="5.95116">
        <ele>1076.6</ele>
        <time>2026-07-14T07:48:17Z</time>
      </trkpt>
      <trkpt lat="45.2004" lon="5.95115">
        <ele>1076.7</ele>
        <time>2026-07-14T07:48:18Z</time>
      </trkpt>
      <trkpt lat="45.2004" lon="5.95115">
        <ele>1076.7</ele>
        <time>2026-07-14T07:48:19Z</time>
      </trkpt>
      <trkpt lat="45.2004" lon="5.95115">
        <ele>1076.8</ele>
        <time>2026-07-14T07:48:20Z</time>
      </trkpt>
      <trkpt lat="45.2004" lon="5.95115">
        <ele>1076.9</ele>
        <time>2026-07-14T07:48:21Z</time>
      </trkpt>
      <trkpt lat="45.2004" lon="5.95114">
        <ele>1076.9</ele>
        <time>2026-07-14T07:48:22Z</time>
      </trkpt>
      <trkpt lat="45.2004" lon="5.95114">
        <ele>1077</ele>
        <time>2026-07-14T07:48:23Z</time>
      </trkpt>
      <trkpt lat="45.2004" lon="5.95114">
        <ele>1077.1</ele>
        <time>2026-07-14T07:48:24Z</time>
      </trkpt>
      <trkpt lat="45.2004" lon="5.95113">
        <ele>1077.2</ele>
        <time>2026-07-14T07:48:25Z</time>
      </trkpt>
      <trkpt lat="45.2004" lon="5.95112">
        <ele>1077.4</ele>
        <time>2026-07-14T07:48:27Z</time>
      </trkpt>
      <trkpt lat="45.2004" lon="5.95112">
        <ele>1077.5</ele>
        <time>2026-07-14T07:48:28Z</time>
      </trkpt>
      <trkpt lat="45.20039" lon="5.95112">
        <ele>1077.6</ele>
        <time>2026-07-14T07:48:29Z</time>
      </trkpt>
      <trkpt lat="45.20039" lon="5.95112">
        <ele>1077.8</ele>
        <time>2026-07-14T07:48:30Z</time>
      </trkpt>
      <trkpt lat="45.2004" lon="5.95112">
        <ele>1077.9</ele>
        <time>2026-07-14T07:48:31Z</time>
      </trkpt>
      <trkpt lat="45.2004" lon="5.95112">
        <ele>1077.9</ele>
        <time>2026-07-14T07:48:32Z</time>
      </trkpt>
      <trkpt lat="45.20039" lon="5.95112">
        <ele>1078</ele>
        <time>2026-07-14T07:48:33Z</time>
      </trkpt>
      <trkpt lat="45.20039" lon="5.95112">
        <ele>1078.1</ele>
        <time>2026-07-14T07:48:34Z</time>
      </trkpt>
      <trkpt lat="45.20038" lon="5.95112">
        <ele>1078.3</ele>
        <time>2026-07-14T07:48:35Z</time>
      </trkpt>
      <trkpt lat="45.20038" lon="5.95112">
        <ele>1078.4</ele>
        <time>2026-07-14T07:48:36Z</time>
      </trkpt>
      <trkpt lat="45.20038" lon="5.95112">
        <ele>1078.6</ele>
        <time>2026-07-14T07:48:37Z</time>
      </trkpt>
      <trkpt lat="45.20037" lon="5.95113">
        <ele>1078.8</ele>
        <time>2026-07-14T07:48:38Z</time>
      </trkpt>
      <trkpt lat="45.20037" lon="5.95113">
        <ele>1079</ele>
        <time>2026-07-14T07:48:39Z</time>
      </trkpt>
      <trkpt lat="45.20036" lon="5.95114">
        <ele>1079.1</ele>
        <time>2026-07-14T07:48:40Z</time>
      </trkpt>
      <trkpt lat="45.20036" lon="5.95114">
        <ele>1079.3</ele>
        <time>2026-07-14T07:48:41Z</time>
      </trkpt>
      <trkpt lat="45.20036" lon="5.95114">
        <ele>1079.5</ele>
        <time>2026-07-14T07:48:42Z</time>
      </trkpt>
      <trkpt lat="45.20035" lon="5.95115">
        <ele>1079.6</ele>
        <time>2026-07-14T07:48:43Z</time>
      </trkpt>
      <trkpt lat="45.20035" lon="5.95115">
        <ele>1079.7</ele>
        <time>2026-07-14T07:48:44Z</time>
      </trkpt>
      <trkpt lat="45.20035" lon="5.95115">
        <ele>1079.9</ele>
        <time>2026-07-14T07:48:45Z</time>
      </trkpt>
      <trkpt lat="45.20035" lon="5.95115">
        <ele>1080</ele>
        <time>2026-07-14T07:48:46Z</time>
      </trkpt>
      <trkpt lat="45.20034" lon="5.95115">
        <ele>1080</ele>
        <time>2026-07-14T07:48:47Z</time>
      </trkpt>
      <trkpt lat="45.20034" lon="5.95114">
        <ele>1080.1</ele>
        <time>2026-07-14T07:48:48Z</time>
      </trkpt>
      <trkpt lat="45.20034" lon="5.95114">
        <ele>1080.3</ele>
        <time>2026-07-14T07:48:49Z</time>
      </trkpt>
      <trkpt lat="45.20033" lon="5.95113">
        <ele>1080.6</ele>
        <time>2026-07-14T07:48:51Z</time>
      </trkpt>
      <trkpt lat="45.20033" lon="5.95113">
        <ele>1080.8</ele>
        <time>2026-07-14T07:48:52Z</time>
      </trkpt>
      <trkpt lat="45.20032" lon="5.95112">
        <ele>1080.9</ele>
        <time>2026-07-14T07:48:53Z</time>
      </trkpt>
      <trkpt lat="45.20032" lon="5.95112">
        <ele>1081.2</ele>
        <time>2026-07-14T07:48:55Z</time>
      </trkpt>
      <trkpt lat="45.20031" lon="5.95112">
        <ele>1081.3</ele>
        <time>2026-07-14T07:48:56Z</time>
      </trkpt>
      <trkpt lat="45.20031" lon="5.95112">
        <ele>1081.3</ele>
        <time>2026-07-14T07:48:57Z</time>
      </trkpt>
      <trkpt lat="45.20031" lon="5.95112">
        <ele>1081.4</ele>
        <time>2026-07-14T07:48:58Z</time>
      </trkpt>
      <trkpt lat="45.20031" lon="5.95112">
        <ele>1081.5</ele>
        <time>2026-07-14T07:48:59Z</time>
      </trkpt>
      <trkpt lat="45.2003" lon="5.95111">
        <ele>1081.7</ele>
        <time>2026-07-14T07:49:00Z</time>
      </trkpt>
      <trkpt lat="45.2003" lon="5.95111">
        <ele>1081.9</ele>
        <time>2026-07-14T07:49:01Z</time>
      </trkpt>
      <trkpt lat="45.20029" lon="5.95111">
        <ele>1082.1</ele>
        <time>2026-07-14T07:49:03Z</time>
      </trkpt>
      <trkpt lat="45.20029" lon="5.95111">
        <ele>1082.2</ele>
        <time>2026-07-14T07:49:04Z</time>
      </trkpt>
      <trkpt lat="45.20029" lon="5.9511">
        <ele>1082.4</ele>
        <time>2026-07-14T07:49:05Z</time>
      </trkpt>
      <trkpt lat="45.20029" lon="5.9511">
        <ele>1082.4</ele>
        <time>2026-07-14T07:49:06Z</time>
      </trkpt>
      <trkpt lat="45.20028" lon="5.9511">
        <ele>1082.6</ele>
        <time>2026-07-14T07:49:07Z</time>
      </trkpt>
      <trkpt lat="45.20028" lon="5.9511">
        <ele>1082.7</ele>
        <time>2026-07-14T07:49:09Z</time>
      </trkpt>
      <trkpt lat="45.20027" lon="5.9511">
        <ele>1082.9</ele>
        <time>2026-07-14T07:49:10Z</time>
      </trkpt>
      <trkpt lat="45.20028" lon="5.9511">
        <ele>1083</ele>
        <time>2026-07-14T07:49:11Z</time>
      </trkpt>
      <trkpt lat="45.20027" lon="5.9511">
        <ele>1083.1</ele>
        <time>2026-07-14T07:49:12Z</time>
      </trkpt>
      <trkpt lat="45.20028" lon="5.9511">
        <ele>1083.1</ele>
        <time>2026-07-14T07:49:13Z</time>
      </trkpt>
      <trkpt lat="45.20027" lon="5.9511">
        <ele>1083.1</ele>
        <time>2026-07-14T07:49:14Z</time>
      </trkpt>
      <trkpt lat="45.20027" lon="5.95111">
        <ele>1083.2</ele>
        <time>2026-07-14T07:49:15Z</time>
      </trkpt>
      <trkpt lat="45.20027" lon="5.9511">
        <ele>1083.3</ele>
        <time>2026-07-14T07:49:16Z</time>
      </trkpt>
      <trkpt lat="45.20027" lon="5.9511">
        <ele>1083.4</ele>
        <time>2026-07-14T07:49:17Z</time>
      </trkpt>
      <trkpt lat="45.20027" lon="5.9511">
        <ele>1083.5</ele>
        <time>2026-07-14T07:49:18Z</time>
      </trkpt>
      <trkpt lat="45.20027" lon="5.95109">
        <ele>1083.6</ele>
        <time>2026-07-14T07:49:19Z</time>
      </trkpt>
      <trkpt lat="45.20027" lon="5.95108">
        <ele>1083.8</ele>
        <time>2026-07-14T07:49:20Z</time>
      </trkpt>
      <trkpt lat="45.20027" lon="5.95108">
        <ele>1083.9</ele>
        <time>2026-07-14T07:49:21Z</time>
      </trkpt>
      <trkpt lat="45.20027" lon="5.95108">
        <ele>1084.1</ele>
        <time>2026-07-14T07:49:22Z</time>
      </trkpt>
      <trkpt lat="45.20028" lon="5.95107">
        <ele>1084.2</ele>
        <time>2026-07-14T07:49:23Z</time>
      </trkpt>
      <trkpt lat="45.20028" lon="5.95107">
        <ele>1084.3</ele>
        <time>2026-07-14T07:49:24Z</time>
      </trkpt>
      <trkpt lat="45.20028" lon="5.95107">
        <ele>1084.4</ele>
        <time>2026-07-14T07:49:25Z</time>
      </trkpt>
      <trkpt lat="45.20028" lon="5.95106">
        <ele>1084.4</ele>
        <time>2026-07-14T07:49:26Z</time>
      </trkpt>
      <trkpt lat="45.20028" lon="5.95106">
        <ele>1084.5</ele>
        <time>2026-07-14T07:49:28Z</time>
      </trkpt>
      <trkpt lat="45.20028" lon="5.95106">
        <ele>1084.6</ele>
        <time>2026-07-14T07:49:29Z</time>
      </trkpt>
      <trkpt lat="45.20027" lon="5.95106">
        <ele>1084.6</ele>
        <time>2026-07-14T07:49:30Z</time>
      </trkpt>
      <trkpt lat="45.20027" lon="5.95106">
        <ele>1084.7</ele>
        <time>2026-07-14T07:49:31Z</time>
      </trkpt>
      <trkpt lat="45.20027" lon="5.95106">
        <ele>1084.8</ele>
        <time>2026-07-14T07:49:32Z</time>
      </trkpt>
      <trkpt lat="45.20027" lon="5.95106">
        <ele>1084.9</ele>
        <time>2026-07-14T07:49:33Z</time>
      </trkpt>
      <trkpt lat="45.20027" lon="5.95106">
        <ele>1085</ele>
        <time>2026-07-14T07:49:34Z</time>
      </trkpt>
      <trkpt lat="45.20027" lon="5.95107">
        <ele>1085</ele>
        <time>2026-07-14T07:49:35Z</time>
      </trkpt>
      <trkpt lat="45.20027" lon="5.95107">
        <ele>1085.1</ele>
        <time>2026-07-14T07:49:36Z</time>
      </trkpt>
      <trkpt lat="45.20026" lon="5.95107">
        <ele>1085.3</ele>
        <time>2026-07-14T07:49:38Z</time>
      </trkpt>
      <trkpt lat="45.20026" lon="5.95107">
        <ele>1085.4</ele>
        <time>2026-07-14T07:49:39Z</time>
      </trkpt>
      <trkpt lat="45.20025" lon="5.95106">
        <ele>1085.7</ele>
        <time>2026-07-14T07:49:41Z</time>
      </trkpt>
      <trkpt lat="45.20025" lon="5.95106">
        <ele>1085.7</ele>
        <time>2026-07-14T07:49:42Z</time>
      </trkpt>
      <trkpt lat="45.20025" lon="5.95107">
        <ele>1085.8</ele>
        <time>2026-07-14T07:49:43Z</time>
      </trkpt>
      <trkpt lat="45.20025" lon="5.95107">
        <ele>1085.9</ele>
        <time>2026-07-14T07:49:44Z</time>
      </trkpt>
      <trkpt lat="45.20025" lon="5.95107">
        <ele>1085.9</ele>
        <time>2026-07-14T07:49:45Z</time>
      </trkpt>
      <trkpt lat="45.20025" lon="5.95107">
        <ele>1086</ele>
        <time>2026-07-14T07:49:46Z</time>
      </trkpt>
      <trkpt lat="45.20025" lon="5.95107">
        <ele>1086</ele>
        <time>2026-07-14T07:49:48Z</time>
      </trkpt>
      <trkpt lat="45.20025" lon="5.95107">
        <ele>1086.1</ele>
        <time>2026-07-14T07:49:50Z</time>
      </trkpt>
      <trkpt lat="45.20025" lon="5.95107">
        <ele>1086.2</ele>
        <time>2026-07-14T07:49:51Z</time>
      </trkpt>
      <trkpt lat="45.20025" lon="5.95108">
        <ele>1086.3</ele>
        <time>2026-07-14T07:49:52Z</time>
      </trkpt>
      <trkpt lat="45.20024" lon="5.95108">
        <ele>1086.4</ele>
        <time>2026-07-14T07:49:53Z</time>
      </trkpt>
      <trkpt lat="45.20024" lon="5.95108">
        <ele>1086.5</ele>
        <time>2026-07-14T07:49:54Z</time>
      </trkpt>
      <trkpt lat="45.20024" lon="5.95108">
        <ele>1086.6</ele>
        <time>2026-07-14T07:49:55Z</time>
      </trkpt>
      <trkpt lat="45.20023" lon="5.95108">
        <ele>1086.7</ele>
        <time>2026-07-14T07:49:57Z</time>
      </trkpt>
      <trkpt lat="45.20023" lon="5.95108">
        <ele>1086.8</ele>
        <time>2026-07-14T07:49:58Z</time>
      </trkpt>
      <trkpt lat="45.20023" lon="5.95108">
        <ele>1086.9</ele>
        <time>2026-07-14T07:49:59Z</time>
      </trkpt>
      <trkpt lat="45.20023" lon="5.95108">
        <ele>1086.9</ele>
        <time>2026-07-14T07:50:00Z</time>
      </trkpt>
      <trkpt lat="45.20024" lon="5.95108">
        <ele>1087</ele>
        <time>2026-07-14T07:50:01Z</time>
      </trkpt>
      <trkpt lat="45.20024" lon="5.95109">
        <ele>1087.1</ele>
        <time>2026-07-14T07:50:03Z</time>
      </trkpt>
      <trkpt lat="45.20024" lon="5.95108">
        <ele>1087.1</ele>
        <time>2026-07-14T07:50:04Z</time>
      </trkpt>
      <trkpt lat="45.20024" lon="5.95108">
        <ele>1087.2</ele>
        <time>2026-07-14T07:50:05Z</time>
      </trkpt>
      <trkpt lat="45.20024" lon="5.95108">
        <ele>1087.3</ele>
        <time>2026-07-14T07:50:06Z</time>
      </trkpt>
      <trkpt lat="45.20023" lon="5.95107">
        <ele>1087.5</ele>
        <time>2026-07-14T07:50:07Z</time>
      </trkpt>
      <trkpt lat="45.20023" lon="5.95107">
        <ele>1087.5</ele>
        <time>2026-07-14T07:50:08Z</time>
      </trkpt>
      <trkpt lat="45.20023" lon="5.95107">
        <ele>1087.6</ele>
        <time>2026-07-14T07:50:09Z</time>
      </trkpt>
      <trkpt lat="45.20023" lon="5.95106">
        <ele>1087.7</ele>
        <time>2026-07-14T07:50:10Z</time>
      </trkpt>
      <trkpt lat="45.20023" lon="5.95106">
        <ele>1087.8</ele>
        <time>2026-07-14T07:50:11Z</time>
      </trkpt>
      <trkpt lat="45.20023" lon="5.95106">
        <ele>1087.9</ele>
        <time>2026-07-14T07:50:12Z</time>
      </trkpt>
      <trkpt lat="45.20023" lon="5.95106">
        <ele>1087.9</ele>
        <time>2026-07-14T07:50:13Z</time>
      </trkpt>
      <trkpt lat="45.20023" lon="5.95106">
        <ele>1088</ele>
        <time>2026-07-14T07:50:14Z</time>
      </trkpt>
      <trkpt lat="45.20023" lon="5.95106">
        <ele>1088.1</ele>
        <time>2026-07-14T07:50:15Z</time>
      </trkpt>
      <trkpt lat="45.20023" lon="5.95106">
        <ele>1088.1</ele>
        <time>2026-07-14T07:50:16Z</time>
      </trkpt>
      <trkpt lat="45.20023" lon="5.95105">
        <ele>1088.2</ele>
        <time>2026-07-14T07:50:17Z</time>
      </trkpt>
      <trkpt lat="45.20023" lon="5.95105">
        <ele>1088.2</ele>
        <time>2026-07-14T07:50:18Z</time>
      </trkpt>
      <trkpt lat="45.20023" lon="5.95105">
        <ele>1088.3</ele>
        <time>2026-07-14T07:50:19Z</time>
      </trkpt>
      <trkpt lat="45.20023" lon="5.95104">
        <ele>1088.4</ele>
        <time>2026-07-14T07:50:21Z</time>
      </trkpt>
      <trkpt lat="45.20023" lon="5.95104">
        <ele>1088.6</ele>
        <time>2026-07-14T07:50:22Z</time>
      </trkpt>
      <trkpt lat="45.20023" lon="5.95103">
        <ele>1088.7</ele>
        <time>2026-07-14T07:50:23Z</time>
      </trkpt>
      <trkpt lat="45.20023" lon="5.95103">
        <ele>1088.9</ele>
        <time>2026-07-14T07:50:24Z</time>
      </trkpt>
      <trkpt lat="45.20023" lon="5.95103">
        <ele>1088.9</ele>
        <time>2026-07-14T07:50:25Z</time>
      </trkpt>
      <trkpt lat="45.20023" lon="5.95103">
        <ele>1089</ele>
        <time>2026-07-14T07:50:26Z</time>
      </trkpt>
      <trkpt lat="45.20023" lon="5.95103">
        <ele>1089.1</ele>
        <time>2026-07-14T07:50:27Z</time>
      </trkpt>
      <trkpt lat="45.20023" lon="5.95103">
        <ele>1089.1</ele>
        <time>2026-07-14T07:50:28Z</time>
      </trkpt>
      <trkpt lat="45.20023" lon="5.95102">
        <ele>1089.2</ele>
        <time>2026-07-14T07:50:29Z</time>
      </trkpt>
      <trkpt lat="45.20022" lon="5.95102">
        <ele>1089.3</ele>
        <time>2026-07-14T07:50:30Z</time>
      </trkpt>
      <trkpt lat="45.20022" lon="5.95102">
        <ele>1089.5</ele>
        <time>2026-07-14T07:50:31Z</time>
      </trkpt>
      <trkpt lat="45.20022" lon="5.95101">
        <ele>1089.6</ele>
        <time>2026-07-14T07:50:32Z</time>
      </trkpt>
      <trkpt lat="45.20022" lon="5.95101">
        <ele>1089.7</ele>
        <time>2026-07-14T07:50:33Z</time>
      </trkpt>
      <trkpt lat="45.20022" lon="5.95101">
        <ele>1089.8</ele>
        <time>2026-07-14T07:50:34Z</time>
      </trkpt>
      <trkpt lat="45.20022" lon="5.95101">
        <ele>1089.8</ele>
        <time>2026-07-14T07:50:35Z</time>
      </trkpt>
      <trkpt lat="45.20021" lon="5.951">
        <ele>1090</ele>
        <time>2026-07-14T07:50:36Z</time>
      </trkpt>
      <trkpt lat="45.20021" lon="5.951">
        <ele>1090.2</ele>
        <time>2026-07-14T07:50:38Z</time>
      </trkpt>
      <trkpt lat="45.20021" lon="5.95099">
        <ele>1090.4</ele>
        <time>2026-07-14T07:50:39Z</time>
      </trkpt>
      <trkpt lat="45.2002" lon="5.95099">
        <ele>1090.5</ele>
        <time>2026-07-14T07:50:40Z</time>
      </trkpt>
      <trkpt lat="45.2002" lon="5.95098">
        <ele>1090.6</ele>
        <time>2026-07-14T07:50:41Z</time>
      </trkpt>
      <trkpt lat="45.2002" lon="5.95097">
        <ele>1090.9</ele>
        <time>2026-07-14T07:50:42Z</time>
      </trkpt>
      <trkpt lat="45.2002" lon="5.95097">
        <ele>1091</ele>
        <time>2026-07-14T07:50:43Z</time>
      </trkpt>
      <trkpt lat="45.2002" lon="5.95096">
        <ele>1091.3</ele>
        <time>2026-07-14T07:50:45Z</time>
      </trkpt>
      <trkpt lat="45.2002" lon="5.95095">
        <ele>1091.5</ele>
        <time>2026-07-14T07:50:46Z</time>
      </trkpt>
      <trkpt lat="45.2002" lon="5.95095">
        <ele>1091.6</ele>
        <time>2026-07-14T07:50:47Z</time>
      </trkpt>
      <trkpt lat="45.2002" lon="5.95094">
        <ele>1091.7</ele>
        <time>2026-07-14T07:50:48Z</time>
      </trkpt>
      <trkpt lat="45.2002" lon="5.95094">
        <ele>1091.9</ele>
        <time>2026-07-14T07:50:49Z</time>
      </trkpt>
      <trkpt lat="45.20021" lon="5.95093">
        <ele>1092.1</ele>
        <time>2026-07-14T07:50:50Z</time>
      </trkpt>
      <trkpt lat="45.20021" lon="5.95093">
        <ele>1092.2</ele>
        <time>2026-07-14T07:50:51Z</time>
      </trkpt>
      <trkpt lat="45.20021" lon="5.95093">
        <ele>1092.4</ele>
        <time>2026-07-14T07:50:52Z</time>
      </trkpt>
      <trkpt lat="45.20021" lon="5.95092">
        <ele>1092.5</ele>
        <time>2026-07-14T07:50:53Z</time>
      </trkpt>
      <trkpt lat="45.20021" lon="5.95091">
        <ele>1092.7</ele>
        <time>2026-07-14T07:50:55Z</time>
      </trkpt>
      <trkpt lat="45.20021" lon="5.95091">
        <ele>1092.8</ele>
        <time>2026-07-14T07:50:56Z</time>
      </trkpt>
      <trkpt lat="45.20021" lon="5.95091">
        <ele>1092.9</ele>
        <time>2026-07-14T07:50:57Z</time>
      </trkpt>
      <trkpt lat="45.20021" lon="5.9509">
        <ele>1093</ele>
        <time>2026-07-14T07:50:58Z</time>
      </trkpt>
      <trkpt lat="45.20021" lon="5.9509">
        <ele>1093.1</ele>
        <time>2026-07-14T07:50:59Z</time>
      </trkpt>
      <trkpt lat="45.20021" lon="5.9509">
        <ele>1093.2</ele>
        <time>2026-07-14T07:51:00Z</time>
      </trkpt>
      <trkpt lat="45.20021" lon="5.9509">
        <ele>1093.3</ele>
        <time>2026-07-14T07:51:01Z</time>
      </trkpt>
      <trkpt lat="45.2002" lon="5.95089">
        <ele>1093.4</ele>
        <time>2026-07-14T07:51:02Z</time>
      </trkpt>
      <trkpt lat="45.2002" lon="5.95089">
        <ele>1093.5</ele>
        <time>2026-07-14T07:51:04Z</time>
      </trkpt>
      <trkpt lat="45.2002" lon="5.95088">
        <ele>1093.7</ele>
        <time>2026-07-14T07:51:05Z</time>
      </trkpt>
      <trkpt lat="45.2002" lon="5.95088">
        <ele>1093.8</ele>
        <time>2026-07-14T07:51:06Z</time>
      </trkpt>
      <trkpt lat="45.2002" lon="5.95087">
        <ele>1094</ele>
        <time>2026-07-14T07:51:07Z</time>
      </trkpt>
      <trkpt lat="45.20021" lon="5.95087">
        <ele>1094.2</ele>
        <time>2026-07-14T07:51:08Z</time>
      </trkpt>
      <trkpt lat="45.20022" lon="5.95087">
        <ele>1094.6</ele>
        <time>2026-07-14T07:51:10Z</time>
      </trkpt>
      <trkpt lat="45.20023" lon="5.95086">
        <ele>1094.8</ele>
        <time>2026-07-14T07:51:11Z</time>
      </trkpt>
      <trkpt lat="45.20023" lon="5.95086">
        <ele>1094.9</ele>
        <time>2026-07-14T07:51:12Z</time>
      </trkpt>
      <trkpt lat="45.20023" lon="5.95086">
        <ele>1095</ele>
        <time>2026-07-14T07:51:13Z</time>
      </trkpt>
      <trkpt lat="45.20023" lon="5.95086">
        <ele>1095.1</ele>
        <time>2026-07-14T07:51:14Z</time>
      </trkpt>
      <trkpt lat="45.20023" lon="5.95086">
        <ele>1095.1</ele>
        <time>2026-07-14T07:51:15Z</time>
      </trkpt>
      <trkpt lat="45.20023" lon="5.95086">
        <ele>1095.2</ele>
        <time>2026-07-14T07:51:16Z</time>
      </trkpt>
      <trkpt lat="45.20023" lon="5.95085">
        <ele>1095.4</ele>
        <time>2026-07-14T07:51:17Z</time>
      </trkpt>
      <trkpt lat="45.20022" lon="5.95085">
        <ele>1095.6</ele>
        <time>2026-07-14T07:51:18Z</time>
      </trkpt>
      <trkpt lat="45.20022" lon="5.95084">
        <ele>1095.8</ele>
        <time>2026-07-14T07:51:19Z</time>
      </trkpt>
      <trkpt lat="45.20021" lon="5.95083">
        <ele>1096.1</ele>
        <time>2026-07-14T07:51:20Z</time>
      </trkpt>
      <trkpt lat="45.20021" lon="5.95083">
        <ele>1096.3</ele>
        <time>2026-07-14T07:51:21Z</time>
      </trkpt>
      <trkpt lat="45.2002" lon="5.95082">
        <ele>1096.5</ele>
        <time>2026-07-14T07:51:22Z</time>
      </trkpt>
      <trkpt lat="45.2002" lon="5.95082">
        <ele>1096.8</ele>
        <time>2026-07-14T07:51:23Z</time>
      </trkpt>
      <trkpt lat="45.20019" lon="5.95081">
        <ele>1096.9</ele>
        <time>2026-07-14T07:51:24Z</time>
      </trkpt>
      <trkpt lat="45.20019" lon="5.95081">
        <ele>1097.1</ele>
        <time>2026-07-14T07:51:25Z</time>
      </trkpt>
      <trkpt lat="45.20019" lon="5.9508">
        <ele>1097.2</ele>
        <time>2026-07-14T07:51:26Z</time>
      </trkpt>
      <trkpt lat="45.20019" lon="5.9508">
        <ele>1097.3</ele>
        <time>2026-07-14T07:51:27Z</time>
      </trkpt>
      <trkpt lat="45.20019" lon="5.9508">
        <ele>1097.3</ele>
        <time>2026-07-14T07:51:28Z</time>
      </trkpt>
      <trkpt lat="45.20019" lon="5.95079">
        <ele>1097.5</ele>
        <time>2026-07-14T07:51:29Z</time>
      </trkpt>
      <trkpt lat="45.2002" lon="5.95078">
        <ele>1097.7</ele>
        <time>2026-07-14T07:51:30Z</time>
      </trkpt>
      <trkpt lat="45.2002" lon="5.95078">
        <ele>1097.8</ele>
        <time>2026-07-14T07:51:31Z</time>
      </trkpt>
      <trkpt lat="45.2002" lon="5.95078">
        <ele>1097.9</ele>
        <time>2026-07-14T07:51:32Z</time>
      </trkpt>
      <trkpt lat="45.2002" lon="5.95077">
        <ele>1098</ele>
        <time>2026-07-14T07:51:33Z</time>
      </trkpt>
      <trkpt lat="45.20019" lon="5.95076">
        <ele>1098.2</ele>
        <time>2026-07-14T07:51:35Z</time>
      </trkpt>
      <trkpt lat="45.20019" lon="5.95076">
        <ele>1098.3</ele>
        <time>2026-07-14T07:51:36Z</time>
      </trkpt>
      <trkpt lat="45.20019" lon="5.95075">
        <ele>1098.6</ele>
        <time>2026-07-14T07:51:37Z</time>
      </trkpt>
      <trkpt lat="45.20018" lon="5.95074">
        <ele>1098.9</ele>
        <time>2026-07-14T07:51:38Z</time>
      </trkpt>
      <trkpt lat="45.20017" lon="5.95074">
        <ele>1099.1</ele>
        <time>2026-07-14T07:51:39Z</time>
      </trkpt>
      <trkpt lat="45.20017" lon="5.95073">
        <ele>1099.3</ele>
        <time>2026-07-14T07:51:40Z</time>
      </trkpt>
      <trkpt lat="45.20017" lon="5.95073">
        <ele>1099.4</ele>
        <time>2026-07-14T07:51:41Z</time>
      </trkpt>
      <trkpt lat="45.20016" lon="5.95073">
        <ele>1099.5</ele>
        <time>2026-07-14T07:51:42Z</time>
      </trkpt>
      <trkpt lat="45.20016" lon="5.95072">
        <ele>1099.6</ele>
        <time>2026-07-14T07:51:43Z</time>
      </trkpt>
      <trkpt lat="45.20016" lon="5.95072">
        <ele>1099.8</ele>
        <time>2026-07-14T07:51:44Z</time>
      </trkpt>
      <trkpt lat="45.20016" lon="5.95071">
        <ele>1099.9</ele>
        <time>2026-07-14T07:51:45Z</time>
      </trkpt>
      <trkpt lat="45.20016" lon="5.95071">
        <ele>1100</ele>
        <time>2026-07-14T07:51:46Z</time>
      </trkpt>
      <trkpt lat="45.20017" lon="5.9507">
        <ele>1100.1</ele>
        <time>2026-07-14T07:51:47Z</time>
      </trkpt>
      <trkpt lat="45.20017" lon="5.9507">
        <ele>1100.4</ele>
        <time>2026-07-14T07:51:48Z</time>
      </trkpt>
      <trkpt lat="45.20018" lon="5.9507">
        <ele>1100.5</ele>
        <time>2026-07-14T07:51:49Z</time>
      </trkpt>
      <trkpt lat="45.20018" lon="5.9507">
        <ele>1100.6</ele>
        <time>2026-07-14T07:51:51Z</time>
      </trkpt>
      <trkpt lat="45.20018" lon="5.9507">
        <ele>1100.6</ele>
        <time>2026-07-14T07:51:52Z</time>
      </trkpt>
      <trkpt lat="45.20017" lon="5.9507">
        <ele>1100.7</ele>
        <time>2026-07-14T07:51:53Z</time>
      </trkpt>
      <trkpt lat="45.20017" lon="5.95069">
        <ele>1100.9</ele>
        <time>2026-07-14T07:51:54Z</time>
      </trkpt>
      <trkpt lat="45.20017" lon="5.95069">
        <ele>1101</ele>
        <time>2026-07-14T07:51:55Z</time>
      </trkpt>
      <trkpt lat="45.20016" lon="5.95068">
        <ele>1101.2</ele>
        <time>2026-07-14T07:51:57Z</time>
      </trkpt>
      <trkpt lat="45.20016" lon="5.95068">
        <ele>1101.3</ele>
        <time>2026-07-14T07:51:58Z</time>
      </trkpt>
      <trkpt lat="45.20015" lon="5.95067">
        <ele>1101.7</ele>
        <time>2026-07-14T07:51:59Z</time>
      </trkpt>
      <trkpt lat="45.20015" lon="5.95067">
        <ele>1101.8</ele>
        <time>2026-07-14T07:52:00Z</time>
      </trkpt>
      <trkpt lat="45.20014" lon="5.95067">
        <ele>1101.8</ele>
        <time>2026-07-14T07:52:01Z</time>
      </trkpt>
      <trkpt lat="45.20014" lon="5.95067">
        <ele>1102</ele>
        <time>2026-07-14T07:52:02Z</time>
      </trkpt>
      <trkpt lat="45.20014" lon="5.95066">
        <ele>1102.1</ele>
        <time>2026-07-14T07:52:03Z</time>
      </trkpt>
      <trkpt lat="45.20014" lon="5.95066">
        <ele>1102.1</ele>
        <time>2026-07-14T07:52:04Z</time>
      </trkpt>
      <trkpt lat="45.20013" lon="5.95066">
        <ele>1102.2</ele>
        <time>2026-07-14T07:52:05Z</time>
      </trkpt>
      <trkpt lat="45.20012" lon="5.95067">
        <ele>1102.6</ele>
        <time>2026-07-14T07:52:07Z</time>
      </trkpt>
      <trkpt lat="45.20011" lon="5.95067">
        <ele>1102.8</ele>
        <time>2026-07-14T07:52:08Z</time>
      </trkpt>
      <trkpt lat="45.20011" lon="5.95068">
        <ele>1103</ele>
        <time>2026-07-14T07:52:09Z</time>
      </trkpt>
      <trkpt lat="45.2001" lon="5.95068">
        <ele>1103.2</ele>
        <time>2026-07-14T07:52:10Z</time>
      </trkpt>
      <trkpt lat="45.2001" lon="5.95068">
        <ele>1103.4</ele>
        <time>2026-07-14T07:52:11Z</time>
      </trkpt>
      <trkpt lat="45.20009" lon="5.95068">
        <ele>1103.5</ele>
        <time>2026-07-14T07:52:12Z</time>
      </trkpt>
      <trkpt lat="45.20009" lon="5.95068">
        <ele>1103.7</ele>
        <time>2026-07-14T07:52:13Z</time>
      </trkpt>
      <trkpt lat="45.20008" lon="5.95068">
        <ele>1103.8</ele>
        <time>2026-07-14T07:52:14Z</time>
      </trkpt>
      <trkpt lat="45.20008" lon="5.95068">
        <ele>1104</ele>
        <time>2026-07-14T07:52:16Z</time>
      </trkpt>
      <trkpt lat="45.20007" lon="5.95068">
        <ele>1104.1</ele>
        <time>2026-07-14T07:52:17Z</time>
      </trkpt>
      <trkpt lat="45.20007" lon="5.95068">
        <ele>1104.2</ele>
        <time>2026-07-14T07:52:18Z</time>
      </trkpt>
      <trkpt lat="45.20007" lon="5.95068">
        <ele>1104.3</ele>
        <time>2026-07-14T07:52:19Z</time>
      </trkpt>
      <trkpt lat="45.20006" lon="5.95069">
        <ele>1104.4</ele>
        <time>2026-07-14T07:52:20Z</time>
      </trkpt>
      <trkpt lat="45.20006" lon="5.95069">
        <ele>1104.6</ele>
        <time>2026-07-14T07:52:21Z</time>
      </trkpt>
      <trkpt lat="45.20006" lon="5.95069">
        <ele>1104.7</ele>
        <time>2026-07-14T07:52:23Z</time>
      </trkpt>
      <trkpt lat="45.20005" lon="5.9507">
        <ele>1104.9</ele>
        <time>2026-07-14T07:52:24Z</time>
      </trkpt>
      <trkpt lat="45.20005" lon="5.9507">
        <ele>1105</ele>
        <time>2026-07-14T07:52:25Z</time>
      </trkpt>
      <trkpt lat="45.20004" lon="5.95071">
        <ele>1105.2</ele>
        <time>2026-07-14T07:52:26Z</time>
      </trkpt>
      <trkpt lat="45.20004" lon="5.95072">
        <ele>1105.4</ele>
        <time>2026-07-14T07:52:27Z</time>
      </trkpt>
      <trkpt lat="45.20004" lon="5.95072">
        <ele>1105.5</ele>
        <time>2026-07-14T07:52:28Z</time>
      </trkpt>
      <trkpt lat="45.20004" lon="5.95073">
        <ele>1105.7</ele>
        <time>2026-07-14T07:52:29Z</time>
      </trkpt>
      <trkpt lat="45.20003" lon="5.95074">
        <ele>1105.9</ele>
        <time>2026-07-14T07:52:30Z</time>
      </trkpt>
      <trkpt lat="45.20003" lon="5.95074">
        <ele>1106</ele>
        <time>2026-07-14T07:52:31Z</time>
      </trkpt>
      <trkpt lat="45.20003" lon="5.95075">
        <ele>1106.1</ele>
        <time>2026-07-14T07:52:32Z</time>
      </trkpt>
      <trkpt lat="45.20003" lon="5.95076">
        <ele>1106.3</ele>
        <time>2026-07-14T07:52:33Z</time>
      </trkpt>
      <trkpt lat="45.20003" lon="5.95076">
        <ele>1106.4</ele>
        <time>2026-07-14T07:52:34Z</time>
      </trkpt>
      <trkpt lat="45.20002" lon="5.95077">
        <ele>1106.5</ele>
        <time>2026-07-14T07:52:36Z</time>
      </trkpt>
      <trkpt lat="45.20002" lon="5.95077">
        <ele>1106.6</ele>
        <time>2026-07-14T07:52:37Z</time>
      </trkpt>
      <trkpt lat="45.20002" lon="5.95077">
        <ele>1106.6</ele>
        <time>2026-07-14T07:52:38Z</time>
      </trkpt>
      <trkpt lat="45.20003" lon="5.95078">
        <ele>1106.7</ele>
        <time>2026-07-14T07:52:39Z</time>
      </trkpt>
      <trkpt lat="45.20003" lon="5.95078">
        <ele>1106.8</ele>
        <time>2026-07-14T07:52:40Z</time>
      </trkpt>
      <trkpt lat="45.20003" lon="5.95078">
        <ele>1106.9</ele>
        <time>2026-07-14T07:52:41Z</time>
      </trkpt>
      <trkpt lat="45.20003" lon="5.95079">
        <ele>1107</ele>
        <time>2026-07-14T07:52:42Z</time>
      </trkpt>
      <trkpt lat="45.20003" lon="5.95079">
        <ele>1107.1</ele>
        <time>2026-07-14T07:52:43Z</time>
      </trkpt>
      <trkpt lat="45.20004" lon="5.9508">
        <ele>1107.2</ele>
        <time>2026-07-14T07:52:44Z</time>
      </trkpt>
      <trkpt lat="45.20004" lon="5.9508">
        <ele>1107.3</ele>
        <time>2026-07-14T07:52:45Z</time>
      </trkpt>
      <trkpt lat="45.20003" lon="5.95081">
        <ele>1107.4</ele>
        <time>2026-07-14T07:52:46Z</time>
      </trkpt>
      <trkpt lat="45.20003" lon="5.95081">
        <ele>1107.5</ele>
        <time>2026-07-14T07:52:47Z</time>
      </trkpt>
      <trkpt lat="45.20003" lon="5.95082">
        <ele>1107.7</ele>
        <time>2026-07-14T07:52:48Z</time>
      </trkpt>
      <trkpt lat="45.20002" lon="5.95083">
        <ele>1107.9</ele>
        <time>2026-07-14T07:52:49Z</time>
      </trkpt>
      <trkpt lat="45.20002" lon="5.95083">
        <ele>1108.1</ele>
        <time>2026-07-14T07:52:50Z</time>
      </trkpt>
      <trkpt lat="45.20001" lon="5.95084">
        <ele>1108.3</ele>
        <time>2026-07-14T07:52:51Z</time>
      </trkpt>
      <trkpt lat="45.2" lon="5.95084">
        <ele>1108.5</ele>
        <time>2026-07-14T07:52:52Z</time>
      </trkpt>
      <trkpt lat="45.2" lon="5.95084">
        <ele>1108.6</ele>
        <time>2026-07-14T07:52:53Z</time>
      </trkpt>
      <trkpt lat="45.19999" lon="5.95084">
        <ele>1108.8</ele>
        <time>2026-07-14T07:52:54Z</time>
      </trkpt>
      <trkpt lat="45.19999" lon="5.95085">
        <ele>1109</ele>
        <time>2026-07-14T07:52:55Z</time>
      </trkpt>
      <trkpt lat="45.19998" lon="5.95085">
        <ele>1109.1</ele>
        <time>2026-07-14T07:52:56Z</time>
      </trkpt>
      <trkpt lat="45.19997" lon="5.95086">
        <ele>1109.3</ele>
        <time>2026-07-14T07:52:57Z</time>
      </trkpt>
      <trkpt lat="45.19997" lon="5.95086">
        <ele>1109.5</ele>
        <time>2026-07-14T07:52:58Z</time>
      </trkpt>
      <trkpt lat="45.19996" lon="5.95087">
        <ele>1109.7</ele>
        <time>2026-07-14T07:52:59Z</time>
      </trkpt>
      <trkpt lat="45.19995" lon="5.95087">
        <ele>1110</ele>
        <time>2026-07-14T07:53:01Z</time>
      </trkpt>
      <trkpt lat="45.19994" lon="5.95088">
        <ele>1110.2</ele>
        <time>2026-07-14T07:53:03Z</time>
      </trkpt>
      <trkpt lat="45.19994" lon="5.95088">
        <ele>1110.3</ele>
        <time>2026-07-14T07:53:04Z</time>
      </trkpt>
      <trkpt lat="45.19993" lon="5.95088">
        <ele>1110.4</ele>
        <time>2026-07-14T07:53:05Z</time>
      </trkpt>
      <trkpt lat="45.19993" lon="5.95089">
        <ele>1110.5</ele>
        <time>2026-07-14T07:53:06Z</time>
      </trkpt>
      <trkpt lat="45.19993" lon="5.95089">
        <ele>1110.6</ele>
        <time>2026-07-14T07:53:07Z</time>
      </trkpt>
      <trkpt lat="45.19992" lon="5.9509">
        <ele>1110.7</ele>
        <time>2026-07-14T07:53:08Z</time>
      </trkpt>
      <trkpt lat="45.19992" lon="5.9509">
        <ele>1110.9</ele>
        <time>2026-07-14T07:53:09Z</time>
      </trkpt>
      <trkpt lat="45.19991" lon="5.95091">
        <ele>1111.1</ele>
        <time>2026-07-14T07:53:11Z</time>
      </trkpt>
      <trkpt lat="45.19991" lon="5.95091">
        <ele>1111.1</ele>
        <time>2026-07-14T07:53:12Z</time>
      </trkpt>
      <trkpt lat="45.19991" lon="5.95091">
        <ele>1111.2</ele>
        <time>2026-07-14T07:53:13Z</time>
      </trkpt>
      <trkpt lat="45.19991" lon="5.95092">
        <ele>1111.3</ele>
        <time>2026-07-14T07:53:14Z</time>
      </trkpt>
      <trkpt lat="45.1999" lon="5.95092">
        <ele>1111.4</ele>
        <time>2026-07-14T07:53:15Z</time>
      </trkpt>
      <trkpt lat="45.1999" lon="5.95092">
        <ele>1111.6</ele>
        <time>2026-07-14T07:53:16Z</time>
      </trkpt>
      <trkpt lat="45.1999" lon="5.95093">
        <ele>1111.6</ele>
        <time>2026-07-14T07:53:17Z</time>
      </trkpt>
      <trkpt lat="45.19989" lon="5.95093">
        <ele>1111.7</ele>
        <time>2026-07-14T07:53:18Z</time>
      </trkpt>
      <trkpt lat="45.19989" lon="5.95093">
        <ele>1111.8</ele>
        <time>2026-07-14T07:53:19Z</time>
      </trkpt>
      <trkpt lat="45.19989" lon="5.95094">
        <ele>1111.9</ele>
        <time>2026-07-14T07:53:20Z</time>
      </trkpt>
      <trkpt lat="45.19989" lon="5.95094">
        <ele>1111.9</ele>
        <time>2026-07-14T07:53:21Z</time>
      </trkpt>
      <trkpt lat="45.19989" lon="5.95094">
        <ele>1112</ele>
        <time>2026-07-14T07:53:22Z</time>
      </trkpt>
      <trkpt lat="45.19989" lon="5.95094">
        <ele>1112</ele>
        <time>2026-07-14T07:53:23Z</time>
      </trkpt>
      <trkpt lat="45.19988" lon="5.95095">
        <ele>1112.2</ele>
        <time>2026-07-14T07:53:24Z</time>
      </trkpt>
      <trkpt lat="45.19988" lon="5.95095">
        <ele>1112.3</ele>
        <time>2026-07-14T07:53:25Z</time>
      </trkpt>
      <trkpt lat="45.19987" lon="5.95095">
        <ele>1112.3</ele>
        <time>2026-07-14T07:53:27Z</time>
      </trkpt>
      <trkpt lat="45.19987" lon="5.95095">
        <ele>1112.4</ele>
        <time>2026-07-14T07:53:28Z</time>
      </trkpt>
      <trkpt lat="45.19987" lon="5.95095">
        <ele>1112.4</ele>
        <time>2026-07-14T07:53:29Z</time>
      </trkpt>
      <trkpt lat="45.19987" lon="5.95095">
        <ele>1112.5</ele>
        <time>2026-07-14T07:53:30Z</time>
      </trkpt>
      <trkpt lat="45.19987" lon="5.95096">
        <ele>1112.6</ele>
        <time>2026-07-14T07:53:31Z</time>
      </trkpt>
      <trkpt lat="45.19987" lon="5.95096">
        <ele>1112.7</ele>
        <time>2026-07-14T07:53:32Z</time>
      </trkpt>
      <trkpt lat="45.19987" lon="5.95096">
        <ele>1112.8</ele>
        <time>2026-07-14T07:53:33Z</time>
      </trkpt>
      <trkpt lat="45.19987" lon="5.95097">
        <ele>1112.9</ele>
        <time>2026-07-14T07:53:34Z</time>
      </trkpt>
      <trkpt lat="45.19987" lon="5.95098">
        <ele>1113</ele>
        <time>2026-07-14T07:53:35Z</time>
      </trkpt>
      <trkpt lat="45.19987" lon="5.95098">
        <ele>1113.1</ele>
        <time>2026-07-14T07:53:36Z</time>
      </trkpt>
      <trkpt lat="45.19987" lon="5.95099">
        <ele>1113.2</ele>
        <time>2026-07-14T07:53:37Z</time>
      </trkpt>
      <trkpt lat="45.19987" lon="5.951">
        <ele>1113.4</ele>
        <time>2026-07-14T07:53:38Z</time>
      </trkpt>
      <trkpt lat="45.19986" lon="5.951">
        <ele>1113.5</ele>
        <time>2026-07-14T07:53:39Z</time>
      </trkpt>
      <trkpt lat="45.19986" lon="5.95101">
        <ele>1113.6</ele>
        <time>2026-07-14T07:53:40Z</time>
      </trkpt>
      <trkpt lat="45.19986" lon="5.95102">
        <ele>1113.8</ele>
        <time>2026-07-14T07:53:41Z</time>
      </trkpt>
      <trkpt lat="45.19986" lon="5.95102">
        <ele>1113.9</ele>
        <time>2026-07-14T07:53:42Z</time>
      </trkpt>
      <trkpt lat="45.19985" lon="5.95103">
        <ele>1114</ele>
        <time>2026-07-14T07:53:43Z</time>
      </trkpt>
      <trkpt lat="45.19985" lon="5.95103">
        <ele>1114.1</ele>
        <time>2026-07-14T07:53:44Z</time>
      </trkpt>
      <trkpt lat="45.19985" lon="5.95103">
        <ele>1114.2</ele>
        <time>2026-07-14T07:53:45Z</time>
      </trkpt>
      <trkpt lat="45.19984" lon="5.95104">
        <ele>1114.3</ele>
        <time>2026-07-14T07:53:46Z</time>
      </trkpt>
      <trkpt lat="45.19984" lon="5.95104">
        <ele>1114.5</ele>
        <time>2026-07-14T07:53:47Z</time>
      </trkpt>
      <trkpt lat="45.19983" lon="5.95105">
        <ele>1114.6</ele>
        <time>2026-07-14T07:53:48Z</time>
      </trkpt>
      <trkpt lat="45.19983" lon="5.95106">
        <ele>1114.8</ele>
        <time>2026-07-14T07:53:49Z</time>
      </trkpt>
      <trkpt lat="45.19983" lon="5.95106">
        <ele>1114.9</ele>
        <time>2026-07-14T07:53:50Z</time>
      </trkpt>
      <trkpt lat="45.19982" lon="5.95106">
        <ele>1115.1</ele>
        <time>2026-07-14T07:53:51Z</time>
      </trkpt>
      <trkpt lat="45.19981" lon="5.95107">
        <ele>1115.3</ele>
        <time>2026-07-14T07:53:52Z</time>
      </trkpt>
      <trkpt lat="45.19981" lon="5.95108">
        <ele>1115.4</ele>
        <time>2026-07-14T07:53:53Z</time>
      </trkpt>
      <trkpt lat="45.19981" lon="5.95109">
        <ele>1115.6</ele>
        <time>2026-07-14T07:53:54Z</time>
      </trkpt>
      <trkpt lat="45.19981" lon="5.95109">
        <ele>1115.8</ele>
        <time>2026-07-14T07:53:55Z</time>
      </trkpt>
      <trkpt lat="45.19981" lon="5.9511">
        <ele>1115.9</ele>
        <time>2026-07-14T07:53:56Z</time>
      </trkpt>
      <trkpt lat="45.1998" lon="5.95111">
        <ele>1116.1</ele>
        <time>2026-07-14T07:53:57Z</time>
      </trkpt>
      <trkpt lat="45.1998" lon="5.95111">
        <ele>1116.1</ele>
        <time>2026-07-14T07:53:59Z</time>
      </trkpt>
      <trkpt lat="45.1998" lon="5.95112">
        <ele>1116.3</ele>
        <time>2026-07-14T07:54:00Z</time>
      </trkpt>
      <trkpt lat="45.1998" lon="5.95113">
        <ele>1116.4</ele>
        <time>2026-07-14T07:54:01Z</time>
      </trkpt>
      <trkpt lat="45.19979" lon="5.95113">
        <ele>1116.6</ele>
        <time>2026-07-14T07:54:02Z</time>
      </trkpt>
      <trkpt lat="45.19979" lon="5.95113">
        <ele>1116.7</ele>
        <time>2026-07-14T07:54:03Z</time>
      </trkpt>
      <trkpt lat="45.19978" lon="5.95113">
        <ele>1116.8</ele>
        <time>2026-07-14T07:54:04Z</time>
      </trkpt>
      <trkpt lat="45.19978" lon="5.95113">
        <ele>1117</ele>
        <time>2026-07-14T07:54:06Z</time>
      </trkpt>
      <trkpt lat="45.19977" lon="5.95114">
        <ele>1117.1</ele>
        <time>2026-07-14T07:54:07Z</time>
      </trkpt>
      <trkpt lat="45.19976" lon="5.95114">
        <ele>1117.4</ele>
        <time>2026-07-14T07:54:08Z</time>
      </trkpt>
      <trkpt lat="45.19975" lon="5.95114">
        <ele>1117.6</ele>
        <time>2026-07-14T07:54:09Z</time>
      </trkpt>
      <trkpt lat="45.19975" lon="5.95114">
        <ele>1117.9</ele>
        <time>2026-07-14T07:54:10Z</time>
      </trkpt>
      <trkpt lat="45.19974" lon="5.95114">
        <ele>1118</ele>
        <time>2026-07-14T07:54:11Z</time>
      </trkpt>
      <trkpt lat="45.19974" lon="5.95114">
        <ele>1118.1</ele>
        <time>2026-07-14T07:54:12Z</time>
      </trkpt>
      <trkpt lat="45.19973" lon="5.95115">
        <ele>1118.2</ele>
        <time>2026-07-14T07:54:13Z</time>
      </trkpt>
      <trkpt lat="45.19973" lon="5.95114">
        <ele>1118.3</ele>
        <time>2026-07-14T07:54:15Z</time>
      </trkpt>
      <trkpt lat="45.19973" lon="5.95114">
        <ele>1118.5</ele>
        <time>2026-07-14T07:54:17Z</time>
      </trkpt>
      <trkpt lat="45.19972" lon="5.95115">
        <ele>1118.6</ele>
        <time>2026-07-14T07:54:18Z</time>
      </trkpt>
      <trkpt lat="45.19972" lon="5.95115">
        <ele>1118.6</ele>
        <time>2026-07-14T07:54:19Z</time>
      </trkpt>
      <trkpt lat="45.19972" lon="5.95115">
        <ele>1118.7</ele>
        <time>2026-07-14T07:54:20Z</time>
      </trkpt>
      <trkpt lat="45.19973" lon="5.95116">
        <ele>1118.8</ele>
        <time>2026-07-14T07:54:21Z</time>
      </trkpt>
      <trkpt lat="45.19973" lon="5.95116">
        <ele>1118.8</ele>
        <time>2026-07-14T07:54:22Z</time>
      </trkpt>
      <trkpt lat="45.19973" lon="5.95116">
        <ele>1118.9</ele>
        <time>2026-07-14T07:54:23Z</time>
      </trkpt>
      <trkpt lat="45.19973" lon="5.95116">
        <ele>1119</ele>
        <time>2026-07-14T07:54:24Z</time>
      </trkpt>
      <trkpt lat="45.19973" lon="5.95117">
        <ele>1119.1</ele>
        <time>2026-07-14T07:54:25Z</time>
      </trkpt>
      <trkpt lat="45.19973" lon="5.95117">
        <ele>1119.2</ele>
        <time>2026-07-14T07:54:26Z</time>
      </trkpt>
      <trkpt lat="45.19973" lon="5.95118">
        <ele>1119.3</ele>
        <time>2026-07-14T07:54:27Z</time>
      </trkpt>
      <trkpt lat="45.19973" lon="5.95119">
        <ele>1119.5</ele>
        <time>2026-07-14T07:54:28Z</time>
      </trkpt>
      <trkpt lat="45.19973" lon="5.9512">
        <ele>1119.7</ele>
        <time>2026-07-14T07:54:29Z</time>
      </trkpt>
      <trkpt lat="45.19973" lon="5.9512">
        <ele>1119.8</ele>
        <time>2026-07-14T07:54:30Z</time>
      </trkpt>
      <trkpt lat="45.19974" lon="5.95121">
        <ele>1120</ele>
        <time>2026-07-14T07:54:31Z</time>
      </trkpt>
      <trkpt lat="45.19974" lon="5.95122">
        <ele>1120.1</ele>
        <time>2026-07-14T07:54:32Z</time>
      </trkpt>
      <trkpt lat="45.19974" lon="5.95123">
        <ele>1120.3</ele>
        <time>2026-07-14T07:54:33Z</time>
      </trkpt>
      <trkpt lat="45.19974" lon="5.95123">
        <ele>1120.4</ele>
        <time>2026-07-14T07:54:34Z</time>
      </trkpt>
      <trkpt lat="45.19974" lon="5.95124">
        <ele>1120.6</ele>
        <time>2026-07-14T07:54:35Z</time>
      </trkpt>
      <trkpt lat="45.19974" lon="5.95124">
        <ele>1120.7</ele>
        <time>2026-07-14T07:54:36Z</time>
      </trkpt>
      <trkpt lat="45.19973" lon="5.95125">
        <ele>1120.8</ele>
        <time>2026-07-14T07:54:37Z</time>
      </trkpt>
      <trkpt lat="45.19974" lon="5.95125">
        <ele>1120.9</ele>
        <time>2026-07-14T07:54:38Z</time>
      </trkpt>
      <trkpt lat="45.19974" lon="5.95126">
        <ele>1121</ele>
        <time>2026-07-14T07:54:39Z</time>
      </trkpt>
      <trkpt lat="45.19974" lon="5.95126">
        <ele>1121.1</ele>
        <time>2026-07-14T07:54:40Z</time>
      </trkpt>
      <trkpt lat="45.19974" lon="5.95126">
        <ele>1121.1</ele>
        <time>2026-07-14T07:54:41Z</time>
      </trkpt>
      <trkpt lat="45.19974" lon="5.95126">
        <ele>1121.2</ele>
        <time>2026-07-14T07:54:42Z</time>
      </trkpt>
      <trkpt lat="45.19974" lon="5.95127">
        <ele>1121.3</ele>
        <time>2026-07-14T07:54:43Z</time>
      </trkpt>
      <trkpt lat="45.19974" lon="5.95127">
        <ele>1121.4</ele>
        <time>2026-07-14T07:54:44Z</time>
      </trkpt>
      <trkpt lat="45.19974" lon="5.95128">
        <ele>1121.4</ele>
        <time>2026-07-14T07:54:45Z</time>
      </trkpt>
      <trkpt lat="45.19974" lon="5.95129">
        <ele>1121.7</ele>
        <time>2026-07-14T07:54:46Z</time>
      </trkpt>
      <trkpt lat="45.19974" lon="5.95129">
        <ele>1121.8</ele>
        <time>2026-07-14T07:54:48Z</time>
      </trkpt>
      <trkpt lat="45.19974" lon="5.95131">
        <ele>1122.1</ele>
        <time>2026-07-14T07:54:49Z</time>
      </trkpt>
      <trkpt lat="45.19974" lon="5.95131">
        <ele>1122.3</ele>
        <time>2026-07-14T07:54:50Z</time>
      </trkpt>
      <trkpt lat="45.19974" lon="5.95132">
        <ele>1122.4</ele>
        <time>2026-07-14T07:54:51Z</time>
      </trkpt>
      <trkpt lat="45.19974" lon="5.95132">
        <ele>1122.5</ele>
        <time>2026-07-14T07:54:52Z</time>
      </trkpt>
      <trkpt lat="45.19973" lon="5.95132">
        <ele>1122.7</ele>
        <time>2026-07-14T07:54:53Z</time>
      </trkpt>
      <trkpt lat="45.19973" lon="5.95132">
        <ele>1122.8</ele>
        <time>2026-07-14T07:54:54Z</time>
      </trkpt>
      <trkpt lat="45.19972" lon="5.95132">
        <ele>1123.1</ele>
        <time>2026-07-14T07:54:55Z</time>
      </trkpt>
      <trkpt lat="45.19971" lon="5.95132">
        <ele>1123.4</ele>
        <time>2026-07-14T07:54:56Z</time>
      </trkpt>
      <trkpt lat="45.1997" lon="5.95131">
        <ele>1123.7</ele>
        <time>2026-07-14T07:54:57Z</time>
      </trkpt>
      <trkpt lat="45.19969" lon="5.95131">
        <ele>1123.9</ele>
        <time>2026-07-14T07:54:58Z</time>
      </trkpt>
      <trkpt lat="45.19969" lon="5.95131">
        <ele>1124.1</ele>
        <time>2026-07-14T07:54:59Z</time>
      </trkpt>
      <trkpt lat="45.19968" lon="5.95131">
        <ele>1124.3</ele>
        <time>2026-07-14T07:55:00Z</time>
      </trkpt>
      <trkpt lat="45.19968" lon="5.95131">
        <ele>1124.5</ele>
        <time>2026-07-14T07:55:01Z</time>
      </trkpt>
      <trkpt lat="45.19967" lon="5.95131">
        <ele>1124.7</ele>
        <time>2026-07-14T07:55:02Z</time>
      </trkpt>
      <trkpt lat="45.19967" lon="5.95131">
        <ele>1124.8</ele>
        <time>2026-07-14T07:55:03Z</time>
      </trkpt>
      <trkpt lat="45.19966" lon="5.95132">
        <ele>1124.9</ele>
        <time>2026-07-14T07:55:05Z</time>
      </trkpt>
      <trkpt lat="45.19966" lon="5.95132">
        <ele>1125</ele>
        <time>2026-07-14T07:55:06Z</time>
      </trkpt>
      <trkpt lat="45.19966" lon="5.95133">
        <ele>1125.2</ele>
        <time>2026-07-14T07:55:07Z</time>
      </trkpt>
      <trkpt lat="45.19966" lon="5.95133">
        <ele>1125.2</ele>
        <time>2026-07-14T07:55:08Z</time>
      </trkpt>
      <trkpt lat="45.19966" lon="5.95133">
        <ele>1125.3</ele>
        <time>2026-07-14T07:55:09Z</time>
      </trkpt>
      <trkpt lat="45.19966" lon="5.95133">
        <ele>1125.4</ele>
        <time>2026-07-14T07:55:10Z</time>
      </trkpt>
      <trkpt lat="45.19966" lon="5.95134">
        <ele>1125.5</ele>
        <time>2026-07-14T07:55:12Z</time>
      </trkpt>
      <trkpt lat="45.19965" lon="5.95135">
        <ele>1125.9</ele>
        <time>2026-07-14T07:55:13Z</time>
      </trkpt>
      <trkpt lat="45.19964" lon="5.95136">
        <ele>1126.1</ele>
        <time>2026-07-14T07:55:15Z</time>
      </trkpt>
      <trkpt lat="45.19964" lon="5.95137">
        <ele>1126.5</ele>
        <time>2026-07-14T07:55:16Z</time>
      </trkpt>
      <trkpt lat="45.19963" lon="5.95137">
        <ele>1126.6</ele>
        <time>2026-07-14T07:55:17Z</time>
      </trkpt>
      <trkpt lat="45.19963" lon="5.95138">
        <ele>1126.8</ele>
        <time>2026-07-14T07:55:18Z</time>
      </trkpt>
      <trkpt lat="45.19962" lon="5.95138">
        <ele>1127</ele>
        <time>2026-07-14T07:55:19Z</time>
      </trkpt>
      <trkpt lat="45.19962" lon="5.95139">
        <ele>1127.1</ele>
        <time>2026-07-14T07:55:20Z</time>
      </trkpt>
      <trkpt lat="45.19962" lon="5.9514">
        <ele>1127.4</ele>
        <time>2026-07-14T07:55:21Z</time>
      </trkpt>
      <trkpt lat="45.19962" lon="5.95141">
        <ele>1127.6</ele>
        <time>2026-07-14T07:55:22Z</time>
      </trkpt>
      <trkpt lat="45.19962" lon="5.95142">
        <ele>1127.9</ele>
        <time>2026-07-14T07:55:23Z</time>
      </trkpt>
      <trkpt lat="45.19962" lon="5.95143">
        <ele>1128.1</ele>
        <time>2026-07-14T07:55:24Z</time>
      </trkpt>
      <trkpt lat="45.19961" lon="5.95143">
        <ele>1128.3</ele>
        <time>2026-07-14T07:55:25Z</time>
      </trkpt>
      <trkpt lat="45.19961" lon="5.95144">
        <ele>1128.6</ele>
        <time>2026-07-14T07:55:26Z</time>
      </trkpt>
      <trkpt lat="45.19961" lon="5.95145">
        <ele>1128.8</ele>
        <time>2026-07-14T07:55:27Z</time>
      </trkpt>
      <trkpt lat="45.1996" lon="5.95145">
        <ele>1128.8</ele>
        <time>2026-07-14T07:55:28Z</time>
      </trkpt>
      <trkpt lat="45.1996" lon="5.95145">
        <ele>1128.9</ele>
        <time>2026-07-14T07:55:29Z</time>
      </trkpt>
      <trkpt lat="45.1996" lon="5.95146">
        <ele>1129</ele>
        <time>2026-07-14T07:55:31Z</time>
      </trkpt>
      <trkpt lat="45.1996" lon="5.95146">
        <ele>1129.1</ele>
        <time>2026-07-14T07:55:32Z</time>
      </trkpt>
      <trkpt lat="45.1996" lon="5.95146">
        <ele>1129.1</ele>
        <time>2026-07-14T07:55:33Z</time>
      </trkpt>
      <trkpt lat="45.1996" lon="5.95146">
        <ele>1129.1</ele>
        <time>2026-07-14T07:55:34Z</time>
      </trkpt>
      <trkpt lat="45.1996" lon="5.95146">
        <ele>1129.3</ele>
        <time>2026-07-14T07:55:36Z</time>
      </trkpt>
      <trkpt lat="45.19959" lon="5.95147">
        <ele>1129.5</ele>
        <time>2026-07-14T07:55:37Z</time>
      </trkpt>
      <trkpt lat="45.19959" lon="5.95148">
        <ele>1129.7</ele>
        <time>2026-07-14T07:55:38Z</time>
      </trkpt>
      <trkpt lat="45.19959" lon="5.95149">
        <ele>1130</ele>
        <time>2026-07-14T07:55:39Z</time>
      </trkpt>
      <trkpt lat="45.19958" lon="5.95149">
        <ele>1130.2</ele>
        <time>2026-07-14T07:55:40Z</time>
      </trkpt>
      <trkpt lat="45.19957" lon="5.9515">
        <ele>1130.4</ele>
        <time>2026-07-14T07:55:41Z</time>
      </trkpt>
      <trkpt lat="45.19957" lon="5.9515">
        <ele>1130.6</ele>
        <time>2026-07-14T07:55:42Z</time>
      </trkpt>
      <trkpt lat="45.19957" lon="5.95151">
        <ele>1130.7</ele>
        <time>2026-07-14T07:55:43Z</time>
      </trkpt>
      <trkpt lat="45.19957" lon="5.95151">
        <ele>1130.7</ele>
        <time>2026-07-14T07:55:44Z</time>
      </trkpt>
      <trkpt lat="45.19957" lon="5.95151">
        <ele>1130.8</ele>
        <time>2026-07-14T07:55:45Z</time>
      </trkpt>
      <trkpt lat="45.19957" lon="5.95151">
        <ele>1130.9</ele>
        <time>2026-07-14T07:55:46Z</time>
      </trkpt>
      <trkpt lat="45.19957" lon="5.95151">
        <ele>1131</ele>
        <time>2026-07-14T07:55:47Z</time>
      </trkpt>
      <trkpt lat="45.19957" lon="5.95152">
        <ele>1131.1</ele>
        <time>2026-07-14T07:55:48Z</time>
      </trkpt>
      <trkpt lat="45.19957" lon="5.95152">
        <ele>1131.2</ele>
        <time>2026-07-14T07:55:49Z</time>
      </trkpt>
      <trkpt lat="45.19956" lon="5.95153">
        <ele>1131.4</ele>
        <time>2026-07-14T07:55:50Z</time>
      </trkpt>
      <trkpt lat="45.19956" lon="5.95153">
        <ele>1131.6</ele>
        <time>2026-07-14T07:55:51Z</time>
      </trkpt>
      <trkpt lat="45.19956" lon="5.95154">
        <ele>1131.9</ele>
        <time>2026-07-14T07:55:53Z</time>
      </trkpt>
      <trkpt lat="45.19955" lon="5.95155">
        <ele>1132.1</ele>
        <time>2026-07-14T07:55:54Z</time>
      </trkpt>
      <trkpt lat="45.19955" lon="5.95155">
        <ele>1132.2</ele>
        <time>2026-07-14T07:55:55Z</time>
      </trkpt>
      <trkpt lat="45.19954" lon="5.95155">
        <ele>1132.4</ele>
        <time>2026-07-14T07:55:56Z</time>
      </trkpt>
      <trkpt lat="45.19954" lon="5.95156">
        <ele>1132.5</ele>
        <time>2026-07-14T07:55:57Z</time>
      </trkpt>
      <trkpt lat="45.19953" lon="5.95156">
        <ele>1132.7</ele>
        <time>2026-07-14T07:55:58Z</time>
      </trkpt>
      <trkpt lat="45.19953" lon="5.95156">
        <ele>1132.8</ele>
        <time>2026-07-14T07:55:59Z</time>
      </trkpt>
      <trkpt lat="45.19953" lon="5.95157">
        <ele>1133</ele>
        <time>2026-07-14T07:56:00Z</time>
      </trkpt>
      <trkpt lat="45.19953" lon="5.95158">
        <ele>1133.2</ele>
        <time>2026-07-14T07:56:02Z</time>
      </trkpt>
      <trkpt lat="45.19953" lon="5.95159">
        <ele>1133.4</ele>
        <time>2026-07-14T07:56:03Z</time>
      </trkpt>
      <trkpt lat="45.19952" lon="5.95159">
        <ele>1133.5</ele>
        <time>2026-07-14T07:56:04Z</time>
      </trkpt>
      <trkpt lat="45.19952" lon="5.9516">
        <ele>1133.6</ele>
        <time>2026-07-14T07:56:05Z</time>
      </trkpt>
      <trkpt lat="45.19952" lon="5.9516">
        <ele>1133.8</ele>
        <time>2026-07-14T07:56:06Z</time>
      </trkpt>
      <trkpt lat="45.19951" lon="5.9516">
        <ele>1133.9</ele>
        <time>2026-07-14T07:56:07Z</time>
      </trkpt>
      <trkpt lat="45.19951" lon="5.95161">
        <ele>1134.1</ele>
        <time>2026-07-14T07:56:08Z</time>
      </trkpt>
      <trkpt lat="45.19951" lon="5.95161">
        <ele>1134.2</ele>
        <time>2026-07-14T07:56:09Z</time>
      </trkpt>
      <trkpt lat="45.1995" lon="5.95161">
        <ele>1134.4</ele>
        <time>2026-07-14T07:56:10Z</time>
      </trkpt>
      <trkpt lat="45.1995" lon="5.95161">
        <ele>1134.5</ele>
        <time>2026-07-14T07:56:11Z</time>
      </trkpt>
      <trkpt lat="45.19949" lon="5.95162">
        <ele>1134.7</ele>
        <time>2026-07-14T07:56:12Z</time>
      </trkpt>
      <trkpt lat="45.19949" lon="5.95162">
        <ele>1134.8</ele>
        <time>2026-07-14T07:56:13Z</time>
      </trkpt>
      <trkpt lat="45.19949" lon="5.95162">
        <ele>1135</ele>
        <time>2026-07-14T07:56:14Z</time>
      </trkpt>
      <trkpt lat="45.19949" lon="5.95162">
        <ele>1135</ele>
        <time>2026-07-14T07:56:15Z</time>
      </trkpt>
      <trkpt lat="45.19948" lon="5.95163">
        <ele>1135.2</ele>
        <time>2026-07-14T07:56:16Z</time>
      </trkpt>
      <trkpt lat="45.19948" lon="5.95163">
        <ele>1135.3</ele>
        <time>2026-07-14T07:56:17Z</time>
      </trkpt>
      <trkpt lat="45.19948" lon="5.95164">
        <ele>1135.3</ele>
        <time>2026-07-14T07:56:18Z</time>
      </trkpt>
      <trkpt lat="45.19948" lon="5.95164">
        <ele>1135.4</ele>
        <time>2026-07-14T07:56:19Z</time>
      </trkpt>
      <trkpt lat="45.19948" lon="5.95164">
        <ele>1135.4</ele>
        <time>2026-07-14T07:56:20Z</time>
      </trkpt>
      <trkpt lat="45.19949" lon="5.95164">
        <ele>1135.5</ele>
        <time>2026-07-14T07:56:21Z</time>
      </trkpt>
      <trkpt lat="45.19949" lon="5.95164">
        <ele>1135.5</ele>
        <time>2026-07-14T07:56:22Z</time>
      </trkpt>
      <trkpt lat="45.19948" lon="5.95164">
        <ele>1135.6</ele>
        <time>2026-07-14T07:56:23Z</time>
      </trkpt>
      <trkpt lat="45.19948" lon="5.95165">
        <ele>1135.8</ele>
        <time>2026-07-14T07:56:24Z</time>
      </trkpt>
      <trkpt lat="45.19947" lon="5.95165">
        <ele>1136</ele>
        <time>2026-07-14T07:56:25Z</time>
      </trkpt>
      <trkpt lat="45.19947" lon="5.95165">
        <ele>1136.1</ele>
        <time>2026-07-14T07:56:26Z</time>
      </trkpt>
      <trkpt lat="45.19947" lon="5.95166">
        <ele>1136.3</ele>
        <time>2026-07-14T07:56:27Z</time>
      </trkpt>
      <trkpt lat="45.19946" lon="5.95166">
        <ele>1136.5</ele>
        <time>2026-07-14T07:56:28Z</time>
      </trkpt>
      <trkpt lat="45.19946" lon="5.95167">
        <ele>1136.6</ele>
        <time>2026-07-14T07:56:29Z</time>
      </trkpt>
      <trkpt lat="45.19946" lon="5.95167">
        <ele>1136.7</ele>
        <time>2026-07-14T07:56:30Z</time>
      </trkpt>
      <trkpt lat="45.19946" lon="5.95168">
        <ele>1136.8</ele>
        <time>2026-07-14T07:56:31Z</time>
      </trkpt>
      <trkpt lat="45.19946" lon="5.95168">
        <ele>1136.9</ele>
        <time>2026-07-14T07:56:32Z</time>
      </trkpt>
      <trkpt lat="45.19946" lon="5.95168">
        <ele>1137</ele>
        <time>2026-07-14T07:56:33Z</time>
      </trkpt>
      <trkpt lat="45.19946" lon="5.95169">
        <ele>1137.1</ele>
        <time>2026-07-14T07:56:34Z</time>
      </trkpt>
      <trkpt lat="45.19946" lon="5.95169">
        <ele>1137.1</ele>
        <time>2026-07-14T07:56:35Z</time>
      </trkpt>
      <trkpt lat="45.19946" lon="5.95169">
        <ele>1137.2</ele>
        <time>2026-07-14T07:56:37Z</time>
      </trkpt>
      <trkpt lat="45.19946" lon="5.95169">
        <ele>1137.2</ele>
        <time>2026-07-14T07:56:38Z</time>
      </trkpt>
      <trkpt lat="45.19946" lon="5.9517">
        <ele>1137.4</ele>
        <time>2026-07-14T07:56:39Z</time>
      </trkpt>
      <trkpt lat="45.19946" lon="5.9517">
        <ele>1137.5</ele>
        <time>2026-07-14T07:56:40Z</time>
      </trkpt>
      <trkpt lat="45.19946" lon="5.95171">
        <ele>1137.6</ele>
        <time>2026-07-14T07:56:41Z</time>
      </trkpt>
      <trkpt lat="45.19946" lon="5.95171">
        <ele>1137.8</ele>
        <time>2026-07-14T07:56:42Z</time>
      </trkpt>
      <trkpt lat="45.19946" lon="5.95172">
        <ele>1137.9</ele>
        <time>2026-07-14T07:56:43Z</time>
      </trkpt>
      <trkpt lat="45.19946" lon="5.95172">
        <ele>1138</ele>
        <time>2026-07-14T07:56:44Z</time>
      </trkpt>
      <trkpt lat="45.19945" lon="5.95173">
        <ele>1138.2</ele>
        <time>2026-07-14T07:56:45Z</time>
      </trkpt>
      <trkpt lat="45.19945" lon="5.95173">
        <ele>1138.4</ele>
        <time>2026-07-14T07:56:46Z</time>
      </trkpt>
      <trkpt lat="45.19944" lon="5.95173">
        <ele>1138.7</ele>
        <time>2026-07-14T07:56:47Z</time>
      </trkpt>
      <trkpt lat="45.19944" lon="5.95174">
        <ele>1138.9</ele>
        <time>2026-07-14T07:56:48Z</time>
      </trkpt>
      <trkpt lat="45.19943" lon="5.95173">
        <ele>1139</ele>
        <time>2026-07-14T07:56:49Z</time>
      </trkpt>
      <trkpt lat="45.19943" lon="5.95173">
        <ele>1139.1</ele>
        <time>2026-07-14T07:56:50Z</time>
      </trkpt>
      <trkpt lat="45.19943" lon="5.95173">
        <ele>1139.2</ele>
        <time>2026-07-14T07:56:51Z</time>
      </trkpt>
      <trkpt lat="45.19943" lon="5.95173">
        <ele>1139.3</ele>
        <time>2026-07-14T07:56:52Z</time>
      </trkpt>
      <trkpt lat="45.19942" lon="5.95173">
        <ele>1139.3</ele>
        <time>2026-07-14T07:56:53Z</time>
      </trkpt>
      <trkpt lat="45.19942" lon="5.95173">
        <ele>1139.6</ele>
        <time>2026-07-14T07:56:54Z</time>
      </trkpt>
      <trkpt lat="45.19941" lon="5.95172">
        <ele>1139.7</ele>
        <time>2026-07-14T07:56:55Z</time>
      </trkpt>
      <trkpt lat="45.19941" lon="5.95172">
        <ele>1139.9</ele>
        <time>2026-07-14T07:56:56Z</time>
      </trkpt>
      <trkpt lat="45.19941" lon="5.95172">
        <ele>1140</ele>
        <time>2026-07-14T07:56:57Z</time>
      </trkpt>
      <trkpt lat="45.1994" lon="5.95173">
        <ele>1140.2</ele>
        <time>2026-07-14T07:56:58Z</time>
      </trkpt>
      <trkpt lat="45.1994" lon="5.95173">
        <ele>1140.4</ele>
        <time>2026-07-14T07:56:59Z</time>
      </trkpt>
      <trkpt lat="45.19939" lon="5.95174">
        <ele>1140.6</ele>
        <time>2026-07-14T07:57:00Z</time>
      </trkpt>
      <trkpt lat="45.19939" lon="5.95174">
        <ele>1140.8</ele>
        <time>2026-07-14T07:57:01Z</time>
      </trkpt>
      <trkpt lat="45.19938" lon="5.95175">
        <ele>1141</ele>
        <time>2026-07-14T07:57:02Z</time>
      </trkpt>
      <trkpt lat="45.19938" lon="5.95175">
        <ele>1141.1</ele>
        <time>2026-07-14T07:57:03Z</time>
      </trkpt>
      <trkpt lat="45.19938" lon="5.95175">
        <ele>1141.3</ele>
        <time>2026-07-14T07:57:04Z</time>
      </trkpt>
      <trkpt lat="45.19937" lon="5.95175">
        <ele>1141.5</ele>
        <time>2026-07-14T07:57:06Z</time>
      </trkpt>
      <trkpt lat="45.19937" lon="5.95176">
        <ele>1141.7</ele>
        <time>2026-07-14T07:57:07Z</time>
      </trkpt>
      <trkpt lat="45.19937" lon="5.95176">
        <ele>1141.7</ele>
        <time>2026-07-14T07:57:08Z</time>
      </trkpt>
      <trkpt lat="45.19937" lon="5.95176">
        <ele>1141.8</ele>
        <time>2026-07-14T07:57:09Z</time>
      </trkpt>
      <trkpt lat="45.19936" lon="5.95176">
        <ele>1141.9</ele>
        <time>2026-07-14T07:57:10Z</time>
      </trkpt>
      <trkpt lat="45.19936" lon="5.95177">
        <ele>1142.1</ele>
        <time>2026-07-14T07:57:11Z</time>
      </trkpt>
      <trkpt lat="45.19936" lon="5.95177">
        <ele>1142.2</ele>
        <time>2026-07-14T07:57:12Z</time>
      </trkpt>
      <trkpt lat="45.19935" lon="5.95177">
        <ele>1142.4</ele>
        <time>2026-07-14T07:57:13Z</time>
      </trkpt>
      <trkpt lat="45.19935" lon="5.95177">
        <ele>1142.5</ele>
        <time>2026-07-14T07:57:14Z</time>
      </trkpt>
      <trkpt lat="45.19934" lon="5.95177">
        <ele>1142.7</ele>
        <time>2026-07-14T07:57:15Z</time>
      </trkpt>
      <trkpt lat="45.19934" lon="5.95177">
        <ele>1142.8</ele>
        <time>2026-07-14T07:57:16Z</time>
      </trkpt>
      <trkpt lat="45.19933" lon="5.95177">
        <ele>1143</ele>
        <time>2026-07-14T07:57:17Z</time>
      </trkpt>
      <trkpt lat="45.19933" lon="5.95177">
        <ele>1143.1</ele>
        <time>2026-07-14T07:57:18Z</time>
      </trkpt>
      <trkpt lat="45.19933" lon="5.95177">
        <ele>1143.3</ele>
        <time>2026-07-14T07:57:19Z</time>
      </trkpt>
      <trkpt lat="45.19932" lon="5.95177">
        <ele>1143.5</ele>
        <time>2026-07-14T07:57:20Z</time>
      </trkpt>
      <trkpt lat="45.19932" lon="5.95178">
        <ele>1143.6</ele>
        <time>2026-07-14T07:57:21Z</time>
      </trkpt>
      <trkpt lat="45.19931" lon="5.95178">
        <ele>1143.8</ele>
        <time>2026-07-14T07:57:22Z</time>
      </trkpt>
      <trkpt lat="45.19931" lon="5.95179">
        <ele>1144.1</ele>
        <time>2026-07-14T07:57:23Z</time>
      </trkpt>
      <trkpt lat="45.19931" lon="5.9518">
        <ele>1144.4</ele>
        <time>2026-07-14T07:57:24Z</time>
      </trkpt>
      <trkpt lat="45.19931" lon="5.95181">
        <ele>1144.7</ele>
        <time>2026-07-14T07:57:25Z</time>
      </trkpt>
      <trkpt lat="45.19931" lon="5.95182">
        <ele>1145</ele>
        <time>2026-07-14T07:57:26Z</time>
      </trkpt>
      <trkpt lat="45.19931" lon="5.95183">
        <ele>1145.2</ele>
        <time>2026-07-14T07:57:27Z</time>
      </trkpt>
      <trkpt lat="45.19931" lon="5.95184">
        <ele>1145.4</ele>
        <time>2026-07-14T07:57:28Z</time>
      </trkpt>
      <trkpt lat="45.19931" lon="5.95185">
        <ele>1145.6</ele>
        <time>2026-07-14T07:57:29Z</time>
      </trkpt>
      <trkpt lat="45.19931" lon="5.95186">
        <ele>1145.9</ele>
        <time>2026-07-14T07:57:30Z</time>
      </trkpt>
      <trkpt lat="45.19931" lon="5.95186">
        <ele>1146</ele>
        <time>2026-07-14T07:57:31Z</time>
      </trkpt>
      <trkpt lat="45.19931" lon="5.95187">
        <ele>1146.1</ele>
        <time>2026-07-14T07:57:32Z</time>
      </trkpt>
      <trkpt lat="45.19931" lon="5.95187">
        <ele>1146.3</ele>
        <time>2026-07-14T07:57:33Z</time>
      </trkpt>
      <trkpt lat="45.1993" lon="5.95188">
        <ele>1146.4</ele>
        <time>2026-07-14T07:57:34Z</time>
      </trkpt>
      <trkpt lat="45.1993" lon="5.95188">
        <ele>1146.6</ele>
        <time>2026-07-14T07:57:35Z</time>
      </trkpt>
      <trkpt lat="45.1993" lon="5.95189">
        <ele>1146.7</ele>
        <time>2026-07-14T07:57:36Z</time>
      </trkpt>
      <trkpt lat="45.1993" lon="5.95189">
        <ele>1146.8</ele>
        <time>2026-07-14T07:57:37Z</time>
      </trkpt>
      <trkpt lat="45.1993" lon="5.95189">
        <ele>1146.9</ele>
        <time>2026-07-14T07:57:38Z</time>
      </trkpt>
      <trkpt lat="45.1993" lon="5.9519">
        <ele>1147</ele>
        <time>2026-07-14T07:57:39Z</time>
      </trkpt>
      <trkpt lat="45.1993" lon="5.9519">
        <ele>1147.1</ele>
        <time>2026-07-14T07:57:40Z</time>
      </trkpt>
      <trkpt lat="45.1993" lon="5.95191">
        <ele>1147.3</ele>
        <time>2026-07-14T07:57:41Z</time>
      </trkpt>
      <trkpt lat="45.1993" lon="5.95191">
        <ele>1147.3</ele>
        <time>2026-07-14T07:57:42Z</time>
      </trkpt>
      <trkpt lat="45.1993" lon="5.95191">
        <ele>1147.4</ele>
        <time>2026-07-14T07:57:43Z</time>
      </trkpt>
      <trkpt lat="45.1993" lon="5.95191">
        <ele>1147.4</ele>
        <time>2026-07-14T07:57:44Z</time>
      </trkpt>
      <trkpt lat="45.1993" lon="5.95191">
        <ele>1147.5</ele>
        <time>2026-07-14T07:57:45Z</time>
      </trkpt>
      <trkpt lat="45.1993" lon="5.95191">
        <ele>1147.6</ele>
        <time>2026-07-14T07:57:46Z</time>
      </trkpt>
      <trkpt lat="45.1993" lon="5.95191">
        <ele>1147.7</ele>
        <time>2026-07-14T07:57:47Z</time>
      </trkpt>
      <trkpt lat="45.1993" lon="5.95191">
        <ele>1147.7</ele>
        <time>2026-07-14T07:57:48Z</time>
      </trkpt>
      <trkpt lat="45.19929" lon="5.95191">
        <ele>1147.8</ele>
        <time>2026-07-14T07:57:49Z</time>
      </trkpt>
      <trkpt lat="45.19929" lon="5.95192">
        <ele>1147.9</ele>
        <time>2026-07-14T07:57:50Z</time>
      </trkpt>
      <trkpt lat="45.19929" lon="5.95192">
        <ele>1148</ele>
        <time>2026-07-14T07:57:51Z</time>
      </trkpt>
      <trkpt lat="45.19929" lon="5.95192">
        <ele>1148.2</ele>
        <time>2026-07-14T07:57:52Z</time>
      </trkpt>
      <trkpt lat="45.19929" lon="5.95193">
        <ele>1148.3</ele>
        <time>2026-07-14T07:57:53Z</time>
      </trkpt>
      <trkpt lat="45.19929" lon="5.95193">
        <ele>1148.3</ele>
        <time>2026-07-14T07:57:54Z</time>
      </trkpt>
      <trkpt lat="45.19928" lon="5.95192">
        <ele>1148.4</ele>
        <time>2026-07-14T07:57:56Z</time>
      </trkpt>
      <trkpt lat="45.19929" lon="5.95192">
        <ele>1148.4</ele>
        <time>2026-07-14T07:57:57Z</time>
      </trkpt>
      <trkpt lat="45.19929" lon="5.95192">
        <ele>1148.5</ele>
        <time>2026-07-14T07:57:58Z</time>
      </trkpt>
      <trkpt lat="45.19929" lon="5.95192">
        <ele>1148.5</ele>
        <time>2026-07-14T07:57:59Z</time>
      </trkpt>
      <trkpt lat="45.19928" lon="5.95192">
        <ele>1148.6</ele>
        <time>2026-07-14T07:58:00Z</time>
      </trkpt>
      <trkpt lat="45.19928" lon="5.95192">
        <ele>1148.7</ele>
        <time>2026-07-14T07:58:01Z</time>
      </trkpt>
      <trkpt lat="45.19928" lon="5.95193">
        <ele>1148.7</ele>
        <time>2026-07-14T07:58:02Z</time>
      </trkpt>
      <trkpt lat="45.19928" lon="5.95193">
        <ele>1148.8</ele>
        <time>2026-07-14T07:58:03Z</time>
      </trkpt>
      <trkpt lat="45.19928" lon="5.95193">
        <ele>1148.8</ele>
        <time>2026-07-14T07:58:04Z</time>
      </trkpt>
      <trkpt lat="45.19928" lon="5.95193">
        <ele>1149</ele>
        <time>2026-07-14T07:58:05Z</time>
      </trkpt>
      <trkpt lat="45.19928" lon="5.95193">
        <ele>1149</ele>
        <time>2026-07-14T07:58:06Z</time>
      </trkpt>
      <trkpt lat="45.19928" lon="5.95193">
        <ele>1149.1</ele>
        <time>2026-07-14T07:58:07Z</time>
      </trkpt>
      <trkpt lat="45.19929" lon="5.95193">
        <ele>1149.2</ele>
        <time>2026-07-14T07:58:08Z</time>
      </trkpt>
      <trkpt lat="45.19928" lon="5.95193">
        <ele>1149.2</ele>
        <time>2026-07-14T07:58:09Z</time>
      </trkpt>
      <trkpt lat="45.19928" lon="5.95194">
        <ele>1149.3</ele>
        <time>2026-07-14T07:58:10Z</time>
      </trkpt>
      <trkpt lat="45.19928" lon="5.95194">
        <ele>1149.3</ele>
        <time>2026-07-14T07:58:11Z</time>
      </trkpt>
      <trkpt lat="45.19928" lon="5.95194">
        <ele>1149.5</ele>
        <time>2026-07-14T07:58:12Z</time>
      </trkpt>
      <trkpt lat="45.19928" lon="5.95194">
        <ele>1149.5</ele>
        <time>2026-07-14T07:58:13Z</time>
      </trkpt>
      <trkpt lat="45.19928" lon="5.95195">
        <ele>1149.7</ele>
        <time>2026-07-14T07:58:14Z</time>
      </trkpt>
      <trkpt lat="45.19927" lon="5.95195">
        <ele>1149.8</ele>
        <time>2026-07-14T07:58:15Z</time>
      </trkpt>
      <trkpt lat="45.19928" lon="5.95196">
        <ele>1150</ele>
        <time>2026-07-14T07:58:17Z</time>
      </trkpt>
      <trkpt lat="45.19928" lon="5.95196">
        <ele>1150.1</ele>
        <time>2026-07-14T07:58:18Z</time>
      </trkpt>
      <trkpt lat="45.19927" lon="5.95198">
        <ele>1150.3</ele>
        <time>2026-07-14T07:58:20Z</time>
      </trkpt>
      <trkpt lat="45.19927" lon="5.95198">
        <ele>1150.5</ele>
        <time>2026-07-14T07:58:21Z</time>
      </trkpt>
      <trkpt lat="45.19927" lon="5.95198">
        <ele>1150.6</ele>
        <time>2026-07-14T07:58:22Z</time>
      </trkpt>
      <trkpt lat="45.19927" lon="5.95199">
        <ele>1150.7</ele>
        <time>2026-07-14T07:58:23Z</time>
      </trkpt>
      <trkpt lat="45.19926" lon="5.95199">
        <ele>1150.9</ele>
        <time>2026-07-14T07:58:24Z</time>
      </trkpt>
      <trkpt lat="45.19926" lon="5.95199">
        <ele>1151</ele>
        <time>2026-07-14T07:58:25Z</time>
      </trkpt>
      <trkpt lat="45.19926" lon="5.952">
        <ele>1151.1</ele>
        <time>2026-07-14T07:58:26Z</time>
      </trkpt>
      <trkpt lat="45.19925" lon="5.952">
        <ele>1151.2</ele>
        <time>2026-07-14T07:58:27Z</time>
      </trkpt>
      <trkpt lat="45.19925" lon="5.952">
        <ele>1151.4</ele>
        <time>2026-07-14T07:58:28Z</time>
      </trkpt>
      <trkpt lat="45.19924" lon="5.952">
        <ele>1151.6</ele>
        <time>2026-07-14T07:58:29Z</time>
      </trkpt>
      <trkpt lat="45.19924" lon="5.952">
        <ele>1151.7</ele>
        <time>2026-07-14T07:58:30Z</time>
      </trkpt>
      <trkpt lat="45.19923" lon="5.952">
        <ele>1151.9</ele>
        <time>2026-07-14T07:58:31Z</time>
      </trkpt>
      <trkpt lat="45.19923" lon="5.952">
        <ele>1152.1</ele>
        <time>2026-07-14T07:58:32Z</time>
      </trkpt>
      <trkpt lat="45.19922" lon="5.952">
        <ele>1152.1</ele>
        <time>2026-07-14T07:58:33Z</time>
      </trkpt>
      <trkpt lat="45.19922" lon="5.952">
        <ele>1152.2</ele>
        <time>2026-07-14T07:58:34Z</time>
      </trkpt>
      <trkpt lat="45.19922" lon="5.952">
        <ele>1152.2</ele>
        <time>2026-07-14T07:58:35Z</time>
      </trkpt>
      <trkpt lat="45.19922" lon="5.95201">
        <ele>1152.3</ele>
        <time>2026-07-14T07:58:36Z</time>
      </trkpt>
      <trkpt lat="45.19922" lon="5.95201">
        <ele>1152.3</ele>
        <time>2026-07-14T07:58:37Z</time>
      </trkpt>
      <trkpt lat="45.19922" lon="5.95201">
        <ele>1152.4</ele>
        <time>2026-07-14T07:58:38Z</time>
      </trkpt>
      <trkpt lat="45.19923" lon="5.95201">
        <ele>1152.5</ele>
        <time>2026-07-14T07:58:39Z</time>
      </trkpt>
      <trkpt lat="45.19923" lon="5.95202">
        <ele>1152.6</ele>
        <time>2026-07-14T07:58:40Z</time>
      </trkpt>
      <trkpt lat="45.19923" lon="5.95202">
        <ele>1152.7</ele>
        <time>2026-07-14T07:58:41Z</time>
      </trkpt>
      <trkpt lat="45.19923" lon="5.95202">
        <ele>1152.8</ele>
        <time>2026-07-14T07:58:42Z</time>
      </trkpt>
      <trkpt lat="45.19923" lon="5.95203">
        <ele>1152.9</ele>
        <time>2026-07-14T07:58:43Z</time>
      </trkpt>
      <trkpt lat="45.19923" lon="5.95204">
        <ele>1153.1</ele>
        <time>2026-07-14T07:58:44Z</time>
      </trkpt>
      <trkpt lat="45.19923" lon="5.95204">
        <ele>1153.2</ele>
        <time>2026-07-14T07:58:45Z</time>
      </trkpt>
      <trkpt lat="45.19922" lon="5.95205">
        <ele>1153.3</ele>
        <time>2026-07-14T07:58:46Z</time>
      </trkpt>
      <trkpt lat="45.19922" lon="5.95205">
        <ele>1153.4</ele>
        <time>2026-07-14T07:58:47Z</time>
      </trkpt>
      <trkpt lat="45.19922" lon="5.95205">
        <ele>1153.5</ele>
        <time>2026-07-14T07:58:48Z</time>
      </trkpt>
      <trkpt lat="45.19921" lon="5.95205">
        <ele>1153.6</ele>
        <time>2026-07-14T07:58:49Z</time>
      </trkpt>
      <trkpt lat="45.19922" lon="5.95205">
        <ele>1153.7</ele>
        <time>2026-07-14T07:58:50Z</time>
      </trkpt>
      <trkpt lat="45.19922" lon="5.95205">
        <ele>1153.7</ele>
        <time>2026-07-14T07:58:51Z</time>
      </trkpt>
      <trkpt lat="45.19922" lon="5.95205">
        <ele>1153.8</ele>
        <time>2026-07-14T07:58:52Z</time>
      </trkpt>
      <trkpt lat="45.19922" lon="5.95205">
        <ele>1153.8</ele>
        <time>2026-07-14T07:58:53Z</time>
      </trkpt>
      <trkpt lat="45.19921" lon="5.95205">
        <ele>1153.8</ele>
        <time>2026-07-14T07:58:54Z</time>
      </trkpt>
      <trkpt lat="45.19921" lon="5.95205">
        <ele>1153.9</ele>
        <time>2026-07-14T07:58:55Z</time>
      </trkpt>
      <trkpt lat="45.19921" lon="5.95206">
        <ele>1153.9</ele>
        <time>2026-07-14T07:58:56Z</time>
      </trkpt>
      <trkpt lat="45.19921" lon="5.95206">
        <ele>1154</ele>
        <time>2026-07-14T07:58:57Z</time>
      </trkpt>
      <trkpt lat="45.19921" lon="5.95207">
        <ele>1154.1</ele>
        <time>2026-07-14T07:58:59Z</time>
      </trkpt>
      <trkpt lat="45.19921" lon="5.95207">
        <ele>1154.3</ele>
        <time>2026-07-14T07:59:00Z</time>
      </trkpt>
      <trkpt lat="45.19921" lon="5.95208">
        <ele>1154.4</ele>
        <time>2026-07-14T07:59:01Z</time>
      </trkpt>
      <trkpt lat="45.1992" lon="5.95209">
        <ele>1154.6</ele>
        <time>2026-07-14T07:59:02Z</time>
      </trkpt>
      <trkpt lat="45.19921" lon="5.95209">
        <ele>1154.7</ele>
        <time>2026-07-14T07:59:03Z</time>
      </trkpt>
      <trkpt lat="45.19921" lon="5.9521">
        <ele>1154.8</ele>
        <time>2026-07-14T07:59:04Z</time>
      </trkpt>
      <trkpt lat="45.19921" lon="5.95211">
        <ele>1155</ele>
        <time>2026-07-14T07:59:05Z</time>
      </trkpt>
      <trkpt lat="45.19921" lon="5.95211">
        <ele>1155.1</ele>
        <time>2026-07-14T07:59:06Z</time>
      </trkpt>
      <trkpt lat="45.19921" lon="5.95212">
        <ele>1155.3</ele>
        <time>2026-07-14T07:59:07Z</time>
      </trkpt>
      <trkpt lat="45.19921" lon="5.95213">
        <ele>1155.4</ele>
        <time>2026-07-14T07:59:08Z</time>
      </trkpt>
      <trkpt lat="45.19921" lon="5.95213">
        <ele>1155.5</ele>
        <time>2026-07-14T07:59:09Z</time>
      </trkpt>
      <trkpt lat="45.19921" lon="5.95214">
        <ele>1155.7</ele>
        <time>2026-07-14T07:59:10Z</time>
      </trkpt>
      <trkpt lat="45.19921" lon="5.95214">
        <ele>1155.8</ele>
        <time>2026-07-14T07:59:11Z</time>
      </trkpt>
      <trkpt lat="45.19921" lon="5.95215">
        <ele>1155.9</ele>
        <time>2026-07-14T07:59:12Z</time>
      </trkpt>
      <trkpt lat="45.1992" lon="5.95216">
        <ele>1156</ele>
        <time>2026-07-14T07:59:13Z</time>
      </trkpt>
      <trkpt lat="45.1992" lon="5.95216">
        <ele>1156.1</ele>
        <time>2026-07-14T07:59:14Z</time>
      </trkpt>
      <trkpt lat="45.1992" lon="5.95217">
        <ele>1156.2</ele>
        <time>2026-07-14T07:59:15Z</time>
      </trkpt>
      <trkpt lat="45.1992" lon="5.95218">
        <ele>1156.5</ele>
        <time>2026-07-14T07:59:17Z</time>
      </trkpt>
      <trkpt lat="45.19919" lon="5.95219">
        <ele>1156.6</ele>
        <time>2026-07-14T07:59:18Z</time>
      </trkpt>
      <trkpt lat="45.19919" lon="5.95219">
        <ele>1156.7</ele>
        <time>2026-07-14T07:59:19Z</time>
      </trkpt>
      <trkpt lat="45.19919" lon="5.9522">
        <ele>1156.9</ele>
        <time>2026-07-14T07:59:20Z</time>
      </trkpt>
      <trkpt lat="45.19918" lon="5.95221">
        <ele>1157.1</ele>
        <time>2026-07-14T07:59:21Z</time>
      </trkpt>
      <trkpt lat="45.19918" lon="5.95222">
        <ele>1157.3</ele>
        <time>2026-07-14T07:59:22Z</time>
      </trkpt>
      <trkpt lat="45.19917" lon="5.95222">
        <ele>1157.5</ele>
        <time>2026-07-14T07:59:23Z</time>
      </trkpt>
      <trkpt lat="45.19916" lon="5.95223">
        <ele>1157.8</ele>
        <time>2026-07-14T07:59:25Z</time>
      </trkpt>
      <trkpt lat="45.19916" lon="5.95224">
        <ele>1157.9</ele>
        <time>2026-07-14T07:59:26Z</time>
      </trkpt>
      <trkpt lat="45.19915" lon="5.95224">
        <ele>1158</ele>
        <time>2026-07-14T07:59:27Z</time>
      </trkpt>
      <trkpt lat="45.19915" lon="5.95224">
        <ele>1158.2</ele>
        <time>2026-07-14T07:59:28Z</time>
      </trkpt>
      <trkpt lat="45.19914" lon="5.95225">
        <ele>1158.3</ele>
        <time>2026-07-14T07:59:29Z</time>
      </trkpt>
      <trkpt lat="45.19914" lon="5.95225">
        <ele>1158.5</ele>
        <time>2026-07-14T07:59:30Z</time>
      </trkpt>
      <trkpt lat="45.19914" lon="5.95226">
        <ele>1158.6</ele>
        <time>2026-07-14T07:59:31Z</time>
      </trkpt>
      <trkpt lat="45.19913" lon="5.95226">
        <ele>1158.8</ele>
        <time>2026-07-14T07:59:32Z</time>
      </trkpt>
      <trkpt lat="45.19913" lon="5.95227">
        <ele>1158.9</ele>
        <time>2026-07-14T07:59:33Z</time>
      </trkpt>
      <trkpt lat="45.19913" lon="5.95227">
        <ele>1159</ele>
        <time>2026-07-14T07:59:34Z</time>
      </trkpt>
      <trkpt lat="45.19913" lon="5.95228">
        <ele>1159.1</ele>
        <time>2026-07-14T07:59:35Z</time>
      </trkpt>
      <trkpt lat="45.19912" lon="5.95228">
        <ele>1159.2</ele>
        <time>2026-07-14T07:59:36Z</time>
      </trkpt>
      <trkpt lat="45.19912" lon="5.95228">
        <ele>1159.3</ele>
        <time>2026-07-14T07:59:37Z</time>
      </trkpt>
      <trkpt lat="45.19912" lon="5.95229">
        <ele>1159.4</ele>
        <time>2026-07-14T07:59:39Z</time>
      </trkpt>
      <trkpt lat="45.19911" lon="5.9523">
        <ele>1159.5</ele>
        <time>2026-07-14T07:59:40Z</time>
      </trkpt>
      <trkpt lat="45.19911" lon="5.9523">
        <ele>1159.7</ele>
        <time>2026-07-14T07:59:42Z</time>
      </trkpt>
      <trkpt lat="45.1991" lon="5.9523">
        <ele>1159.9</ele>
        <time>2026-07-14T07:59:43Z</time>
      </trkpt>
      <trkpt lat="45.1991" lon="5.95231">
        <ele>1160</ele>
        <time>2026-07-14T07:59:44Z</time>
      </trkpt>
      <trkpt lat="45.1991" lon="5.95231">
        <ele>1160.1</ele>
        <time>2026-07-14T07:59:45Z</time>
      </trkpt>
      <trkpt lat="45.19909" lon="5.95231">
        <ele>1160.3</ele>
        <time>2026-07-14T07:59:46Z</time>
      </trkpt>
      <trkpt lat="45.19909" lon="5.95231">
        <ele>1160.3</ele>
        <time>2026-07-14T07:59:47Z</time>
      </trkpt>
      <trkpt lat="45.19909" lon="5.95231">
        <ele>1160.4</ele>
        <time>2026-07-14T07:59:48Z</time>
      </trkpt>
      <trkpt lat="45.19909" lon="5.95231">
        <ele>1160.4</ele>
        <time>2026-07-14T07:59:49Z</time>
      </trkpt>
      <trkpt lat="45.19908" lon="5.95231">
        <ele>1160.5</ele>
        <time>2026-07-14T07:59:50Z</time>
      </trkpt>
      <trkpt lat="45.19908" lon="5.95232">
        <ele>1160.6</ele>
        <time>2026-07-14T07:59:51Z</time>
      </trkpt>
      <trkpt lat="45.19908" lon="5.95232">
        <ele>1160.7</ele>
        <time>2026-07-14T07:59:52Z</time>
      </trkpt>
      <trkpt lat="45.19908" lon="5.95233">
        <ele>1160.7</ele>
        <time>2026-07-14T07:59:53Z</time>
      </trkpt>
      <trkpt lat="45.19908" lon="5.95233">
        <ele>1160.9</ele>
        <time>2026-07-14T07:59:54Z</time>
      </trkpt>
      <trkpt lat="45.19908" lon="5.95234">
        <ele>1161</ele>
        <time>2026-07-14T07:59:55Z</time>
      </trkpt>
      <trkpt lat="45.19908" lon="5.95234">
        <ele>1161.1</ele>
        <time>2026-07-14T07:59:56Z</time>
      </trkpt>
      <trkpt lat="45.19907" lon="5.95235">
        <ele>1161.3</ele>
        <time>2026-07-14T07:59:57Z</time>
      </trkpt>
      <trkpt lat="45.19907" lon="5.95237">
        <ele>1161.6</ele>
        <time>2026-07-14T07:59:59Z</time>
      </trkpt>
      <trkpt lat="45.19907" lon="5.95238">
        <ele>1161.8</ele>
        <time>2026-07-14T08:00:00Z</time>
      </trkpt>
      <trkpt lat="45.19906" lon="5.95239">
        <ele>1162</ele>
        <time>2026-07-14T08:00:01Z</time>
      </trkpt>
      <trkpt lat="45.19906" lon="5.95239">
        <ele>1162.1</ele>
        <time>2026-07-14T08:00:02Z</time>
      </trkpt>
      <trkpt lat="45.19906" lon="5.9524">
        <ele>1162.3</ele>
        <time>2026-07-14T08:00:03Z</time>
      </trkpt>
      <trkpt lat="45.19906" lon="5.95241">
        <ele>1162.4</ele>
        <time>2026-07-14T08:00:04Z</time>
      </trkpt>
      <trkpt lat="45.19906" lon="5.95241">
        <ele>1162.5</ele>
        <time>2026-07-14T08:00:06Z</time>
      </trkpt>
      <trkpt lat="45.19906" lon="5.95243">
        <ele>1162.8</ele>
        <time>2026-07-14T08:00:07Z</time>
      </trkpt>
      <trkpt lat="45.19906" lon="5.95243">
        <ele>1162.9</ele>
        <time>2026-07-14T08:00:08Z</time>
      </trkpt>
      <trkpt lat="45.19906" lon="5.95244">
        <ele>1163.1</ele>
        <time>2026-07-14T08:00:09Z</time>
      </trkpt>
      <trkpt lat="45.19906" lon="5.95245">
        <ele>1163.2</ele>
        <time>2026-07-14T08:00:10Z</time>
      </trkpt>
      <trkpt lat="45.19905" lon="5.95246">
        <ele>1163.5</ele>
        <time>2026-07-14T08:00:11Z</time>
      </trkpt>
      <trkpt lat="45.19905" lon="5.95247">
        <ele>1163.6</ele>
        <time>2026-07-14T08:00:12Z</time>
      </trkpt>
      <trkpt lat="45.19905" lon="5.95247">
        <ele>1163.7</ele>
        <time>2026-07-14T08:00:13Z</time>
      </trkpt>
      <trkpt lat="45.19905" lon="5.95248">
        <ele>1163.8</ele>
        <time>2026-07-14T08:00:14Z</time>
      </trkpt>
      <trkpt lat="45.19905" lon="5.95249">
        <ele>1163.9</ele>
        <time>2026-07-14T08:00:16Z</time>
      </trkpt>
      <trkpt lat="45.19905" lon="5.9525">
        <ele>1164.1</ele>
        <time>2026-07-14T08:00:17Z</time>
      </trkpt>
      <trkpt lat="45.19905" lon="5.9525">
        <ele>1164.2</ele>
        <time>2026-07-14T08:00:18Z</time>
      </trkpt>
      <trkpt lat="45.19905" lon="5.95251">
        <ele>1164.4</ele>
        <time>2026-07-14T08:00:20Z</time>
      </trkpt>
      <trkpt lat="45.19905" lon="5.95253">
        <ele>1164.7</ele>
        <time>2026-07-14T08:00:21Z</time>
      </trkpt>
      <trkpt lat="45.19905" lon="5.95254">
        <ele>1164.8</ele>
        <time>2026-07-14T08:00:22Z</time>
      </trkpt>
      <trkpt lat="45.19905" lon="5.95254">
        <ele>1165</ele>
        <time>2026-07-14T08:00:23Z</time>
      </trkpt>
      <trkpt lat="45.19905" lon="5.95255">
        <ele>1165.1</ele>
        <time>2026-07-14T08:00:24Z</time>
      </trkpt>
      <trkpt lat="45.19905" lon="5.95256">
        <ele>1165.3</ele>
        <time>2026-07-14T08:00:25Z</time>
      </trkpt>
      <trkpt lat="45.19905" lon="5.95257">
        <ele>1165.4</ele>
        <time>2026-07-14T08:00:26Z</time>
      </trkpt>
      <trkpt lat="45.19905" lon="5.95257">
        <ele>1165.6</ele>
        <time>2026-07-14T08:00:27Z</time>
      </trkpt>
      <trkpt lat="45.19904" lon="5.95258">
        <ele>1165.6</ele>
        <time>2026-07-14T08:00:28Z</time>
      </trkpt>
      <trkpt lat="45.19904" lon="5.95258">
        <ele>1165.7</ele>
        <time>2026-07-14T08:00:29Z</time>
      </trkpt>
      <trkpt lat="45.19904" lon="5.95259">
        <ele>1165.8</ele>
        <time>2026-07-14T08:00:30Z</time>
      </trkpt>
      <trkpt lat="45.19904" lon="5.95259">
        <ele>1165.9</ele>
        <time>2026-07-14T08:00:31Z</time>
      </trkpt>
      <trkpt lat="45.19904" lon="5.9526">
        <ele>1166</ele>
        <time>2026-07-14T08:00:32Z</time>
      </trkpt>
      <trkpt lat="45.19904" lon="5.9526">
        <ele>1166.1</ele>
        <time>2026-07-14T08:00:33Z</time>
      </trkpt>
      <trkpt lat="45.19903" lon="5.95261">
        <ele>1166.2</ele>
        <time>2026-07-14T08:00:34Z</time>
      </trkpt>
      <trkpt lat="45.19903" lon="5.95261">
        <ele>1166.4</ele>
        <time>2026-07-14T08:00:35Z</time>
      </trkpt>
      <trkpt lat="45.19903" lon="5.95262">
        <ele>1166.5</ele>
        <time>2026-07-14T08:00:36Z</time>
      </trkpt>
      <trkpt lat="45.19902" lon="5.95262">
        <ele>1166.6</ele>
        <time>2026-07-14T08:00:37Z</time>
      </trkpt>
      <trkpt lat="45.19902" lon="5.95263">
        <ele>1166.8</ele>
        <time>2026-07-14T08:00:38Z</time>
      </trkpt>
      <trkpt lat="45.19901" lon="5.95264">
        <ele>1167</ele>
        <time>2026-07-14T08:00:39Z</time>
      </trkpt>
      <trkpt lat="45.19901" lon="5.95264">
        <ele>1167.1</ele>
        <time>2026-07-14T08:00:40Z</time>
      </trkpt>
      <trkpt lat="45.19901" lon="5.95264">
        <ele>1167.2</ele>
        <time>2026-07-14T08:00:41Z</time>
      </trkpt>
      <trkpt lat="45.19901" lon="5.95265">
        <ele>1167.2</ele>
        <time>2026-07-14T08:00:42Z</time>
      </trkpt>
      <trkpt lat="45.19901" lon="5.95265">
        <ele>1167.3</ele>
        <time>2026-07-14T08:00:43Z</time>
      </trkpt>
      <trkpt lat="45.19902" lon="5.95265">
        <ele>1167.4</ele>
        <time>2026-07-14T08:00:44Z</time>
      </trkpt>
      <trkpt lat="45.19903" lon="5.95264">
        <ele>1167.7</ele>
        <time>2026-07-14T08:00:45Z</time>
      </trkpt>
      <trkpt lat="45.19903" lon="5.95264">
        <ele>1167.8</ele>
        <time>2026-07-14T08:00:46Z</time>
      </trkpt>
      <trkpt lat="45.19904" lon="5.95264">
        <ele>1167.9</ele>
        <time>2026-07-14T08:00:47Z</time>
      </trkpt>
      <trkpt lat="45.19904" lon="5.95265">
        <ele>1168</ele>
        <time>2026-07-14T08:00:48Z</time>
      </trkpt>
      <trkpt lat="45.19904" lon="5.95265">
        <ele>1168.1</ele>
        <time>2026-07-14T08:00:49Z</time>
      </trkpt>
      <trkpt lat="45.19904" lon="5.95266">
        <ele>1168.2</ele>
        <time>2026-07-14T08:00:50Z</time>
      </trkpt>
      <trkpt lat="45.19904" lon="5.95266">
        <ele>1168.3</ele>
        <time>2026-07-14T08:00:51Z</time>
      </trkpt>
      <trkpt lat="45.19903" lon="5.95266">
        <ele>1168.4</ele>
        <time>2026-07-14T08:00:52Z</time>
      </trkpt>
      <trkpt lat="45.19903" lon="5.95267">
        <ele>1168.6</ele>
        <time>2026-07-14T08:00:53Z</time>
      </trkpt>
      <trkpt lat="45.19902" lon="5.95267">
        <ele>1168.7</ele>
        <time>2026-07-14T08:00:54Z</time>
      </trkpt>
      <trkpt lat="45.19902" lon="5.95268">
        <ele>1168.9</ele>
        <time>2026-07-14T08:00:55Z</time>
      </trkpt>
      <trkpt lat="45.19901" lon="5.95268">
        <ele>1169</ele>
        <time>2026-07-14T08:00:56Z</time>
      </trkpt>
      <trkpt lat="45.19901" lon="5.95269">
        <ele>1169.1</ele>
        <time>2026-07-14T08:00:57Z</time>
      </trkpt>
      <trkpt lat="45.199" lon="5.95269">
        <ele>1169.3</ele>
        <time>2026-07-14T08:00:58Z</time>
      </trkpt>
      <trkpt lat="45.199" lon="5.95269">
        <ele>1169.4</ele>
        <time>2026-07-14T08:00:59Z</time>
      </trkpt>
      <trkpt lat="45.19899" lon="5.95269">
        <ele>1169.6</ele>
        <time>2026-07-14T08:01:00Z</time>
      </trkpt>
      <trkpt lat="45.19899" lon="5.9527">
        <ele>1169.7</ele>
        <time>2026-07-14T08:01:01Z</time>
      </trkpt>
      <trkpt lat="45.19899" lon="5.9527">
        <ele>1169.8</ele>
        <time>2026-07-14T08:01:02Z</time>
      </trkpt>
      <trkpt lat="45.19898" lon="5.9527">
        <ele>1170</ele>
        <time>2026-07-14T08:01:03Z</time>
      </trkpt>
      <trkpt lat="45.19898" lon="5.95271">
        <ele>1170.1</ele>
        <time>2026-07-14T08:01:04Z</time>
      </trkpt>
      <trkpt lat="45.19897" lon="5.95271">
        <ele>1170.2</ele>
        <time>2026-07-14T08:01:05Z</time>
      </trkpt>
      <trkpt lat="45.19897" lon="5.95271">
        <ele>1170.4</ele>
        <time>2026-07-14T08:01:06Z</time>
      </trkpt>
      <trkpt lat="45.19896" lon="5.95272">
        <ele>1170.5</ele>
        <time>2026-07-14T08:01:07Z</time>
      </trkpt>
      <trkpt lat="45.19895" lon="5.95272">
        <ele>1170.7</ele>
        <time>2026-07-14T08:01:08Z</time>
      </trkpt>
      <trkpt lat="45.19895" lon="5.95272">
        <ele>1170.9</ele>
        <time>2026-07-14T08:01:09Z</time>
      </trkpt>
      <trkpt lat="45.19894" lon="5.95272">
        <ele>1171</ele>
        <time>2026-07-14T08:01:10Z</time>
      </trkpt>
      <trkpt lat="45.19894" lon="5.95273">
        <ele>1171.1</ele>
        <time>2026-07-14T08:01:11Z</time>
      </trkpt>
      <trkpt lat="45.19894" lon="5.95273">
        <ele>1171.3</ele>
        <time>2026-07-14T08:01:12Z</time>
      </trkpt>
      <trkpt lat="45.19893" lon="5.95274">
        <ele>1171.5</ele>
        <time>2026-07-14T08:01:13Z</time>
      </trkpt>
      <trkpt lat="45.19893" lon="5.95275">
        <ele>1171.6</ele>
        <time>2026-07-14T08:01:14Z</time>
      </trkpt>
      <trkpt lat="45.19893" lon="5.95276">
        <ele>1171.8</ele>
        <time>2026-07-14T08:01:15Z</time>
      </trkpt>
      <trkpt lat="45.19892" lon="5.95277">
        <ele>1171.8</ele>
        <time>2026-07-14T08:01:16Z</time>
      </trkpt>
      <trkpt lat="45.19892" lon="5.95277">
        <ele>1171.8</ele>
        <time>2026-07-14T08:01:17Z</time>
      </trkpt>
      <trkpt lat="45.19892" lon="5.95278">
        <ele>1171.9</ele>
        <time>2026-07-14T08:01:18Z</time>
      </trkpt>
      <trkpt lat="45.19892" lon="5.95278">
        <ele>1171.9</ele>
        <time>2026-07-14T08:01:19Z</time>
      </trkpt>
      <trkpt lat="45.19892" lon="5.95279">
        <ele>1171.9</ele>
        <time>2026-07-14T08:01:20Z</time>
      </trkpt>
      <trkpt lat="45.19892" lon="5.95279">
        <ele>1172</ele>
        <time>2026-07-14T08:01:21Z</time>
      </trkpt>
      <trkpt lat="45.19892" lon="5.9528">
        <ele>1172</ele>
        <time>2026-07-14T08:01:22Z</time>
      </trkpt>
      <trkpt lat="45.19892" lon="5.9528">
        <ele>1172</ele>
        <time>2026-07-14T08:01:23Z</time>
      </trkpt>
      <trkpt lat="45.19892" lon="5.95281">
        <ele>1172</ele>
        <time>2026-07-14T08:01:24Z</time>
      </trkpt>
      <trkpt lat="45.19892" lon="5.95281">
        <ele>1172.1</ele>
        <time>2026-07-14T08:01:25Z</time>
      </trkpt>
      <trkpt lat="45.19892" lon="5.95282">
        <ele>1172.1</ele>
        <time>2026-07-14T08:01:26Z</time>
      </trkpt>
      <trkpt lat="45.19891" lon="5.95282">
        <ele>1172.1</ele>
        <time>2026-07-14T08:01:27Z</time>
      </trkpt>
      <trkpt lat="45.19891" lon="5.95282">
        <ele>1172.1</ele>
        <time>2026-07-14T08:01:28Z</time>
      </trkpt>
      <trkpt lat="45.19891" lon="5.95282">
        <ele>1172.1</ele>
        <time>2026-07-14T08:01:29Z</time>
      </trkpt>
      <trkpt lat="45.19891" lon="5.95282">
        <ele>1172.1</ele>
        <time>2026-07-14T08:01:30Z</time>
      </trkpt>
      <trkpt lat="45.19891" lon="5.95282">
        <ele>1172.1</ele>
        <time>2026-07-14T08:01:31Z</time>
      </trkpt>
      <trkpt lat="45.19891" lon="5.95282">
        <ele>1172.1</ele>
        <time>2026-07-14T08:01:32Z</time>
      </trkpt>
      <trkpt lat="45.19891" lon="5.95282">
        <ele>1172.1</ele>
        <time>2026-07-14T08:01:33Z</time>
      </trkpt>
      <trkpt lat="45.19891" lon="5.95282">
        <ele>1172.1</ele>
        <time>2026-07-14T08:01:34Z</time>
      </trkpt>
      <trkpt lat="45.19891" lon="5.95282">
        <ele>1172.1</ele>
        <time>2026-07-14T08:01:35Z</time>
      </trkpt>
      <trkpt lat="45.19891" lon="5.95283">
        <ele>1172.1</ele>
        <time>2026-07-14T08:01:36Z</time>
      </trkpt>
      <trkpt lat="45.19892" lon="5.95283">
        <ele>1172.1</ele>
        <time>2026-07-14T08:01:37Z</time>
      </trkpt>
      <trkpt lat="45.19892" lon="5.95283">
        <ele>1172.1</ele>
        <time>2026-07-14T08:01:38Z</time>
      </trkpt>
      <trkpt lat="45.19892" lon="5.95283">
        <ele>1172.1</ele>
        <time>2026-07-14T08:01:39Z</time>
      </trkpt>
      <trkpt lat="45.19892" lon="5.95283">
        <ele>1172.1</ele>
        <time>2026-07-14T08:01:40Z</time>
      </trkpt>
      <trkpt lat="45.19892" lon="5.95283">
        <ele>1172.1</ele>
        <time>2026-07-14T08:01:41Z</time>
      </trkpt>
      <trkpt lat="45.19892" lon="5.95284">
        <ele>1172.1</ele>
        <time>2026-07-14T08:01:42Z</time>
      </trkpt>
      <trkpt lat="45.19892" lon="5.95284">
        <ele>1172.1</ele>
        <time>2026-07-14T08:01:43Z</time>
      </trkpt>
      <trkpt lat="45.19892" lon="5.95284">
        <ele>1172.1</ele>
        <time>2026-07-14T08:01:44Z</time>
      </trkpt>
      <trkpt lat="45.19892" lon="5.95284">
        <ele>1172.1</ele>
        <time>2026-07-14T08:01:45Z</time>
      </trkpt>
      <trkpt lat="45.19892" lon="5.95284">
        <ele>1172.1</ele>
        <time>2026-07-14T08:01:46Z</time>
      </trkpt>
      <trkpt lat="45.19892" lon="5.95284">
        <ele>1172.1</ele>
        <time>2026-07-14T08:01:47Z</time>
      </trkpt>
      <trkpt lat="45.19892" lon="5.95284">
        <ele>1172.1</ele>
        <time>2026-07-14T08:01:48Z</time>
      </trkpt>
      <trkpt lat="45.19892" lon="5.95284">
        <ele>1172.1</ele>
        <time>2026-07-14T08:01:49Z</time>
      </trkpt>
      <trkpt lat="45.19892" lon="5.95284">
        <ele>1172.1</ele>
        <time>2026-07-14T08:01:50Z</time>
      </trkpt>
      <trkpt lat="45.19892" lon="5.95284">
        <ele>1172.1</ele>
        <time>2026-07-14T08:01:51Z</time>
      </trkpt>
      <trkpt lat="45.19892" lon="5.95285">
        <ele>1172.1</ele>
        <time>2026-07-14T08:01:52Z</time>
      </trkpt>
      <trkpt lat="45.19892" lon="5.95285">
        <ele>1172.1</ele>
        <time>2026-07-14T08:01:53Z</time>
      </trkpt>
      <trkpt lat="45.19892" lon="5.95285">
        <ele>1172.1</ele>
        <time>2026-07-14T08:01:54Z</time>
      </trkpt>
      <trkpt lat="45.19891" lon="5.95285">
        <ele>1172.1</ele>
        <time>2026-07-14T08:01:55Z</time>
      </trkpt>
      <trkpt lat="45.19891" lon="5.95285">
        <ele>1172.1</ele>
        <time>2026-07-14T08:01:56Z</time>
      </trkpt>
      <trkpt lat="45.19891" lon="5.95286">
        <ele>1172.1</ele>
        <time>2026-07-14T08:01:57Z</time>
      </trkpt>
      <trkpt lat="45.19891" lon="5.95287">
        <ele>1172.1</ele>
        <time>2026-07-14T08:01:58Z</time>
      </trkpt>
      <trkpt lat="45.19891" lon="5.95287">
        <ele>1172.1</ele>
        <time>2026-07-14T08:01:59Z</time>
      </trkpt>
      <trkpt lat="45.19891" lon="5.95289">
        <ele>1172</ele>
        <time>2026-07-14T08:02:00Z</time>
      </trkpt>
      <trkpt lat="45.19891" lon="5.9529">
        <ele>1172</ele>
        <time>2026-07-14T08:02:01Z</time>
      </trkpt>
      <trkpt lat="45.19891" lon="5.95291">
        <ele>1171.9</ele>
        <time>2026-07-14T08:02:02Z</time>
      </trkpt>
      <trkpt lat="45.19891" lon="5.95292">
        <ele>1171.9</ele>
        <time>2026-07-14T08:02:03Z</time>
      </trkpt>
      <trkpt lat="45.1989" lon="5.95292">
        <ele>1171.8</ele>
        <time>2026-07-14T08:02:04Z</time>
      </trkpt>
      <trkpt lat="45.1989" lon="5.95293">
        <ele>1171.7</ele>
        <time>2026-07-14T08:02:05Z</time>
      </trkpt>
      <trkpt lat="45.19889" lon="5.95293">
        <ele>1171.7</ele>
        <time>2026-07-14T08:02:06Z</time>
      </trkpt>
      <trkpt lat="45.19889" lon="5.95293">
        <ele>1171.6</ele>
        <time>2026-07-14T08:02:07Z</time>
      </trkpt>
      <trkpt lat="45.19888" lon="5.95293">
        <ele>1171.5</ele>
        <time>2026-07-14T08:02:08Z</time>
      </trkpt>
      <trkpt lat="45.19887" lon="5.95293">
        <ele>1171.5</ele>
        <time>2026-07-14T08:02:09Z</time>
      </trkpt>
      <trkpt lat="45.19887" lon="5.95293">
        <ele>1171.4</ele>
        <time>2026-07-14T08:02:10Z</time>
      </trkpt>
      <trkpt lat="45.19886" lon="5.95294">
        <ele>1171.3</ele>
        <time>2026-07-14T08:02:11Z</time>
      </trkpt>
      <trkpt lat="45.19885" lon="5.95294">
        <ele>1171.2</ele>
        <time>2026-07-14T08:02:12Z</time>
      </trkpt>
      <trkpt lat="45.19885" lon="5.95294">
        <ele>1171.1</ele>
        <time>2026-07-14T08:02:13Z</time>
      </trkpt>
      <trkpt lat="45.19884" lon="5.95295">
        <ele>1171</ele>
        <time>2026-07-14T08:02:14Z</time>
      </trkpt>
      <trkpt lat="45.19884" lon="5.95295">
        <ele>1170.9</ele>
        <time>2026-07-14T08:02:15Z</time>
      </trkpt>
      <trkpt lat="45.19883" lon="5.95295">
        <ele>1170.8</ele>
        <time>2026-07-14T08:02:16Z</time>
      </trkpt>
      <trkpt lat="45.19882" lon="5.95295">
        <ele>1170.7</ele>
        <time>2026-07-14T08:02:17Z</time>
      </trkpt>
      <trkpt lat="45.19882" lon="5.95296">
        <ele>1170.6</ele>
        <time>2026-07-14T08:02:18Z</time>
      </trkpt>
      <trkpt lat="45.19881" lon="5.95296">
        <ele>1170.5</ele>
        <time>2026-07-14T08:02:19Z</time>
      </trkpt>
      <trkpt lat="45.19881" lon="5.95297">
        <ele>1170.5</ele>
        <time>2026-07-14T08:02:20Z</time>
      </trkpt>
      <trkpt lat="45.19881" lon="5.95297">
        <ele>1170.3</ele>
        <time>2026-07-14T08:02:21Z</time>
      </trkpt>
      <trkpt lat="45.19879" lon="5.95299">
        <ele>1170.1</ele>
        <time>2026-07-14T08:02:23Z</time>
      </trkpt>
      <trkpt lat="45.19879" lon="5.95299">
        <ele>1170</ele>
        <time>2026-07-14T08:02:24Z</time>
      </trkpt>
      <trkpt lat="45.19878" lon="5.95301">
        <ele>1169.8</ele>
        <time>2026-07-14T08:02:26Z</time>
      </trkpt>
      <trkpt lat="45.19878" lon="5.95302">
        <ele>1169.7</ele>
        <time>2026-07-14T08:02:27Z</time>
      </trkpt>
      <trkpt lat="45.19878" lon="5.95303">
        <ele>1169.6</ele>
        <time>2026-07-14T08:02:28Z</time>
      </trkpt>
      <trkpt lat="45.19877" lon="5.95304">
        <ele>1169.5</ele>
        <time>2026-07-14T08:02:29Z</time>
      </trkpt>
      <trkpt lat="45.19876" lon="5.95305">
        <ele>1169.3</ele>
        <time>2026-07-14T08:02:30Z</time>
      </trkpt>
      <trkpt lat="45.19876" lon="5.95306">
        <ele>1169.2</ele>
        <time>2026-07-14T08:02:31Z</time>
      </trkpt>
      <trkpt lat="45.19875" lon="5.95307">
        <ele>1169</ele>
        <time>2026-07-14T08:02:32Z</time>
      </trkpt>
      <trkpt lat="45.19875" lon="5.95308">
        <ele>1168.9</ele>
        <time>2026-07-14T08:02:33Z</time>
      </trkpt>
      <trkpt lat="45.19874" lon="5.95309">
        <ele>1168.8</ele>
        <time>2026-07-14T08:02:34Z</time>
      </trkpt>
      <trkpt lat="45.19873" lon="5.9531">
        <ele>1168.7</ele>
        <time>2026-07-14T08:02:35Z</time>
      </trkpt>
      <trkpt lat="45.19872" lon="5.95311">
        <ele>1168.6</ele>
        <time>2026-07-14T08:02:36Z</time>
      </trkpt>
      <trkpt lat="45.19872" lon="5.95312">
        <ele>1168.5</ele>
        <time>2026-07-14T08:02:37Z</time>
      </trkpt>
      <trkpt lat="45.19871" lon="5.95314">
        <ele>1168.4</ele>
        <time>2026-07-14T08:02:38Z</time>
      </trkpt>
      <trkpt lat="45.19871" lon="5.95315">
        <ele>1168.3</ele>
        <time>2026-07-14T08:02:39Z</time>
      </trkpt>
      <trkpt lat="45.19871" lon="5.95316">
        <ele>1168.2</ele>
        <time>2026-07-14T08:02:40Z</time>
      </trkpt>
      <trkpt lat="45.1987" lon="5.95317">
        <ele>1168.1</ele>
        <time>2026-07-14T08:02:41Z</time>
      </trkpt>
      <trkpt lat="45.1987" lon="5.95318">
        <ele>1168</ele>
        <time>2026-07-14T08:02:42Z</time>
      </trkpt>
      <trkpt lat="45.19869" lon="5.95319">
        <ele>1168</ele>
        <time>2026-07-14T08:02:43Z</time>
      </trkpt>
      <trkpt lat="45.19869" lon="5.95319">
        <ele>1168</ele>
        <time>2026-07-14T08:02:44Z</time>
      </trkpt>
      <trkpt lat="45.19869" lon="5.9532">
        <ele>1167.9</ele>
        <time>2026-07-14T08:02:45Z</time>
      </trkpt>
      <trkpt lat="45.1987" lon="5.95322">
        <ele>1167.8</ele>
        <time>2026-07-14T08:02:47Z</time>
      </trkpt>
      <trkpt lat="45.1987" lon="5.95322">
        <ele>1167.8</ele>
        <time>2026-07-14T08:02:48Z</time>
      </trkpt>
      <trkpt lat="45.1987" lon="5.95323">
        <ele>1167.7</ele>
        <time>2026-07-14T08:02:49Z</time>
      </trkpt>
      <trkpt lat="45.1987" lon="5.95324">
        <ele>1167.7</ele>
        <time>2026-07-14T08:02:50Z</time>
      </trkpt>
      <trkpt lat="45.1987" lon="5.95325">
        <ele>1167.6</ele>
        <time>2026-07-14T08:02:51Z</time>
      </trkpt>
      <trkpt lat="45.1987" lon="5.95326">
        <ele>1167.6</ele>
        <time>2026-07-14T08:02:52Z</time>
      </trkpt>
      <trkpt lat="45.1987" lon="5.95327">
        <ele>1167.5</ele>
        <time>2026-07-14T08:02:53Z</time>
      </trkpt>
      <trkpt lat="45.19869" lon="5.95329">
        <ele>1167.4</ele>
        <time>2026-07-14T08:02:54Z</time>
      </trkpt>
      <trkpt lat="45.19869" lon="5.9533">
        <ele>1167.3</ele>
        <time>2026-07-14T08:02:56Z</time>
      </trkpt>
      <trkpt lat="45.19869" lon="5.95331">
        <ele>1167.3</ele>
        <time>2026-07-14T08:02:58Z</time>
      </trkpt>
      <trkpt lat="45.19868" lon="5.95333">
        <ele>1167.2</ele>
        <time>2026-07-14T08:02:59Z</time>
      </trkpt>
      <trkpt lat="45.19868" lon="5.95334">
        <ele>1167.1</ele>
        <time>2026-07-14T08:03:00Z</time>
      </trkpt>
      <trkpt lat="45.19868" lon="5.95335">
        <ele>1167.1</ele>
        <time>2026-07-14T08:03:01Z</time>
      </trkpt>
      <trkpt lat="45.19867" lon="5.95336">
        <ele>1167</ele>
        <time>2026-07-14T08:03:02Z</time>
      </trkpt>
      <trkpt lat="45.19867" lon="5.95337">
        <ele>1166.9</ele>
        <time>2026-07-14T08:03:03Z</time>
      </trkpt>
      <trkpt lat="45.19867" lon="5.95338">
        <ele>1166.9</ele>
        <time>2026-07-14T08:03:04Z</time>
      </trkpt>
      <trkpt lat="45.19866" lon="5.95339">
        <ele>1166.8</ele>
        <time>2026-07-14T08:03:05Z</time>
      </trkpt>
      <trkpt lat="45.19865" lon="5.9534">
        <ele>1166.7</ele>
        <time>2026-07-14T08:03:06Z</time>
      </trkpt>
      <trkpt lat="45.19864" lon="5.9534">
        <ele>1166.6</ele>
        <time>2026-07-14T08:03:08Z</time>
      </trkpt>
      <trkpt lat="45.19863" lon="5.95341">
        <ele>1166.5</ele>
        <time>2026-07-14T08:03:09Z</time>
      </trkpt>
      <trkpt lat="45.19863" lon="5.95342">
        <ele>1166.5</ele>
        <time>2026-07-14T08:03:10Z</time>
      </trkpt>
      <trkpt lat="45.19862" lon="5.95342">
        <ele>1166.4</ele>
        <time>2026-07-14T08:03:11Z</time>
      </trkpt>
      <trkpt lat="45.19862" lon="5.95343">
        <ele>1166.4</ele>
        <time>2026-07-14T08:03:12Z</time>
      </trkpt>
      <trkpt lat="45.19862" lon="5.95343">
        <ele>1166.3</ele>
        <time>2026-07-14T08:03:13Z</time>
      </trkpt>
      <trkpt lat="45.19862" lon="5.95344">
        <ele>1166.3</ele>
        <time>2026-07-14T08:03:14Z</time>
      </trkpt>
      <trkpt lat="45.19862" lon="5.95345">
        <ele>1166.2</ele>
        <time>2026-07-14T08:03:15Z</time>
      </trkpt>
      <trkpt lat="45.19861" lon="5.95346">
        <ele>1166.2</ele>
        <time>2026-07-14T08:03:16Z</time>
      </trkpt>
      <trkpt lat="45.19861" lon="5.95346">
        <ele>1166.1</ele>
        <time>2026-07-14T08:03:17Z</time>
      </trkpt>
      <trkpt lat="45.1986" lon="5.95347">
        <ele>1166</ele>
        <time>2026-07-14T08:03:18Z</time>
      </trkpt>
      <trkpt lat="45.19859" lon="5.95349">
        <ele>1166</ele>
        <time>2026-07-14T08:03:19Z</time>
      </trkpt>
      <trkpt lat="45.19859" lon="5.95349">
        <ele>1165.9</ele>
        <time>2026-07-14T08:03:20Z</time>
      </trkpt>
      <trkpt lat="45.19859" lon="5.9535">
        <ele>1165.9</ele>
        <time>2026-07-14T08:03:21Z</time>
      </trkpt>
      <trkpt lat="45.19859" lon="5.95351">
        <ele>1165.8</ele>
        <time>2026-07-14T08:03:22Z</time>
      </trkpt>
      <trkpt lat="45.19859" lon="5.95352">
        <ele>1165.7</ele>
        <time>2026-07-14T08:03:23Z</time>
      </trkpt>
      <trkpt lat="45.19859" lon="5.95353">
        <ele>1165.7</ele>
        <time>2026-07-14T08:03:24Z</time>
      </trkpt>
      <trkpt lat="45.19858" lon="5.95354">
        <ele>1165.6</ele>
        <time>2026-07-14T08:03:25Z</time>
      </trkpt>
      <trkpt lat="45.19858" lon="5.95354">
        <ele>1165.6</ele>
        <time>2026-07-14T08:03:26Z</time>
      </trkpt>
      <trkpt lat="45.19858" lon="5.95355">
        <ele>1165.6</ele>
        <time>2026-07-14T08:03:27Z</time>
      </trkpt>
      <trkpt lat="45.19858" lon="5.95355">
        <ele>1165.5</ele>
        <time>2026-07-14T08:03:28Z</time>
      </trkpt>
      <trkpt lat="45.19857" lon="5.95357">
        <ele>1165.4</ele>
        <time>2026-07-14T08:03:30Z</time>
      </trkpt>
      <trkpt lat="45.19857" lon="5.95358">
        <ele>1165.4</ele>
        <time>2026-07-14T08:03:31Z</time>
      </trkpt>
      <trkpt lat="45.19856" lon="5.95359">
        <ele>1165.3</ele>
        <time>2026-07-14T08:03:32Z</time>
      </trkpt>
      <trkpt lat="45.19856" lon="5.9536">
        <ele>1165.3</ele>
        <time>2026-07-14T08:03:33Z</time>
      </trkpt>
      <trkpt lat="45.19856" lon="5.95361">
        <ele>1165.2</ele>
        <time>2026-07-14T08:03:34Z</time>
      </trkpt>
      <trkpt lat="45.19856" lon="5.95363">
        <ele>1165.1</ele>
        <time>2026-07-14T08:03:36Z</time>
      </trkpt>
      <trkpt lat="45.19857" lon="5.95364">
        <ele>1165.1</ele>
        <time>2026-07-14T08:03:37Z</time>
      </trkpt>
      <trkpt lat="45.19857" lon="5.95365">
        <ele>1165</ele>
        <time>2026-07-14T08:03:38Z</time>
      </trkpt>
      <trkpt lat="45.19857" lon="5.95366">
        <ele>1165</ele>
        <time>2026-07-14T08:03:39Z</time>
      </trkpt>
      <trkpt lat="45.19857" lon="5.95367">
        <ele>1165</ele>
        <time>2026-07-14T08:03:40Z</time>
      </trkpt>
      <trkpt lat="45.19857" lon="5.95368">
        <ele>1164.9</ele>
        <time>2026-07-14T08:03:41Z</time>
      </trkpt>
      <trkpt lat="45.19857" lon="5.95369">
        <ele>1164.9</ele>
        <time>2026-07-14T08:03:42Z</time>
      </trkpt>
      <trkpt lat="45.19857" lon="5.95371">
        <ele>1164.9</ele>
        <time>2026-07-14T08:03:43Z</time>
      </trkpt>
      <trkpt lat="45.19857" lon="5.95372">
        <ele>1164.8</ele>
        <time>2026-07-14T08:03:44Z</time>
      </trkpt>
      <trkpt lat="45.19856" lon="5.95373">
        <ele>1164.8</ele>
        <time>2026-07-14T08:03:45Z</time>
      </trkpt>
      <trkpt lat="45.19856" lon="5.95374">
        <ele>1164.8</ele>
        <time>2026-07-14T08:03:46Z</time>
      </trkpt>
      <trkpt lat="45.19856" lon="5.95375">
        <ele>1164.8</ele>
        <time>2026-07-14T08:03:47Z</time>
      </trkpt>
      <trkpt lat="45.19855" lon="5.95376">
        <ele>1164.8</ele>
        <time>2026-07-14T08:03:48Z</time>
      </trkpt>
      <trkpt lat="45.19855" lon="5.95377">
        <ele>1164.8</ele>
        <time>2026-07-14T08:03:49Z</time>
      </trkpt>
      <trkpt lat="45.19855" lon="5.95378">
        <ele>1164.8</ele>
        <time>2026-07-14T08:03:50Z</time>
      </trkpt>
      <trkpt lat="45.19854" lon="5.95379">
        <ele>1164.8</ele>
        <time>2026-07-14T08:03:51Z</time>
      </trkpt>
      <trkpt lat="45.19854" lon="5.9538">
        <ele>1164.9</ele>
        <time>2026-07-14T08:03:52Z</time>
      </trkpt>
      <trkpt lat="45.19853" lon="5.95381">
        <ele>1164.9</ele>
        <time>2026-07-14T08:03:53Z</time>
      </trkpt>
      <trkpt lat="45.19853" lon="5.95381">
        <ele>1165</ele>
        <time>2026-07-14T08:03:54Z</time>
      </trkpt>
      <trkpt lat="45.19852" lon="5.95382">
        <ele>1165</ele>
        <time>2026-07-14T08:03:55Z</time>
      </trkpt>
      <trkpt lat="45.19852" lon="5.95383">
        <ele>1165</ele>
        <time>2026-07-14T08:03:56Z</time>
      </trkpt>
      <trkpt lat="45.19852" lon="5.95383">
        <ele>1165.1</ele>
        <time>2026-07-14T08:03:57Z</time>
      </trkpt>
      <trkpt lat="45.19851" lon="5.95383">
        <ele>1165.1</ele>
        <time>2026-07-14T08:03:58Z</time>
      </trkpt>
      <trkpt lat="45.19851" lon="5.95383">
        <ele>1165.1</ele>
        <time>2026-07-14T08:03:59Z</time>
      </trkpt>
      <trkpt lat="45.19851" lon="5.95384">
        <ele>1165.1</ele>
        <time>2026-07-14T08:04:00Z</time>
      </trkpt>
      <trkpt lat="45.19851" lon="5.95384">
        <ele>1165.1</ele>
        <time>2026-07-14T08:04:01Z</time>
      </trkpt>
      <trkpt lat="45.19851" lon="5.95384">
        <ele>1165.2</ele>
        <time>2026-07-14T08:04:02Z</time>
      </trkpt>
      <trkpt lat="45.19851" lon="5.95384">
        <ele>1165.2</ele>
        <time>2026-07-14T08:04:03Z</time>
      </trkpt>
      <trkpt lat="45.1985" lon="5.95384">
        <ele>1165.2</ele>
        <time>2026-07-14T08:04:04Z</time>
      </trkpt>
      <trkpt lat="45.19849" lon="5.95383">
        <ele>1165.4</ele>
        <time>2026-07-14T08:04:05Z</time>
      </trkpt>
      <trkpt lat="45.19849" lon="5.95383">
        <ele>1165.5</ele>
        <time>2026-07-14T08:04:06Z</time>
      </trkpt>
      <trkpt lat="45.19848" lon="5.95382">
        <ele>1165.6</ele>
        <time>2026-07-14T08:04:07Z</time>
      </trkpt>
      <trkpt lat="45.19848" lon="5.95382">
        <ele>1165.7</ele>
        <time>2026-07-14T08:04:08Z</time>
      </trkpt>
      <trkpt lat="45.19848" lon="5.95382">
        <ele>1165.7</ele>
        <time>2026-07-14T08:04:09Z</time>
      </trkpt>
      <trkpt lat="45.19848" lon="5.95382">
        <ele>1165.7</ele>
        <time>2026-07-14T08:04:10Z</time>
      </trkpt>
      <trkpt lat="45.19847" lon="5.95382">
        <ele>1165.8</ele>
        <time>2026-07-14T08:04:11Z</time>
      </trkpt>
      <trkpt lat="45.19847" lon="5.95381">
        <ele>1165.8</ele>
        <time>2026-07-14T08:04:12Z</time>
      </trkpt>
      <trkpt lat="45.19847" lon="5.95381">
        <ele>1165.9</ele>
        <time>2026-07-14T08:04:13Z</time>
      </trkpt>
      <trkpt lat="45.19846" lon="5.95381">
        <ele>1166</ele>
        <time>2026-07-14T08:04:14Z</time>
      </trkpt>
      <trkpt lat="45.19846" lon="5.95382">
        <ele>1166</ele>
        <time>2026-07-14T08:04:15Z</time>
      </trkpt>
      <trkpt lat="45.19846" lon="5.95382">
        <ele>1166.1</ele>
        <time>2026-07-14T08:04:16Z</time>
      </trkpt>
      <trkpt lat="45.19845" lon="5.95383">
        <ele>1166.2</ele>
        <time>2026-07-14T08:04:17Z</time>
      </trkpt>
      <trkpt lat="45.19845" lon="5.95383">
        <ele>1166.3</ele>
        <time>2026-07-14T08:04:18Z</time>
      </trkpt>
      <trkpt lat="45.19845" lon="5.95384">
        <ele>1166.4</ele>
        <time>2026-07-14T08:04:19Z</time>
      </trkpt>
      <trkpt lat="45.19845" lon="5.95384">
        <ele>1166.5</ele>
        <time>2026-07-14T08:04:20Z</time>
      </trkpt>
      <trkpt lat="45.19845" lon="5.95385">
        <ele>1166.7</ele>
        <time>2026-07-14T08:04:21Z</time>
      </trkpt>
      <trkpt lat="45.19845" lon="5.95386">
        <ele>1166.7</ele>
        <time>2026-07-14T08:04:22Z</time>
      </trkpt>
      <trkpt lat="45.19845" lon="5.95386">
        <ele>1166.8</ele>
        <time>2026-07-14T08:04:23Z</time>
      </trkpt>
      <trkpt lat="45.19845" lon="5.95386">
        <ele>1166.8</ele>
        <time>2026-07-14T08:04:24Z</time>
      </trkpt>
      <trkpt lat="45.19845" lon="5.95386">
        <ele>1166.8</ele>
        <time>2026-07-14T08:04:26Z</time>
      </trkpt>
      <trkpt lat="45.19845" lon="5.95387">
        <ele>1167</ele>
        <time>2026-07-14T08:04:28Z</time>
      </trkpt>
      <trkpt lat="45.19845" lon="5.95387">
        <ele>1167.1</ele>
        <time>2026-07-14T08:04:29Z</time>
      </trkpt>
      <trkpt lat="45.19844" lon="5.95388">
        <ele>1167.3</ele>
        <time>2026-07-14T08:04:30Z</time>
      </trkpt>
      <trkpt lat="45.19843" lon="5.95388">
        <ele>1167.5</ele>
        <time>2026-07-14T08:04:31Z</time>
      </trkpt>
      <trkpt lat="45.19843" lon="5.95388">
        <ele>1167.7</ele>
        <time>2026-07-14T08:04:32Z</time>
      </trkpt>
      <trkpt lat="45.19842" lon="5.95387">
        <ele>1168</ele>
        <time>2026-07-14T08:04:34Z</time>
      </trkpt>
      <trkpt lat="45.19841" lon="5.95387">
        <ele>1168.1</ele>
        <time>2026-07-14T08:04:35Z</time>
      </trkpt>
      <trkpt lat="45.19841" lon="5.95386">
        <ele>1168.4</ele>
        <time>2026-07-14T08:04:37Z</time>
      </trkpt>
      <trkpt lat="45.19841" lon="5.95386">
        <ele>1168.4</ele>
        <time>2026-07-14T08:04:38Z</time>
      </trkpt>
      <trkpt lat="45.19841" lon="5.95386">
        <ele>1168.5</ele>
        <time>2026-07-14T08:04:39Z</time>
      </trkpt>
      <trkpt lat="45.19841" lon="5.95386">
        <ele>1168.6</ele>
        <time>2026-07-14T08:04:40Z</time>
      </trkpt>
      <trkpt lat="45.19841" lon="5.95386">
        <ele>1168.7</ele>
        <time>2026-07-14T08:04:42Z</time>
      </trkpt>
      <trkpt lat="45.19841" lon="5.95386">
        <ele>1168.7</ele>
        <time>2026-07-14T08:04:43Z</time>
      </trkpt>
      <trkpt lat="45.19841" lon="5.95386">
        <ele>1168.7</ele>
        <time>2026-07-14T08:04:44Z</time>
      </trkpt>
      <trkpt lat="45.19841" lon="5.95386">
        <ele>1168.8</ele>
        <time>2026-07-14T08:04:45Z</time>
      </trkpt>
      <trkpt lat="45.19841" lon="5.95386">
        <ele>1168.8</ele>
        <time>2026-07-14T08:04:46Z</time>
      </trkpt>
      <trkpt lat="45.19841" lon="5.95386">
        <ele>1168.8</ele>
        <time>2026-07-14T08:04:47Z</time>
      </trkpt>
      <trkpt lat="45.19841" lon="5.95386">
        <ele>1168.8</ele>
        <time>2026-07-14T08:04:49Z</time>
      </trkpt>
      <trkpt lat="45.19841" lon="5.95387">
        <ele>1168.9</ele>
        <time>2026-07-14T08:04:50Z</time>
      </trkpt>
      <trkpt lat="45.19841" lon="5.95386">
        <ele>1168.9</ele>
        <time>2026-07-14T08:04:51Z</time>
      </trkpt>
      <trkpt lat="45.19841" lon="5.95387">
        <ele>1168.9</ele>
        <time>2026-07-14T08:04:52Z</time>
      </trkpt>
      <trkpt lat="45.19841" lon="5.95387">
        <ele>1168.9</ele>
        <time>2026-07-14T08:04:53Z</time>
      </trkpt>
      <trkpt lat="45.19841" lon="5.95387">
        <ele>1169</ele>
        <time>2026-07-14T08:04:54Z</time>
      </trkpt>
      <trkpt lat="45.19841" lon="5.95387">
        <ele>1169</ele>
        <time>2026-07-14T08:04:56Z</time>
      </trkpt>
      <trkpt lat="45.19841" lon="5.95387">
        <ele>1169</ele>
        <time>2026-07-14T08:04:57Z</time>
      </trkpt>
      <trkpt lat="45.19841" lon="5.95387">
        <ele>1169</ele>
        <time>2026-07-14T08:04:58Z</time>
      </trkpt>
      <trkpt lat="45.19841" lon="5.95387">
        <ele>1169</ele>
        <time>2026-07-14T08:04:59Z</time>
      </trkpt>
      <trkpt lat="45.19841" lon="5.95387">
        <ele>1169</ele>
        <time>2026-07-14T08:05:00Z</time>
      </trkpt>
      <trkpt lat="45.19841" lon="5.95387">
        <ele>1169</ele>
        <time>2026-07-14T08:05:01Z</time>
      </trkpt>
      <trkpt lat="45.19841" lon="5.95387">
        <ele>1169.2</ele>
        <time>2026-07-14T08:05:03Z</time>
      </trkpt>
      <trkpt lat="45.19841" lon="5.95387">
        <ele>1169.3</ele>
        <time>2026-07-14T08:05:04Z</time>
      </trkpt>
      <trkpt lat="45.1984" lon="5.95388">
        <ele>1169.4</ele>
        <time>2026-07-14T08:05:06Z</time>
      </trkpt>
      <trkpt lat="45.1984" lon="5.95389">
        <ele>1169.6</ele>
        <time>2026-07-14T08:05:07Z</time>
      </trkpt>
      <trkpt lat="45.1984" lon="5.95389">
        <ele>1169.7</ele>
        <time>2026-07-14T08:05:08Z</time>
      </trkpt>
      <trkpt lat="45.1984" lon="5.95389">
        <ele>1169.8</ele>
        <time>2026-07-14T08:05:09Z</time>
      </trkpt>
      <trkpt lat="45.1984" lon="5.9539">
        <ele>1169.9</ele>
        <time>2026-07-14T08:05:10Z</time>
      </trkpt>
      <trkpt lat="45.1984" lon="5.9539">
        <ele>1170</ele>
        <time>2026-07-14T08:05:11Z</time>
      </trkpt>
      <trkpt lat="45.1984" lon="5.9539">
        <ele>1170.1</ele>
        <time>2026-07-14T08:05:12Z</time>
      </trkpt>
      <trkpt lat="45.19839" lon="5.9539">
        <ele>1170.2</ele>
        <time>2026-07-14T08:05:13Z</time>
      </trkpt>
      <trkpt lat="45.19839" lon="5.9539">
        <ele>1170.3</ele>
        <time>2026-07-14T08:05:14Z</time>
      </trkpt>
      <trkpt lat="45.19838" lon="5.9539">
        <ele>1170.5</ele>
        <time>2026-07-14T08:05:15Z</time>
      </trkpt>
      <trkpt lat="45.19838" lon="5.9539">
        <ele>1170.7</ele>
        <time>2026-07-14T08:05:16Z</time>
      </trkpt>
      <trkpt lat="45.19837" lon="5.9539">
        <ele>1170.9</ele>
        <time>2026-07-14T08:05:17Z</time>
      </trkpt>
      <trkpt lat="45.19837" lon="5.9539">
        <ele>1171.1</ele>
        <time>2026-07-14T08:05:18Z</time>
      </trkpt>
      <trkpt lat="45.19836" lon="5.9539">
        <ele>1171.3</ele>
        <time>2026-07-14T08:05:19Z</time>
      </trkpt>
      <trkpt lat="45.19836" lon="5.9539">
        <ele>1171.4</ele>
        <time>2026-07-14T08:05:20Z</time>
      </trkpt>
      <trkpt lat="45.19836" lon="5.95391">
        <ele>1171.6</ele>
        <time>2026-07-14T08:05:21Z</time>
      </trkpt>
      <trkpt lat="45.19836" lon="5.95392">
        <ele>1171.8</ele>
        <time>2026-07-14T08:05:22Z</time>
      </trkpt>
      <trkpt lat="45.19836" lon="5.95393">
        <ele>1172</ele>
        <time>2026-07-14T08:05:23Z</time>
      </trkpt>
      <trkpt lat="45.19835" lon="5.95393">
        <ele>1172.1</ele>
        <time>2026-07-14T08:05:24Z</time>
      </trkpt>
      <trkpt lat="45.19835" lon="5.95393">
        <ele>1172.3</ele>
        <time>2026-07-14T08:05:25Z</time>
      </trkpt>
      <trkpt lat="45.19834" lon="5.95394">
        <ele>1172.5</ele>
        <time>2026-07-14T08:05:26Z</time>
      </trkpt>
      <trkpt lat="45.19834" lon="5.95394">
        <ele>1172.8</ele>
        <time>2026-07-14T08:05:27Z</time>
      </trkpt>
      <trkpt lat="45.19834" lon="5.95394">
        <ele>1172.8</ele>
        <time>2026-07-14T08:05:28Z</time>
      </trkpt>
      <trkpt lat="45.19833" lon="5.95395">
        <ele>1173</ele>
        <time>2026-07-14T08:05:29Z</time>
      </trkpt>
      <trkpt lat="45.19833" lon="5.95395">
        <ele>1173.1</ele>
        <time>2026-07-14T08:05:30Z</time>
      </trkpt>
      <trkpt lat="45.19833" lon="5.95396">
        <ele>1173.3</ele>
        <time>2026-07-14T08:05:31Z</time>
      </trkpt>
      <trkpt lat="45.19833" lon="5.95397">
        <ele>1173.5</ele>
        <time>2026-07-14T08:05:32Z</time>
      </trkpt>
      <trkpt lat="45.19832" lon="5.95397">
        <ele>1173.6</ele>
        <time>2026-07-14T08:05:33Z</time>
      </trkpt>
      <trkpt lat="45.19832" lon="5.95398">
        <ele>1173.8</ele>
        <time>2026-07-14T08:05:34Z</time>
      </trkpt>
      <trkpt lat="45.19832" lon="5.95398">
        <ele>1174</ele>
        <time>2026-07-14T08:05:35Z</time>
      </trkpt>
      <trkpt lat="45.19832" lon="5.95398">
        <ele>1174</ele>
        <time>2026-07-14T08:05:36Z</time>
      </trkpt>
      <trkpt lat="45.19831" lon="5.95399">
        <ele>1174.2</ele>
        <time>2026-07-14T08:05:37Z</time>
      </trkpt>
      <trkpt lat="45.19831" lon="5.95399">
        <ele>1174.3</ele>
        <time>2026-07-14T08:05:38Z</time>
      </trkpt>
      <trkpt lat="45.19831" lon="5.954">
        <ele>1174.4</ele>
        <time>2026-07-14T08:05:39Z</time>
      </trkpt>
      <trkpt lat="45.19831" lon="5.954">
        <ele>1174.5</ele>
        <time>2026-07-14T08:05:40Z</time>
      </trkpt>
      <trkpt lat="45.19831" lon="5.954">
        <ele>1174.6</ele>
        <time>2026-07-14T08:05:41Z</time>
      </trkpt>
      <trkpt lat="45.19831" lon="5.95401">
        <ele>1174.8</ele>
        <time>2026-07-14T08:05:42Z</time>
      </trkpt>
      <trkpt lat="45.19831" lon="5.95402">
        <ele>1175</ele>
        <time>2026-07-14T08:05:43Z</time>
      </trkpt>
      <trkpt lat="45.19831" lon="5.95402">
        <ele>1175.1</ele>
        <time>2026-07-14T08:05:44Z</time>
      </trkpt>
      <trkpt lat="45.19831" lon="5.95402">
        <ele>1175.2</ele>
        <time>2026-07-14T08:05:45Z</time>
      </trkpt>
      <trkpt lat="45.19831" lon="5.95403">
        <ele>1175.4</ele>
        <time>2026-07-14T08:05:46Z</time>
      </trkpt>
      <trkpt lat="45.19831" lon="5.95403">
        <ele>1175.5</ele>
        <time>2026-07-14T08:05:47Z</time>
      </trkpt>
      <trkpt lat="45.1983" lon="5.95403">
        <ele>1175.7</ele>
        <time>2026-07-14T08:05:48Z</time>
      </trkpt>
      <trkpt lat="45.1983" lon="5.95403">
        <ele>1175.7</ele>
        <time>2026-07-14T08:05:49Z</time>
      </trkpt>
      <trkpt lat="45.1983" lon="5.95403">
        <ele>1175.7</ele>
        <time>2026-07-14T08:05:50Z</time>
      </trkpt>
      <trkpt lat="45.1983" lon="5.95403">
        <ele>1175.8</ele>
        <time>2026-07-14T08:05:51Z</time>
      </trkpt>
      <trkpt lat="45.1983" lon="5.95403">
        <ele>1175.8</ele>
        <time>2026-07-14T08:05:52Z</time>
      </trkpt>
      <trkpt lat="45.1983" lon="5.95403">
        <ele>1175.8</ele>
        <time>2026-07-14T08:05:53Z</time>
      </trkpt>
      <trkpt lat="45.1983" lon="5.95404">
        <ele>1175.8</ele>
        <time>2026-07-14T08:05:54Z</time>
      </trkpt>
      <trkpt lat="45.1983" lon="5.95404">
        <ele>1175.9</ele>
        <time>2026-07-14T08:05:55Z</time>
      </trkpt>
      <trkpt lat="45.1983" lon="5.95404">
        <ele>1176</ele>
        <time>2026-07-14T08:05:56Z</time>
      </trkpt>
      <trkpt lat="45.19829" lon="5.95404">
        <ele>1176.2</ele>
        <time>2026-07-14T08:05:57Z</time>
      </trkpt>
      <trkpt lat="45.19829" lon="5.95405">
        <ele>1176.4</ele>
        <time>2026-07-14T08:05:58Z</time>
      </trkpt>
      <trkpt lat="45.19829" lon="5.95405">
        <ele>1176.5</ele>
        <time>2026-07-14T08:05:59Z</time>
      </trkpt>
      <trkpt lat="45.19828" lon="5.95405">
        <ele>1176.7</ele>
        <time>2026-07-14T08:06:00Z</time>
      </trkpt>
      <trkpt lat="45.19828" lon="5.95405">
        <ele>1176.8</ele>
        <time>2026-07-14T08:06:01Z</time>
      </trkpt>
      <trkpt lat="45.19828" lon="5.95406">
        <ele>1177</ele>
        <time>2026-07-14T08:06:02Z</time>
      </trkpt>
      <trkpt lat="45.19827" lon="5.95406">
        <ele>1177.1</ele>
        <time>2026-07-14T08:06:03Z</time>
      </trkpt>
      <trkpt lat="45.19827" lon="5.95406">
        <ele>1177.3</ele>
        <time>2026-07-14T08:06:04Z</time>
      </trkpt>
      <trkpt lat="45.19826" lon="5.95407">
        <ele>1177.5</ele>
        <time>2026-07-14T08:06:05Z</time>
      </trkpt>
      <trkpt lat="45.19826" lon="5.95407">
        <ele>1177.7</ele>
        <time>2026-07-14T08:06:06Z</time>
      </trkpt>
      <trkpt lat="45.19825" lon="5.95407">
        <ele>1177.9</ele>
        <time>2026-07-14T08:06:07Z</time>
      </trkpt>
      <trkpt lat="45.19824" lon="5.95407">
        <ele>1178.2</ele>
        <time>2026-07-14T08:06:08Z</time>
      </trkpt>
      <trkpt lat="45.19824" lon="5.95407">
        <ele>1178.3</ele>
        <time>2026-07-14T08:06:09Z</time>
      </trkpt>
      <trkpt lat="45.19824" lon="5.95406">
        <ele>1178.4</ele>
        <time>2026-07-14T08:06:10Z</time>
      </trkpt>
      <trkpt lat="45.19824" lon="5.95406">
        <ele>1178.5</ele>
        <time>2026-07-14T08:06:11Z</time>
      </trkpt>
      <trkpt lat="45.19823" lon="5.95406">
        <ele>1178.7</ele>
        <time>2026-07-14T08:06:12Z</time>
      </trkpt>
      <trkpt lat="45.19823" lon="5.95405">
        <ele>1178.9</ele>
        <time>2026-07-14T08:06:13Z</time>
      </trkpt>
      <trkpt lat="45.19822" lon="5.95405">
        <ele>1179</ele>
        <time>2026-07-14T08:06:14Z</time>
      </trkpt>
      <trkpt lat="45.19822" lon="5.95405">
        <ele>1179.1</ele>
        <time>2026-07-14T08:06:15Z</time>
      </trkpt>
      <trkpt lat="45.19822" lon="5.95405">
        <ele>1179.2</ele>
        <time>2026-07-14T08:06:16Z</time>
      </trkpt>
      <trkpt lat="45.19821" lon="5.95405">
        <ele>1179.4</ele>
        <time>2026-07-14T08:06:17Z</time>
      </trkpt>
      <trkpt lat="45.19821" lon="5.95405">
        <ele>1179.4</ele>
        <time>2026-07-14T08:06:18Z</time>
      </trkpt>
      <trkpt lat="45.19821" lon="5.95405">
        <ele>1179.6</ele>
        <time>2026-07-14T08:06:19Z</time>
      </trkpt>
      <trkpt lat="45.19821" lon="5.95405">
        <ele>1179.7</ele>
        <time>2026-07-14T08:06:21Z</time>
      </trkpt>
      <trkpt lat="45.19821" lon="5.95405">
        <ele>1179.8</ele>
        <time>2026-07-14T08:06:22Z</time>
      </trkpt>
      <trkpt lat="45.19822" lon="5.95405">
        <ele>1179.8</ele>
        <time>2026-07-14T08:06:23Z</time>
      </trkpt>
      <trkpt lat="45.19822" lon="5.95405">
        <ele>1179.9</ele>
        <time>2026-07-14T08:06:24Z</time>
      </trkpt>
      <trkpt lat="45.19821" lon="5.95405">
        <ele>1179.9</ele>
        <time>2026-07-14T08:06:25Z</time>
      </trkpt>
      <trkpt lat="45.19821" lon="5.95405">
        <ele>1180</ele>
        <time>2026-07-14T08:06:26Z</time>
      </trkpt>
      <trkpt lat="45.19821" lon="5.95406">
        <ele>1180.1</ele>
        <time>2026-07-14T08:06:27Z</time>
      </trkpt>
      <trkpt lat="45.19821" lon="5.95406">
        <ele>1180.2</ele>
        <time>2026-07-14T08:06:28Z</time>
      </trkpt>
      <trkpt lat="45.1982" lon="5.95406">
        <ele>1180.4</ele>
        <time>2026-07-14T08:06:29Z</time>
      </trkpt>
      <trkpt lat="45.1982" lon="5.95407">
        <ele>1180.6</ele>
        <time>2026-07-14T08:06:30Z</time>
      </trkpt>
      <trkpt lat="45.1982" lon="5.95407">
        <ele>1180.8</ele>
        <time>2026-07-14T08:06:31Z</time>
      </trkpt>
      <trkpt lat="45.19819" lon="5.95407">
        <ele>1180.9</ele>
        <time>2026-07-14T08:06:32Z</time>
      </trkpt>
      <trkpt lat="45.19819" lon="5.95408">
        <ele>1181</ele>
        <time>2026-07-14T08:06:33Z</time>
      </trkpt>
      <trkpt lat="45.19819" lon="5.95408">
        <ele>1181.1</ele>
        <time>2026-07-14T08:06:34Z</time>
      </trkpt>
      <trkpt lat="45.19819" lon="5.95408">
        <ele>1181.2</ele>
        <time>2026-07-14T08:06:35Z</time>
      </trkpt>
      <trkpt lat="45.19818" lon="5.95409">
        <ele>1181.4</ele>
        <time>2026-07-14T08:06:36Z</time>
      </trkpt>
      <trkpt lat="45.19818" lon="5.95409">
        <ele>1181.6</ele>
        <time>2026-07-14T08:06:37Z</time>
      </trkpt>
      <trkpt lat="45.19818" lon="5.9541">
        <ele>1181.8</ele>
        <time>2026-07-14T08:06:38Z</time>
      </trkpt>
      <trkpt lat="45.19817" lon="5.95411">
        <ele>1182</ele>
        <time>2026-07-14T08:06:39Z</time>
      </trkpt>
      <trkpt lat="45.19817" lon="5.95411">
        <ele>1182.2</ele>
        <time>2026-07-14T08:06:40Z</time>
      </trkpt>
      <trkpt lat="45.19816" lon="5.95411">
        <ele>1182.4</ele>
        <time>2026-07-14T08:06:41Z</time>
      </trkpt>
      <trkpt lat="45.19816" lon="5.95412">
        <ele>1182.5</ele>
        <time>2026-07-14T08:06:42Z</time>
      </trkpt>
      <trkpt lat="45.19816" lon="5.95412">
        <ele>1182.7</ele>
        <time>2026-07-14T08:06:43Z</time>
      </trkpt>
      <trkpt lat="45.19815" lon="5.95413">
        <ele>1182.9</ele>
        <time>2026-07-14T08:06:44Z</time>
      </trkpt>
      <trkpt lat="45.19815" lon="5.95413">
        <ele>1183</ele>
        <time>2026-07-14T08:06:45Z</time>
      </trkpt>
      <trkpt lat="45.19815" lon="5.95413">
        <ele>1183.2</ele>
        <time>2026-07-14T08:06:46Z</time>
      </trkpt>
      <trkpt lat="45.19814" lon="5.95414">
        <ele>1183.4</ele>
        <time>2026-07-14T08:06:47Z</time>
      </trkpt>
      <trkpt lat="45.19814" lon="5.95414">
        <ele>1183.5</ele>
        <time>2026-07-14T08:06:48Z</time>
      </trkpt>
      <trkpt lat="45.19813" lon="5.95415">
        <ele>1183.9</ele>
        <time>2026-07-14T08:06:50Z</time>
      </trkpt>
      <trkpt lat="45.19813" lon="5.95415">
        <ele>1184.1</ele>
        <time>2026-07-14T08:06:51Z</time>
      </trkpt>
      <trkpt lat="45.19812" lon="5.95415">
        <ele>1184.3</ele>
        <time>2026-07-14T08:06:52Z</time>
      </trkpt>
      <trkpt lat="45.19812" lon="5.95415">
        <ele>1184.5</ele>
        <time>2026-07-14T08:06:53Z</time>
      </trkpt>
      <trkpt lat="45.19811" lon="5.95415">
        <ele>1184.6</ele>
        <time>2026-07-14T08:06:54Z</time>
      </trkpt>
      <trkpt lat="45.19811" lon="5.95415">
        <ele>1184.7</ele>
        <time>2026-07-14T08:06:55Z</time>
      </trkpt>
      <trkpt lat="45.19811" lon="5.95415">
        <ele>1184.8</ele>
        <time>2026-07-14T08:06:56Z</time>
      </trkpt>
      <trkpt lat="45.1981" lon="5.95415">
        <ele>1185</ele>
        <time>2026-07-14T08:06:57Z</time>
      </trkpt>
      <trkpt lat="45.1981" lon="5.95415">
        <ele>1185.1</ele>
        <time>2026-07-14T08:06:58Z</time>
      </trkpt>
      <trkpt lat="45.1981" lon="5.95414">
        <ele>1185.2</ele>
        <time>2026-07-14T08:06:59Z</time>
      </trkpt>
      <trkpt lat="45.1981" lon="5.95414">
        <ele>1185.4</ele>
        <time>2026-07-14T08:07:00Z</time>
      </trkpt>
      <trkpt lat="45.19809" lon="5.95413">
        <ele>1185.6</ele>
        <time>2026-07-14T08:07:01Z</time>
      </trkpt>
      <trkpt lat="45.19809" lon="5.95413">
        <ele>1185.7</ele>
        <time>2026-07-14T08:07:02Z</time>
      </trkpt>
      <trkpt lat="45.19809" lon="5.95413">
        <ele>1185.9</ele>
        <time>2026-07-14T08:07:03Z</time>
      </trkpt>
      <trkpt lat="45.19809" lon="5.95413">
        <ele>1185.9</ele>
        <time>2026-07-14T08:07:04Z</time>
      </trkpt>
      <trkpt lat="45.19808" lon="5.95412">
        <ele>1186</ele>
        <time>2026-07-14T08:07:05Z</time>
      </trkpt>
      <trkpt lat="45.19808" lon="5.95413">
        <ele>1186.1</ele>
        <time>2026-07-14T08:07:06Z</time>
      </trkpt>
      <trkpt lat="45.19808" lon="5.95413">
        <ele>1186.2</ele>
        <time>2026-07-14T08:07:07Z</time>
      </trkpt>
      <trkpt lat="45.19808" lon="5.95413">
        <ele>1186.2</ele>
        <time>2026-07-14T08:07:08Z</time>
      </trkpt>
      <trkpt lat="45.19808" lon="5.95413">
        <ele>1186.3</ele>
        <time>2026-07-14T08:07:10Z</time>
      </trkpt>
      <trkpt lat="45.19808" lon="5.95413">
        <ele>1186.3</ele>
        <time>2026-07-14T08:07:11Z</time>
      </trkpt>
      <trkpt lat="45.19808" lon="5.95413">
        <ele>1186.4</ele>
        <time>2026-07-14T08:07:12Z</time>
      </trkpt>
      <trkpt lat="45.19808" lon="5.95413">
        <ele>1186.5</ele>
        <time>2026-07-14T08:07:13Z</time>
      </trkpt>
      <trkpt lat="45.19807" lon="5.95413">
        <ele>1186.5</ele>
        <time>2026-07-14T08:07:14Z</time>
      </trkpt>
      <trkpt lat="45.19807" lon="5.95414">
        <ele>1186.6</ele>
        <time>2026-07-14T08:07:15Z</time>
      </trkpt>
      <trkpt lat="45.19807" lon="5.95414">
        <ele>1186.7</ele>
        <time>2026-07-14T08:07:16Z</time>
      </trkpt>
      <trkpt lat="45.19807" lon="5.95414">
        <ele>1186.8</ele>
        <time>2026-07-14T08:07:17Z</time>
      </trkpt>
      <trkpt lat="45.19807" lon="5.95414">
        <ele>1186.8</ele>
        <time>2026-07-14T08:07:18Z</time>
      </trkpt>
      <trkpt lat="45.19807" lon="5.95415">
        <ele>1187</ele>
        <time>2026-07-14T08:07:19Z</time>
      </trkpt>
      <trkpt lat="45.19807" lon="5.95416">
        <ele>1187.3</ele>
        <time>2026-07-14T08:07:20Z</time>
      </trkpt>
      <trkpt lat="45.19807" lon="5.95416">
        <ele>1187.5</ele>
        <time>2026-07-14T08:07:21Z</time>
      </trkpt>
      <trkpt lat="45.19806" lon="5.95417">
        <ele>1187.7</ele>
        <time>2026-07-14T08:07:22Z</time>
      </trkpt>
      <trkpt lat="45.19806" lon="5.95417">
        <ele>1187.9</ele>
        <time>2026-07-14T08:07:23Z</time>
      </trkpt>
      <trkpt lat="45.19806" lon="5.95418">
        <ele>1188</ele>
        <time>2026-07-14T08:07:24Z</time>
      </trkpt>
      <trkpt lat="45.19806" lon="5.95418">
        <ele>1188.1</ele>
        <time>2026-07-14T08:07:25Z</time>
      </trkpt>
      <trkpt lat="45.19806" lon="5.95419">
        <ele>1188.2</ele>
        <time>2026-07-14T08:07:26Z</time>
      </trkpt>
      <trkpt lat="45.19806" lon="5.95419">
        <ele>1188.3</ele>
        <time>2026-07-14T08:07:27Z</time>
      </trkpt>
      <trkpt lat="45.19806" lon="5.95419">
        <ele>1188.5</ele>
        <time>2026-07-14T08:07:28Z</time>
      </trkpt>
      <trkpt lat="45.19805" lon="5.9542">
        <ele>1188.6</ele>
        <time>2026-07-14T08:07:29Z</time>
      </trkpt>
      <trkpt lat="45.19805" lon="5.95421">
        <ele>1188.9</ele>
        <time>2026-07-14T08:07:30Z</time>
      </trkpt>
      <trkpt lat="45.19805" lon="5.95421">
        <ele>1189</ele>
        <time>2026-07-14T08:07:31Z</time>
      </trkpt>
      <trkpt lat="45.19804" lon="5.95421">
        <ele>1189.1</ele>
        <time>2026-07-14T08:07:32Z</time>
      </trkpt>
      <trkpt lat="45.19804" lon="5.95422">
        <ele>1189.3</ele>
        <time>2026-07-14T08:07:33Z</time>
      </trkpt>
      <trkpt lat="45.19804" lon="5.95422">
        <ele>1189.5</ele>
        <time>2026-07-14T08:07:34Z</time>
      </trkpt>
      <trkpt lat="45.19804" lon="5.95422">
        <ele>1189.6</ele>
        <time>2026-07-14T08:07:35Z</time>
      </trkpt>
      <trkpt lat="45.19804" lon="5.95422">
        <ele>1189.6</ele>
        <time>2026-07-14T08:07:36Z</time>
      </trkpt>
      <trkpt lat="45.19803" lon="5.95422">
        <ele>1189.7</ele>
        <time>2026-07-14T08:07:37Z</time>
      </trkpt>
      <trkpt lat="45.19803" lon="5.95422">
        <ele>1189.8</ele>
        <time>2026-07-14T08:07:38Z</time>
      </trkpt>
      <trkpt lat="45.19803" lon="5.95422">
        <ele>1189.9</ele>
        <time>2026-07-14T08:07:39Z</time>
      </trkpt>
      <trkpt lat="45.19803" lon="5.95423">
        <ele>1190</ele>
        <time>2026-07-14T08:07:40Z</time>
      </trkpt>
      <trkpt lat="45.19802" lon="5.95423">
        <ele>1190.3</ele>
        <time>2026-07-14T08:07:42Z</time>
      </trkpt>
      <trkpt lat="45.19802" lon="5.95423">
        <ele>1190.4</ele>
        <time>2026-07-14T08:07:43Z</time>
      </trkpt>
      <trkpt lat="45.19802" lon="5.95423">
        <ele>1190.4</ele>
        <time>2026-07-14T08:07:44Z</time>
      </trkpt>
      <trkpt lat="45.19802" lon="5.95423">
        <ele>1190.5</ele>
        <time>2026-07-14T08:07:45Z</time>
      </trkpt>
      <trkpt lat="45.19801" lon="5.95423">
        <ele>1190.6</ele>
        <time>2026-07-14T08:07:46Z</time>
      </trkpt>
      <trkpt lat="45.19801" lon="5.95424">
        <ele>1190.7</ele>
        <time>2026-07-14T08:07:47Z</time>
      </trkpt>
      <trkpt lat="45.198" lon="5.95425">
        <ele>1191.1</ele>
        <time>2026-07-14T08:07:49Z</time>
      </trkpt>
      <trkpt lat="45.198" lon="5.95425">
        <ele>1191.4</ele>
        <time>2026-07-14T08:07:50Z</time>
      </trkpt>
      <trkpt lat="45.198" lon="5.95425">
        <ele>1191.5</ele>
        <time>2026-07-14T08:07:51Z</time>
      </trkpt>
      <trkpt lat="45.19799" lon="5.95426">
        <ele>1191.8</ele>
        <time>2026-07-14T08:07:52Z</time>
      </trkpt>
      <trkpt lat="45.19799" lon="5.95426">
        <ele>1192</ele>
        <time>2026-07-14T08:07:53Z</time>
      </trkpt>
      <trkpt lat="45.19798" lon="5.95427">
        <ele>1192.1</ele>
        <time>2026-07-14T08:07:54Z</time>
      </trkpt>
      <trkpt lat="45.19799" lon="5.95427">
        <ele>1192.2</ele>
        <time>2026-07-14T08:07:55Z</time>
      </trkpt>
      <trkpt lat="45.19799" lon="5.95427">
        <ele>1192.3</ele>
        <time>2026-07-14T08:07:56Z</time>
      </trkpt>
      <trkpt lat="45.19799" lon="5.95427">
        <ele>1192.3</ele>
        <time>2026-07-14T08:07:57Z</time>
      </trkpt>
      <trkpt lat="45.19799" lon="5.95427">
        <ele>1192.4</ele>
        <time>2026-07-14T08:07:58Z</time>
      </trkpt>
      <trkpt lat="45.19799" lon="5.95426">
        <ele>1192.4</ele>
        <time>2026-07-14T08:07:59Z</time>
      </trkpt>
      <trkpt lat="45.19799" lon="5.95426">
        <ele>1192.4</ele>
        <time>2026-07-14T08:08:00Z</time>
      </trkpt>
      <trkpt lat="45.19799" lon="5.95427">
        <ele>1192.5</ele>
        <time>2026-07-14T08:08:01Z</time>
      </trkpt>
      <trkpt lat="45.19799" lon="5.95427">
        <ele>1192.6</ele>
        <time>2026-07-14T08:08:02Z</time>
      </trkpt>
      <trkpt lat="45.19798" lon="5.95427">
        <ele>1192.8</ele>
        <time>2026-07-14T08:08:03Z</time>
      </trkpt>
      <trkpt lat="45.19798" lon="5.95427">
        <ele>1192.9</ele>
        <time>2026-07-14T08:08:04Z</time>
      </trkpt>
      <trkpt lat="45.19798" lon="5.95427">
        <ele>1192.9</ele>
        <time>2026-07-14T08:08:05Z</time>
      </trkpt>
      <trkpt lat="45.19798" lon="5.95427">
        <ele>1193</ele>
        <time>2026-07-14T08:08:06Z</time>
      </trkpt>
      <trkpt lat="45.19798" lon="5.95427">
        <ele>1193</ele>
        <time>2026-07-14T08:08:07Z</time>
      </trkpt>
      <trkpt lat="45.19798" lon="5.95427">
        <ele>1193</ele>
        <time>2026-07-14T08:08:08Z</time>
      </trkpt>
      <trkpt lat="45.19798" lon="5.95427">
        <ele>1193</ele>
        <time>2026-07-14T08:08:09Z</time>
      </trkpt>
      <trkpt lat="45.19798" lon="5.95427">
        <ele>1193.1</ele>
        <time>2026-07-14T08:08:10Z</time>
      </trkpt>
      <trkpt lat="45.19798" lon="5.95427">
        <ele>1193.2</ele>
        <time>2026-07-14T08:08:11Z</time>
      </trkpt>
      <trkpt lat="45.19798" lon="5.95428">
        <ele>1193.2</ele>
        <time>2026-07-14T08:08:12Z</time>
      </trkpt>
      <trkpt lat="45.19798" lon="5.95428">
        <ele>1193.3</ele>
        <time>2026-07-14T08:08:13Z</time>
      </trkpt>
      <trkpt lat="45.19797" lon="5.95428">
        <ele>1193.4</ele>
        <time>2026-07-14T08:08:14Z</time>
      </trkpt>
      <trkpt lat="45.19797" lon="5.95429">
        <ele>1193.6</ele>
        <time>2026-07-14T08:08:15Z</time>
      </trkpt>
      <trkpt lat="45.19797" lon="5.95429">
        <ele>1193.7</ele>
        <time>2026-07-14T08:08:16Z</time>
      </trkpt>
      <trkpt lat="45.19797" lon="5.95429">
        <ele>1193.9</ele>
        <time>2026-07-14T08:08:17Z</time>
      </trkpt>
      <trkpt lat="45.19797" lon="5.9543">
        <ele>1194</ele>
        <time>2026-07-14T08:08:18Z</time>
      </trkpt>
      <trkpt lat="45.19797" lon="5.9543">
        <ele>1194.1</ele>
        <time>2026-07-14T08:08:19Z</time>
      </trkpt>
      <trkpt lat="45.19797" lon="5.95431">
        <ele>1194.3</ele>
        <time>2026-07-14T08:08:20Z</time>
      </trkpt>
      <trkpt lat="45.19796" lon="5.95431">
        <ele>1194.4</ele>
        <time>2026-07-14T08:08:21Z</time>
      </trkpt>
      <trkpt lat="45.19796" lon="5.95432">
        <ele>1194.6</ele>
        <time>2026-07-14T08:08:22Z</time>
      </trkpt>
      <trkpt lat="45.19796" lon="5.95432">
        <ele>1194.8</ele>
        <time>2026-07-14T08:08:23Z</time>
      </trkpt>
      <trkpt lat="45.19796" lon="5.95433">
        <ele>1194.9</ele>
        <time>2026-07-14T08:08:24Z</time>
      </trkpt>
      <trkpt lat="45.19796" lon="5.95433">
        <ele>1195</ele>
        <time>2026-07-14T08:08:25Z</time>
      </trkpt>
      <trkpt lat="45.19796" lon="5.95433">
        <ele>1195.1</ele>
        <time>2026-07-14T08:08:26Z</time>
      </trkpt>
      <trkpt lat="45.19795" lon="5.95433">
        <ele>1195.2</ele>
        <time>2026-07-14T08:08:27Z</time>
      </trkpt>
      <trkpt lat="45.19795" lon="5.95433">
        <ele>1195.3</ele>
        <time>2026-07-14T08:08:28Z</time>
      </trkpt>
      <trkpt lat="45.19795" lon="5.95434">
        <ele>1195.5</ele>
        <time>2026-07-14T08:08:29Z</time>
      </trkpt>
      <trkpt lat="45.19795" lon="5.95434">
        <ele>1195.6</ele>
        <time>2026-07-14T08:08:30Z</time>
      </trkpt>
      <trkpt lat="45.19794" lon="5.95434">
        <ele>1195.8</ele>
        <time>2026-07-14T08:08:31Z</time>
      </trkpt>
      <trkpt lat="45.19794" lon="5.95435">
        <ele>1195.9</ele>
        <time>2026-07-14T08:08:32Z</time>
      </trkpt>
      <trkpt lat="45.19794" lon="5.95435">
        <ele>1196</ele>
        <time>2026-07-14T08:08:33Z</time>
      </trkpt>
      <trkpt lat="45.19794" lon="5.95435">
        <ele>1196.1</ele>
        <time>2026-07-14T08:08:34Z</time>
      </trkpt>
      <trkpt lat="45.19793" lon="5.95435">
        <ele>1196.1</ele>
        <time>2026-07-14T08:08:35Z</time>
      </trkpt>
      <trkpt lat="45.19793" lon="5.95435">
        <ele>1196.3</ele>
        <time>2026-07-14T08:08:36Z</time>
      </trkpt>
      <trkpt lat="45.19793" lon="5.95435">
        <ele>1196.4</ele>
        <time>2026-07-14T08:08:37Z</time>
      </trkpt>
      <trkpt lat="45.19793" lon="5.95435">
        <ele>1196.5</ele>
        <time>2026-07-14T08:08:38Z</time>
      </trkpt>
      <trkpt lat="45.19792" lon="5.95435">
        <ele>1196.7</ele>
        <time>2026-07-14T08:08:39Z</time>
      </trkpt>
      <trkpt lat="45.19792" lon="5.95435">
        <ele>1196.8</ele>
        <time>2026-07-14T08:08:40Z</time>
      </trkpt>
      <trkpt lat="45.19792" lon="5.95435">
        <ele>1196.9</ele>
        <time>2026-07-14T08:08:41Z</time>
      </trkpt>
      <trkpt lat="45.19791" lon="5.95436">
        <ele>1197</ele>
        <time>2026-07-14T08:08:42Z</time>
      </trkpt>
      <trkpt lat="45.19791" lon="5.95436">
        <ele>1197.4</ele>
        <time>2026-07-14T08:08:43Z</time>
      </trkpt>
      <trkpt lat="45.1979" lon="5.95435">
        <ele>1197.7</ele>
        <time>2026-07-14T08:08:44Z</time>
      </trkpt>
      <trkpt lat="45.1979" lon="5.95436">
        <ele>1197.8</ele>
        <time>2026-07-14T08:08:45Z</time>
      </trkpt>
      <trkpt lat="45.19789" lon="5.95436">
        <ele>1198.2</ele>
        <time>2026-07-14T08:08:46Z</time>
      </trkpt>
      <trkpt lat="45.19788" lon="5.95436">
        <ele>1198.4</ele>
        <time>2026-07-14T08:08:47Z</time>
      </trkpt>
      <trkpt lat="45.19788" lon="5.95436">
        <ele>1198.6</ele>
        <time>2026-07-14T08:08:48Z</time>
      </trkpt>
      <trkpt lat="45.19787" lon="5.95436">
        <ele>1199</ele>
        <time>2026-07-14T08:08:49Z</time>
      </trkpt>
      <trkpt lat="45.19786" lon="5.95436">
        <ele>1199.2</ele>
        <time>2026-07-14T08:08:50Z</time>
      </trkpt>
      <trkpt lat="45.19785" lon="5.95436">
        <ele>1199.6</ele>
        <time>2026-07-14T08:08:51Z</time>
      </trkpt>
      <trkpt lat="45.19785" lon="5.95436">
        <ele>1199.7</ele>
        <time>2026-07-14T08:08:52Z</time>
      </trkpt>
      <trkpt lat="45.19785" lon="5.95436">
        <ele>1199.9</ele>
        <time>2026-07-14T08:08:53Z</time>
      </trkpt>
      <trkpt lat="45.19784" lon="5.95437">
        <ele>1200.1</ele>
        <time>2026-07-14T08:08:54Z</time>
      </trkpt>
      <trkpt lat="45.19784" lon="5.95437">
        <ele>1200.2</ele>
        <time>2026-07-14T08:08:55Z</time>
      </trkpt>
      <trkpt lat="45.19784" lon="5.95437">
        <ele>1200.3</ele>
        <time>2026-07-14T08:08:56Z</time>
      </trkpt>
      <trkpt lat="45.19783" lon="5.95437">
        <ele>1200.5</ele>
        <time>2026-07-14T08:08:57Z</time>
      </trkpt>
      <trkpt lat="45.19783" lon="5.95437">
        <ele>1200.6</ele>
        <time>2026-07-14T08:08:58Z</time>
      </trkpt>
      <trkpt lat="45.19783" lon="5.95437">
        <ele>1200.7</ele>
        <time>2026-07-14T08:08:59Z</time>
      </trkpt>
      <trkpt lat="45.19783" lon="5.95437">
        <ele>1200.9</ele>
        <time>2026-07-14T08:09:00Z</time>
      </trkpt>
      <trkpt lat="45.19782" lon="5.95437">
        <ele>1201.1</ele>
        <time>2026-07-14T08:09:01Z</time>
      </trkpt>
      <trkpt lat="45.19782" lon="5.95437">
        <ele>1201.2</ele>
        <time>2026-07-14T08:09:02Z</time>
      </trkpt>
      <trkpt lat="45.1978" lon="5.95437">
        <ele>1201.9</ele>
        <time>2026-07-14T08:09:04Z</time>
      </trkpt>
      <trkpt lat="45.1978" lon="5.95438">
        <ele>1202.1</ele>
        <time>2026-07-14T08:09:05Z</time>
      </trkpt>
      <trkpt lat="45.19779" lon="5.95438">
        <ele>1202.3</ele>
        <time>2026-07-14T08:09:06Z</time>
      </trkpt>
      <trkpt lat="45.19779" lon="5.95438">
        <ele>1202.5</ele>
        <time>2026-07-14T08:09:07Z</time>
      </trkpt>
      <trkpt lat="45.19779" lon="5.95438">
        <ele>1202.6</ele>
        <time>2026-07-14T08:09:09Z</time>
      </trkpt>
      <trkpt lat="45.19778" lon="5.95438">
        <ele>1202.8</ele>
        <time>2026-07-14T08:09:10Z</time>
      </trkpt>
      <trkpt lat="45.19778" lon="5.95438">
        <ele>1202.9</ele>
        <time>2026-07-14T08:09:12Z</time>
      </trkpt>
      <trkpt lat="45.19778" lon="5.95438">
        <ele>1203</ele>
        <time>2026-07-14T08:09:13Z</time>
      </trkpt>
      <trkpt lat="45.19777" lon="5.95438">
        <ele>1203.1</ele>
        <time>2026-07-14T08:09:14Z</time>
      </trkpt>
      <trkpt lat="45.19777" lon="5.95438">
        <ele>1203.2</ele>
        <time>2026-07-14T08:09:15Z</time>
      </trkpt>
      <trkpt lat="45.19777" lon="5.95438">
        <ele>1203.4</ele>
        <time>2026-07-14T08:09:16Z</time>
      </trkpt>
      <trkpt lat="45.19776" lon="5.95438">
        <ele>1203.6</ele>
        <time>2026-07-14T08:09:17Z</time>
      </trkpt>
      <trkpt lat="45.19776" lon="5.95438">
        <ele>1203.7</ele>
        <time>2026-07-14T08:09:18Z</time>
      </trkpt>
      <trkpt lat="45.19776" lon="5.95438">
        <ele>1203.8</ele>
        <time>2026-07-14T08:09:19Z</time>
      </trkpt>
      <trkpt lat="45.19776" lon="5.95438">
        <ele>1203.8</ele>
        <time>2026-07-14T08:09:20Z</time>
      </trkpt>
      <trkpt lat="45.19776" lon="5.95437">
        <ele>1203.9</ele>
        <time>2026-07-14T08:09:21Z</time>
      </trkpt>
      <trkpt lat="45.19776" lon="5.95437">
        <ele>1204.1</ele>
        <time>2026-07-14T08:09:22Z</time>
      </trkpt>
      <trkpt lat="45.19777" lon="5.95436">
        <ele>1204.3</ele>
        <time>2026-07-14T08:09:23Z</time>
      </trkpt>
      <trkpt lat="45.19777" lon="5.95436">
        <ele>1204.6</ele>
        <time>2026-07-14T08:09:24Z</time>
      </trkpt>
      <trkpt lat="45.19778" lon="5.95436">
        <ele>1204.9</ele>
        <time>2026-07-14T08:09:25Z</time>
      </trkpt>
      <trkpt lat="45.19778" lon="5.95436">
        <ele>1205.1</ele>
        <time>2026-07-14T08:09:26Z</time>
      </trkpt>
      <trkpt lat="45.19779" lon="5.95435">
        <ele>1205.6</ele>
        <time>2026-07-14T08:09:27Z</time>
      </trkpt>
      <trkpt lat="45.1978" lon="5.95435">
        <ele>1206.1</ele>
        <time>2026-07-14T08:09:28Z</time>
      </trkpt>
      <trkpt lat="45.19781" lon="5.95435">
        <ele>1206.5</ele>
        <time>2026-07-14T08:09:29Z</time>
      </trkpt>
      <trkpt lat="45.19781" lon="5.95434">
        <ele>1206.7</ele>
        <time>2026-07-14T08:09:30Z</time>
      </trkpt>
      <trkpt lat="45.19782" lon="5.95434">
        <ele>1206.9</ele>
        <time>2026-07-14T08:09:31Z</time>
      </trkpt>
      <trkpt lat="45.19781" lon="5.95433">
        <ele>1207.1</ele>
        <time>2026-07-14T08:09:32Z</time>
      </trkpt>
      <trkpt lat="45.19781" lon="5.95433">
        <ele>1207.2</ele>
        <time>2026-07-14T08:09:33Z</time>
      </trkpt>
      <trkpt lat="45.19781" lon="5.95434">
        <ele>1207.3</ele>
        <time>2026-07-14T08:09:34Z</time>
      </trkpt>
      <trkpt lat="45.19781" lon="5.95434">
        <ele>1207.4</ele>
        <time>2026-07-14T08:09:35Z</time>
      </trkpt>
      <trkpt lat="45.19781" lon="5.95434">
        <ele>1207.6</ele>
        <time>2026-07-14T08:09:36Z</time>
      </trkpt>
      <trkpt lat="45.19781" lon="5.95434">
        <ele>1207.6</ele>
        <time>2026-07-14T08:09:37Z</time>
      </trkpt>
      <trkpt lat="45.19781" lon="5.95434">
        <ele>1207.7</ele>
        <time>2026-07-14T08:09:38Z</time>
      </trkpt>
      <trkpt lat="45.1978" lon="5.95436">
        <ele>1208.1</ele>
        <time>2026-07-14T08:09:40Z</time>
      </trkpt>
      <trkpt lat="45.1978" lon="5.95436">
        <ele>1208.4</ele>
        <time>2026-07-14T08:09:41Z</time>
      </trkpt>
      <trkpt lat="45.1978" lon="5.95437">
        <ele>1208.5</ele>
        <time>2026-07-14T08:09:42Z</time>
      </trkpt>
      <trkpt lat="45.19779" lon="5.95437">
        <ele>1208.9</ele>
        <time>2026-07-14T08:09:43Z</time>
      </trkpt>
      <trkpt lat="45.19779" lon="5.95437">
        <ele>1208.9</ele>
        <time>2026-07-14T08:09:44Z</time>
      </trkpt>
      <trkpt lat="45.19779" lon="5.95438">
        <ele>1209.1</ele>
        <time>2026-07-14T08:09:45Z</time>
      </trkpt>
      <trkpt lat="45.19779" lon="5.95438">
        <ele>1209.2</ele>
        <time>2026-07-14T08:09:46Z</time>
      </trkpt>
      <trkpt lat="45.19778" lon="5.95438">
        <ele>1209.3</ele>
        <time>2026-07-14T08:09:47Z</time>
      </trkpt>
      <trkpt lat="45.19778" lon="5.95438">
        <ele>1209.5</ele>
        <time>2026-07-14T08:09:48Z</time>
      </trkpt>
      <trkpt lat="45.19778" lon="5.95438">
        <ele>1209.8</ele>
        <time>2026-07-14T08:09:50Z</time>
      </trkpt>
      <trkpt lat="45.19777" lon="5.95439">
        <ele>1210</ele>
        <time>2026-07-14T08:09:51Z</time>
      </trkpt>
      <trkpt lat="45.19777" lon="5.95439">
        <ele>1210.2</ele>
        <time>2026-07-14T08:09:53Z</time>
      </trkpt>
      <trkpt lat="45.19777" lon="5.95439">
        <ele>1210.3</ele>
        <time>2026-07-14T08:09:54Z</time>
      </trkpt>
      <trkpt lat="45.19776" lon="5.9544">
        <ele>1210.6</ele>
        <time>2026-07-14T08:09:55Z</time>
      </trkpt>
      <trkpt lat="45.19776" lon="5.9544">
        <ele>1210.7</ele>
        <time>2026-07-14T08:09:56Z</time>
      </trkpt>
      <trkpt lat="45.19776" lon="5.9544">
        <ele>1210.9</ele>
        <time>2026-07-14T08:09:57Z</time>
      </trkpt>
      <trkpt lat="45.19776" lon="5.95441">
        <ele>1211.1</ele>
        <time>2026-07-14T08:09:58Z</time>
      </trkpt>
      <trkpt lat="45.19775" lon="5.95442">
        <ele>1211.3</ele>
        <time>2026-07-14T08:09:59Z</time>
      </trkpt>
      <trkpt lat="45.19775" lon="5.95442">
        <ele>1211.6</ele>
        <time>2026-07-14T08:10:00Z</time>
      </trkpt>
      <trkpt lat="45.19775" lon="5.95442">
        <ele>1211.7</ele>
        <time>2026-07-14T08:10:01Z</time>
      </trkpt>
      <trkpt lat="45.19775" lon="5.95443">
        <ele>1211.8</ele>
        <time>2026-07-14T08:10:02Z</time>
      </trkpt>
      <trkpt lat="45.19774" lon="5.95443">
        <ele>1212</ele>
        <time>2026-07-14T08:10:03Z</time>
      </trkpt>
      <trkpt lat="45.19774" lon="5.95443">
        <ele>1212.1</ele>
        <time>2026-07-14T08:10:04Z</time>
      </trkpt>
      <trkpt lat="45.19774" lon="5.95444">
        <ele>1212.4</ele>
        <time>2026-07-14T08:10:05Z</time>
      </trkpt>
      <trkpt lat="45.19773" lon="5.95444">
        <ele>1212.6</ele>
        <time>2026-07-14T08:10:06Z</time>
      </trkpt>
      <trkpt lat="45.19773" lon="5.95444">
        <ele>1212.8</ele>
        <time>2026-07-14T08:10:07Z</time>
      </trkpt>
      <trkpt lat="45.19773" lon="5.95444">
        <ele>1213</ele>
        <time>2026-07-14T08:10:08Z</time>
      </trkpt>
      <trkpt lat="45.19772" lon="5.95445">
        <ele>1213.2</ele>
        <time>2026-07-14T08:10:09Z</time>
      </trkpt>
      <trkpt lat="45.19772" lon="5.95445">
        <ele>1213.4</ele>
        <time>2026-07-14T08:10:10Z</time>
      </trkpt>
      <trkpt lat="45.19772" lon="5.95445">
        <ele>1213.6</ele>
        <time>2026-07-14T08:10:11Z</time>
      </trkpt>
      <trkpt lat="45.19771" lon="5.95444">
        <ele>1213.7</ele>
        <time>2026-07-14T08:10:12Z</time>
      </trkpt>
      <trkpt lat="45.19771" lon="5.95445">
        <ele>1213.9</ele>
        <time>2026-07-14T08:10:13Z</time>
      </trkpt>
      <trkpt lat="45.19771" lon="5.95445">
        <ele>1213.9</ele>
        <time>2026-07-14T08:10:14Z</time>
      </trkpt>
      <trkpt lat="45.19771" lon="5.95445">
        <ele>1214</ele>
        <time>2026-07-14T08:10:15Z</time>
      </trkpt>
      <trkpt lat="45.19771" lon="5.95445">
        <ele>1214.1</ele>
        <time>2026-07-14T08:10:16Z</time>
      </trkpt>
      <trkpt lat="45.1977" lon="5.95445">
        <ele>1214.2</ele>
        <time>2026-07-14T08:10:17Z</time>
      </trkpt>
      <trkpt lat="45.1977" lon="5.95445">
        <ele>1214.3</ele>
        <time>2026-07-14T08:10:18Z</time>
      </trkpt>
      <trkpt lat="45.1977" lon="5.95446">
        <ele>1214.4</ele>
        <time>2026-07-14T08:10:19Z</time>
      </trkpt>
      <trkpt lat="45.1977" lon="5.95446">
        <ele>1214.4</ele>
        <time>2026-07-14T08:10:20Z</time>
      </trkpt>
      <trkpt lat="45.1977" lon="5.95446">
        <ele>1214.5</ele>
        <time>2026-07-14T08:10:21Z</time>
      </trkpt>
      <trkpt lat="45.1977" lon="5.95446">
        <ele>1214.7</ele>
        <time>2026-07-14T08:10:22Z</time>
      </trkpt>
      <trkpt lat="45.19769" lon="5.95446">
        <ele>1214.8</ele>
        <time>2026-07-14T08:10:23Z</time>
      </trkpt>
      <trkpt lat="45.19769" lon="5.95446">
        <ele>1214.9</ele>
        <time>2026-07-14T08:10:24Z</time>
      </trkpt>
      <trkpt lat="45.19769" lon="5.95447">
        <ele>1215</ele>
        <time>2026-07-14T08:10:25Z</time>
      </trkpt>
      <trkpt lat="45.19769" lon="5.95447">
        <ele>1215.2</ele>
        <time>2026-07-14T08:10:26Z</time>
      </trkpt>
      <trkpt lat="45.19769" lon="5.95447">
        <ele>1215.4</ele>
        <time>2026-07-14T08:10:27Z</time>
      </trkpt>
      <trkpt lat="45.19768" lon="5.95447">
        <ele>1215.4</ele>
        <time>2026-07-14T08:10:28Z</time>
      </trkpt>
      <trkpt lat="45.19768" lon="5.95448">
        <ele>1215.6</ele>
        <time>2026-07-14T08:10:29Z</time>
      </trkpt>
      <trkpt lat="45.19768" lon="5.95448">
        <ele>1215.8</ele>
        <time>2026-07-14T08:10:30Z</time>
      </trkpt>
      <trkpt lat="45.19768" lon="5.95448">
        <ele>1215.9</ele>
        <time>2026-07-14T08:10:31Z</time>
      </trkpt>
      <trkpt lat="45.19767" lon="5.95449">
        <ele>1216.2</ele>
        <time>2026-07-14T08:10:32Z</time>
      </trkpt>
      <trkpt lat="45.19767" lon="5.95449">
        <ele>1216.4</ele>
        <time>2026-07-14T08:10:33Z</time>
      </trkpt>
      <trkpt lat="45.19767" lon="5.9545">
        <ele>1216.5</ele>
        <time>2026-07-14T08:10:34Z</time>
      </trkpt>
      <trkpt lat="45.19767" lon="5.9545">
        <ele>1216.8</ele>
        <time>2026-07-14T08:10:35Z</time>
      </trkpt>
      <trkpt lat="45.19766" lon="5.9545">
        <ele>1216.8</ele>
        <time>2026-07-14T08:10:36Z</time>
      </trkpt>
      <trkpt lat="45.19766" lon="5.95451">
        <ele>1217.1</ele>
        <time>2026-07-14T08:10:37Z</time>
      </trkpt>
      <trkpt lat="45.19766" lon="5.95451">
        <ele>1217.2</ele>
        <time>2026-07-14T08:10:38Z</time>
      </trkpt>
      <trkpt lat="45.19766" lon="5.95452">
        <ele>1217.4</ele>
        <time>2026-07-14T08:10:39Z</time>
      </trkpt>
      <trkpt lat="45.19765" lon="5.95452">
        <ele>1217.6</ele>
        <time>2026-07-14T08:10:40Z</time>
      </trkpt>
      <trkpt lat="45.19765" lon="5.95453">
        <ele>1217.8</ele>
        <time>2026-07-14T08:10:41Z</time>
      </trkpt>
      <trkpt lat="45.19765" lon="5.95453">
        <ele>1218</ele>
        <time>2026-07-14T08:10:42Z</time>
      </trkpt>
      <trkpt lat="45.19765" lon="5.95454">
        <ele>1218.1</ele>
        <time>2026-07-14T08:10:43Z</time>
      </trkpt>
      <trkpt lat="45.19765" lon="5.95454">
        <ele>1218.2</ele>
        <time>2026-07-14T08:10:44Z</time>
      </trkpt>
      <trkpt lat="45.19765" lon="5.95454">
        <ele>1218.4</ele>
        <time>2026-07-14T08:10:45Z</time>
      </trkpt>
      <trkpt lat="45.19764" lon="5.95455">
        <ele>1218.7</ele>
        <time>2026-07-14T08:10:46Z</time>
      </trkpt>
      <trkpt lat="45.19764" lon="5.95455">
        <ele>1218.8</ele>
        <time>2026-07-14T08:10:47Z</time>
      </trkpt>
      <trkpt lat="45.19764" lon="5.95456">
        <ele>1218.9</ele>
        <time>2026-07-14T08:10:48Z</time>
      </trkpt>
      <trkpt lat="45.19764" lon="5.95456">
        <ele>1219.1</ele>
        <time>2026-07-14T08:10:49Z</time>
      </trkpt>
      <trkpt lat="45.19764" lon="5.95457">
        <ele>1219.3</ele>
        <time>2026-07-14T08:10:50Z</time>
      </trkpt>
      <trkpt lat="45.19763" lon="5.95457">
        <ele>1219.5</ele>
        <time>2026-07-14T08:10:51Z</time>
      </trkpt>
      <trkpt lat="45.19763" lon="5.95458">
        <ele>1219.7</ele>
        <time>2026-07-14T08:10:52Z</time>
      </trkpt>
      <trkpt lat="45.19762" lon="5.95459">
        <ele>1220</ele>
        <time>2026-07-14T08:10:53Z</time>
      </trkpt>
      <trkpt lat="45.19762" lon="5.9546">
        <ele>1220.4</ele>
        <time>2026-07-14T08:10:54Z</time>
      </trkpt>
      <trkpt lat="45.19762" lon="5.9546">
        <ele>1220.6</ele>
        <time>2026-07-14T08:10:55Z</time>
      </trkpt>
      <trkpt lat="45.19761" lon="5.95461">
        <ele>1220.9</ele>
        <time>2026-07-14T08:10:56Z</time>
      </trkpt>
      <trkpt lat="45.19761" lon="5.95462">
        <ele>1221.1</ele>
        <time>2026-07-14T08:10:57Z</time>
      </trkpt>
      <trkpt lat="45.1976" lon="5.95462">
        <ele>1221.4</ele>
        <time>2026-07-14T08:10:58Z</time>
      </trkpt>
      <trkpt lat="45.1976" lon="5.95463">
        <ele>1221.6</ele>
        <time>2026-07-14T08:10:59Z</time>
      </trkpt>
      <trkpt lat="45.1976" lon="5.95464">
        <ele>1221.8</ele>
        <time>2026-07-14T08:11:00Z</time>
      </trkpt>
      <trkpt lat="45.1976" lon="5.95464">
        <ele>1222.1</ele>
        <time>2026-07-14T08:11:01Z</time>
      </trkpt>
      <trkpt lat="45.19759" lon="5.95465">
        <ele>1222.2</ele>
        <time>2026-07-14T08:11:02Z</time>
      </trkpt>
      <trkpt lat="45.19759" lon="5.95465">
        <ele>1222.3</ele>
        <time>2026-07-14T08:11:03Z</time>
      </trkpt>
      <trkpt lat="45.19759" lon="5.95466">
        <ele>1222.5</ele>
        <time>2026-07-14T08:11:04Z</time>
      </trkpt>
      <trkpt lat="45.19759" lon="5.95466">
        <ele>1222.6</ele>
        <time>2026-07-14T08:11:05Z</time>
      </trkpt>
      <trkpt lat="45.19759" lon="5.95466">
        <ele>1222.7</ele>
        <time>2026-07-14T08:11:06Z</time>
      </trkpt>
      <trkpt lat="45.19759" lon="5.95467">
        <ele>1222.9</ele>
        <time>2026-07-14T08:11:07Z</time>
      </trkpt>
      <trkpt lat="45.19758" lon="5.95467">
        <ele>1223.1</ele>
        <time>2026-07-14T08:11:08Z</time>
      </trkpt>
      <trkpt lat="45.19758" lon="5.95468">
        <ele>1223.2</ele>
        <time>2026-07-14T08:11:09Z</time>
      </trkpt>
      <trkpt lat="45.19758" lon="5.95468">
        <ele>1223.3</ele>
        <time>2026-07-14T08:11:10Z</time>
      </trkpt>
      <trkpt lat="45.19758" lon="5.95468">
        <ele>1223.5</ele>
        <time>2026-07-14T08:11:11Z</time>
      </trkpt>
      <trkpt lat="45.19758" lon="5.95469">
        <ele>1223.6</ele>
        <time>2026-07-14T08:11:12Z</time>
      </trkpt>
      <trkpt lat="45.19758" lon="5.95469">
        <ele>1223.7</ele>
        <time>2026-07-14T08:11:13Z</time>
      </trkpt>
      <trkpt lat="45.19758" lon="5.9547">
        <ele>1223.9</ele>
        <time>2026-07-14T08:11:15Z</time>
      </trkpt>
      <trkpt lat="45.19757" lon="5.95471">
        <ele>1224.2</ele>
        <time>2026-07-14T08:11:16Z</time>
      </trkpt>
      <trkpt lat="45.19757" lon="5.95471">
        <ele>1224.3</ele>
        <time>2026-07-14T08:11:17Z</time>
      </trkpt>
      <trkpt lat="45.19757" lon="5.95472">
        <ele>1224.5</ele>
        <time>2026-07-14T08:11:18Z</time>
      </trkpt>
      <trkpt lat="45.19757" lon="5.95472">
        <ele>1224.7</ele>
        <time>2026-07-14T08:11:19Z</time>
      </trkpt>
      <trkpt lat="45.19756" lon="5.95472">
        <ele>1224.7</ele>
        <time>2026-07-14T08:11:20Z</time>
      </trkpt>
      <trkpt lat="45.19756" lon="5.95472">
        <ele>1224.8</ele>
        <time>2026-07-14T08:11:21Z</time>
      </trkpt>
      <trkpt lat="45.19756" lon="5.95472">
        <ele>1224.9</ele>
        <time>2026-07-14T08:11:22Z</time>
      </trkpt>
      <trkpt lat="45.19756" lon="5.95473">
        <ele>1225</ele>
        <time>2026-07-14T08:11:23Z</time>
      </trkpt>
      <trkpt lat="45.19756" lon="5.95473">
        <ele>1225.2</ele>
        <time>2026-07-14T08:11:24Z</time>
      </trkpt>
      <trkpt lat="45.19756" lon="5.95474">
        <ele>1225.3</ele>
        <time>2026-07-14T08:11:25Z</time>
      </trkpt>
      <trkpt lat="45.19756" lon="5.95474">
        <ele>1225.4</ele>
        <time>2026-07-14T08:11:26Z</time>
      </trkpt>
      <trkpt lat="45.19755" lon="5.95475">
        <ele>1225.6</ele>
        <time>2026-07-14T08:11:27Z</time>
      </trkpt>
      <trkpt lat="45.19755" lon="5.95475">
        <ele>1225.7</ele>
        <time>2026-07-14T08:11:28Z</time>
      </trkpt>
      <trkpt lat="45.19755" lon="5.95475">
        <ele>1225.9</ele>
        <time>2026-07-14T08:11:29Z</time>
      </trkpt>
      <trkpt lat="45.19755" lon="5.95476">
        <ele>1226</ele>
        <time>2026-07-14T08:11:30Z</time>
      </trkpt>
      <trkpt lat="45.19754" lon="5.95476">
        <ele>1226.1</ele>
        <time>2026-07-14T08:11:31Z</time>
      </trkpt>
      <trkpt lat="45.19754" lon="5.95476">
        <ele>1226.1</ele>
        <time>2026-07-14T08:11:32Z</time>
      </trkpt>
      <trkpt lat="45.19754" lon="5.95476">
        <ele>1226.2</ele>
        <time>2026-07-14T08:11:33Z</time>
      </trkpt>
      <trkpt lat="45.19754" lon="5.95476">
        <ele>1226.2</ele>
        <time>2026-07-14T08:11:34Z</time>
      </trkpt>
      <trkpt lat="45.19755" lon="5.95475">
        <ele>1226.3</ele>
        <time>2026-07-14T08:11:36Z</time>
      </trkpt>
      <trkpt lat="45.19755" lon="5.95475">
        <ele>1226.3</ele>
        <time>2026-07-14T08:11:37Z</time>
      </trkpt>
      <trkpt lat="45.19755" lon="5.95475">
        <ele>1226.3</ele>
        <time>2026-07-14T08:11:38Z</time>
      </trkpt>
      <trkpt lat="45.19754" lon="5.95475">
        <ele>1226.4</ele>
        <time>2026-07-14T08:11:39Z</time>
      </trkpt>
      <trkpt lat="45.19754" lon="5.95476">
        <ele>1226.5</ele>
        <time>2026-07-14T08:11:40Z</time>
      </trkpt>
      <trkpt lat="45.19754" lon="5.95476">
        <ele>1226.6</ele>
        <time>2026-07-14T08:11:41Z</time>
      </trkpt>
      <trkpt lat="45.19754" lon="5.95476">
        <ele>1226.7</ele>
        <time>2026-07-14T08:11:42Z</time>
      </trkpt>
      <trkpt lat="45.19754" lon="5.95476">
        <ele>1226.8</ele>
        <time>2026-07-14T08:11:43Z</time>
      </trkpt>
      <trkpt lat="45.19754" lon="5.95477">
        <ele>1226.9</ele>
        <time>2026-07-14T08:11:44Z</time>
      </trkpt>
      <trkpt lat="45.19753" lon="5.95477">
        <ele>1227</ele>
        <time>2026-07-14T08:11:45Z</time>
      </trkpt>
      <trkpt lat="45.19753" lon="5.95477">
        <ele>1227.2</ele>
        <time>2026-07-14T08:11:46Z</time>
      </trkpt>
      <trkpt lat="45.19753" lon="5.95478">
        <ele>1227.3</ele>
        <time>2026-07-14T08:11:47Z</time>
      </trkpt>
      <trkpt lat="45.19753" lon="5.95478">
        <ele>1227.4</ele>
        <time>2026-07-14T08:11:48Z</time>
      </trkpt>
      <trkpt lat="45.19753" lon="5.95479">
        <ele>1227.6</ele>
        <time>2026-07-14T08:11:49Z</time>
      </trkpt>
      <trkpt lat="45.19752" lon="5.95479">
        <ele>1227.8</ele>
        <time>2026-07-14T08:11:50Z</time>
      </trkpt>
      <trkpt lat="45.19752" lon="5.95479">
        <ele>1227.8</ele>
        <time>2026-07-14T08:11:51Z</time>
      </trkpt>
      <trkpt lat="45.19752" lon="5.9548">
        <ele>1228</ele>
        <time>2026-07-14T08:11:52Z</time>
      </trkpt>
      <trkpt lat="45.19752" lon="5.9548">
        <ele>1228.1</ele>
        <time>2026-07-14T08:11:53Z</time>
      </trkpt>
      <trkpt lat="45.19752" lon="5.95481">
        <ele>1228.3</ele>
        <time>2026-07-14T08:11:54Z</time>
      </trkpt>
      <trkpt lat="45.19752" lon="5.95481">
        <ele>1228.4</ele>
        <time>2026-07-14T08:11:55Z</time>
      </trkpt>
      <trkpt lat="45.19752" lon="5.95482">
        <ele>1228.6</ele>
        <time>2026-07-14T08:11:56Z</time>
      </trkpt>
      <trkpt lat="45.19752" lon="5.95482">
        <ele>1228.7</ele>
        <time>2026-07-14T08:11:57Z</time>
      </trkpt>
      <trkpt lat="45.19752" lon="5.95482">
        <ele>1228.7</ele>
        <time>2026-07-14T08:11:58Z</time>
      </trkpt>
      <trkpt lat="45.19752" lon="5.95483">
        <ele>1228.8</ele>
        <time>2026-07-14T08:11:59Z</time>
      </trkpt>
      <trkpt lat="45.19752" lon="5.95483">
        <ele>1228.9</ele>
        <time>2026-07-14T08:12:00Z</time>
      </trkpt>
      <trkpt lat="45.19752" lon="5.95483">
        <ele>1228.9</ele>
        <time>2026-07-14T08:12:01Z</time>
      </trkpt>
      <trkpt lat="45.19751" lon="5.95483">
        <ele>1229</ele>
        <time>2026-07-14T08:12:02Z</time>
      </trkpt>
      <trkpt lat="45.19751" lon="5.95483">
        <ele>1229.1</ele>
        <time>2026-07-14T08:12:03Z</time>
      </trkpt>
      <trkpt lat="45.19751" lon="5.95483">
        <ele>1229.2</ele>
        <time>2026-07-14T08:12:04Z</time>
      </trkpt>
      <trkpt lat="45.19751" lon="5.95484">
        <ele>1229.3</ele>
        <time>2026-07-14T08:12:05Z</time>
      </trkpt>
      <trkpt lat="45.19751" lon="5.95484">
        <ele>1229.4</ele>
        <time>2026-07-14T08:12:06Z</time>
      </trkpt>
      <trkpt lat="45.19751" lon="5.95484">
        <ele>1229.5</ele>
        <time>2026-07-14T08:12:07Z</time>
      </trkpt>
      <trkpt lat="45.19751" lon="5.95485">
        <ele>1229.7</ele>
        <time>2026-07-14T08:12:08Z</time>
      </trkpt>
      <trkpt lat="45.19751" lon="5.95485">
        <ele>1229.8</ele>
        <time>2026-07-14T08:12:09Z</time>
      </trkpt>
      <trkpt lat="45.1975" lon="5.95486">
        <ele>1229.9</ele>
        <time>2026-07-14T08:12:10Z</time>
      </trkpt>
      <trkpt lat="45.1975" lon="5.95486">
        <ele>1230.1</ele>
        <time>2026-07-14T08:12:11Z</time>
      </trkpt>
      <trkpt lat="45.1975" lon="5.95486">
        <ele>1230.2</ele>
        <time>2026-07-14T08:12:12Z</time>
      </trkpt>
      <trkpt lat="45.1975" lon="5.95487">
        <ele>1230.3</ele>
        <time>2026-07-14T08:12:13Z</time>
      </trkpt>
      <trkpt lat="45.19749" lon="5.95487">
        <ele>1230.5</ele>
        <time>2026-07-14T08:12:14Z</time>
      </trkpt>
      <trkpt lat="45.19749" lon="5.95487">
        <ele>1230.6</ele>
        <time>2026-07-14T08:12:15Z</time>
      </trkpt>
      <trkpt lat="45.19749" lon="5.95487">
        <ele>1230.6</ele>
        <time>2026-07-14T08:12:16Z</time>
      </trkpt>
      <trkpt lat="45.19749" lon="5.95488">
        <ele>1230.7</ele>
        <time>2026-07-14T08:12:17Z</time>
      </trkpt>
      <trkpt lat="45.19749" lon="5.95488">
        <ele>1230.7</ele>
        <time>2026-07-14T08:12:18Z</time>
      </trkpt>
      <trkpt lat="45.19749" lon="5.95488">
        <ele>1230.9</ele>
        <time>2026-07-14T08:12:19Z</time>
      </trkpt>
      <trkpt lat="45.19748" lon="5.95489">
        <ele>1231.1</ele>
        <time>2026-07-14T08:12:21Z</time>
      </trkpt>
      <trkpt lat="45.19748" lon="5.95489">
        <ele>1231.2</ele>
        <time>2026-07-14T08:12:22Z</time>
      </trkpt>
      <trkpt lat="45.19748" lon="5.9549">
        <ele>1231.5</ele>
        <time>2026-07-14T08:12:23Z</time>
      </trkpt>
      <trkpt lat="45.19748" lon="5.95491">
        <ele>1231.8</ele>
        <time>2026-07-14T08:12:24Z</time>
      </trkpt>
      <trkpt lat="45.19747" lon="5.95491">
        <ele>1231.9</ele>
        <time>2026-07-14T08:12:25Z</time>
      </trkpt>
      <trkpt lat="45.19747" lon="5.95491">
        <ele>1232</ele>
        <time>2026-07-14T08:12:26Z</time>
      </trkpt>
      <trkpt lat="45.19747" lon="5.95492">
        <ele>1232.1</ele>
        <time>2026-07-14T08:12:27Z</time>
      </trkpt>
      <trkpt lat="45.19747" lon="5.95492">
        <ele>1232.3</ele>
        <time>2026-07-14T08:12:28Z</time>
      </trkpt>
      <trkpt lat="45.19747" lon="5.95493">
        <ele>1232.5</ele>
        <time>2026-07-14T08:12:29Z</time>
      </trkpt>
      <trkpt lat="45.19747" lon="5.95493">
        <ele>1232.6</ele>
        <time>2026-07-14T08:12:30Z</time>
      </trkpt>
      <trkpt lat="45.19747" lon="5.95493">
        <ele>1232.7</ele>
        <time>2026-07-14T08:12:31Z</time>
      </trkpt>
      <trkpt lat="45.19747" lon="5.95494">
        <ele>1232.9</ele>
        <time>2026-07-14T08:12:32Z</time>
      </trkpt>
      <trkpt lat="45.19747" lon="5.95494">
        <ele>1232.9</ele>
        <time>2026-07-14T08:12:33Z</time>
      </trkpt>
      <trkpt lat="45.19747" lon="5.95495">
        <ele>1233.1</ele>
        <time>2026-07-14T08:12:34Z</time>
      </trkpt>
      <trkpt lat="45.19747" lon="5.95495">
        <ele>1233.3</ele>
        <time>2026-07-14T08:12:35Z</time>
      </trkpt>
      <trkpt lat="45.19746" lon="5.95496">
        <ele>1233.5</ele>
        <time>2026-07-14T08:12:36Z</time>
      </trkpt>
      <trkpt lat="45.19746" lon="5.95496">
        <ele>1233.6</ele>
        <time>2026-07-14T08:12:37Z</time>
      </trkpt>
      <trkpt lat="45.19746" lon="5.95497">
        <ele>1233.9</ele>
        <time>2026-07-14T08:12:38Z</time>
      </trkpt>
      <trkpt lat="45.19745" lon="5.95497">
        <ele>1234.1</ele>
        <time>2026-07-14T08:12:39Z</time>
      </trkpt>
      <trkpt lat="45.19745" lon="5.95498">
        <ele>1234.3</ele>
        <time>2026-07-14T08:12:40Z</time>
      </trkpt>
      <trkpt lat="45.19744" lon="5.95498">
        <ele>1234.6</ele>
        <time>2026-07-14T08:12:41Z</time>
      </trkpt>
      <trkpt lat="45.19744" lon="5.95497">
        <ele>1234.7</ele>
        <time>2026-07-14T08:12:42Z</time>
      </trkpt>
      <trkpt lat="45.19743" lon="5.95497">
        <ele>1234.9</ele>
        <time>2026-07-14T08:12:43Z</time>
      </trkpt>
      <trkpt lat="45.19743" lon="5.95497">
        <ele>1235.1</ele>
        <time>2026-07-14T08:12:44Z</time>
      </trkpt>
      <trkpt lat="45.19743" lon="5.95497">
        <ele>1235.2</ele>
        <time>2026-07-14T08:12:45Z</time>
      </trkpt>
      <trkpt lat="45.19743" lon="5.95496">
        <ele>1235.3</ele>
        <time>2026-07-14T08:12:46Z</time>
      </trkpt>
      <trkpt lat="45.19742" lon="5.95496">
        <ele>1235.4</ele>
        <time>2026-07-14T08:12:47Z</time>
      </trkpt>
      <trkpt lat="45.19742" lon="5.95496">
        <ele>1235.5</ele>
        <time>2026-07-14T08:12:48Z</time>
      </trkpt>
      <trkpt lat="45.19742" lon="5.95496">
        <ele>1235.6</ele>
        <time>2026-07-14T08:12:49Z</time>
      </trkpt>
      <trkpt lat="45.19742" lon="5.95496">
        <ele>1235.7</ele>
        <time>2026-07-14T08:12:50Z</time>
      </trkpt>
      <trkpt lat="45.19742" lon="5.95496">
        <ele>1235.8</ele>
        <time>2026-07-14T08:12:51Z</time>
      </trkpt>
      <trkpt lat="45.19742" lon="5.95496">
        <ele>1235.8</ele>
        <time>2026-07-14T08:12:52Z</time>
      </trkpt>
      <trkpt lat="45.19742" lon="5.95495">
        <ele>1235.9</ele>
        <time>2026-07-14T08:12:53Z</time>
      </trkpt>
      <trkpt lat="45.19742" lon="5.95495">
        <ele>1235.9</ele>
        <time>2026-07-14T08:12:54Z</time>
      </trkpt>
      <trkpt lat="45.19742" lon="5.95495">
        <ele>1236.1</ele>
        <time>2026-07-14T08:12:55Z</time>
      </trkpt>
      <trkpt lat="45.19743" lon="5.95495">
        <ele>1236.1</ele>
        <time>2026-07-14T08:12:56Z</time>
      </trkpt>
      <trkpt lat="45.19743" lon="5.95495">
        <ele>1236.1</ele>
        <time>2026-07-14T08:12:57Z</time>
      </trkpt>
      <trkpt lat="45.19743" lon="5.95495">
        <ele>1236.2</ele>
        <time>2026-07-14T08:12:58Z</time>
      </trkpt>
      <trkpt lat="45.19743" lon="5.95495">
        <ele>1236.2</ele>
        <time>2026-07-14T08:12:59Z</time>
      </trkpt>
      <trkpt lat="45.19743" lon="5.95495">
        <ele>1236.3</ele>
        <time>2026-07-14T08:13:00Z</time>
      </trkpt>
      <trkpt lat="45.19743" lon="5.95496">
        <ele>1236.3</ele>
        <time>2026-07-14T08:13:01Z</time>
      </trkpt>
      <trkpt lat="45.19743" lon="5.95496">
        <ele>1236.4</ele>
        <time>2026-07-14T08:13:02Z</time>
      </trkpt>
      <trkpt lat="45.19743" lon="5.95496">
        <ele>1236.5</ele>
        <time>2026-07-14T08:13:03Z</time>
      </trkpt>
      <trkpt lat="45.19743" lon="5.95496">
        <ele>1236.5</ele>
        <time>2026-07-14T08:13:04Z</time>
      </trkpt>
      <trkpt lat="45.19743" lon="5.95496">
        <ele>1236.6</ele>
        <time>2026-07-14T08:13:05Z</time>
      </trkpt>
      <trkpt lat="45.19743" lon="5.95496">
        <ele>1236.6</ele>
        <time>2026-07-14T08:13:06Z</time>
      </trkpt>
      <trkpt lat="45.19743" lon="5.95495">
        <ele>1236.6</ele>
        <time>2026-07-14T08:13:07Z</time>
      </trkpt>
      <trkpt lat="45.19743" lon="5.95495">
        <ele>1236.7</ele>
        <time>2026-07-14T08:13:08Z</time>
      </trkpt>
      <trkpt lat="45.19743" lon="5.95495">
        <ele>1236.7</ele>
        <time>2026-07-14T08:13:10Z</time>
      </trkpt>
      <trkpt lat="45.19743" lon="5.95496">
        <ele>1236.7</ele>
        <time>2026-07-14T08:13:11Z</time>
      </trkpt>
      <trkpt lat="45.19743" lon="5.95496">
        <ele>1236.8</ele>
        <time>2026-07-14T08:13:12Z</time>
      </trkpt>
      <trkpt lat="45.19743" lon="5.95496">
        <ele>1236.9</ele>
        <time>2026-07-14T08:13:13Z</time>
      </trkpt>
      <trkpt lat="45.19742" lon="5.95496">
        <ele>1237.1</ele>
        <time>2026-07-14T08:13:14Z</time>
      </trkpt>
      <trkpt lat="45.19742" lon="5.95496">
        <ele>1237.2</ele>
        <time>2026-07-14T08:13:15Z</time>
      </trkpt>
      <trkpt lat="45.19742" lon="5.95496">
        <ele>1237.4</ele>
        <time>2026-07-14T08:13:16Z</time>
      </trkpt>
      <trkpt lat="45.19742" lon="5.95496">
        <ele>1237.5</ele>
        <time>2026-07-14T08:13:17Z</time>
      </trkpt>
      <trkpt lat="45.19741" lon="5.95497">
        <ele>1237.6</ele>
        <time>2026-07-14T08:13:18Z</time>
      </trkpt>
      <trkpt lat="45.19741" lon="5.95497">
        <ele>1237.8</ele>
        <time>2026-07-14T08:13:19Z</time>
      </trkpt>
      <trkpt lat="45.19741" lon="5.95497">
        <ele>1237.9</ele>
        <time>2026-07-14T08:13:20Z</time>
      </trkpt>
      <trkpt lat="45.1974" lon="5.95498">
        <ele>1238.2</ele>
        <time>2026-07-14T08:13:22Z</time>
      </trkpt>
      <trkpt lat="45.1974" lon="5.95498">
        <ele>1238.3</ele>
        <time>2026-07-14T08:13:23Z</time>
      </trkpt>
      <trkpt lat="45.19739" lon="5.95498">
        <ele>1238.4</ele>
        <time>2026-07-14T08:13:24Z</time>
      </trkpt>
      <trkpt lat="45.19739" lon="5.95498">
        <ele>1238.6</ele>
        <time>2026-07-14T08:13:25Z</time>
      </trkpt>
      <trkpt lat="45.19739" lon="5.95498">
        <ele>1238.7</ele>
        <time>2026-07-14T08:13:26Z</time>
      </trkpt>
      <trkpt lat="45.19739" lon="5.95498">
        <ele>1238.7</ele>
        <time>2026-07-14T08:13:27Z</time>
      </trkpt>
      <trkpt lat="45.19739" lon="5.95498">
        <ele>1238.8</ele>
        <time>2026-07-14T08:13:28Z</time>
      </trkpt>
      <trkpt lat="45.19738" lon="5.95498">
        <ele>1238.9</ele>
        <time>2026-07-14T08:13:29Z</time>
      </trkpt>
      <trkpt lat="45.19738" lon="5.95498">
        <ele>1239</ele>
        <time>2026-07-14T08:13:30Z</time>
      </trkpt>
      <trkpt lat="45.19738" lon="5.95498">
        <ele>1239.1</ele>
        <time>2026-07-14T08:13:31Z</time>
      </trkpt>
      <trkpt lat="45.19738" lon="5.95498">
        <ele>1239.2</ele>
        <time>2026-07-14T08:13:32Z</time>
      </trkpt>
      <trkpt lat="45.19738" lon="5.95499">
        <ele>1239.3</ele>
        <time>2026-07-14T08:13:33Z</time>
      </trkpt>
      <trkpt lat="45.19738" lon="5.95499">
        <ele>1239.3</ele>
        <time>2026-07-14T08:13:34Z</time>
      </trkpt>
      <trkpt lat="45.19737" lon="5.955">
        <ele>1239.6</ele>
        <time>2026-07-14T08:13:35Z</time>
      </trkpt>
      <trkpt lat="45.19737" lon="5.955">
        <ele>1239.8</ele>
        <time>2026-07-14T08:13:36Z</time>
      </trkpt>
      <trkpt lat="45.19737" lon="5.95501">
        <ele>1240</ele>
        <time>2026-07-14T08:13:37Z</time>
      </trkpt>
      <trkpt lat="45.19737" lon="5.95502">
        <ele>1240.2</ele>
        <time>2026-07-14T08:13:38Z</time>
      </trkpt>
      <trkpt lat="45.19737" lon="5.95502">
        <ele>1240.4</ele>
        <time>2026-07-14T08:13:39Z</time>
      </trkpt>
      <trkpt lat="45.19737" lon="5.95503">
        <ele>1240.7</ele>
        <time>2026-07-14T08:13:40Z</time>
      </trkpt>
      <trkpt lat="45.19736" lon="5.95504">
        <ele>1240.9</ele>
        <time>2026-07-14T08:13:41Z</time>
      </trkpt>
      <trkpt lat="45.19736" lon="5.95504">
        <ele>1241</ele>
        <time>2026-07-14T08:13:42Z</time>
      </trkpt>
      <trkpt lat="45.19736" lon="5.95504">
        <ele>1241.2</ele>
        <time>2026-07-14T08:13:43Z</time>
      </trkpt>
      <trkpt lat="45.19735" lon="5.95504">
        <ele>1241.3</ele>
        <time>2026-07-14T08:13:44Z</time>
      </trkpt>
      <trkpt lat="45.19735" lon="5.95505">
        <ele>1241.6</ele>
        <time>2026-07-14T08:13:45Z</time>
      </trkpt>
      <trkpt lat="45.19734" lon="5.95505">
        <ele>1241.8</ele>
        <time>2026-07-14T08:13:46Z</time>
      </trkpt>
      <trkpt lat="45.19734" lon="5.95505">
        <ele>1242</ele>
        <time>2026-07-14T08:13:47Z</time>
      </trkpt>
      <trkpt lat="45.19733" lon="5.95504">
        <ele>1242.2</ele>
        <time>2026-07-14T08:13:48Z</time>
      </trkpt>
      <trkpt lat="45.19733" lon="5.95504">
        <ele>1242.4</ele>
        <time>2026-07-14T08:13:49Z</time>
      </trkpt>
      <trkpt lat="45.19732" lon="5.95504">
        <ele>1242.6</ele>
        <time>2026-07-14T08:13:50Z</time>
      </trkpt>
      <trkpt lat="45.19732" lon="5.95503">
        <ele>1242.8</ele>
        <time>2026-07-14T08:13:51Z</time>
      </trkpt>
      <trkpt lat="45.19732" lon="5.95502">
        <ele>1243</ele>
        <time>2026-07-14T08:13:52Z</time>
      </trkpt>
      <trkpt lat="45.19732" lon="5.95502">
        <ele>1243.1</ele>
        <time>2026-07-14T08:13:53Z</time>
      </trkpt>
      <trkpt lat="45.19732" lon="5.95502">
        <ele>1243.3</ele>
        <time>2026-07-14T08:13:54Z</time>
      </trkpt>
      <trkpt lat="45.19731" lon="5.95501">
        <ele>1243.5</ele>
        <time>2026-07-14T08:13:55Z</time>
      </trkpt>
      <trkpt lat="45.19731" lon="5.955">
        <ele>1243.8</ele>
        <time>2026-07-14T08:13:56Z</time>
      </trkpt>
      <trkpt lat="45.1973" lon="5.95499">
        <ele>1244.1</ele>
        <time>2026-07-14T08:13:57Z</time>
      </trkpt>
      <trkpt lat="45.1973" lon="5.95499">
        <ele>1244.3</ele>
        <time>2026-07-14T08:13:58Z</time>
      </trkpt>
      <trkpt lat="45.1973" lon="5.95498">
        <ele>1244.5</ele>
        <time>2026-07-14T08:13:59Z</time>
      </trkpt>
      <trkpt lat="45.19729" lon="5.95498">
        <ele>1244.7</ele>
        <time>2026-07-14T08:14:00Z</time>
      </trkpt>
      <trkpt lat="45.19729" lon="5.95498">
        <ele>1244.8</ele>
        <time>2026-07-14T08:14:01Z</time>
      </trkpt>
      <trkpt lat="45.19729" lon="5.95498">
        <ele>1244.9</ele>
        <time>2026-07-14T08:14:02Z</time>
      </trkpt>
      <trkpt lat="45.19728" lon="5.95498">
        <ele>1245.1</ele>
        <time>2026-07-14T08:14:03Z</time>
      </trkpt>
      <trkpt lat="45.19728" lon="5.95499">
        <ele>1245.1</ele>
        <time>2026-07-14T08:14:04Z</time>
      </trkpt>
      <trkpt lat="45.19728" lon="5.95499">
        <ele>1245.2</ele>
        <time>2026-07-14T08:14:05Z</time>
      </trkpt>
      <trkpt lat="45.19728" lon="5.95499">
        <ele>1245.3</ele>
        <time>2026-07-14T08:14:06Z</time>
      </trkpt>
      <trkpt lat="45.19728" lon="5.955">
        <ele>1245.4</ele>
        <time>2026-07-14T08:14:07Z</time>
      </trkpt>
      <trkpt lat="45.19728" lon="5.955">
        <ele>1245.5</ele>
        <time>2026-07-14T08:14:08Z</time>
      </trkpt>
      <trkpt lat="45.19728" lon="5.95501">
        <ele>1245.9</ele>
        <time>2026-07-14T08:14:09Z</time>
      </trkpt>
      <trkpt lat="45.19728" lon="5.95502">
        <ele>1246.2</ele>
        <time>2026-07-14T08:14:10Z</time>
      </trkpt>
      <trkpt lat="45.19728" lon="5.95503">
        <ele>1246.5</ele>
        <time>2026-07-14T08:14:11Z</time>
      </trkpt>
      <trkpt lat="45.19728" lon="5.95504">
        <ele>1246.6</ele>
        <time>2026-07-14T08:14:12Z</time>
      </trkpt>
      <trkpt lat="45.19728" lon="5.95505">
        <ele>1246.9</ele>
        <time>2026-07-14T08:14:13Z</time>
      </trkpt>
      <trkpt lat="45.19727" lon="5.95505">
        <ele>1247.2</ele>
        <time>2026-07-14T08:14:14Z</time>
      </trkpt>
      <trkpt lat="45.19727" lon="5.95505">
        <ele>1247.3</ele>
        <time>2026-07-14T08:14:15Z</time>
      </trkpt>
      <trkpt lat="45.19726" lon="5.95506">
        <ele>1247.6</ele>
        <time>2026-07-14T08:14:16Z</time>
      </trkpt>
      <trkpt lat="45.19725" lon="5.95506">
        <ele>1247.8</ele>
        <time>2026-07-14T08:14:17Z</time>
      </trkpt>
      <trkpt lat="45.19725" lon="5.95505">
        <ele>1248</ele>
        <time>2026-07-14T08:14:18Z</time>
      </trkpt>
      <trkpt lat="45.19725" lon="5.95505">
        <ele>1248.1</ele>
        <time>2026-07-14T08:14:19Z</time>
      </trkpt>
      <trkpt lat="45.19724" lon="5.95505">
        <ele>1248.3</ele>
        <time>2026-07-14T08:14:20Z</time>
      </trkpt>
      <trkpt lat="45.19724" lon="5.95504">
        <ele>1248.5</ele>
        <time>2026-07-14T08:14:21Z</time>
      </trkpt>
      <trkpt lat="45.19723" lon="5.95504">
        <ele>1248.8</ele>
        <time>2026-07-14T08:14:22Z</time>
      </trkpt>
      <trkpt lat="45.19723" lon="5.95504">
        <ele>1249</ele>
        <time>2026-07-14T08:14:23Z</time>
      </trkpt>
      <trkpt lat="45.19722" lon="5.95504">
        <ele>1249.2</ele>
        <time>2026-07-14T08:14:24Z</time>
      </trkpt>
      <trkpt lat="45.19722" lon="5.95504">
        <ele>1249.4</ele>
        <time>2026-07-14T08:14:25Z</time>
      </trkpt>
      <trkpt lat="45.19721" lon="5.95504">
        <ele>1249.6</ele>
        <time>2026-07-14T08:14:26Z</time>
      </trkpt>
      <trkpt lat="45.19721" lon="5.95504">
        <ele>1249.8</ele>
        <time>2026-07-14T08:14:27Z</time>
      </trkpt>
      <trkpt lat="45.1972" lon="5.95504">
        <ele>1249.9</ele>
        <time>2026-07-14T08:14:28Z</time>
      </trkpt>
      <trkpt lat="45.1972" lon="5.95505">
        <ele>1250</ele>
        <time>2026-07-14T08:14:29Z</time>
      </trkpt>
      <trkpt lat="45.1972" lon="5.95505">
        <ele>1250</ele>
        <time>2026-07-14T08:14:30Z</time>
      </trkpt>
      <trkpt lat="45.1972" lon="5.95505">
        <ele>1250.1</ele>
        <time>2026-07-14T08:14:31Z</time>
      </trkpt>
      <trkpt lat="45.1972" lon="5.95504">
        <ele>1250.2</ele>
        <time>2026-07-14T08:14:32Z</time>
      </trkpt>
      <trkpt lat="45.19719" lon="5.95505">
        <ele>1250.3</ele>
        <time>2026-07-14T08:14:33Z</time>
      </trkpt>
      <trkpt lat="45.19719" lon="5.95505">
        <ele>1250.5</ele>
        <time>2026-07-14T08:14:34Z</time>
      </trkpt>
      <trkpt lat="45.19718" lon="5.95505">
        <ele>1250.8</ele>
        <time>2026-07-14T08:14:35Z</time>
      </trkpt>
      <trkpt lat="45.19718" lon="5.95506">
        <ele>1250.9</ele>
        <time>2026-07-14T08:14:36Z</time>
      </trkpt>
      <trkpt lat="45.19718" lon="5.95506">
        <ele>1251.1</ele>
        <time>2026-07-14T08:14:37Z</time>
      </trkpt>
      <trkpt lat="45.19718" lon="5.95506">
        <ele>1251.1</ele>
        <time>2026-07-14T08:14:38Z</time>
      </trkpt>
      <trkpt lat="45.19718" lon="5.95506">
        <ele>1251.2</ele>
        <time>2026-07-14T08:14:39Z</time>
      </trkpt>
      <trkpt lat="45.19717" lon="5.95506">
        <ele>1251.3</ele>
        <time>2026-07-14T08:14:40Z</time>
      </trkpt>
      <trkpt lat="45.19717" lon="5.95506">
        <ele>1251.4</ele>
        <time>2026-07-14T08:14:41Z</time>
      </trkpt>
      <trkpt lat="45.19717" lon="5.95506">
        <ele>1251.5</ele>
        <time>2026-07-14T08:14:42Z</time>
      </trkpt>
      <trkpt lat="45.19717" lon="5.95506">
        <ele>1251.5</ele>
        <time>2026-07-14T08:14:43Z</time>
      </trkpt>
      <trkpt lat="45.19717" lon="5.95506">
        <ele>1251.6</ele>
        <time>2026-07-14T08:14:44Z</time>
      </trkpt>
      <trkpt lat="45.19717" lon="5.95507">
        <ele>1251.7</ele>
        <time>2026-07-14T08:14:45Z</time>
      </trkpt>
      <trkpt lat="45.19716" lon="5.95507">
        <ele>1251.8</ele>
        <time>2026-07-14T08:14:46Z</time>
      </trkpt>
      <trkpt lat="45.19716" lon="5.95507">
        <ele>1252</ele>
        <time>2026-07-14T08:14:47Z</time>
      </trkpt>
      <trkpt lat="45.19716" lon="5.95508">
        <ele>1252.1</ele>
        <time>2026-07-14T08:14:48Z</time>
      </trkpt>
      <trkpt lat="45.19715" lon="5.95508">
        <ele>1252.3</ele>
        <time>2026-07-14T08:14:49Z</time>
      </trkpt>
      <trkpt lat="45.19715" lon="5.95508">
        <ele>1252.3</ele>
        <time>2026-07-14T08:14:50Z</time>
      </trkpt>
      <trkpt lat="45.19715" lon="5.95508">
        <ele>1252.5</ele>
        <time>2026-07-14T08:14:51Z</time>
      </trkpt>
      <trkpt lat="45.19714" lon="5.95508">
        <ele>1252.7</ele>
        <time>2026-07-14T08:14:52Z</time>
      </trkpt>
      <trkpt lat="45.19714" lon="5.95508">
        <ele>1252.8</ele>
        <time>2026-07-14T08:14:53Z</time>
      </trkpt>
      <trkpt lat="45.19714" lon="5.95509">
        <ele>1252.9</ele>
        <time>2026-07-14T08:14:54Z</time>
      </trkpt>
      <trkpt lat="45.19714" lon="5.95509">
        <ele>1253</ele>
        <time>2026-07-14T08:14:55Z</time>
      </trkpt>
      <trkpt lat="45.19713" lon="5.95509">
        <ele>1253.2</ele>
        <time>2026-07-14T08:14:57Z</time>
      </trkpt>
      <trkpt lat="45.19713" lon="5.9551">
        <ele>1253.3</ele>
        <time>2026-07-14T08:14:58Z</time>
      </trkpt>
      <trkpt lat="45.19713" lon="5.9551">
        <ele>1253.5</ele>
        <time>2026-07-14T08:14:59Z</time>
      </trkpt>
      <trkpt lat="45.19713" lon="5.9551">
        <ele>1253.5</ele>
        <time>2026-07-14T08:15:00Z</time>
      </trkpt>
      <trkpt lat="45.19713" lon="5.95511">
        <ele>1253.7</ele>
        <time>2026-07-14T08:15:01Z</time>
      </trkpt>
      <trkpt lat="45.19713" lon="5.95511">
        <ele>1253.8</ele>
        <time>2026-07-14T08:15:02Z</time>
      </trkpt>
      <trkpt lat="45.19713" lon="5.95512">
        <ele>1254</ele>
        <time>2026-07-14T08:15:03Z</time>
      </trkpt>
      <trkpt lat="45.19713" lon="5.95513">
        <ele>1254.1</ele>
        <time>2026-07-14T08:15:04Z</time>
      </trkpt>
      <trkpt lat="45.19713" lon="5.95513">
        <ele>1254.2</ele>
        <time>2026-07-14T08:15:05Z</time>
      </trkpt>
      <trkpt lat="45.19713" lon="5.95513">
        <ele>1254.3</ele>
        <time>2026-07-14T08:15:06Z</time>
      </trkpt>
      <trkpt lat="45.19713" lon="5.95514">
        <ele>1254.6</ele>
        <time>2026-07-14T08:15:07Z</time>
      </trkpt>
      <trkpt lat="45.19713" lon="5.95515">
        <ele>1254.8</ele>
        <time>2026-07-14T08:15:08Z</time>
      </trkpt>
      <trkpt lat="45.19713" lon="5.95515">
        <ele>1254.9</ele>
        <time>2026-07-14T08:15:09Z</time>
      </trkpt>
      <trkpt lat="45.19714" lon="5.95517">
        <ele>1255.3</ele>
        <time>2026-07-14T08:15:10Z</time>
      </trkpt>
      <trkpt lat="45.19714" lon="5.95518">
        <ele>1255.8</ele>
        <time>2026-07-14T08:15:11Z</time>
      </trkpt>
      <trkpt lat="45.19714" lon="5.9552">
        <ele>1256.2</ele>
        <time>2026-07-14T08:15:12Z</time>
      </trkpt>
      <trkpt lat="45.19715" lon="5.95521">
        <ele>1256.6</ele>
        <time>2026-07-14T08:15:13Z</time>
      </trkpt>
      <trkpt lat="45.19715" lon="5.95522">
        <ele>1256.9</ele>
        <time>2026-07-14T08:15:14Z</time>
      </trkpt>
      <trkpt lat="45.19715" lon="5.95522">
        <ele>1257.1</ele>
        <time>2026-07-14T08:15:15Z</time>
      </trkpt>
      <trkpt lat="45.19716" lon="5.95523">
        <ele>1257.3</ele>
        <time>2026-07-14T08:15:16Z</time>
      </trkpt>
      <trkpt lat="45.19716" lon="5.95524">
        <ele>1257.5</ele>
        <time>2026-07-14T08:15:17Z</time>
      </trkpt>
      <trkpt lat="45.19716" lon="5.95524">
        <ele>1257.7</ele>
        <time>2026-07-14T08:15:18Z</time>
      </trkpt>
      <trkpt lat="45.19716" lon="5.95525">
        <ele>1257.9</ele>
        <time>2026-07-14T08:15:19Z</time>
      </trkpt>
      <trkpt lat="45.19717" lon="5.95525">
        <ele>1258</ele>
        <time>2026-07-14T08:15:20Z</time>
      </trkpt>
      <trkpt lat="45.19717" lon="5.95526">
        <ele>1258.2</ele>
        <time>2026-07-14T08:15:21Z</time>
      </trkpt>
      <trkpt lat="45.19717" lon="5.95526">
        <ele>1258.3</ele>
        <time>2026-07-14T08:15:22Z</time>
      </trkpt>
      <trkpt lat="45.19716" lon="5.95527">
        <ele>1258.5</ele>
        <time>2026-07-14T08:15:23Z</time>
      </trkpt>
      <trkpt lat="45.19716" lon="5.95528">
        <ele>1258.7</ele>
        <time>2026-07-14T08:15:24Z</time>
      </trkpt>
      <trkpt lat="45.19716" lon="5.95528">
        <ele>1258.8</ele>
        <time>2026-07-14T08:15:25Z</time>
      </trkpt>
      <trkpt lat="45.19716" lon="5.95529">
        <ele>1259</ele>
        <time>2026-07-14T08:15:26Z</time>
      </trkpt>
      <trkpt lat="45.19716" lon="5.95529">
        <ele>1259.1</ele>
        <time>2026-07-14T08:15:27Z</time>
      </trkpt>
      <trkpt lat="45.19716" lon="5.9553">
        <ele>1259.3</ele>
        <time>2026-07-14T08:15:28Z</time>
      </trkpt>
      <trkpt lat="45.19716" lon="5.95531">
        <ele>1259.5</ele>
        <time>2026-07-14T08:15:29Z</time>
      </trkpt>
      <trkpt lat="45.19716" lon="5.95532">
        <ele>1259.8</ele>
        <time>2026-07-14T08:15:30Z</time>
      </trkpt>
      <trkpt lat="45.19716" lon="5.95532">
        <ele>1260</ele>
        <time>2026-07-14T08:15:31Z</time>
      </trkpt>
      <trkpt lat="45.19716" lon="5.95532">
        <ele>1260</ele>
        <time>2026-07-14T08:15:32Z</time>
      </trkpt>
      <trkpt lat="45.19715" lon="5.95533">
        <ele>1260.1</ele>
        <time>2026-07-14T08:15:33Z</time>
      </trkpt>
      <trkpt lat="45.19715" lon="5.95533">
        <ele>1260.2</ele>
        <time>2026-07-14T08:15:34Z</time>
      </trkpt>
      <trkpt lat="45.19715" lon="5.95533">
        <ele>1260.3</ele>
        <time>2026-07-14T08:15:35Z</time>
      </trkpt>
      <trkpt lat="45.19715" lon="5.95534">
        <ele>1260.4</ele>
        <time>2026-07-14T08:15:37Z</time>
      </trkpt>
      <trkpt lat="45.19715" lon="5.95534">
        <ele>1260.5</ele>
        <time>2026-07-14T08:15:38Z</time>
      </trkpt>
      <trkpt lat="45.19715" lon="5.95534">
        <ele>1260.5</ele>
        <time>2026-07-14T08:15:39Z</time>
      </trkpt>
      <trkpt lat="45.19715" lon="5.95534">
        <ele>1260.5</ele>
        <time>2026-07-14T08:15:40Z</time>
      </trkpt>
      <trkpt lat="45.19715" lon="5.95534">
        <ele>1260.5</ele>
        <time>2026-07-14T08:15:41Z</time>
      </trkpt>
      <trkpt lat="45.19715" lon="5.95534">
        <ele>1260.6</ele>
        <time>2026-07-14T08:15:42Z</time>
      </trkpt>
      <trkpt lat="45.19715" lon="5.95534">
        <ele>1260.6</ele>
        <time>2026-07-14T08:15:43Z</time>
      </trkpt>
      <trkpt lat="45.19715" lon="5.95534">
        <ele>1260.7</ele>
        <time>2026-07-14T08:15:44Z</time>
      </trkpt>
      <trkpt lat="45.19715" lon="5.95534">
        <ele>1260.7</ele>
        <time>2026-07-14T08:15:45Z</time>
      </trkpt>
      <trkpt lat="45.19715" lon="5.95534">
        <ele>1260.7</ele>
        <time>2026-07-14T08:15:46Z</time>
      </trkpt>
      <trkpt lat="45.19715" lon="5.95534">
        <ele>1260.7</ele>
        <time>2026-07-14T08:15:47Z</time>
      </trkpt>
      <trkpt lat="45.19715" lon="5.95534">
        <ele>1260.7</ele>
        <time>2026-07-14T08:15:48Z</time>
      </trkpt>
      <trkpt lat="45.19715" lon="5.95534">
        <ele>1260.8</ele>
        <time>2026-07-14T08:15:49Z</time>
      </trkpt>
      <trkpt lat="45.19715" lon="5.95534">
        <ele>1260.8</ele>
        <time>2026-07-14T08:15:50Z</time>
      </trkpt>
      <trkpt lat="45.19715" lon="5.95534">
        <ele>1260.8</ele>
        <time>2026-07-14T08:15:51Z</time>
      </trkpt>
      <trkpt lat="45.19715" lon="5.95534">
        <ele>1260.9</ele>
        <time>2026-07-14T08:15:52Z</time>
      </trkpt>
      <trkpt lat="45.19715" lon="5.95534">
        <ele>1260.9</ele>
        <time>2026-07-14T08:15:53Z</time>
      </trkpt>
      <trkpt lat="45.19715" lon="5.95534">
        <ele>1261</ele>
        <time>2026-07-14T08:15:54Z</time>
      </trkpt>
      <trkpt lat="45.19714" lon="5.95534">
        <ele>1261.3</ele>
        <time>2026-07-14T08:15:55Z</time>
      </trkpt>
      <trkpt lat="45.19713" lon="5.95533">
        <ele>1261.8</ele>
        <time>2026-07-14T08:15:56Z</time>
      </trkpt>
      <trkpt lat="45.19713" lon="5.95532">
        <ele>1262.1</ele>
        <time>2026-07-14T08:15:57Z</time>
      </trkpt>
      <trkpt lat="45.19713" lon="5.95532">
        <ele>1262.1</ele>
        <time>2026-07-14T08:15:58Z</time>
      </trkpt>
      <trkpt lat="45.19713" lon="5.95532">
        <ele>1262.3</ele>
        <time>2026-07-14T08:15:59Z</time>
      </trkpt>
      <trkpt lat="45.19713" lon="5.95531">
        <ele>1262.3</ele>
        <time>2026-07-14T08:16:00Z</time>
      </trkpt>
      <trkpt lat="45.19713" lon="5.95531">
        <ele>1262.4</ele>
        <time>2026-07-14T08:16:01Z</time>
      </trkpt>
      <trkpt lat="45.19713" lon="5.95531">
        <ele>1262.6</ele>
        <time>2026-07-14T08:16:02Z</time>
      </trkpt>
      <trkpt lat="45.19712" lon="5.9553">
        <ele>1262.8</ele>
        <time>2026-07-14T08:16:03Z</time>
      </trkpt>
      <trkpt lat="45.19712" lon="5.9553">
        <ele>1263</ele>
        <time>2026-07-14T08:16:04Z</time>
      </trkpt>
      <trkpt lat="45.19712" lon="5.9553">
        <ele>1263.1</ele>
        <time>2026-07-14T08:16:05Z</time>
      </trkpt>
      <trkpt lat="45.19711" lon="5.95529">
        <ele>1263.4</ele>
        <time>2026-07-14T08:16:06Z</time>
      </trkpt>
      <trkpt lat="45.19711" lon="5.95529">
        <ele>1263.5</ele>
        <time>2026-07-14T08:16:07Z</time>
      </trkpt>
      <trkpt lat="45.1971" lon="5.95529">
        <ele>1263.7</ele>
        <time>2026-07-14T08:16:08Z</time>
      </trkpt>
      <trkpt lat="45.1971" lon="5.95529">
        <ele>1263.9</ele>
        <time>2026-07-14T08:16:09Z</time>
      </trkpt>
      <trkpt lat="45.19709" lon="5.95529">
        <ele>1264.1</ele>
        <time>2026-07-14T08:16:10Z</time>
      </trkpt>
      <trkpt lat="45.19709" lon="5.9553">
        <ele>1264.4</ele>
        <time>2026-07-14T08:16:11Z</time>
      </trkpt>
      <trkpt lat="45.19709" lon="5.95531">
        <ele>1264.6</ele>
        <time>2026-07-14T08:16:12Z</time>
      </trkpt>
      <trkpt lat="45.19708" lon="5.95531">
        <ele>1264.8</ele>
        <time>2026-07-14T08:16:13Z</time>
      </trkpt>
      <trkpt lat="45.19708" lon="5.95532">
        <ele>1265</ele>
        <time>2026-07-14T08:16:14Z</time>
      </trkpt>
      <trkpt lat="45.19708" lon="5.95533">
        <ele>1265.2</ele>
        <time>2026-07-14T08:16:15Z</time>
      </trkpt>
      <trkpt lat="45.19708" lon="5.95534">
        <ele>1265.4</ele>
        <time>2026-07-14T08:16:16Z</time>
      </trkpt>
      <trkpt lat="45.19708" lon="5.95535">
        <ele>1265.7</ele>
        <time>2026-07-14T08:16:17Z</time>
      </trkpt>
      <trkpt lat="45.19708" lon="5.95536">
        <ele>1266</ele>
        <time>2026-07-14T08:16:18Z</time>
      </trkpt>
      <trkpt lat="45.19707" lon="5.95536">
        <ele>1266.2</ele>
        <time>2026-07-14T08:16:19Z</time>
      </trkpt>
      <trkpt lat="45.19707" lon="5.95537">
        <ele>1266.4</ele>
        <time>2026-07-14T08:16:20Z</time>
      </trkpt>
      <trkpt lat="45.19707" lon="5.95538">
        <ele>1266.6</ele>
        <time>2026-07-14T08:16:21Z</time>
      </trkpt>
      <trkpt lat="45.19707" lon="5.95538">
        <ele>1266.7</ele>
        <time>2026-07-14T08:16:22Z</time>
      </trkpt>
      <trkpt lat="45.19707" lon="5.95538">
        <ele>1266.8</ele>
        <time>2026-07-14T08:16:23Z</time>
      </trkpt>
      <trkpt lat="45.19707" lon="5.95539">
        <ele>1266.9</ele>
        <time>2026-07-14T08:16:24Z</time>
      </trkpt>
      <trkpt lat="45.19706" lon="5.95539">
        <ele>1267.1</ele>
        <time>2026-07-14T08:16:25Z</time>
      </trkpt>
      <trkpt lat="45.19706" lon="5.95539">
        <ele>1267.3</ele>
        <time>2026-07-14T08:16:26Z</time>
      </trkpt>
      <trkpt lat="45.19706" lon="5.95539">
        <ele>1267.4</ele>
        <time>2026-07-14T08:16:27Z</time>
      </trkpt>
      <trkpt lat="45.19705" lon="5.95539">
        <ele>1267.6</ele>
        <time>2026-07-14T08:16:28Z</time>
      </trkpt>
      <trkpt lat="45.19705" lon="5.95539">
        <ele>1267.8</ele>
        <time>2026-07-14T08:16:29Z</time>
      </trkpt>
      <trkpt lat="45.19705" lon="5.9554">
        <ele>1267.8</ele>
        <time>2026-07-14T08:16:30Z</time>
      </trkpt>
      <trkpt lat="45.19704" lon="5.9554">
        <ele>1267.9</ele>
        <time>2026-07-14T08:16:31Z</time>
      </trkpt>
      <trkpt lat="45.19704" lon="5.9554">
        <ele>1268</ele>
        <time>2026-07-14T08:16:32Z</time>
      </trkpt>
      <trkpt lat="45.19704" lon="5.9554">
        <ele>1268.1</ele>
        <time>2026-07-14T08:16:33Z</time>
      </trkpt>
      <trkpt lat="45.19703" lon="5.9554">
        <ele>1268.3</ele>
        <time>2026-07-14T08:16:34Z</time>
      </trkpt>
      <trkpt lat="45.19703" lon="5.9554">
        <ele>1268.4</ele>
        <time>2026-07-14T08:16:35Z</time>
      </trkpt>
      <trkpt lat="45.19703" lon="5.95539">
        <ele>1268.5</ele>
        <time>2026-07-14T08:16:36Z</time>
      </trkpt>
      <trkpt lat="45.19702" lon="5.95539">
        <ele>1268.7</ele>
        <time>2026-07-14T08:16:37Z</time>
      </trkpt>
      <trkpt lat="45.19702" lon="5.95539">
        <ele>1268.9</ele>
        <time>2026-07-14T08:16:38Z</time>
      </trkpt>
      <trkpt lat="45.19702" lon="5.95539">
        <ele>1269</ele>
        <time>2026-07-14T08:16:39Z</time>
      </trkpt>
      <trkpt lat="45.19701" lon="5.95539">
        <ele>1269.1</ele>
        <time>2026-07-14T08:16:40Z</time>
      </trkpt>
      <trkpt lat="45.19701" lon="5.95539">
        <ele>1269.3</ele>
        <time>2026-07-14T08:16:41Z</time>
      </trkpt>
      <trkpt lat="45.19701" lon="5.95538">
        <ele>1269.4</ele>
        <time>2026-07-14T08:16:42Z</time>
      </trkpt>
      <trkpt lat="45.197" lon="5.95538">
        <ele>1269.6</ele>
        <time>2026-07-14T08:16:43Z</time>
      </trkpt>
      <trkpt lat="45.197" lon="5.95538">
        <ele>1269.8</ele>
        <time>2026-07-14T08:16:44Z</time>
      </trkpt>
      <trkpt lat="45.19699" lon="5.95538">
        <ele>1270</ele>
        <time>2026-07-14T08:16:45Z</time>
      </trkpt>
      <trkpt lat="45.19699" lon="5.95537">
        <ele>1270.2</ele>
        <time>2026-07-14T08:16:46Z</time>
      </trkpt>
      <trkpt lat="45.19699" lon="5.95537">
        <ele>1270.3</ele>
        <time>2026-07-14T08:16:47Z</time>
      </trkpt>
      <trkpt lat="45.19699" lon="5.95536">
        <ele>1270.5</ele>
        <time>2026-07-14T08:16:48Z</time>
      </trkpt>
      <trkpt lat="45.19698" lon="5.95535">
        <ele>1270.7</ele>
        <time>2026-07-14T08:16:49Z</time>
      </trkpt>
      <trkpt lat="45.19698" lon="5.95535">
        <ele>1270.9</ele>
        <time>2026-07-14T08:16:50Z</time>
      </trkpt>
      <trkpt lat="45.19698" lon="5.95535">
        <ele>1271.1</ele>
        <time>2026-07-14T08:16:51Z</time>
      </trkpt>
      <trkpt lat="45.19697" lon="5.95534">
        <ele>1271.2</ele>
        <time>2026-07-14T08:16:52Z</time>
      </trkpt>
      <trkpt lat="45.19697" lon="5.95535">
        <ele>1271.4</ele>
        <time>2026-07-14T08:16:53Z</time>
      </trkpt>
      <trkpt lat="45.19697" lon="5.95535">
        <ele>1271.6</ele>
        <time>2026-07-14T08:16:54Z</time>
      </trkpt>
      <trkpt lat="45.19697" lon="5.95536">
        <ele>1271.7</ele>
        <time>2026-07-14T08:16:55Z</time>
      </trkpt>
      <trkpt lat="45.19697" lon="5.95536">
        <ele>1271.9</ele>
        <time>2026-07-14T08:16:56Z</time>
      </trkpt>
      <trkpt lat="45.19697" lon="5.95536">
        <ele>1272</ele>
        <time>2026-07-14T08:16:57Z</time>
      </trkpt>
      <trkpt lat="45.19698" lon="5.95537">
        <ele>1272.3</ele>
        <time>2026-07-14T08:16:58Z</time>
      </trkpt>
      <trkpt lat="45.19698" lon="5.95537">
        <ele>1272.4</ele>
        <time>2026-07-14T08:16:59Z</time>
      </trkpt>
      <trkpt lat="45.19698" lon="5.95538">
        <ele>1272.5</ele>
        <time>2026-07-14T08:17:00Z</time>
      </trkpt>
      <trkpt lat="45.19697" lon="5.95538">
        <ele>1272.6</ele>
        <time>2026-07-14T08:17:01Z</time>
      </trkpt>
      <trkpt lat="45.19697" lon="5.95538">
        <ele>1272.8</ele>
        <time>2026-07-14T08:17:02Z</time>
      </trkpt>
      <trkpt lat="45.19696" lon="5.95538">
        <ele>1273.1</ele>
        <time>2026-07-14T08:17:04Z</time>
      </trkpt>
      <trkpt lat="45.19696" lon="5.95539">
        <ele>1273.2</ele>
        <time>2026-07-14T08:17:05Z</time>
      </trkpt>
      <trkpt lat="45.19696" lon="5.95539">
        <ele>1273.3</ele>
        <time>2026-07-14T08:17:06Z</time>
      </trkpt>
      <trkpt lat="45.19696" lon="5.95539">
        <ele>1273.3</ele>
        <time>2026-07-14T08:17:07Z</time>
      </trkpt>
      <trkpt lat="45.19695" lon="5.95538">
        <ele>1273.5</ele>
        <time>2026-07-14T08:17:08Z</time>
      </trkpt>
      <trkpt lat="45.19695" lon="5.95538">
        <ele>1273.6</ele>
        <time>2026-07-14T08:17:09Z</time>
      </trkpt>
      <trkpt lat="45.19695" lon="5.95538">
        <ele>1273.7</ele>
        <time>2026-07-14T08:17:10Z</time>
      </trkpt>
      <trkpt lat="45.19695" lon="5.95537">
        <ele>1273.8</ele>
        <time>2026-07-14T08:17:11Z</time>
      </trkpt>
      <trkpt lat="45.19695" lon="5.95537">
        <ele>1274</ele>
        <time>2026-07-14T08:17:12Z</time>
      </trkpt>
      <trkpt lat="45.19694" lon="5.95536">
        <ele>1274.1</ele>
        <time>2026-07-14T08:17:13Z</time>
      </trkpt>
      <trkpt lat="45.19694" lon="5.95536">
        <ele>1274.3</ele>
        <time>2026-07-14T08:17:14Z</time>
      </trkpt>
      <trkpt lat="45.19693" lon="5.95536">
        <ele>1274.6</ele>
        <time>2026-07-14T08:17:16Z</time>
      </trkpt>
      <trkpt lat="45.19693" lon="5.95536">
        <ele>1274.8</ele>
        <time>2026-07-14T08:17:17Z</time>
      </trkpt>
      <trkpt lat="45.19692" lon="5.95536">
        <ele>1274.9</ele>
        <time>2026-07-14T08:17:18Z</time>
      </trkpt>
      <trkpt lat="45.19692" lon="5.95536">
        <ele>1275.2</ele>
        <time>2026-07-14T08:17:19Z</time>
      </trkpt>
      <trkpt lat="45.19692" lon="5.95536">
        <ele>1275.3</ele>
        <time>2026-07-14T08:17:20Z</time>
      </trkpt>
      <trkpt lat="45.19691" lon="5.95537">
        <ele>1275.4</ele>
        <time>2026-07-14T08:17:21Z</time>
      </trkpt>
      <trkpt lat="45.19691" lon="5.95537">
        <ele>1275.6</ele>
        <time>2026-07-14T08:17:22Z</time>
      </trkpt>
      <trkpt lat="45.19691" lon="5.95538">
        <ele>1275.8</ele>
        <time>2026-07-14T08:17:23Z</time>
      </trkpt>
      <trkpt lat="45.1969" lon="5.95538">
        <ele>1275.9</ele>
        <time>2026-07-14T08:17:24Z</time>
      </trkpt>
      <trkpt lat="45.1969" lon="5.95538">
        <ele>1276</ele>
        <time>2026-07-14T08:17:25Z</time>
      </trkpt>
      <trkpt lat="45.1969" lon="5.95538">
        <ele>1276.1</ele>
        <time>2026-07-14T08:17:26Z</time>
      </trkpt>
      <trkpt lat="45.1969" lon="5.95539">
        <ele>1276.1</ele>
        <time>2026-07-14T08:17:27Z</time>
      </trkpt>
      <trkpt lat="45.1969" lon="5.95539">
        <ele>1276.1</ele>
        <time>2026-07-14T08:17:28Z</time>
      </trkpt>
      <trkpt lat="45.1969" lon="5.95539">
        <ele>1276.1</ele>
        <time>2026-07-14T08:17:29Z</time>
      </trkpt>
      <trkpt lat="45.1969" lon="5.95539">
        <ele>1276.3</ele>
        <time>2026-07-14T08:17:30Z</time>
      </trkpt>
      <trkpt lat="45.19689" lon="5.95539">
        <ele>1276.5</ele>
        <time>2026-07-14T08:17:32Z</time>
      </trkpt>
      <trkpt lat="45.19689" lon="5.95539">
        <ele>1276.6</ele>
        <time>2026-07-14T08:17:33Z</time>
      </trkpt>
      <trkpt lat="45.19689" lon="5.95539">
        <ele>1276.7</ele>
        <time>2026-07-14T08:17:34Z</time>
      </trkpt>
      <trkpt lat="45.19689" lon="5.9554">
        <ele>1276.8</ele>
        <time>2026-07-14T08:17:35Z</time>
      </trkpt>
      <trkpt lat="45.19689" lon="5.9554">
        <ele>1276.8</ele>
        <time>2026-07-14T08:17:36Z</time>
      </trkpt>
      <trkpt lat="45.19689" lon="5.9554">
        <ele>1276.9</ele>
        <time>2026-07-14T08:17:37Z</time>
      </trkpt>
      <trkpt lat="45.19689" lon="5.9554">
        <ele>1277</ele>
        <time>2026-07-14T08:17:38Z</time>
      </trkpt>
      <trkpt lat="45.19688" lon="5.95541">
        <ele>1277.1</ele>
        <time>2026-07-14T08:17:39Z</time>
      </trkpt>
      <trkpt lat="45.19688" lon="5.95541">
        <ele>1277.2</ele>
        <time>2026-07-14T08:17:40Z</time>
      </trkpt>
      <trkpt lat="45.19688" lon="5.95542">
        <ele>1277.4</ele>
        <time>2026-07-14T08:17:42Z</time>
      </trkpt>
      <trkpt lat="45.19687" lon="5.95542">
        <ele>1277.6</ele>
        <time>2026-07-14T08:17:43Z</time>
      </trkpt>
      <trkpt lat="45.19687" lon="5.95542">
        <ele>1277.7</ele>
        <time>2026-07-14T08:17:44Z</time>
      </trkpt>
      <trkpt lat="45.19687" lon="5.95542">
        <ele>1277.8</ele>
        <time>2026-07-14T08:17:45Z</time>
      </trkpt>
      <trkpt lat="45.19686" lon="5.95542">
        <ele>1277.9</ele>
        <time>2026-07-14T08:17:46Z</time>
      </trkpt>
      <trkpt lat="45.19686" lon="5.95542">
        <ele>1278</ele>
        <time>2026-07-14T08:17:47Z</time>
      </trkpt>
      <trkpt lat="45.19686" lon="5.95543">
        <ele>1278.2</ele>
        <time>2026-07-14T08:17:48Z</time>
      </trkpt>
      <trkpt lat="45.19686" lon="5.95543">
        <ele>1278.3</ele>
        <time>2026-07-14T08:17:49Z</time>
      </trkpt>
      <trkpt lat="45.19685" lon="5.95543">
        <ele>1278.4</ele>
        <time>2026-07-14T08:17:50Z</time>
      </trkpt>
      <trkpt lat="45.19685" lon="5.95544">
        <ele>1278.6</ele>
        <time>2026-07-14T08:17:51Z</time>
      </trkpt>
      <trkpt lat="45.19685" lon="5.95545">
        <ele>1278.7</ele>
        <time>2026-07-14T08:17:52Z</time>
      </trkpt>
      <trkpt lat="45.19685" lon="5.95545">
        <ele>1278.9</ele>
        <time>2026-07-14T08:17:54Z</time>
      </trkpt>
      <trkpt lat="45.19685" lon="5.95546">
        <ele>1279.2</ele>
        <time>2026-07-14T08:17:55Z</time>
      </trkpt>
      <trkpt lat="45.19685" lon="5.95547">
        <ele>1279.3</ele>
        <time>2026-07-14T08:17:56Z</time>
      </trkpt>
      <trkpt lat="45.19685" lon="5.95547">
        <ele>1279.5</ele>
        <time>2026-07-14T08:17:57Z</time>
      </trkpt>
      <trkpt lat="45.19684" lon="5.95548">
        <ele>1279.6</ele>
        <time>2026-07-14T08:17:58Z</time>
      </trkpt>
      <trkpt lat="45.19684" lon="5.95548">
        <ele>1279.7</ele>
        <time>2026-07-14T08:17:59Z</time>
      </trkpt>
      <trkpt lat="45.19684" lon="5.95548">
        <ele>1279.8</ele>
        <time>2026-07-14T08:18:00Z</time>
      </trkpt>
      <trkpt lat="45.19683" lon="5.95548">
        <ele>1280</ele>
        <time>2026-07-14T08:18:02Z</time>
      </trkpt>
      <trkpt lat="45.19684" lon="5.95548">
        <ele>1280.1</ele>
        <time>2026-07-14T08:18:03Z</time>
      </trkpt>
      <trkpt lat="45.19684" lon="5.95548">
        <ele>1280.1</ele>
        <time>2026-07-14T08:18:04Z</time>
      </trkpt>
      <trkpt lat="45.19684" lon="5.95548">
        <ele>1280.2</ele>
        <time>2026-07-14T08:18:05Z</time>
      </trkpt>
      <trkpt lat="45.19684" lon="5.95548">
        <ele>1280.2</ele>
        <time>2026-07-14T08:18:06Z</time>
      </trkpt>
      <trkpt lat="45.19684" lon="5.95548">
        <ele>1280.2</ele>
        <time>2026-07-14T08:18:07Z</time>
      </trkpt>
      <trkpt lat="45.19684" lon="5.95548">
        <ele>1280.2</ele>
        <time>2026-07-14T08:18:08Z</time>
      </trkpt>
      <trkpt lat="45.19684" lon="5.95548">
        <ele>1280.3</ele>
        <time>2026-07-14T08:18:09Z</time>
      </trkpt>
      <trkpt lat="45.19684" lon="5.95548">
        <ele>1280.3</ele>
        <time>2026-07-14T08:18:10Z</time>
      </trkpt>
      <trkpt lat="45.19684" lon="5.95548">
        <ele>1280.4</ele>
        <time>2026-07-14T08:18:11Z</time>
      </trkpt>
      <trkpt lat="45.19684" lon="5.95548">
        <ele>1280.4</ele>
        <time>2026-07-14T08:18:12Z</time>
      </trkpt>
      <trkpt lat="45.19684" lon="5.95549">
        <ele>1280.5</ele>
        <time>2026-07-14T08:18:13Z</time>
      </trkpt>
      <trkpt lat="45.19684" lon="5.95549">
        <ele>1280.6</ele>
        <time>2026-07-14T08:18:14Z</time>
      </trkpt>
      <trkpt lat="45.19683" lon="5.9555">
        <ele>1280.9</ele>
        <time>2026-07-14T08:18:15Z</time>
      </trkpt>
      <trkpt lat="45.19681" lon="5.95551">
        <ele>1281.6</ele>
        <time>2026-07-14T08:18:16Z</time>
      </trkpt>
      <trkpt lat="45.1968" lon="5.95551">
        <ele>1282</ele>
        <time>2026-07-14T08:18:17Z</time>
      </trkpt>
      <trkpt lat="45.19679" lon="5.95551">
        <ele>1282.4</ele>
        <time>2026-07-14T08:18:19Z</time>
      </trkpt>
      <trkpt lat="45.19679" lon="5.95551">
        <ele>1282.6</ele>
        <time>2026-07-14T08:18:20Z</time>
      </trkpt>
      <trkpt lat="45.19678" lon="5.95551">
        <ele>1282.7</ele>
        <time>2026-07-14T08:18:21Z</time>
      </trkpt>
      <trkpt lat="45.19678" lon="5.95551">
        <ele>1282.9</ele>
        <time>2026-07-14T08:18:22Z</time>
      </trkpt>
      <trkpt lat="45.19677" lon="5.95552">
        <ele>1283.2</ele>
        <time>2026-07-14T08:18:23Z</time>
      </trkpt>
      <trkpt lat="45.19676" lon="5.95552">
        <ele>1283.4</ele>
        <time>2026-07-14T08:18:24Z</time>
      </trkpt>
      <trkpt lat="45.19677" lon="5.95552">
        <ele>1283.5</ele>
        <time>2026-07-14T08:18:25Z</time>
      </trkpt>
      <trkpt lat="45.19677" lon="5.95552">
        <ele>1283.5</ele>
        <time>2026-07-14T08:18:26Z</time>
      </trkpt>
      <trkpt lat="45.19677" lon="5.95552">
        <ele>1283.5</ele>
        <time>2026-07-14T08:18:27Z</time>
      </trkpt>
      <trkpt lat="45.19677" lon="5.95552">
        <ele>1283.5</ele>
        <time>2026-07-14T08:18:28Z</time>
      </trkpt>
      <trkpt lat="45.19677" lon="5.95552">
        <ele>1283.6</ele>
        <time>2026-07-14T08:18:29Z</time>
      </trkpt>
      <trkpt lat="45.19677" lon="5.95552">
        <ele>1283.7</ele>
        <time>2026-07-14T08:18:30Z</time>
      </trkpt>
      <trkpt lat="45.19677" lon="5.95552">
        <ele>1283.7</ele>
        <time>2026-07-14T08:18:31Z</time>
      </trkpt>
      <trkpt lat="45.19677" lon="5.95552">
        <ele>1283.7</ele>
        <time>2026-07-14T08:18:32Z</time>
      </trkpt>
      <trkpt lat="45.19677" lon="5.95552">
        <ele>1283.8</ele>
        <time>2026-07-14T08:18:34Z</time>
      </trkpt>
      <trkpt lat="45.19677" lon="5.95552">
        <ele>1283.8</ele>
        <time>2026-07-14T08:18:35Z</time>
      </trkpt>
      <trkpt lat="45.19677" lon="5.95552">
        <ele>1283.8</ele>
        <time>2026-07-14T08:18:36Z</time>
      </trkpt>
      <trkpt lat="45.19677" lon="5.95552">
        <ele>1283.8</ele>
        <time>2026-07-14T08:18:37Z</time>
      </trkpt>
      <trkpt lat="45.19677" lon="5.95552">
        <ele>1283.8</ele>
        <time>2026-07-14T08:18:38Z</time>
      </trkpt>
      <trkpt lat="45.19677" lon="5.95552">
        <ele>1283.9</ele>
        <time>2026-07-14T08:18:39Z</time>
      </trkpt>
      <trkpt lat="45.19677" lon="5.95552">
        <ele>1283.9</ele>
        <time>2026-07-14T08:18:40Z</time>
      </trkpt>
      <trkpt lat="45.19677" lon="5.95552">
        <ele>1283.9</ele>
        <time>2026-07-14T08:18:42Z</time>
      </trkpt>
      <trkpt lat="45.19677" lon="5.95552">
        <ele>1284</ele>
        <time>2026-07-14T08:18:43Z</time>
      </trkpt>
      <trkpt lat="45.19677" lon="5.95552">
        <ele>1284</ele>
        <time>2026-07-14T08:18:44Z</time>
      </trkpt>
      <trkpt lat="45.19677" lon="5.95552">
        <ele>1284</ele>
        <time>2026-07-14T08:18:45Z</time>
      </trkpt>
      <trkpt lat="45.19677" lon="5.95552">
        <ele>1284</ele>
        <time>2026-07-14T08:18:46Z</time>
      </trkpt>
      <trkpt lat="45.19677" lon="5.95553">
        <ele>1284.1</ele>
        <time>2026-07-14T08:18:47Z</time>
      </trkpt>
      <trkpt lat="45.19677" lon="5.95553">
        <ele>1284.2</ele>
        <time>2026-07-14T08:18:48Z</time>
      </trkpt>
      <trkpt lat="45.19677" lon="5.95553">
        <ele>1284.2</ele>
        <time>2026-07-14T08:18:49Z</time>
      </trkpt>
      <trkpt lat="45.19677" lon="5.95553">
        <ele>1284.3</ele>
        <time>2026-07-14T08:18:50Z</time>
      </trkpt>
      <trkpt lat="45.19677" lon="5.95553">
        <ele>1284.3</ele>
        <time>2026-07-14T08:18:51Z</time>
      </trkpt>
      <trkpt lat="45.19677" lon="5.95553">
        <ele>1284.3</ele>
        <time>2026-07-14T08:18:52Z</time>
      </trkpt>
      <trkpt lat="45.19677" lon="5.95554">
        <ele>1284.4</ele>
        <time>2026-07-14T08:18:53Z</time>
      </trkpt>
      <trkpt lat="45.19677" lon="5.95554">
        <ele>1284.4</ele>
        <time>2026-07-14T08:18:54Z</time>
      </trkpt>
      <trkpt lat="45.19676" lon="5.95554">
        <ele>1284.5</ele>
        <time>2026-07-14T08:18:55Z</time>
      </trkpt>
      <trkpt lat="45.19676" lon="5.95554">
        <ele>1284.6</ele>
        <time>2026-07-14T08:18:56Z</time>
      </trkpt>
      <trkpt lat="45.19676" lon="5.95554">
        <ele>1284.6</ele>
        <time>2026-07-14T08:18:57Z</time>
      </trkpt>
      <trkpt lat="45.19676" lon="5.95554">
        <ele>1284.7</ele>
        <time>2026-07-14T08:18:59Z</time>
      </trkpt>
      <trkpt lat="45.19676" lon="5.95554">
        <ele>1284.7</ele>
        <time>2026-07-14T08:19:00Z</time>
      </trkpt>
      <trkpt lat="45.19676" lon="5.95554">
        <ele>1284.7</ele>
        <time>2026-07-14T08:19:01Z</time>
      </trkpt>
      <trkpt lat="45.19675" lon="5.95554">
        <ele>1284.8</ele>
        <time>2026-07-14T08:19:02Z</time>
      </trkpt>
      <trkpt lat="45.19675" lon="5.95554">
        <ele>1284.8</ele>
        <time>2026-07-14T08:19:03Z</time>
      </trkpt>
      <trkpt lat="45.19675" lon="5.95554">
        <ele>1284.9</ele>
        <time>2026-07-14T08:19:04Z</time>
      </trkpt>
      <trkpt lat="45.19675" lon="5.95554">
        <ele>1285</ele>
        <time>2026-07-14T08:19:05Z</time>
      </trkpt>
      <trkpt lat="45.19675" lon="5.95554">
        <ele>1285</ele>
        <time>2026-07-14T08:19:06Z</time>
      </trkpt>
      <trkpt lat="45.19675" lon="5.95554">
        <ele>1285.1</ele>
        <time>2026-07-14T08:19:07Z</time>
      </trkpt>
      <trkpt lat="45.19675" lon="5.95554">
        <ele>1285.1</ele>
        <time>2026-07-14T08:19:08Z</time>
      </trkpt>
      <trkpt lat="45.19674" lon="5.95555">
        <ele>1285.2</ele>
        <time>2026-07-14T08:19:09Z</time>
      </trkpt>
      <trkpt lat="45.19674" lon="5.95555">
        <ele>1285.2</ele>
        <time>2026-07-14T08:19:10Z</time>
      </trkpt>
      <trkpt lat="45.19674" lon="5.95555">
        <ele>1285.3</ele>
        <time>2026-07-14T08:19:11Z</time>
      </trkpt>
      <trkpt lat="45.19674" lon="5.95555">
        <ele>1285.3</ele>
        <time>2026-07-14T08:19:12Z</time>
      </trkpt>
      <trkpt lat="45.19674" lon="5.95555">
        <ele>1285.3</ele>
        <time>2026-07-14T08:19:13Z</time>
      </trkpt>
      <trkpt lat="45.19674" lon="5.95555">
        <ele>1285.4</ele>
        <time>2026-07-14T08:19:14Z</time>
      </trkpt>
      <trkpt lat="45.19674" lon="5.95555">
        <ele>1285.5</ele>
        <time>2026-07-14T08:19:15Z</time>
      </trkpt>
      <trkpt lat="45.19674" lon="5.95555">
        <ele>1285.5</ele>
        <time>2026-07-14T08:19:17Z</time>
      </trkpt>
      <trkpt lat="45.19673" lon="5.95556">
        <ele>1285.7</ele>
        <time>2026-07-14T08:19:18Z</time>
      </trkpt>
      <trkpt lat="45.19673" lon="5.95556">
        <ele>1285.9</ele>
        <time>2026-07-14T08:19:19Z</time>
      </trkpt>
      <trkpt lat="45.19672" lon="5.95556">
        <ele>1286</ele>
        <time>2026-07-14T08:19:20Z</time>
      </trkpt>
      <trkpt lat="45.19672" lon="5.95556">
        <ele>1286.1</ele>
        <time>2026-07-14T08:19:21Z</time>
      </trkpt>
      <trkpt lat="45.19672" lon="5.95556">
        <ele>1286.3</ele>
        <time>2026-07-14T08:19:22Z</time>
      </trkpt>
      <trkpt lat="45.19671" lon="5.95557">
        <ele>1286.3</ele>
        <time>2026-07-14T08:19:23Z</time>
      </trkpt>
      <trkpt lat="45.19671" lon="5.95557">
        <ele>1286.4</ele>
        <time>2026-07-14T08:19:24Z</time>
      </trkpt>
      <trkpt lat="45.19671" lon="5.95557">
        <ele>1286.5</ele>
        <time>2026-07-14T08:19:25Z</time>
      </trkpt>
      <trkpt lat="45.19671" lon="5.95557">
        <ele>1286.6</ele>
        <time>2026-07-14T08:19:26Z</time>
      </trkpt>
      <trkpt lat="45.1967" lon="5.95558">
        <ele>1286.8</ele>
        <time>2026-07-14T08:19:27Z</time>
      </trkpt>
      <trkpt lat="45.1967" lon="5.95558">
        <ele>1287</ele>
        <time>2026-07-14T08:19:28Z</time>
      </trkpt>
      <trkpt lat="45.1967" lon="5.95558">
        <ele>1287</ele>
        <time>2026-07-14T08:19:29Z</time>
      </trkpt>
      <trkpt lat="45.19669" lon="5.95559">
        <ele>1287.3</ele>
        <time>2026-07-14T08:19:30Z</time>
      </trkpt>
      <trkpt lat="45.19669" lon="5.9556">
        <ele>1287.5</ele>
        <time>2026-07-14T08:19:31Z</time>
      </trkpt>
      <trkpt lat="45.19669" lon="5.95561">
        <ele>1287.7</ele>
        <time>2026-07-14T08:19:32Z</time>
      </trkpt>
      <trkpt lat="45.19669" lon="5.95561">
        <ele>1287.8</ele>
        <time>2026-07-14T08:19:33Z</time>
      </trkpt>
      <trkpt lat="45.19669" lon="5.95562">
        <ele>1288</ele>
        <time>2026-07-14T08:19:34Z</time>
      </trkpt>
      <trkpt lat="45.19669" lon="5.95563">
        <ele>1288.2</ele>
        <time>2026-07-14T08:19:35Z</time>
      </trkpt>
      <trkpt lat="45.19668" lon="5.95563">
        <ele>1288.3</ele>
        <time>2026-07-14T08:19:36Z</time>
      </trkpt>
      <trkpt lat="45.19669" lon="5.95563">
        <ele>1288.3</ele>
        <time>2026-07-14T08:19:37Z</time>
      </trkpt>
      <trkpt lat="45.19668" lon="5.95563">
        <ele>1288.4</ele>
        <time>2026-07-14T08:19:38Z</time>
      </trkpt>
      <trkpt lat="45.19669" lon="5.95563">
        <ele>1288.4</ele>
        <time>2026-07-14T08:19:39Z</time>
      </trkpt>
      <trkpt lat="45.19669" lon="5.95563">
        <ele>1288.5</ele>
        <time>2026-07-14T08:19:40Z</time>
      </trkpt>
      <trkpt lat="45.19669" lon="5.95563">
        <ele>1288.5</ele>
        <time>2026-07-14T08:19:41Z</time>
      </trkpt>
      <trkpt lat="45.19669" lon="5.95563">
        <ele>1288.5</ele>
        <time>2026-07-14T08:19:42Z</time>
      </trkpt>
      <trkpt lat="45.19669" lon="5.95563">
        <ele>1288.5</ele>
        <time>2026-07-14T08:19:43Z</time>
      </trkpt>
      <trkpt lat="45.19669" lon="5.95563">
        <ele>1288.6</ele>
        <time>2026-07-14T08:19:44Z</time>
      </trkpt>
      <trkpt lat="45.19669" lon="5.95563">
        <ele>1288.6</ele>
        <time>2026-07-14T08:19:45Z</time>
      </trkpt>
      <trkpt lat="45.19669" lon="5.95562">
        <ele>1288.7</ele>
        <time>2026-07-14T08:19:46Z</time>
      </trkpt>
      <trkpt lat="45.19669" lon="5.95562">
        <ele>1288.7</ele>
        <time>2026-07-14T08:19:47Z</time>
      </trkpt>
      <trkpt lat="45.19668" lon="5.95563">
        <ele>1288.7</ele>
        <time>2026-07-14T08:19:48Z</time>
      </trkpt>
      <trkpt lat="45.19668" lon="5.95563">
        <ele>1288.8</ele>
        <time>2026-07-14T08:19:49Z</time>
      </trkpt>
      <trkpt lat="45.19668" lon="5.95563">
        <ele>1288.8</ele>
        <time>2026-07-14T08:19:50Z</time>
      </trkpt>
      <trkpt lat="45.19668" lon="5.95563">
        <ele>1288.8</ele>
        <time>2026-07-14T08:19:51Z</time>
      </trkpt>
      <trkpt lat="45.19668" lon="5.95563">
        <ele>1288.9</ele>
        <time>2026-07-14T08:19:52Z</time>
      </trkpt>
      <trkpt lat="45.19668" lon="5.95563">
        <ele>1288.9</ele>
        <time>2026-07-14T08:19:53Z</time>
      </trkpt>
      <trkpt lat="45.19668" lon="5.95563">
        <ele>1288.9</ele>
        <time>2026-07-14T08:19:54Z</time>
      </trkpt>
      <trkpt lat="45.19668" lon="5.95563">
        <ele>1289</ele>
        <time>2026-07-14T08:19:55Z</time>
      </trkpt>
      <trkpt lat="45.19668" lon="5.95563">
        <ele>1289.1</ele>
        <time>2026-07-14T08:19:57Z</time>
      </trkpt>
      <trkpt lat="45.19668" lon="5.95563">
        <ele>1289.1</ele>
        <time>2026-07-14T08:19:58Z</time>
      </trkpt>
      <trkpt lat="45.19668" lon="5.95563">
        <ele>1289.1</ele>
        <time>2026-07-14T08:19:59Z</time>
      </trkpt>
      <trkpt lat="45.19668" lon="5.95563">
        <ele>1289.1</ele>
        <time>2026-07-14T08:20:00Z</time>
      </trkpt>
      <trkpt lat="45.19668" lon="5.95563">
        <ele>1289.1</ele>
        <time>2026-07-14T08:20:01Z</time>
      </trkpt>
      <trkpt lat="45.19668" lon="5.95563">
        <ele>1289.1</ele>
        <time>2026-07-14T08:20:02Z</time>
      </trkpt>
      <trkpt lat="45.19668" lon="5.95563">
        <ele>1289.2</ele>
        <time>2026-07-14T08:20:03Z</time>
      </trkpt>
      <trkpt lat="45.19668" lon="5.95564">
        <ele>1289.2</ele>
        <time>2026-07-14T08:20:04Z</time>
      </trkpt>
      <trkpt lat="45.19668" lon="5.95564">
        <ele>1289.2</ele>
        <time>2026-07-14T08:20:05Z</time>
      </trkpt>
      <trkpt lat="45.19667" lon="5.95564">
        <ele>1289.4</ele>
        <time>2026-07-14T08:20:06Z</time>
      </trkpt>
      <trkpt lat="45.19667" lon="5.95564">
        <ele>1289.5</ele>
        <time>2026-07-14T08:20:07Z</time>
      </trkpt>
      <trkpt lat="45.19667" lon="5.95564">
        <ele>1289.6</ele>
        <time>2026-07-14T08:20:08Z</time>
      </trkpt>
      <trkpt lat="45.19666" lon="5.95564">
        <ele>1289.7</ele>
        <time>2026-07-14T08:20:09Z</time>
      </trkpt>
      <trkpt lat="45.19666" lon="5.95564">
        <ele>1289.8</ele>
        <time>2026-07-14T08:20:10Z</time>
      </trkpt>
      <trkpt lat="45.19666" lon="5.95564">
        <ele>1289.8</ele>
        <time>2026-07-14T08:20:11Z</time>
      </trkpt>
      <trkpt lat="45.19666" lon="5.95563">
        <ele>1289.9</ele>
        <time>2026-07-14T08:20:13Z</time>
      </trkpt>
      <trkpt lat="45.19666" lon="5.95563">
        <ele>1289.9</ele>
        <time>2026-07-14T08:20:14Z</time>
      </trkpt>
      <trkpt lat="45.19666" lon="5.95563">
        <ele>1289.9</ele>
        <time>2026-07-14T08:20:15Z</time>
      </trkpt>
      <trkpt lat="45.19666" lon="5.95563">
        <ele>1289.9</ele>
        <time>2026-07-14T08:20:16Z</time>
      </trkpt>
      <trkpt lat="45.19666" lon="5.95563">
        <ele>1289.9</ele>
        <time>2026-07-14T08:20:17Z</time>
      </trkpt>
      <trkpt lat="45.19666" lon="5.95563">
        <ele>1289.9</ele>
        <time>2026-07-14T08:20:18Z</time>
      </trkpt>
      <trkpt lat="45.19667" lon="5.95564">
        <ele>1290</ele>
        <time>2026-07-14T08:20:19Z</time>
      </trkpt>
      <trkpt lat="45.19666" lon="5.95564">
        <ele>1290.1</ele>
        <time>2026-07-14T08:20:20Z</time>
      </trkpt>
      <trkpt lat="45.19666" lon="5.95564">
        <ele>1290.1</ele>
        <time>2026-07-14T08:20:21Z</time>
      </trkpt>
      <trkpt lat="45.19666" lon="5.95564">
        <ele>1290.1</ele>
        <time>2026-07-14T08:20:22Z</time>
      </trkpt>
      <trkpt lat="45.19666" lon="5.95564">
        <ele>1290.2</ele>
        <time>2026-07-14T08:20:23Z</time>
      </trkpt>
      <trkpt lat="45.19666" lon="5.95564">
        <ele>1290.2</ele>
        <time>2026-07-14T08:20:24Z</time>
      </trkpt>
      <trkpt lat="45.19666" lon="5.95564">
        <ele>1290.3</ele>
        <time>2026-07-14T08:20:25Z</time>
      </trkpt>
      <trkpt lat="45.19665" lon="5.95564">
        <ele>1290.4</ele>
        <time>2026-07-14T08:20:26Z</time>
      </trkpt>
      <trkpt lat="45.19665" lon="5.95564">
        <ele>1290.5</ele>
        <time>2026-07-14T08:20:27Z</time>
      </trkpt>
      <trkpt lat="45.19665" lon="5.95564">
        <ele>1290.5</ele>
        <time>2026-07-14T08:20:28Z</time>
      </trkpt>
      <trkpt lat="45.19665" lon="5.95565">
        <ele>1290.6</ele>
        <time>2026-07-14T08:20:29Z</time>
      </trkpt>
      <trkpt lat="45.19664" lon="5.95565">
        <ele>1290.8</ele>
        <time>2026-07-14T08:20:30Z</time>
      </trkpt>
      <trkpt lat="45.19664" lon="5.95565">
        <ele>1291</ele>
        <time>2026-07-14T08:20:31Z</time>
      </trkpt>
      <trkpt lat="45.19663" lon="5.95564">
        <ele>1291.1</ele>
        <time>2026-07-14T08:20:32Z</time>
      </trkpt>
      <trkpt lat="45.19663" lon="5.95564">
        <ele>1291.2</ele>
        <time>2026-07-14T08:20:33Z</time>
      </trkpt>
      <trkpt lat="45.19663" lon="5.95565">
        <ele>1291.4</ele>
        <time>2026-07-14T08:20:34Z</time>
      </trkpt>
      <trkpt lat="45.19663" lon="5.95565">
        <ele>1291.6</ele>
        <time>2026-07-14T08:20:35Z</time>
      </trkpt>
      <trkpt lat="45.19663" lon="5.95566">
        <ele>1291.8</ele>
        <time>2026-07-14T08:20:37Z</time>
      </trkpt>
      <trkpt lat="45.19663" lon="5.95566">
        <ele>1291.8</ele>
        <time>2026-07-14T08:20:38Z</time>
      </trkpt>
      <trkpt lat="45.19662" lon="5.95566">
        <ele>1292</ele>
        <time>2026-07-14T08:20:39Z</time>
      </trkpt>
      <trkpt lat="45.19662" lon="5.95567">
        <ele>1292.1</ele>
        <time>2026-07-14T08:20:40Z</time>
      </trkpt>
      <trkpt lat="45.19662" lon="5.95567">
        <ele>1292.2</ele>
        <time>2026-07-14T08:20:41Z</time>
      </trkpt>
      <trkpt lat="45.19662" lon="5.95567">
        <ele>1292.3</ele>
        <time>2026-07-14T08:20:42Z</time>
      </trkpt>
      <trkpt lat="45.19662" lon="5.95568">
        <ele>1292.4</ele>
        <time>2026-07-14T08:20:43Z</time>
      </trkpt>
      <trkpt lat="45.19661" lon="5.95568">
        <ele>1292.5</ele>
        <time>2026-07-14T08:20:44Z</time>
      </trkpt>
      <trkpt lat="45.19661" lon="5.95569">
        <ele>1292.6</ele>
        <time>2026-07-14T08:20:45Z</time>
      </trkpt>
      <trkpt lat="45.19661" lon="5.95569">
        <ele>1292.8</ele>
        <time>2026-07-14T08:20:46Z</time>
      </trkpt>
      <trkpt lat="45.19661" lon="5.9557">
        <ele>1292.9</ele>
        <time>2026-07-14T08:20:47Z</time>
      </trkpt>
      <trkpt lat="45.1966" lon="5.9557">
        <ele>1293.1</ele>
        <time>2026-07-14T08:20:48Z</time>
      </trkpt>
      <trkpt lat="45.1966" lon="5.95571">
        <ele>1293.3</ele>
        <time>2026-07-14T08:20:49Z</time>
      </trkpt>
      <trkpt lat="45.19659" lon="5.95571">
        <ele>1293.4</ele>
        <time>2026-07-14T08:20:50Z</time>
      </trkpt>
      <trkpt lat="45.19659" lon="5.95571">
        <ele>1293.6</ele>
        <time>2026-07-14T08:20:51Z</time>
      </trkpt>
      <trkpt lat="45.19658" lon="5.95571">
        <ele>1293.8</ele>
        <time>2026-07-14T08:20:53Z</time>
      </trkpt>
      <trkpt lat="45.19658" lon="5.95572">
        <ele>1293.8</ele>
        <time>2026-07-14T08:20:54Z</time>
      </trkpt>
      <trkpt lat="45.19658" lon="5.95572">
        <ele>1294</ele>
        <time>2026-07-14T08:20:55Z</time>
      </trkpt>
      <trkpt lat="45.19657" lon="5.95572">
        <ele>1294.1</ele>
        <time>2026-07-14T08:20:56Z</time>
      </trkpt>
      <trkpt lat="45.19657" lon="5.95572">
        <ele>1294.3</ele>
        <time>2026-07-14T08:20:57Z</time>
      </trkpt>
      <trkpt lat="45.19656" lon="5.95573">
        <ele>1294.4</ele>
        <time>2026-07-14T08:20:58Z</time>
      </trkpt>
      <trkpt lat="45.19656" lon="5.95573">
        <ele>1294.6</ele>
        <time>2026-07-14T08:20:59Z</time>
      </trkpt>
      <trkpt lat="45.19654" lon="5.95573">
        <ele>1295.1</ele>
        <time>2026-07-14T08:21:01Z</time>
      </trkpt>
      <trkpt lat="45.19654" lon="5.95573">
        <ele>1295.3</ele>
        <time>2026-07-14T08:21:02Z</time>
      </trkpt>
      <trkpt lat="45.19652" lon="5.95573">
        <ele>1295.7</ele>
        <time>2026-07-14T08:21:04Z</time>
      </trkpt>
      <trkpt lat="45.19652" lon="5.95573">
        <ele>1296</ele>
        <time>2026-07-14T08:21:05Z</time>
      </trkpt>
      <trkpt lat="45.19651" lon="5.95574">
        <ele>1296.2</ele>
        <time>2026-07-14T08:21:06Z</time>
      </trkpt>
      <trkpt lat="45.1965" lon="5.95574">
        <ele>1296.4</ele>
        <time>2026-07-14T08:21:07Z</time>
      </trkpt>
      <trkpt lat="45.19649" lon="5.95574">
        <ele>1296.6</ele>
        <time>2026-07-14T08:21:08Z</time>
      </trkpt>
      <trkpt lat="45.19649" lon="5.95574">
        <ele>1296.7</ele>
        <time>2026-07-14T08:21:09Z</time>
      </trkpt>
      <trkpt lat="45.19648" lon="5.95574">
        <ele>1297.1</ele>
        <time>2026-07-14T08:21:11Z</time>
      </trkpt>
      <trkpt lat="45.19647" lon="5.95574">
        <ele>1297.3</ele>
        <time>2026-07-14T08:21:12Z</time>
      </trkpt>
      <trkpt lat="45.19647" lon="5.95574">
        <ele>1297.5</ele>
        <time>2026-07-14T08:21:13Z</time>
      </trkpt>
      <trkpt lat="45.19646" lon="5.95573">
        <ele>1297.7</ele>
        <time>2026-07-14T08:21:14Z</time>
      </trkpt>
      <trkpt lat="45.19646" lon="5.95573">
        <ele>1297.8</ele>
        <time>2026-07-14T08:21:15Z</time>
      </trkpt>
      <trkpt lat="45.19645" lon="5.95574">
        <ele>1298</ele>
        <time>2026-07-14T08:21:16Z</time>
      </trkpt>
      <trkpt lat="45.19644" lon="5.95574">
        <ele>1298.3</ele>
        <time>2026-07-14T08:21:18Z</time>
      </trkpt>
      <trkpt lat="45.19644" lon="5.95574">
        <ele>1298.5</ele>
        <time>2026-07-14T08:21:19Z</time>
      </trkpt>
      <trkpt lat="45.19643" lon="5.95574">
        <ele>1298.6</ele>
        <time>2026-07-14T08:21:20Z</time>
      </trkpt>
      <trkpt lat="45.19643" lon="5.95574">
        <ele>1298.8</ele>
        <time>2026-07-14T08:21:21Z</time>
      </trkpt>
      <trkpt lat="45.19642" lon="5.95573">
        <ele>1298.9</ele>
        <time>2026-07-14T08:21:22Z</time>
      </trkpt>
      <trkpt lat="45.19642" lon="5.95573">
        <ele>1299</ele>
        <time>2026-07-14T08:21:23Z</time>
      </trkpt>
      <trkpt lat="45.19641" lon="5.95573">
        <ele>1299.3</ele>
        <time>2026-07-14T08:21:25Z</time>
      </trkpt>
      <trkpt lat="45.19641" lon="5.95573">
        <ele>1299.5</ele>
        <time>2026-07-14T08:21:26Z</time>
      </trkpt>
      <trkpt lat="45.1964" lon="5.95573">
        <ele>1299.6</ele>
        <time>2026-07-14T08:21:27Z</time>
      </trkpt>
      <trkpt lat="45.1964" lon="5.95573">
        <ele>1299.7</ele>
        <time>2026-07-14T08:21:28Z</time>
      </trkpt>
      <trkpt lat="45.19639" lon="5.95573">
        <ele>1299.9</ele>
        <time>2026-07-14T08:21:29Z</time>
      </trkpt>
      <trkpt lat="45.19639" lon="5.95572">
        <ele>1300</ele>
        <time>2026-07-14T08:21:30Z</time>
      </trkpt>
      <trkpt lat="45.19639" lon="5.95572">
        <ele>1300</ele>
        <time>2026-07-14T08:21:31Z</time>
      </trkpt>
      <trkpt lat="45.19639" lon="5.95572">
        <ele>1300.1</ele>
        <time>2026-07-14T08:21:32Z</time>
      </trkpt>
      <trkpt lat="45.19638" lon="5.95571">
        <ele>1300.2</ele>
        <time>2026-07-14T08:21:33Z</time>
      </trkpt>
      <trkpt lat="45.19638" lon="5.95571">
        <ele>1300.3</ele>
        <time>2026-07-14T08:21:34Z</time>
      </trkpt>
      <trkpt lat="45.19638" lon="5.95571">
        <ele>1300.3</ele>
        <time>2026-07-14T08:21:35Z</time>
      </trkpt>
      <trkpt lat="45.19638" lon="5.95571">
        <ele>1300.4</ele>
        <time>2026-07-14T08:21:36Z</time>
      </trkpt>
      <trkpt lat="45.19638" lon="5.95571">
        <ele>1300.4</ele>
        <time>2026-07-14T08:21:37Z</time>
      </trkpt>
      <trkpt lat="45.19638" lon="5.95571">
        <ele>1300.4</ele>
        <time>2026-07-14T08:21:38Z</time>
      </trkpt>
      <trkpt lat="45.19638" lon="5.95571">
        <ele>1300.4</ele>
        <time>2026-07-14T08:21:39Z</time>
      </trkpt>
      <trkpt lat="45.19638" lon="5.95571">
        <ele>1300.5</ele>
        <time>2026-07-14T08:21:40Z</time>
      </trkpt>
      <trkpt lat="45.19638" lon="5.95571">
        <ele>1300.6</ele>
        <time>2026-07-14T08:21:41Z</time>
      </trkpt>
      <trkpt lat="45.19637" lon="5.95571">
        <ele>1300.7</ele>
        <time>2026-07-14T08:21:42Z</time>
      </trkpt>
      <trkpt lat="45.19637" lon="5.9557">
        <ele>1300.8</ele>
        <time>2026-07-14T08:21:43Z</time>
      </trkpt>
      <trkpt lat="45.19637" lon="5.9557">
        <ele>1300.9</ele>
        <time>2026-07-14T08:21:44Z</time>
      </trkpt>
      <trkpt lat="45.19637" lon="5.95569">
        <ele>1301</ele>
        <time>2026-07-14T08:21:45Z</time>
      </trkpt>
      <trkpt lat="45.19637" lon="5.95569">
        <ele>1301.1</ele>
        <time>2026-07-14T08:21:46Z</time>
      </trkpt>
      <trkpt lat="45.19637" lon="5.95568">
        <ele>1301.3</ele>
        <time>2026-07-14T08:21:47Z</time>
      </trkpt>
      <trkpt lat="45.19637" lon="5.95567">
        <ele>1301.4</ele>
        <time>2026-07-14T08:21:48Z</time>
      </trkpt>
      <trkpt lat="45.19636" lon="5.95566">
        <ele>1301.6</ele>
        <time>2026-07-14T08:21:49Z</time>
      </trkpt>
      <trkpt lat="45.19636" lon="5.95567">
        <ele>1301.6</ele>
        <time>2026-07-14T08:21:50Z</time>
      </trkpt>
      <trkpt lat="45.19636" lon="5.95567">
        <ele>1301.6</ele>
        <time>2026-07-14T08:21:51Z</time>
      </trkpt>
      <trkpt lat="45.19636" lon="5.95567">
        <ele>1301.7</ele>
        <time>2026-07-14T08:21:52Z</time>
      </trkpt>
      <trkpt lat="45.19636" lon="5.95567">
        <ele>1301.7</ele>
        <time>2026-07-14T08:21:53Z</time>
      </trkpt>
      <trkpt lat="45.19636" lon="5.95567">
        <ele>1301.8</ele>
        <time>2026-07-14T08:21:54Z</time>
      </trkpt>
      <trkpt lat="45.19635" lon="5.95567">
        <ele>1301.9</ele>
        <time>2026-07-14T08:21:55Z</time>
      </trkpt>
      <trkpt lat="45.19635" lon="5.95566">
        <ele>1301.9</ele>
        <time>2026-07-14T08:21:56Z</time>
      </trkpt>
      <trkpt lat="45.19635" lon="5.95566">
        <ele>1302</ele>
        <time>2026-07-14T08:21:57Z</time>
      </trkpt>
      <trkpt lat="45.19635" lon="5.95566">
        <ele>1302</ele>
        <time>2026-07-14T08:21:58Z</time>
      </trkpt>
      <trkpt lat="45.19635" lon="5.95566">
        <ele>1302</ele>
        <time>2026-07-14T08:21:59Z</time>
      </trkpt>
      <trkpt lat="45.19635" lon="5.95566">
        <ele>1302.1</ele>
        <time>2026-07-14T08:22:00Z</time>
      </trkpt>
      <trkpt lat="45.19635" lon="5.95566">
        <ele>1302.1</ele>
        <time>2026-07-14T08:22:01Z</time>
      </trkpt>
      <trkpt lat="45.19635" lon="5.95566">
        <ele>1302.1</ele>
        <time>2026-07-14T08:22:02Z</time>
      </trkpt>
      <trkpt lat="45.19635" lon="5.95567">
        <ele>1302.1</ele>
        <time>2026-07-14T08:22:03Z</time>
      </trkpt>
      <trkpt lat="45.19635" lon="5.95567">
        <ele>1302.2</ele>
        <time>2026-07-14T08:22:04Z</time>
      </trkpt>
      <trkpt lat="45.19635" lon="5.95567">
        <ele>1302.2</ele>
        <time>2026-07-14T08:22:05Z</time>
      </trkpt>
      <trkpt lat="45.19634" lon="5.95567">
        <ele>1302.2</ele>
        <time>2026-07-14T08:22:06Z</time>
      </trkpt>
      <trkpt lat="45.19634" lon="5.95567">
        <ele>1302.3</ele>
        <time>2026-07-14T08:22:07Z</time>
      </trkpt>
      <trkpt lat="45.19634" lon="5.95567">
        <ele>1302.3</ele>
        <time>2026-07-14T08:22:08Z</time>
      </trkpt>
      <trkpt lat="45.19634" lon="5.95567">
        <ele>1302.4</ele>
        <time>2026-07-14T08:22:09Z</time>
      </trkpt>
      <trkpt lat="45.19633" lon="5.95568">
        <ele>1302.5</ele>
        <time>2026-07-14T08:22:10Z</time>
      </trkpt>
      <trkpt lat="45.19633" lon="5.95568">
        <ele>1302.7</ele>
        <time>2026-07-14T08:22:11Z</time>
      </trkpt>
      <trkpt lat="45.19632" lon="5.95568">
        <ele>1302.8</ele>
        <time>2026-07-14T08:22:12Z</time>
      </trkpt>
      <trkpt lat="45.19632" lon="5.95568">
        <ele>1302.9</ele>
        <time>2026-07-14T08:22:13Z</time>
      </trkpt>
      <trkpt lat="45.19631" lon="5.95568">
        <ele>1303.2</ele>
        <time>2026-07-14T08:22:14Z</time>
      </trkpt>
      <trkpt lat="45.1963" lon="5.95568">
        <ele>1303.3</ele>
        <time>2026-07-14T08:22:15Z</time>
      </trkpt>
      <trkpt lat="45.1963" lon="5.95568">
        <ele>1303.4</ele>
        <time>2026-07-14T08:22:16Z</time>
      </trkpt>
      <trkpt lat="45.19629" lon="5.95569">
        <ele>1303.8</ele>
        <time>2026-07-14T08:22:18Z</time>
      </trkpt>
      <trkpt lat="45.19628" lon="5.95569">
        <ele>1304</ele>
        <time>2026-07-14T08:22:19Z</time>
      </trkpt>
      <trkpt lat="45.19627" lon="5.95569">
        <ele>1304.1</ele>
        <time>2026-07-14T08:22:20Z</time>
      </trkpt>
      <trkpt lat="45.19627" lon="5.95569">
        <ele>1304.2</ele>
        <time>2026-07-14T08:22:21Z</time>
      </trkpt>
      <trkpt lat="45.19627" lon="5.95569">
        <ele>1304.2</ele>
        <time>2026-07-14T08:22:22Z</time>
      </trkpt>
      <trkpt lat="45.19627" lon="5.95569">
        <ele>1304.3</ele>
        <time>2026-07-14T08:22:24Z</time>
      </trkpt>
      <trkpt lat="45.19627" lon="5.9557">
        <ele>1304.3</ele>
        <time>2026-07-14T08:22:25Z</time>
      </trkpt>
      <trkpt lat="45.19626" lon="5.9557">
        <ele>1304.4</ele>
        <time>2026-07-14T08:22:26Z</time>
      </trkpt>
      <trkpt lat="45.19626" lon="5.9557">
        <ele>1304.5</ele>
        <time>2026-07-14T08:22:27Z</time>
      </trkpt>
      <trkpt lat="45.19626" lon="5.9557">
        <ele>1304.6</ele>
        <time>2026-07-14T08:22:28Z</time>
      </trkpt>
      <trkpt lat="45.19625" lon="5.9557">
        <ele>1304.8</ele>
        <time>2026-07-14T08:22:30Z</time>
      </trkpt>
      <trkpt lat="45.19624" lon="5.9557">
        <ele>1305</ele>
        <time>2026-07-14T08:22:31Z</time>
      </trkpt>
      <trkpt lat="45.19623" lon="5.9557">
        <ele>1305.2</ele>
        <time>2026-07-14T08:22:33Z</time>
      </trkpt>
      <trkpt lat="45.19623" lon="5.9557">
        <ele>1305.4</ele>
        <time>2026-07-14T08:22:34Z</time>
      </trkpt>
      <trkpt lat="45.19621" lon="5.95571">
        <ele>1305.8</ele>
        <time>2026-07-14T08:22:35Z</time>
      </trkpt>
      <trkpt lat="45.19621" lon="5.95571">
        <ele>1306</ele>
        <time>2026-07-14T08:22:36Z</time>
      </trkpt>
      <trkpt lat="45.1962" lon="5.95572">
        <ele>1306.1</ele>
        <time>2026-07-14T08:22:37Z</time>
      </trkpt>
      <trkpt lat="45.19619" lon="5.95572">
        <ele>1306.3</ele>
        <time>2026-07-14T08:22:39Z</time>
      </trkpt>
      <trkpt lat="45.19619" lon="5.95572">
        <ele>1306.5</ele>
        <time>2026-07-14T08:22:40Z</time>
      </trkpt>
      <trkpt lat="45.19618" lon="5.95573">
        <ele>1306.8</ele>
        <time>2026-07-14T08:22:41Z</time>
      </trkpt>
      <trkpt lat="45.19617" lon="5.95573">
        <ele>1306.9</ele>
        <time>2026-07-14T08:22:42Z</time>
      </trkpt>
      <trkpt lat="45.19617" lon="5.95573">
        <ele>1307</ele>
        <time>2026-07-14T08:22:43Z</time>
      </trkpt>
      <trkpt lat="45.19617" lon="5.95574">
        <ele>1307.2</ele>
        <time>2026-07-14T08:22:44Z</time>
      </trkpt>
      <trkpt lat="45.19616" lon="5.95574">
        <ele>1307.3</ele>
        <time>2026-07-14T08:22:45Z</time>
      </trkpt>
      <trkpt lat="45.19616" lon="5.95574">
        <ele>1307.4</ele>
        <time>2026-07-14T08:22:46Z</time>
      </trkpt>
      <trkpt lat="45.19615" lon="5.95574">
        <ele>1307.5</ele>
        <time>2026-07-14T08:22:47Z</time>
      </trkpt>
      <trkpt lat="45.19615" lon="5.95575">
        <ele>1307.7</ele>
        <time>2026-07-14T08:22:48Z</time>
      </trkpt>
      <trkpt lat="45.19614" lon="5.95575">
        <ele>1307.8</ele>
        <time>2026-07-14T08:22:49Z</time>
      </trkpt>
      <trkpt lat="45.19614" lon="5.95575">
        <ele>1308</ele>
        <time>2026-07-14T08:22:50Z</time>
      </trkpt>
      <trkpt lat="45.19613" lon="5.95575">
        <ele>1308.2</ele>
        <time>2026-07-14T08:22:51Z</time>
      </trkpt>
      <trkpt lat="45.19612" lon="5.95575">
        <ele>1308.4</ele>
        <time>2026-07-14T08:22:52Z</time>
      </trkpt>
      <trkpt lat="45.19612" lon="5.95575">
        <ele>1308.7</ele>
        <time>2026-07-14T08:22:53Z</time>
      </trkpt>
      <trkpt lat="45.1961" lon="5.95576">
        <ele>1309.1</ele>
        <time>2026-07-14T08:22:55Z</time>
      </trkpt>
      <trkpt lat="45.19609" lon="5.95577">
        <ele>1309.5</ele>
        <time>2026-07-14T08:22:57Z</time>
      </trkpt>
      <trkpt lat="45.19608" lon="5.95577">
        <ele>1309.7</ele>
        <time>2026-07-14T08:22:58Z</time>
      </trkpt>
      <trkpt lat="45.19608" lon="5.95577">
        <ele>1309.8</ele>
        <time>2026-07-14T08:22:59Z</time>
      </trkpt>
      <trkpt lat="45.19608" lon="5.95577">
        <ele>1310</ele>
        <time>2026-07-14T08:23:00Z</time>
      </trkpt>
      <trkpt lat="45.19607" lon="5.95578">
        <ele>1310.1</ele>
        <time>2026-07-14T08:23:01Z</time>
      </trkpt>
      <trkpt lat="45.19607" lon="5.95578">
        <ele>1310.2</ele>
        <time>2026-07-14T08:23:02Z</time>
      </trkpt>
      <trkpt lat="45.19606" lon="5.95578">
        <ele>1310.4</ele>
        <time>2026-07-14T08:23:03Z</time>
      </trkpt>
      <trkpt lat="45.19606" lon="5.95578">
        <ele>1310.5</ele>
        <time>2026-07-14T08:23:04Z</time>
      </trkpt>
      <trkpt lat="45.19606" lon="5.95578">
        <ele>1310.6</ele>
        <time>2026-07-14T08:23:05Z</time>
      </trkpt>
      <trkpt lat="45.19605" lon="5.95579">
        <ele>1310.8</ele>
        <time>2026-07-14T08:23:06Z</time>
      </trkpt>
      <trkpt lat="45.19605" lon="5.95579">
        <ele>1311</ele>
        <time>2026-07-14T08:23:07Z</time>
      </trkpt>
      <trkpt lat="45.19604" lon="5.95579">
        <ele>1311.1</ele>
        <time>2026-07-14T08:23:08Z</time>
      </trkpt>
      <trkpt lat="45.19604" lon="5.95578">
        <ele>1311.3</ele>
        <time>2026-07-14T08:23:09Z</time>
      </trkpt>
      <trkpt lat="45.19603" lon="5.95578">
        <ele>1311.4</ele>
        <time>2026-07-14T08:23:10Z</time>
      </trkpt>
      <trkpt lat="45.19603" lon="5.95578">
        <ele>1311.7</ele>
        <time>2026-07-14T08:23:11Z</time>
      </trkpt>
      <trkpt lat="45.19602" lon="5.95578">
        <ele>1311.8</ele>
        <time>2026-07-14T08:23:12Z</time>
      </trkpt>
      <trkpt lat="45.19602" lon="5.95577">
        <ele>1311.9</ele>
        <time>2026-07-14T08:23:13Z</time>
      </trkpt>
      <trkpt lat="45.19601" lon="5.95577">
        <ele>1312.2</ele>
        <time>2026-07-14T08:23:14Z</time>
      </trkpt>
      <trkpt lat="45.19601" lon="5.95576">
        <ele>1312.4</ele>
        <time>2026-07-14T08:23:15Z</time>
      </trkpt>
      <trkpt lat="45.196" lon="5.95576">
        <ele>1312.7</ele>
        <time>2026-07-14T08:23:16Z</time>
      </trkpt>
      <trkpt lat="45.19599" lon="5.95575">
        <ele>1313.1</ele>
        <time>2026-07-14T08:23:17Z</time>
      </trkpt>
      <trkpt lat="45.19598" lon="5.95574">
        <ele>1313.4</ele>
        <time>2026-07-14T08:23:18Z</time>
      </trkpt>
      <trkpt lat="45.19597" lon="5.95574">
        <ele>1313.7</ele>
        <time>2026-07-14T08:23:19Z</time>
      </trkpt>
      <trkpt lat="45.19597" lon="5.95574">
        <ele>1313.8</ele>
        <time>2026-07-14T08:23:20Z</time>
      </trkpt>
      <trkpt lat="45.19597" lon="5.95573">
        <ele>1314</ele>
        <time>2026-07-14T08:23:21Z</time>
      </trkpt>
      <trkpt lat="45.19596" lon="5.95573">
        <ele>1314.2</ele>
        <time>2026-07-14T08:23:22Z</time>
      </trkpt>
      <trkpt lat="45.19596" lon="5.95573">
        <ele>1314.3</ele>
        <time>2026-07-14T08:23:23Z</time>
      </trkpt>
      <trkpt lat="45.19595" lon="5.95573">
        <ele>1314.4</ele>
        <time>2026-07-14T08:23:24Z</time>
      </trkpt>
      <trkpt lat="45.19595" lon="5.95573">
        <ele>1314.6</ele>
        <time>2026-07-14T08:23:25Z</time>
      </trkpt>
      <trkpt lat="45.19595" lon="5.95573">
        <ele>1314.7</ele>
        <time>2026-07-14T08:23:26Z</time>
      </trkpt>
      <trkpt lat="45.19594" lon="5.95573">
        <ele>1314.9</ele>
        <time>2026-07-14T08:23:27Z</time>
      </trkpt>
      <trkpt lat="45.19594" lon="5.95573">
        <ele>1315.1</ele>
        <time>2026-07-14T08:23:28Z</time>
      </trkpt>
      <trkpt lat="45.19593" lon="5.95573">
        <ele>1315.2</ele>
        <time>2026-07-14T08:23:29Z</time>
      </trkpt>
      <trkpt lat="45.19593" lon="5.95574">
        <ele>1315.5</ele>
        <time>2026-07-14T08:23:30Z</time>
      </trkpt>
      <trkpt lat="45.19592" lon="5.95574">
        <ele>1315.7</ele>
        <time>2026-07-14T08:23:31Z</time>
      </trkpt>
      <trkpt lat="45.19591" lon="5.95574">
        <ele>1315.9</ele>
        <time>2026-07-14T08:23:32Z</time>
      </trkpt>
      <trkpt lat="45.19591" lon="5.95575">
        <ele>1316</ele>
        <time>2026-07-14T08:23:33Z</time>
      </trkpt>
      <trkpt lat="45.19591" lon="5.95575">
        <ele>1316.1</ele>
        <time>2026-07-14T08:23:34Z</time>
      </trkpt>
      <trkpt lat="45.1959" lon="5.95575">
        <ele>1316.4</ele>
        <time>2026-07-14T08:23:35Z</time>
      </trkpt>
      <trkpt lat="45.1959" lon="5.95575">
        <ele>1316.5</ele>
        <time>2026-07-14T08:23:36Z</time>
      </trkpt>
      <trkpt lat="45.1959" lon="5.95576">
        <ele>1316.6</ele>
        <time>2026-07-14T08:23:37Z</time>
      </trkpt>
      <trkpt lat="45.19589" lon="5.95576">
        <ele>1316.8</ele>
        <time>2026-07-14T08:23:38Z</time>
      </trkpt>
      <trkpt lat="45.19588" lon="5.95576">
        <ele>1317</ele>
        <time>2026-07-14T08:23:39Z</time>
      </trkpt>
      <trkpt lat="45.19588" lon="5.95577">
        <ele>1317.2</ele>
        <time>2026-07-14T08:23:40Z</time>
      </trkpt>
      <trkpt lat="45.19588" lon="5.95577">
        <ele>1317.4</ele>
        <time>2026-07-14T08:23:41Z</time>
      </trkpt>
      <trkpt lat="45.19587" lon="5.95577">
        <ele>1317.6</ele>
        <time>2026-07-14T08:23:42Z</time>
      </trkpt>
      <trkpt lat="45.19587" lon="5.95577">
        <ele>1317.7</ele>
        <time>2026-07-14T08:23:43Z</time>
      </trkpt>
      <trkpt lat="45.19586" lon="5.95577">
        <ele>1317.8</ele>
        <time>2026-07-14T08:23:44Z</time>
      </trkpt>
      <trkpt lat="45.19586" lon="5.95577">
        <ele>1317.9</ele>
        <time>2026-07-14T08:23:45Z</time>
      </trkpt>
      <trkpt lat="45.19586" lon="5.95578">
        <ele>1318</ele>
        <time>2026-07-14T08:23:46Z</time>
      </trkpt>
      <trkpt lat="45.19586" lon="5.95578">
        <ele>1318.2</ele>
        <time>2026-07-14T08:23:47Z</time>
      </trkpt>
      <trkpt lat="45.19585" lon="5.95578">
        <ele>1318.3</ele>
        <time>2026-07-14T08:23:48Z</time>
      </trkpt>
      <trkpt lat="45.19585" lon="5.95579">
        <ele>1318.5</ele>
        <time>2026-07-14T08:23:49Z</time>
      </trkpt>
      <trkpt lat="45.19585" lon="5.95579">
        <ele>1318.7</ele>
        <time>2026-07-14T08:23:50Z</time>
      </trkpt>
      <trkpt lat="45.19584" lon="5.9558">
        <ele>1318.8</ele>
        <time>2026-07-14T08:23:51Z</time>
      </trkpt>
      <trkpt lat="45.19584" lon="5.9558">
        <ele>1319</ele>
        <time>2026-07-14T08:23:52Z</time>
      </trkpt>
      <trkpt lat="45.19583" lon="5.9558">
        <ele>1319.1</ele>
        <time>2026-07-14T08:23:53Z</time>
      </trkpt>
      <trkpt lat="45.19583" lon="5.9558">
        <ele>1319.3</ele>
        <time>2026-07-14T08:23:54Z</time>
      </trkpt>
      <trkpt lat="45.19583" lon="5.95581">
        <ele>1319.4</ele>
        <time>2026-07-14T08:23:55Z</time>
      </trkpt>
      <trkpt lat="45.19582" lon="5.9558">
        <ele>1319.8</ele>
        <time>2026-07-14T08:23:57Z</time>
      </trkpt>
      <trkpt lat="45.19581" lon="5.9558">
        <ele>1320</ele>
        <time>2026-07-14T08:23:58Z</time>
      </trkpt>
      <trkpt lat="45.1958" lon="5.9558">
        <ele>1320.2</ele>
        <time>2026-07-14T08:23:59Z</time>
      </trkpt>
      <trkpt lat="45.1958" lon="5.9558">
        <ele>1320.4</ele>
        <time>2026-07-14T08:24:00Z</time>
      </trkpt>
      <trkpt lat="45.1958" lon="5.9558">
        <ele>1320.5</ele>
        <time>2026-07-14T08:24:01Z</time>
      </trkpt>
      <trkpt lat="45.19579" lon="5.95579">
        <ele>1320.6</ele>
        <time>2026-07-14T08:24:02Z</time>
      </trkpt>
      <trkpt lat="45.19579" lon="5.95579">
        <ele>1320.8</ele>
        <time>2026-07-14T08:24:03Z</time>
      </trkpt>
      <trkpt lat="45.19578" lon="5.95579">
        <ele>1320.9</ele>
        <time>2026-07-14T08:24:04Z</time>
      </trkpt>
      <trkpt lat="45.19578" lon="5.95579">
        <ele>1321</ele>
        <time>2026-07-14T08:24:05Z</time>
      </trkpt>
      <trkpt lat="45.19578" lon="5.95579">
        <ele>1321.1</ele>
        <time>2026-07-14T08:24:06Z</time>
      </trkpt>
      <trkpt lat="45.19578" lon="5.95579">
        <ele>1321.2</ele>
        <time>2026-07-14T08:24:07Z</time>
      </trkpt>
      <trkpt lat="45.19577" lon="5.95579">
        <ele>1321.4</ele>
        <time>2026-07-14T08:24:08Z</time>
      </trkpt>
      <trkpt lat="45.19577" lon="5.95579">
        <ele>1321.5</ele>
        <time>2026-07-14T08:24:09Z</time>
      </trkpt>
      <trkpt lat="45.19576" lon="5.95579">
        <ele>1321.6</ele>
        <time>2026-07-14T08:24:10Z</time>
      </trkpt>
      <trkpt lat="45.19576" lon="5.95579">
        <ele>1321.7</ele>
        <time>2026-07-14T08:24:11Z</time>
      </trkpt>
      <trkpt lat="45.19576" lon="5.95579">
        <ele>1321.9</ele>
        <time>2026-07-14T08:24:12Z</time>
      </trkpt>
      <trkpt lat="45.19575" lon="5.95579">
        <ele>1322.1</ele>
        <time>2026-07-14T08:24:13Z</time>
      </trkpt>
      <trkpt lat="45.19575" lon="5.95579">
        <ele>1322.2</ele>
        <time>2026-07-14T08:24:14Z</time>
      </trkpt>
      <trkpt lat="45.19574" lon="5.95579">
        <ele>1322.3</ele>
        <time>2026-07-14T08:24:15Z</time>
      </trkpt>
      <trkpt lat="45.19574" lon="5.95579">
        <ele>1322.4</ele>
        <time>2026-07-14T08:24:16Z</time>
      </trkpt>
      <trkpt lat="45.19574" lon="5.9558">
        <ele>1322.5</ele>
        <time>2026-07-14T08:24:17Z</time>
      </trkpt>
      <trkpt lat="45.19574" lon="5.9558">
        <ele>1322.6</ele>
        <time>2026-07-14T08:24:18Z</time>
      </trkpt>
      <trkpt lat="45.19573" lon="5.9558">
        <ele>1322.7</ele>
        <time>2026-07-14T08:24:19Z</time>
      </trkpt>
      <trkpt lat="45.19573" lon="5.9558">
        <ele>1322.7</ele>
        <time>2026-07-14T08:24:20Z</time>
      </trkpt>
      <trkpt lat="45.19573" lon="5.95581">
        <ele>1322.8</ele>
        <time>2026-07-14T08:24:21Z</time>
      </trkpt>
      <trkpt lat="45.19573" lon="5.95581">
        <ele>1322.8</ele>
        <time>2026-07-14T08:24:22Z</time>
      </trkpt>
      <trkpt lat="45.19573" lon="5.95581">
        <ele>1322.9</ele>
        <time>2026-07-14T08:24:23Z</time>
      </trkpt>
      <trkpt lat="45.19573" lon="5.9558">
        <ele>1322.9</ele>
        <time>2026-07-14T08:24:24Z</time>
      </trkpt>
      <trkpt lat="45.19573" lon="5.9558">
        <ele>1323</ele>
        <time>2026-07-14T08:24:25Z</time>
      </trkpt>
      <trkpt lat="45.19573" lon="5.9558">
        <ele>1323.1</ele>
        <time>2026-07-14T08:24:26Z</time>
      </trkpt>
      <trkpt lat="45.19572" lon="5.9558">
        <ele>1323.2</ele>
        <time>2026-07-14T08:24:27Z</time>
      </trkpt>
      <trkpt lat="45.19572" lon="5.9558">
        <ele>1323.4</ele>
        <time>2026-07-14T08:24:28Z</time>
      </trkpt>
      <trkpt lat="45.19572" lon="5.95579">
        <ele>1323.5</ele>
        <time>2026-07-14T08:24:29Z</time>
      </trkpt>
      <trkpt lat="45.19571" lon="5.95579">
        <ele>1323.7</ele>
        <time>2026-07-14T08:24:30Z</time>
      </trkpt>
      <trkpt lat="45.19571" lon="5.95579">
        <ele>1323.8</ele>
        <time>2026-07-14T08:24:31Z</time>
      </trkpt>
      <trkpt lat="45.1957" lon="5.95579">
        <ele>1323.9</ele>
        <time>2026-07-14T08:24:32Z</time>
      </trkpt>
      <trkpt lat="45.1957" lon="5.9558">
        <ele>1324.1</ele>
        <time>2026-07-14T08:24:33Z</time>
      </trkpt>
      <trkpt lat="45.1957" lon="5.9558">
        <ele>1324.2</ele>
        <time>2026-07-14T08:24:34Z</time>
      </trkpt>
      <trkpt lat="45.19569" lon="5.9558">
        <ele>1324.3</ele>
        <time>2026-07-14T08:24:35Z</time>
      </trkpt>
      <trkpt lat="45.19569" lon="5.9558">
        <ele>1324.4</ele>
        <time>2026-07-14T08:24:36Z</time>
      </trkpt>
      <trkpt lat="45.19569" lon="5.95581">
        <ele>1324.5</ele>
        <time>2026-07-14T08:24:37Z</time>
      </trkpt>
      <trkpt lat="45.19569" lon="5.95581">
        <ele>1324.6</ele>
        <time>2026-07-14T08:24:38Z</time>
      </trkpt>
      <trkpt lat="45.19568" lon="5.95581">
        <ele>1324.7</ele>
        <time>2026-07-14T08:24:39Z</time>
      </trkpt>
      <trkpt lat="45.19568" lon="5.95582">
        <ele>1324.8</ele>
        <time>2026-07-14T08:24:40Z</time>
      </trkpt>
      <trkpt lat="45.19567" lon="5.95582">
        <ele>1325</ele>
        <time>2026-07-14T08:24:42Z</time>
      </trkpt>
      <trkpt lat="45.19567" lon="5.95582">
        <ele>1325.1</ele>
        <time>2026-07-14T08:24:43Z</time>
      </trkpt>
      <trkpt lat="45.19567" lon="5.95583">
        <ele>1325.3</ele>
        <time>2026-07-14T08:24:44Z</time>
      </trkpt>
      <trkpt lat="45.19567" lon="5.95583">
        <ele>1325.3</ele>
        <time>2026-07-14T08:24:45Z</time>
      </trkpt>
      <trkpt lat="45.19566" lon="5.95583">
        <ele>1325.4</ele>
        <time>2026-07-14T08:24:46Z</time>
      </trkpt>
      <trkpt lat="45.19566" lon="5.95583">
        <ele>1325.5</ele>
        <time>2026-07-14T08:24:47Z</time>
      </trkpt>
      <trkpt lat="45.19566" lon="5.95583">
        <ele>1325.6</ele>
        <time>2026-07-14T08:24:48Z</time>
      </trkpt>
      <trkpt lat="45.19565" lon="5.95583">
        <ele>1325.8</ele>
        <time>2026-07-14T08:24:49Z</time>
      </trkpt>
      <trkpt lat="45.19565" lon="5.95583">
        <ele>1325.9</ele>
        <time>2026-07-14T08:24:50Z</time>
      </trkpt>
      <trkpt lat="45.19565" lon="5.95583">
        <ele>1326</ele>
        <time>2026-07-14T08:24:51Z</time>
      </trkpt>
      <trkpt lat="45.19565" lon="5.95583">
        <ele>1326.1</ele>
        <time>2026-07-14T08:24:52Z</time>
      </trkpt>
      <trkpt lat="45.19564" lon="5.95583">
        <ele>1326.2</ele>
        <time>2026-07-14T08:24:53Z</time>
      </trkpt>
      <trkpt lat="45.19564" lon="5.95583">
        <ele>1326.3</ele>
        <time>2026-07-14T08:24:54Z</time>
      </trkpt>
      <trkpt lat="45.19563" lon="5.95583">
        <ele>1326.4</ele>
        <time>2026-07-14T08:24:55Z</time>
      </trkpt>
      <trkpt lat="45.19563" lon="5.95584">
        <ele>1326.6</ele>
        <time>2026-07-14T08:24:56Z</time>
      </trkpt>
      <trkpt lat="45.19562" lon="5.95584">
        <ele>1326.8</ele>
        <time>2026-07-14T08:24:57Z</time>
      </trkpt>
      <trkpt lat="45.19562" lon="5.95585">
        <ele>1326.9</ele>
        <time>2026-07-14T08:24:58Z</time>
      </trkpt>
      <trkpt lat="45.19562" lon="5.95585">
        <ele>1327.1</ele>
        <time>2026-07-14T08:24:59Z</time>
      </trkpt>
      <trkpt lat="45.19561" lon="5.95586">
        <ele>1327.4</ele>
        <time>2026-07-14T08:25:01Z</time>
      </trkpt>
      <trkpt lat="45.19561" lon="5.95587">
        <ele>1327.6</ele>
        <time>2026-07-14T08:25:02Z</time>
      </trkpt>
      <trkpt lat="45.1956" lon="5.95588">
        <ele>1327.8</ele>
        <time>2026-07-14T08:25:03Z</time>
      </trkpt>
      <trkpt lat="45.1956" lon="5.95588">
        <ele>1327.9</ele>
        <time>2026-07-14T08:25:04Z</time>
      </trkpt>
      <trkpt lat="45.19559" lon="5.95589">
        <ele>1328.1</ele>
        <time>2026-07-14T08:25:05Z</time>
      </trkpt>
      <trkpt lat="45.19559" lon="5.95589">
        <ele>1328.3</ele>
        <time>2026-07-14T08:25:06Z</time>
      </trkpt>
      <trkpt lat="45.19559" lon="5.9559">
        <ele>1328.4</ele>
        <time>2026-07-14T08:25:07Z</time>
      </trkpt>
      <trkpt lat="45.19558" lon="5.9559">
        <ele>1328.6</ele>
        <time>2026-07-14T08:25:08Z</time>
      </trkpt>
      <trkpt lat="45.19557" lon="5.95591">
        <ele>1328.9</ele>
        <time>2026-07-14T08:25:09Z</time>
      </trkpt>
      <trkpt lat="45.19557" lon="5.95592">
        <ele>1329.1</ele>
        <time>2026-07-14T08:25:10Z</time>
      </trkpt>
      <trkpt lat="45.19556" lon="5.95592">
        <ele>1329.2</ele>
        <time>2026-07-14T08:25:11Z</time>
      </trkpt>
      <trkpt lat="45.19556" lon="5.95593">
        <ele>1329.4</ele>
        <time>2026-07-14T08:25:12Z</time>
      </trkpt>
      <trkpt lat="45.19556" lon="5.95593">
        <ele>1329.5</ele>
        <time>2026-07-14T08:25:13Z</time>
      </trkpt>
      <trkpt lat="45.19555" lon="5.95593">
        <ele>1329.7</ele>
        <time>2026-07-14T08:25:14Z</time>
      </trkpt>
      <trkpt lat="45.19555" lon="5.95594">
        <ele>1329.8</ele>
        <time>2026-07-14T08:25:15Z</time>
      </trkpt>
      <trkpt lat="45.19555" lon="5.95594">
        <ele>1329.9</ele>
        <time>2026-07-14T08:25:16Z</time>
      </trkpt>
      <trkpt lat="45.19555" lon="5.95594">
        <ele>1330</ele>
        <time>2026-07-14T08:25:17Z</time>
      </trkpt>
      <trkpt lat="45.19554" lon="5.95595">
        <ele>1330.1</ele>
        <time>2026-07-14T08:25:18Z</time>
      </trkpt>
      <trkpt lat="45.19554" lon="5.95595">
        <ele>1330.3</ele>
        <time>2026-07-14T08:25:19Z</time>
      </trkpt>
      <trkpt lat="45.19554" lon="5.95595">
        <ele>1330.3</ele>
        <time>2026-07-14T08:25:20Z</time>
      </trkpt>
      <trkpt lat="45.19553" lon="5.95596">
        <ele>1330.5</ele>
        <time>2026-07-14T08:25:21Z</time>
      </trkpt>
      <trkpt lat="45.19553" lon="5.95596">
        <ele>1330.6</ele>
        <time>2026-07-14T08:25:22Z</time>
      </trkpt>
      <trkpt lat="45.19553" lon="5.95597">
        <ele>1330.7</ele>
        <time>2026-07-14T08:25:23Z</time>
      </trkpt>
      <trkpt lat="45.19553" lon="5.95597">
        <ele>1330.8</ele>
        <time>2026-07-14T08:25:24Z</time>
      </trkpt>
      <trkpt lat="45.19552" lon="5.95597">
        <ele>1330.9</ele>
        <time>2026-07-14T08:25:25Z</time>
      </trkpt>
      <trkpt lat="45.19552" lon="5.95597">
        <ele>1331</ele>
        <time>2026-07-14T08:25:26Z</time>
      </trkpt>
      <trkpt lat="45.19551" lon="5.95598">
        <ele>1331.3</ele>
        <time>2026-07-14T08:25:27Z</time>
      </trkpt>
      <trkpt lat="45.19551" lon="5.95598">
        <ele>1331.4</ele>
        <time>2026-07-14T08:25:28Z</time>
      </trkpt>
      <trkpt lat="45.1955" lon="5.95598">
        <ele>1331.5</ele>
        <time>2026-07-14T08:25:29Z</time>
      </trkpt>
      <trkpt lat="45.1955" lon="5.95599">
        <ele>1331.8</ele>
        <time>2026-07-14T08:25:30Z</time>
      </trkpt>
      <trkpt lat="45.19549" lon="5.95599">
        <ele>1332</ele>
        <time>2026-07-14T08:25:31Z</time>
      </trkpt>
      <trkpt lat="45.19549" lon="5.95599">
        <ele>1332.1</ele>
        <time>2026-07-14T08:25:32Z</time>
      </trkpt>
      <trkpt lat="45.19548" lon="5.956">
        <ele>1332.3</ele>
        <time>2026-07-14T08:25:33Z</time>
      </trkpt>
      <trkpt lat="45.19547" lon="5.956">
        <ele>1332.5</ele>
        <time>2026-07-14T08:25:34Z</time>
      </trkpt>
      <trkpt lat="45.19547" lon="5.956">
        <ele>1332.7</ele>
        <time>2026-07-14T08:25:35Z</time>
      </trkpt>
      <trkpt lat="45.19547" lon="5.95601">
        <ele>1332.8</ele>
        <time>2026-07-14T08:25:36Z</time>
      </trkpt>
      <trkpt lat="45.19546" lon="5.95601">
        <ele>1333</ele>
        <time>2026-07-14T08:25:37Z</time>
      </trkpt>
      <trkpt lat="45.19545" lon="5.95602">
        <ele>1333.2</ele>
        <time>2026-07-14T08:25:39Z</time>
      </trkpt>
      <trkpt lat="45.19545" lon="5.95602">
        <ele>1333.3</ele>
        <time>2026-07-14T08:25:40Z</time>
      </trkpt>
      <trkpt lat="45.19544" lon="5.95602">
        <ele>1333.5</ele>
        <time>2026-07-14T08:25:41Z</time>
      </trkpt>
      <trkpt lat="45.19544" lon="5.95602">
        <ele>1333.7</ele>
        <time>2026-07-14T08:25:42Z</time>
      </trkpt>
      <trkpt lat="45.19543" lon="5.95602">
        <ele>1334</ele>
        <time>2026-07-14T08:25:43Z</time>
      </trkpt>
      <trkpt lat="45.19543" lon="5.95603">
        <ele>1334.1</ele>
        <time>2026-07-14T08:25:44Z</time>
      </trkpt>
      <trkpt lat="45.19542" lon="5.95603">
        <ele>1334.2</ele>
        <time>2026-07-14T08:25:45Z</time>
      </trkpt>
      <trkpt lat="45.19542" lon="5.95603">
        <ele>1334.4</ele>
        <time>2026-07-14T08:25:46Z</time>
      </trkpt>
      <trkpt lat="45.19541" lon="5.95603">
        <ele>1334.5</ele>
        <time>2026-07-14T08:25:47Z</time>
      </trkpt>
      <trkpt lat="45.19541" lon="5.95603">
        <ele>1334.6</ele>
        <time>2026-07-14T08:25:48Z</time>
      </trkpt>
      <trkpt lat="45.19541" lon="5.95603">
        <ele>1334.7</ele>
        <time>2026-07-14T08:25:49Z</time>
      </trkpt>
      <trkpt lat="45.1954" lon="5.95603">
        <ele>1334.8</ele>
        <time>2026-07-14T08:25:50Z</time>
      </trkpt>
      <trkpt lat="45.1954" lon="5.95603">
        <ele>1334.9</ele>
        <time>2026-07-14T08:25:51Z</time>
      </trkpt>
      <trkpt lat="45.1954" lon="5.95603">
        <ele>1335</ele>
        <time>2026-07-14T08:25:52Z</time>
      </trkpt>
      <trkpt lat="45.19539" lon="5.95604">
        <ele>1335.1</ele>
        <time>2026-07-14T08:25:53Z</time>
      </trkpt>
      <trkpt lat="45.19539" lon="5.95604">
        <ele>1335.2</ele>
        <time>2026-07-14T08:25:54Z</time>
      </trkpt>
      <trkpt lat="45.19539" lon="5.95604">
        <ele>1335.2</ele>
        <time>2026-07-14T08:25:55Z</time>
      </trkpt>
      <trkpt lat="45.19539" lon="5.95604">
        <ele>1335.3</ele>
        <time>2026-07-14T08:25:56Z</time>
      </trkpt>
      <trkpt lat="45.19539" lon="5.95605">
        <ele>1335.3</ele>
        <time>2026-07-14T08:25:57Z</time>
      </trkpt>
      <trkpt lat="45.19539" lon="5.95605">
        <ele>1335.4</ele>
        <time>2026-07-14T08:25:58Z</time>
      </trkpt>
      <trkpt lat="45.19539" lon="5.95605">
        <ele>1335.5</ele>
        <time>2026-07-14T08:25:59Z</time>
      </trkpt>
      <trkpt lat="45.19538" lon="5.95605">
        <ele>1335.5</ele>
        <time>2026-07-14T08:26:00Z</time>
      </trkpt>
      <trkpt lat="45.19538" lon="5.95605">
        <ele>1335.6</ele>
        <time>2026-07-14T08:26:01Z</time>
      </trkpt>
      <trkpt lat="45.19538" lon="5.95605">
        <ele>1335.8</ele>
        <time>2026-07-14T08:26:02Z</time>
      </trkpt>
      <trkpt lat="45.19537" lon="5.95605">
        <ele>1335.9</ele>
        <time>2026-07-14T08:26:03Z</time>
      </trkpt>
      <trkpt lat="45.19537" lon="5.95605">
        <ele>1336.1</ele>
        <time>2026-07-14T08:26:04Z</time>
      </trkpt>
      <trkpt lat="45.19536" lon="5.95605">
        <ele>1336.2</ele>
        <time>2026-07-14T08:26:05Z</time>
      </trkpt>
      <trkpt lat="45.19536" lon="5.95605">
        <ele>1336.3</ele>
        <time>2026-07-14T08:26:06Z</time>
      </trkpt>
      <trkpt lat="45.19536" lon="5.95606">
        <ele>1336.4</ele>
        <time>2026-07-14T08:26:07Z</time>
      </trkpt>
      <trkpt lat="45.19535" lon="5.95606">
        <ele>1336.6</ele>
        <time>2026-07-14T08:26:08Z</time>
      </trkpt>
      <trkpt lat="45.19535" lon="5.95606">
        <ele>1336.7</ele>
        <time>2026-07-14T08:26:09Z</time>
      </trkpt>
      <trkpt lat="45.19535" lon="5.95607">
        <ele>1336.8</ele>
        <time>2026-07-14T08:26:10Z</time>
      </trkpt>
      <trkpt lat="45.19535" lon="5.95607">
        <ele>1336.9</ele>
        <time>2026-07-14T08:26:11Z</time>
      </trkpt>
      <trkpt lat="45.19534" lon="5.95608">
        <ele>1337.1</ele>
        <time>2026-07-14T08:26:12Z</time>
      </trkpt>
      <trkpt lat="45.19534" lon="5.95609">
        <ele>1337.2</ele>
        <time>2026-07-14T08:26:13Z</time>
      </trkpt>
      <trkpt lat="45.19534" lon="5.95609">
        <ele>1337.3</ele>
        <time>2026-07-14T08:26:14Z</time>
      </trkpt>
      <trkpt lat="45.19534" lon="5.9561">
        <ele>1337.5</ele>
        <time>2026-07-14T08:26:15Z</time>
      </trkpt>
      <trkpt lat="45.19533" lon="5.9561">
        <ele>1337.6</ele>
        <time>2026-07-14T08:26:16Z</time>
      </trkpt>
      <trkpt lat="45.19533" lon="5.9561">
        <ele>1337.8</ele>
        <time>2026-07-14T08:26:17Z</time>
      </trkpt>
      <trkpt lat="45.19533" lon="5.95611">
        <ele>1337.9</ele>
        <time>2026-07-14T08:26:18Z</time>
      </trkpt>
      <trkpt lat="45.19532" lon="5.95611">
        <ele>1338.1</ele>
        <time>2026-07-14T08:26:19Z</time>
      </trkpt>
      <trkpt lat="45.19532" lon="5.95611">
        <ele>1338.2</ele>
        <time>2026-07-14T08:26:20Z</time>
      </trkpt>
      <trkpt lat="45.19531" lon="5.95611">
        <ele>1338.3</ele>
        <time>2026-07-14T08:26:21Z</time>
      </trkpt>
      <trkpt lat="45.19531" lon="5.95612">
        <ele>1338.5</ele>
        <time>2026-07-14T08:26:22Z</time>
      </trkpt>
      <trkpt lat="45.1953" lon="5.95612">
        <ele>1338.6</ele>
        <time>2026-07-14T08:26:23Z</time>
      </trkpt>
      <trkpt lat="45.1953" lon="5.95612">
        <ele>1338.7</ele>
        <time>2026-07-14T08:26:24Z</time>
      </trkpt>
      <trkpt lat="45.1953" lon="5.95613">
        <ele>1338.9</ele>
        <time>2026-07-14T08:26:25Z</time>
      </trkpt>
      <trkpt lat="45.19529" lon="5.95613">
        <ele>1339</ele>
        <time>2026-07-14T08:26:26Z</time>
      </trkpt>
      <trkpt lat="45.19529" lon="5.95614">
        <ele>1339.2</ele>
        <time>2026-07-14T08:26:27Z</time>
      </trkpt>
      <trkpt lat="45.19528" lon="5.95614">
        <ele>1339.3</ele>
        <time>2026-07-14T08:26:28Z</time>
      </trkpt>
      <trkpt lat="45.19528" lon="5.95615">
        <ele>1339.5</ele>
        <time>2026-07-14T08:26:29Z</time>
      </trkpt>
      <trkpt lat="45.19528" lon="5.95615">
        <ele>1339.6</ele>
        <time>2026-07-14T08:26:30Z</time>
      </trkpt>
      <trkpt lat="45.19527" lon="5.95616">
        <ele>1339.8</ele>
        <time>2026-07-14T08:26:31Z</time>
      </trkpt>
      <trkpt lat="45.19527" lon="5.95617">
        <ele>1340</ele>
        <time>2026-07-14T08:26:32Z</time>
      </trkpt>
      <trkpt lat="45.19526" lon="5.95617">
        <ele>1340.2</ele>
        <time>2026-07-14T08:26:33Z</time>
      </trkpt>
      <trkpt lat="45.19526" lon="5.95618">
        <ele>1340.4</ele>
        <time>2026-07-14T08:26:34Z</time>
      </trkpt>
      <trkpt lat="45.19525" lon="5.95619">
        <ele>1340.6</ele>
        <time>2026-07-14T08:26:35Z</time>
      </trkpt>
      <trkpt lat="45.19525" lon="5.95619">
        <ele>1340.8</ele>
        <time>2026-07-14T08:26:36Z</time>
      </trkpt>
      <trkpt lat="45.19524" lon="5.95619">
        <ele>1341</ele>
        <time>2026-07-14T08:26:37Z</time>
      </trkpt>
      <trkpt lat="45.19523" lon="5.95619">
        <ele>1341.2</ele>
        <time>2026-07-14T08:26:38Z</time>
      </trkpt>
      <trkpt lat="45.19523" lon="5.95619">
        <ele>1341.4</ele>
        <time>2026-07-14T08:26:39Z</time>
      </trkpt>
      <trkpt lat="45.19522" lon="5.95618">
        <ele>1341.5</ele>
        <time>2026-07-14T08:26:40Z</time>
      </trkpt>
      <trkpt lat="45.19522" lon="5.95618">
        <ele>1341.6</ele>
        <time>2026-07-14T08:26:41Z</time>
      </trkpt>
      <trkpt lat="45.19522" lon="5.95618">
        <ele>1341.7</ele>
        <time>2026-07-14T08:26:42Z</time>
      </trkpt>
      <trkpt lat="45.19521" lon="5.95618">
        <ele>1341.8</ele>
        <time>2026-07-14T08:26:43Z</time>
      </trkpt>
      <trkpt lat="45.19521" lon="5.95618">
        <ele>1341.9</ele>
        <time>2026-07-14T08:26:44Z</time>
      </trkpt>
      <trkpt lat="45.1952" lon="5.95618">
        <ele>1342</ele>
        <time>2026-07-14T08:26:45Z</time>
      </trkpt>
      <trkpt lat="45.1952" lon="5.95618">
        <ele>1342.2</ele>
        <time>2026-07-14T08:26:46Z</time>
      </trkpt>
      <trkpt lat="45.19519" lon="5.95618">
        <ele>1342.3</ele>
        <time>2026-07-14T08:26:47Z</time>
      </trkpt>
      <trkpt lat="45.19519" lon="5.95619">
        <ele>1342.5</ele>
        <time>2026-07-14T08:26:48Z</time>
      </trkpt>
      <trkpt lat="45.19518" lon="5.95619">
        <ele>1342.7</ele>
        <time>2026-07-14T08:26:49Z</time>
      </trkpt>
      <trkpt lat="45.19518" lon="5.95619">
        <ele>1342.8</ele>
        <time>2026-07-14T08:26:50Z</time>
      </trkpt>
      <trkpt lat="45.19517" lon="5.95619">
        <ele>1342.9</ele>
        <time>2026-07-14T08:26:51Z</time>
      </trkpt>
      <trkpt lat="45.19517" lon="5.95619">
        <ele>1343.1</ele>
        <time>2026-07-14T08:26:52Z</time>
      </trkpt>
      <trkpt lat="45.19517" lon="5.95619">
        <ele>1343.2</ele>
        <time>2026-07-14T08:26:53Z</time>
      </trkpt>
      <trkpt lat="45.19516" lon="5.95619">
        <ele>1343.3</ele>
        <time>2026-07-14T08:26:54Z</time>
      </trkpt>
      <trkpt lat="45.19516" lon="5.95619">
        <ele>1343.4</ele>
        <time>2026-07-14T08:26:55Z</time>
      </trkpt>
      <trkpt lat="45.19516" lon="5.95619">
        <ele>1343.5</ele>
        <time>2026-07-14T08:26:56Z</time>
      </trkpt>
      <trkpt lat="45.19516" lon="5.95619">
        <ele>1343.6</ele>
        <time>2026-07-14T08:26:57Z</time>
      </trkpt>
      <trkpt lat="45.19516" lon="5.9562">
        <ele>1343.6</ele>
        <time>2026-07-14T08:26:58Z</time>
      </trkpt>
      <trkpt lat="45.19515" lon="5.9562">
        <ele>1343.7</ele>
        <time>2026-07-14T08:26:59Z</time>
      </trkpt>
      <trkpt lat="45.19515" lon="5.9562">
        <ele>1343.8</ele>
        <time>2026-07-14T08:27:00Z</time>
      </trkpt>
      <trkpt lat="45.19515" lon="5.95621">
        <ele>1343.9</ele>
        <time>2026-07-14T08:27:01Z</time>
      </trkpt>
      <trkpt lat="45.19515" lon="5.95622">
        <ele>1344.1</ele>
        <time>2026-07-14T08:27:02Z</time>
      </trkpt>
      <trkpt lat="45.19514" lon="5.95622">
        <ele>1344.3</ele>
        <time>2026-07-14T08:27:03Z</time>
      </trkpt>
      <trkpt lat="45.19514" lon="5.95622">
        <ele>1344.4</ele>
        <time>2026-07-14T08:27:04Z</time>
      </trkpt>
      <trkpt lat="45.19513" lon="5.95623">
        <ele>1344.6</ele>
        <time>2026-07-14T08:27:06Z</time>
      </trkpt>
      <trkpt lat="45.19513" lon="5.95623">
        <ele>1344.7</ele>
        <time>2026-07-14T08:27:07Z</time>
      </trkpt>
      <trkpt lat="45.19513" lon="5.95624">
        <ele>1344.9</ele>
        <time>2026-07-14T08:27:08Z</time>
      </trkpt>
      <trkpt lat="45.19513" lon="5.95625">
        <ele>1345</ele>
        <time>2026-07-14T08:27:09Z</time>
      </trkpt>
      <trkpt lat="45.19513" lon="5.95625">
        <ele>1345.1</ele>
        <time>2026-07-14T08:27:10Z</time>
      </trkpt>
      <trkpt lat="45.19512" lon="5.95626">
        <ele>1345.2</ele>
        <time>2026-07-14T08:27:11Z</time>
      </trkpt>
      <trkpt lat="45.19512" lon="5.95627">
        <ele>1345.4</ele>
        <time>2026-07-14T08:27:12Z</time>
      </trkpt>
      <trkpt lat="45.19512" lon="5.95627">
        <ele>1345.5</ele>
        <time>2026-07-14T08:27:13Z</time>
      </trkpt>
      <trkpt lat="45.19512" lon="5.95628">
        <ele>1345.7</ele>
        <time>2026-07-14T08:27:14Z</time>
      </trkpt>
      <trkpt lat="45.19512" lon="5.95629">
        <ele>1345.9</ele>
        <time>2026-07-14T08:27:15Z</time>
      </trkpt>
      <trkpt lat="45.19512" lon="5.9563">
        <ele>1346.1</ele>
        <time>2026-07-14T08:27:16Z</time>
      </trkpt>
      <trkpt lat="45.19511" lon="5.95631">
        <ele>1346.2</ele>
        <time>2026-07-14T08:27:17Z</time>
      </trkpt>
      <trkpt lat="45.19511" lon="5.95631">
        <ele>1346.3</ele>
        <time>2026-07-14T08:27:18Z</time>
      </trkpt>
      <trkpt lat="45.19511" lon="5.95632">
        <ele>1346.4</ele>
        <time>2026-07-14T08:27:19Z</time>
      </trkpt>
      <trkpt lat="45.19511" lon="5.95632">
        <ele>1346.5</ele>
        <time>2026-07-14T08:27:20Z</time>
      </trkpt>
      <trkpt lat="45.19511" lon="5.95633">
        <ele>1346.6</ele>
        <time>2026-07-14T08:27:21Z</time>
      </trkpt>
      <trkpt lat="45.19511" lon="5.95634">
        <ele>1346.7</ele>
        <time>2026-07-14T08:27:22Z</time>
      </trkpt>
      <trkpt lat="45.19511" lon="5.95634">
        <ele>1346.8</ele>
        <time>2026-07-14T08:27:23Z</time>
      </trkpt>
      <trkpt lat="45.19511" lon="5.95635">
        <ele>1346.9</ele>
        <time>2026-07-14T08:27:24Z</time>
      </trkpt>
      <trkpt lat="45.1951" lon="5.95635">
        <ele>1347</ele>
        <time>2026-07-14T08:27:25Z</time>
      </trkpt>
      <trkpt lat="45.1951" lon="5.95635">
        <ele>1347</ele>
        <time>2026-07-14T08:27:26Z</time>
      </trkpt>
      <trkpt lat="45.1951" lon="5.95635">
        <ele>1347.1</ele>
        <time>2026-07-14T08:27:27Z</time>
      </trkpt>
      <trkpt lat="45.1951" lon="5.95635">
        <ele>1347.2</ele>
        <time>2026-07-14T08:27:28Z</time>
      </trkpt>
      <trkpt lat="45.1951" lon="5.95636">
        <ele>1347.3</ele>
        <time>2026-07-14T08:27:29Z</time>
      </trkpt>
      <trkpt lat="45.1951" lon="5.95636">
        <ele>1347.4</ele>
        <time>2026-07-14T08:27:31Z</time>
      </trkpt>
      <trkpt lat="45.1951" lon="5.95637">
        <ele>1347.4</ele>
        <time>2026-07-14T08:27:32Z</time>
      </trkpt>
      <trkpt lat="45.19509" lon="5.95637">
        <ele>1347.4</ele>
        <time>2026-07-14T08:27:33Z</time>
      </trkpt>
      <trkpt lat="45.19509" lon="5.95637">
        <ele>1347.4</ele>
        <time>2026-07-14T08:27:34Z</time>
      </trkpt>
      <trkpt lat="45.19509" lon="5.95637">
        <ele>1347.4</ele>
        <time>2026-07-14T08:27:35Z</time>
      </trkpt>
      <trkpt lat="45.19509" lon="5.95637">
        <ele>1347.4</ele>
        <time>2026-07-14T08:27:36Z</time>
      </trkpt>
      <trkpt lat="45.19509" lon="5.95637">
        <ele>1347.4</ele>
        <time>2026-07-14T08:27:37Z</time>
      </trkpt>
      <trkpt lat="45.1951" lon="5.95636">
        <ele>1347.5</ele>
        <time>2026-07-14T08:27:38Z</time>
      </trkpt>
      <trkpt lat="45.1951" lon="5.95636">
        <ele>1347.5</ele>
        <time>2026-07-14T08:27:39Z</time>
      </trkpt>
      <trkpt lat="45.1951" lon="5.95636">
        <ele>1347.5</ele>
        <time>2026-07-14T08:27:40Z</time>
      </trkpt>
      <trkpt lat="45.19509" lon="5.95636">
        <ele>1347.6</ele>
        <time>2026-07-14T08:27:41Z</time>
      </trkpt>
      <trkpt lat="45.19509" lon="5.95636">
        <ele>1347.6</ele>
        <time>2026-07-14T08:27:42Z</time>
      </trkpt>
      <trkpt lat="45.19509" lon="5.95636">
        <ele>1347.6</ele>
        <time>2026-07-14T08:27:43Z</time>
      </trkpt>
      <trkpt lat="45.19508" lon="5.95637">
        <ele>1347.8</ele>
        <time>2026-07-14T08:27:44Z</time>
      </trkpt>
      <trkpt lat="45.19508" lon="5.95637">
        <ele>1347.9</ele>
        <time>2026-07-14T08:27:45Z</time>
      </trkpt>
      <trkpt lat="45.19508" lon="5.95638">
        <ele>1347.9</ele>
        <time>2026-07-14T08:27:46Z</time>
      </trkpt>
      <trkpt lat="45.19508" lon="5.95639">
        <ele>1348.1</ele>
        <time>2026-07-14T08:27:47Z</time>
      </trkpt>
      <trkpt lat="45.19507" lon="5.95639">
        <ele>1348.2</ele>
        <time>2026-07-14T08:27:48Z</time>
      </trkpt>
      <trkpt lat="45.19507" lon="5.9564">
        <ele>1348.4</ele>
        <time>2026-07-14T08:27:49Z</time>
      </trkpt>
      <trkpt lat="45.19507" lon="5.95641">
        <ele>1348.4</ele>
        <time>2026-07-14T08:27:50Z</time>
      </trkpt>
      <trkpt lat="45.19507" lon="5.95641">
        <ele>1348.5</ele>
        <time>2026-07-14T08:27:51Z</time>
      </trkpt>
      <trkpt lat="45.19507" lon="5.95641">
        <ele>1348.6</ele>
        <time>2026-07-14T08:27:52Z</time>
      </trkpt>
      <trkpt lat="45.19507" lon="5.95641">
        <ele>1348.6</ele>
        <time>2026-07-14T08:27:53Z</time>
      </trkpt>
      <trkpt lat="45.19507" lon="5.95641">
        <ele>1348.6</ele>
        <time>2026-07-14T08:27:54Z</time>
      </trkpt>
      <trkpt lat="45.19506" lon="5.95641">
        <ele>1348.8</ele>
        <time>2026-07-14T08:27:55Z</time>
      </trkpt>
      <trkpt lat="45.19506" lon="5.95641">
        <ele>1348.8</ele>
        <time>2026-07-14T08:27:56Z</time>
      </trkpt>
      <trkpt lat="45.19506" lon="5.95642">
        <ele>1348.8</ele>
        <time>2026-07-14T08:27:57Z</time>
      </trkpt>
      <trkpt lat="45.19505" lon="5.95642">
        <ele>1348.9</ele>
        <time>2026-07-14T08:27:58Z</time>
      </trkpt>
      <trkpt lat="45.19505" lon="5.95642">
        <ele>1349</ele>
        <time>2026-07-14T08:27:59Z</time>
      </trkpt>
      <trkpt lat="45.19504" lon="5.95642">
        <ele>1349</ele>
        <time>2026-07-14T08:28:00Z</time>
      </trkpt>
      <trkpt lat="45.19504" lon="5.95642">
        <ele>1349.1</ele>
        <time>2026-07-14T08:28:01Z</time>
      </trkpt>
      <trkpt lat="45.19504" lon="5.95641">
        <ele>1349.1</ele>
        <time>2026-07-14T08:28:02Z</time>
      </trkpt>
      <trkpt lat="45.19504" lon="5.95641">
        <ele>1349.1</ele>
        <time>2026-07-14T08:28:03Z</time>
      </trkpt>
      <trkpt lat="45.19504" lon="5.95641">
        <ele>1349.1</ele>
        <time>2026-07-14T08:28:04Z</time>
      </trkpt>
      <trkpt lat="45.19504" lon="5.95641">
        <ele>1349.2</ele>
        <time>2026-07-14T08:28:05Z</time>
      </trkpt>
      <trkpt lat="45.19504" lon="5.95641">
        <ele>1349.2</ele>
        <time>2026-07-14T08:28:06Z</time>
      </trkpt>
      <trkpt lat="45.19504" lon="5.95641">
        <ele>1349.2</ele>
        <time>2026-07-14T08:28:07Z</time>
      </trkpt>
      <trkpt lat="45.19504" lon="5.95641">
        <ele>1349.2</ele>
        <time>2026-07-14T08:28:08Z</time>
      </trkpt>
      <trkpt lat="45.19504" lon="5.95641">
        <ele>1349.2</ele>
        <time>2026-07-14T08:28:09Z</time>
      </trkpt>
      <trkpt lat="45.19504" lon="5.95641">
        <ele>1349.3</ele>
        <time>2026-07-14T08:28:10Z</time>
      </trkpt>
      <trkpt lat="45.19504" lon="5.95641">
        <ele>1349.3</ele>
        <time>2026-07-14T08:28:11Z</time>
      </trkpt>
      <trkpt lat="45.19504" lon="5.95641">
        <ele>1349.3</ele>
        <time>2026-07-14T08:28:12Z</time>
      </trkpt>
      <trkpt lat="45.19504" lon="5.95641">
        <ele>1349.4</ele>
        <time>2026-07-14T08:28:13Z</time>
      </trkpt>
      <trkpt lat="45.19504" lon="5.95642">
        <ele>1349.4</ele>
        <time>2026-07-14T08:28:15Z</time>
      </trkpt>
      <trkpt lat="45.19504" lon="5.95642">
        <ele>1349.4</ele>
        <time>2026-07-14T08:28:16Z</time>
      </trkpt>
      <trkpt lat="45.19504" lon="5.95642">
        <ele>1349.4</ele>
        <time>2026-07-14T08:28:17Z</time>
      </trkpt>
      <trkpt lat="45.19504" lon="5.95642">
        <ele>1349.4</ele>
        <time>2026-07-14T08:28:18Z</time>
      </trkpt>
      <trkpt lat="45.19504" lon="5.95642">
        <ele>1349.4</ele>
        <time>2026-07-14T08:28:19Z</time>
      </trkpt>
      <trkpt lat="45.19504" lon="5.95642">
        <ele>1349.4</ele>
        <time>2026-07-14T08:28:20Z</time>
      </trkpt>
      <trkpt lat="45.19504" lon="5.95642">
        <ele>1349.4</ele>
        <time>2026-07-14T08:28:21Z</time>
      </trkpt>
      <trkpt lat="45.19504" lon="5.95642">
        <ele>1349.4</ele>
        <time>2026-07-14T08:28:22Z</time>
      </trkpt>
      <trkpt lat="45.19504" lon="5.95642">
        <ele>1349.4</ele>
        <time>2026-07-14T08:28:23Z</time>
      </trkpt>
      <trkpt lat="45.19504" lon="5.95642">
        <ele>1349.4</ele>
        <time>2026-07-14T08:28:24Z</time>
      </trkpt>
      <trkpt lat="45.19504" lon="5.95642">
        <ele>1349.4</ele>
        <time>2026-07-14T08:28:25Z</time>
      </trkpt>
      <trkpt lat="45.19504" lon="5.95642">
        <ele>1349.4</ele>
        <time>2026-07-14T08:28:26Z</time>
      </trkpt>
      <trkpt lat="45.19504" lon="5.95642">
        <ele>1349.4</ele>
        <time>2026-07-14T08:28:27Z</time>
      </trkpt>
      <trkpt lat="45.19504" lon="5.95642">
        <ele>1349.4</ele>
        <time>2026-07-14T08:28:28Z</time>
      </trkpt>
      <trkpt lat="45.19504" lon="5.95642">
        <ele>1349.4</ele>
        <time>2026-07-14T08:28:29Z</time>
      </trkpt>
      <trkpt lat="45.19504" lon="5.95642">
        <ele>1349.5</ele>
        <time>2026-07-14T08:28:30Z</time>
      </trkpt>
      <trkpt lat="45.19504" lon="5.95642">
        <ele>1349.5</ele>
        <time>2026-07-14T08:28:31Z</time>
      </trkpt>
      <trkpt lat="45.19504" lon="5.95642">
        <ele>1349.5</ele>
        <time>2026-07-14T08:28:32Z</time>
      </trkpt>
      <trkpt lat="45.19504" lon="5.95642">
        <ele>1349.5</ele>
        <time>2026-07-14T08:28:33Z</time>
      </trkpt>
      <trkpt lat="45.19504" lon="5.95642">
        <ele>1349.5</ele>
        <time>2026-07-14T08:28:34Z</time>
      </trkpt>
      <trkpt lat="45.19503" lon="5.95642">
        <ele>1349.6</ele>
        <time>2026-07-14T08:28:35Z</time>
      </trkpt>
      <trkpt lat="45.19503" lon="5.95642">
        <ele>1349.6</ele>
        <time>2026-07-14T08:28:36Z</time>
      </trkpt>
      <trkpt lat="45.19503" lon="5.95643">
        <ele>1349.6</ele>
        <time>2026-07-14T08:28:37Z</time>
      </trkpt>
      <trkpt lat="45.19503" lon="5.95643">
        <ele>1349.7</ele>
        <time>2026-07-14T08:28:38Z</time>
      </trkpt>
      <trkpt lat="45.19503" lon="5.95644">
        <ele>1349.8</ele>
        <time>2026-07-14T08:28:39Z</time>
      </trkpt>
      <trkpt lat="45.19502" lon="5.95644">
        <ele>1349.8</ele>
        <time>2026-07-14T08:28:40Z</time>
      </trkpt>
      <trkpt lat="45.19502" lon="5.95646">
        <ele>1350</ele>
        <time>2026-07-14T08:28:41Z</time>
      </trkpt>
      <trkpt lat="45.19501" lon="5.95646">
        <ele>1350.1</ele>
        <time>2026-07-14T08:28:42Z</time>
      </trkpt>
      <trkpt lat="45.195" lon="5.95647">
        <ele>1350.2</ele>
        <time>2026-07-14T08:28:44Z</time>
      </trkpt>
      <trkpt lat="45.19498" lon="5.95648">
        <ele>1350.5</ele>
        <time>2026-07-14T08:28:45Z</time>
      </trkpt>
      <trkpt lat="45.19497" lon="5.95649">
        <ele>1350.7</ele>
        <time>2026-07-14T08:28:47Z</time>
      </trkpt>
      <trkpt lat="45.19496" lon="5.9565">
        <ele>1350.8</ele>
        <time>2026-07-14T08:28:49Z</time>
      </trkpt>
      <trkpt lat="45.19496" lon="5.9565">
        <ele>1350.8</ele>
        <time>2026-07-14T08:28:50Z</time>
      </trkpt>
      <trkpt lat="45.19495" lon="5.95651">
        <ele>1350.9</ele>
        <time>2026-07-14T08:28:51Z</time>
      </trkpt>
      <trkpt lat="45.19494" lon="5.95652">
        <ele>1351.1</ele>
        <time>2026-07-14T08:28:52Z</time>
      </trkpt>
      <trkpt lat="45.19493" lon="5.95652">
        <ele>1351.2</ele>
        <time>2026-07-14T08:28:54Z</time>
      </trkpt>
      <trkpt lat="45.19492" lon="5.95652">
        <ele>1351.3</ele>
        <time>2026-07-14T08:28:56Z</time>
      </trkpt>
      <trkpt lat="45.19492" lon="5.95652">
        <ele>1351.4</ele>
        <time>2026-07-14T08:28:57Z</time>
      </trkpt>
      <trkpt lat="45.19491" lon="5.95653">
        <ele>1351.5</ele>
        <time>2026-07-14T08:28:58Z</time>
      </trkpt>
      <trkpt lat="45.19491" lon="5.95653">
        <ele>1351.6</ele>
        <time>2026-07-14T08:28:59Z</time>
      </trkpt>
      <trkpt lat="45.1949" lon="5.95653">
        <ele>1351.6</ele>
        <time>2026-07-14T08:29:00Z</time>
      </trkpt>
      <trkpt lat="45.1949" lon="5.95653">
        <ele>1351.7</ele>
        <time>2026-07-14T08:29:01Z</time>
      </trkpt>
      <trkpt lat="45.19489" lon="5.95652">
        <ele>1351.8</ele>
        <time>2026-07-14T08:29:02Z</time>
      </trkpt>
      <trkpt lat="45.19489" lon="5.95652">
        <ele>1351.9</ele>
        <time>2026-07-14T08:29:03Z</time>
      </trkpt>
      <trkpt lat="45.19488" lon="5.95652">
        <ele>1352</ele>
        <time>2026-07-14T08:29:04Z</time>
      </trkpt>
      <trkpt lat="45.19487" lon="5.95652">
        <ele>1352.1</ele>
        <time>2026-07-14T08:29:05Z</time>
      </trkpt>
      <trkpt lat="45.19487" lon="5.95652">
        <ele>1352.2</ele>
        <time>2026-07-14T08:29:06Z</time>
      </trkpt>
      <trkpt lat="45.19486" lon="5.95652">
        <ele>1352.3</ele>
        <time>2026-07-14T08:29:07Z</time>
      </trkpt>
      <trkpt lat="45.19486" lon="5.95652">
        <ele>1352.4</ele>
        <time>2026-07-14T08:29:08Z</time>
      </trkpt>
      <trkpt lat="45.19486" lon="5.95652">
        <ele>1352.4</ele>
        <time>2026-07-14T08:29:09Z</time>
      </trkpt>
      <trkpt lat="45.19486" lon="5.95652">
        <ele>1352.4</ele>
        <time>2026-07-14T08:29:10Z</time>
      </trkpt>
      <trkpt lat="45.19486" lon="5.95652">
        <ele>1352.4</ele>
        <time>2026-07-14T08:29:11Z</time>
      </trkpt>
      <trkpt lat="45.19486" lon="5.95652">
        <ele>1352.4</ele>
        <time>2026-07-14T08:29:12Z</time>
      </trkpt>
      <trkpt lat="45.19486" lon="5.95653">
        <ele>1352.5</ele>
        <time>2026-07-14T08:29:13Z</time>
      </trkpt>
      <trkpt lat="45.19486" lon="5.95653">
        <ele>1352.5</ele>
        <time>2026-07-14T08:29:14Z</time>
      </trkpt>
      <trkpt lat="45.19485" lon="5.95653">
        <ele>1352.6</ele>
        <time>2026-07-14T08:29:15Z</time>
      </trkpt>
      <trkpt lat="45.19485" lon="5.95653">
        <ele>1352.7</ele>
        <time>2026-07-14T08:29:16Z</time>
      </trkpt>
      <trkpt lat="45.19484" lon="5.95654">
        <ele>1352.8</ele>
        <time>2026-07-14T08:29:17Z</time>
      </trkpt>
      <trkpt lat="45.19483" lon="5.95654">
        <ele>1353</ele>
        <time>2026-07-14T08:29:18Z</time>
      </trkpt>
      <trkpt lat="45.19483" lon="5.95654">
        <ele>1353.1</ele>
        <time>2026-07-14T08:29:19Z</time>
      </trkpt>
      <trkpt lat="45.19482" lon="5.95654">
        <ele>1353.2</ele>
        <time>2026-07-14T08:29:20Z</time>
      </trkpt>
      <trkpt lat="45.19481" lon="5.95654">
        <ele>1353.4</ele>
        <time>2026-07-14T08:29:21Z</time>
      </trkpt>
      <trkpt lat="45.19481" lon="5.95654">
        <ele>1353.5</ele>
        <time>2026-07-14T08:29:22Z</time>
      </trkpt>
      <trkpt lat="45.1948" lon="5.95654">
        <ele>1353.6</ele>
        <time>2026-07-14T08:29:23Z</time>
      </trkpt>
      <trkpt lat="45.1948" lon="5.95654">
        <ele>1353.7</ele>
        <time>2026-07-14T08:29:24Z</time>
      </trkpt>
      <trkpt lat="45.19479" lon="5.95654">
        <ele>1353.8</ele>
        <time>2026-07-14T08:29:25Z</time>
      </trkpt>
      <trkpt lat="45.19478" lon="5.95654">
        <ele>1353.9</ele>
        <time>2026-07-14T08:29:26Z</time>
      </trkpt>
      <trkpt lat="45.19478" lon="5.95654">
        <ele>1354.1</ele>
        <time>2026-07-14T08:29:27Z</time>
      </trkpt>
      <trkpt lat="45.19477" lon="5.95654">
        <ele>1354.2</ele>
        <time>2026-07-14T08:29:28Z</time>
      </trkpt>
      <trkpt lat="45.19477" lon="5.95654">
        <ele>1354.3</ele>
        <time>2026-07-14T08:29:29Z</time>
      </trkpt>
      <trkpt lat="45.19477" lon="5.95654">
        <ele>1354.3</ele>
        <time>2026-07-14T08:29:30Z</time>
      </trkpt>
      <trkpt lat="45.19477" lon="5.95654">
        <ele>1354.3</ele>
        <time>2026-07-14T08:29:31Z</time>
      </trkpt>
      <trkpt lat="45.19477" lon="5.95654">
        <ele>1354.4</ele>
        <time>2026-07-14T08:29:32Z</time>
      </trkpt>
      <trkpt lat="45.19477" lon="5.95654">
        <ele>1354.5</ele>
        <time>2026-07-14T08:29:33Z</time>
      </trkpt>
      <trkpt lat="45.19477" lon="5.95655">
        <ele>1354.5</ele>
        <time>2026-07-14T08:29:34Z</time>
      </trkpt>
      <trkpt lat="45.19476" lon="5.95655">
        <ele>1354.6</ele>
        <time>2026-07-14T08:29:35Z</time>
      </trkpt>
      <trkpt lat="45.19476" lon="5.95656">
        <ele>1354.7</ele>
        <time>2026-07-14T08:29:36Z</time>
      </trkpt>
      <trkpt lat="45.19476" lon="5.95656">
        <ele>1354.8</ele>
        <time>2026-07-14T08:29:37Z</time>
      </trkpt>
      <trkpt lat="45.19475" lon="5.95657">
        <ele>1355</ele>
        <time>2026-07-14T08:29:38Z</time>
      </trkpt>
      <trkpt lat="45.19475" lon="5.95658">
        <ele>1355.1</ele>
        <time>2026-07-14T08:29:39Z</time>
      </trkpt>
      <trkpt lat="45.19474" lon="5.95658">
        <ele>1355.3</ele>
        <time>2026-07-14T08:29:40Z</time>
      </trkpt>
      <trkpt lat="45.19474" lon="5.95659">
        <ele>1355.5</ele>
        <time>2026-07-14T08:29:41Z</time>
      </trkpt>
      <trkpt lat="45.19473" lon="5.9566">
        <ele>1355.6</ele>
        <time>2026-07-14T08:29:42Z</time>
      </trkpt>
      <trkpt lat="45.19473" lon="5.9566">
        <ele>1355.7</ele>
        <time>2026-07-14T08:29:43Z</time>
      </trkpt>
      <trkpt lat="45.19473" lon="5.95661">
        <ele>1355.8</ele>
        <time>2026-07-14T08:29:44Z</time>
      </trkpt>
      <trkpt lat="45.19472" lon="5.95661">
        <ele>1356</ele>
        <time>2026-07-14T08:29:45Z</time>
      </trkpt>
      <trkpt lat="45.19471" lon="5.95661">
        <ele>1356.1</ele>
        <time>2026-07-14T08:29:46Z</time>
      </trkpt>
      <trkpt lat="45.19471" lon="5.95662">
        <ele>1356.2</ele>
        <time>2026-07-14T08:29:47Z</time>
      </trkpt>
      <trkpt lat="45.19471" lon="5.95662">
        <ele>1356.3</ele>
        <time>2026-07-14T08:29:48Z</time>
      </trkpt>
      <trkpt lat="45.1947" lon="5.95663">
        <ele>1356.5</ele>
        <time>2026-07-14T08:29:49Z</time>
      </trkpt>
      <trkpt lat="45.19469" lon="5.95663">
        <ele>1356.7</ele>
        <time>2026-07-14T08:29:50Z</time>
      </trkpt>
      <trkpt lat="45.19469" lon="5.95663">
        <ele>1356.8</ele>
        <time>2026-07-14T08:29:51Z</time>
      </trkpt>
      <trkpt lat="45.19468" lon="5.95664">
        <ele>1357</ele>
        <time>2026-07-14T08:29:52Z</time>
      </trkpt>
      <trkpt lat="45.19467" lon="5.95664">
        <ele>1357.1</ele>
        <time>2026-07-14T08:29:53Z</time>
      </trkpt>
      <trkpt lat="45.19467" lon="5.95664">
        <ele>1357.2</ele>
        <time>2026-07-14T08:29:54Z</time>
      </trkpt>
      <trkpt lat="45.19466" lon="5.95664">
        <ele>1357.3</ele>
        <time>2026-07-14T08:29:55Z</time>
      </trkpt>
      <trkpt lat="45.19465" lon="5.95664">
        <ele>1357.4</ele>
        <time>2026-07-14T08:29:56Z</time>
      </trkpt>
      <trkpt lat="45.19464" lon="5.95664">
        <ele>1357.4</ele>
        <time>2026-07-14T08:29:57Z</time>
      </trkpt>
      <trkpt lat="45.19464" lon="5.95664">
        <ele>1357.4</ele>
        <time>2026-07-14T08:29:58Z</time>
      </trkpt>
      <trkpt lat="45.19464" lon="5.95664">
        <ele>1357.5</ele>
        <time>2026-07-14T08:29:59Z</time>
      </trkpt>
      <trkpt lat="45.19463" lon="5.95664">
        <ele>1357.5</ele>
        <time>2026-07-14T08:30:00Z</time>
      </trkpt>
      <trkpt lat="45.19463" lon="5.95663">
        <ele>1357.6</ele>
        <time>2026-07-14T08:30:01Z</time>
      </trkpt>
      <trkpt lat="45.19464" lon="5.95663">
        <ele>1357.6</ele>
        <time>2026-07-14T08:30:02Z</time>
      </trkpt>
      <trkpt lat="45.19464" lon="5.95663">
        <ele>1357.6</ele>
        <time>2026-07-14T08:30:03Z</time>
      </trkpt>
      <trkpt lat="45.19464" lon="5.95662">
        <ele>1357.7</ele>
        <time>2026-07-14T08:30:04Z</time>
      </trkpt>
      <trkpt lat="45.19464" lon="5.95662">
        <ele>1357.7</ele>
        <time>2026-07-14T08:30:06Z</time>
      </trkpt>
      <trkpt lat="45.19464" lon="5.95662">
        <ele>1357.7</ele>
        <time>2026-07-14T08:30:07Z</time>
      </trkpt>
      <trkpt lat="45.19464" lon="5.95663">
        <ele>1357.8</ele>
        <time>2026-07-14T08:30:09Z</time>
      </trkpt>
      <trkpt lat="45.19464" lon="5.95663">
        <ele>1357.8</ele>
        <time>2026-07-14T08:30:10Z</time>
      </trkpt>
      <trkpt lat="45.19464" lon="5.95663">
        <ele>1357.8</ele>
        <time>2026-07-14T08:30:11Z</time>
      </trkpt>
      <trkpt lat="45.19464" lon="5.95664">
        <ele>1357.8</ele>
        <time>2026-07-14T08:30:12Z</time>
      </trkpt>
      <trkpt lat="45.19464" lon="5.95664">
        <ele>1357.9</ele>
        <time>2026-07-14T08:30:14Z</time>
      </trkpt>
      <trkpt lat="45.19463" lon="5.95664">
        <ele>1357.9</ele>
        <time>2026-07-14T08:30:15Z</time>
      </trkpt>
      <trkpt lat="45.19463" lon="5.95664">
        <ele>1357.9</ele>
        <time>2026-07-14T08:30:16Z</time>
      </trkpt>
      <trkpt lat="45.19463" lon="5.95664">
        <ele>1357.9</ele>
        <time>2026-07-14T08:30:18Z</time>
      </trkpt>
      <trkpt lat="45.19463" lon="5.95665">
        <ele>1357.9</ele>
        <time>2026-07-14T08:30:20Z</time>
      </trkpt>
      <trkpt lat="45.19463" lon="5.95665">
        <ele>1357.9</ele>
        <time>2026-07-14T08:30:21Z</time>
      </trkpt>
      <trkpt lat="45.19463" lon="5.95665">
        <ele>1357.9</ele>
        <time>2026-07-14T08:30:22Z</time>
      </trkpt>
      <trkpt lat="45.19463" lon="5.95665">
        <ele>1357.9</ele>
        <time>2026-07-14T08:30:23Z</time>
      </trkpt>
      <trkpt lat="45.19463" lon="5.95666">
        <ele>1358</ele>
        <time>2026-07-14T08:30:24Z</time>
      </trkpt>
      <trkpt lat="45.19463" lon="5.95666">
        <ele>1358</ele>
        <time>2026-07-14T08:30:25Z</time>
      </trkpt>
      <trkpt lat="45.19463" lon="5.95666">
        <ele>1358</ele>
        <time>2026-07-14T08:30:26Z</time>
      </trkpt>
      <trkpt lat="45.19463" lon="5.95666">
        <ele>1358</ele>
        <time>2026-07-14T08:30:27Z</time>
      </trkpt>
      <trkpt lat="45.19463" lon="5.95667">
        <ele>1358</ele>
        <time>2026-07-14T08:30:28Z</time>
      </trkpt>
      <trkpt lat="45.19463" lon="5.95667">
        <ele>1358</ele>
        <time>2026-07-14T08:30:29Z</time>
      </trkpt>
      <trkpt lat="45.19463" lon="5.95667">
        <ele>1358</ele>
        <time>2026-07-14T08:30:30Z</time>
      </trkpt>
      <trkpt lat="45.19463" lon="5.95667">
        <ele>1358.1</ele>
        <time>2026-07-14T08:30:31Z</time>
      </trkpt>
      <trkpt lat="45.19463" lon="5.95667">
        <ele>1358.1</ele>
        <time>2026-07-14T08:30:32Z</time>
      </trkpt>
      <trkpt lat="45.19462" lon="5.95667">
        <ele>1358.1</ele>
        <time>2026-07-14T08:30:33Z</time>
      </trkpt>
      <trkpt lat="45.19462" lon="5.95668">
        <ele>1358.1</ele>
        <time>2026-07-14T08:30:34Z</time>
      </trkpt>
      <trkpt lat="45.19461" lon="5.9567">
        <ele>1358.3</ele>
        <time>2026-07-14T08:30:35Z</time>
      </trkpt>
      <trkpt lat="45.1946" lon="5.95672">
        <ele>1358.4</ele>
        <time>2026-07-14T08:30:36Z</time>
      </trkpt>
      <trkpt lat="45.19459" lon="5.95673">
        <ele>1358.5</ele>
        <time>2026-07-14T08:30:37Z</time>
      </trkpt>
      <trkpt lat="45.19458" lon="5.95674">
        <ele>1358.6</ele>
        <time>2026-07-14T08:30:38Z</time>
      </trkpt>
      <trkpt lat="45.19456" lon="5.95674">
        <ele>1358.7</ele>
        <time>2026-07-14T08:30:39Z</time>
      </trkpt>
      <trkpt lat="45.19455" lon="5.95674">
        <ele>1358.8</ele>
        <time>2026-07-14T08:30:40Z</time>
      </trkpt>
      <trkpt lat="45.19454" lon="5.95673">
        <ele>1358.9</ele>
        <time>2026-07-14T08:30:41Z</time>
      </trkpt>
      <trkpt lat="45.19453" lon="5.95673">
        <ele>1359</ele>
        <time>2026-07-14T08:30:42Z</time>
      </trkpt>
      <trkpt lat="45.19452" lon="5.95673">
        <ele>1359.1</ele>
        <time>2026-07-14T08:30:43Z</time>
      </trkpt>
      <trkpt lat="45.19452" lon="5.95673">
        <ele>1359.1</ele>
        <time>2026-07-14T08:30:44Z</time>
      </trkpt>
      <trkpt lat="45.19452" lon="5.95673">
        <ele>1359.1</ele>
        <time>2026-07-14T08:30:45Z</time>
      </trkpt>
      <trkpt lat="45.19452" lon="5.95672">
        <ele>1359.2</ele>
        <time>2026-07-14T08:30:46Z</time>
      </trkpt>
      <trkpt lat="45.19452" lon="5.95672">
        <ele>1359.2</ele>
        <time>2026-07-14T08:30:47Z</time>
      </trkpt>
      <trkpt lat="45.19452" lon="5.95672">
        <ele>1359.2</ele>
        <time>2026-07-14T08:30:48Z</time>
      </trkpt>
      <trkpt lat="45.19452" lon="5.95672">
        <ele>1359.2</ele>
        <time>2026-07-14T08:30:49Z</time>
      </trkpt>
      <trkpt lat="45.19452" lon="5.95671">
        <ele>1359.3</ele>
        <time>2026-07-14T08:30:50Z</time>
      </trkpt>
      <trkpt lat="45.19452" lon="5.95671">
        <ele>1359.3</ele>
        <time>2026-07-14T08:30:51Z</time>
      </trkpt>
      <trkpt lat="45.19452" lon="5.95671">
        <ele>1359.3</ele>
        <time>2026-07-14T08:30:52Z</time>
      </trkpt>
      <trkpt lat="45.19452" lon="5.95671">
        <ele>1359.3</ele>
        <time>2026-07-14T08:30:53Z</time>
      </trkpt>
      <trkpt lat="45.19452" lon="5.95671">
        <ele>1359.3</ele>
        <time>2026-07-14T08:30:54Z</time>
      </trkpt>
      <trkpt lat="45.19452" lon="5.95671">
        <ele>1359.3</ele>
        <time>2026-07-14T08:30:55Z</time>
      </trkpt>
      <trkpt lat="45.19452" lon="5.95671">
        <ele>1359.3</ele>
        <time>2026-07-14T08:30:56Z</time>
      </trkpt>
      <trkpt lat="45.19452" lon="5.95671">
        <ele>1359.3</ele>
        <time>2026-07-14T08:30:57Z</time>
      </trkpt>
      <trkpt lat="45.19452" lon="5.9567">
        <ele>1359.3</ele>
        <time>2026-07-14T08:30:58Z</time>
      </trkpt>
      <trkpt lat="45.19452" lon="5.9567">
        <ele>1359.4</ele>
        <time>2026-07-14T08:30:59Z</time>
      </trkpt>
      <trkpt lat="45.19452" lon="5.9567">
        <ele>1359.4</ele>
        <time>2026-07-14T08:31:00Z</time>
      </trkpt>
      <trkpt lat="45.19452" lon="5.9567">
        <ele>1359.4</ele>
        <time>2026-07-14T08:31:01Z</time>
      </trkpt>
      <trkpt lat="45.19452" lon="5.9567">
        <ele>1359.4</ele>
        <time>2026-07-14T08:31:02Z</time>
      </trkpt>
      <trkpt lat="45.19452" lon="5.95669">
        <ele>1359.5</ele>
        <time>2026-07-14T08:31:03Z</time>
      </trkpt>
      <trkpt lat="45.19452" lon="5.95669">
        <ele>1359.5</ele>
        <time>2026-07-14T08:31:04Z</time>
      </trkpt>
      <trkpt lat="45.19452" lon="5.95669">
        <ele>1359.5</ele>
        <time>2026-07-14T08:31:05Z</time>
      </trkpt>
      <trkpt lat="45.19452" lon="5.95669">
        <ele>1359.5</ele>
        <time>2026-07-14T08:31:06Z</time>
      </trkpt>
      <trkpt lat="45.19452" lon="5.95669">
        <ele>1359.5</ele>
        <time>2026-07-14T08:31:07Z</time>
      </trkpt>
      <trkpt lat="45.19452" lon="5.95669">
        <ele>1359.5</ele>
        <time>2026-07-14T08:31:08Z</time>
      </trkpt>
      <trkpt lat="45.19452" lon="5.95669">
        <ele>1359.5</ele>
        <time>2026-07-14T08:31:09Z</time>
      </trkpt>
      <trkpt lat="45.19452" lon="5.95669">
        <ele>1359.5</ele>
        <time>2026-07-14T08:31:10Z</time>
      </trkpt>
      <trkpt lat="45.19452" lon="5.95669">
        <ele>1359.5</ele>
        <time>2026-07-14T08:31:11Z</time>
      </trkpt>
      <trkpt lat="45.19452" lon="5.95669">
        <ele>1359.5</ele>
        <time>2026-07-14T08:31:12Z</time>
      </trkpt>
      <trkpt lat="45.19452" lon="5.95669">
        <ele>1359.5</ele>
        <time>2026-07-14T08:31:13Z</time>
      </trkpt>
      <trkpt lat="45.19452" lon="5.95669">
        <ele>1359.5</ele>
        <time>2026-07-14T08:31:14Z</time>
      </trkpt>
      <trkpt lat="45.19452" lon="5.95669">
        <ele>1359.5</ele>
        <time>2026-07-14T08:31:15Z</time>
      </trkpt>
      <trkpt lat="45.19452" lon="5.95669">
        <ele>1359.5</ele>
        <time>2026-07-14T08:31:16Z</time>
      </trkpt>
      <trkpt lat="45.19452" lon="5.95669">
        <ele>1359.5</ele>
        <time>2026-07-14T08:31:17Z</time>
      </trkpt>
      <trkpt lat="45.19451" lon="5.95669">
        <ele>1359.5</ele>
        <time>2026-07-14T08:31:18Z</time>
      </trkpt>
      <trkpt lat="45.19451" lon="5.9567">
        <ele>1359.5</ele>
        <time>2026-07-14T08:31:19Z</time>
      </trkpt>
      <trkpt lat="45.19451" lon="5.9567">
        <ele>1359.5</ele>
        <time>2026-07-14T08:31:20Z</time>
      </trkpt>
      <trkpt lat="45.19451" lon="5.9567">
        <ele>1359.6</ele>
        <time>2026-07-14T08:31:21Z</time>
      </trkpt>
      <trkpt lat="45.19452" lon="5.95671">
        <ele>1359.6</ele>
        <time>2026-07-14T08:31:22Z</time>
      </trkpt>
      <trkpt lat="45.19452" lon="5.95671">
        <ele>1359.6</ele>
        <time>2026-07-14T08:31:23Z</time>
      </trkpt>
      <trkpt lat="45.19452" lon="5.95671">
        <ele>1359.6</ele>
        <time>2026-07-14T08:31:24Z</time>
      </trkpt>
      <trkpt lat="45.19452" lon="5.95671">
        <ele>1359.6</ele>
        <time>2026-07-14T08:31:25Z</time>
      </trkpt>
      <trkpt lat="45.19452" lon="5.95671">
        <ele>1359.6</ele>
        <time>2026-07-14T08:31:26Z</time>
      </trkpt>
      <trkpt lat="45.19452" lon="5.95671">
        <ele>1359.6</ele>
        <time>2026-07-14T08:31:27Z</time>
      </trkpt>
      <trkpt lat="45.19452" lon="5.95671">
        <ele>1359.6</ele>
        <time>2026-07-14T08:31:28Z</time>
      </trkpt>
      <trkpt lat="45.19452" lon="5.95671">
        <ele>1359.6</ele>
        <time>2026-07-14T08:31:29Z</time>
      </trkpt>
      <trkpt lat="45.19452" lon="5.95671">
        <ele>1359.6</ele>
        <time>2026-07-14T08:31:30Z</time>
      </trkpt>
      <trkpt lat="45.19452" lon="5.95671">
        <ele>1359.6</ele>
        <time>2026-07-14T08:31:32Z</time>
      </trkpt>
      <trkpt lat="45.19452" lon="5.95671">
        <ele>1359.6</ele>
        <time>2026-07-14T08:31:33Z</time>
      </trkpt>
      <trkpt lat="45.19452" lon="5.95671">
        <ele>1359.6</ele>
        <time>2026-07-14T08:31:34Z</time>
      </trkpt>
      <trkpt lat="45.19452" lon="5.95671">
        <ele>1359.6</ele>
        <time>2026-07-14T08:31:35Z</time>
      </trkpt>
      <trkpt lat="45.19452" lon="5.95671">
        <ele>1359.6</ele>
        <time>2026-07-14T08:31:36Z</time>
      </trkpt>
      <trkpt lat="45.19452" lon="5.95671">
        <ele>1359.6</ele>
        <time>2026-07-14T08:31:37Z</time>
      </trkpt>
      <trkpt lat="45.19452" lon="5.95671">
        <ele>1359.6</ele>
        <time>2026-07-14T08:31:38Z</time>
      </trkpt>
      <trkpt lat="45.19452" lon="5.95671">
        <ele>1359.6</ele>
        <time>2026-07-14T08:31:39Z</time>
      </trkpt>
      <trkpt lat="45.19452" lon="5.95671">
        <ele>1359.6</ele>
        <time>2026-07-14T08:31:40Z</time>
      </trkpt>
      <trkpt lat="45.19452" lon="5.95671">
        <ele>1359.7</ele>
        <time>2026-07-14T08:31:41Z</time>
      </trkpt>
      <trkpt lat="45.19452" lon="5.95671">
        <ele>1359.7</ele>
        <time>2026-07-14T08:31:42Z</time>
      </trkpt>
      <trkpt lat="45.19452" lon="5.95671">
        <ele>1359.7</ele>
        <time>2026-07-14T08:31:43Z</time>
      </trkpt>
      <trkpt lat="45.19452" lon="5.95671">
        <ele>1359.7</ele>
        <time>2026-07-14T08:31:44Z</time>
      </trkpt>
      <trkpt lat="45.19452" lon="5.95671">
        <ele>1359.7</ele>
        <time>2026-07-14T08:31:45Z</time>
      </trkpt>
      <trkpt lat="45.19452" lon="5.95671">
        <ele>1359.7</ele>
        <time>2026-07-14T08:31:46Z</time>
      </trkpt>
      <trkpt lat="45.19452" lon="5.95671">
        <ele>1359.7</ele>
        <time>2026-07-14T08:31:47Z</time>
      </trkpt>
      <trkpt lat="45.19452" lon="5.95671">
        <ele>1359.7</ele>
        <time>2026-07-14T08:31:48Z</time>
      </trkpt>
      <trkpt lat="45.19452" lon="5.95671">
        <ele>1359.7</ele>
        <time>2026-07-14T08:31:49Z</time>
      </trkpt>
      <trkpt lat="45.19452" lon="5.95671">
        <ele>1359.7</ele>
        <time>2026-07-14T08:31:50Z</time>
      </trkpt>
      <trkpt lat="45.19452" lon="5.95671">
        <ele>1359.7</ele>
        <time>2026-07-14T08:31:51Z</time>
      </trkpt>
      <trkpt lat="45.19452" lon="5.95671">
        <ele>1359.7</ele>
        <time>2026-07-14T08:31:52Z</time>
      </trkpt>
      <trkpt lat="45.19452" lon="5.95671">
        <ele>1359.7</ele>
        <time>2026-07-14T08:31:53Z</time>
      </trkpt>
      <trkpt lat="45.19452" lon="5.95671">
        <ele>1359.7</ele>
        <time>2026-07-14T08:31:54Z</time>
      </trkpt>
      <trkpt lat="45.19452" lon="5.95671">
        <ele>1359.7</ele>
        <time>2026-07-14T08:31:55Z</time>
      </trkpt>
      <trkpt lat="45.19452" lon="5.95671">
        <ele>1359.7</ele>
        <time>2026-07-14T08:31:56Z</time>
      </trkpt>
      <trkpt lat="45.19452" lon="5.95671">
        <ele>1359.7</ele>
        <time>2026-07-14T08:31:57Z</time>
      </trkpt>
      <trkpt lat="45.19452" lon="5.95671">
        <ele>1359.7</ele>
        <time>2026-07-14T08:31:58Z</time>
      </trkpt>
      <trkpt lat="45.19452" lon="5.95671">
        <ele>1359.7</ele>
        <time>2026-07-14T08:31:59Z</time>
      </trkpt>
      <trkpt lat="45.19452" lon="5.95671">
        <ele>1359.7</ele>
        <time>2026-07-14T08:32:00Z</time>
      </trkpt>
      <trkpt lat="45.19452" lon="5.95671">
        <ele>1359.7</ele>
        <time>2026-07-14T08:32:01Z</time>
      </trkpt>
      <trkpt lat="45.19452" lon="5.95671">
        <ele>1359.7</ele>
        <time>2026-07-14T08:32:02Z</time>
      </trkpt>
      <trkpt lat="45.19452" lon="5.95671">
        <ele>1359.7</ele>
        <time>2026-07-14T08:32:03Z</time>
      </trkpt>
      <trkpt lat="45.19452" lon="5.95671">
        <ele>1359.7</ele>
        <time>2026-07-14T08:32:04Z</time>
      </trkpt>
      <trkpt lat="45.19452" lon="5.95671">
        <ele>1359.7</ele>
        <time>2026-07-14T08:32:05Z</time>
      </trkpt>
      <trkpt lat="45.19452" lon="5.95671">
        <ele>1359.7</ele>
        <time>2026-07-14T08:32:06Z</time>
      </trkpt>
      <trkpt lat="45.19452" lon="5.95671">
        <ele>1359.7</ele>
        <time>2026-07-14T08:32:07Z</time>
      </trkpt>
      <trkpt lat="45.19452" lon="5.95671">
        <ele>1359.7</ele>
        <time>2026-07-14T08:32:08Z</time>
      </trkpt>
      <trkpt lat="45.19452" lon="5.95671">
        <ele>1359.7</ele>
        <time>2026-07-14T08:32:09Z</time>
      </trkpt>
      <trkpt lat="45.19452" lon="5.95671">
        <ele>1359.7</ele>
        <time>2026-07-14T08:32:10Z</time>
      </trkpt>
      <trkpt lat="45.19452" lon="5.95671">
        <ele>1359.7</ele>
        <time>2026-07-14T08:32:11Z</time>
      </trkpt>
      <trkpt lat="45.19452" lon="5.95671">
        <ele>1359.7</ele>
        <time>2026-07-14T08:32:12Z</time>
      </trkpt>
      <trkpt lat="45.19452" lon="5.95671">
        <ele>1359.7</ele>
        <time>2026-07-14T08:32:13Z</time>
      </trkpt>
      <trkpt lat="45.19452" lon="5.95671">
        <ele>1359.7</ele>
        <time>2026-07-14T08:32:14Z</time>
      </trkpt>
      <trkpt lat="45.19452" lon="5.95671">
        <ele>1359.7</ele>
        <time>2026-07-14T08:32:15Z</time>
      </trkpt>
      <trkpt lat="45.19452" lon="5.95671">
        <ele>1359.7</ele>
        <time>2026-07-14T08:32:16Z</time>
      </trkpt>
      <trkpt lat="45.19452" lon="5.95671">
        <ele>1359.7</ele>
        <time>2026-07-14T08:32:17Z</time>
      </trkpt>
      <trkpt lat="45.19452" lon="5.95671">
        <ele>1359.7</ele>
        <time>2026-07-14T08:32:18Z</time>
      </trkpt>
      <trkpt lat="45.19452" lon="5.95671">
        <ele>1359.7</ele>
        <time>2026-07-14T08:32:19Z</time>
      </trkpt>
      <trkpt lat="45.19452" lon="5.95671">
        <ele>1359.7</ele>
        <time>2026-07-14T08:32:20Z</time>
      </trkpt>
      <trkpt lat="45.19452" lon="5.95671">
        <ele>1359.7</ele>
        <time>2026-07-14T08:32:21Z</time>
      </trkpt>
      <trkpt lat="45.19452" lon="5.95671">
        <ele>1359.7</ele>
        <time>2026-07-14T08:32:22Z</time>
      </trkpt>
      <trkpt lat="45.19452" lon="5.95671">
        <ele>1359.7</ele>
        <time>2026-07-14T08:32:23Z</time>
      </trkpt>
      <trkpt lat="45.19452" lon="5.95671">
        <ele>1359.7</ele>
        <time>2026-07-14T08:32:24Z</time>
      </trkpt>
      <trkpt lat="45.19452" lon="5.95671">
        <ele>1359.7</ele>
        <time>2026-07-14T08:32:25Z</time>
      </trkpt>
      <trkpt lat="45.19452" lon="5.95671">
        <ele>1359.7</ele>
        <time>2026-07-14T08:32:26Z</time>
      </trkpt>
      <trkpt lat="45.19452" lon="5.95671">
        <ele>1359.7</ele>
        <time>2026-07-14T08:32:27Z</time>
      </trkpt>
      <trkpt lat="45.19452" lon="5.95671">
        <ele>1359.7</ele>
        <time>2026-07-14T08:32:28Z</time>
      </trkpt>
      <trkpt lat="45.19452" lon="5.95671">
        <ele>1359.7</ele>
        <time>2026-07-14T08:32:29Z</time>
      </trkpt>
      <trkpt lat="45.19452" lon="5.95671">
        <ele>1359.7</ele>
        <time>2026-07-14T08:32:30Z</time>
      </trkpt>
      <trkpt lat="45.19452" lon="5.95671">
        <ele>1359.7</ele>
        <time>2026-07-14T08:32:31Z</time>
      </trkpt>
      <trkpt lat="45.19452" lon="5.95671">
        <ele>1359.7</ele>
        <time>2026-07-14T08:32:32Z</time>
      </trkpt>
      <trkpt lat="45.19452" lon="5.95671">
        <ele>1359.7</ele>
        <time>2026-07-14T08:32:33Z</time>
      </trkpt>
      <trkpt lat="45.19452" lon="5.95671">
        <ele>1359.7</ele>
        <time>2026-07-14T08:32:34Z</time>
      </trkpt>
      <trkpt lat="45.19452" lon="5.95671">
        <ele>1359.7</ele>
        <time>2026-07-14T08:32:35Z</time>
      </trkpt>
      <trkpt lat="45.19452" lon="5.95671">
        <ele>1359.7</ele>
        <time>2026-07-14T08:32:36Z</time>
      </trkpt>
      <trkpt lat="45.19452" lon="5.95671">
        <ele>1359.7</ele>
        <time>2026-07-14T08:32:37Z</time>
      </trkpt>
      <trkpt lat="45.19452" lon="5.95671">
        <ele>1359.7</ele>
        <time>2026-07-14T08:32:38Z</time>
      </trkpt>
      <trkpt lat="45.19452" lon="5.95671">
        <ele>1359.7</ele>
        <time>2026-07-14T08:32:39Z</time>
      </trkpt>
      <trkpt lat="45.19452" lon="5.95671">
        <ele>1359.7</ele>
        <time>2026-07-14T08:32:40Z</time>
      </trkpt>
      <trkpt lat="45.19452" lon="5.95671">
        <ele>1359.7</ele>
        <time>2026-07-14T08:32:41Z</time>
      </trkpt>
      <trkpt lat="45.19452" lon="5.95671">
        <ele>1359.7</ele>
        <time>2026-07-14T08:32:42Z</time>
      </trkpt>
      <trkpt lat="45.19452" lon="5.95671">
        <ele>1359.7</ele>
        <time>2026-07-14T08:32:43Z</time>
      </trkpt>
      <trkpt lat="45.19452" lon="5.95671">
        <ele>1359.7</ele>
        <time>2026-07-14T08:32:44Z</time>
      </trkpt>
      <trkpt lat="45.19452" lon="5.95671">
        <ele>1359.7</ele>
        <time>2026-07-14T08:32:45Z</time>
      </trkpt>
      <trkpt lat="45.19452" lon="5.95671">
        <ele>1359.7</ele>
        <time>2026-07-14T08:32:46Z</time>
      </trkpt>
      <trkpt lat="45.19452" lon="5.95671">
        <ele>1359.7</ele>
        <time>2026-07-14T08:32:47Z</time>
      </trkpt>
      <trkpt lat="45.19452" lon="5.95671">
        <ele>1359.7</ele>
        <time>2026-07-14T08:32:48Z</time>
      </trkpt>
      <trkpt lat="45.19452" lon="5.95671">
        <ele>1359.7</ele>
        <time>2026-07-14T08:32:49Z</time>
      </trkpt>
      <trkpt lat="45.19452" lon="5.95671">
        <ele>1359.7</ele>
        <time>2026-07-14T08:32:50Z</time>
      </trkpt>
      <trkpt lat="45.19452" lon="5.95671">
        <ele>1359.7</ele>
        <time>2026-07-14T08:32:51Z</time>
      </trkpt>
      <trkpt lat="45.19452" lon="5.95671">
        <ele>1359.7</ele>
        <time>2026-07-14T08:32:52Z</time>
      </trkpt>
      <trkpt lat="45.19452" lon="5.95671">
        <ele>1359.7</ele>
        <time>2026-07-14T08:32:53Z</time>
      </trkpt>
      <trkpt lat="45.19452" lon="5.95671">
        <ele>1359.7</ele>
        <time>2026-07-14T08:32:54Z</time>
      </trkpt>
      <trkpt lat="45.19452" lon="5.95671">
        <ele>1359.7</ele>
        <time>2026-07-14T08:32:55Z</time>
      </trkpt>
      <trkpt lat="45.19452" lon="5.95671">
        <ele>1359.7</ele>
        <time>2026-07-14T08:32:56Z</time>
      </trkpt>
      <trkpt lat="45.19452" lon="5.95671">
        <ele>1359.7</ele>
        <time>2026-07-14T08:32:57Z</time>
      </trkpt>
      <trkpt lat="45.19452" lon="5.95671">
        <ele>1359.7</ele>
        <time>2026-07-14T08:32:58Z</time>
      </trkpt>
      <trkpt lat="45.19452" lon="5.95671">
        <ele>1359.7</ele>
        <time>2026-07-14T08:32:59Z</time>
      </trkpt>
      <trkpt lat="45.19452" lon="5.95671">
        <ele>1359.7</ele>
        <time>2026-07-14T08:33:00Z</time>
      </trkpt>
      <trkpt lat="45.19452" lon="5.95671">
        <ele>1359.7</ele>
        <time>2026-07-14T08:33:01Z</time>
      </trkpt>
      <trkpt lat="45.19452" lon="5.95671">
        <ele>1359.7</ele>
        <time>2026-07-14T08:33:02Z</time>
      </trkpt>
      <trkpt lat="45.19452" lon="5.95671">
        <ele>1359.7</ele>
        <time>2026-07-14T08:33:03Z</time>
      </trkpt>
      <trkpt lat="45.19452" lon="5.95671">
        <ele>1359.7</ele>
        <time>2026-07-14T08:33:04Z</time>
      </trkpt>
      <trkpt lat="45.19452" lon="5.95671">
        <ele>1359.7</ele>
        <time>2026-07-14T08:33:05Z</time>
      </trkpt>
      <trkpt lat="45.19452" lon="5.95671">
        <ele>1359.7</ele>
        <time>2026-07-14T08:33:06Z</time>
      </trkpt>
      <trkpt lat="45.19452" lon="5.95671">
        <ele>1359.7</ele>
        <time>2026-07-14T08:33:07Z</time>
      </trkpt>
      <trkpt lat="45.19452" lon="5.95671">
        <ele>1359.7</ele>
        <time>2026-07-14T08:33:08Z</time>
      </trkpt>
      <trkpt lat="45.19452" lon="5.95671">
        <ele>1359.7</ele>
        <time>2026-07-14T08:33:09Z</time>
      </trkpt>
      <trkpt lat="45.19452" lon="5.95671">
        <ele>1359.7</ele>
        <time>2026-07-14T08:33:10Z</time>
      </trkpt>
      <trkpt lat="45.19451" lon="5.95671">
        <ele>1359.7</ele>
        <time>2026-07-14T08:33:11Z</time>
      </trkpt>
      <trkpt lat="45.19451" lon="5.95671">
        <ele>1359.7</ele>
        <time>2026-07-14T08:33:12Z</time>
      </trkpt>
      <trkpt lat="45.19451" lon="5.95671">
        <ele>1359.7</ele>
        <time>2026-07-14T08:33:13Z</time>
      </trkpt>
      <trkpt lat="45.19451" lon="5.95671">
        <ele>1359.7</ele>
        <time>2026-07-14T08:33:14Z</time>
      </trkpt>
      <trkpt lat="45.19451" lon="5.95671">
        <ele>1359.7</ele>
        <time>2026-07-14T08:33:15Z</time>
      </trkpt>
      <trkpt lat="45.19451" lon="5.95671">
        <ele>1359.7</ele>
        <time>2026-07-14T08:33:16Z</time>
      </trkpt>
      <trkpt lat="45.19451" lon="5.95671">
        <ele>1359.7</ele>
        <time>2026-07-14T08:33:17Z</time>
      </trkpt>
      <trkpt lat="45.19451" lon="5.95671">
        <ele>1359.7</ele>
        <time>2026-07-14T08:33:18Z</time>
      </trkpt>
      <trkpt lat="45.19451" lon="5.95671">
        <ele>1359.7</ele>
        <time>2026-07-14T08:33:19Z</time>
      </trkpt>
      <trkpt lat="45.19451" lon="5.95671">
        <ele>1359.7</ele>
        <time>2026-07-14T08:33:20Z</time>
      </trkpt>
      <trkpt lat="45.19451" lon="5.95671">
        <ele>1359.7</ele>
        <time>2026-07-14T08:33:21Z</time>
      </trkpt>
      <trkpt lat="45.19451" lon="5.95671">
        <ele>1359.7</ele>
        <time>2026-07-14T08:33:22Z</time>
      </trkpt>
      <trkpt lat="45.19451" lon="5.95671">
        <ele>1359.7</ele>
        <time>2026-07-14T08:33:23Z</time>
      </trkpt>
      <trkpt lat="45.19451" lon="5.95671">
        <ele>1359.7</ele>
        <time>2026-07-14T08:33:24Z</time>
      </trkpt>
      <trkpt lat="45.19451" lon="5.95671">
        <ele>1359.7</ele>
        <time>2026-07-14T08:33:25Z</time>
      </trkpt>
      <trkpt lat="45.19451" lon="5.95671">
        <ele>1359.7</ele>
        <time>2026-07-14T08:33:26Z</time>
      </trkpt>
      <trkpt lat="45.19451" lon="5.95671">
        <ele>1359.7</ele>
        <time>2026-07-14T08:33:27Z</time>
      </trkpt>
      <trkpt lat="45.19451" lon="5.95671">
        <ele>1359.7</ele>
        <time>2026-07-14T08:33:28Z</time>
      </trkpt>
      <trkpt lat="45.19451" lon="5.95671">
        <ele>1359.7</ele>
        <time>2026-07-14T08:33:29Z</time>
      </trkpt>
      <trkpt lat="45.19451" lon="5.95671">
        <ele>1359.7</ele>
        <time>2026-07-14T08:33:30Z</time>
      </trkpt>
      <trkpt lat="45.19451" lon="5.95671">
        <ele>1359.7</ele>
        <time>2026-07-14T08:33:31Z</time>
      </trkpt>
      <trkpt lat="45.19451" lon="5.95671">
        <ele>1359.7</ele>
        <time>2026-07-14T08:33:32Z</time>
      </trkpt>
      <trkpt lat="45.19451" lon="5.95671">
        <ele>1359.7</ele>
        <time>2026-07-14T08:33:33Z</time>
      </trkpt>
      <trkpt lat="45.19451" lon="5.95671">
        <ele>1359.7</ele>
        <time>2026-07-14T08:33:34Z</time>
      </trkpt>
      <trkpt lat="45.19451" lon="5.95671">
        <ele>1359.7</ele>
        <time>2026-07-14T08:33:35Z</time>
      </trkpt>
      <trkpt lat="45.19451" lon="5.95671">
        <ele>1359.7</ele>
        <time>2026-07-14T08:33:36Z</time>
      </trkpt>
      <trkpt lat="45.19451" lon="5.95671">
        <ele>1359.7</ele>
        <time>2026-07-14T08:33:37Z</time>
      </trkpt>
      <trkpt lat="45.19451" lon="5.95671">
        <ele>1359.7</ele>
        <time>2026-07-14T08:33:38Z</time>
      </trkpt>
      <trkpt lat="45.19451" lon="5.95671">
        <ele>1359.7</ele>
        <time>2026-07-14T08:33:39Z</time>
      </trkpt>
      <trkpt lat="45.19451" lon="5.95671">
        <ele>1359.7</ele>
        <time>2026-07-14T08:33:40Z</time>
      </trkpt>
      <trkpt lat="45.19451" lon="5.95671">
        <ele>1359.7</ele>
        <time>2026-07-14T08:33:41Z</time>
      </trkpt>
      <trkpt lat="45.19451" lon="5.95671">
        <ele>1359.7</ele>
        <time>2026-07-14T08:33:42Z</time>
      </trkpt>
      <trkpt lat="45.19451" lon="5.95671">
        <ele>1359.7</ele>
        <time>2026-07-14T08:33:43Z</time>
      </trkpt>
      <trkpt lat="45.19451" lon="5.95671">
        <ele>1359.7</ele>
        <time>2026-07-14T08:33:44Z</time>
      </trkpt>
      <trkpt lat="45.19451" lon="5.95671">
        <ele>1359.7</ele>
        <time>2026-07-14T08:33:45Z</time>
      </trkpt>
      <trkpt lat="45.19451" lon="5.95671">
        <ele>1359.7</ele>
        <time>2026-07-14T08:33:46Z</time>
      </trkpt>
      <trkpt lat="45.19451" lon="5.95671">
        <ele>1359.7</ele>
        <time>2026-07-14T08:33:47Z</time>
      </trkpt>
      <trkpt lat="45.19451" lon="5.95671">
        <ele>1359.7</ele>
        <time>2026-07-14T08:33:48Z</time>
      </trkpt>
      <trkpt lat="45.19451" lon="5.95671">
        <ele>1359.7</ele>
        <time>2026-07-14T08:33:49Z</time>
      </trkpt>
      <trkpt lat="45.19451" lon="5.95671">
        <ele>1359.7</ele>
        <time>2026-07-14T08:33:50Z</time>
      </trkpt>
      <trkpt lat="45.19451" lon="5.95671">
        <ele>1359.7</ele>
        <time>2026-07-14T08:33:51Z</time>
      </trkpt>
      <trkpt lat="45.19451" lon="5.95671">
        <ele>1359.8</ele>
        <time>2026-07-14T08:33:52Z</time>
      </trkpt>
      <trkpt lat="45.19451" lon="5.95671">
        <ele>1359.8</ele>
        <time>2026-07-14T08:33:53Z</time>
      </trkpt>
      <trkpt lat="45.19451" lon="5.95671">
        <ele>1359.8</ele>
        <time>2026-07-14T08:33:55Z</time>
      </trkpt>
      <trkpt lat="45.19451" lon="5.95671">
        <ele>1359.8</ele>
        <time>2026-07-14T08:33:56Z</time>
      </trkpt>
      <trkpt lat="45.19451" lon="5.95671">
        <ele>1359.8</ele>
        <time>2026-07-14T08:33:57Z</time>
      </trkpt>
      <trkpt lat="45.19451" lon="5.95671">
        <ele>1359.8</ele>
        <time>2026-07-14T08:33:58Z</time>
      </trkpt>
      <trkpt lat="45.19451" lon="5.95671">
        <ele>1359.8</ele>
        <time>2026-07-14T08:33:59Z</time>
      </trkpt>
      <trkpt lat="45.19451" lon="5.95671">
        <ele>1359.8</ele>
        <time>2026-07-14T08:34:00Z</time>
      </trkpt>
      <trkpt lat="45.19451" lon="5.95671">
        <ele>1359.8</ele>
        <time>2026-07-14T08:34:01Z</time>
      </trkpt>
      <trkpt lat="45.19451" lon="5.95671">
        <ele>1359.8</ele>
        <time>2026-07-14T08:34:02Z</time>
      </trkpt>
      <trkpt lat="45.19451" lon="5.95671">
        <ele>1359.8</ele>
        <time>2026-07-14T08:34:04Z</time>
      </trkpt>
      <trkpt lat="45.19451" lon="5.95671">
        <ele>1359.8</ele>
        <time>2026-07-14T08:34:06Z</time>
      </trkpt>
      <trkpt lat="45.19451" lon="5.95671">
        <ele>1359.8</ele>
        <time>2026-07-14T08:34:07Z</time>
      </trkpt>
      <trkpt lat="45.19451" lon="5.95671">
        <ele>1359.8</ele>
        <time>2026-07-14T08:34:08Z</time>
      </trkpt>
      <trkpt lat="45.19451" lon="5.95671">
        <ele>1359.8</ele>
        <time>2026-07-14T08:34:09Z</time>
      </trkpt>
      <trkpt lat="45.19451" lon="5.95671">
        <ele>1359.8</ele>
        <time>2026-07-14T08:34:10Z</time>
      </trkpt>
      <trkpt lat="45.19451" lon="5.95671">
        <ele>1359.8</ele>
        <time>2026-07-14T08:34:11Z</time>
      </trkpt>
      <trkpt lat="45.19451" lon="5.95671">
        <ele>1359.8</ele>
        <time>2026-07-14T08:34:12Z</time>
      </trkpt>
      <trkpt lat="45.19451" lon="5.95671">
        <ele>1359.8</ele>
        <time>2026-07-14T08:34:13Z</time>
      </trkpt>
      <trkpt lat="45.19451" lon="5.95671">
        <ele>1359.8</ele>
        <time>2026-07-14T08:34:14Z</time>
      </trkpt>
      <trkpt lat="45.19451" lon="5.95671">
        <ele>1359.8</ele>
        <time>2026-07-14T08:34:15Z</time>
      </trkpt>
      <trkpt lat="45.19451" lon="5.95671">
        <ele>1359.8</ele>
        <time>2026-07-14T08:34:16Z</time>
      </trkpt>
      <trkpt lat="45.19451" lon="5.95671">
        <ele>1359.8</ele>
        <time>2026-07-14T08:34:17Z</time>
      </trkpt>
      <trkpt lat="45.19451" lon="5.95671">
        <ele>1359.8</ele>
        <time>2026-07-14T08:34:18Z</time>
      </trkpt>
      <trkpt lat="45.19451" lon="5.95671">
        <ele>1359.8</ele>
        <time>2026-07-14T08:34:19Z</time>
      </trkpt>
      <trkpt lat="45.19451" lon="5.95671">
        <ele>1359.8</ele>
        <time>2026-07-14T08:34:20Z</time>
      </trkpt>
      <trkpt lat="45.19451" lon="5.95671">
        <ele>1359.8</ele>
        <time>2026-07-14T08:34:21Z</time>
      </trkpt>
      <trkpt lat="45.19451" lon="5.95671">
        <ele>1359.8</ele>
        <time>2026-07-14T08:34:22Z</time>
      </trkpt>
      <trkpt lat="45.19451" lon="5.95671">
        <ele>1359.8</ele>
        <time>2026-07-14T08:34:23Z</time>
      </trkpt>
      <trkpt lat="45.19451" lon="5.95671">
        <ele>1359.8</ele>
        <time>2026-07-14T08:34:25Z</time>
      </trkpt>
      <trkpt lat="45.19451" lon="5.95671">
        <ele>1359.8</ele>
        <time>2026-07-14T08:34:26Z</time>
      </trkpt>
      <trkpt lat="45.19451" lon="5.95671">
        <ele>1359.8</ele>
        <time>2026-07-14T08:34:27Z</time>
      </trkpt>
      <trkpt lat="45.19452" lon="5.95671">
        <ele>1359.8</ele>
        <time>2026-07-14T08:34:28Z</time>
      </trkpt>
      <trkpt lat="45.19452" lon="5.95672">
        <ele>1359.9</ele>
        <time>2026-07-14T08:34:29Z</time>
      </trkpt>
      <trkpt lat="45.19452" lon="5.95671">
        <ele>1359.9</ele>
        <time>2026-07-14T08:34:30Z</time>
      </trkpt>
      <trkpt lat="45.19452" lon="5.95672">
        <ele>1359.9</ele>
        <time>2026-07-14T08:34:31Z</time>
      </trkpt>
      <trkpt lat="45.19451" lon="5.95671">
        <ele>1360</ele>
        <time>2026-07-14T08:34:33Z</time>
      </trkpt>
      <trkpt lat="45.1945" lon="5.95672">
        <ele>1360.1</ele>
        <time>2026-07-14T08:34:34Z</time>
      </trkpt>
      <trkpt lat="45.19449" lon="5.95672">
        <ele>1360.2</ele>
        <time>2026-07-14T08:34:35Z</time>
      </trkpt>
      <trkpt lat="45.19448" lon="5.95672">
        <ele>1360.4</ele>
        <time>2026-07-14T08:34:36Z</time>
      </trkpt>
      <trkpt lat="45.19447" lon="5.95672">
        <ele>1360.4</ele>
        <time>2026-07-14T08:34:38Z</time>
      </trkpt>
      <trkpt lat="45.19446" lon="5.95671">
        <ele>1360.5</ele>
        <time>2026-07-14T08:34:39Z</time>
      </trkpt>
      <trkpt lat="45.19446" lon="5.95671">
        <ele>1360.6</ele>
        <time>2026-07-14T08:34:40Z</time>
      </trkpt>
      <trkpt lat="45.19445" lon="5.95671">
        <ele>1360.7</ele>
        <time>2026-07-14T08:34:41Z</time>
      </trkpt>
      <trkpt lat="45.19445" lon="5.95672">
        <ele>1360.7</ele>
        <time>2026-07-14T08:34:42Z</time>
      </trkpt>
      <trkpt lat="45.19445" lon="5.95672">
        <ele>1360.8</ele>
        <time>2026-07-14T08:34:43Z</time>
      </trkpt>
      <trkpt lat="45.19444" lon="5.95672">
        <ele>1360.9</ele>
        <time>2026-07-14T08:34:44Z</time>
      </trkpt>
      <trkpt lat="45.19444" lon="5.95672">
        <ele>1360.9</ele>
        <time>2026-07-14T08:34:45Z</time>
      </trkpt>
      <trkpt lat="45.19443" lon="5.95673">
        <ele>1361</ele>
        <time>2026-07-14T08:34:47Z</time>
      </trkpt>
      <trkpt lat="45.19442" lon="5.95673">
        <ele>1361.1</ele>
        <time>2026-07-14T08:34:48Z</time>
      </trkpt>
      <trkpt lat="45.19441" lon="5.95672">
        <ele>1361.3</ele>
        <time>2026-07-14T08:34:49Z</time>
      </trkpt>
      <trkpt lat="45.1944" lon="5.95671">
        <ele>1361.4</ele>
        <time>2026-07-14T08:34:51Z</time>
      </trkpt>
      <trkpt lat="45.1944" lon="5.9567">
        <ele>1361.4</ele>
        <time>2026-07-14T08:34:52Z</time>
      </trkpt>
      <trkpt lat="45.19441" lon="5.9567">
        <ele>1361.5</ele>
        <time>2026-07-14T08:34:53Z</time>
      </trkpt>
      <trkpt lat="45.19441" lon="5.9567">
        <ele>1361.5</ele>
        <time>2026-07-14T08:34:54Z</time>
      </trkpt>
      <trkpt lat="45.1944" lon="5.9567">
        <ele>1361.5</ele>
        <time>2026-07-14T08:34:55Z</time>
      </trkpt>
      <trkpt lat="45.1944" lon="5.9567">
        <ele>1361.6</ele>
        <time>2026-07-14T08:34:56Z</time>
      </trkpt>
      <trkpt lat="45.1944" lon="5.9567">
        <ele>1361.6</ele>
        <time>2026-07-14T08:34:58Z</time>
      </trkpt>
      <trkpt lat="45.19439" lon="5.95669">
        <ele>1361.7</ele>
        <time>2026-07-14T08:34:59Z</time>
      </trkpt>
      <trkpt lat="45.19439" lon="5.95669">
        <ele>1361.7</ele>
        <time>2026-07-14T08:35:00Z</time>
      </trkpt>
      <trkpt lat="45.19438" lon="5.95668">
        <ele>1361.8</ele>
        <time>2026-07-14T08:35:01Z</time>
      </trkpt>
      <trkpt lat="45.19438" lon="5.95667">
        <ele>1361.9</ele>
        <time>2026-07-14T08:35:02Z</time>
      </trkpt>
      <trkpt lat="45.19437" lon="5.95667">
        <ele>1362</ele>
        <time>2026-07-14T08:35:03Z</time>
      </trkpt>
      <trkpt lat="45.19437" lon="5.95667">
        <ele>1362</ele>
        <time>2026-07-14T08:35:04Z</time>
      </trkpt>
      <trkpt lat="45.19435" lon="5.95665">
        <ele>1362.2</ele>
        <time>2026-07-14T08:35:06Z</time>
      </trkpt>
      <trkpt lat="45.19435" lon="5.95665">
        <ele>1362.3</ele>
        <time>2026-07-14T08:35:07Z</time>
      </trkpt>
      <trkpt lat="45.19433" lon="5.95664">
        <ele>1362.5</ele>
        <time>2026-07-14T08:35:09Z</time>
      </trkpt>
      <trkpt lat="45.19432" lon="5.95664">
        <ele>1362.5</ele>
        <time>2026-07-14T08:35:10Z</time>
      </trkpt>
      <trkpt lat="45.19432" lon="5.95664">
        <ele>1362.6</ele>
        <time>2026-07-14T08:35:12Z</time>
      </trkpt>
      <trkpt lat="45.1943" lon="5.95664">
        <ele>1362.7</ele>
        <time>2026-07-14T08:35:13Z</time>
      </trkpt>
      <trkpt lat="45.1943" lon="5.95664">
        <ele>1362.8</ele>
        <time>2026-07-14T08:35:15Z</time>
      </trkpt>
      <trkpt lat="45.19429" lon="5.95664">
        <ele>1362.9</ele>
        <time>2026-07-14T08:35:16Z</time>
      </trkpt>
      <trkpt lat="45.19428" lon="5.95665">
        <ele>1363</ele>
        <time>2026-07-14T08:35:17Z</time>
      </trkpt>
      <trkpt lat="45.19427" lon="5.95666">
        <ele>1363.1</ele>
        <time>2026-07-14T08:35:18Z</time>
      </trkpt>
      <trkpt lat="45.19427" lon="5.95666">
        <ele>1363.2</ele>
        <time>2026-07-14T08:35:20Z</time>
      </trkpt>
      <trkpt lat="45.19426" lon="5.95668">
        <ele>1363.3</ele>
        <time>2026-07-14T08:35:21Z</time>
      </trkpt>
      <trkpt lat="45.19425" lon="5.95668">
        <ele>1363.4</ele>
        <time>2026-07-14T08:35:22Z</time>
      </trkpt>
      <trkpt lat="45.19424" lon="5.95668">
        <ele>1363.5</ele>
        <time>2026-07-14T08:35:23Z</time>
      </trkpt>
      <trkpt lat="45.19424" lon="5.95669">
        <ele>1363.6</ele>
        <time>2026-07-14T08:35:24Z</time>
      </trkpt>
      <trkpt lat="45.19423" lon="5.95668">
        <ele>1363.6</ele>
        <time>2026-07-14T08:35:25Z</time>
      </trkpt>
      <trkpt lat="45.19423" lon="5.95668">
        <ele>1363.7</ele>
        <time>2026-07-14T08:35:26Z</time>
      </trkpt>
      <trkpt lat="45.19422" lon="5.95668">
        <ele>1363.8</ele>
        <time>2026-07-14T08:35:27Z</time>
      </trkpt>
      <trkpt lat="45.19422" lon="5.95668">
        <ele>1363.8</ele>
        <time>2026-07-14T08:35:28Z</time>
      </trkpt>
      <trkpt lat="45.19421" lon="5.95667">
        <ele>1363.9</ele>
        <time>2026-07-14T08:35:29Z</time>
      </trkpt>
      <trkpt lat="45.19421" lon="5.95667">
        <ele>1364</ele>
        <time>2026-07-14T08:35:30Z</time>
      </trkpt>
      <trkpt lat="45.1942" lon="5.95667">
        <ele>1364</ele>
        <time>2026-07-14T08:35:31Z</time>
      </trkpt>
      <trkpt lat="45.1942" lon="5.95666">
        <ele>1364.1</ele>
        <time>2026-07-14T08:35:32Z</time>
      </trkpt>
      <trkpt lat="45.19419" lon="5.95666">
        <ele>1364.2</ele>
        <time>2026-07-14T08:35:33Z</time>
      </trkpt>
      <trkpt lat="45.19419" lon="5.95666">
        <ele>1364.2</ele>
        <time>2026-07-14T08:35:34Z</time>
      </trkpt>
      <trkpt lat="45.19419" lon="5.95666">
        <ele>1364.2</ele>
        <time>2026-07-14T08:35:36Z</time>
      </trkpt>
      <trkpt lat="45.19419" lon="5.95666">
        <ele>1364.3</ele>
        <time>2026-07-14T08:35:38Z</time>
      </trkpt>
      <trkpt lat="45.19418" lon="5.95665">
        <ele>1364.4</ele>
        <time>2026-07-14T08:35:39Z</time>
      </trkpt>
      <trkpt lat="45.19417" lon="5.95665">
        <ele>1364.5</ele>
        <time>2026-07-14T08:35:41Z</time>
      </trkpt>
      <trkpt lat="45.19416" lon="5.95666">
        <ele>1364.7</ele>
        <time>2026-07-14T08:35:42Z</time>
      </trkpt>
      <trkpt lat="45.19415" lon="5.95667">
        <ele>1364.8</ele>
        <time>2026-07-14T08:35:43Z</time>
      </trkpt>
      <trkpt lat="45.19415" lon="5.95667">
        <ele>1364.9</ele>
        <time>2026-07-14T08:35:44Z</time>
      </trkpt>
      <trkpt lat="45.19414" lon="5.95667">
        <ele>1365</ele>
        <time>2026-07-14T08:35:45Z</time>
      </trkpt>
      <trkpt lat="45.19414" lon="5.95667">
        <ele>1365.1</ele>
        <time>2026-07-14T08:35:47Z</time>
      </trkpt>
      <trkpt lat="45.19411" lon="5.95667">
        <ele>1365.5</ele>
        <time>2026-07-14T08:35:49Z</time>
      </trkpt>
      <trkpt lat="45.19411" lon="5.95668">
        <ele>1365.6</ele>
        <time>2026-07-14T08:35:51Z</time>
      </trkpt>
      <trkpt lat="45.19411" lon="5.95668">
        <ele>1365.7</ele>
        <time>2026-07-14T08:35:52Z</time>
      </trkpt>
      <trkpt lat="45.1941" lon="5.95669">
        <ele>1365.7</ele>
        <time>2026-07-14T08:35:53Z</time>
      </trkpt>
      <trkpt lat="45.1941" lon="5.95669">
        <ele>1365.8</ele>
        <time>2026-07-14T08:35:54Z</time>
      </trkpt>
      <trkpt lat="45.1941" lon="5.9567">
        <ele>1365.9</ele>
        <time>2026-07-14T08:35:55Z</time>
      </trkpt>
      <trkpt lat="45.19409" lon="5.9567">
        <ele>1366</ele>
        <time>2026-07-14T08:35:56Z</time>
      </trkpt>
      <trkpt lat="45.19409" lon="5.9567">
        <ele>1366</ele>
        <time>2026-07-14T08:35:57Z</time>
      </trkpt>
      <trkpt lat="45.19408" lon="5.9567">
        <ele>1366.1</ele>
        <time>2026-07-14T08:35:58Z</time>
      </trkpt>
      <trkpt lat="45.19408" lon="5.9567">
        <ele>1366.2</ele>
        <time>2026-07-14T08:35:59Z</time>
      </trkpt>
      <trkpt lat="45.19407" lon="5.9567">
        <ele>1366.3</ele>
        <time>2026-07-14T08:36:00Z</time>
      </trkpt>
      <trkpt lat="45.19407" lon="5.9567">
        <ele>1366.4</ele>
        <time>2026-07-14T08:36:01Z</time>
      </trkpt>
      <trkpt lat="45.19407" lon="5.9567">
        <ele>1366.5</ele>
        <time>2026-07-14T08:36:02Z</time>
      </trkpt>
      <trkpt lat="45.19406" lon="5.95669">
        <ele>1366.5</ele>
        <time>2026-07-14T08:36:03Z</time>
      </trkpt>
      <trkpt lat="45.19406" lon="5.95669">
        <ele>1366.6</ele>
        <time>2026-07-14T08:36:04Z</time>
      </trkpt>
      <trkpt lat="45.19405" lon="5.95669">
        <ele>1366.7</ele>
        <time>2026-07-14T08:36:05Z</time>
      </trkpt>
      <trkpt lat="45.19405" lon="5.95669">
        <ele>1366.7</ele>
        <time>2026-07-14T08:36:06Z</time>
      </trkpt>
      <trkpt lat="45.19405" lon="5.95669">
        <ele>1366.8</ele>
        <time>2026-07-14T08:36:07Z</time>
      </trkpt>
      <trkpt lat="45.19405" lon="5.95668">
        <ele>1366.9</ele>
        <time>2026-07-14T08:36:08Z</time>
      </trkpt>
      <trkpt lat="45.19404" lon="5.95668">
        <ele>1367</ele>
        <time>2026-07-14T08:36:09Z</time>
      </trkpt>
      <trkpt lat="45.19404" lon="5.95667">
        <ele>1367</ele>
        <time>2026-07-14T08:36:10Z</time>
      </trkpt>
      <trkpt lat="45.19404" lon="5.95667">
        <ele>1367.1</ele>
        <time>2026-07-14T08:36:11Z</time>
      </trkpt>
      <trkpt lat="45.19403" lon="5.95667">
        <ele>1367.2</ele>
        <time>2026-07-14T08:36:12Z</time>
      </trkpt>
      <trkpt lat="45.19403" lon="5.95667">
        <ele>1367.3</ele>
        <time>2026-07-14T08:36:13Z</time>
      </trkpt>
      <trkpt lat="45.19403" lon="5.95668">
        <ele>1367.3</ele>
        <time>2026-07-14T08:36:14Z</time>
      </trkpt>
      <trkpt lat="45.19402" lon="5.95668">
        <ele>1367.4</ele>
        <time>2026-07-14T08:36:15Z</time>
      </trkpt>
      <trkpt lat="45.19401" lon="5.95669">
        <ele>1367.6</ele>
        <time>2026-07-14T08:36:17Z</time>
      </trkpt>
      <trkpt lat="45.19401" lon="5.95669">
        <ele>1367.7</ele>
        <time>2026-07-14T08:36:18Z</time>
      </trkpt>
      <trkpt lat="45.19401" lon="5.9567">
        <ele>1367.8</ele>
        <time>2026-07-14T08:36:19Z</time>
      </trkpt>
      <trkpt lat="45.194" lon="5.9567">
        <ele>1367.9</ele>
        <time>2026-07-14T08:36:20Z</time>
      </trkpt>
      <trkpt lat="45.194" lon="5.95671">
        <ele>1368</ele>
        <time>2026-07-14T08:36:21Z</time>
      </trkpt>
      <trkpt lat="45.19399" lon="5.95672">
        <ele>1368.2</ele>
        <time>2026-07-14T08:36:23Z</time>
      </trkpt>
      <trkpt lat="45.19399" lon="5.95672">
        <ele>1368.3</ele>
        <time>2026-07-14T08:36:24Z</time>
      </trkpt>
      <trkpt lat="45.19398" lon="5.95673">
        <ele>1368.4</ele>
        <time>2026-07-14T08:36:25Z</time>
      </trkpt>
      <trkpt lat="45.19398" lon="5.95673">
        <ele>1368.5</ele>
        <time>2026-07-14T08:36:26Z</time>
      </trkpt>
      <trkpt lat="45.19397" lon="5.95673">
        <ele>1368.6</ele>
        <time>2026-07-14T08:36:27Z</time>
      </trkpt>
      <trkpt lat="45.19396" lon="5.95673">
        <ele>1368.7</ele>
        <time>2026-07-14T08:36:28Z</time>
      </trkpt>
      <trkpt lat="45.19396" lon="5.95673">
        <ele>1368.9</ele>
        <time>2026-07-14T08:36:29Z</time>
      </trkpt>
      <trkpt lat="45.19395" lon="5.95673">
        <ele>1369</ele>
        <time>2026-07-14T08:36:30Z</time>
      </trkpt>
      <trkpt lat="45.19395" lon="5.95673">
        <ele>1369</ele>
        <time>2026-07-14T08:36:31Z</time>
      </trkpt>
      <trkpt lat="45.19394" lon="5.95674">
        <ele>1369.1</ele>
        <time>2026-07-14T08:36:32Z</time>
      </trkpt>
      <trkpt lat="45.19394" lon="5.95674">
        <ele>1369.2</ele>
        <time>2026-07-14T08:36:33Z</time>
      </trkpt>
      <trkpt lat="45.19393" lon="5.95674">
        <ele>1369.3</ele>
        <time>2026-07-14T08:36:34Z</time>
      </trkpt>
      <trkpt lat="45.19393" lon="5.95674">
        <ele>1369.4</ele>
        <time>2026-07-14T08:36:35Z</time>
      </trkpt>
      <trkpt lat="45.19392" lon="5.95675">
        <ele>1369.6</ele>
        <time>2026-07-14T08:36:36Z</time>
      </trkpt>
      <trkpt lat="45.19392" lon="5.95675">
        <ele>1369.7</ele>
        <time>2026-07-14T08:36:37Z</time>
      </trkpt>
      <trkpt lat="45.19391" lon="5.95676">
        <ele>1369.8</ele>
        <time>2026-07-14T08:36:38Z</time>
      </trkpt>
      <trkpt lat="45.19391" lon="5.95676">
        <ele>1369.9</ele>
        <time>2026-07-14T08:36:39Z</time>
      </trkpt>
      <trkpt lat="45.1939" lon="5.95676">
        <ele>1370</ele>
        <time>2026-07-14T08:36:40Z</time>
      </trkpt>
      <trkpt lat="45.1939" lon="5.95676">
        <ele>1370.2</ele>
        <time>2026-07-14T08:36:41Z</time>
      </trkpt>
      <trkpt lat="45.19389" lon="5.95677">
        <ele>1370.3</ele>
        <time>2026-07-14T08:36:42Z</time>
      </trkpt>
      <trkpt lat="45.19389" lon="5.95677">
        <ele>1370.4</ele>
        <time>2026-07-14T08:36:43Z</time>
      </trkpt>
      <trkpt lat="45.19388" lon="5.95677">
        <ele>1370.5</ele>
        <time>2026-07-14T08:36:44Z</time>
      </trkpt>
      <trkpt lat="45.19388" lon="5.95678">
        <ele>1370.6</ele>
        <time>2026-07-14T08:36:45Z</time>
      </trkpt>
      <trkpt lat="45.19388" lon="5.95678">
        <ele>1370.6</ele>
        <time>2026-07-14T08:36:46Z</time>
      </trkpt>
      <trkpt lat="45.19387" lon="5.95678">
        <ele>1370.7</ele>
        <time>2026-07-14T08:36:47Z</time>
      </trkpt>
      <trkpt lat="45.19387" lon="5.95678">
        <ele>1370.8</ele>
        <time>2026-07-14T08:36:48Z</time>
      </trkpt>
      <trkpt lat="45.19386" lon="5.95678">
        <ele>1370.9</ele>
        <time>2026-07-14T08:36:49Z</time>
      </trkpt>
      <trkpt lat="45.19386" lon="5.95678">
        <ele>1371</ele>
        <time>2026-07-14T08:36:50Z</time>
      </trkpt>
      <trkpt lat="45.19385" lon="5.95678">
        <ele>1371.1</ele>
        <time>2026-07-14T08:36:51Z</time>
      </trkpt>
      <trkpt lat="45.19385" lon="5.95678">
        <ele>1371.1</ele>
        <time>2026-07-14T08:36:52Z</time>
      </trkpt>
      <trkpt lat="45.19385" lon="5.95678">
        <ele>1371.2</ele>
        <time>2026-07-14T08:36:54Z</time>
      </trkpt>
      <trkpt lat="45.19385" lon="5.95678">
        <ele>1371.3</ele>
        <time>2026-07-14T08:36:55Z</time>
      </trkpt>
      <trkpt lat="45.19385" lon="5.95678">
        <ele>1371.4</ele>
        <time>2026-07-14T08:36:56Z</time>
      </trkpt>
      <trkpt lat="45.19385" lon="5.95678">
        <ele>1371.4</ele>
        <time>2026-07-14T08:36:57Z</time>
      </trkpt>
      <trkpt lat="45.19385" lon="5.95679">
        <ele>1371.5</ele>
        <time>2026-07-14T08:36:58Z</time>
      </trkpt>
      <trkpt lat="45.19385" lon="5.95679">
        <ele>1371.5</ele>
        <time>2026-07-14T08:36:59Z</time>
      </trkpt>
      <trkpt lat="45.19385" lon="5.95679">
        <ele>1371.6</ele>
        <time>2026-07-14T08:37:00Z</time>
      </trkpt>
      <trkpt lat="45.19385" lon="5.9568">
        <ele>1371.6</ele>
        <time>2026-07-14T08:37:01Z</time>
      </trkpt>
      <trkpt lat="45.19385" lon="5.9568">
        <ele>1371.7</ele>
        <time>2026-07-14T08:37:02Z</time>
      </trkpt>
      <trkpt lat="45.19384" lon="5.9568">
        <ele>1371.8</ele>
        <time>2026-07-14T08:37:03Z</time>
      </trkpt>
      <trkpt lat="45.19384" lon="5.95681">
        <ele>1371.9</ele>
        <time>2026-07-14T08:37:04Z</time>
      </trkpt>
      <trkpt lat="45.19383" lon="5.95681">
        <ele>1372</ele>
        <time>2026-07-14T08:37:05Z</time>
      </trkpt>
      <trkpt lat="45.19383" lon="5.95681">
        <ele>1372.1</ele>
        <time>2026-07-14T08:37:06Z</time>
      </trkpt>
      <trkpt lat="45.19382" lon="5.95682">
        <ele>1372.2</ele>
        <time>2026-07-14T08:37:07Z</time>
      </trkpt>
      <trkpt lat="45.19382" lon="5.95682">
        <ele>1372.3</ele>
        <time>2026-07-14T08:37:08Z</time>
      </trkpt>
      <trkpt lat="45.19382" lon="5.95682">
        <ele>1372.4</ele>
        <time>2026-07-14T08:37:09Z</time>
      </trkpt>
      <trkpt lat="45.19382" lon="5.95682">
        <ele>1372.4</ele>
        <time>2026-07-14T08:37:10Z</time>
      </trkpt>
      <trkpt lat="45.19382" lon="5.95682">
        <ele>1372.4</ele>
        <time>2026-07-14T08:37:11Z</time>
      </trkpt>
      <trkpt lat="45.19382" lon="5.95682">
        <ele>1372.5</ele>
        <time>2026-07-14T08:37:12Z</time>
      </trkpt>
      <trkpt lat="45.19382" lon="5.95682">
        <ele>1372.5</ele>
        <time>2026-07-14T08:37:13Z</time>
      </trkpt>
      <trkpt lat="45.19383" lon="5.95682">
        <ele>1372.6</ele>
        <time>2026-07-14T08:37:14Z</time>
      </trkpt>
      <trkpt lat="45.19383" lon="5.95682">
        <ele>1372.6</ele>
        <time>2026-07-14T08:37:15Z</time>
      </trkpt>
      <trkpt lat="45.19383" lon="5.95682">
        <ele>1372.7</ele>
        <time>2026-07-14T08:37:16Z</time>
      </trkpt>
      <trkpt lat="45.19383" lon="5.95682">
        <ele>1372.7</ele>
        <time>2026-07-14T08:37:17Z</time>
      </trkpt>
      <trkpt lat="45.19383" lon="5.95682">
        <ele>1372.7</ele>
        <time>2026-07-14T08:37:18Z</time>
      </trkpt>
      <trkpt lat="45.19383" lon="5.95682">
        <ele>1372.8</ele>
        <time>2026-07-14T08:37:19Z</time>
      </trkpt>
      <trkpt lat="45.19383" lon="5.95681">
        <ele>1372.8</ele>
        <time>2026-07-14T08:37:20Z</time>
      </trkpt>
      <trkpt lat="45.19383" lon="5.95681">
        <ele>1372.9</ele>
        <time>2026-07-14T08:37:21Z</time>
      </trkpt>
      <trkpt lat="45.19382" lon="5.9568">
        <ele>1373</ele>
        <time>2026-07-14T08:37:22Z</time>
      </trkpt>
      <trkpt lat="45.19382" lon="5.9568">
        <ele>1373</ele>
        <time>2026-07-14T08:37:23Z</time>
      </trkpt>
      <trkpt lat="45.19382" lon="5.9568">
        <ele>1373.1</ele>
        <time>2026-07-14T08:37:24Z</time>
      </trkpt>
      <trkpt lat="45.19381" lon="5.9568">
        <ele>1373.3</ele>
        <time>2026-07-14T08:37:25Z</time>
      </trkpt>
      <trkpt lat="45.19381" lon="5.9568">
        <ele>1373.3</ele>
        <time>2026-07-14T08:37:26Z</time>
      </trkpt>
      <trkpt lat="45.1938" lon="5.95681">
        <ele>1373.5</ele>
        <time>2026-07-14T08:37:27Z</time>
      </trkpt>
      <trkpt lat="45.1938" lon="5.95681">
        <ele>1373.5</ele>
        <time>2026-07-14T08:37:28Z</time>
      </trkpt>
      <trkpt lat="45.1938" lon="5.95681">
        <ele>1373.6</ele>
        <time>2026-07-14T08:37:29Z</time>
      </trkpt>
      <trkpt lat="45.1938" lon="5.95682">
        <ele>1373.7</ele>
        <time>2026-07-14T08:37:30Z</time>
      </trkpt>
      <trkpt lat="45.1938" lon="5.95682">
        <ele>1373.8</ele>
        <time>2026-07-14T08:37:31Z</time>
      </trkpt>
      <trkpt lat="45.19379" lon="5.95683">
        <ele>1373.9</ele>
        <time>2026-07-14T08:37:32Z</time>
      </trkpt>
      <trkpt lat="45.19379" lon="5.95683">
        <ele>1373.9</ele>
        <time>2026-07-14T08:37:33Z</time>
      </trkpt>
      <trkpt lat="45.19378" lon="5.95684">
        <ele>1374.2</ele>
        <time>2026-07-14T08:37:35Z</time>
      </trkpt>
      <trkpt lat="45.19378" lon="5.95684">
        <ele>1374.3</ele>
        <time>2026-07-14T08:37:36Z</time>
      </trkpt>
      <trkpt lat="45.19377" lon="5.95684">
        <ele>1374.4</ele>
        <time>2026-07-14T08:37:37Z</time>
      </trkpt>
      <trkpt lat="45.19377" lon="5.95684">
        <ele>1374.5</ele>
        <time>2026-07-14T08:37:38Z</time>
      </trkpt>
      <trkpt lat="45.19376" lon="5.95684">
        <ele>1374.6</ele>
        <time>2026-07-14T08:37:39Z</time>
      </trkpt>
      <trkpt lat="45.19376" lon="5.95684">
        <ele>1374.7</ele>
        <time>2026-07-14T08:37:40Z</time>
      </trkpt>
      <trkpt lat="45.19376" lon="5.95684">
        <ele>1374.8</ele>
        <time>2026-07-14T08:37:41Z</time>
      </trkpt>
      <trkpt lat="45.19375" lon="5.95685">
        <ele>1375</ele>
        <time>2026-07-14T08:37:43Z</time>
      </trkpt>
      <trkpt lat="45.19374" lon="5.95685">
        <ele>1375.1</ele>
        <time>2026-07-14T08:37:44Z</time>
      </trkpt>
      <trkpt lat="45.19374" lon="5.95685">
        <ele>1375.2</ele>
        <time>2026-07-14T08:37:45Z</time>
      </trkpt>
      <trkpt lat="45.19373" lon="5.95686">
        <ele>1375.3</ele>
        <time>2026-07-14T08:37:46Z</time>
      </trkpt>
      <trkpt lat="45.19372" lon="5.95686">
        <ele>1375.5</ele>
        <time>2026-07-14T08:37:48Z</time>
      </trkpt>
      <trkpt lat="45.19371" lon="5.95686">
        <ele>1375.8</ele>
        <time>2026-07-14T08:37:50Z</time>
      </trkpt>
      <trkpt lat="45.19371" lon="5.95686">
        <ele>1375.9</ele>
        <time>2026-07-14T08:37:51Z</time>
      </trkpt>
      <trkpt lat="45.1937" lon="5.95687">
        <ele>1376.2</ele>
        <time>2026-07-14T08:37:53Z</time>
      </trkpt>
      <trkpt lat="45.19369" lon="5.95687">
        <ele>1376.3</ele>
        <time>2026-07-14T08:37:54Z</time>
      </trkpt>
      <trkpt lat="45.19369" lon="5.95688">
        <ele>1376.4</ele>
        <time>2026-07-14T08:37:55Z</time>
      </trkpt>
      <trkpt lat="45.19368" lon="5.95688">
        <ele>1376.6</ele>
        <time>2026-07-14T08:37:56Z</time>
      </trkpt>
      <trkpt lat="45.19367" lon="5.95689">
        <ele>1376.9</ele>
        <time>2026-07-14T08:37:58Z</time>
      </trkpt>
      <trkpt lat="45.19366" lon="5.9569">
        <ele>1377</ele>
        <time>2026-07-14T08:38:00Z</time>
      </trkpt>
      <trkpt lat="45.19365" lon="5.95691">
        <ele>1377.3</ele>
        <time>2026-07-14T08:38:01Z</time>
      </trkpt>
      <trkpt lat="45.19365" lon="5.95691">
        <ele>1377.4</ele>
        <time>2026-07-14T08:38:02Z</time>
      </trkpt>
      <trkpt lat="45.19364" lon="5.95691">
        <ele>1377.6</ele>
        <time>2026-07-14T08:38:03Z</time>
      </trkpt>
      <trkpt lat="45.19363" lon="5.95691">
        <ele>1377.7</ele>
        <time>2026-07-14T08:38:04Z</time>
      </trkpt>
      <trkpt lat="45.19363" lon="5.95691">
        <ele>1377.8</ele>
        <time>2026-07-14T08:38:05Z</time>
      </trkpt>
      <trkpt lat="45.19362" lon="5.95691">
        <ele>1378</ele>
        <time>2026-07-14T08:38:06Z</time>
      </trkpt>
      <trkpt lat="45.19361" lon="5.95692">
        <ele>1378.1</ele>
        <time>2026-07-14T08:38:08Z</time>
      </trkpt>
      <trkpt lat="45.19361" lon="5.95692">
        <ele>1378.2</ele>
        <time>2026-07-14T08:38:09Z</time>
      </trkpt>
      <trkpt lat="45.1936" lon="5.95693">
        <ele>1378.5</ele>
        <time>2026-07-14T08:38:10Z</time>
      </trkpt>
      <trkpt lat="45.19358" lon="5.95693">
        <ele>1378.8</ele>
        <time>2026-07-14T08:38:12Z</time>
      </trkpt>
      <trkpt lat="45.19358" lon="5.95694">
        <ele>1378.9</ele>
        <time>2026-07-14T08:38:13Z</time>
      </trkpt>
      <trkpt lat="45.19357" lon="5.95694">
        <ele>1379</ele>
        <time>2026-07-14T08:38:14Z</time>
      </trkpt>
      <trkpt lat="45.19357" lon="5.95694">
        <ele>1379.1</ele>
        <time>2026-07-14T08:38:15Z</time>
      </trkpt>
      <trkpt lat="45.19356" lon="5.95694">
        <ele>1379.2</ele>
        <time>2026-07-14T08:38:17Z</time>
      </trkpt>
      <trkpt lat="45.19355" lon="5.95694">
        <ele>1379.4</ele>
        <time>2026-07-14T08:38:18Z</time>
      </trkpt>
      <trkpt lat="45.19354" lon="5.95695">
        <ele>1379.5</ele>
        <time>2026-07-14T08:38:19Z</time>
      </trkpt>
      <trkpt lat="45.19354" lon="5.95695">
        <ele>1379.6</ele>
        <time>2026-07-14T08:38:20Z</time>
      </trkpt>
      <trkpt lat="45.19353" lon="5.95695">
        <ele>1379.7</ele>
        <time>2026-07-14T08:38:21Z</time>
      </trkpt>
      <trkpt lat="45.19353" lon="5.95696">
        <ele>1379.8</ele>
        <time>2026-07-14T08:38:22Z</time>
      </trkpt>
      <trkpt lat="45.19352" lon="5.95696">
        <ele>1379.9</ele>
        <time>2026-07-14T08:38:23Z</time>
      </trkpt>
      <trkpt lat="45.19351" lon="5.95695">
        <ele>1380.2</ele>
        <time>2026-07-14T08:38:24Z</time>
      </trkpt>
      <trkpt lat="45.19351" lon="5.95696">
        <ele>1380.2</ele>
        <time>2026-07-14T08:38:25Z</time>
      </trkpt>
      <trkpt lat="45.1935" lon="5.95696">
        <ele>1380.3</ele>
        <time>2026-07-14T08:38:26Z</time>
      </trkpt>
      <trkpt lat="45.1935" lon="5.95697">
        <ele>1380.4</ele>
        <time>2026-07-14T08:38:28Z</time>
      </trkpt>
      <trkpt lat="45.1935" lon="5.95697">
        <ele>1380.5</ele>
        <time>2026-07-14T08:38:29Z</time>
      </trkpt>
      <trkpt lat="45.1935" lon="5.95698">
        <ele>1380.6</ele>
        <time>2026-07-14T08:38:30Z</time>
      </trkpt>
      <trkpt lat="45.1935" lon="5.95699">
        <ele>1380.7</ele>
        <time>2026-07-14T08:38:31Z</time>
      </trkpt>
      <trkpt lat="45.1935" lon="5.95699">
        <ele>1380.7</ele>
        <time>2026-07-14T08:38:32Z</time>
      </trkpt>
      <trkpt lat="45.19349" lon="5.95699">
        <ele>1380.8</ele>
        <time>2026-07-14T08:38:33Z</time>
      </trkpt>
      <trkpt lat="45.19348" lon="5.95699">
        <ele>1380.9</ele>
        <time>2026-07-14T08:38:35Z</time>
      </trkpt>
      <trkpt lat="45.19348" lon="5.957">
        <ele>1381</ele>
        <time>2026-07-14T08:38:36Z</time>
      </trkpt>
      <trkpt lat="45.19347" lon="5.957">
        <ele>1381.1</ele>
        <time>2026-07-14T08:38:37Z</time>
      </trkpt>
      <trkpt lat="45.19346" lon="5.957">
        <ele>1381.2</ele>
        <time>2026-07-14T08:38:38Z</time>
      </trkpt>
      <trkpt lat="45.19345" lon="5.95699">
        <ele>1381.3</ele>
        <time>2026-07-14T08:38:39Z</time>
      </trkpt>
      <trkpt lat="45.19345" lon="5.95699">
        <ele>1381.5</ele>
        <time>2026-07-14T08:38:40Z</time>
      </trkpt>
      <trkpt lat="45.19344" lon="5.95699">
        <ele>1381.6</ele>
        <time>2026-07-14T08:38:41Z</time>
      </trkpt>
      <trkpt lat="45.19342" lon="5.95698">
        <ele>1381.8</ele>
        <time>2026-07-14T08:38:43Z</time>
      </trkpt>
      <trkpt lat="45.19341" lon="5.95697">
        <ele>1381.9</ele>
        <time>2026-07-14T08:38:44Z</time>
      </trkpt>
      <trkpt lat="45.19341" lon="5.95697">
        <ele>1382</ele>
        <time>2026-07-14T08:38:45Z</time>
      </trkpt>
      <trkpt lat="45.1934" lon="5.95697">
        <ele>1382.1</ele>
        <time>2026-07-14T08:38:46Z</time>
      </trkpt>
      <trkpt lat="45.19339" lon="5.95696">
        <ele>1382.2</ele>
        <time>2026-07-14T08:38:48Z</time>
      </trkpt>
      <trkpt lat="45.1934" lon="5.95696">
        <ele>1382.2</ele>
        <time>2026-07-14T08:38:49Z</time>
      </trkpt>
      <trkpt lat="45.1934" lon="5.95696">
        <ele>1382.3</ele>
        <time>2026-07-14T08:38:50Z</time>
      </trkpt>
      <trkpt lat="45.1934" lon="5.95696">
        <ele>1382.3</ele>
        <time>2026-07-14T08:38:51Z</time>
      </trkpt>
      <trkpt lat="45.1934" lon="5.95696">
        <ele>1382.3</ele>
        <time>2026-07-14T08:38:52Z</time>
      </trkpt>
      <trkpt lat="45.1934" lon="5.95696">
        <ele>1382.3</ele>
        <time>2026-07-14T08:38:53Z</time>
      </trkpt>
      <trkpt lat="45.1934" lon="5.95696">
        <ele>1382.3</ele>
        <time>2026-07-14T08:38:54Z</time>
      </trkpt>
      <trkpt lat="45.1934" lon="5.95696">
        <ele>1382.3</ele>
        <time>2026-07-14T08:38:55Z</time>
      </trkpt>
      <trkpt lat="45.1934" lon="5.95697">
        <ele>1382.3</ele>
        <time>2026-07-14T08:38:56Z</time>
      </trkpt>
      <trkpt lat="45.1934" lon="5.95696">
        <ele>1382.4</ele>
        <time>2026-07-14T08:38:57Z</time>
      </trkpt>
      <trkpt lat="45.1934" lon="5.95696">
        <ele>1382.4</ele>
        <time>2026-07-14T08:38:58Z</time>
      </trkpt>
      <trkpt lat="45.1934" lon="5.95696">
        <ele>1382.4</ele>
        <time>2026-07-14T08:38:59Z</time>
      </trkpt>
      <trkpt lat="45.1934" lon="5.95696">
        <ele>1382.4</ele>
        <time>2026-07-14T08:39:00Z</time>
      </trkpt>
      <trkpt lat="45.1934" lon="5.95696">
        <ele>1382.4</ele>
        <time>2026-07-14T08:39:01Z</time>
      </trkpt>
      <trkpt lat="45.1934" lon="5.95696">
        <ele>1382.4</ele>
        <time>2026-07-14T08:39:03Z</time>
      </trkpt>
      <trkpt lat="45.19339" lon="5.95696">
        <ele>1382.4</ele>
        <time>2026-07-14T08:39:04Z</time>
      </trkpt>
      <trkpt lat="45.19339" lon="5.95696">
        <ele>1382.4</ele>
        <time>2026-07-14T08:39:05Z</time>
      </trkpt>
      <trkpt lat="45.19339" lon="5.95696">
        <ele>1382.4</ele>
        <time>2026-07-14T08:39:06Z</time>
      </trkpt>
      <trkpt lat="45.19339" lon="5.95696">
        <ele>1382.4</ele>
        <time>2026-07-14T08:39:07Z</time>
      </trkpt>
      <trkpt lat="45.19339" lon="5.95696">
        <ele>1382.4</ele>
        <time>2026-07-14T08:39:08Z</time>
      </trkpt>
      <trkpt lat="45.19339" lon="5.95696">
        <ele>1382.4</ele>
        <time>2026-07-14T08:39:09Z</time>
      </trkpt>
      <trkpt lat="45.19339" lon="5.95696">
        <ele>1382.5</ele>
        <time>2026-07-14T08:39:11Z</time>
      </trkpt>
      <trkpt lat="45.19339" lon="5.95696">
        <ele>1382.5</ele>
        <time>2026-07-14T08:39:12Z</time>
      </trkpt>
      <trkpt lat="45.19339" lon="5.95696">
        <ele>1382.5</ele>
        <time>2026-07-14T08:39:13Z</time>
      </trkpt>
      <trkpt lat="45.19339" lon="5.95696">
        <ele>1382.5</ele>
        <time>2026-07-14T08:39:14Z</time>
      </trkpt>
      <trkpt lat="45.19339" lon="5.95696">
        <ele>1382.5</ele>
        <time>2026-07-14T08:39:15Z</time>
      </trkpt>
      <trkpt lat="45.19339" lon="5.95696">
        <ele>1382.5</ele>
        <time>2026-07-14T08:39:16Z</time>
      </trkpt>
      <trkpt lat="45.19339" lon="5.95696">
        <ele>1382.5</ele>
        <time>2026-07-14T08:39:17Z</time>
      </trkpt>
      <trkpt lat="45.19339" lon="5.95696">
        <ele>1382.5</ele>
        <time>2026-07-14T08:39:18Z</time>
      </trkpt>
      <trkpt lat="45.19339" lon="5.95695">
        <ele>1382.6</ele>
        <time>2026-07-14T08:39:19Z</time>
      </trkpt>
      <trkpt lat="45.19338" lon="5.95695">
        <ele>1382.6</ele>
        <time>2026-07-14T08:39:20Z</time>
      </trkpt>
      <trkpt lat="45.19338" lon="5.95695">
        <ele>1382.6</ele>
        <time>2026-07-14T08:39:21Z</time>
      </trkpt>
      <trkpt lat="45.19338" lon="5.95695">
        <ele>1382.6</ele>
        <time>2026-07-14T08:39:22Z</time>
      </trkpt>
      <trkpt lat="45.19338" lon="5.95695">
        <ele>1382.7</ele>
        <time>2026-07-14T08:39:23Z</time>
      </trkpt>
      <trkpt lat="45.19337" lon="5.95695">
        <ele>1382.7</ele>
        <time>2026-07-14T08:39:24Z</time>
      </trkpt>
      <trkpt lat="45.19336" lon="5.95694">
        <ele>1382.8</ele>
        <time>2026-07-14T08:39:25Z</time>
      </trkpt>
      <trkpt lat="45.19336" lon="5.95694">
        <ele>1382.9</ele>
        <time>2026-07-14T08:39:26Z</time>
      </trkpt>
      <trkpt lat="45.19335" lon="5.95694">
        <ele>1383</ele>
        <time>2026-07-14T08:39:27Z</time>
      </trkpt>
      <trkpt lat="45.19335" lon="5.95693">
        <ele>1383</ele>
        <time>2026-07-14T08:39:28Z</time>
      </trkpt>
      <trkpt lat="45.19334" lon="5.95693">
        <ele>1383.1</ele>
        <time>2026-07-14T08:39:30Z</time>
      </trkpt>
      <trkpt lat="45.19333" lon="5.95693">
        <ele>1383.2</ele>
        <time>2026-07-14T08:39:31Z</time>
      </trkpt>
      <trkpt lat="45.19332" lon="5.95692">
        <ele>1383.3</ele>
        <time>2026-07-14T08:39:32Z</time>
      </trkpt>
      <trkpt lat="45.19332" lon="5.95691">
        <ele>1383.4</ele>
        <time>2026-07-14T08:39:33Z</time>
      </trkpt>
      <trkpt lat="45.19331" lon="5.95691">
        <ele>1383.4</ele>
        <time>2026-07-14T08:39:34Z</time>
      </trkpt>
      <trkpt lat="45.1933" lon="5.9569">
        <ele>1383.5</ele>
        <time>2026-07-14T08:39:35Z</time>
      </trkpt>
      <trkpt lat="45.1933" lon="5.95689">
        <ele>1383.6</ele>
        <time>2026-07-14T08:39:36Z</time>
      </trkpt>
      <trkpt lat="45.19329" lon="5.95688">
        <ele>1383.6</ele>
        <time>2026-07-14T08:39:37Z</time>
      </trkpt>
      <trkpt lat="45.19329" lon="5.95688">
        <ele>1383.7</ele>
        <time>2026-07-14T08:39:38Z</time>
      </trkpt>
      <trkpt lat="45.19328" lon="5.95687">
        <ele>1383.8</ele>
        <time>2026-07-14T08:39:39Z</time>
      </trkpt>
      <trkpt lat="45.19328" lon="5.95687">
        <ele>1383.8</ele>
        <time>2026-07-14T08:39:40Z</time>
      </trkpt>
      <trkpt lat="45.19327" lon="5.95686">
        <ele>1383.9</ele>
        <time>2026-07-14T08:39:41Z</time>
      </trkpt>
      <trkpt lat="45.19327" lon="5.95685">
        <ele>1383.9</ele>
        <time>2026-07-14T08:39:42Z</time>
      </trkpt>
      <trkpt lat="45.19326" lon="5.95685">
        <ele>1384</ele>
        <time>2026-07-14T08:39:43Z</time>
      </trkpt>
      <trkpt lat="45.19325" lon="5.95684">
        <ele>1384.1</ele>
        <time>2026-07-14T08:39:45Z</time>
      </trkpt>
      <trkpt lat="45.19325" lon="5.95684">
        <ele>1384.1</ele>
        <time>2026-07-14T08:39:46Z</time>
      </trkpt>
      <trkpt lat="45.19324" lon="5.95684">
        <ele>1384.1</ele>
        <time>2026-07-14T08:39:47Z</time>
      </trkpt>
      <trkpt lat="45.19324" lon="5.95683">
        <ele>1384.2</ele>
        <time>2026-07-14T08:39:49Z</time>
      </trkpt>
      <trkpt lat="45.19324" lon="5.95682">
        <ele>1384.2</ele>
        <time>2026-07-14T08:39:50Z</time>
      </trkpt>
      <trkpt lat="45.19324" lon="5.95681">
        <ele>1384.3</ele>
        <time>2026-07-14T08:39:51Z</time>
      </trkpt>
      <trkpt lat="45.19324" lon="5.95681">
        <ele>1384.3</ele>
        <time>2026-07-14T08:39:52Z</time>
      </trkpt>
      <trkpt lat="45.19323" lon="5.9568">
        <ele>1384.3</ele>
        <time>2026-07-14T08:39:53Z</time>
      </trkpt>
      <trkpt lat="45.19323" lon="5.95679">
        <ele>1384.4</ele>
        <time>2026-07-14T08:39:54Z</time>
      </trkpt>
      <trkpt lat="45.19323" lon="5.95678">
        <ele>1384.4</ele>
        <time>2026-07-14T08:39:55Z</time>
      </trkpt>
      <trkpt lat="45.19322" lon="5.95676">
        <ele>1384.5</ele>
        <time>2026-07-14T08:39:57Z</time>
      </trkpt>
      <trkpt lat="45.19322" lon="5.95675">
        <ele>1384.6</ele>
        <time>2026-07-14T08:39:58Z</time>
      </trkpt>
      <trkpt lat="45.19322" lon="5.95674">
        <ele>1384.6</ele>
        <time>2026-07-14T08:39:59Z</time>
      </trkpt>
      <trkpt lat="45.19321" lon="5.95673">
        <ele>1384.7</ele>
        <time>2026-07-14T08:40:00Z</time>
      </trkpt>
      <trkpt lat="45.1932" lon="5.95672">
        <ele>1384.7</ele>
        <time>2026-07-14T08:40:02Z</time>
      </trkpt>
      <trkpt lat="45.1932" lon="5.95672">
        <ele>1384.8</ele>
        <time>2026-07-14T08:40:03Z</time>
      </trkpt>
      <trkpt lat="45.19319" lon="5.95672">
        <ele>1384.8</ele>
        <time>2026-07-14T08:40:04Z</time>
      </trkpt>
      <trkpt lat="45.19318" lon="5.95673">
        <ele>1384.8</ele>
        <time>2026-07-14T08:40:05Z</time>
      </trkpt>
      <trkpt lat="45.19317" lon="5.95673">
        <ele>1384.9</ele>
        <time>2026-07-14T08:40:07Z</time>
      </trkpt>
      <trkpt lat="45.19315" lon="5.95674">
        <ele>1385</ele>
        <time>2026-07-14T08:40:09Z</time>
      </trkpt>
      <trkpt lat="45.19313" lon="5.95675">
        <ele>1385.1</ele>
        <time>2026-07-14T08:40:11Z</time>
      </trkpt>
      <trkpt lat="45.19312" lon="5.95676">
        <ele>1385.1</ele>
        <time>2026-07-14T08:40:12Z</time>
      </trkpt>
      <trkpt lat="45.19311" lon="5.95676">
        <ele>1385.2</ele>
        <time>2026-07-14T08:40:13Z</time>
      </trkpt>
      <trkpt lat="45.1931" lon="5.95676">
        <ele>1385.2</ele>
        <time>2026-07-14T08:40:14Z</time>
      </trkpt>
      <trkpt lat="45.19309" lon="5.95677">
        <ele>1385.2</ele>
        <time>2026-07-14T08:40:15Z</time>
      </trkpt>
      <trkpt lat="45.19308" lon="5.95676">
        <ele>1385.3</ele>
        <time>2026-07-14T08:40:16Z</time>
      </trkpt>
      <trkpt lat="45.19308" lon="5.95676">
        <ele>1385.3</ele>
        <time>2026-07-14T08:40:17Z</time>
      </trkpt>
      <trkpt lat="45.19307" lon="5.95676">
        <ele>1385.3</ele>
        <time>2026-07-14T08:40:18Z</time>
      </trkpt>
      <trkpt lat="45.19306" lon="5.95676">
        <ele>1385.3</ele>
        <time>2026-07-14T08:40:19Z</time>
      </trkpt>
      <trkpt lat="45.19305" lon="5.95675">
        <ele>1385.4</ele>
        <time>2026-07-14T08:40:20Z</time>
      </trkpt>
      <trkpt lat="45.19305" lon="5.95675">
        <ele>1385.4</ele>
        <time>2026-07-14T08:40:21Z</time>
      </trkpt>
      <trkpt lat="45.19304" lon="5.95675">
        <ele>1385.4</ele>
        <time>2026-07-14T08:40:22Z</time>
      </trkpt>
      <trkpt lat="45.19303" lon="5.95674">
        <ele>1385.5</ele>
        <time>2026-07-14T08:40:23Z</time>
      </trkpt>
      <trkpt lat="45.19302" lon="5.95674">
        <ele>1385.5</ele>
        <time>2026-07-14T08:40:24Z</time>
      </trkpt>
      <trkpt lat="45.19302" lon="5.95674">
        <ele>1385.5</ele>
        <time>2026-07-14T08:40:25Z</time>
      </trkpt>
      <trkpt lat="45.19301" lon="5.95674">
        <ele>1385.5</ele>
        <time>2026-07-14T08:40:26Z</time>
      </trkpt>
      <trkpt lat="45.193" lon="5.95673">
        <ele>1385.6</ele>
        <time>2026-07-14T08:40:27Z</time>
      </trkpt>
      <trkpt lat="45.19299" lon="5.95673">
        <ele>1385.6</ele>
        <time>2026-07-14T08:40:28Z</time>
      </trkpt>
      <trkpt lat="45.19298" lon="5.95673">
        <ele>1385.6</ele>
        <time>2026-07-14T08:40:29Z</time>
      </trkpt>
      <trkpt lat="45.19298" lon="5.95673">
        <ele>1385.7</ele>
        <time>2026-07-14T08:40:30Z</time>
      </trkpt>
      <trkpt lat="45.19297" lon="5.95673">
        <ele>1385.7</ele>
        <time>2026-07-14T08:40:31Z</time>
      </trkpt>
      <trkpt lat="45.19296" lon="5.95673">
        <ele>1385.7</ele>
        <time>2026-07-14T08:40:32Z</time>
      </trkpt>
      <trkpt lat="45.19296" lon="5.95673">
        <ele>1385.7</ele>
        <time>2026-07-14T08:40:33Z</time>
      </trkpt>
      <trkpt lat="45.19295" lon="5.95673">
        <ele>1385.8</ele>
        <time>2026-07-14T08:40:34Z</time>
      </trkpt>
      <trkpt lat="45.19294" lon="5.95673">
        <ele>1385.8</ele>
        <time>2026-07-14T08:40:35Z</time>
      </trkpt>
      <trkpt lat="45.19294" lon="5.95674">
        <ele>1385.8</ele>
        <time>2026-07-14T08:40:36Z</time>
      </trkpt>
      <trkpt lat="45.19293" lon="5.95674">
        <ele>1385.8</ele>
        <time>2026-07-14T08:40:37Z</time>
      </trkpt>
      <trkpt lat="45.19293" lon="5.95674">
        <ele>1385.9</ele>
        <time>2026-07-14T08:40:38Z</time>
      </trkpt>
      <trkpt lat="45.19292" lon="5.95675">
        <ele>1385.9</ele>
        <time>2026-07-14T08:40:39Z</time>
      </trkpt>
      <trkpt lat="45.19292" lon="5.95675">
        <ele>1385.9</ele>
        <time>2026-07-14T08:40:40Z</time>
      </trkpt>
      <trkpt lat="45.19292" lon="5.95675">
        <ele>1385.9</ele>
        <time>2026-07-14T08:40:41Z</time>
      </trkpt>
      <trkpt lat="45.19291" lon="5.95675">
        <ele>1385.9</ele>
        <time>2026-07-14T08:40:42Z</time>
      </trkpt>
      <trkpt lat="45.19291" lon="5.95675">
        <ele>1385.9</ele>
        <time>2026-07-14T08:40:43Z</time>
      </trkpt>
      <trkpt lat="45.19291" lon="5.95675">
        <ele>1385.9</ele>
        <time>2026-07-14T08:40:44Z</time>
      </trkpt>
      <trkpt lat="45.19291" lon="5.95675">
        <ele>1385.9</ele>
        <time>2026-07-14T08:40:45Z</time>
      </trkpt>
      <trkpt lat="45.19291" lon="5.95675">
        <ele>1385.9</ele>
        <time>2026-07-14T08:40:46Z</time>
      </trkpt>
      <trkpt lat="45.19291" lon="5.95675">
        <ele>1385.9</ele>
        <time>2026-07-14T08:40:47Z</time>
      </trkpt>
      <trkpt lat="45.19291" lon="5.95675">
        <ele>1385.9</ele>
        <time>2026-07-14T08:40:48Z</time>
      </trkpt>
      <trkpt lat="45.1929" lon="5.95675">
        <ele>1386</ele>
        <time>2026-07-14T08:40:49Z</time>
      </trkpt>
      <trkpt lat="45.1929" lon="5.95674">
        <ele>1386</ele>
        <time>2026-07-14T08:40:50Z</time>
      </trkpt>
      <trkpt lat="45.19289" lon="5.95674">
        <ele>1386</ele>
        <time>2026-07-14T08:40:52Z</time>
      </trkpt>
      <trkpt lat="45.19288" lon="5.95673">
        <ele>1386.1</ele>
        <time>2026-07-14T08:40:53Z</time>
      </trkpt>
      <trkpt lat="45.19287" lon="5.95672">
        <ele>1386.1</ele>
        <time>2026-07-14T08:40:54Z</time>
      </trkpt>
      <trkpt lat="45.19287" lon="5.95672">
        <ele>1386.1</ele>
        <time>2026-07-14T08:40:55Z</time>
      </trkpt>
      <trkpt lat="45.19286" lon="5.95671">
        <ele>1386.2</ele>
        <time>2026-07-14T08:40:56Z</time>
      </trkpt>
      <trkpt lat="45.19285" lon="5.9567">
        <ele>1386.2</ele>
        <time>2026-07-14T08:40:57Z</time>
      </trkpt>
      <trkpt lat="45.19284" lon="5.9567">
        <ele>1386.3</ele>
        <time>2026-07-14T08:40:58Z</time>
      </trkpt>
      <trkpt lat="45.19283" lon="5.95669">
        <ele>1386.3</ele>
        <time>2026-07-14T08:41:00Z</time>
      </trkpt>
      <trkpt lat="45.19282" lon="5.95668">
        <ele>1386.3</ele>
        <time>2026-07-14T08:41:01Z</time>
      </trkpt>
      <trkpt lat="45.19282" lon="5.95667">
        <ele>1386.4</ele>
        <time>2026-07-14T08:41:02Z</time>
      </trkpt>
      <trkpt lat="45.19281" lon="5.95666">
        <ele>1386.4</ele>
        <time>2026-07-14T08:41:04Z</time>
      </trkpt>
      <trkpt lat="45.1928" lon="5.95664">
        <ele>1386.5</ele>
        <time>2026-07-14T08:41:06Z</time>
      </trkpt>
      <trkpt lat="45.1928" lon="5.95663">
        <ele>1386.5</ele>
        <time>2026-07-14T08:41:08Z</time>
      </trkpt>
      <trkpt lat="45.19279" lon="5.95662">
        <ele>1386.6</ele>
        <time>2026-07-14T08:41:09Z</time>
      </trkpt>
      <trkpt lat="45.19279" lon="5.95661">
        <ele>1386.6</ele>
        <time>2026-07-14T08:41:10Z</time>
      </trkpt>
      <trkpt lat="45.19279" lon="5.9566">
        <ele>1386.7</ele>
        <time>2026-07-14T08:41:11Z</time>
      </trkpt>
      <trkpt lat="45.19279" lon="5.95659">
        <ele>1386.7</ele>
        <time>2026-07-14T08:41:12Z</time>
      </trkpt>
      <trkpt lat="45.19279" lon="5.95658">
        <ele>1386.7</ele>
        <time>2026-07-14T08:41:13Z</time>
      </trkpt>
      <trkpt lat="45.19279" lon="5.95657">
        <ele>1386.8</ele>
        <time>2026-07-14T08:41:14Z</time>
      </trkpt>
      <trkpt lat="45.19279" lon="5.95656">
        <ele>1386.8</ele>
        <time>2026-07-14T08:41:15Z</time>
      </trkpt>
      <trkpt lat="45.19279" lon="5.95656">
        <ele>1386.8</ele>
        <time>2026-07-14T08:41:16Z</time>
      </trkpt>
      <trkpt lat="45.19279" lon="5.95655">
        <ele>1386.9</ele>
        <time>2026-07-14T08:41:17Z</time>
      </trkpt>
      <trkpt lat="45.19278" lon="5.95654">
        <ele>1386.9</ele>
        <time>2026-07-14T08:41:18Z</time>
      </trkpt>
      <trkpt lat="45.19278" lon="5.95654">
        <ele>1386.9</ele>
        <time>2026-07-14T08:41:19Z</time>
      </trkpt>
      <trkpt lat="45.19278" lon="5.95653">
        <ele>1386.9</ele>
        <time>2026-07-14T08:41:20Z</time>
      </trkpt>
      <trkpt lat="45.19278" lon="5.95653">
        <ele>1387</ele>
        <time>2026-07-14T08:41:21Z</time>
      </trkpt>
      <trkpt lat="45.19278" lon="5.95652">
        <ele>1387</ele>
        <time>2026-07-14T08:41:22Z</time>
      </trkpt>
      <trkpt lat="45.19277" lon="5.95651">
        <ele>1387</ele>
        <time>2026-07-14T08:41:23Z</time>
      </trkpt>
      <trkpt lat="45.19277" lon="5.95651">
        <ele>1387.1</ele>
        <time>2026-07-14T08:41:24Z</time>
      </trkpt>
      <trkpt lat="45.19276" lon="5.9565">
        <ele>1387.1</ele>
        <time>2026-07-14T08:41:25Z</time>
      </trkpt>
      <trkpt lat="45.19276" lon="5.9565">
        <ele>1387.1</ele>
        <time>2026-07-14T08:41:26Z</time>
      </trkpt>
      <trkpt lat="45.19276" lon="5.95649">
        <ele>1387.2</ele>
        <time>2026-07-14T08:41:27Z</time>
      </trkpt>
      <trkpt lat="45.19275" lon="5.95649">
        <ele>1387.2</ele>
        <time>2026-07-14T08:41:28Z</time>
      </trkpt>
      <trkpt lat="45.19274" lon="5.95649">
        <ele>1387.3</ele>
        <time>2026-07-14T08:41:29Z</time>
      </trkpt>
      <trkpt lat="45.19273" lon="5.95649">
        <ele>1387.3</ele>
        <time>2026-07-14T08:41:30Z</time>
      </trkpt>
      <trkpt lat="45.19273" lon="5.95649">
        <ele>1387.4</ele>
        <time>2026-07-14T08:41:31Z</time>
      </trkpt>
      <trkpt lat="45.19272" lon="5.9565">
        <ele>1387.4</ele>
        <time>2026-07-14T08:41:32Z</time>
      </trkpt>
      <trkpt lat="45.19271" lon="5.9565">
        <ele>1387.5</ele>
        <time>2026-07-14T08:41:33Z</time>
      </trkpt>
      <trkpt lat="45.1927" lon="5.9565">
        <ele>1387.6</ele>
        <time>2026-07-14T08:41:35Z</time>
      </trkpt>
      <trkpt lat="45.1927" lon="5.9565">
        <ele>1387.6</ele>
        <time>2026-07-14T08:41:36Z</time>
      </trkpt>
      <trkpt lat="45.19269" lon="5.95651">
        <ele>1387.7</ele>
        <time>2026-07-14T08:41:37Z</time>
      </trkpt>
      <trkpt lat="45.19269" lon="5.95652">
        <ele>1387.8</ele>
        <time>2026-07-14T08:41:38Z</time>
      </trkpt>
      <trkpt lat="45.19268" lon="5.95653">
        <ele>1387.8</ele>
        <time>2026-07-14T08:41:39Z</time>
      </trkpt>
      <trkpt lat="45.19268" lon="5.95653">
        <ele>1387.9</ele>
        <time>2026-07-14T08:41:40Z</time>
      </trkpt>
      <trkpt lat="45.19267" lon="5.95653">
        <ele>1387.9</ele>
        <time>2026-07-14T08:41:41Z</time>
      </trkpt>
      <trkpt lat="45.19266" lon="5.95652">
        <ele>1388</ele>
        <time>2026-07-14T08:41:42Z</time>
      </trkpt>
      <trkpt lat="45.19266" lon="5.95653">
        <ele>1388</ele>
        <time>2026-07-14T08:41:43Z</time>
      </trkpt>
      <trkpt lat="45.19266" lon="5.95653">
        <ele>1388</ele>
        <time>2026-07-14T08:41:44Z</time>
      </trkpt>
      <trkpt lat="45.19266" lon="5.95654">
        <ele>1388.1</ele>
        <time>2026-07-14T08:41:45Z</time>
      </trkpt>
      <trkpt lat="45.19266" lon="5.95655">
        <ele>1388.1</ele>
        <time>2026-07-14T08:41:46Z</time>
      </trkpt>
      <trkpt lat="45.19266" lon="5.95655">
        <ele>1388.2</ele>
        <time>2026-07-14T08:41:47Z</time>
      </trkpt>
      <trkpt lat="45.19266" lon="5.95657">
        <ele>1388.3</ele>
        <time>2026-07-14T08:41:48Z</time>
      </trkpt>
      <trkpt lat="45.19266" lon="5.95658">
        <ele>1388.4</ele>
        <time>2026-07-14T08:41:49Z</time>
      </trkpt>
      <trkpt lat="45.19266" lon="5.95659">
        <ele>1388.4</ele>
        <time>2026-07-14T08:41:50Z</time>
      </trkpt>
      <trkpt lat="45.19267" lon="5.9566">
        <ele>1388.5</ele>
        <time>2026-07-14T08:41:51Z</time>
      </trkpt>
      <trkpt lat="45.19266" lon="5.95661">
        <ele>1388.6</ele>
        <time>2026-07-14T08:41:53Z</time>
      </trkpt>
      <trkpt lat="45.19266" lon="5.95661">
        <ele>1388.6</ele>
        <time>2026-07-14T08:41:54Z</time>
      </trkpt>
      <trkpt lat="45.19266" lon="5.95661">
        <ele>1388.7</ele>
        <time>2026-07-14T08:41:55Z</time>
      </trkpt>
      <trkpt lat="45.19265" lon="5.95662">
        <ele>1388.8</ele>
        <time>2026-07-14T08:41:56Z</time>
      </trkpt>
      <trkpt lat="45.19265" lon="5.95663">
        <ele>1388.8</ele>
        <time>2026-07-14T08:41:57Z</time>
      </trkpt>
      <trkpt lat="45.19265" lon="5.95664">
        <ele>1388.9</ele>
        <time>2026-07-14T08:41:58Z</time>
      </trkpt>
      <trkpt lat="45.19264" lon="5.95664">
        <ele>1389</ele>
        <time>2026-07-14T08:41:59Z</time>
      </trkpt>
      <trkpt lat="45.19264" lon="5.95665">
        <ele>1389.1</ele>
        <time>2026-07-14T08:42:00Z</time>
      </trkpt>
      <trkpt lat="45.19263" lon="5.95665">
        <ele>1389.1</ele>
        <time>2026-07-14T08:42:01Z</time>
      </trkpt>
      <trkpt lat="45.19263" lon="5.95665">
        <ele>1389.1</ele>
        <time>2026-07-14T08:42:02Z</time>
      </trkpt>
      <trkpt lat="45.19263" lon="5.95665">
        <ele>1389.2</ele>
        <time>2026-07-14T08:42:03Z</time>
      </trkpt>
      <trkpt lat="45.19262" lon="5.95665">
        <ele>1389.2</ele>
        <time>2026-07-14T08:42:04Z</time>
      </trkpt>
      <trkpt lat="45.19262" lon="5.95666">
        <ele>1389.3</ele>
        <time>2026-07-14T08:42:06Z</time>
      </trkpt>
      <trkpt lat="45.19262" lon="5.95666">
        <ele>1389.4</ele>
        <time>2026-07-14T08:42:07Z</time>
      </trkpt>
      <trkpt lat="45.19261" lon="5.95667">
        <ele>1389.4</ele>
        <time>2026-07-14T08:42:08Z</time>
      </trkpt>
      <trkpt lat="45.19261" lon="5.95668">
        <ele>1389.6</ele>
        <time>2026-07-14T08:42:10Z</time>
      </trkpt>
      <trkpt lat="45.1926" lon="5.95668">
        <ele>1389.7</ele>
        <time>2026-07-14T08:42:11Z</time>
      </trkpt>
      <trkpt lat="45.1926" lon="5.95668">
        <ele>1389.7</ele>
        <time>2026-07-14T08:42:12Z</time>
      </trkpt>
      <trkpt lat="45.19259" lon="5.95669">
        <ele>1389.8</ele>
        <time>2026-07-14T08:42:13Z</time>
      </trkpt>
      <trkpt lat="45.19259" lon="5.95669">
        <ele>1389.8</ele>
        <time>2026-07-14T08:42:14Z</time>
      </trkpt>
      <trkpt lat="45.19259" lon="5.95669">
        <ele>1389.9</ele>
        <time>2026-07-14T08:42:15Z</time>
      </trkpt>
      <trkpt lat="45.19258" lon="5.95669">
        <ele>1389.9</ele>
        <time>2026-07-14T08:42:16Z</time>
      </trkpt>
      <trkpt lat="45.19258" lon="5.95669">
        <ele>1389.9</ele>
        <time>2026-07-14T08:42:17Z</time>
      </trkpt>
      <trkpt lat="45.19258" lon="5.95669">
        <ele>1390</ele>
        <time>2026-07-14T08:42:18Z</time>
      </trkpt>
      <trkpt lat="45.19258" lon="5.95669">
        <ele>1390</ele>
        <time>2026-07-14T08:42:19Z</time>
      </trkpt>
      <trkpt lat="45.19258" lon="5.95669">
        <ele>1390</ele>
        <time>2026-07-14T08:42:20Z</time>
      </trkpt>
      <trkpt lat="45.19258" lon="5.95669">
        <ele>1390</ele>
        <time>2026-07-14T08:42:21Z</time>
      </trkpt>
      <trkpt lat="45.19257" lon="5.95669">
        <ele>1390.1</ele>
        <time>2026-07-14T08:42:22Z</time>
      </trkpt>
      <trkpt lat="45.19257" lon="5.95669">
        <ele>1390.1</ele>
        <time>2026-07-14T08:42:23Z</time>
      </trkpt>
      <trkpt lat="45.19257" lon="5.95669">
        <ele>1390.1</ele>
        <time>2026-07-14T08:42:24Z</time>
      </trkpt>
      <trkpt lat="45.19257" lon="5.95669">
        <ele>1390.2</ele>
        <time>2026-07-14T08:42:25Z</time>
      </trkpt>
      <trkpt lat="45.19257" lon="5.95669">
        <ele>1390.2</ele>
        <time>2026-07-14T08:42:26Z</time>
      </trkpt>
      <trkpt lat="45.19257" lon="5.95669">
        <ele>1390.2</ele>
        <time>2026-07-14T08:42:27Z</time>
      </trkpt>
      <trkpt lat="45.19256" lon="5.9567">
        <ele>1390.3</ele>
        <time>2026-07-14T08:42:28Z</time>
      </trkpt>
      <trkpt lat="45.19256" lon="5.9567">
        <ele>1390.3</ele>
        <time>2026-07-14T08:42:29Z</time>
      </trkpt>
      <trkpt lat="45.19256" lon="5.9567">
        <ele>1390.4</ele>
        <time>2026-07-14T08:42:30Z</time>
      </trkpt>
      <trkpt lat="45.19256" lon="5.9567">
        <ele>1390.4</ele>
        <time>2026-07-14T08:42:31Z</time>
      </trkpt>
      <trkpt lat="45.19255" lon="5.9567">
        <ele>1390.5</ele>
        <time>2026-07-14T08:42:32Z</time>
      </trkpt>
      <trkpt lat="45.19255" lon="5.9567">
        <ele>1390.5</ele>
        <time>2026-07-14T08:42:33Z</time>
      </trkpt>
      <trkpt lat="45.19255" lon="5.9567">
        <ele>1390.5</ele>
        <time>2026-07-14T08:42:34Z</time>
      </trkpt>
      <trkpt lat="45.19255" lon="5.9567">
        <ele>1390.5</ele>
        <time>2026-07-14T08:42:35Z</time>
      </trkpt>
      <trkpt lat="45.19255" lon="5.9567">
        <ele>1390.6</ele>
        <time>2026-07-14T08:42:36Z</time>
      </trkpt>
      <trkpt lat="45.19254" lon="5.9567">
        <ele>1390.6</ele>
        <time>2026-07-14T08:42:37Z</time>
      </trkpt>
      <trkpt lat="45.19254" lon="5.9567">
        <ele>1390.7</ele>
        <time>2026-07-14T08:42:38Z</time>
      </trkpt>
      <trkpt lat="45.19254" lon="5.9567">
        <ele>1390.8</ele>
        <time>2026-07-14T08:42:39Z</time>
      </trkpt>
      <trkpt lat="45.19253" lon="5.9567">
        <ele>1390.8</ele>
        <time>2026-07-14T08:42:41Z</time>
      </trkpt>
      <trkpt lat="45.19253" lon="5.9567">
        <ele>1390.9</ele>
        <time>2026-07-14T08:42:42Z</time>
      </trkpt>
      <trkpt lat="45.19252" lon="5.9567">
        <ele>1391</ele>
        <time>2026-07-14T08:42:44Z</time>
      </trkpt>
      <trkpt lat="45.19252" lon="5.9567">
        <ele>1391</ele>
        <time>2026-07-14T08:42:45Z</time>
      </trkpt>
      <trkpt lat="45.19252" lon="5.9567">
        <ele>1391.1</ele>
        <time>2026-07-14T08:42:46Z</time>
      </trkpt>
      <trkpt lat="45.19252" lon="5.9567">
        <ele>1391.1</ele>
        <time>2026-07-14T08:42:47Z</time>
      </trkpt>
      <trkpt lat="45.19251" lon="5.9567">
        <ele>1391.2</ele>
        <time>2026-07-14T08:42:48Z</time>
      </trkpt>
      <trkpt lat="45.19251" lon="5.9567">
        <ele>1391.3</ele>
        <time>2026-07-14T08:42:49Z</time>
      </trkpt>
      <trkpt lat="45.1925" lon="5.95671">
        <ele>1391.4</ele>
        <time>2026-07-14T08:42:51Z</time>
      </trkpt>
      <trkpt lat="45.19249" lon="5.95672">
        <ele>1391.6</ele>
        <time>2026-07-14T08:42:52Z</time>
      </trkpt>
      <trkpt lat="45.19249" lon="5.95672">
        <ele>1391.7</ele>
        <time>2026-07-14T08:42:53Z</time>
      </trkpt>
      <trkpt lat="45.19248" lon="5.95672">
        <ele>1391.8</ele>
        <time>2026-07-14T08:42:54Z</time>
      </trkpt>
      <trkpt lat="45.19248" lon="5.95672">
        <ele>1391.9</ele>
        <time>2026-07-14T08:42:55Z</time>
      </trkpt>
      <trkpt lat="45.19247" lon="5.95672">
        <ele>1392</ele>
        <time>2026-07-14T08:42:56Z</time>
      </trkpt>
      <trkpt lat="45.19246" lon="5.95673">
        <ele>1392.2</ele>
        <time>2026-07-14T08:42:57Z</time>
      </trkpt>
      <trkpt lat="45.19245" lon="5.95673">
        <ele>1392.4</ele>
        <time>2026-07-14T08:42:59Z</time>
      </trkpt>
      <trkpt lat="45.19245" lon="5.95674">
        <ele>1392.5</ele>
        <time>2026-07-14T08:43:00Z</time>
      </trkpt>
      <trkpt lat="45.19244" lon="5.95674">
        <ele>1392.6</ele>
        <time>2026-07-14T08:43:01Z</time>
      </trkpt>
      <trkpt lat="45.19244" lon="5.95674">
        <ele>1392.7</ele>
        <time>2026-07-14T08:43:02Z</time>
      </trkpt>
      <trkpt lat="45.19243" lon="5.95675">
        <ele>1392.8</ele>
        <time>2026-07-14T08:43:03Z</time>
      </trkpt>
      <trkpt lat="45.19243" lon="5.95675">
        <ele>1392.9</ele>
        <time>2026-07-14T08:43:04Z</time>
      </trkpt>
      <trkpt lat="45.19242" lon="5.95675">
        <ele>1393</ele>
        <time>2026-07-14T08:43:05Z</time>
      </trkpt>
      <trkpt lat="45.19242" lon="5.95676">
        <ele>1393.1</ele>
        <time>2026-07-14T08:43:06Z</time>
      </trkpt>
      <trkpt lat="45.19242" lon="5.95676">
        <ele>1393.2</ele>
        <time>2026-07-14T08:43:07Z</time>
      </trkpt>
      <trkpt lat="45.19241" lon="5.95677">
        <ele>1393.3</ele>
        <time>2026-07-14T08:43:09Z</time>
      </trkpt>
      <trkpt lat="45.1924" lon="5.95678">
        <ele>1393.6</ele>
        <time>2026-07-14T08:43:10Z</time>
      </trkpt>
      <trkpt lat="45.1924" lon="5.95679">
        <ele>1393.7</ele>
        <time>2026-07-14T08:43:11Z</time>
      </trkpt>
      <trkpt lat="45.19239" lon="5.95679">
        <ele>1393.8</ele>
        <time>2026-07-14T08:43:12Z</time>
      </trkpt>
      <trkpt lat="45.19239" lon="5.9568">
        <ele>1393.9</ele>
        <time>2026-07-14T08:43:13Z</time>
      </trkpt>
      <trkpt lat="45.19239" lon="5.9568">
        <ele>1394</ele>
        <time>2026-07-14T08:43:14Z</time>
      </trkpt>
      <trkpt lat="45.19238" lon="5.95681">
        <ele>1394.2</ele>
        <time>2026-07-14T08:43:15Z</time>
      </trkpt>
      <trkpt lat="45.19238" lon="5.95682">
        <ele>1394.3</ele>
        <time>2026-07-14T08:43:16Z</time>
      </trkpt>
      <trkpt lat="45.19237" lon="5.95683">
        <ele>1394.5</ele>
        <time>2026-07-14T08:43:18Z</time>
      </trkpt>
      <trkpt lat="45.19237" lon="5.95685">
        <ele>1394.8</ele>
        <time>2026-07-14T08:43:20Z</time>
      </trkpt>
      <trkpt lat="45.19237" lon="5.95686">
        <ele>1395</ele>
        <time>2026-07-14T08:43:22Z</time>
      </trkpt>
      <trkpt lat="45.19236" lon="5.95687">
        <ele>1395.1</ele>
        <time>2026-07-14T08:43:23Z</time>
      </trkpt>
      <trkpt lat="45.19236" lon="5.95687">
        <ele>1395.2</ele>
        <time>2026-07-14T08:43:24Z</time>
      </trkpt>
      <trkpt lat="45.19236" lon="5.95688">
        <ele>1395.3</ele>
        <time>2026-07-14T08:43:25Z</time>
      </trkpt>
      <trkpt lat="45.19236" lon="5.95688">
        <ele>1395.3</ele>
        <time>2026-07-14T08:43:26Z</time>
      </trkpt>
      <trkpt lat="45.19236" lon="5.95688">
        <ele>1395.4</ele>
        <time>2026-07-14T08:43:27Z</time>
      </trkpt>
      <trkpt lat="45.19235" lon="5.95689">
        <ele>1395.5</ele>
        <time>2026-07-14T08:43:28Z</time>
      </trkpt>
      <trkpt lat="45.19235" lon="5.95689">
        <ele>1395.6</ele>
        <time>2026-07-14T08:43:30Z</time>
      </trkpt>
      <trkpt lat="45.19235" lon="5.9569">
        <ele>1395.7</ele>
        <time>2026-07-14T08:43:32Z</time>
      </trkpt>
      <trkpt lat="45.19234" lon="5.95691">
        <ele>1395.8</ele>
        <time>2026-07-14T08:43:33Z</time>
      </trkpt>
      <trkpt lat="45.19234" lon="5.95691">
        <ele>1395.9</ele>
        <time>2026-07-14T08:43:34Z</time>
      </trkpt>
      <trkpt lat="45.19233" lon="5.95692">
        <ele>1396</ele>
        <time>2026-07-14T08:43:35Z</time>
      </trkpt>
      <trkpt lat="45.19233" lon="5.95692">
        <ele>1396.1</ele>
        <time>2026-07-14T08:43:36Z</time>
      </trkpt>
      <trkpt lat="45.19233" lon="5.95692">
        <ele>1396.2</ele>
        <time>2026-07-14T08:43:37Z</time>
      </trkpt>
      <trkpt lat="45.19233" lon="5.95693">
        <ele>1396.2</ele>
        <time>2026-07-14T08:43:38Z</time>
      </trkpt>
      <trkpt lat="45.19233" lon="5.95693">
        <ele>1396.3</ele>
        <time>2026-07-14T08:43:39Z</time>
      </trkpt>
      <trkpt lat="45.19233" lon="5.95693">
        <ele>1396.3</ele>
        <time>2026-07-14T08:43:40Z</time>
      </trkpt>
      <trkpt lat="45.19232" lon="5.95694">
        <ele>1396.4</ele>
        <time>2026-07-14T08:43:41Z</time>
      </trkpt>
      <trkpt lat="45.19232" lon="5.95694">
        <ele>1396.4</ele>
        <time>2026-07-14T08:43:42Z</time>
      </trkpt>
      <trkpt lat="45.19232" lon="5.95694">
        <ele>1396.5</ele>
        <time>2026-07-14T08:43:43Z</time>
      </trkpt>
      <trkpt lat="45.19232" lon="5.95695">
        <ele>1396.6</ele>
        <time>2026-07-14T08:43:44Z</time>
      </trkpt>
      <trkpt lat="45.19232" lon="5.95695">
        <ele>1396.6</ele>
        <time>2026-07-14T08:43:45Z</time>
      </trkpt>
      <trkpt lat="45.19232" lon="5.95695">
        <ele>1396.7</ele>
        <time>2026-07-14T08:43:46Z</time>
      </trkpt>
      <trkpt lat="45.19232" lon="5.95695">
        <ele>1396.7</ele>
        <time>2026-07-14T08:43:47Z</time>
      </trkpt>
      <trkpt lat="45.19232" lon="5.95696">
        <ele>1396.7</ele>
        <time>2026-07-14T08:43:48Z</time>
      </trkpt>
      <trkpt lat="45.19232" lon="5.95696">
        <ele>1396.7</ele>
        <time>2026-07-14T08:43:49Z</time>
      </trkpt>
      <trkpt lat="45.19232" lon="5.95696">
        <ele>1396.8</ele>
        <time>2026-07-14T08:43:50Z</time>
      </trkpt>
      <trkpt lat="45.19232" lon="5.95696">
        <ele>1396.8</ele>
        <time>2026-07-14T08:43:51Z</time>
      </trkpt>
      <trkpt lat="45.19232" lon="5.95696">
        <ele>1396.8</ele>
        <time>2026-07-14T08:43:52Z</time>
      </trkpt>
      <trkpt lat="45.19232" lon="5.95696">
        <ele>1396.8</ele>
        <time>2026-07-14T08:43:53Z</time>
      </trkpt>
      <trkpt lat="45.19232" lon="5.95696">
        <ele>1396.8</ele>
        <time>2026-07-14T08:43:54Z</time>
      </trkpt>
      <trkpt lat="45.19232" lon="5.95696">
        <ele>1396.9</ele>
        <time>2026-07-14T08:43:55Z</time>
      </trkpt>
      <trkpt lat="45.19232" lon="5.95698">
        <ele>1397.1</ele>
        <time>2026-07-14T08:43:57Z</time>
      </trkpt>
      <trkpt lat="45.19232" lon="5.95698">
        <ele>1397.1</ele>
        <time>2026-07-14T08:43:58Z</time>
      </trkpt>
      <trkpt lat="45.19231" lon="5.95699">
        <ele>1397.3</ele>
        <time>2026-07-14T08:43:59Z</time>
      </trkpt>
      <trkpt lat="45.19231" lon="5.957">
        <ele>1397.4</ele>
        <time>2026-07-14T08:44:00Z</time>
      </trkpt>
      <trkpt lat="45.19231" lon="5.95701">
        <ele>1397.5</ele>
        <time>2026-07-14T08:44:01Z</time>
      </trkpt>
      <trkpt lat="45.19231" lon="5.95702">
        <ele>1397.7</ele>
        <time>2026-07-14T08:44:02Z</time>
      </trkpt>
      <trkpt lat="45.1923" lon="5.95703">
        <ele>1397.7</ele>
        <time>2026-07-14T08:44:03Z</time>
      </trkpt>
      <trkpt lat="45.1923" lon="5.95704">
        <ele>1397.9</ele>
        <time>2026-07-14T08:44:05Z</time>
      </trkpt>
      <trkpt lat="45.19229" lon="5.95704">
        <ele>1398</ele>
        <time>2026-07-14T08:44:06Z</time>
      </trkpt>
      <trkpt lat="45.19229" lon="5.95704">
        <ele>1398.1</ele>
        <time>2026-07-14T08:44:07Z</time>
      </trkpt>
      <trkpt lat="45.19229" lon="5.95704">
        <ele>1398.2</ele>
        <time>2026-07-14T08:44:08Z</time>
      </trkpt>
      <trkpt lat="45.19228" lon="5.95705">
        <ele>1398.2</ele>
        <time>2026-07-14T08:44:09Z</time>
      </trkpt>
      <trkpt lat="45.19228" lon="5.95705">
        <ele>1398.3</ele>
        <time>2026-07-14T08:44:11Z</time>
      </trkpt>
      <trkpt lat="45.19228" lon="5.95705">
        <ele>1398.3</ele>
        <time>2026-07-14T08:44:13Z</time>
      </trkpt>
      <trkpt lat="45.19228" lon="5.95706">
        <ele>1398.4</ele>
        <time>2026-07-14T08:44:14Z</time>
      </trkpt>
      <trkpt lat="45.19228" lon="5.95706">
        <ele>1398.4</ele>
        <time>2026-07-14T08:44:15Z</time>
      </trkpt>
      <trkpt lat="45.19228" lon="5.95706">
        <ele>1398.5</ele>
        <time>2026-07-14T08:44:16Z</time>
      </trkpt>
      <trkpt lat="45.19227" lon="5.95706">
        <ele>1398.5</ele>
        <time>2026-07-14T08:44:17Z</time>
      </trkpt>
      <trkpt lat="45.19227" lon="5.95708">
        <ele>1398.7</ele>
        <time>2026-07-14T08:44:19Z</time>
      </trkpt>
      <trkpt lat="45.19226" lon="5.95708">
        <ele>1398.9</ele>
        <time>2026-07-14T08:44:20Z</time>
      </trkpt>
      <trkpt lat="45.19225" lon="5.95709">
        <ele>1399</ele>
        <time>2026-07-14T08:44:21Z</time>
      </trkpt>
      <trkpt lat="45.19225" lon="5.9571">
        <ele>1399.1</ele>
        <time>2026-07-14T08:44:22Z</time>
      </trkpt>
      <trkpt lat="45.19224" lon="5.9571">
        <ele>1399.3</ele>
        <time>2026-07-14T08:44:24Z</time>
      </trkpt>
      <trkpt lat="45.19223" lon="5.95711">
        <ele>1399.4</ele>
        <time>2026-07-14T08:44:25Z</time>
      </trkpt>
      <trkpt lat="45.19223" lon="5.95711">
        <ele>1399.5</ele>
        <time>2026-07-14T08:44:26Z</time>
      </trkpt>
      <trkpt lat="45.19222" lon="5.95712">
        <ele>1399.6</ele>
        <time>2026-07-14T08:44:27Z</time>
      </trkpt>
      <trkpt lat="45.19222" lon="5.95712">
        <ele>1399.6</ele>
        <time>2026-07-14T08:44:28Z</time>
      </trkpt>
      <trkpt lat="45.19221" lon="5.95712">
        <ele>1399.7</ele>
        <time>2026-07-14T08:44:29Z</time>
      </trkpt>
      <trkpt lat="45.19221" lon="5.95711">
        <ele>1399.8</ele>
        <time>2026-07-14T08:44:31Z</time>
      </trkpt>
      <trkpt lat="45.1922" lon="5.95711">
        <ele>1400</ele>
        <time>2026-07-14T08:44:32Z</time>
      </trkpt>
      <trkpt lat="45.19219" lon="5.95711">
        <ele>1400.1</ele>
        <time>2026-07-14T08:44:33Z</time>
      </trkpt>
      <trkpt lat="45.19218" lon="5.95711">
        <ele>1400.2</ele>
        <time>2026-07-14T08:44:34Z</time>
      </trkpt>
      <trkpt lat="45.19218" lon="5.95711">
        <ele>1400.3</ele>
        <time>2026-07-14T08:44:35Z</time>
      </trkpt>
      <trkpt lat="45.19217" lon="5.95712">
        <ele>1400.4</ele>
        <time>2026-07-14T08:44:36Z</time>
      </trkpt>
      <trkpt lat="45.19216" lon="5.95712">
        <ele>1400.5</ele>
        <time>2026-07-14T08:44:37Z</time>
      </trkpt>
      <trkpt lat="45.19216" lon="5.95713">
        <ele>1400.6</ele>
        <time>2026-07-14T08:44:38Z</time>
      </trkpt>
      <trkpt lat="45.19215" lon="5.95713">
        <ele>1400.7</ele>
        <time>2026-07-14T08:44:39Z</time>
      </trkpt>
      <trkpt lat="45.19215" lon="5.95714">
        <ele>1400.8</ele>
        <time>2026-07-14T08:44:40Z</time>
      </trkpt>
      <trkpt lat="45.19215" lon="5.95714">
        <ele>1400.8</ele>
        <time>2026-07-14T08:44:41Z</time>
      </trkpt>
      <trkpt lat="45.19215" lon="5.95714">
        <ele>1400.9</ele>
        <time>2026-07-14T08:44:42Z</time>
      </trkpt>
      <trkpt lat="45.19214" lon="5.95715">
        <ele>1401</ele>
        <time>2026-07-14T08:44:44Z</time>
      </trkpt>
      <trkpt lat="45.19214" lon="5.95715">
        <ele>1401</ele>
        <time>2026-07-14T08:44:45Z</time>
      </trkpt>
      <trkpt lat="45.19214" lon="5.95716">
        <ele>1401.1</ele>
        <time>2026-07-14T08:44:46Z</time>
      </trkpt>
      <trkpt lat="45.19213" lon="5.95716">
        <ele>1401.2</ele>
        <time>2026-07-14T08:44:47Z</time>
      </trkpt>
      <trkpt lat="45.19212" lon="5.95717">
        <ele>1401.3</ele>
        <time>2026-07-14T08:44:48Z</time>
      </trkpt>
      <trkpt lat="45.19212" lon="5.95717">
        <ele>1401.4</ele>
        <time>2026-07-14T08:44:49Z</time>
      </trkpt>
      <trkpt lat="45.19211" lon="5.95718">
        <ele>1401.5</ele>
        <time>2026-07-14T08:44:50Z</time>
      </trkpt>
      <trkpt lat="45.19211" lon="5.95719">
        <ele>1401.6</ele>
        <time>2026-07-14T08:44:51Z</time>
      </trkpt>
      <trkpt lat="45.1921" lon="5.95719">
        <ele>1401.7</ele>
        <time>2026-07-14T08:44:52Z</time>
      </trkpt>
      <trkpt lat="45.1921" lon="5.9572">
        <ele>1401.8</ele>
        <time>2026-07-14T08:44:53Z</time>
      </trkpt>
      <trkpt lat="45.19209" lon="5.9572">
        <ele>1401.9</ele>
        <time>2026-07-14T08:44:54Z</time>
      </trkpt>
      <trkpt lat="45.19208" lon="5.95721">
        <ele>1402</ele>
        <time>2026-07-14T08:44:55Z</time>
      </trkpt>
      <trkpt lat="45.19208" lon="5.95721">
        <ele>1402.1</ele>
        <time>2026-07-14T08:44:56Z</time>
      </trkpt>
      <trkpt lat="45.19207" lon="5.95721">
        <ele>1402.2</ele>
        <time>2026-07-14T08:44:57Z</time>
      </trkpt>
      <trkpt lat="45.19207" lon="5.95721">
        <ele>1402.2</ele>
        <time>2026-07-14T08:44:58Z</time>
      </trkpt>
      <trkpt lat="45.19206" lon="5.95721">
        <ele>1402.3</ele>
        <time>2026-07-14T08:45:00Z</time>
      </trkpt>
      <trkpt lat="45.19206" lon="5.95722">
        <ele>1402.4</ele>
        <time>2026-07-14T08:45:01Z</time>
      </trkpt>
      <trkpt lat="45.19206" lon="5.95722">
        <ele>1402.4</ele>
        <time>2026-07-14T08:45:02Z</time>
      </trkpt>
      <trkpt lat="45.19205" lon="5.95722">
        <ele>1402.5</ele>
        <time>2026-07-14T08:45:04Z</time>
      </trkpt>
      <trkpt lat="45.19204" lon="5.95722">
        <ele>1402.6</ele>
        <time>2026-07-14T08:45:05Z</time>
      </trkpt>
      <trkpt lat="45.19203" lon="5.95722">
        <ele>1402.8</ele>
        <time>2026-07-14T08:45:06Z</time>
      </trkpt>
      <trkpt lat="45.19203" lon="5.95722">
        <ele>1402.8</ele>
        <time>2026-07-14T08:45:07Z</time>
      </trkpt>
      <trkpt lat="45.19202" lon="5.95722">
        <ele>1402.9</ele>
        <time>2026-07-14T08:45:08Z</time>
      </trkpt>
      <trkpt lat="45.19202" lon="5.95722">
        <ele>1403</ele>
        <time>2026-07-14T08:45:09Z</time>
      </trkpt>
      <trkpt lat="45.19201" lon="5.95721">
        <ele>1403.1</ele>
        <time>2026-07-14T08:45:10Z</time>
      </trkpt>
      <trkpt lat="45.19201" lon="5.95721">
        <ele>1403.2</ele>
        <time>2026-07-14T08:45:11Z</time>
      </trkpt>
      <trkpt lat="45.192" lon="5.95721">
        <ele>1403.2</ele>
        <time>2026-07-14T08:45:12Z</time>
      </trkpt>
      <trkpt lat="45.192" lon="5.95721">
        <ele>1403.3</ele>
        <time>2026-07-14T08:45:13Z</time>
      </trkpt>
      <trkpt lat="45.192" lon="5.9572">
        <ele>1403.4</ele>
        <time>2026-07-14T08:45:14Z</time>
      </trkpt>
      <trkpt lat="45.19199" lon="5.9572">
        <ele>1403.4</ele>
        <time>2026-07-14T08:45:16Z</time>
      </trkpt>
      <trkpt lat="45.19199" lon="5.9572">
        <ele>1403.5</ele>
        <time>2026-07-14T08:45:17Z</time>
      </trkpt>
      <trkpt lat="45.19199" lon="5.9572">
        <ele>1403.5</ele>
        <time>2026-07-14T08:45:18Z</time>
      </trkpt>
      <trkpt lat="45.19198" lon="5.95719">
        <ele>1403.6</ele>
        <time>2026-07-14T08:45:19Z</time>
      </trkpt>
      <trkpt lat="45.19198" lon="5.95719">
        <ele>1403.7</ele>
        <time>2026-07-14T08:45:20Z</time>
      </trkpt>
      <trkpt lat="45.19197" lon="5.95719">
        <ele>1403.8</ele>
        <time>2026-07-14T08:45:21Z</time>
      </trkpt>
      <trkpt lat="45.19196" lon="5.95718">
        <ele>1403.9</ele>
        <time>2026-07-14T08:45:22Z</time>
      </trkpt>
      <trkpt lat="45.19195" lon="5.95718">
        <ele>1404.1</ele>
        <time>2026-07-14T08:45:24Z</time>
      </trkpt>
      <trkpt lat="45.19194" lon="5.95718">
        <ele>1404.2</ele>
        <time>2026-07-14T08:45:25Z</time>
      </trkpt>
      <trkpt lat="45.19194" lon="5.95718">
        <ele>1404.3</ele>
        <time>2026-07-14T08:45:26Z</time>
      </trkpt>
      <trkpt lat="45.19193" lon="5.95719">
        <ele>1404.3</ele>
        <time>2026-07-14T08:45:27Z</time>
      </trkpt>
      <trkpt lat="45.19193" lon="5.95719">
        <ele>1404.4</ele>
        <time>2026-07-14T08:45:28Z</time>
      </trkpt>
      <trkpt lat="45.19193" lon="5.95721">
        <ele>1404.6</ele>
        <time>2026-07-14T08:45:30Z</time>
      </trkpt>
      <trkpt lat="45.19193" lon="5.95722">
        <ele>1404.7</ele>
        <time>2026-07-14T08:45:31Z</time>
      </trkpt>
      <trkpt lat="45.19193" lon="5.95723">
        <ele>1404.8</ele>
        <time>2026-07-14T08:45:33Z</time>
      </trkpt>
      <trkpt lat="45.19193" lon="5.95724">
        <ele>1404.9</ele>
        <time>2026-07-14T08:45:34Z</time>
      </trkpt>
      <trkpt lat="45.19193" lon="5.95725">
        <ele>1405</ele>
        <time>2026-07-14T08:45:35Z</time>
      </trkpt>
      <trkpt lat="45.19193" lon="5.95725">
        <ele>1405</ele>
        <time>2026-07-14T08:45:36Z</time>
      </trkpt>
      <trkpt lat="45.19192" lon="5.95725">
        <ele>1405.1</ele>
        <time>2026-07-14T08:45:37Z</time>
      </trkpt>
      <trkpt lat="45.19192" lon="5.95726">
        <ele>1405.2</ele>
        <time>2026-07-14T08:45:38Z</time>
      </trkpt>
      <trkpt lat="45.19192" lon="5.95726">
        <ele>1405.2</ele>
        <time>2026-07-14T08:45:39Z</time>
      </trkpt>
      <trkpt lat="45.19191" lon="5.95726">
        <ele>1405.3</ele>
        <time>2026-07-14T08:45:40Z</time>
      </trkpt>
      <trkpt lat="45.19191" lon="5.95727">
        <ele>1405.4</ele>
        <time>2026-07-14T08:45:41Z</time>
      </trkpt>
      <trkpt lat="45.19191" lon="5.95727">
        <ele>1405.4</ele>
        <time>2026-07-14T08:45:42Z</time>
      </trkpt>
      <trkpt lat="45.1919" lon="5.95728">
        <ele>1405.5</ele>
        <time>2026-07-14T08:45:43Z</time>
      </trkpt>
      <trkpt lat="45.1919" lon="5.95728">
        <ele>1405.6</ele>
        <time>2026-07-14T08:45:44Z</time>
      </trkpt>
      <trkpt lat="45.1919" lon="5.95728">
        <ele>1405.6</ele>
        <time>2026-07-14T08:45:46Z</time>
      </trkpt>
      <trkpt lat="45.19189" lon="5.95729">
        <ele>1405.8</ele>
        <time>2026-07-14T08:45:48Z</time>
      </trkpt>
      <trkpt lat="45.19189" lon="5.95729">
        <ele>1405.8</ele>
        <time>2026-07-14T08:45:49Z</time>
      </trkpt>
      <trkpt lat="45.19188" lon="5.9573">
        <ele>1405.9</ele>
        <time>2026-07-14T08:45:50Z</time>
      </trkpt>
      <trkpt lat="45.19188" lon="5.9573">
        <ele>1406</ele>
        <time>2026-07-14T08:45:51Z</time>
      </trkpt>
      <trkpt lat="45.19187" lon="5.9573">
        <ele>1406.1</ele>
        <time>2026-07-14T08:45:52Z</time>
      </trkpt>
      <trkpt lat="45.19187" lon="5.95731">
        <ele>1406.2</ele>
        <time>2026-07-14T08:45:54Z</time>
      </trkpt>
      <trkpt lat="45.19186" lon="5.95731">
        <ele>1406.3</ele>
        <time>2026-07-14T08:45:55Z</time>
      </trkpt>
      <trkpt lat="45.19186" lon="5.95731">
        <ele>1406.3</ele>
        <time>2026-07-14T08:45:57Z</time>
      </trkpt>
      <trkpt lat="45.19185" lon="5.95732">
        <ele>1406.5</ele>
        <time>2026-07-14T08:45:58Z</time>
      </trkpt>
      <trkpt lat="45.19183" lon="5.95732">
        <ele>1406.7</ele>
        <time>2026-07-14T08:46:00Z</time>
      </trkpt>
      <trkpt lat="45.19183" lon="5.95732">
        <ele>1406.8</ele>
        <time>2026-07-14T08:46:01Z</time>
      </trkpt>
      <trkpt lat="45.19182" lon="5.95732">
        <ele>1406.9</ele>
        <time>2026-07-14T08:46:02Z</time>
      </trkpt>
      <trkpt lat="45.19181" lon="5.95732">
        <ele>1407</ele>
        <time>2026-07-14T08:46:03Z</time>
      </trkpt>
      <trkpt lat="45.19181" lon="5.95731">
        <ele>1407.2</ele>
        <time>2026-07-14T08:46:04Z</time>
      </trkpt>
      <trkpt lat="45.1918" lon="5.95731">
        <ele>1407.3</ele>
        <time>2026-07-14T08:46:05Z</time>
      </trkpt>
      <trkpt lat="45.19178" lon="5.95731">
        <ele>1407.6</ele>
        <time>2026-07-14T08:46:07Z</time>
      </trkpt>
      <trkpt lat="45.19178" lon="5.95732">
        <ele>1407.7</ele>
        <time>2026-07-14T08:46:08Z</time>
      </trkpt>
      <trkpt lat="45.19176" lon="5.95734">
        <ele>1407.9</ele>
        <time>2026-07-14T08:46:10Z</time>
      </trkpt>
      <trkpt lat="45.19176" lon="5.95734">
        <ele>1408.1</ele>
        <time>2026-07-14T08:46:11Z</time>
      </trkpt>
      <trkpt lat="45.19175" lon="5.95735">
        <ele>1408.2</ele>
        <time>2026-07-14T08:46:12Z</time>
      </trkpt>
      <trkpt lat="45.19174" lon="5.95735">
        <ele>1408.4</ele>
        <time>2026-07-14T08:46:13Z</time>
      </trkpt>
      <trkpt lat="45.19173" lon="5.95736">
        <ele>1408.6</ele>
        <time>2026-07-14T08:46:15Z</time>
      </trkpt>
      <trkpt lat="45.19172" lon="5.95735">
        <ele>1408.7</ele>
        <time>2026-07-14T08:46:16Z</time>
      </trkpt>
      <trkpt lat="45.19171" lon="5.95735">
        <ele>1408.8</ele>
        <time>2026-07-14T08:46:17Z</time>
      </trkpt>
      <trkpt lat="45.19171" lon="5.95735">
        <ele>1408.9</ele>
        <time>2026-07-14T08:46:18Z</time>
      </trkpt>
      <trkpt lat="45.1917" lon="5.95735">
        <ele>1409</ele>
        <time>2026-07-14T08:46:19Z</time>
      </trkpt>
      <trkpt lat="45.1917" lon="5.95735">
        <ele>1409.1</ele>
        <time>2026-07-14T08:46:21Z</time>
      </trkpt>
      <trkpt lat="45.19169" lon="5.95736">
        <ele>1409.2</ele>
        <time>2026-07-14T08:46:23Z</time>
      </trkpt>
      <trkpt lat="45.19168" lon="5.95736">
        <ele>1409.4</ele>
        <time>2026-07-14T08:46:24Z</time>
      </trkpt>
      <trkpt lat="45.19168" lon="5.95735">
        <ele>1409.5</ele>
        <time>2026-07-14T08:46:26Z</time>
      </trkpt>
      <trkpt lat="45.19167" lon="5.95735">
        <ele>1409.5</ele>
        <time>2026-07-14T08:46:27Z</time>
      </trkpt>
      <trkpt lat="45.19167" lon="5.95734">
        <ele>1409.7</ele>
        <time>2026-07-14T08:46:28Z</time>
      </trkpt>
      <trkpt lat="45.19166" lon="5.95733">
        <ele>1409.9</ele>
        <time>2026-07-14T08:46:30Z</time>
      </trkpt>
      <trkpt lat="45.19166" lon="5.95733">
        <ele>1409.9</ele>
        <time>2026-07-14T08:46:31Z</time>
      </trkpt>
      <trkpt lat="45.19165" lon="5.95733">
        <ele>1410</ele>
        <time>2026-07-14T08:46:32Z</time>
      </trkpt>
      <trkpt lat="45.19165" lon="5.95734">
        <ele>1410</ele>
        <time>2026-07-14T08:46:33Z</time>
      </trkpt>
      <trkpt lat="45.19165" lon="5.95734">
        <ele>1410.1</ele>
        <time>2026-07-14T08:46:34Z</time>
      </trkpt>
      <trkpt lat="45.19165" lon="5.95735">
        <ele>1410.2</ele>
        <time>2026-07-14T08:46:35Z</time>
      </trkpt>
      <trkpt lat="45.19164" lon="5.95735">
        <ele>1410.2</ele>
        <time>2026-07-14T08:46:36Z</time>
      </trkpt>
      <trkpt lat="45.19164" lon="5.95735">
        <ele>1410.3</ele>
        <time>2026-07-14T08:46:37Z</time>
      </trkpt>
      <trkpt lat="45.19164" lon="5.95736">
        <ele>1410.4</ele>
        <time>2026-07-14T08:46:38Z</time>
      </trkpt>
      <trkpt lat="45.19163" lon="5.95736">
        <ele>1410.5</ele>
        <time>2026-07-14T08:46:39Z</time>
      </trkpt>
      <trkpt lat="45.19163" lon="5.95736">
        <ele>1410.6</ele>
        <time>2026-07-14T08:46:40Z</time>
      </trkpt>
      <trkpt lat="45.19162" lon="5.95737">
        <ele>1410.7</ele>
        <time>2026-07-14T08:46:41Z</time>
      </trkpt>
      <trkpt lat="45.19161" lon="5.95737">
        <ele>1410.8</ele>
        <time>2026-07-14T08:46:42Z</time>
      </trkpt>
      <trkpt lat="45.1916" lon="5.95737">
        <ele>1411</ele>
        <time>2026-07-14T08:46:44Z</time>
      </trkpt>
      <trkpt lat="45.1916" lon="5.95737">
        <ele>1411.1</ele>
        <time>2026-07-14T08:46:45Z</time>
      </trkpt>
      <trkpt lat="45.19159" lon="5.95737">
        <ele>1411.2</ele>
        <time>2026-07-14T08:46:46Z</time>
      </trkpt>
      <trkpt lat="45.19159" lon="5.95737">
        <ele>1411.2</ele>
        <time>2026-07-14T08:46:47Z</time>
      </trkpt>
      <trkpt lat="45.19159" lon="5.95736">
        <ele>1411.4</ele>
        <time>2026-07-14T08:46:49Z</time>
      </trkpt>
      <trkpt lat="45.19159" lon="5.95735">
        <ele>1411.4</ele>
        <time>2026-07-14T08:46:50Z</time>
      </trkpt>
      <trkpt lat="45.19158" lon="5.95735">
        <ele>1411.5</ele>
        <time>2026-07-14T08:46:51Z</time>
      </trkpt>
      <trkpt lat="45.19158" lon="5.95734">
        <ele>1411.6</ele>
        <time>2026-07-14T08:46:52Z</time>
      </trkpt>
      <trkpt lat="45.19157" lon="5.95734">
        <ele>1411.7</ele>
        <time>2026-07-14T08:46:54Z</time>
      </trkpt>
      <trkpt lat="45.19157" lon="5.95734">
        <ele>1411.8</ele>
        <time>2026-07-14T08:46:55Z</time>
      </trkpt>
      <trkpt lat="45.19156" lon="5.95734">
        <ele>1412</ele>
        <time>2026-07-14T08:46:57Z</time>
      </trkpt>
      <trkpt lat="45.19155" lon="5.95734">
        <ele>1412.1</ele>
        <time>2026-07-14T08:46:59Z</time>
      </trkpt>
      <trkpt lat="45.19154" lon="5.95735">
        <ele>1412.2</ele>
        <time>2026-07-14T08:47:00Z</time>
      </trkpt>
      <trkpt lat="45.19154" lon="5.95735">
        <ele>1412.4</ele>
        <time>2026-07-14T08:47:02Z</time>
      </trkpt>
      <trkpt lat="45.19153" lon="5.95736">
        <ele>1412.5</ele>
        <time>2026-07-14T08:47:04Z</time>
      </trkpt>
      <trkpt lat="45.19153" lon="5.95737">
        <ele>1412.6</ele>
        <time>2026-07-14T08:47:05Z</time>
      </trkpt>
      <trkpt lat="45.19152" lon="5.95738">
        <ele>1412.8</ele>
        <time>2026-07-14T08:47:06Z</time>
      </trkpt>
      <trkpt lat="45.19151" lon="5.95739">
        <ele>1413.1</ele>
        <time>2026-07-14T08:47:08Z</time>
      </trkpt>
      <trkpt lat="45.1915" lon="5.95739">
        <ele>1413.2</ele>
        <time>2026-07-14T08:47:09Z</time>
      </trkpt>
      <trkpt lat="45.19149" lon="5.9574">
        <ele>1413.3</ele>
        <time>2026-07-14T08:47:10Z</time>
      </trkpt>
      <trkpt lat="45.19149" lon="5.95741">
        <ele>1413.4</ele>
        <time>2026-07-14T08:47:11Z</time>
      </trkpt>
      <trkpt lat="45.19148" lon="5.95741">
        <ele>1413.5</ele>
        <time>2026-07-14T08:47:12Z</time>
      </trkpt>
      <trkpt lat="45.19148" lon="5.95741">
        <ele>1413.6</ele>
        <time>2026-07-14T08:47:13Z</time>
      </trkpt>
      <trkpt lat="45.19148" lon="5.95742">
        <ele>1413.7</ele>
        <time>2026-07-14T08:47:14Z</time>
      </trkpt>
      <trkpt lat="45.19147" lon="5.95743">
        <ele>1413.9</ele>
        <time>2026-07-14T08:47:15Z</time>
      </trkpt>
      <trkpt lat="45.19147" lon="5.95743">
        <ele>1414</ele>
        <time>2026-07-14T08:47:16Z</time>
      </trkpt>
      <trkpt lat="45.19146" lon="5.95744">
        <ele>1414.1</ele>
        <time>2026-07-14T08:47:17Z</time>
      </trkpt>
      <trkpt lat="45.19146" lon="5.95744">
        <ele>1414.2</ele>
        <time>2026-07-14T08:47:18Z</time>
      </trkpt>
      <trkpt lat="45.19145" lon="5.95745">
        <ele>1414.3</ele>
        <time>2026-07-14T08:47:20Z</time>
      </trkpt>
      <trkpt lat="45.19145" lon="5.95745">
        <ele>1414.4</ele>
        <time>2026-07-14T08:47:21Z</time>
      </trkpt>
      <trkpt lat="45.19144" lon="5.95744">
        <ele>1414.5</ele>
        <time>2026-07-14T08:47:22Z</time>
      </trkpt>
      <trkpt lat="45.19144" lon="5.95744">
        <ele>1414.6</ele>
        <time>2026-07-14T08:47:23Z</time>
      </trkpt>
      <trkpt lat="45.19143" lon="5.95744">
        <ele>1414.7</ele>
        <time>2026-07-14T08:47:24Z</time>
      </trkpt>
      <trkpt lat="45.19142" lon="5.95744">
        <ele>1414.9</ele>
        <time>2026-07-14T08:47:26Z</time>
      </trkpt>
      <trkpt lat="45.19142" lon="5.95743">
        <ele>1414.9</ele>
        <time>2026-07-14T08:47:27Z</time>
      </trkpt>
      <trkpt lat="45.19142" lon="5.95743">
        <ele>1415</ele>
        <time>2026-07-14T08:47:28Z</time>
      </trkpt>
      <trkpt lat="45.19141" lon="5.95743">
        <ele>1415.1</ele>
        <time>2026-07-14T08:47:29Z</time>
      </trkpt>
      <trkpt lat="45.19141" lon="5.95743">
        <ele>1415.1</ele>
        <time>2026-07-14T08:47:30Z</time>
      </trkpt>
      <trkpt lat="45.19141" lon="5.95744">
        <ele>1415.2</ele>
        <time>2026-07-14T08:47:31Z</time>
      </trkpt>
      <trkpt lat="45.1914" lon="5.95745">
        <ele>1415.4</ele>
        <time>2026-07-14T08:47:33Z</time>
      </trkpt>
      <trkpt lat="45.19139" lon="5.95745">
        <ele>1415.5</ele>
        <time>2026-07-14T08:47:34Z</time>
      </trkpt>
      <trkpt lat="45.19138" lon="5.95746">
        <ele>1415.7</ele>
        <time>2026-07-14T08:47:36Z</time>
      </trkpt>
      <trkpt lat="45.19138" lon="5.95745">
        <ele>1415.7</ele>
        <time>2026-07-14T08:47:37Z</time>
      </trkpt>
      <trkpt lat="45.19138" lon="5.95745">
        <ele>1415.8</ele>
        <time>2026-07-14T08:47:38Z</time>
      </trkpt>
      <trkpt lat="45.19137" lon="5.95745">
        <ele>1415.9</ele>
        <time>2026-07-14T08:47:39Z</time>
      </trkpt>
      <trkpt lat="45.19137" lon="5.95745">
        <ele>1416</ele>
        <time>2026-07-14T08:47:40Z</time>
      </trkpt>
      <trkpt lat="45.19137" lon="5.95745">
        <ele>1416.1</ele>
        <time>2026-07-14T08:47:41Z</time>
      </trkpt>
      <trkpt lat="45.19136" lon="5.95745">
        <ele>1416.1</ele>
        <time>2026-07-14T08:47:42Z</time>
      </trkpt>
      <trkpt lat="45.19136" lon="5.95745">
        <ele>1416.2</ele>
        <time>2026-07-14T08:47:43Z</time>
      </trkpt>
      <trkpt lat="45.19136" lon="5.95745">
        <ele>1416.3</ele>
        <time>2026-07-14T08:47:44Z</time>
      </trkpt>
      <trkpt lat="45.19135" lon="5.95745">
        <ele>1416.3</ele>
        <time>2026-07-14T08:47:45Z</time>
      </trkpt>
      <trkpt lat="45.19135" lon="5.95745">
        <ele>1416.4</ele>
        <time>2026-07-14T08:47:46Z</time>
      </trkpt>
      <trkpt lat="45.19134" lon="5.95744">
        <ele>1416.5</ele>
        <time>2026-07-14T08:47:47Z</time>
      </trkpt>
      <trkpt lat="45.19134" lon="5.95744">
        <ele>1416.6</ele>
        <time>2026-07-14T08:47:48Z</time>
      </trkpt>
      <trkpt lat="45.19133" lon="5.95744">
        <ele>1416.7</ele>
        <time>2026-07-14T08:47:49Z</time>
      </trkpt>
      <trkpt lat="45.19133" lon="5.95744">
        <ele>1416.8</ele>
        <time>2026-07-14T08:47:51Z</time>
      </trkpt>
      <trkpt lat="45.19132" lon="5.95744">
        <ele>1416.9</ele>
        <time>2026-07-14T08:47:52Z</time>
      </trkpt>
      <trkpt lat="45.19132" lon="5.95743">
        <ele>1417.1</ele>
        <time>2026-07-14T08:47:54Z</time>
      </trkpt>
      <trkpt lat="45.19131" lon="5.95742">
        <ele>1417.2</ele>
        <time>2026-07-14T08:47:55Z</time>
      </trkpt>
      <trkpt lat="45.19131" lon="5.95742">
        <ele>1417.3</ele>
        <time>2026-07-14T08:47:56Z</time>
      </trkpt>
      <trkpt lat="45.1913" lon="5.95741">
        <ele>1417.5</ele>
        <time>2026-07-14T08:47:58Z</time>
      </trkpt>
      <trkpt lat="45.19129" lon="5.95741">
        <ele>1417.6</ele>
        <time>2026-07-14T08:47:59Z</time>
      </trkpt>
      <trkpt lat="45.19129" lon="5.95741">
        <ele>1417.7</ele>
        <time>2026-07-14T08:48:00Z</time>
      </trkpt>
      <trkpt lat="45.19129" lon="5.9574">
        <ele>1417.7</ele>
        <time>2026-07-14T08:48:01Z</time>
      </trkpt>
      <trkpt lat="45.19129" lon="5.9574">
        <ele>1417.8</ele>
        <time>2026-07-14T08:48:03Z</time>
      </trkpt>
      <trkpt lat="45.19128" lon="5.95739">
        <ele>1418</ele>
        <time>2026-07-14T08:48:04Z</time>
      </trkpt>
      <trkpt lat="45.19127" lon="5.95739">
        <ele>1418.2</ele>
        <time>2026-07-14T08:48:06Z</time>
      </trkpt>
      <trkpt lat="45.19126" lon="5.95739">
        <ele>1418.3</ele>
        <time>2026-07-14T08:48:07Z</time>
      </trkpt>
      <trkpt lat="45.19126" lon="5.95738">
        <ele>1418.4</ele>
        <time>2026-07-14T08:48:08Z</time>
      </trkpt>
      <trkpt lat="45.19126" lon="5.95738">
        <ele>1418.5</ele>
        <time>2026-07-14T08:48:09Z</time>
      </trkpt>
      <trkpt lat="45.19125" lon="5.95737">
        <ele>1418.7</ele>
        <time>2026-07-14T08:48:11Z</time>
      </trkpt>
      <trkpt lat="45.19124" lon="5.95737">
        <ele>1418.8</ele>
        <time>2026-07-14T08:48:12Z</time>
      </trkpt>
      <trkpt lat="45.19124" lon="5.95737">
        <ele>1418.9</ele>
        <time>2026-07-14T08:48:14Z</time>
      </trkpt>
      <trkpt lat="45.19123" lon="5.95738">
        <ele>1419</ele>
        <time>2026-07-14T08:48:15Z</time>
      </trkpt>
      <trkpt lat="45.19123" lon="5.95738">
        <ele>1419.1</ele>
        <time>2026-07-14T08:48:16Z</time>
      </trkpt>
      <trkpt lat="45.19123" lon="5.95739">
        <ele>1419.2</ele>
        <time>2026-07-14T08:48:17Z</time>
      </trkpt>
      <trkpt lat="45.19122" lon="5.9574">
        <ele>1419.4</ele>
        <time>2026-07-14T08:48:19Z</time>
      </trkpt>
      <trkpt lat="45.19122" lon="5.95741">
        <ele>1419.5</ele>
        <time>2026-07-14T08:48:20Z</time>
      </trkpt>
      <trkpt lat="45.19122" lon="5.95742">
        <ele>1419.7</ele>
        <time>2026-07-14T08:48:22Z</time>
      </trkpt>
      <trkpt lat="45.19121" lon="5.95743">
        <ele>1419.9</ele>
        <time>2026-07-14T08:48:23Z</time>
      </trkpt>
      <trkpt lat="45.19121" lon="5.95743">
        <ele>1420</ele>
        <time>2026-07-14T08:48:25Z</time>
      </trkpt>
      <trkpt lat="45.1912" lon="5.95744">
        <ele>1420.2</ele>
        <time>2026-07-14T08:48:26Z</time>
      </trkpt>
      <trkpt lat="45.19119" lon="5.95745">
        <ele>1420.4</ele>
        <time>2026-07-14T08:48:27Z</time>
      </trkpt>
      <trkpt lat="45.19119" lon="5.95745">
        <ele>1420.5</ele>
        <time>2026-07-14T08:48:28Z</time>
      </trkpt>
      <trkpt lat="45.19118" lon="5.95745">
        <ele>1420.7</ele>
        <time>2026-07-14T08:48:30Z</time>
      </trkpt>
      <trkpt lat="45.19118" lon="5.95745">
        <ele>1420.8</ele>
        <time>2026-07-14T08:48:31Z</time>
      </trkpt>
      <trkpt lat="45.19117" lon="5.95745">
        <ele>1420.9</ele>
        <time>2026-07-14T08:48:32Z</time>
      </trkpt>
      <trkpt lat="45.19116" lon="5.95746">
        <ele>1421.1</ele>
        <time>2026-07-14T08:48:34Z</time>
      </trkpt>
      <trkpt lat="45.19116" lon="5.95746">
        <ele>1421.2</ele>
        <time>2026-07-14T08:48:35Z</time>
      </trkpt>
      <trkpt lat="45.19116" lon="5.95745">
        <ele>1421.2</ele>
        <time>2026-07-14T08:48:36Z</time>
      </trkpt>
      <trkpt lat="45.19115" lon="5.95745">
        <ele>1421.3</ele>
        <time>2026-07-14T08:48:37Z</time>
      </trkpt>
      <trkpt lat="45.19115" lon="5.95744">
        <ele>1421.5</ele>
        <time>2026-07-14T08:48:39Z</time>
      </trkpt>
      <trkpt lat="45.19115" lon="5.95744">
        <ele>1421.6</ele>
        <time>2026-07-14T08:48:40Z</time>
      </trkpt>
      <trkpt lat="45.19114" lon="5.95743">
        <ele>1421.7</ele>
        <time>2026-07-14T08:48:42Z</time>
      </trkpt>
      <trkpt lat="45.19114" lon="5.95743">
        <ele>1421.8</ele>
        <time>2026-07-14T08:48:43Z</time>
      </trkpt>
      <trkpt lat="45.19114" lon="5.95744">
        <ele>1421.8</ele>
        <time>2026-07-14T08:48:44Z</time>
      </trkpt>
      <trkpt lat="45.19114" lon="5.95744">
        <ele>1421.8</ele>
        <time>2026-07-14T08:48:45Z</time>
      </trkpt>
      <trkpt lat="45.19114" lon="5.95744">
        <ele>1421.9</ele>
        <time>2026-07-14T08:48:46Z</time>
      </trkpt>
      <trkpt lat="45.19114" lon="5.95744">
        <ele>1421.9</ele>
        <time>2026-07-14T08:48:47Z</time>
      </trkpt>
      <trkpt lat="45.19114" lon="5.95744">
        <ele>1421.9</ele>
        <time>2026-07-14T08:48:48Z</time>
      </trkpt>
      <trkpt lat="45.19114" lon="5.95744">
        <ele>1422</ele>
        <time>2026-07-14T08:48:49Z</time>
      </trkpt>
      <trkpt lat="45.19114" lon="5.95744">
        <ele>1422</ele>
        <time>2026-07-14T08:48:50Z</time>
      </trkpt>
      <trkpt lat="45.19114" lon="5.95744">
        <ele>1422</ele>
        <time>2026-07-14T08:48:51Z</time>
      </trkpt>
      <trkpt lat="45.19114" lon="5.95744">
        <ele>1422</ele>
        <time>2026-07-14T08:48:52Z</time>
      </trkpt>
      <trkpt lat="45.19114" lon="5.95744">
        <ele>1422</ele>
        <time>2026-07-14T08:48:53Z</time>
      </trkpt>
      <trkpt lat="45.19114" lon="5.95743">
        <ele>1422.1</ele>
        <time>2026-07-14T08:48:54Z</time>
      </trkpt>
      <trkpt lat="45.19114" lon="5.95743">
        <ele>1422.1</ele>
        <time>2026-07-14T08:48:55Z</time>
      </trkpt>
      <trkpt lat="45.19114" lon="5.95743">
        <ele>1422.3</ele>
        <time>2026-07-14T08:48:56Z</time>
      </trkpt>
      <trkpt lat="45.19113" lon="5.95742">
        <ele>1422.4</ele>
        <time>2026-07-14T08:48:57Z</time>
      </trkpt>
      <trkpt lat="45.19112" lon="5.95742">
        <ele>1422.7</ele>
        <time>2026-07-14T08:48:59Z</time>
      </trkpt>
      <trkpt lat="45.19112" lon="5.95742">
        <ele>1422.8</ele>
        <time>2026-07-14T08:49:00Z</time>
      </trkpt>
      <trkpt lat="45.19111" lon="5.95742">
        <ele>1422.9</ele>
        <time>2026-07-14T08:49:01Z</time>
      </trkpt>
      <trkpt lat="45.1911" lon="5.95742">
        <ele>1423.1</ele>
        <time>2026-07-14T08:49:02Z</time>
      </trkpt>
      <trkpt lat="45.1911" lon="5.95742">
        <ele>1423.2</ele>
        <time>2026-07-14T08:49:03Z</time>
      </trkpt>
      <trkpt lat="45.19109" lon="5.95742">
        <ele>1423.3</ele>
        <time>2026-07-14T08:49:04Z</time>
      </trkpt>
      <trkpt lat="45.19109" lon="5.95741">
        <ele>1423.5</ele>
        <time>2026-07-14T08:49:06Z</time>
      </trkpt>
      <trkpt lat="45.19108" lon="5.9574">
        <ele>1423.7</ele>
        <time>2026-07-14T08:49:08Z</time>
      </trkpt>
      <trkpt lat="45.19108" lon="5.9574">
        <ele>1423.8</ele>
        <time>2026-07-14T08:49:09Z</time>
      </trkpt>
      <trkpt lat="45.19107" lon="5.95739">
        <ele>1423.9</ele>
        <time>2026-07-14T08:49:10Z</time>
      </trkpt>
      <trkpt lat="45.19107" lon="5.95739">
        <ele>1424</ele>
        <time>2026-07-14T08:49:11Z</time>
      </trkpt>
      <trkpt lat="45.19107" lon="5.95738">
        <ele>1424.1</ele>
        <time>2026-07-14T08:49:12Z</time>
      </trkpt>
      <trkpt lat="45.19107" lon="5.95738">
        <ele>1424.2</ele>
        <time>2026-07-14T08:49:13Z</time>
      </trkpt>
      <trkpt lat="45.19107" lon="5.95737">
        <ele>1424.3</ele>
        <time>2026-07-14T08:49:14Z</time>
      </trkpt>
      <trkpt lat="45.19107" lon="5.95737">
        <ele>1424.3</ele>
        <time>2026-07-14T08:49:15Z</time>
      </trkpt>
      <trkpt lat="45.19106" lon="5.95737">
        <ele>1424.4</ele>
        <time>2026-07-14T08:49:16Z</time>
      </trkpt>
      <trkpt lat="45.19106" lon="5.95736">
        <ele>1424.6</ele>
        <time>2026-07-14T08:49:17Z</time>
      </trkpt>
      <trkpt lat="45.19106" lon="5.95735">
        <ele>1424.8</ele>
        <time>2026-07-14T08:49:18Z</time>
      </trkpt>
      <trkpt lat="45.19105" lon="5.95734">
        <ele>1425</ele>
        <time>2026-07-14T08:49:20Z</time>
      </trkpt>
      <trkpt lat="45.19105" lon="5.95733">
        <ele>1425.1</ele>
        <time>2026-07-14T08:49:21Z</time>
      </trkpt>
      <trkpt lat="45.19105" lon="5.95733">
        <ele>1425.1</ele>
        <time>2026-07-14T08:49:22Z</time>
      </trkpt>
      <trkpt lat="45.19105" lon="5.95733">
        <ele>1425.2</ele>
        <time>2026-07-14T08:49:24Z</time>
      </trkpt>
      <trkpt lat="45.19105" lon="5.95733">
        <ele>1425.2</ele>
        <time>2026-07-14T08:49:25Z</time>
      </trkpt>
      <trkpt lat="45.19105" lon="5.95733">
        <ele>1425.2</ele>
        <time>2026-07-14T08:49:26Z</time>
      </trkpt>
      <trkpt lat="45.19104" lon="5.95732">
        <ele>1425.3</ele>
        <time>2026-07-14T08:49:27Z</time>
      </trkpt>
      <trkpt lat="45.19104" lon="5.95733">
        <ele>1425.4</ele>
        <time>2026-07-14T08:49:29Z</time>
      </trkpt>
      <trkpt lat="45.19104" lon="5.95733">
        <ele>1425.4</ele>
        <time>2026-07-14T08:49:30Z</time>
      </trkpt>
      <trkpt lat="45.19103" lon="5.95733">
        <ele>1425.5</ele>
        <time>2026-07-14T08:49:31Z</time>
      </trkpt>
      <trkpt lat="45.19103" lon="5.95733">
        <ele>1425.6</ele>
        <time>2026-07-14T08:49:32Z</time>
      </trkpt>
      <trkpt lat="45.19102" lon="5.95734">
        <ele>1425.9</ele>
        <time>2026-07-14T08:49:34Z</time>
      </trkpt>
      <trkpt lat="45.19102" lon="5.95734">
        <ele>1426</ele>
        <time>2026-07-14T08:49:35Z</time>
      </trkpt>
      <trkpt lat="45.19101" lon="5.95734">
        <ele>1426.1</ele>
        <time>2026-07-14T08:49:36Z</time>
      </trkpt>
      <trkpt lat="45.19101" lon="5.95734">
        <ele>1426.2</ele>
        <time>2026-07-14T08:49:37Z</time>
      </trkpt>
      <trkpt lat="45.191" lon="5.95735">
        <ele>1426.4</ele>
        <time>2026-07-14T08:49:39Z</time>
      </trkpt>
      <trkpt lat="45.19099" lon="5.95735">
        <ele>1426.5</ele>
        <time>2026-07-14T08:49:40Z</time>
      </trkpt>
      <trkpt lat="45.19099" lon="5.95735">
        <ele>1426.6</ele>
        <time>2026-07-14T08:49:41Z</time>
      </trkpt>
      <trkpt lat="45.19099" lon="5.95735">
        <ele>1426.6</ele>
        <time>2026-07-14T08:49:42Z</time>
      </trkpt>
      <trkpt lat="45.19099" lon="5.95735">
        <ele>1426.7</ele>
        <time>2026-07-14T08:49:43Z</time>
      </trkpt>
      <trkpt lat="45.19099" lon="5.95735">
        <ele>1426.7</ele>
        <time>2026-07-14T08:49:44Z</time>
      </trkpt>
      <trkpt lat="45.19099" lon="5.95735">
        <ele>1426.7</ele>
        <time>2026-07-14T08:49:46Z</time>
      </trkpt>
      <trkpt lat="45.19099" lon="5.95735">
        <ele>1426.8</ele>
        <time>2026-07-14T08:49:47Z</time>
      </trkpt>
      <trkpt lat="45.19099" lon="5.95735">
        <ele>1426.9</ele>
        <time>2026-07-14T08:49:48Z</time>
      </trkpt>
      <trkpt lat="45.19098" lon="5.95735">
        <ele>1427</ele>
        <time>2026-07-14T08:49:49Z</time>
      </trkpt>
      <trkpt lat="45.19097" lon="5.95735">
        <ele>1427.2</ele>
        <time>2026-07-14T08:49:51Z</time>
      </trkpt>
      <trkpt lat="45.19096" lon="5.95735">
        <ele>1427.6</ele>
        <time>2026-07-14T08:49:52Z</time>
      </trkpt>
      <trkpt lat="45.19094" lon="5.95735">
        <ele>1428</ele>
        <time>2026-07-14T08:49:54Z</time>
      </trkpt>
      <trkpt lat="45.19093" lon="5.95736">
        <ele>1428.2</ele>
        <time>2026-07-14T08:49:56Z</time>
      </trkpt>
      <trkpt lat="45.19092" lon="5.95735">
        <ele>1428.5</ele>
        <time>2026-07-14T08:49:58Z</time>
      </trkpt>
      <trkpt lat="45.19092" lon="5.95735">
        <ele>1428.6</ele>
        <time>2026-07-14T08:49:59Z</time>
      </trkpt>
      <trkpt lat="45.19091" lon="5.95735">
        <ele>1428.7</ele>
        <time>2026-07-14T08:50:00Z</time>
      </trkpt>
      <trkpt lat="45.19091" lon="5.95735">
        <ele>1428.8</ele>
        <time>2026-07-14T08:50:01Z</time>
      </trkpt>
      <trkpt lat="45.1909" lon="5.95735">
        <ele>1429</ele>
        <time>2026-07-14T08:50:02Z</time>
      </trkpt>
      <trkpt lat="45.1909" lon="5.95735">
        <ele>1429.1</ele>
        <time>2026-07-14T08:50:03Z</time>
      </trkpt>
      <trkpt lat="45.19089" lon="5.95735">
        <ele>1429.2</ele>
        <time>2026-07-14T08:50:04Z</time>
      </trkpt>
      <trkpt lat="45.19089" lon="5.95735">
        <ele>1429.3</ele>
        <time>2026-07-14T08:50:05Z</time>
      </trkpt>
      <trkpt lat="45.19088" lon="5.95736">
        <ele>1429.4</ele>
        <time>2026-07-14T08:50:07Z</time>
      </trkpt>
      <trkpt lat="45.19087" lon="5.95736">
        <ele>1429.7</ele>
        <time>2026-07-14T08:50:08Z</time>
      </trkpt>
      <trkpt lat="45.19087" lon="5.95736">
        <ele>1429.9</ele>
        <time>2026-07-14T08:50:09Z</time>
      </trkpt>
      <trkpt lat="45.19086" lon="5.95736">
        <ele>1430</ele>
        <time>2026-07-14T08:50:10Z</time>
      </trkpt>
      <trkpt lat="45.19086" lon="5.95736">
        <ele>1430.1</ele>
        <time>2026-07-14T08:50:11Z</time>
      </trkpt>
      <trkpt lat="45.19086" lon="5.95736">
        <ele>1430.1</ele>
        <time>2026-07-14T08:50:12Z</time>
      </trkpt>
      <trkpt lat="45.19086" lon="5.95735">
        <ele>1430.2</ele>
        <time>2026-07-14T08:50:13Z</time>
      </trkpt>
      <trkpt lat="45.19086" lon="5.95735">
        <ele>1430.3</ele>
        <time>2026-07-14T08:50:14Z</time>
      </trkpt>
      <trkpt lat="45.19086" lon="5.95734">
        <ele>1430.5</ele>
        <time>2026-07-14T08:50:15Z</time>
      </trkpt>
      <trkpt lat="45.19086" lon="5.95734">
        <ele>1430.6</ele>
        <time>2026-07-14T08:50:16Z</time>
      </trkpt>
      <trkpt lat="45.19086" lon="5.95733">
        <ele>1430.6</ele>
        <time>2026-07-14T08:50:17Z</time>
      </trkpt>
      <trkpt lat="45.19086" lon="5.95733">
        <ele>1430.7</ele>
        <time>2026-07-14T08:50:18Z</time>
      </trkpt>
      <trkpt lat="45.19087" lon="5.95733">
        <ele>1430.8</ele>
        <time>2026-07-14T08:50:19Z</time>
      </trkpt>
      <trkpt lat="45.19086" lon="5.95732">
        <ele>1430.9</ele>
        <time>2026-07-14T08:50:20Z</time>
      </trkpt>
      <trkpt lat="45.19087" lon="5.95732">
        <ele>1430.9</ele>
        <time>2026-07-14T08:50:21Z</time>
      </trkpt>
      <trkpt lat="45.19087" lon="5.95732">
        <ele>1431</ele>
        <time>2026-07-14T08:50:23Z</time>
      </trkpt>
      <trkpt lat="45.19087" lon="5.95731">
        <ele>1431.1</ele>
        <time>2026-07-14T08:50:24Z</time>
      </trkpt>
      <trkpt lat="45.19087" lon="5.95731">
        <ele>1431.2</ele>
        <time>2026-07-14T08:50:25Z</time>
      </trkpt>
      <trkpt lat="45.19088" lon="5.95729">
        <ele>1431.6</ele>
        <time>2026-07-14T08:50:27Z</time>
      </trkpt>
      <trkpt lat="45.19088" lon="5.95728">
        <ele>1431.7</ele>
        <time>2026-07-14T08:50:28Z</time>
      </trkpt>
      <trkpt lat="45.19088" lon="5.95728">
        <ele>1431.8</ele>
        <time>2026-07-14T08:50:29Z</time>
      </trkpt>
      <trkpt lat="45.19088" lon="5.95727">
        <ele>1431.9</ele>
        <time>2026-07-14T08:50:31Z</time>
      </trkpt>
      <trkpt lat="45.19088" lon="5.95726">
        <ele>1432.1</ele>
        <time>2026-07-14T08:50:32Z</time>
      </trkpt>
      <trkpt lat="45.19088" lon="5.95726">
        <ele>1432.2</ele>
        <time>2026-07-14T08:50:33Z</time>
      </trkpt>
      <trkpt lat="45.19087" lon="5.95725">
        <ele>1432.3</ele>
        <time>2026-07-14T08:50:34Z</time>
      </trkpt>
      <trkpt lat="45.19087" lon="5.95725">
        <ele>1432.4</ele>
        <time>2026-07-14T08:50:35Z</time>
      </trkpt>
      <trkpt lat="45.19087" lon="5.95725">
        <ele>1432.5</ele>
        <time>2026-07-14T08:50:36Z</time>
      </trkpt>
      <trkpt lat="45.19086" lon="5.95725">
        <ele>1432.6</ele>
        <time>2026-07-14T08:50:37Z</time>
      </trkpt>
      <trkpt lat="45.19085" lon="5.95726">
        <ele>1432.9</ele>
        <time>2026-07-14T08:50:39Z</time>
      </trkpt>
      <trkpt lat="45.19085" lon="5.95727">
        <ele>1433</ele>
        <time>2026-07-14T08:50:40Z</time>
      </trkpt>
      <trkpt lat="45.19085" lon="5.95727">
        <ele>1433.1</ele>
        <time>2026-07-14T08:50:41Z</time>
      </trkpt>
      <trkpt lat="45.19084" lon="5.95728">
        <ele>1433.3</ele>
        <time>2026-07-14T08:50:43Z</time>
      </trkpt>
      <trkpt lat="45.19084" lon="5.95728">
        <ele>1433.4</ele>
        <time>2026-07-14T08:50:44Z</time>
      </trkpt>
      <trkpt lat="45.19083" lon="5.95728">
        <ele>1433.5</ele>
        <time>2026-07-14T08:50:45Z</time>
      </trkpt>
      <trkpt lat="45.19083" lon="5.95728">
        <ele>1433.6</ele>
        <time>2026-07-14T08:50:46Z</time>
      </trkpt>
      <trkpt lat="45.19082" lon="5.95729">
        <ele>1433.7</ele>
        <time>2026-07-14T08:50:47Z</time>
      </trkpt>
      <trkpt lat="45.19082" lon="5.95729">
        <ele>1433.8</ele>
        <time>2026-07-14T08:50:48Z</time>
      </trkpt>
      <trkpt lat="45.19082" lon="5.95729">
        <ele>1433.8</ele>
        <time>2026-07-14T08:50:49Z</time>
      </trkpt>
      <trkpt lat="45.19082" lon="5.95729">
        <ele>1433.8</ele>
        <time>2026-07-14T08:50:50Z</time>
      </trkpt>
      <trkpt lat="45.19082" lon="5.95729">
        <ele>1433.9</ele>
        <time>2026-07-14T08:50:51Z</time>
      </trkpt>
      <trkpt lat="45.19081" lon="5.9573">
        <ele>1434.2</ele>
        <time>2026-07-14T08:50:53Z</time>
      </trkpt>
      <trkpt lat="45.1908" lon="5.9573">
        <ele>1434.3</ele>
        <time>2026-07-14T08:50:54Z</time>
      </trkpt>
      <trkpt lat="45.1908" lon="5.9573">
        <ele>1434.4</ele>
        <time>2026-07-14T08:50:55Z</time>
      </trkpt>
      <trkpt lat="45.19079" lon="5.9573">
        <ele>1434.5</ele>
        <time>2026-07-14T08:50:56Z</time>
      </trkpt>
      <trkpt lat="45.19079" lon="5.9573">
        <ele>1434.6</ele>
        <time>2026-07-14T08:50:58Z</time>
      </trkpt>
      <trkpt lat="45.19078" lon="5.9573">
        <ele>1434.8</ele>
        <time>2026-07-14T08:51:00Z</time>
      </trkpt>
      <trkpt lat="45.19078" lon="5.9573">
        <ele>1434.8</ele>
        <time>2026-07-14T08:51:01Z</time>
      </trkpt>
      <trkpt lat="45.19078" lon="5.9573">
        <ele>1434.9</ele>
        <time>2026-07-14T08:51:02Z</time>
      </trkpt>
      <trkpt lat="45.19078" lon="5.9573">
        <ele>1434.9</ele>
        <time>2026-07-14T08:51:03Z</time>
      </trkpt>
      <trkpt lat="45.19077" lon="5.9573">
        <ele>1435</ele>
        <time>2026-07-14T08:51:04Z</time>
      </trkpt>
      <trkpt lat="45.19077" lon="5.9573">
        <ele>1435.1</ele>
        <time>2026-07-14T08:51:05Z</time>
      </trkpt>
      <trkpt lat="45.19077" lon="5.95729">
        <ele>1435.2</ele>
        <time>2026-07-14T08:51:06Z</time>
      </trkpt>
      <trkpt lat="45.19076" lon="5.95729">
        <ele>1435.4</ele>
        <time>2026-07-14T08:51:07Z</time>
      </trkpt>
      <trkpt lat="45.19076" lon="5.95729">
        <ele>1435.5</ele>
        <time>2026-07-14T08:51:08Z</time>
      </trkpt>
      <trkpt lat="45.19076" lon="5.95729">
        <ele>1435.5</ele>
        <time>2026-07-14T08:51:09Z</time>
      </trkpt>
      <trkpt lat="45.19075" lon="5.95729">
        <ele>1435.6</ele>
        <time>2026-07-14T08:51:10Z</time>
      </trkpt>
      <trkpt lat="45.19075" lon="5.95729">
        <ele>1435.6</ele>
        <time>2026-07-14T08:51:11Z</time>
      </trkpt>
      <trkpt lat="45.19075" lon="5.95729">
        <ele>1435.6</ele>
        <time>2026-07-14T08:51:12Z</time>
      </trkpt>
      <trkpt lat="45.19075" lon="5.95729">
        <ele>1435.7</ele>
        <time>2026-07-14T08:51:13Z</time>
      </trkpt>
      <trkpt lat="45.19075" lon="5.95729">
        <ele>1435.7</ele>
        <time>2026-07-14T08:51:14Z</time>
      </trkpt>
      <trkpt lat="45.19074" lon="5.95728">
        <ele>1435.9</ele>
        <time>2026-07-14T08:51:15Z</time>
      </trkpt>
      <trkpt lat="45.19074" lon="5.95728">
        <ele>1435.9</ele>
        <time>2026-07-14T08:51:16Z</time>
      </trkpt>
      <trkpt lat="45.19074" lon="5.95728">
        <ele>1436</ele>
        <time>2026-07-14T08:51:17Z</time>
      </trkpt>
      <trkpt lat="45.19073" lon="5.95728">
        <ele>1436.1</ele>
        <time>2026-07-14T08:51:18Z</time>
      </trkpt>
      <trkpt lat="45.19073" lon="5.95728">
        <ele>1436.2</ele>
        <time>2026-07-14T08:51:19Z</time>
      </trkpt>
      <trkpt lat="45.19073" lon="5.95728">
        <ele>1436.3</ele>
        <time>2026-07-14T08:51:20Z</time>
      </trkpt>
      <trkpt lat="45.19072" lon="5.95728">
        <ele>1436.5</ele>
        <time>2026-07-14T08:51:22Z</time>
      </trkpt>
      <trkpt lat="45.19071" lon="5.95728">
        <ele>1436.6</ele>
        <time>2026-07-14T08:51:23Z</time>
      </trkpt>
      <trkpt lat="45.19071" lon="5.95728">
        <ele>1436.8</ele>
        <time>2026-07-14T08:51:25Z</time>
      </trkpt>
      <trkpt lat="45.1907" lon="5.95727">
        <ele>1436.9</ele>
        <time>2026-07-14T08:51:26Z</time>
      </trkpt>
      <trkpt lat="45.1907" lon="5.95727">
        <ele>1437</ele>
        <time>2026-07-14T08:51:27Z</time>
      </trkpt>
      <trkpt lat="45.19069" lon="5.95727">
        <ele>1437.1</ele>
        <time>2026-07-14T08:51:28Z</time>
      </trkpt>
      <trkpt lat="45.19069" lon="5.95726">
        <ele>1437.3</ele>
        <time>2026-07-14T08:51:29Z</time>
      </trkpt>
      <trkpt lat="45.19069" lon="5.95724">
        <ele>1437.6</ele>
        <time>2026-07-14T08:51:31Z</time>
      </trkpt>
      <trkpt lat="45.19069" lon="5.95723">
        <ele>1437.7</ele>
        <time>2026-07-14T08:51:32Z</time>
      </trkpt>
      <trkpt lat="45.1907" lon="5.95723">
        <ele>1437.9</ele>
        <time>2026-07-14T08:51:33Z</time>
      </trkpt>
      <trkpt lat="45.1907" lon="5.95722">
        <ele>1438</ele>
        <time>2026-07-14T08:51:34Z</time>
      </trkpt>
      <trkpt lat="45.19071" lon="5.95721">
        <ele>1438.3</ele>
        <time>2026-07-14T08:51:35Z</time>
      </trkpt>
      <trkpt lat="45.19071" lon="5.9572">
        <ele>1438.5</ele>
        <time>2026-07-14T08:51:36Z</time>
      </trkpt>
      <trkpt lat="45.19071" lon="5.95719">
        <ele>1438.7</ele>
        <time>2026-07-14T08:51:37Z</time>
      </trkpt>
      <trkpt lat="45.19072" lon="5.95718">
        <ele>1438.9</ele>
        <time>2026-07-14T08:51:38Z</time>
      </trkpt>
      <trkpt lat="45.19072" lon="5.95717">
        <ele>1439</ele>
        <time>2026-07-14T08:51:39Z</time>
      </trkpt>
      <trkpt lat="45.19072" lon="5.95716">
        <ele>1439.1</ele>
        <time>2026-07-14T08:51:40Z</time>
      </trkpt>
      <trkpt lat="45.19072" lon="5.95716">
        <ele>1439.3</ele>
        <time>2026-07-14T08:51:41Z</time>
      </trkpt>
      <trkpt lat="45.19072" lon="5.95716">
        <ele>1439.3</ele>
        <time>2026-07-14T08:51:42Z</time>
      </trkpt>
      <trkpt lat="45.19073" lon="5.95715">
        <ele>1439.5</ele>
        <time>2026-07-14T08:51:43Z</time>
      </trkpt>
      <trkpt lat="45.19073" lon="5.95714">
        <ele>1439.6</ele>
        <time>2026-07-14T08:51:44Z</time>
      </trkpt>
      <trkpt lat="45.19073" lon="5.95714">
        <ele>1439.7</ele>
        <time>2026-07-14T08:51:45Z</time>
      </trkpt>
      <trkpt lat="45.19073" lon="5.95712">
        <ele>1440</ele>
        <time>2026-07-14T08:51:47Z</time>
      </trkpt>
      <trkpt lat="45.19073" lon="5.95712">
        <ele>1440.1</ele>
        <time>2026-07-14T08:51:48Z</time>
      </trkpt>
      <trkpt lat="45.19072" lon="5.95711">
        <ele>1440.4</ele>
        <time>2026-07-14T08:51:49Z</time>
      </trkpt>
      <trkpt lat="45.19071" lon="5.95711">
        <ele>1440.6</ele>
        <time>2026-07-14T08:51:50Z</time>
      </trkpt>
      <trkpt lat="45.19071" lon="5.95711">
        <ele>1440.7</ele>
        <time>2026-07-14T08:51:51Z</time>
      </trkpt>
      <trkpt lat="45.1907" lon="5.95711">
        <ele>1440.8</ele>
        <time>2026-07-14T08:51:52Z</time>
      </trkpt>
      <trkpt lat="45.1907" lon="5.9571">
        <ele>1440.9</ele>
        <time>2026-07-14T08:51:53Z</time>
      </trkpt>
      <trkpt lat="45.1907" lon="5.9571">
        <ele>1441</ele>
        <time>2026-07-14T08:51:54Z</time>
      </trkpt>
      <trkpt lat="45.19069" lon="5.9571">
        <ele>1441.2</ele>
        <time>2026-07-14T08:51:55Z</time>
      </trkpt>
      <trkpt lat="45.19069" lon="5.9571">
        <ele>1441.3</ele>
        <time>2026-07-14T08:51:56Z</time>
      </trkpt>
      <trkpt lat="45.19068" lon="5.9571">
        <ele>1441.4</ele>
        <time>2026-07-14T08:51:57Z</time>
      </trkpt>
      <trkpt lat="45.19068" lon="5.9571">
        <ele>1441.5</ele>
        <time>2026-07-14T08:51:58Z</time>
      </trkpt>
      <trkpt lat="45.19068" lon="5.9571">
        <ele>1441.5</ele>
        <time>2026-07-14T08:52:00Z</time>
      </trkpt>
      <trkpt lat="45.19068" lon="5.9571">
        <ele>1441.6</ele>
        <time>2026-07-14T08:52:01Z</time>
      </trkpt>
      <trkpt lat="45.19068" lon="5.9571">
        <ele>1441.7</ele>
        <time>2026-07-14T08:52:02Z</time>
      </trkpt>
      <trkpt lat="45.19067" lon="5.95709">
        <ele>1441.8</ele>
        <time>2026-07-14T08:52:04Z</time>
      </trkpt>
      <trkpt lat="45.19067" lon="5.95709">
        <ele>1441.8</ele>
        <time>2026-07-14T08:52:05Z</time>
      </trkpt>
      <trkpt lat="45.19067" lon="5.95709">
        <ele>1441.9</ele>
        <time>2026-07-14T08:52:07Z</time>
      </trkpt>
      <trkpt lat="45.19067" lon="5.95709">
        <ele>1441.9</ele>
        <time>2026-07-14T08:52:08Z</time>
      </trkpt>
      <trkpt lat="45.19067" lon="5.95709">
        <ele>1442</ele>
        <time>2026-07-14T08:52:09Z</time>
      </trkpt>
      <trkpt lat="45.19067" lon="5.95709">
        <ele>1442</ele>
        <time>2026-07-14T08:52:10Z</time>
      </trkpt>
      <trkpt lat="45.19067" lon="5.95709">
        <ele>1442</ele>
        <time>2026-07-14T08:52:11Z</time>
      </trkpt>
      <trkpt lat="45.19067" lon="5.95709">
        <ele>1442</ele>
        <time>2026-07-14T08:52:12Z</time>
      </trkpt>
      <trkpt lat="45.19067" lon="5.95709">
        <ele>1442</ele>
        <time>2026-07-14T08:52:13Z</time>
      </trkpt>
      <trkpt lat="45.19067" lon="5.95709">
        <ele>1442.1</ele>
        <time>2026-07-14T08:52:14Z</time>
      </trkpt>
      <trkpt lat="45.19067" lon="5.95709">
        <ele>1442.2</ele>
        <time>2026-07-14T08:52:15Z</time>
      </trkpt>
      <trkpt lat="45.19066" lon="5.95708">
        <ele>1442.4</ele>
        <time>2026-07-14T08:52:16Z</time>
      </trkpt>
      <trkpt lat="45.19066" lon="5.95707">
        <ele>1442.5</ele>
        <time>2026-07-14T08:52:17Z</time>
      </trkpt>
      <trkpt lat="45.19066" lon="5.95707">
        <ele>1442.6</ele>
        <time>2026-07-14T08:52:18Z</time>
      </trkpt>
      <trkpt lat="45.19066" lon="5.95706">
        <ele>1442.7</ele>
        <time>2026-07-14T08:52:19Z</time>
      </trkpt>
      <trkpt lat="45.19067" lon="5.95704">
        <ele>1443.1</ele>
        <time>2026-07-14T08:52:21Z</time>
      </trkpt>
      <trkpt lat="45.19067" lon="5.95703">
        <ele>1443.3</ele>
        <time>2026-07-14T08:52:22Z</time>
      </trkpt>
      <trkpt lat="45.19067" lon="5.95702">
        <ele>1443.6</ele>
        <time>2026-07-14T08:52:23Z</time>
      </trkpt>
      <trkpt lat="45.19067" lon="5.957">
        <ele>1443.9</ele>
        <time>2026-07-14T08:52:25Z</time>
      </trkpt>
      <trkpt lat="45.19066" lon="5.95699">
        <ele>1444.1</ele>
        <time>2026-07-14T08:52:26Z</time>
      </trkpt>
      <trkpt lat="45.19065" lon="5.957">
        <ele>1444.4</ele>
        <time>2026-07-14T08:52:27Z</time>
      </trkpt>
      <trkpt lat="45.19065" lon="5.95701">
        <ele>1444.6</ele>
        <time>2026-07-14T08:52:28Z</time>
      </trkpt>
      <trkpt lat="45.19065" lon="5.95701">
        <ele>1444.6</ele>
        <time>2026-07-14T08:52:29Z</time>
      </trkpt>
      <trkpt lat="45.19065" lon="5.95702">
        <ele>1444.7</ele>
        <time>2026-07-14T08:52:31Z</time>
      </trkpt>
      <trkpt lat="45.19065" lon="5.95702">
        <ele>1444.8</ele>
        <time>2026-07-14T08:52:32Z</time>
      </trkpt>
      <trkpt lat="45.19065" lon="5.95702">
        <ele>1444.8</ele>
        <time>2026-07-14T08:52:33Z</time>
      </trkpt>
      <trkpt lat="45.19065" lon="5.95702">
        <ele>1444.9</ele>
        <time>2026-07-14T08:52:35Z</time>
      </trkpt>
      <trkpt lat="45.19065" lon="5.95703">
        <ele>1444.9</ele>
        <time>2026-07-14T08:52:36Z</time>
      </trkpt>
      <trkpt lat="45.19065" lon="5.95703">
        <ele>1445</ele>
        <time>2026-07-14T08:52:37Z</time>
      </trkpt>
      <trkpt lat="45.19065" lon="5.95703">
        <ele>1445</ele>
        <time>2026-07-14T08:52:38Z</time>
      </trkpt>
      <trkpt lat="45.19065" lon="5.95703">
        <ele>1445</ele>
        <time>2026-07-14T08:52:39Z</time>
      </trkpt>
      <trkpt lat="45.19065" lon="5.95703">
        <ele>1445.1</ele>
        <time>2026-07-14T08:52:40Z</time>
      </trkpt>
      <trkpt lat="45.19065" lon="5.95703">
        <ele>1445.1</ele>
        <time>2026-07-14T08:52:41Z</time>
      </trkpt>
      <trkpt lat="45.19065" lon="5.95703">
        <ele>1445.1</ele>
        <time>2026-07-14T08:52:42Z</time>
      </trkpt>
      <trkpt lat="45.19065" lon="5.95703">
        <ele>1445.2</ele>
        <time>2026-07-14T08:52:43Z</time>
      </trkpt>
      <trkpt lat="45.19065" lon="5.95703">
        <ele>1445.2</ele>
        <time>2026-07-14T08:52:44Z</time>
      </trkpt>
      <trkpt lat="45.19065" lon="5.95704">
        <ele>1445.2</ele>
        <time>2026-07-14T08:52:45Z</time>
      </trkpt>
      <trkpt lat="45.19065" lon="5.95704">
        <ele>1445.2</ele>
        <time>2026-07-14T08:52:46Z</time>
      </trkpt>
      <trkpt lat="45.19065" lon="5.95704">
        <ele>1445.3</ele>
        <time>2026-07-14T08:52:47Z</time>
      </trkpt>
      <trkpt lat="45.19065" lon="5.95704">
        <ele>1445.3</ele>
        <time>2026-07-14T08:52:48Z</time>
      </trkpt>
      <trkpt lat="45.19065" lon="5.95704">
        <ele>1445.3</ele>
        <time>2026-07-14T08:52:49Z</time>
      </trkpt>
      <trkpt lat="45.19065" lon="5.95704">
        <ele>1445.3</ele>
        <time>2026-07-14T08:52:50Z</time>
      </trkpt>
      <trkpt lat="45.19065" lon="5.95704">
        <ele>1445.3</ele>
        <time>2026-07-14T08:52:51Z</time>
      </trkpt>
      <trkpt lat="45.19065" lon="5.95704">
        <ele>1445.3</ele>
        <time>2026-07-14T08:52:52Z</time>
      </trkpt>
      <trkpt lat="45.19065" lon="5.95704">
        <ele>1445.4</ele>
        <time>2026-07-14T08:52:53Z</time>
      </trkpt>
      <trkpt lat="45.19065" lon="5.95704">
        <ele>1445.4</ele>
        <time>2026-07-14T08:52:54Z</time>
      </trkpt>
      <trkpt lat="45.19065" lon="5.95704">
        <ele>1445.4</ele>
        <time>2026-07-14T08:52:55Z</time>
      </trkpt>
      <trkpt lat="45.19065" lon="5.95704">
        <ele>1445.4</ele>
        <time>2026-07-14T08:52:56Z</time>
      </trkpt>
      <trkpt lat="45.19065" lon="5.95705">
        <ele>1445.5</ele>
        <time>2026-07-14T08:52:57Z</time>
      </trkpt>
      <trkpt lat="45.19065" lon="5.95705">
        <ele>1445.5</ele>
        <time>2026-07-14T08:52:58Z</time>
      </trkpt>
      <trkpt lat="45.19065" lon="5.95705">
        <ele>1445.5</ele>
        <time>2026-07-14T08:52:59Z</time>
      </trkpt>
      <trkpt lat="45.19065" lon="5.95705">
        <ele>1445.5</ele>
        <time>2026-07-14T08:53:00Z</time>
      </trkpt>
      <trkpt lat="45.19065" lon="5.95705">
        <ele>1445.5</ele>
        <time>2026-07-14T08:53:01Z</time>
      </trkpt>
      <trkpt lat="45.19065" lon="5.95705">
        <ele>1445.6</ele>
        <time>2026-07-14T08:53:02Z</time>
      </trkpt>
      <trkpt lat="45.19065" lon="5.95705">
        <ele>1445.6</ele>
        <time>2026-07-14T08:53:03Z</time>
      </trkpt>
      <trkpt lat="45.19065" lon="5.95705">
        <ele>1445.7</ele>
        <time>2026-07-14T08:53:04Z</time>
      </trkpt>
      <trkpt lat="45.19065" lon="5.95705">
        <ele>1445.7</ele>
        <time>2026-07-14T08:53:05Z</time>
      </trkpt>
      <trkpt lat="45.19065" lon="5.95705">
        <ele>1445.8</ele>
        <time>2026-07-14T08:53:07Z</time>
      </trkpt>
      <trkpt lat="45.19065" lon="5.95704">
        <ele>1445.9</ele>
        <time>2026-07-14T08:53:08Z</time>
      </trkpt>
      <trkpt lat="45.19065" lon="5.95704">
        <ele>1446</ele>
        <time>2026-07-14T08:53:09Z</time>
      </trkpt>
      <trkpt lat="45.19064" lon="5.95703">
        <ele>1446.1</ele>
        <time>2026-07-14T08:53:10Z</time>
      </trkpt>
      <trkpt lat="45.19064" lon="5.95703">
        <ele>1446.3</ele>
        <time>2026-07-14T08:53:11Z</time>
      </trkpt>
      <trkpt lat="45.19064" lon="5.95702">
        <ele>1446.5</ele>
        <time>2026-07-14T08:53:13Z</time>
      </trkpt>
      <trkpt lat="45.19064" lon="5.95701">
        <ele>1446.6</ele>
        <time>2026-07-14T08:53:14Z</time>
      </trkpt>
      <trkpt lat="45.19063" lon="5.95701">
        <ele>1446.7</ele>
        <time>2026-07-14T08:53:15Z</time>
      </trkpt>
      <trkpt lat="45.19063" lon="5.957">
        <ele>1447</ele>
        <time>2026-07-14T08:53:16Z</time>
      </trkpt>
      <trkpt lat="45.19063" lon="5.95699">
        <ele>1447.2</ele>
        <time>2026-07-14T08:53:17Z</time>
      </trkpt>
      <trkpt lat="45.19063" lon="5.95698">
        <ele>1447.3</ele>
        <time>2026-07-14T08:53:18Z</time>
      </trkpt>
      <trkpt lat="45.19063" lon="5.95697">
        <ele>1447.5</ele>
        <time>2026-07-14T08:53:19Z</time>
      </trkpt>
      <trkpt lat="45.19063" lon="5.95696">
        <ele>1447.7</ele>
        <time>2026-07-14T08:53:20Z</time>
      </trkpt>
      <trkpt lat="45.19063" lon="5.95696">
        <ele>1447.8</ele>
        <time>2026-07-14T08:53:21Z</time>
      </trkpt>
      <trkpt lat="45.19063" lon="5.95696">
        <ele>1447.8</ele>
        <time>2026-07-14T08:53:22Z</time>
      </trkpt>
      <trkpt lat="45.19063" lon="5.95695">
        <ele>1448</ele>
        <time>2026-07-14T08:53:23Z</time>
      </trkpt>
      <trkpt lat="45.19062" lon="5.95694">
        <ele>1448.2</ele>
        <time>2026-07-14T08:53:24Z</time>
      </trkpt>
      <trkpt lat="45.19062" lon="5.95693">
        <ele>1448.4</ele>
        <time>2026-07-14T08:53:25Z</time>
      </trkpt>
      <trkpt lat="45.19062" lon="5.95691">
        <ele>1448.8</ele>
        <time>2026-07-14T08:53:26Z</time>
      </trkpt>
      <trkpt lat="45.19062" lon="5.9569">
        <ele>1449</ele>
        <time>2026-07-14T08:53:27Z</time>
      </trkpt>
      <trkpt lat="45.19061" lon="5.9569">
        <ele>1449.1</ele>
        <time>2026-07-14T08:53:28Z</time>
      </trkpt>
      <trkpt lat="45.19061" lon="5.95689">
        <ele>1449.2</ele>
        <time>2026-07-14T08:53:29Z</time>
      </trkpt>
      <trkpt lat="45.19061" lon="5.95688">
        <ele>1449.4</ele>
        <time>2026-07-14T08:53:30Z</time>
      </trkpt>
      <trkpt lat="45.19062" lon="5.95687">
        <ele>1449.7</ele>
        <time>2026-07-14T08:53:31Z</time>
      </trkpt>
      <trkpt lat="45.19062" lon="5.95686">
        <ele>1449.8</ele>
        <time>2026-07-14T08:53:32Z</time>
      </trkpt>
      <trkpt lat="45.19061" lon="5.95686">
        <ele>1450</ele>
        <time>2026-07-14T08:53:33Z</time>
      </trkpt>
      <trkpt lat="45.19061" lon="5.95686">
        <ele>1450</ele>
        <time>2026-07-14T08:53:35Z</time>
      </trkpt>
      <trkpt lat="45.1906" lon="5.95687">
        <ele>1450.2</ele>
        <time>2026-07-14T08:53:36Z</time>
      </trkpt>
      <trkpt lat="45.19061" lon="5.95687">
        <ele>1450.2</ele>
        <time>2026-07-14T08:53:37Z</time>
      </trkpt>
      <trkpt lat="45.19061" lon="5.95686">
        <ele>1450.4</ele>
        <time>2026-07-14T08:53:38Z</time>
      </trkpt>
      <trkpt lat="45.19061" lon="5.95686">
        <ele>1450.4</ele>
        <time>2026-07-14T08:53:39Z</time>
      </trkpt>
      <trkpt lat="45.19061" lon="5.95686">
        <ele>1450.5</ele>
        <time>2026-07-14T08:53:40Z</time>
      </trkpt>
      <trkpt lat="45.1906" lon="5.95686">
        <ele>1450.6</ele>
        <time>2026-07-14T08:53:41Z</time>
      </trkpt>
      <trkpt lat="45.1906" lon="5.95686">
        <ele>1450.7</ele>
        <time>2026-07-14T08:53:42Z</time>
      </trkpt>
      <trkpt lat="45.19059" lon="5.95686">
        <ele>1450.8</ele>
        <time>2026-07-14T08:53:43Z</time>
      </trkpt>
      <trkpt lat="45.19059" lon="5.95686">
        <ele>1450.9</ele>
        <time>2026-07-14T08:53:44Z</time>
      </trkpt>
      <trkpt lat="45.19059" lon="5.95686">
        <ele>1451</ele>
        <time>2026-07-14T08:53:45Z</time>
      </trkpt>
      <trkpt lat="45.19058" lon="5.95686">
        <ele>1451.1</ele>
        <time>2026-07-14T08:53:46Z</time>
      </trkpt>
      <trkpt lat="45.19058" lon="5.95686">
        <ele>1451.1</ele>
        <time>2026-07-14T08:53:47Z</time>
      </trkpt>
      <trkpt lat="45.19058" lon="5.95686">
        <ele>1451.3</ele>
        <time>2026-07-14T08:53:48Z</time>
      </trkpt>
      <trkpt lat="45.19058" lon="5.95686">
        <ele>1451.4</ele>
        <time>2026-07-14T08:53:49Z</time>
      </trkpt>
      <trkpt lat="45.19058" lon="5.95687">
        <ele>1451.6</ele>
        <time>2026-07-14T08:53:51Z</time>
      </trkpt>
      <trkpt lat="45.19058" lon="5.95688">
        <ele>1451.7</ele>
        <time>2026-07-14T08:53:52Z</time>
      </trkpt>
      <trkpt lat="45.19058" lon="5.95688">
        <ele>1451.8</ele>
        <time>2026-07-14T08:53:53Z</time>
      </trkpt>
      <trkpt lat="45.19058" lon="5.95689">
        <ele>1451.9</ele>
        <time>2026-07-14T08:53:55Z</time>
      </trkpt>
      <trkpt lat="45.19058" lon="5.95689">
        <ele>1451.9</ele>
        <time>2026-07-14T08:53:56Z</time>
      </trkpt>
      <trkpt lat="45.19058" lon="5.95689">
        <ele>1452</ele>
        <time>2026-07-14T08:53:57Z</time>
      </trkpt>
      <trkpt lat="45.19058" lon="5.95689">
        <ele>1452</ele>
        <time>2026-07-14T08:53:58Z</time>
      </trkpt>
      <trkpt lat="45.19058" lon="5.95689">
        <ele>1452</ele>
        <time>2026-07-14T08:53:59Z</time>
      </trkpt>
      <trkpt lat="45.19058" lon="5.95689">
        <ele>1452</ele>
        <time>2026-07-14T08:54:00Z</time>
      </trkpt>
      <trkpt lat="45.19058" lon="5.95689">
        <ele>1452.1</ele>
        <time>2026-07-14T08:54:02Z</time>
      </trkpt>
      <trkpt lat="45.19058" lon="5.95689">
        <ele>1452.1</ele>
        <time>2026-07-14T08:54:03Z</time>
      </trkpt>
      <trkpt lat="45.19058" lon="5.95689">
        <ele>1452.1</ele>
        <time>2026-07-14T08:54:04Z</time>
      </trkpt>
      <trkpt lat="45.19058" lon="5.95689">
        <ele>1452.1</ele>
        <time>2026-07-14T08:54:05Z</time>
      </trkpt>
      <trkpt lat="45.19058" lon="5.95689">
        <ele>1452.2</ele>
        <time>2026-07-14T08:54:06Z</time>
      </trkpt>
      <trkpt lat="45.19058" lon="5.95689">
        <ele>1452.2</ele>
        <time>2026-07-14T08:54:07Z</time>
      </trkpt>
      <trkpt lat="45.19058" lon="5.95689">
        <ele>1452.2</ele>
        <time>2026-07-14T08:54:08Z</time>
      </trkpt>
      <trkpt lat="45.19058" lon="5.95689">
        <ele>1452.2</ele>
        <time>2026-07-14T08:54:09Z</time>
      </trkpt>
      <trkpt lat="45.19058" lon="5.95689">
        <ele>1452.3</ele>
        <time>2026-07-14T08:54:10Z</time>
      </trkpt>
      <trkpt lat="45.19058" lon="5.95689">
        <ele>1452.3</ele>
        <time>2026-07-14T08:54:11Z</time>
      </trkpt>
      <trkpt lat="45.19058" lon="5.95689">
        <ele>1452.3</ele>
        <time>2026-07-14T08:54:12Z</time>
      </trkpt>
      <trkpt lat="45.19058" lon="5.95689">
        <ele>1452.3</ele>
        <time>2026-07-14T08:54:13Z</time>
      </trkpt>
      <trkpt lat="45.19058" lon="5.95689">
        <ele>1452.4</ele>
        <time>2026-07-14T08:54:14Z</time>
      </trkpt>
      <trkpt lat="45.19058" lon="5.9569">
        <ele>1452.4</ele>
        <time>2026-07-14T08:54:15Z</time>
      </trkpt>
      <trkpt lat="45.19058" lon="5.9569">
        <ele>1452.5</ele>
        <time>2026-07-14T08:54:16Z</time>
      </trkpt>
      <trkpt lat="45.19058" lon="5.9569">
        <ele>1452.5</ele>
        <time>2026-07-14T08:54:17Z</time>
      </trkpt>
      <trkpt lat="45.19058" lon="5.9569">
        <ele>1452.5</ele>
        <time>2026-07-14T08:54:18Z</time>
      </trkpt>
      <trkpt lat="45.19058" lon="5.9569">
        <ele>1452.5</ele>
        <time>2026-07-14T08:54:19Z</time>
      </trkpt>
      <trkpt lat="45.19058" lon="5.95689">
        <ele>1452.6</ele>
        <time>2026-07-14T08:54:20Z</time>
      </trkpt>
      <trkpt lat="45.19058" lon="5.95689">
        <ele>1452.6</ele>
        <time>2026-07-14T08:54:21Z</time>
      </trkpt>
      <trkpt lat="45.19058" lon="5.95689">
        <ele>1452.7</ele>
        <time>2026-07-14T08:54:22Z</time>
      </trkpt>
      <trkpt lat="45.19058" lon="5.95689">
        <ele>1452.7</ele>
        <time>2026-07-14T08:54:24Z</time>
      </trkpt>
      <trkpt lat="45.19058" lon="5.95689">
        <ele>1452.7</ele>
        <time>2026-07-14T08:54:25Z</time>
      </trkpt>
      <trkpt lat="45.19058" lon="5.95689">
        <ele>1452.7</ele>
        <time>2026-07-14T08:54:26Z</time>
      </trkpt>
      <trkpt lat="45.19058" lon="5.9569">
        <ele>1452.7</ele>
        <time>2026-07-14T08:54:27Z</time>
      </trkpt>
      <trkpt lat="45.19058" lon="5.9569">
        <ele>1452.7</ele>
        <time>2026-07-14T08:54:28Z</time>
      </trkpt>
      <trkpt lat="45.19058" lon="5.9569">
        <ele>1452.7</ele>
        <time>2026-07-14T08:54:29Z</time>
      </trkpt>
      <trkpt lat="45.19058" lon="5.9569">
        <ele>1452.7</ele>
        <time>2026-07-14T08:54:30Z</time>
      </trkpt>
      <trkpt lat="45.19058" lon="5.9569">
        <ele>1452.8</ele>
        <time>2026-07-14T08:54:31Z</time>
      </trkpt>
      <trkpt lat="45.19059" lon="5.9569">
        <ele>1452.9</ele>
        <time>2026-07-14T08:54:32Z</time>
      </trkpt>
      <trkpt lat="45.19059" lon="5.95689">
        <ele>1452.9</ele>
        <time>2026-07-14T08:54:33Z</time>
      </trkpt>
      <trkpt lat="45.19059" lon="5.95689">
        <ele>1452.9</ele>
        <time>2026-07-14T08:54:34Z</time>
      </trkpt>
      <trkpt lat="45.19059" lon="5.95689">
        <ele>1453</ele>
        <time>2026-07-14T08:54:35Z</time>
      </trkpt>
      <trkpt lat="45.19059" lon="5.95689">
        <ele>1453</ele>
        <time>2026-07-14T08:54:36Z</time>
      </trkpt>
      <trkpt lat="45.19059" lon="5.9569">
        <ele>1453</ele>
        <time>2026-07-14T08:54:37Z</time>
      </trkpt>
      <trkpt lat="45.19059" lon="5.9569">
        <ele>1453</ele>
        <time>2026-07-14T08:54:38Z</time>
      </trkpt>
      <trkpt lat="45.19059" lon="5.9569">
        <ele>1453.1</ele>
        <time>2026-07-14T08:54:39Z</time>
      </trkpt>
      <trkpt lat="45.19059" lon="5.9569">
        <ele>1453.1</ele>
        <time>2026-07-14T08:54:40Z</time>
      </trkpt>
      <trkpt lat="45.19059" lon="5.9569">
        <ele>1453.1</ele>
        <time>2026-07-14T08:54:41Z</time>
      </trkpt>
      <trkpt lat="45.19059" lon="5.9569">
        <ele>1453.2</ele>
        <time>2026-07-14T08:54:42Z</time>
      </trkpt>
      <trkpt lat="45.19059" lon="5.9569">
        <ele>1453.2</ele>
        <time>2026-07-14T08:54:43Z</time>
      </trkpt>
      <trkpt lat="45.19059" lon="5.9569">
        <ele>1453.3</ele>
        <time>2026-07-14T08:54:44Z</time>
      </trkpt>
      <trkpt lat="45.19059" lon="5.9569">
        <ele>1453.3</ele>
        <time>2026-07-14T08:54:45Z</time>
      </trkpt>
      <trkpt lat="45.1906" lon="5.95691">
        <ele>1453.4</ele>
        <time>2026-07-14T08:54:46Z</time>
      </trkpt>
      <trkpt lat="45.1906" lon="5.9569">
        <ele>1453.4</ele>
        <time>2026-07-14T08:54:47Z</time>
      </trkpt>
      <trkpt lat="45.1906" lon="5.9569">
        <ele>1453.5</ele>
        <time>2026-07-14T08:54:48Z</time>
      </trkpt>
      <trkpt lat="45.1906" lon="5.9569">
        <ele>1453.5</ele>
        <time>2026-07-14T08:54:49Z</time>
      </trkpt>
      <trkpt lat="45.1906" lon="5.9569">
        <ele>1453.6</ele>
        <time>2026-07-14T08:54:50Z</time>
      </trkpt>
      <trkpt lat="45.1906" lon="5.9569">
        <ele>1453.6</ele>
        <time>2026-07-14T08:54:51Z</time>
      </trkpt>
      <trkpt lat="45.19061" lon="5.9569">
        <ele>1453.7</ele>
        <time>2026-07-14T08:54:52Z</time>
      </trkpt>
      <trkpt lat="45.19061" lon="5.95689">
        <ele>1453.8</ele>
        <time>2026-07-14T08:54:53Z</time>
      </trkpt>
      <trkpt lat="45.19061" lon="5.95689">
        <ele>1453.9</ele>
        <time>2026-07-14T08:54:54Z</time>
      </trkpt>
      <trkpt lat="45.19061" lon="5.95689">
        <ele>1453.9</ele>
        <time>2026-07-14T08:54:55Z</time>
      </trkpt>
      <trkpt lat="45.19061" lon="5.95689">
        <ele>1453.9</ele>
        <time>2026-07-14T08:54:56Z</time>
      </trkpt>
      <trkpt lat="45.19061" lon="5.95688">
        <ele>1454.2</ele>
        <time>2026-07-14T08:54:58Z</time>
      </trkpt>
      <trkpt lat="45.19062" lon="5.95686">
        <ele>1454.5</ele>
        <time>2026-07-14T08:55:00Z</time>
      </trkpt>
      <trkpt lat="45.19062" lon="5.95686">
        <ele>1454.6</ele>
        <time>2026-07-14T08:55:01Z</time>
      </trkpt>
      <trkpt lat="45.19062" lon="5.95685">
        <ele>1454.7</ele>
        <time>2026-07-14T08:55:02Z</time>
      </trkpt>
      <trkpt lat="45.19062" lon="5.95685">
        <ele>1454.8</ele>
        <time>2026-07-14T08:55:03Z</time>
      </trkpt>
      <trkpt lat="45.19062" lon="5.95684">
        <ele>1455</ele>
        <time>2026-07-14T08:55:04Z</time>
      </trkpt>
      <trkpt lat="45.19062" lon="5.95683">
        <ele>1455.2</ele>
        <time>2026-07-14T08:55:05Z</time>
      </trkpt>
      <trkpt lat="45.19062" lon="5.95682">
        <ele>1455.4</ele>
        <time>2026-07-14T08:55:06Z</time>
      </trkpt>
      <trkpt lat="45.19062" lon="5.95681">
        <ele>1455.5</ele>
        <time>2026-07-14T08:55:07Z</time>
      </trkpt>
      <trkpt lat="45.19062" lon="5.9568">
        <ele>1455.7</ele>
        <time>2026-07-14T08:55:08Z</time>
      </trkpt>
      <trkpt lat="45.19062" lon="5.9568">
        <ele>1455.8</ele>
        <time>2026-07-14T08:55:09Z</time>
      </trkpt>
      <trkpt lat="45.19062" lon="5.95679">
        <ele>1455.9</ele>
        <time>2026-07-14T08:55:10Z</time>
      </trkpt>
      <trkpt lat="45.19062" lon="5.95679">
        <ele>1456</ele>
        <time>2026-07-14T08:55:11Z</time>
      </trkpt>
      <trkpt lat="45.19062" lon="5.95679">
        <ele>1456.1</ele>
        <time>2026-07-14T08:55:12Z</time>
      </trkpt>
      <trkpt lat="45.19062" lon="5.95678">
        <ele>1456.1</ele>
        <time>2026-07-14T08:55:13Z</time>
      </trkpt>
      <trkpt lat="45.19063" lon="5.95677">
        <ele>1456.3</ele>
        <time>2026-07-14T08:55:14Z</time>
      </trkpt>
      <trkpt lat="45.19063" lon="5.95677">
        <ele>1456.3</ele>
        <time>2026-07-14T08:55:15Z</time>
      </trkpt>
      <trkpt lat="45.19063" lon="5.95676">
        <ele>1456.5</ele>
        <time>2026-07-14T08:55:17Z</time>
      </trkpt>
      <trkpt lat="45.19063" lon="5.95676">
        <ele>1456.6</ele>
        <time>2026-07-14T08:55:18Z</time>
      </trkpt>
      <trkpt lat="45.19064" lon="5.95674">
        <ele>1457</ele>
        <time>2026-07-14T08:55:19Z</time>
      </trkpt>
      <trkpt lat="45.19063" lon="5.95673">
        <ele>1457.1</ele>
        <time>2026-07-14T08:55:20Z</time>
      </trkpt>
      <trkpt lat="45.19063" lon="5.95672">
        <ele>1457.5</ele>
        <time>2026-07-14T08:55:22Z</time>
      </trkpt>
      <trkpt lat="45.19062" lon="5.95671">
        <ele>1457.7</ele>
        <time>2026-07-14T08:55:23Z</time>
      </trkpt>
      <trkpt lat="45.19061" lon="5.95671">
        <ele>1458</ele>
        <time>2026-07-14T08:55:24Z</time>
      </trkpt>
      <trkpt lat="45.1906" lon="5.95671">
        <ele>1458.1</ele>
        <time>2026-07-14T08:55:25Z</time>
      </trkpt>
      <trkpt lat="45.1906" lon="5.95671">
        <ele>1458.2</ele>
        <time>2026-07-14T08:55:26Z</time>
      </trkpt>
      <trkpt lat="45.19059" lon="5.95671">
        <ele>1458.3</ele>
        <time>2026-07-14T08:55:27Z</time>
      </trkpt>
      <trkpt lat="45.19059" lon="5.95671">
        <ele>1458.4</ele>
        <time>2026-07-14T08:55:28Z</time>
      </trkpt>
      <trkpt lat="45.19059" lon="5.95671">
        <ele>1458.5</ele>
        <time>2026-07-14T08:55:29Z</time>
      </trkpt>
      <trkpt lat="45.19059" lon="5.95671">
        <ele>1458.6</ele>
        <time>2026-07-14T08:55:30Z</time>
      </trkpt>
      <trkpt lat="45.19058" lon="5.95671">
        <ele>1458.8</ele>
        <time>2026-07-14T08:55:31Z</time>
      </trkpt>
      <trkpt lat="45.19058" lon="5.95671">
        <ele>1458.8</ele>
        <time>2026-07-14T08:55:32Z</time>
      </trkpt>
      <trkpt lat="45.19057" lon="5.95672">
        <ele>1459</ele>
        <time>2026-07-14T08:55:33Z</time>
      </trkpt>
      <trkpt lat="45.19057" lon="5.95672">
        <ele>1459.1</ele>
        <time>2026-07-14T08:55:34Z</time>
      </trkpt>
      <trkpt lat="45.19056" lon="5.95672">
        <ele>1459.2</ele>
        <time>2026-07-14T08:55:35Z</time>
      </trkpt>
      <trkpt lat="45.19056" lon="5.95672">
        <ele>1459.3</ele>
        <time>2026-07-14T08:55:37Z</time>
      </trkpt>
      <trkpt lat="45.19056" lon="5.95672">
        <ele>1459.4</ele>
        <time>2026-07-14T08:55:38Z</time>
      </trkpt>
      <trkpt lat="45.19055" lon="5.95672">
        <ele>1459.5</ele>
        <time>2026-07-14T08:55:39Z</time>
      </trkpt>
      <trkpt lat="45.19055" lon="5.95672">
        <ele>1459.7</ele>
        <time>2026-07-14T08:55:40Z</time>
      </trkpt>
      <trkpt lat="45.19054" lon="5.95672">
        <ele>1459.8</ele>
        <time>2026-07-14T08:55:41Z</time>
      </trkpt>
      <trkpt lat="45.19053" lon="5.95672">
        <ele>1460</ele>
        <time>2026-07-14T08:55:42Z</time>
      </trkpt>
      <trkpt lat="45.19053" lon="5.95672">
        <ele>1460.2</ele>
        <time>2026-07-14T08:55:43Z</time>
      </trkpt>
      <trkpt lat="45.19052" lon="5.95673">
        <ele>1460.4</ele>
        <time>2026-07-14T08:55:44Z</time>
      </trkpt>
      <trkpt lat="45.19052" lon="5.95673">
        <ele>1460.5</ele>
        <time>2026-07-14T08:55:45Z</time>
      </trkpt>
      <trkpt lat="45.19051" lon="5.95674">
        <ele>1460.9</ele>
        <time>2026-07-14T08:55:47Z</time>
      </trkpt>
      <trkpt lat="45.1905" lon="5.95674">
        <ele>1461</ele>
        <time>2026-07-14T08:55:48Z</time>
      </trkpt>
      <trkpt lat="45.19049" lon="5.95674">
        <ele>1461.2</ele>
        <time>2026-07-14T08:55:49Z</time>
      </trkpt>
      <trkpt lat="45.19049" lon="5.95675">
        <ele>1461.4</ele>
        <time>2026-07-14T08:55:50Z</time>
      </trkpt>
      <trkpt lat="45.19048" lon="5.95675">
        <ele>1461.6</ele>
        <time>2026-07-14T08:55:51Z</time>
      </trkpt>
      <trkpt lat="45.19047" lon="5.95675">
        <ele>1461.8</ele>
        <time>2026-07-14T08:55:52Z</time>
      </trkpt>
      <trkpt lat="45.19047" lon="5.95675">
        <ele>1462</ele>
        <time>2026-07-14T08:55:53Z</time>
      </trkpt>
      <trkpt lat="45.19046" lon="5.95675">
        <ele>1462.2</ele>
        <time>2026-07-14T08:55:54Z</time>
      </trkpt>
      <trkpt lat="45.19045" lon="5.95675">
        <ele>1462.3</ele>
        <time>2026-07-14T08:55:55Z</time>
      </trkpt>
      <trkpt lat="45.19045" lon="5.95675">
        <ele>1462.5</ele>
        <time>2026-07-14T08:55:56Z</time>
      </trkpt>
      <trkpt lat="45.19044" lon="5.95675">
        <ele>1462.7</ele>
        <time>2026-07-14T08:55:57Z</time>
      </trkpt>
      <trkpt lat="45.19044" lon="5.95675">
        <ele>1462.9</ele>
        <time>2026-07-14T08:55:58Z</time>
      </trkpt>
      <trkpt lat="45.19043" lon="5.95675">
        <ele>1463</ele>
        <time>2026-07-14T08:55:59Z</time>
      </trkpt>
      <trkpt lat="45.19043" lon="5.95675">
        <ele>1463.1</ele>
        <time>2026-07-14T08:56:00Z</time>
      </trkpt>
      <trkpt lat="45.19042" lon="5.95675">
        <ele>1463.2</ele>
        <time>2026-07-14T08:56:01Z</time>
      </trkpt>
      <trkpt lat="45.19042" lon="5.95675">
        <ele>1463.3</ele>
        <time>2026-07-14T08:56:02Z</time>
      </trkpt>
      <trkpt lat="45.19042" lon="5.95675">
        <ele>1463.3</ele>
        <time>2026-07-14T08:56:03Z</time>
      </trkpt>
      <trkpt lat="45.19042" lon="5.95675">
        <ele>1463.3</ele>
        <time>2026-07-14T08:56:04Z</time>
      </trkpt>
      <trkpt lat="45.19042" lon="5.95675">
        <ele>1463.3</ele>
        <time>2026-07-14T08:56:05Z</time>
      </trkpt>
      <trkpt lat="45.19042" lon="5.95675">
        <ele>1463.4</ele>
        <time>2026-07-14T08:56:06Z</time>
      </trkpt>
      <trkpt lat="45.19042" lon="5.95675">
        <ele>1463.4</ele>
        <time>2026-07-14T08:56:07Z</time>
      </trkpt>
      <trkpt lat="45.19043" lon="5.95673">
        <ele>1463.8</ele>
        <time>2026-07-14T08:56:09Z</time>
      </trkpt>
      <trkpt lat="45.19043" lon="5.95672">
        <ele>1464</ele>
        <time>2026-07-14T08:56:10Z</time>
      </trkpt>
      <trkpt lat="45.19044" lon="5.95671">
        <ele>1464.2</ele>
        <time>2026-07-14T08:56:11Z</time>
      </trkpt>
      <trkpt lat="45.19044" lon="5.95671">
        <ele>1464.4</ele>
        <time>2026-07-14T08:56:12Z</time>
      </trkpt>
      <trkpt lat="45.19044" lon="5.9567">
        <ele>1464.5</ele>
        <time>2026-07-14T08:56:13Z</time>
      </trkpt>
      <trkpt lat="45.19045" lon="5.9567">
        <ele>1464.6</ele>
        <time>2026-07-14T08:56:14Z</time>
      </trkpt>
      <trkpt lat="45.19045" lon="5.9567">
        <ele>1464.7</ele>
        <time>2026-07-14T08:56:15Z</time>
      </trkpt>
      <trkpt lat="45.19045" lon="5.95669">
        <ele>1465</ele>
        <time>2026-07-14T08:56:16Z</time>
      </trkpt>
      <trkpt lat="45.19046" lon="5.95667">
        <ele>1465.2</ele>
        <time>2026-07-14T08:56:17Z</time>
      </trkpt>
      <trkpt lat="45.19046" lon="5.95666">
        <ele>1465.5</ele>
        <time>2026-07-14T08:56:18Z</time>
      </trkpt>
      <trkpt lat="45.19047" lon="5.95665">
        <ele>1465.8</ele>
        <time>2026-07-14T08:56:19Z</time>
      </trkpt>
      <trkpt lat="45.19047" lon="5.95664">
        <ele>1466</ele>
        <time>2026-07-14T08:56:20Z</time>
      </trkpt>
      <trkpt lat="45.19047" lon="5.95663">
        <ele>1466.2</ele>
        <time>2026-07-14T08:56:21Z</time>
      </trkpt>
      <trkpt lat="45.19047" lon="5.95662">
        <ele>1466.4</ele>
        <time>2026-07-14T08:56:22Z</time>
      </trkpt>
      <trkpt lat="45.19047" lon="5.95661">
        <ele>1466.6</ele>
        <time>2026-07-14T08:56:23Z</time>
      </trkpt>
      <trkpt lat="45.19047" lon="5.9566">
        <ele>1466.8</ele>
        <time>2026-07-14T08:56:24Z</time>
      </trkpt>
      <trkpt lat="45.19047" lon="5.95659">
        <ele>1466.9</ele>
        <time>2026-07-14T08:56:25Z</time>
      </trkpt>
      <trkpt lat="45.19047" lon="5.95658">
        <ele>1467.1</ele>
        <time>2026-07-14T08:56:26Z</time>
      </trkpt>
      <trkpt lat="45.19048" lon="5.95657">
        <ele>1467.4</ele>
        <time>2026-07-14T08:56:27Z</time>
      </trkpt>
      <trkpt lat="45.19048" lon="5.95656">
        <ele>1467.6</ele>
        <time>2026-07-14T08:56:28Z</time>
      </trkpt>
      <trkpt lat="45.19048" lon="5.95656">
        <ele>1467.7</ele>
        <time>2026-07-14T08:56:29Z</time>
      </trkpt>
      <trkpt lat="45.19048" lon="5.95655">
        <ele>1467.8</ele>
        <time>2026-07-14T08:56:30Z</time>
      </trkpt>
      <trkpt lat="45.19048" lon="5.95655">
        <ele>1467.9</ele>
        <time>2026-07-14T08:56:31Z</time>
      </trkpt>
      <trkpt lat="45.19048" lon="5.95654">
        <ele>1467.9</ele>
        <time>2026-07-14T08:56:32Z</time>
      </trkpt>
      <trkpt lat="45.19048" lon="5.95654">
        <ele>1468</ele>
        <time>2026-07-14T08:56:34Z</time>
      </trkpt>
      <trkpt lat="45.19048" lon="5.95653">
        <ele>1468.2</ele>
        <time>2026-07-14T08:56:35Z</time>
      </trkpt>
      <trkpt lat="45.19048" lon="5.95652">
        <ele>1468.4</ele>
        <time>2026-07-14T08:56:36Z</time>
      </trkpt>
      <trkpt lat="45.19048" lon="5.95651">
        <ele>1468.5</ele>
        <time>2026-07-14T08:56:37Z</time>
      </trkpt>
      <trkpt lat="45.19048" lon="5.95651">
        <ele>1468.7</ele>
        <time>2026-07-14T08:56:38Z</time>
      </trkpt>
      <trkpt lat="45.19047" lon="5.9565">
        <ele>1468.9</ele>
        <time>2026-07-14T08:56:39Z</time>
      </trkpt>
      <trkpt lat="45.19047" lon="5.95649">
        <ele>1469.1</ele>
        <time>2026-07-14T08:56:40Z</time>
      </trkpt>
      <trkpt lat="45.19048" lon="5.95648">
        <ele>1469.2</ele>
        <time>2026-07-14T08:56:41Z</time>
      </trkpt>
      <trkpt lat="45.19047" lon="5.95647">
        <ele>1469.4</ele>
        <time>2026-07-14T08:56:42Z</time>
      </trkpt>
      <trkpt lat="45.19047" lon="5.95646">
        <ele>1469.6</ele>
        <time>2026-07-14T08:56:43Z</time>
      </trkpt>
      <trkpt lat="45.19047" lon="5.95645">
        <ele>1469.8</ele>
        <time>2026-07-14T08:56:44Z</time>
      </trkpt>
      <trkpt lat="45.19047" lon="5.95644">
        <ele>1470</ele>
        <time>2026-07-14T08:56:45Z</time>
      </trkpt>
      <trkpt lat="45.19047" lon="5.95643">
        <ele>1470.1</ele>
        <time>2026-07-14T08:56:46Z</time>
      </trkpt>
      <trkpt lat="45.19047" lon="5.95643">
        <ele>1470.2</ele>
        <time>2026-07-14T08:56:47Z</time>
      </trkpt>
      <trkpt lat="45.19047" lon="5.95642">
        <ele>1470.4</ele>
        <time>2026-07-14T08:56:48Z</time>
      </trkpt>
      <trkpt lat="45.19047" lon="5.95641">
        <ele>1470.5</ele>
        <time>2026-07-14T08:56:49Z</time>
      </trkpt>
      <trkpt lat="45.19047" lon="5.95641">
        <ele>1470.6</ele>
        <time>2026-07-14T08:56:50Z</time>
      </trkpt>
      <trkpt lat="45.19047" lon="5.95641">
        <ele>1470.6</ele>
        <time>2026-07-14T08:56:51Z</time>
      </trkpt>
      <trkpt lat="45.19047" lon="5.95641">
        <ele>1470.7</ele>
        <time>2026-07-14T08:56:52Z</time>
      </trkpt>
      <trkpt lat="45.19047" lon="5.9564">
        <ele>1470.8</ele>
        <time>2026-07-14T08:56:53Z</time>
      </trkpt>
      <trkpt lat="45.19047" lon="5.9564">
        <ele>1470.9</ele>
        <time>2026-07-14T08:56:54Z</time>
      </trkpt>
      <trkpt lat="45.19046" lon="5.9564">
        <ele>1471</ele>
        <time>2026-07-14T08:56:55Z</time>
      </trkpt>
      <trkpt lat="45.19046" lon="5.9564">
        <ele>1471.1</ele>
        <time>2026-07-14T08:56:56Z</time>
      </trkpt>
      <trkpt lat="45.19046" lon="5.9564">
        <ele>1471.1</ele>
        <time>2026-07-14T08:56:57Z</time>
      </trkpt>
      <trkpt lat="45.19045" lon="5.9564">
        <ele>1471.3</ele>
        <time>2026-07-14T08:56:58Z</time>
      </trkpt>
      <trkpt lat="45.19045" lon="5.95641">
        <ele>1471.4</ele>
        <time>2026-07-14T08:56:59Z</time>
      </trkpt>
      <trkpt lat="45.19045" lon="5.95641">
        <ele>1471.5</ele>
        <time>2026-07-14T08:57:00Z</time>
      </trkpt>
      <trkpt lat="45.19044" lon="5.95642">
        <ele>1471.7</ele>
        <time>2026-07-14T08:57:01Z</time>
      </trkpt>
      <trkpt lat="45.19044" lon="5.95642">
        <ele>1471.8</ele>
        <time>2026-07-14T08:57:02Z</time>
      </trkpt>
      <trkpt lat="45.19043" lon="5.95643">
        <ele>1472</ele>
        <time>2026-07-14T08:57:03Z</time>
      </trkpt>
      <trkpt lat="45.19043" lon="5.95643">
        <ele>1472.2</ele>
        <time>2026-07-14T08:57:04Z</time>
      </trkpt>
      <trkpt lat="45.19042" lon="5.95644">
        <ele>1472.4</ele>
        <time>2026-07-14T08:57:05Z</time>
      </trkpt>
      <trkpt lat="45.19042" lon="5.95645">
        <ele>1472.7</ele>
        <time>2026-07-14T08:57:06Z</time>
      </trkpt>
      <trkpt lat="45.19041" lon="5.95646">
        <ele>1472.9</ele>
        <time>2026-07-14T08:57:07Z</time>
      </trkpt>
      <trkpt lat="45.1904" lon="5.95648">
        <ele>1473.3</ele>
        <time>2026-07-14T08:57:08Z</time>
      </trkpt>
      <trkpt lat="45.1904" lon="5.9565">
        <ele>1473.6</ele>
        <time>2026-07-14T08:57:09Z</time>
      </trkpt>
      <trkpt lat="45.1904" lon="5.95651">
        <ele>1473.8</ele>
        <time>2026-07-14T08:57:10Z</time>
      </trkpt>
      <trkpt lat="45.19039" lon="5.95652">
        <ele>1474</ele>
        <time>2026-07-14T08:57:11Z</time>
      </trkpt>
      <trkpt lat="45.19039" lon="5.95652">
        <ele>1474.2</ele>
        <time>2026-07-14T08:57:12Z</time>
      </trkpt>
      <trkpt lat="45.19038" lon="5.95653">
        <ele>1474.4</ele>
        <time>2026-07-14T08:57:13Z</time>
      </trkpt>
      <trkpt lat="45.19037" lon="5.95654">
        <ele>1474.7</ele>
        <time>2026-07-14T08:57:15Z</time>
      </trkpt>
      <trkpt lat="45.19037" lon="5.95655">
        <ele>1474.8</ele>
        <time>2026-07-14T08:57:16Z</time>
      </trkpt>
      <trkpt lat="45.19037" lon="5.95655">
        <ele>1475</ele>
        <time>2026-07-14T08:57:17Z</time>
      </trkpt>
      <trkpt lat="45.19036" lon="5.95656">
        <ele>1475.1</ele>
        <time>2026-07-14T08:57:18Z</time>
      </trkpt>
      <trkpt lat="45.19036" lon="5.95656">
        <ele>1475.2</ele>
        <time>2026-07-14T08:57:19Z</time>
      </trkpt>
      <trkpt lat="45.19036" lon="5.95657">
        <ele>1475.3</ele>
        <time>2026-07-14T08:57:20Z</time>
      </trkpt>
      <trkpt lat="45.19035" lon="5.95657">
        <ele>1475.4</ele>
        <time>2026-07-14T08:57:21Z</time>
      </trkpt>
      <trkpt lat="45.19035" lon="5.95658">
        <ele>1475.6</ele>
        <time>2026-07-14T08:57:22Z</time>
      </trkpt>
      <trkpt lat="45.19035" lon="5.95658">
        <ele>1475.7</ele>
        <time>2026-07-14T08:57:23Z</time>
      </trkpt>
      <trkpt lat="45.19035" lon="5.95658">
        <ele>1475.7</ele>
        <time>2026-07-14T08:57:24Z</time>
      </trkpt>
      <trkpt lat="45.19034" lon="5.95659">
        <ele>1475.8</ele>
        <time>2026-07-14T08:57:25Z</time>
      </trkpt>
      <trkpt lat="45.19034" lon="5.95659">
        <ele>1475.8</ele>
        <time>2026-07-14T08:57:26Z</time>
      </trkpt>
      <trkpt lat="45.19034" lon="5.95659">
        <ele>1475.9</ele>
        <time>2026-07-14T08:57:27Z</time>
      </trkpt>
      <trkpt lat="45.19034" lon="5.95659">
        <ele>1476</ele>
        <time>2026-07-14T08:57:28Z</time>
      </trkpt>
      <trkpt lat="45.19034" lon="5.95659">
        <ele>1476</ele>
        <time>2026-07-14T08:57:29Z</time>
      </trkpt>
      <trkpt lat="45.19033" lon="5.9566">
        <ele>1476.2</ele>
        <time>2026-07-14T08:57:31Z</time>
      </trkpt>
      <trkpt lat="45.19033" lon="5.9566">
        <ele>1476.3</ele>
        <time>2026-07-14T08:57:33Z</time>
      </trkpt>
      <trkpt lat="45.19032" lon="5.9566">
        <ele>1476.5</ele>
        <time>2026-07-14T08:57:35Z</time>
      </trkpt>
      <trkpt lat="45.19032" lon="5.95659">
        <ele>1476.5</ele>
        <time>2026-07-14T08:57:36Z</time>
      </trkpt>
      <trkpt lat="45.19032" lon="5.95659">
        <ele>1476.7</ele>
        <time>2026-07-14T08:57:37Z</time>
      </trkpt>
      <trkpt lat="45.19032" lon="5.95657">
        <ele>1477</ele>
        <time>2026-07-14T08:57:38Z</time>
      </trkpt>
      <trkpt lat="45.19033" lon="5.95655">
        <ele>1477.3</ele>
        <time>2026-07-14T08:57:39Z</time>
      </trkpt>
      <trkpt lat="45.19033" lon="5.95653">
        <ele>1477.6</ele>
        <time>2026-07-14T08:57:40Z</time>
      </trkpt>
      <trkpt lat="45.19034" lon="5.95652">
        <ele>1478.1</ele>
        <time>2026-07-14T08:57:42Z</time>
      </trkpt>
      <trkpt lat="45.19035" lon="5.95651">
        <ele>1478.2</ele>
        <time>2026-07-14T08:57:43Z</time>
      </trkpt>
      <trkpt lat="45.19035" lon="5.95651">
        <ele>1478.3</ele>
        <time>2026-07-14T08:57:44Z</time>
      </trkpt>
      <trkpt lat="45.19035" lon="5.9565">
        <ele>1478.6</ele>
        <time>2026-07-14T08:57:46Z</time>
      </trkpt>
      <trkpt lat="45.19035" lon="5.95649">
        <ele>1478.7</ele>
        <time>2026-07-14T08:57:47Z</time>
      </trkpt>
      <trkpt lat="45.19035" lon="5.95648">
        <ele>1478.9</ele>
        <time>2026-07-14T08:57:48Z</time>
      </trkpt>
      <trkpt lat="45.19035" lon="5.95647">
        <ele>1479</ele>
        <time>2026-07-14T08:57:49Z</time>
      </trkpt>
      <trkpt lat="45.19035" lon="5.95647">
        <ele>1479.2</ele>
        <time>2026-07-14T08:57:50Z</time>
      </trkpt>
      <trkpt lat="45.19034" lon="5.95646">
        <ele>1479.4</ele>
        <time>2026-07-14T08:57:51Z</time>
      </trkpt>
      <trkpt lat="45.19034" lon="5.95645">
        <ele>1479.5</ele>
        <time>2026-07-14T08:57:52Z</time>
      </trkpt>
      <trkpt lat="45.19034" lon="5.95644">
        <ele>1479.7</ele>
        <time>2026-07-14T08:57:53Z</time>
      </trkpt>
      <trkpt lat="45.19034" lon="5.95643">
        <ele>1480</ele>
        <time>2026-07-14T08:57:54Z</time>
      </trkpt>
      <trkpt lat="45.19035" lon="5.95641">
        <ele>1480.2</ele>
        <time>2026-07-14T08:57:55Z</time>
      </trkpt>
      <trkpt lat="45.19035" lon="5.9564">
        <ele>1480.4</ele>
        <time>2026-07-14T08:57:56Z</time>
      </trkpt>
      <trkpt lat="45.19035" lon="5.95639">
        <ele>1480.6</ele>
        <time>2026-07-14T08:57:57Z</time>
      </trkpt>
      <trkpt lat="45.19035" lon="5.95637">
        <ele>1481</ele>
        <time>2026-07-14T08:57:59Z</time>
      </trkpt>
      <trkpt lat="45.19035" lon="5.95637">
        <ele>1481.2</ele>
        <time>2026-07-14T08:58:00Z</time>
      </trkpt>
      <trkpt lat="45.19035" lon="5.95636">
        <ele>1481.3</ele>
        <time>2026-07-14T08:58:01Z</time>
      </trkpt>
      <trkpt lat="45.19036" lon="5.95635">
        <ele>1481.5</ele>
        <time>2026-07-14T08:58:03Z</time>
      </trkpt>
      <trkpt lat="45.19035" lon="5.95634">
        <ele>1481.8</ele>
        <time>2026-07-14T08:58:04Z</time>
      </trkpt>
      <trkpt lat="45.19035" lon="5.95633">
        <ele>1482</ele>
        <time>2026-07-14T08:58:05Z</time>
      </trkpt>
      <trkpt lat="45.19035" lon="5.95632">
        <ele>1482.1</ele>
        <time>2026-07-14T08:58:06Z</time>
      </trkpt>
      <trkpt lat="45.19035" lon="5.95632">
        <ele>1482.2</ele>
        <time>2026-07-14T08:58:07Z</time>
      </trkpt>
      <trkpt lat="45.19035" lon="5.95631">
        <ele>1482.3</ele>
        <time>2026-07-14T08:58:08Z</time>
      </trkpt>
      <trkpt lat="45.19035" lon="5.9563">
        <ele>1482.5</ele>
        <time>2026-07-14T08:58:10Z</time>
      </trkpt>
      <trkpt lat="45.19035" lon="5.9563">
        <ele>1482.6</ele>
        <time>2026-07-14T08:58:11Z</time>
      </trkpt>
      <trkpt lat="45.19034" lon="5.9563">
        <ele>1482.6</ele>
        <time>2026-07-14T08:58:12Z</time>
      </trkpt>
      <trkpt lat="45.19034" lon="5.95629">
        <ele>1482.8</ele>
        <time>2026-07-14T08:58:14Z</time>
      </trkpt>
      <trkpt lat="45.19034" lon="5.95629">
        <ele>1482.9</ele>
        <time>2026-07-14T08:58:15Z</time>
      </trkpt>
      <trkpt lat="45.19034" lon="5.95628">
        <ele>1483</ele>
        <time>2026-07-14T08:58:17Z</time>
      </trkpt>
      <trkpt lat="45.19034" lon="5.95627">
        <ele>1483.3</ele>
        <time>2026-07-14T08:58:19Z</time>
      </trkpt>
      <trkpt lat="45.19034" lon="5.95626">
        <ele>1483.4</ele>
        <time>2026-07-14T08:58:20Z</time>
      </trkpt>
      <trkpt lat="45.19034" lon="5.95625">
        <ele>1483.6</ele>
        <time>2026-07-14T08:58:21Z</time>
      </trkpt>
      <trkpt lat="45.19033" lon="5.95625">
        <ele>1483.7</ele>
        <time>2026-07-14T08:58:22Z</time>
      </trkpt>
      <trkpt lat="45.19033" lon="5.95624">
        <ele>1483.9</ele>
        <time>2026-07-14T08:58:23Z</time>
      </trkpt>
      <trkpt lat="45.19033" lon="5.95623">
        <ele>1484.1</ele>
        <time>2026-07-14T08:58:24Z</time>
      </trkpt>
      <trkpt lat="45.19033" lon="5.95623">
        <ele>1484.2</ele>
        <time>2026-07-14T08:58:25Z</time>
      </trkpt>
      <trkpt lat="45.19032" lon="5.95623">
        <ele>1484.4</ele>
        <time>2026-07-14T08:58:26Z</time>
      </trkpt>
      <trkpt lat="45.19032" lon="5.95623">
        <ele>1484.5</ele>
        <time>2026-07-14T08:58:27Z</time>
      </trkpt>
      <trkpt lat="45.19031" lon="5.95623">
        <ele>1484.7</ele>
        <time>2026-07-14T08:58:28Z</time>
      </trkpt>
      <trkpt lat="45.19031" lon="5.95624">
        <ele>1484.9</ele>
        <time>2026-07-14T08:58:29Z</time>
      </trkpt>
      <trkpt lat="45.1903" lon="5.95625">
        <ele>1485.2</ele>
        <time>2026-07-14T08:58:30Z</time>
      </trkpt>
      <trkpt lat="45.1903" lon="5.95625">
        <ele>1485.4</ele>
        <time>2026-07-14T08:58:31Z</time>
      </trkpt>
      <trkpt lat="45.19029" lon="5.95626">
        <ele>1485.5</ele>
        <time>2026-07-14T08:58:33Z</time>
      </trkpt>
      <trkpt lat="45.19029" lon="5.95627">
        <ele>1485.8</ele>
        <time>2026-07-14T08:58:34Z</time>
      </trkpt>
      <trkpt lat="45.19028" lon="5.95628">
        <ele>1486</ele>
        <time>2026-07-14T08:58:35Z</time>
      </trkpt>
      <trkpt lat="45.19028" lon="5.95628">
        <ele>1486.1</ele>
        <time>2026-07-14T08:58:36Z</time>
      </trkpt>
      <trkpt lat="45.19028" lon="5.95629">
        <ele>1486.4</ele>
        <time>2026-07-14T08:58:37Z</time>
      </trkpt>
      <trkpt lat="45.19027" lon="5.9563">
        <ele>1486.5</ele>
        <time>2026-07-14T08:58:39Z</time>
      </trkpt>
      <trkpt lat="45.19026" lon="5.95631">
        <ele>1487</ele>
        <time>2026-07-14T08:58:40Z</time>
      </trkpt>
      <trkpt lat="45.19025" lon="5.95633">
        <ele>1487.6</ele>
        <time>2026-07-14T08:58:42Z</time>
      </trkpt>
      <trkpt lat="45.19024" lon="5.95635">
        <ele>1487.9</ele>
        <time>2026-07-14T08:58:43Z</time>
      </trkpt>
      <trkpt lat="45.19023" lon="5.95636">
        <ele>1488.3</ele>
        <time>2026-07-14T08:58:45Z</time>
      </trkpt>
      <trkpt lat="45.19022" lon="5.95638">
        <ele>1488.8</ele>
        <time>2026-07-14T08:58:46Z</time>
      </trkpt>
      <trkpt lat="45.19021" lon="5.95639">
        <ele>1489.2</ele>
        <time>2026-07-14T08:58:48Z</time>
      </trkpt>
      <trkpt lat="45.1902" lon="5.95639">
        <ele>1489.4</ele>
        <time>2026-07-14T08:58:49Z</time>
      </trkpt>
      <trkpt lat="45.19019" lon="5.95639">
        <ele>1489.6</ele>
        <time>2026-07-14T08:58:51Z</time>
      </trkpt>
      <trkpt lat="45.19019" lon="5.95639">
        <ele>1489.8</ele>
        <time>2026-07-14T08:58:52Z</time>
      </trkpt>
      <trkpt lat="45.19018" lon="5.9564">
        <ele>1490.2</ele>
        <time>2026-07-14T08:58:53Z</time>
      </trkpt>
      <trkpt lat="45.19018" lon="5.95641">
        <ele>1490.3</ele>
        <time>2026-07-14T08:58:54Z</time>
      </trkpt>
      <trkpt lat="45.19017" lon="5.95641">
        <ele>1490.5</ele>
        <time>2026-07-14T08:58:56Z</time>
      </trkpt>
      <trkpt lat="45.19016" lon="5.95641">
        <ele>1490.7</ele>
        <time>2026-07-14T08:58:57Z</time>
      </trkpt>
      <trkpt lat="45.19016" lon="5.95641">
        <ele>1490.8</ele>
        <time>2026-07-14T08:58:58Z</time>
      </trkpt>
      <trkpt lat="45.19016" lon="5.9564">
        <ele>1490.9</ele>
        <time>2026-07-14T08:58:59Z</time>
      </trkpt>
      <trkpt lat="45.19016" lon="5.9564">
        <ele>1491</ele>
        <time>2026-07-14T08:59:00Z</time>
      </trkpt>
      <trkpt lat="45.19016" lon="5.95639">
        <ele>1491.2</ele>
        <time>2026-07-14T08:59:01Z</time>
      </trkpt>
      <trkpt lat="45.19016" lon="5.95638">
        <ele>1491.4</ele>
        <time>2026-07-14T08:59:02Z</time>
      </trkpt>
      <trkpt lat="45.19016" lon="5.95637">
        <ele>1491.7</ele>
        <time>2026-07-14T08:59:03Z</time>
      </trkpt>
      <trkpt lat="45.19016" lon="5.95635">
        <ele>1492.1</ele>
        <time>2026-07-14T08:59:04Z</time>
      </trkpt>
      <trkpt lat="45.19017" lon="5.95634">
        <ele>1492.4</ele>
        <time>2026-07-14T08:59:05Z</time>
      </trkpt>
      <trkpt lat="45.19017" lon="5.95633">
        <ele>1492.7</ele>
        <time>2026-07-14T08:59:06Z</time>
      </trkpt>
      <trkpt lat="45.19017" lon="5.95632">
        <ele>1492.8</ele>
        <time>2026-07-14T08:59:07Z</time>
      </trkpt>
      <trkpt lat="45.19017" lon="5.95632">
        <ele>1492.9</ele>
        <time>2026-07-14T08:59:08Z</time>
      </trkpt>
      <trkpt lat="45.19016" lon="5.95631">
        <ele>1493.1</ele>
        <time>2026-07-14T08:59:09Z</time>
      </trkpt>
      <trkpt lat="45.19016" lon="5.95631">
        <ele>1493.2</ele>
        <time>2026-07-14T08:59:10Z</time>
      </trkpt>
      <trkpt lat="45.19016" lon="5.9563">
        <ele>1493.4</ele>
        <time>2026-07-14T08:59:11Z</time>
      </trkpt>
      <trkpt lat="45.19017" lon="5.95629">
        <ele>1493.6</ele>
        <time>2026-07-14T08:59:12Z</time>
      </trkpt>
      <trkpt lat="45.19017" lon="5.95627">
        <ele>1494.1</ele>
        <time>2026-07-14T08:59:14Z</time>
      </trkpt>
      <trkpt lat="45.19017" lon="5.95626">
        <ele>1494.4</ele>
        <time>2026-07-14T08:59:15Z</time>
      </trkpt>
      <trkpt lat="45.19018" lon="5.95625">
        <ele>1494.7</ele>
        <time>2026-07-14T08:59:16Z</time>
      </trkpt>
      <trkpt lat="45.19018" lon="5.95624">
        <ele>1494.9</ele>
        <time>2026-07-14T08:59:17Z</time>
      </trkpt>
      <trkpt lat="45.19018" lon="5.95623">
        <ele>1495.1</ele>
        <time>2026-07-14T08:59:18Z</time>
      </trkpt>
      <trkpt lat="45.19019" lon="5.95622">
        <ele>1495.4</ele>
        <time>2026-07-14T08:59:19Z</time>
      </trkpt>
      <trkpt lat="45.19019" lon="5.95621">
        <ele>1495.6</ele>
        <time>2026-07-14T08:59:20Z</time>
      </trkpt>
      <trkpt lat="45.19019" lon="5.9562">
        <ele>1495.9</ele>
        <time>2026-07-14T08:59:21Z</time>
      </trkpt>
      <trkpt lat="45.1902" lon="5.95619">
        <ele>1496.1</ele>
        <time>2026-07-14T08:59:22Z</time>
      </trkpt>
      <trkpt lat="45.1902" lon="5.95618">
        <ele>1496.3</ele>
        <time>2026-07-14T08:59:23Z</time>
      </trkpt>
      <trkpt lat="45.1902" lon="5.95618">
        <ele>1496.5</ele>
        <time>2026-07-14T08:59:24Z</time>
      </trkpt>
      <trkpt lat="45.1902" lon="5.95617">
        <ele>1496.7</ele>
        <time>2026-07-14T08:59:25Z</time>
      </trkpt>
      <trkpt lat="45.1902" lon="5.95616">
        <ele>1496.9</ele>
        <time>2026-07-14T08:59:26Z</time>
      </trkpt>
      <trkpt lat="45.1902" lon="5.95615">
        <ele>1497</ele>
        <time>2026-07-14T08:59:27Z</time>
      </trkpt>
      <trkpt lat="45.1902" lon="5.95614">
        <ele>1497.4</ele>
        <time>2026-07-14T08:59:29Z</time>
      </trkpt>
      <trkpt lat="45.1902" lon="5.95613">
        <ele>1497.5</ele>
        <time>2026-07-14T08:59:30Z</time>
      </trkpt>
      <trkpt lat="45.1902" lon="5.95612">
        <ele>1497.9</ele>
        <time>2026-07-14T08:59:32Z</time>
      </trkpt>
      <trkpt lat="45.19019" lon="5.95611">
        <ele>1498</ele>
        <time>2026-07-14T08:59:33Z</time>
      </trkpt>
      <trkpt lat="45.19019" lon="5.9561">
        <ele>1498.2</ele>
        <time>2026-07-14T08:59:34Z</time>
      </trkpt>
      <trkpt lat="45.19018" lon="5.9561">
        <ele>1498.5</ele>
        <time>2026-07-14T08:59:35Z</time>
      </trkpt>
      <trkpt lat="45.19018" lon="5.95608">
        <ele>1498.9</ele>
        <time>2026-07-14T08:59:37Z</time>
      </trkpt>
      <trkpt lat="45.19017" lon="5.95607">
        <ele>1499</ele>
        <time>2026-07-14T08:59:38Z</time>
      </trkpt>
      <trkpt lat="45.19018" lon="5.95607">
        <ele>1499.2</ele>
        <time>2026-07-14T08:59:39Z</time>
      </trkpt>
      <trkpt lat="45.19018" lon="5.95606">
        <ele>1499.4</ele>
        <time>2026-07-14T08:59:40Z</time>
      </trkpt>
      <trkpt lat="45.19019" lon="5.95605">
        <ele>1499.6</ele>
        <time>2026-07-14T08:59:41Z</time>
      </trkpt>
      <trkpt lat="45.19019" lon="5.95604">
        <ele>1499.9</ele>
        <time>2026-07-14T08:59:42Z</time>
      </trkpt>
      <trkpt lat="45.19019" lon="5.95603">
        <ele>1500.1</ele>
        <time>2026-07-14T08:59:43Z</time>
      </trkpt>
      <trkpt lat="45.19019" lon="5.95602">
        <ele>1500.3</ele>
        <time>2026-07-14T08:59:44Z</time>
      </trkpt>
      <trkpt lat="45.19019" lon="5.95602">
        <ele>1500.4</ele>
        <time>2026-07-14T08:59:45Z</time>
      </trkpt>
      <trkpt lat="45.19018" lon="5.95602">
        <ele>1500.5</ele>
        <time>2026-07-14T08:59:47Z</time>
      </trkpt>
      <trkpt lat="45.19018" lon="5.95602">
        <ele>1500.6</ele>
        <time>2026-07-14T08:59:48Z</time>
      </trkpt>
      <trkpt lat="45.19018" lon="5.95602">
        <ele>1500.6</ele>
        <time>2026-07-14T08:59:49Z</time>
      </trkpt>
      <trkpt lat="45.19018" lon="5.95601">
        <ele>1500.7</ele>
        <time>2026-07-14T08:59:50Z</time>
      </trkpt>
      <trkpt lat="45.19018" lon="5.95601">
        <ele>1500.8</ele>
        <time>2026-07-14T08:59:52Z</time>
      </trkpt>
      <trkpt lat="45.19018" lon="5.956">
        <ele>1500.9</ele>
        <time>2026-07-14T08:59:53Z</time>
      </trkpt>
      <trkpt lat="45.19019" lon="5.95599">
        <ele>1501.3</ele>
        <time>2026-07-14T08:59:55Z</time>
      </trkpt>
      <trkpt lat="45.19019" lon="5.95597">
        <ele>1501.8</ele>
        <time>2026-07-14T08:59:56Z</time>
      </trkpt>
      <trkpt lat="45.1902" lon="5.95595">
        <ele>1502.1</ele>
        <time>2026-07-14T08:59:57Z</time>
      </trkpt>
      <trkpt lat="45.19021" lon="5.95595">
        <ele>1502.3</ele>
        <time>2026-07-14T08:59:58Z</time>
      </trkpt>
      <trkpt lat="45.19022" lon="5.95594">
        <ele>1502.6</ele>
        <time>2026-07-14T08:59:59Z</time>
      </trkpt>
      <trkpt lat="45.19022" lon="5.95593">
        <ele>1502.8</ele>
        <time>2026-07-14T09:00:00Z</time>
      </trkpt>
      <trkpt lat="45.19022" lon="5.95592">
        <ele>1503</ele>
        <time>2026-07-14T09:00:01Z</time>
      </trkpt>
      <trkpt lat="45.19021" lon="5.95592">
        <ele>1503.1</ele>
        <time>2026-07-14T09:00:03Z</time>
      </trkpt>
      <trkpt lat="45.19021" lon="5.95591">
        <ele>1503.3</ele>
        <time>2026-07-14T09:00:04Z</time>
      </trkpt>
      <trkpt lat="45.19021" lon="5.9559">
        <ele>1503.4</ele>
        <time>2026-07-14T09:00:06Z</time>
      </trkpt>
      <trkpt lat="45.19021" lon="5.9559">
        <ele>1503.5</ele>
        <time>2026-07-14T09:00:07Z</time>
      </trkpt>
      <trkpt lat="45.1902" lon="5.9559">
        <ele>1503.7</ele>
        <time>2026-07-14T09:00:09Z</time>
      </trkpt>
      <trkpt lat="45.19019" lon="5.9559">
        <ele>1503.9</ele>
        <time>2026-07-14T09:00:11Z</time>
      </trkpt>
      <trkpt lat="45.19019" lon="5.9559">
        <ele>1504.1</ele>
        <time>2026-07-14T09:00:12Z</time>
      </trkpt>
      <trkpt lat="45.19018" lon="5.95591">
        <ele>1504.3</ele>
        <time>2026-07-14T09:00:13Z</time>
      </trkpt>
      <trkpt lat="45.19017" lon="5.95592">
        <ele>1504.7</ele>
        <time>2026-07-14T09:00:14Z</time>
      </trkpt>
      <trkpt lat="45.19016" lon="5.95592">
        <ele>1504.9</ele>
        <time>2026-07-14T09:00:15Z</time>
      </trkpt>
      <trkpt lat="45.19015" lon="5.95593">
        <ele>1505.4</ele>
        <time>2026-07-14T09:00:17Z</time>
      </trkpt>
      <trkpt lat="45.19014" lon="5.95594">
        <ele>1505.6</ele>
        <time>2026-07-14T09:00:18Z</time>
      </trkpt>
      <trkpt lat="45.19013" lon="5.95594">
        <ele>1505.8</ele>
        <time>2026-07-14T09:00:19Z</time>
      </trkpt>
      <trkpt lat="45.19012" lon="5.95595">
        <ele>1506.1</ele>
        <time>2026-07-14T09:00:20Z</time>
      </trkpt>
      <trkpt lat="45.19012" lon="5.95596">
        <ele>1506.4</ele>
        <time>2026-07-14T09:00:21Z</time>
      </trkpt>
      <trkpt lat="45.19011" lon="5.95596">
        <ele>1506.6</ele>
        <time>2026-07-14T09:00:22Z</time>
      </trkpt>
      <trkpt lat="45.1901" lon="5.95597">
        <ele>1506.9</ele>
        <time>2026-07-14T09:00:23Z</time>
      </trkpt>
      <trkpt lat="45.19009" lon="5.95597">
        <ele>1507.1</ele>
        <time>2026-07-14T09:00:24Z</time>
      </trkpt>
      <trkpt lat="45.19009" lon="5.95598">
        <ele>1507.3</ele>
        <time>2026-07-14T09:00:25Z</time>
      </trkpt>
      <trkpt lat="45.19008" lon="5.95599">
        <ele>1507.6</ele>
        <time>2026-07-14T09:00:26Z</time>
      </trkpt>
      <trkpt lat="45.19007" lon="5.956">
        <ele>1507.8</ele>
        <time>2026-07-14T09:00:27Z</time>
      </trkpt>
      <trkpt lat="45.19007" lon="5.95601">
        <ele>1508</ele>
        <time>2026-07-14T09:00:28Z</time>
      </trkpt>
      <trkpt lat="45.19007" lon="5.95602">
        <ele>1508.2</ele>
        <time>2026-07-14T09:00:29Z</time>
      </trkpt>
      <trkpt lat="45.19007" lon="5.95602">
        <ele>1508.4</ele>
        <time>2026-07-14T09:00:30Z</time>
      </trkpt>
      <trkpt lat="45.19006" lon="5.95603">
        <ele>1508.6</ele>
        <time>2026-07-14T09:00:31Z</time>
      </trkpt>
      <trkpt lat="45.19006" lon="5.95604">
        <ele>1508.8</ele>
        <time>2026-07-14T09:00:32Z</time>
      </trkpt>
      <trkpt lat="45.19006" lon="5.95605">
        <ele>1509</ele>
        <time>2026-07-14T09:00:33Z</time>
      </trkpt>
      <trkpt lat="45.19005" lon="5.95606">
        <ele>1509.2</ele>
        <time>2026-07-14T09:00:34Z</time>
      </trkpt>
      <trkpt lat="45.19005" lon="5.95607">
        <ele>1509.4</ele>
        <time>2026-07-14T09:00:35Z</time>
      </trkpt>
      <trkpt lat="45.19005" lon="5.95608">
        <ele>1509.6</ele>
        <time>2026-07-14T09:00:36Z</time>
      </trkpt>
      <trkpt lat="45.19005" lon="5.95609">
        <ele>1509.8</ele>
        <time>2026-07-14T09:00:37Z</time>
      </trkpt>
      <trkpt lat="45.19004" lon="5.9561">
        <ele>1509.9</ele>
        <time>2026-07-14T09:00:38Z</time>
      </trkpt>
      <trkpt lat="45.19004" lon="5.95611">
        <ele>1510.2</ele>
        <time>2026-07-14T09:00:39Z</time>
      </trkpt>
      <trkpt lat="45.19004" lon="5.95612">
        <ele>1510.5</ele>
        <time>2026-07-14T09:00:41Z</time>
      </trkpt>
      <trkpt lat="45.19002" lon="5.95614">
        <ele>1510.9</ele>
        <time>2026-07-14T09:00:42Z</time>
      </trkpt>
      <trkpt lat="45.19002" lon="5.95614">
        <ele>1511.1</ele>
        <time>2026-07-14T09:00:43Z</time>
      </trkpt>
      <trkpt lat="45.19001" lon="5.95614">
        <ele>1511.3</ele>
        <time>2026-07-14T09:00:45Z</time>
      </trkpt>
      <trkpt lat="45.19001" lon="5.95614">
        <ele>1511.5</ele>
        <time>2026-07-14T09:00:46Z</time>
      </trkpt>
      <trkpt lat="45.19" lon="5.95614">
        <ele>1511.6</ele>
        <time>2026-07-14T09:00:47Z</time>
      </trkpt>
      <trkpt lat="45.19" lon="5.95614">
        <ele>1511.7</ele>
        <time>2026-07-14T09:00:48Z</time>
      </trkpt>
      <trkpt lat="45.19" lon="5.95614">
        <ele>1511.7</ele>
        <time>2026-07-14T09:00:49Z</time>
      </trkpt>
      <trkpt lat="45.19" lon="5.95614">
        <ele>1511.8</ele>
        <time>2026-07-14T09:00:50Z</time>
      </trkpt>
      <trkpt lat="45.18999" lon="5.95614">
        <ele>1512</ele>
        <time>2026-07-14T09:00:52Z</time>
      </trkpt>
      <trkpt lat="45.18999" lon="5.95614">
        <ele>1512.2</ele>
        <time>2026-07-14T09:00:53Z</time>
      </trkpt>
      <trkpt lat="45.18998" lon="5.95614">
        <ele>1512.3</ele>
        <time>2026-07-14T09:00:54Z</time>
      </trkpt>
      <trkpt lat="45.18998" lon="5.95614">
        <ele>1512.4</ele>
        <time>2026-07-14T09:00:55Z</time>
      </trkpt>
      <trkpt lat="45.18997" lon="5.95614">
        <ele>1512.6</ele>
        <time>2026-07-14T09:00:56Z</time>
      </trkpt>
      <trkpt lat="45.18997" lon="5.95615">
        <ele>1512.7</ele>
        <time>2026-07-14T09:00:57Z</time>
      </trkpt>
      <trkpt lat="45.18997" lon="5.95615">
        <ele>1512.7</ele>
        <time>2026-07-14T09:00:58Z</time>
      </trkpt>
      <trkpt lat="45.18996" lon="5.95614">
        <ele>1512.8</ele>
        <time>2026-07-14T09:00:59Z</time>
      </trkpt>
      <trkpt lat="45.18996" lon="5.95614">
        <ele>1512.9</ele>
        <time>2026-07-14T09:01:00Z</time>
      </trkpt>
      <trkpt lat="45.18996" lon="5.95614">
        <ele>1513</ele>
        <time>2026-07-14T09:01:02Z</time>
      </trkpt>
      <trkpt lat="45.18995" lon="5.95614">
        <ele>1513.2</ele>
        <time>2026-07-14T09:01:03Z</time>
      </trkpt>
      <trkpt lat="45.18995" lon="5.95615">
        <ele>1513.4</ele>
        <time>2026-07-14T09:01:05Z</time>
      </trkpt>
      <trkpt lat="45.18994" lon="5.95615">
        <ele>1513.5</ele>
        <time>2026-07-14T09:01:06Z</time>
      </trkpt>
      <trkpt lat="45.18994" lon="5.95615">
        <ele>1513.6</ele>
        <time>2026-07-14T09:01:07Z</time>
      </trkpt>
      <trkpt lat="45.18993" lon="5.95614">
        <ele>1513.7</ele>
        <time>2026-07-14T09:01:09Z</time>
      </trkpt>
      <trkpt lat="45.18993" lon="5.95614">
        <ele>1513.8</ele>
        <time>2026-07-14T09:01:10Z</time>
      </trkpt>
      <trkpt lat="45.18993" lon="5.95614">
        <ele>1513.9</ele>
        <time>2026-07-14T09:01:11Z</time>
      </trkpt>
      <trkpt lat="45.18992" lon="5.95614">
        <ele>1514</ele>
        <time>2026-07-14T09:01:12Z</time>
      </trkpt>
      <trkpt lat="45.18992" lon="5.95614">
        <ele>1514.1</ele>
        <time>2026-07-14T09:01:13Z</time>
      </trkpt>
      <trkpt lat="45.18992" lon="5.95614">
        <ele>1514.2</ele>
        <time>2026-07-14T09:01:14Z</time>
      </trkpt>
      <trkpt lat="45.18991" lon="5.95614">
        <ele>1514.2</ele>
        <time>2026-07-14T09:01:15Z</time>
      </trkpt>
      <trkpt lat="45.18991" lon="5.95614">
        <ele>1514.3</ele>
        <time>2026-07-14T09:01:16Z</time>
      </trkpt>
      <trkpt lat="45.18991" lon="5.95614">
        <ele>1514.4</ele>
        <time>2026-07-14T09:01:17Z</time>
      </trkpt>
      <trkpt lat="45.18991" lon="5.95614">
        <ele>1514.5</ele>
        <time>2026-07-14T09:01:18Z</time>
      </trkpt>
      <trkpt lat="45.1899" lon="5.95613">
        <ele>1514.5</ele>
        <time>2026-07-14T09:01:19Z</time>
      </trkpt>
      <trkpt lat="45.1899" lon="5.95613">
        <ele>1514.6</ele>
        <time>2026-07-14T09:01:20Z</time>
      </trkpt>
      <trkpt lat="45.1899" lon="5.95613">
        <ele>1514.8</ele>
        <time>2026-07-14T09:01:21Z</time>
      </trkpt>
      <trkpt lat="45.18989" lon="5.95612">
        <ele>1514.9</ele>
        <time>2026-07-14T09:01:22Z</time>
      </trkpt>
      <trkpt lat="45.18989" lon="5.95612">
        <ele>1515.1</ele>
        <time>2026-07-14T09:01:23Z</time>
      </trkpt>
      <trkpt lat="45.18988" lon="5.95611">
        <ele>1515.2</ele>
        <time>2026-07-14T09:01:24Z</time>
      </trkpt>
      <trkpt lat="45.18987" lon="5.95611">
        <ele>1515.5</ele>
        <time>2026-07-14T09:01:25Z</time>
      </trkpt>
      <trkpt lat="45.18987" lon="5.9561">
        <ele>1515.6</ele>
        <time>2026-07-14T09:01:26Z</time>
      </trkpt>
      <trkpt lat="45.18986" lon="5.9561">
        <ele>1515.8</ele>
        <time>2026-07-14T09:01:27Z</time>
      </trkpt>
      <trkpt lat="45.18986" lon="5.95609">
        <ele>1516</ele>
        <time>2026-07-14T09:01:28Z</time>
      </trkpt>
      <trkpt lat="45.18985" lon="5.95608">
        <ele>1516.2</ele>
        <time>2026-07-14T09:01:29Z</time>
      </trkpt>
      <trkpt lat="45.18984" lon="5.95608">
        <ele>1516.4</ele>
        <time>2026-07-14T09:01:30Z</time>
      </trkpt>
      <trkpt lat="45.18984" lon="5.95607">
        <ele>1516.6</ele>
        <time>2026-07-14T09:01:31Z</time>
      </trkpt>
      <trkpt lat="45.18983" lon="5.95607">
        <ele>1516.7</ele>
        <time>2026-07-14T09:01:32Z</time>
      </trkpt>
      <trkpt lat="45.18983" lon="5.95607">
        <ele>1516.9</ele>
        <time>2026-07-14T09:01:33Z</time>
      </trkpt>
      <trkpt lat="45.18982" lon="5.95606">
        <ele>1517.1</ele>
        <time>2026-07-14T09:01:34Z</time>
      </trkpt>
      <trkpt lat="45.18982" lon="5.95606">
        <ele>1517.2</ele>
        <time>2026-07-14T09:01:35Z</time>
      </trkpt>
      <trkpt lat="45.18982" lon="5.95605">
        <ele>1517.3</ele>
        <time>2026-07-14T09:01:36Z</time>
      </trkpt>
      <trkpt lat="45.18982" lon="5.95605">
        <ele>1517.4</ele>
        <time>2026-07-14T09:01:37Z</time>
      </trkpt>
      <trkpt lat="45.18982" lon="5.95605">
        <ele>1517.4</ele>
        <time>2026-07-14T09:01:38Z</time>
      </trkpt>
      <trkpt lat="45.18982" lon="5.95605">
        <ele>1517.5</ele>
        <time>2026-07-14T09:01:39Z</time>
      </trkpt>
      <trkpt lat="45.18983" lon="5.95605">
        <ele>1517.5</ele>
        <time>2026-07-14T09:01:40Z</time>
      </trkpt>
      <trkpt lat="45.18983" lon="5.95605">
        <ele>1517.6</ele>
        <time>2026-07-14T09:01:41Z</time>
      </trkpt>
      <trkpt lat="45.18983" lon="5.95605">
        <ele>1517.6</ele>
        <time>2026-07-14T09:01:42Z</time>
      </trkpt>
      <trkpt lat="45.18983" lon="5.95605">
        <ele>1517.8</ele>
        <time>2026-07-14T09:01:43Z</time>
      </trkpt>
      <trkpt lat="45.18984" lon="5.95605">
        <ele>1517.8</ele>
        <time>2026-07-14T09:01:44Z</time>
      </trkpt>
      <trkpt lat="45.18984" lon="5.95605">
        <ele>1517.9</ele>
        <time>2026-07-14T09:01:45Z</time>
      </trkpt>
      <trkpt lat="45.18984" lon="5.95605">
        <ele>1518.1</ele>
        <time>2026-07-14T09:01:46Z</time>
      </trkpt>
      <trkpt lat="45.18985" lon="5.95604">
        <ele>1518.3</ele>
        <time>2026-07-14T09:01:47Z</time>
      </trkpt>
      <trkpt lat="45.18986" lon="5.95603">
        <ele>1518.6</ele>
        <time>2026-07-14T09:01:48Z</time>
      </trkpt>
      <trkpt lat="45.18987" lon="5.95602">
        <ele>1518.9</ele>
        <time>2026-07-14T09:01:49Z</time>
      </trkpt>
      <trkpt lat="45.18987" lon="5.95601">
        <ele>1519.1</ele>
        <time>2026-07-14T09:01:50Z</time>
      </trkpt>
      <trkpt lat="45.18987" lon="5.95599">
        <ele>1519.4</ele>
        <time>2026-07-14T09:01:52Z</time>
      </trkpt>
      <trkpt lat="45.18987" lon="5.95599">
        <ele>1519.5</ele>
        <time>2026-07-14T09:01:53Z</time>
      </trkpt>
      <trkpt lat="45.18987" lon="5.956">
        <ele>1519.6</ele>
        <time>2026-07-14T09:01:54Z</time>
      </trkpt>
      <trkpt lat="45.18987" lon="5.956">
        <ele>1519.7</ele>
        <time>2026-07-14T09:01:55Z</time>
      </trkpt>
      <trkpt lat="45.18987" lon="5.95601">
        <ele>1519.9</ele>
        <time>2026-07-14T09:01:56Z</time>
      </trkpt>
      <trkpt lat="45.18987" lon="5.95601">
        <ele>1519.9</ele>
        <time>2026-07-14T09:01:57Z</time>
      </trkpt>
      <trkpt lat="45.18987" lon="5.95601">
        <ele>1519.9</ele>
        <time>2026-07-14T09:01:58Z</time>
      </trkpt>
      <trkpt lat="45.18987" lon="5.95601">
        <ele>1519.9</ele>
        <time>2026-07-14T09:01:59Z</time>
      </trkpt>
      <trkpt lat="45.18987" lon="5.95601">
        <ele>1519.9</ele>
        <time>2026-07-14T09:02:00Z</time>
      </trkpt>
      <trkpt lat="45.18987" lon="5.95601">
        <ele>1519.9</ele>
        <time>2026-07-14T09:02:01Z</time>
      </trkpt>
      <trkpt lat="45.18987" lon="5.95601">
        <ele>1520</ele>
        <time>2026-07-14T09:02:02Z</time>
      </trkpt>
      <trkpt lat="45.18987" lon="5.95601">
        <ele>1520</ele>
        <time>2026-07-14T09:02:03Z</time>
      </trkpt>
      <trkpt lat="45.18987" lon="5.95601">
        <ele>1520</ele>
        <time>2026-07-14T09:02:04Z</time>
      </trkpt>
      <trkpt lat="45.18987" lon="5.95601">
        <ele>1520.1</ele>
        <time>2026-07-14T09:02:05Z</time>
      </trkpt>
      <trkpt lat="45.18987" lon="5.956">
        <ele>1520.1</ele>
        <time>2026-07-14T09:02:06Z</time>
      </trkpt>
      <trkpt lat="45.18987" lon="5.95601">
        <ele>1520.4</ele>
        <time>2026-07-14T09:02:07Z</time>
      </trkpt>
      <trkpt lat="45.18988" lon="5.95602">
        <ele>1520.5</ele>
        <time>2026-07-14T09:02:08Z</time>
      </trkpt>
      <trkpt lat="45.18988" lon="5.95602">
        <ele>1520.5</ele>
        <time>2026-07-14T09:02:09Z</time>
      </trkpt>
      <trkpt lat="45.18988" lon="5.95601">
        <ele>1520.8</ele>
        <time>2026-07-14T09:02:11Z</time>
      </trkpt>
      <trkpt lat="45.18988" lon="5.95601">
        <ele>1520.9</ele>
        <time>2026-07-14T09:02:12Z</time>
      </trkpt>
      <trkpt lat="45.18988" lon="5.95602">
        <ele>1521</ele>
        <time>2026-07-14T09:02:13Z</time>
      </trkpt>
      <trkpt lat="45.18988" lon="5.95602">
        <ele>1521.1</ele>
        <time>2026-07-14T09:02:14Z</time>
      </trkpt>
      <trkpt lat="45.18988" lon="5.95603">
        <ele>1521.1</ele>
        <time>2026-07-14T09:02:16Z</time>
      </trkpt>
      <trkpt lat="45.18988" lon="5.95603">
        <ele>1521.2</ele>
        <time>2026-07-14T09:02:18Z</time>
      </trkpt>
      <trkpt lat="45.18988" lon="5.95602">
        <ele>1521.2</ele>
        <time>2026-07-14T09:02:19Z</time>
      </trkpt>
      <trkpt lat="45.18988" lon="5.95602">
        <ele>1521.2</ele>
        <time>2026-07-14T09:02:20Z</time>
      </trkpt>
      <trkpt lat="45.18988" lon="5.95602">
        <ele>1521.2</ele>
        <time>2026-07-14T09:02:21Z</time>
      </trkpt>
      <trkpt lat="45.18988" lon="5.95602">
        <ele>1521.3</ele>
        <time>2026-07-14T09:02:23Z</time>
      </trkpt>
      <trkpt lat="45.18988" lon="5.95602">
        <ele>1521.3</ele>
        <time>2026-07-14T09:02:24Z</time>
      </trkpt>
      <trkpt lat="45.18988" lon="5.95602">
        <ele>1521.3</ele>
        <time>2026-07-14T09:02:25Z</time>
      </trkpt>
      <trkpt lat="45.18988" lon="5.95602">
        <ele>1521.3</ele>
        <time>2026-07-14T09:02:26Z</time>
      </trkpt>
      <trkpt lat="45.18988" lon="5.95602">
        <ele>1521.4</ele>
        <time>2026-07-14T09:02:27Z</time>
      </trkpt>
      <trkpt lat="45.18988" lon="5.95602">
        <ele>1521.4</ele>
        <time>2026-07-14T09:02:28Z</time>
      </trkpt>
      <trkpt lat="45.18988" lon="5.95602">
        <ele>1521.4</ele>
        <time>2026-07-14T09:02:29Z</time>
      </trkpt>
      <trkpt lat="45.18988" lon="5.95602">
        <ele>1521.4</ele>
        <time>2026-07-14T09:02:31Z</time>
      </trkpt>
      <trkpt lat="45.18988" lon="5.95602">
        <ele>1521.4</ele>
        <time>2026-07-14T09:02:32Z</time>
      </trkpt>
      <trkpt lat="45.18988" lon="5.95602">
        <ele>1521.4</ele>
        <time>2026-07-14T09:02:33Z</time>
      </trkpt>
      <trkpt lat="45.18988" lon="5.95602">
        <ele>1521.4</ele>
        <time>2026-07-14T09:02:34Z</time>
      </trkpt>
      <trkpt lat="45.18988" lon="5.95602">
        <ele>1521.4</ele>
        <time>2026-07-14T09:02:36Z</time>
      </trkpt>
      <trkpt lat="45.18988" lon="5.95602">
        <ele>1521.4</ele>
        <time>2026-07-14T09:02:37Z</time>
      </trkpt>
      <trkpt lat="45.18988" lon="5.95602">
        <ele>1521.4</ele>
        <time>2026-07-14T09:02:38Z</time>
      </trkpt>
      <trkpt lat="45.18988" lon="5.95602">
        <ele>1521.4</ele>
        <time>2026-07-14T09:02:39Z</time>
      </trkpt>
      <trkpt lat="45.18988" lon="5.95602">
        <ele>1521.4</ele>
        <time>2026-07-14T09:02:40Z</time>
      </trkpt>
      <trkpt lat="45.18988" lon="5.95602">
        <ele>1521.4</ele>
        <time>2026-07-14T09:02:42Z</time>
      </trkpt>
      <trkpt lat="45.18988" lon="5.95602">
        <ele>1521.5</ele>
        <time>2026-07-14T09:02:43Z</time>
      </trkpt>
      <trkpt lat="45.18988" lon="5.95602">
        <ele>1521.5</ele>
        <time>2026-07-14T09:02:44Z</time>
      </trkpt>
      <trkpt lat="45.18988" lon="5.95601">
        <ele>1521.5</ele>
        <time>2026-07-14T09:02:45Z</time>
      </trkpt>
      <trkpt lat="45.18988" lon="5.95602">
        <ele>1521.6</ele>
        <time>2026-07-14T09:02:46Z</time>
      </trkpt>
      <trkpt lat="45.18988" lon="5.95602">
        <ele>1521.7</ele>
        <time>2026-07-14T09:02:47Z</time>
      </trkpt>
      <trkpt lat="45.18987" lon="5.95602">
        <ele>1521.7</ele>
        <time>2026-07-14T09:02:48Z</time>
      </trkpt>
      <trkpt lat="45.18987" lon="5.95602">
        <ele>1521.8</ele>
        <time>2026-07-14T09:02:49Z</time>
      </trkpt>
      <trkpt lat="45.18986" lon="5.95602">
        <ele>1522</ele>
        <time>2026-07-14T09:02:50Z</time>
      </trkpt>
      <trkpt lat="45.18986" lon="5.95601">
        <ele>1522.1</ele>
        <time>2026-07-14T09:02:51Z</time>
      </trkpt>
      <trkpt lat="45.18985" lon="5.95602">
        <ele>1522.3</ele>
        <time>2026-07-14T09:02:52Z</time>
      </trkpt>
      <trkpt lat="45.18985" lon="5.95602">
        <ele>1522.4</ele>
        <time>2026-07-14T09:02:54Z</time>
      </trkpt>
      <trkpt lat="45.18985" lon="5.95602">
        <ele>1522.5</ele>
        <time>2026-07-14T09:02:55Z</time>
      </trkpt>
      <trkpt lat="45.18984" lon="5.95603">
        <ele>1522.6</ele>
        <time>2026-07-14T09:02:56Z</time>
      </trkpt>
      <trkpt lat="45.18984" lon="5.95603">
        <ele>1522.7</ele>
        <time>2026-07-14T09:02:57Z</time>
      </trkpt>
      <trkpt lat="45.18984" lon="5.95603">
        <ele>1522.7</ele>
        <time>2026-07-14T09:02:58Z</time>
      </trkpt>
      <trkpt lat="45.18984" lon="5.95603">
        <ele>1522.8</ele>
        <time>2026-07-14T09:02:59Z</time>
      </trkpt>
      <trkpt lat="45.18984" lon="5.95603">
        <ele>1522.8</ele>
        <time>2026-07-14T09:03:01Z</time>
      </trkpt>
      <trkpt lat="45.18984" lon="5.95603">
        <ele>1522.8</ele>
        <time>2026-07-14T09:03:02Z</time>
      </trkpt>
      <trkpt lat="45.18984" lon="5.95603">
        <ele>1522.8</ele>
        <time>2026-07-14T09:03:04Z</time>
      </trkpt>
      <trkpt lat="45.18984" lon="5.95603">
        <ele>1522.8</ele>
        <time>2026-07-14T09:03:06Z</time>
      </trkpt>
      <trkpt lat="45.18984" lon="5.95603">
        <ele>1522.8</ele>
        <time>2026-07-14T09:03:07Z</time>
      </trkpt>
      <trkpt lat="45.18984" lon="5.95603">
        <ele>1522.9</ele>
        <time>2026-07-14T09:03:08Z</time>
      </trkpt>
      <trkpt lat="45.18984" lon="5.95603">
        <ele>1522.9</ele>
        <time>2026-07-14T09:03:09Z</time>
      </trkpt>
      <trkpt lat="45.18984" lon="5.95603">
        <ele>1522.9</ele>
        <time>2026-07-14T09:03:11Z</time>
      </trkpt>
      <trkpt lat="45.18984" lon="5.95603">
        <ele>1522.9</ele>
        <time>2026-07-14T09:03:12Z</time>
      </trkpt>
      <trkpt lat="45.18984" lon="5.95602">
        <ele>1523</ele>
        <time>2026-07-14T09:03:14Z</time>
      </trkpt>
      <trkpt lat="45.18984" lon="5.95602">
        <ele>1523</ele>
        <time>2026-07-14T09:03:15Z</time>
      </trkpt>
      <trkpt lat="45.18984" lon="5.95602">
        <ele>1523.1</ele>
        <time>2026-07-14T09:03:16Z</time>
      </trkpt>
      <trkpt lat="45.18984" lon="5.95602">
        <ele>1523.1</ele>
        <time>2026-07-14T09:03:17Z</time>
      </trkpt>
      <trkpt lat="45.18984" lon="5.95602">
        <ele>1523.1</ele>
        <time>2026-07-14T09:03:18Z</time>
      </trkpt>
      <trkpt lat="45.18984" lon="5.95602">
        <ele>1523.1</ele>
        <time>2026-07-14T09:03:19Z</time>
      </trkpt>
      <trkpt lat="45.18984" lon="5.95601">
        <ele>1523.2</ele>
        <time>2026-07-14T09:03:20Z</time>
      </trkpt>
      <trkpt lat="45.18984" lon="5.95601">
        <ele>1523.2</ele>
        <time>2026-07-14T09:03:21Z</time>
      </trkpt>
      <trkpt lat="45.18984" lon="5.95601">
        <ele>1523.3</ele>
        <time>2026-07-14T09:03:22Z</time>
      </trkpt>
      <trkpt lat="45.18984" lon="5.95601">
        <ele>1523.3</ele>
        <time>2026-07-14T09:03:23Z</time>
      </trkpt>
      <trkpt lat="45.18984" lon="5.95601">
        <ele>1523.3</ele>
        <time>2026-07-14T09:03:24Z</time>
      </trkpt>
      <trkpt lat="45.18984" lon="5.95601">
        <ele>1523.3</ele>
        <time>2026-07-14T09:03:25Z</time>
      </trkpt>
      <trkpt lat="45.18984" lon="5.95601">
        <ele>1523.4</ele>
        <time>2026-07-14T09:03:26Z</time>
      </trkpt>
      <trkpt lat="45.18985" lon="5.95601">
        <ele>1523.4</ele>
        <time>2026-07-14T09:03:27Z</time>
      </trkpt>
      <trkpt lat="45.18985" lon="5.95601">
        <ele>1523.4</ele>
        <time>2026-07-14T09:03:28Z</time>
      </trkpt>
      <trkpt lat="45.18985" lon="5.95601">
        <ele>1523.5</ele>
        <time>2026-07-14T09:03:30Z</time>
      </trkpt>
      <trkpt lat="45.18985" lon="5.95601">
        <ele>1523.5</ele>
        <time>2026-07-14T09:03:31Z</time>
      </trkpt>
      <trkpt lat="45.18985" lon="5.956">
        <ele>1523.5</ele>
        <time>2026-07-14T09:03:33Z</time>
      </trkpt>
      <trkpt lat="45.18985" lon="5.956">
        <ele>1523.5</ele>
        <time>2026-07-14T09:03:34Z</time>
      </trkpt>
      <trkpt lat="45.18985" lon="5.956">
        <ele>1523.5</ele>
        <time>2026-07-14T09:03:35Z</time>
      </trkpt>
      <trkpt lat="45.18985" lon="5.956">
        <ele>1523.5</ele>
        <time>2026-07-14T09:03:36Z</time>
      </trkpt>
      <trkpt lat="45.18985" lon="5.956">
        <ele>1523.5</ele>
        <time>2026-07-14T09:03:37Z</time>
      </trkpt>
      <trkpt lat="45.18985" lon="5.956">
        <ele>1523.5</ele>
        <time>2026-07-14T09:03:38Z</time>
      </trkpt>
      <trkpt lat="45.18985" lon="5.956">
        <ele>1523.5</ele>
        <time>2026-07-14T09:03:39Z</time>
      </trkpt>
      <trkpt lat="45.18985" lon="5.956">
        <ele>1523.5</ele>
        <time>2026-07-14T09:03:40Z</time>
      </trkpt>
      <trkpt lat="45.18985" lon="5.956">
        <ele>1523.5</ele>
        <time>2026-07-14T09:03:41Z</time>
      </trkpt>
      <trkpt lat="45.18985" lon="5.956">
        <ele>1523.5</ele>
        <time>2026-07-14T09:03:43Z</time>
      </trkpt>
      <trkpt lat="45.18985" lon="5.95601">
        <ele>1523.7</ele>
        <time>2026-07-14T09:03:44Z</time>
      </trkpt>
      <trkpt lat="45.18984" lon="5.95603">
        <ele>1524</ele>
        <time>2026-07-14T09:03:46Z</time>
      </trkpt>
      <trkpt lat="45.18984" lon="5.95603">
        <ele>1524.2</ele>
        <time>2026-07-14T09:03:47Z</time>
      </trkpt>
      <trkpt lat="45.18983" lon="5.95605">
        <ele>1524.6</ele>
        <time>2026-07-14T09:03:49Z</time>
      </trkpt>
      <trkpt lat="45.18983" lon="5.95606">
        <ele>1524.8</ele>
        <time>2026-07-14T09:03:50Z</time>
      </trkpt>
      <trkpt lat="45.18982" lon="5.95608">
        <ele>1525.1</ele>
        <time>2026-07-14T09:03:51Z</time>
      </trkpt>
      <trkpt lat="45.18982" lon="5.95609">
        <ele>1525.4</ele>
        <time>2026-07-14T09:03:52Z</time>
      </trkpt>
      <trkpt lat="45.18982" lon="5.9561">
        <ele>1525.6</ele>
        <time>2026-07-14T09:03:53Z</time>
      </trkpt>
      <trkpt lat="45.18981" lon="5.95611">
        <ele>1525.9</ele>
        <time>2026-07-14T09:03:55Z</time>
      </trkpt>
      <trkpt lat="45.1898" lon="5.95612">
        <ele>1526.1</ele>
        <time>2026-07-14T09:03:56Z</time>
      </trkpt>
      <trkpt lat="45.1898" lon="5.95612">
        <ele>1526.3</ele>
        <time>2026-07-14T09:03:57Z</time>
      </trkpt>
      <trkpt lat="45.18979" lon="5.95612">
        <ele>1526.5</ele>
        <time>2026-07-14T09:03:58Z</time>
      </trkpt>
      <trkpt lat="45.18978" lon="5.95613">
        <ele>1526.7</ele>
        <time>2026-07-14T09:03:59Z</time>
      </trkpt>
      <trkpt lat="45.18977" lon="5.95613">
        <ele>1527.1</ele>
        <time>2026-07-14T09:04:01Z</time>
      </trkpt>
      <trkpt lat="45.18977" lon="5.95614">
        <ele>1527.3</ele>
        <time>2026-07-14T09:04:03Z</time>
      </trkpt>
      <trkpt lat="45.18977" lon="5.95616">
        <ele>1527.7</ele>
        <time>2026-07-14T09:04:04Z</time>
      </trkpt>
      <trkpt lat="45.18976" lon="5.95617">
        <ele>1527.9</ele>
        <time>2026-07-14T09:04:05Z</time>
      </trkpt>
      <trkpt lat="45.18976" lon="5.95618">
        <ele>1528</ele>
        <time>2026-07-14T09:04:06Z</time>
      </trkpt>
      <trkpt lat="45.18976" lon="5.95618">
        <ele>1528.2</ele>
        <time>2026-07-14T09:04:07Z</time>
      </trkpt>
      <trkpt lat="45.18975" lon="5.95619">
        <ele>1528.4</ele>
        <time>2026-07-14T09:04:08Z</time>
      </trkpt>
      <trkpt lat="45.18975" lon="5.9562">
        <ele>1528.7</ele>
        <time>2026-07-14T09:04:09Z</time>
      </trkpt>
      <trkpt lat="45.18974" lon="5.9562">
        <ele>1528.8</ele>
        <time>2026-07-14T09:04:10Z</time>
      </trkpt>
      <trkpt lat="45.18974" lon="5.95621">
        <ele>1529</ele>
        <time>2026-07-14T09:04:11Z</time>
      </trkpt>
      <trkpt lat="45.18973" lon="5.95622">
        <ele>1529.2</ele>
        <time>2026-07-14T09:04:12Z</time>
      </trkpt>
      <trkpt lat="45.18973" lon="5.95623">
        <ele>1529.4</ele>
        <time>2026-07-14T09:04:13Z</time>
      </trkpt>
      <trkpt lat="45.18972" lon="5.95623">
        <ele>1529.6</ele>
        <time>2026-07-14T09:04:14Z</time>
      </trkpt>
      <trkpt lat="45.18972" lon="5.95623">
        <ele>1529.7</ele>
        <time>2026-07-14T09:04:15Z</time>
      </trkpt>
      <trkpt lat="45.18971" lon="5.95623">
        <ele>1529.9</ele>
        <time>2026-07-14T09:04:16Z</time>
      </trkpt>
      <trkpt lat="45.1897" lon="5.95624">
        <ele>1530.3</ele>
        <time>2026-07-14T09:04:18Z</time>
      </trkpt>
      <trkpt lat="45.18969" lon="5.95623">
        <ele>1530.5</ele>
        <time>2026-07-14T09:04:19Z</time>
      </trkpt>
      <trkpt lat="45.18968" lon="5.95623">
        <ele>1530.9</ele>
        <time>2026-07-14T09:04:21Z</time>
      </trkpt>
      <trkpt lat="45.18967" lon="5.95623">
        <ele>1531.1</ele>
        <time>2026-07-14T09:04:22Z</time>
      </trkpt>
      <trkpt lat="45.18967" lon="5.95623">
        <ele>1531.2</ele>
        <time>2026-07-14T09:04:23Z</time>
      </trkpt>
      <trkpt lat="45.18966" lon="5.95622">
        <ele>1531.7</ele>
        <time>2026-07-14T09:04:25Z</time>
      </trkpt>
      <trkpt lat="45.18965" lon="5.95621">
        <ele>1531.8</ele>
        <time>2026-07-14T09:04:26Z</time>
      </trkpt>
      <trkpt lat="45.18964" lon="5.95622">
        <ele>1532.1</ele>
        <time>2026-07-14T09:04:27Z</time>
      </trkpt>
      <trkpt lat="45.18963" lon="5.95622">
        <ele>1532.4</ele>
        <time>2026-07-14T09:04:29Z</time>
      </trkpt>
      <trkpt lat="45.18963" lon="5.95622">
        <ele>1532.5</ele>
        <time>2026-07-14T09:04:30Z</time>
      </trkpt>
      <trkpt lat="45.18964" lon="5.95621">
        <ele>1532.6</ele>
        <time>2026-07-14T09:04:31Z</time>
      </trkpt>
      <trkpt lat="45.18964" lon="5.95621">
        <ele>1532.7</ele>
        <time>2026-07-14T09:04:33Z</time>
      </trkpt>
      <trkpt lat="45.18964" lon="5.95621">
        <ele>1532.7</ele>
        <time>2026-07-14T09:04:34Z</time>
      </trkpt>
      <trkpt lat="45.18964" lon="5.95621">
        <ele>1532.7</ele>
        <time>2026-07-14T09:04:35Z</time>
      </trkpt>
      <trkpt lat="45.18963" lon="5.95621">
        <ele>1532.9</ele>
        <time>2026-07-14T09:04:37Z</time>
      </trkpt>
      <trkpt lat="45.18963" lon="5.95621">
        <ele>1532.9</ele>
        <time>2026-07-14T09:04:38Z</time>
      </trkpt>
      <trkpt lat="45.18963" lon="5.95621">
        <ele>1533</ele>
        <time>2026-07-14T09:04:39Z</time>
      </trkpt>
      <trkpt lat="45.18963" lon="5.9562">
        <ele>1533.2</ele>
        <time>2026-07-14T09:04:41Z</time>
      </trkpt>
      <trkpt lat="45.18962" lon="5.9562">
        <ele>1533.3</ele>
        <time>2026-07-14T09:04:42Z</time>
      </trkpt>
      <trkpt lat="45.18962" lon="5.9562">
        <ele>1533.3</ele>
        <time>2026-07-14T09:04:43Z</time>
      </trkpt>
      <trkpt lat="45.18962" lon="5.9562">
        <ele>1533.4</ele>
        <time>2026-07-14T09:04:44Z</time>
      </trkpt>
      <trkpt lat="45.18961" lon="5.95619">
        <ele>1533.5</ele>
        <time>2026-07-14T09:04:46Z</time>
      </trkpt>
      <trkpt lat="45.1896" lon="5.95619">
        <ele>1533.8</ele>
        <time>2026-07-14T09:04:47Z</time>
      </trkpt>
      <trkpt lat="45.18959" lon="5.95618">
        <ele>1534.1</ele>
        <time>2026-07-14T09:04:48Z</time>
      </trkpt>
      <trkpt lat="45.18958" lon="5.95618">
        <ele>1534.4</ele>
        <time>2026-07-14T09:04:50Z</time>
      </trkpt>
      <trkpt lat="45.18958" lon="5.95618">
        <ele>1534.5</ele>
        <time>2026-07-14T09:04:51Z</time>
      </trkpt>
      <trkpt lat="45.18957" lon="5.95618">
        <ele>1534.6</ele>
        <time>2026-07-14T09:04:52Z</time>
      </trkpt>
      <trkpt lat="45.18957" lon="5.95617">
        <ele>1534.7</ele>
        <time>2026-07-14T09:04:53Z</time>
      </trkpt>
      <trkpt lat="45.18957" lon="5.95617">
        <ele>1534.8</ele>
        <time>2026-07-14T09:04:54Z</time>
      </trkpt>
      <trkpt lat="45.18956" lon="5.95617">
        <ele>1534.8</ele>
        <time>2026-07-14T09:04:55Z</time>
      </trkpt>
      <trkpt lat="45.18956" lon="5.95617">
        <ele>1534.9</ele>
        <time>2026-07-14T09:04:56Z</time>
      </trkpt>
      <trkpt lat="45.18956" lon="5.95617">
        <ele>1535</ele>
        <time>2026-07-14T09:04:57Z</time>
      </trkpt>
      <trkpt lat="45.18956" lon="5.95617">
        <ele>1535</ele>
        <time>2026-07-14T09:04:58Z</time>
      </trkpt>
      <trkpt lat="45.18955" lon="5.95617">
        <ele>1535.1</ele>
        <time>2026-07-14T09:04:59Z</time>
      </trkpt>
      <trkpt lat="45.18955" lon="5.95617">
        <ele>1535.3</ele>
        <time>2026-07-14T09:05:00Z</time>
      </trkpt>
      <trkpt lat="45.18954" lon="5.95617">
        <ele>1535.4</ele>
        <time>2026-07-14T09:05:02Z</time>
      </trkpt>
      <trkpt lat="45.18954" lon="5.95616">
        <ele>1535.5</ele>
        <time>2026-07-14T09:05:04Z</time>
      </trkpt>
      <trkpt lat="45.18953" lon="5.95616">
        <ele>1535.6</ele>
        <time>2026-07-14T09:05:05Z</time>
      </trkpt>
      <trkpt lat="45.18953" lon="5.95616">
        <ele>1535.8</ele>
        <time>2026-07-14T09:05:07Z</time>
      </trkpt>
      <trkpt lat="45.18953" lon="5.95615">
        <ele>1535.9</ele>
        <time>2026-07-14T09:05:08Z</time>
      </trkpt>
      <trkpt lat="45.18952" lon="5.95615">
        <ele>1536</ele>
        <time>2026-07-14T09:05:09Z</time>
      </trkpt>
      <trkpt lat="45.18952" lon="5.95615">
        <ele>1536</ele>
        <time>2026-07-14T09:05:11Z</time>
      </trkpt>
      <trkpt lat="45.18952" lon="5.95614">
        <ele>1536.1</ele>
        <time>2026-07-14T09:05:12Z</time>
      </trkpt>
      <trkpt lat="45.18951" lon="5.95614">
        <ele>1536.2</ele>
        <time>2026-07-14T09:05:14Z</time>
      </trkpt>
      <trkpt lat="45.18951" lon="5.95614">
        <ele>1536.3</ele>
        <time>2026-07-14T09:05:15Z</time>
      </trkpt>
      <trkpt lat="45.1895" lon="5.95614">
        <ele>1536.5</ele>
        <time>2026-07-14T09:05:16Z</time>
      </trkpt>
      <trkpt lat="45.1895" lon="5.95613">
        <ele>1536.6</ele>
        <time>2026-07-14T09:05:17Z</time>
      </trkpt>
      <trkpt lat="45.1895" lon="5.95613">
        <ele>1536.6</ele>
        <time>2026-07-14T09:05:18Z</time>
      </trkpt>
      <trkpt lat="45.18949" lon="5.95613">
        <ele>1536.8</ele>
        <time>2026-07-14T09:05:19Z</time>
      </trkpt>
      <trkpt lat="45.18949" lon="5.95613">
        <ele>1536.9</ele>
        <time>2026-07-14T09:05:20Z</time>
      </trkpt>
      <trkpt lat="45.18948" lon="5.95613">
        <ele>1536.9</ele>
        <time>2026-07-14T09:05:22Z</time>
      </trkpt>
      <trkpt lat="45.18948" lon="5.95614">
        <ele>1537</ele>
        <time>2026-07-14T09:05:23Z</time>
      </trkpt>
      <trkpt lat="45.18947" lon="5.95614">
        <ele>1537.2</ele>
        <time>2026-07-14T09:05:24Z</time>
      </trkpt>
      <trkpt lat="45.18947" lon="5.95614">
        <ele>1537.3</ele>
        <time>2026-07-14T09:05:25Z</time>
      </trkpt>
      <trkpt lat="45.18946" lon="5.95614">
        <ele>1537.5</ele>
        <time>2026-07-14T09:05:27Z</time>
      </trkpt>
      <trkpt lat="45.18946" lon="5.95614">
        <ele>1537.5</ele>
        <time>2026-07-14T09:05:28Z</time>
      </trkpt>
      <trkpt lat="45.18945" lon="5.95615">
        <ele>1537.7</ele>
        <time>2026-07-14T09:05:29Z</time>
      </trkpt>
      <trkpt lat="45.18945" lon="5.95615">
        <ele>1537.7</ele>
        <time>2026-07-14T09:05:30Z</time>
      </trkpt>
      <trkpt lat="45.18945" lon="5.95615">
        <ele>1537.8</ele>
        <time>2026-07-14T09:05:31Z</time>
      </trkpt>
      <trkpt lat="45.18945" lon="5.95615">
        <ele>1537.8</ele>
        <time>2026-07-14T09:05:32Z</time>
      </trkpt>
      <trkpt lat="45.18944" lon="5.95616">
        <ele>1538</ele>
        <time>2026-07-14T09:05:34Z</time>
      </trkpt>
      <trkpt lat="45.18944" lon="5.95616">
        <ele>1538.1</ele>
        <time>2026-07-14T09:05:35Z</time>
      </trkpt>
      <trkpt lat="45.18944" lon="5.95616">
        <ele>1538.1</ele>
        <time>2026-07-14T09:05:36Z</time>
      </trkpt>
      <trkpt lat="45.18943" lon="5.95617">
        <ele>1538.3</ele>
        <time>2026-07-14T09:05:38Z</time>
      </trkpt>
      <trkpt lat="45.18943" lon="5.95617">
        <ele>1538.3</ele>
        <time>2026-07-14T09:05:39Z</time>
      </trkpt>
      <trkpt lat="45.18943" lon="5.95617">
        <ele>1538.4</ele>
        <time>2026-07-14T09:05:40Z</time>
      </trkpt>
      <trkpt lat="45.18943" lon="5.95618">
        <ele>1538.4</ele>
        <time>2026-07-14T09:05:41Z</time>
      </trkpt>
      <trkpt lat="45.18943" lon="5.95618">
        <ele>1538.5</ele>
        <time>2026-07-14T09:05:42Z</time>
      </trkpt>
      <trkpt lat="45.18942" lon="5.95618">
        <ele>1538.7</ele>
        <time>2026-07-14T09:05:44Z</time>
      </trkpt>
      <trkpt lat="45.18941" lon="5.95618">
        <ele>1538.8</ele>
        <time>2026-07-14T09:05:45Z</time>
      </trkpt>
      <trkpt lat="45.18941" lon="5.95619">
        <ele>1538.9</ele>
        <time>2026-07-14T09:05:46Z</time>
      </trkpt>
      <trkpt lat="45.18941" lon="5.95619">
        <ele>1538.9</ele>
        <time>2026-07-14T09:05:47Z</time>
      </trkpt>
      <trkpt lat="45.1894" lon="5.95619">
        <ele>1539</ele>
        <time>2026-07-14T09:05:48Z</time>
      </trkpt>
      <trkpt lat="45.1894" lon="5.95619">
        <ele>1539.1</ele>
        <time>2026-07-14T09:05:49Z</time>
      </trkpt>
      <trkpt lat="45.18939" lon="5.95619">
        <ele>1539.3</ele>
        <time>2026-07-14T09:05:50Z</time>
      </trkpt>
      <trkpt lat="45.18939" lon="5.9562">
        <ele>1539.5</ele>
        <time>2026-07-14T09:05:52Z</time>
      </trkpt>
      <trkpt lat="45.18938" lon="5.9562">
        <ele>1539.6</ele>
        <time>2026-07-14T09:05:53Z</time>
      </trkpt>
      <trkpt lat="45.18938" lon="5.9562">
        <ele>1539.6</ele>
        <time>2026-07-14T09:05:54Z</time>
      </trkpt>
      <trkpt lat="45.18938" lon="5.9562">
        <ele>1539.7</ele>
        <time>2026-07-14T09:05:55Z</time>
      </trkpt>
      <trkpt lat="45.18938" lon="5.95621">
        <ele>1539.7</ele>
        <time>2026-07-14T09:05:56Z</time>
      </trkpt>
      <trkpt lat="45.18937" lon="5.95621">
        <ele>1539.8</ele>
        <time>2026-07-14T09:05:57Z</time>
      </trkpt>
      <trkpt lat="45.18937" lon="5.95621">
        <ele>1540</ele>
        <time>2026-07-14T09:05:59Z</time>
      </trkpt>
      <trkpt lat="45.18936" lon="5.95621">
        <ele>1540</ele>
        <time>2026-07-14T09:06:00Z</time>
      </trkpt>
      <trkpt lat="45.18936" lon="5.95621">
        <ele>1540.1</ele>
        <time>2026-07-14T09:06:01Z</time>
      </trkpt>
      <trkpt lat="45.18936" lon="5.95622">
        <ele>1540.3</ele>
        <time>2026-07-14T09:06:03Z</time>
      </trkpt>
      <trkpt lat="45.18935" lon="5.95622">
        <ele>1540.4</ele>
        <time>2026-07-14T09:06:04Z</time>
      </trkpt>
      <trkpt lat="45.18935" lon="5.95623">
        <ele>1540.5</ele>
        <time>2026-07-14T09:06:06Z</time>
      </trkpt>
      <trkpt lat="45.18935" lon="5.95623">
        <ele>1540.5</ele>
        <time>2026-07-14T09:06:07Z</time>
      </trkpt>
      <trkpt lat="45.18934" lon="5.95623">
        <ele>1540.7</ele>
        <time>2026-07-14T09:06:08Z</time>
      </trkpt>
      <trkpt lat="45.18934" lon="5.95624">
        <ele>1540.8</ele>
        <time>2026-07-14T09:06:09Z</time>
      </trkpt>
      <trkpt lat="45.18934" lon="5.95624">
        <ele>1540.9</ele>
        <time>2026-07-14T09:06:10Z</time>
      </trkpt>
      <trkpt lat="45.18933" lon="5.95625">
        <ele>1541.1</ele>
        <time>2026-07-14T09:06:11Z</time>
      </trkpt>
      <trkpt lat="45.18932" lon="5.95625">
        <ele>1541.3</ele>
        <time>2026-07-14T09:06:12Z</time>
      </trkpt>
      <trkpt lat="45.18932" lon="5.95626">
        <ele>1541.3</ele>
        <time>2026-07-14T09:06:13Z</time>
      </trkpt>
      <trkpt lat="45.18931" lon="5.95627">
        <ele>1541.6</ele>
        <time>2026-07-14T09:06:15Z</time>
      </trkpt>
      <trkpt lat="45.18931" lon="5.95627">
        <ele>1541.8</ele>
        <time>2026-07-14T09:06:16Z</time>
      </trkpt>
      <trkpt lat="45.1893" lon="5.95629">
        <ele>1542.2</ele>
        <time>2026-07-14T09:06:18Z</time>
      </trkpt>
      <trkpt lat="45.18929" lon="5.95629">
        <ele>1542.3</ele>
        <time>2026-07-14T09:06:19Z</time>
      </trkpt>
      <trkpt lat="45.18929" lon="5.9563">
        <ele>1542.4</ele>
        <time>2026-07-14T09:06:20Z</time>
      </trkpt>
      <trkpt lat="45.18929" lon="5.95631">
        <ele>1542.8</ele>
        <time>2026-07-14T09:06:21Z</time>
      </trkpt>
      <trkpt lat="45.18928" lon="5.95633">
        <ele>1543.1</ele>
        <time>2026-07-14T09:06:22Z</time>
      </trkpt>
      <trkpt lat="45.18928" lon="5.95634">
        <ele>1543.4</ele>
        <time>2026-07-14T09:06:23Z</time>
      </trkpt>
      <trkpt lat="45.18928" lon="5.95635">
        <ele>1543.6</ele>
        <time>2026-07-14T09:06:24Z</time>
      </trkpt>
      <trkpt lat="45.18928" lon="5.95636">
        <ele>1543.7</ele>
        <time>2026-07-14T09:06:25Z</time>
      </trkpt>
      <trkpt lat="45.18928" lon="5.95637">
        <ele>1543.9</ele>
        <time>2026-07-14T09:06:26Z</time>
      </trkpt>
      <trkpt lat="45.18928" lon="5.95638">
        <ele>1544.1</ele>
        <time>2026-07-14T09:06:27Z</time>
      </trkpt>
      <trkpt lat="45.18928" lon="5.95639">
        <ele>1544.2</ele>
        <time>2026-07-14T09:06:28Z</time>
      </trkpt>
      <trkpt lat="45.18927" lon="5.9564">
        <ele>1544.5</ele>
        <time>2026-07-14T09:06:29Z</time>
      </trkpt>
      <trkpt lat="45.18927" lon="5.9564">
        <ele>1544.7</ele>
        <time>2026-07-14T09:06:30Z</time>
      </trkpt>
      <trkpt lat="45.18926" lon="5.95641">
        <ele>1544.8</ele>
        <time>2026-07-14T09:06:31Z</time>
      </trkpt>
      <trkpt lat="45.18926" lon="5.95641">
        <ele>1545</ele>
        <time>2026-07-14T09:06:32Z</time>
      </trkpt>
      <trkpt lat="45.18925" lon="5.95642">
        <ele>1545.1</ele>
        <time>2026-07-14T09:06:34Z</time>
      </trkpt>
      <trkpt lat="45.18925" lon="5.95642">
        <ele>1545.4</ele>
        <time>2026-07-14T09:06:35Z</time>
      </trkpt>
      <trkpt lat="45.18924" lon="5.95643">
        <ele>1545.5</ele>
        <time>2026-07-14T09:06:36Z</time>
      </trkpt>
      <trkpt lat="45.18924" lon="5.95643">
        <ele>1545.6</ele>
        <time>2026-07-14T09:06:38Z</time>
      </trkpt>
      <trkpt lat="45.18923" lon="5.95644">
        <ele>1545.9</ele>
        <time>2026-07-14T09:06:39Z</time>
      </trkpt>
      <trkpt lat="45.18923" lon="5.95644">
        <ele>1546</ele>
        <time>2026-07-14T09:06:40Z</time>
      </trkpt>
      <trkpt lat="45.18922" lon="5.95644">
        <ele>1546.1</ele>
        <time>2026-07-14T09:06:41Z</time>
      </trkpt>
      <trkpt lat="45.18922" lon="5.95644">
        <ele>1546.2</ele>
        <time>2026-07-14T09:06:42Z</time>
      </trkpt>
      <trkpt lat="45.18922" lon="5.95644">
        <ele>1546.3</ele>
        <time>2026-07-14T09:06:44Z</time>
      </trkpt>
      <trkpt lat="45.18921" lon="5.95644">
        <ele>1546.5</ele>
        <time>2026-07-14T09:06:45Z</time>
      </trkpt>
      <trkpt lat="45.1892" lon="5.95644">
        <ele>1546.7</ele>
        <time>2026-07-14T09:06:46Z</time>
      </trkpt>
      <trkpt lat="45.1892" lon="5.95644">
        <ele>1546.8</ele>
        <time>2026-07-14T09:06:47Z</time>
      </trkpt>
      <trkpt lat="45.18919" lon="5.95645">
        <ele>1546.9</ele>
        <time>2026-07-14T09:06:48Z</time>
      </trkpt>
      <trkpt lat="45.18919" lon="5.95645">
        <ele>1547.1</ele>
        <time>2026-07-14T09:06:50Z</time>
      </trkpt>
      <trkpt lat="45.18918" lon="5.95645">
        <ele>1547.5</ele>
        <time>2026-07-14T09:06:51Z</time>
      </trkpt>
      <trkpt lat="45.18917" lon="5.95645">
        <ele>1547.5</ele>
        <time>2026-07-14T09:06:52Z</time>
      </trkpt>
      <trkpt lat="45.18917" lon="5.95645">
        <ele>1547.7</ele>
        <time>2026-07-14T09:06:54Z</time>
      </trkpt>
      <trkpt lat="45.18916" lon="5.95646">
        <ele>1548</ele>
        <time>2026-07-14T09:06:56Z</time>
      </trkpt>
      <trkpt lat="45.18916" lon="5.95646">
        <ele>1548.1</ele>
        <time>2026-07-14T09:06:57Z</time>
      </trkpt>
      <trkpt lat="45.18915" lon="5.95646">
        <ele>1548.3</ele>
        <time>2026-07-14T09:06:58Z</time>
      </trkpt>
      <trkpt lat="45.18915" lon="5.95646">
        <ele>1548.5</ele>
        <time>2026-07-14T09:07:00Z</time>
      </trkpt>
      <trkpt lat="45.18914" lon="5.95646">
        <ele>1548.6</ele>
        <time>2026-07-14T09:07:01Z</time>
      </trkpt>
      <trkpt lat="45.18914" lon="5.95646">
        <ele>1548.8</ele>
        <time>2026-07-14T09:07:02Z</time>
      </trkpt>
      <trkpt lat="45.18913" lon="5.95646">
        <ele>1548.9</ele>
        <time>2026-07-14T09:07:03Z</time>
      </trkpt>
      <trkpt lat="45.18913" lon="5.95647">
        <ele>1548.9</ele>
        <time>2026-07-14T09:07:04Z</time>
      </trkpt>
      <trkpt lat="45.18913" lon="5.95647">
        <ele>1549.1</ele>
        <time>2026-07-14T09:07:06Z</time>
      </trkpt>
      <trkpt lat="45.18912" lon="5.95648">
        <ele>1549.4</ele>
        <time>2026-07-14T09:07:08Z</time>
      </trkpt>
      <trkpt lat="45.18912" lon="5.95649">
        <ele>1549.5</ele>
        <time>2026-07-14T09:07:09Z</time>
      </trkpt>
      <trkpt lat="45.18912" lon="5.95649">
        <ele>1549.5</ele>
        <time>2026-07-14T09:07:10Z</time>
      </trkpt>
      <trkpt lat="45.18911" lon="5.95649">
        <ele>1549.8</ele>
        <time>2026-07-14T09:07:12Z</time>
      </trkpt>
      <trkpt lat="45.18911" lon="5.95649">
        <ele>1549.8</ele>
        <time>2026-07-14T09:07:13Z</time>
      </trkpt>
      <trkpt lat="45.1891" lon="5.9565">
        <ele>1549.9</ele>
        <time>2026-07-14T09:07:14Z</time>
      </trkpt>
      <trkpt lat="45.1891" lon="5.9565">
        <ele>1550.1</ele>
        <time>2026-07-14T09:07:15Z</time>
      </trkpt>
      <trkpt lat="45.18909" lon="5.9565">
        <ele>1550.2</ele>
        <time>2026-07-14T09:07:17Z</time>
      </trkpt>
      <trkpt lat="45.18909" lon="5.9565">
        <ele>1550.3</ele>
        <time>2026-07-14T09:07:18Z</time>
      </trkpt>
      <trkpt lat="45.18908" lon="5.9565">
        <ele>1550.6</ele>
        <time>2026-07-14T09:07:20Z</time>
      </trkpt>
      <trkpt lat="45.18907" lon="5.95652">
        <ele>1551</ele>
        <time>2026-07-14T09:07:22Z</time>
      </trkpt>
      <trkpt lat="45.18907" lon="5.95652">
        <ele>1551</ele>
        <time>2026-07-14T09:07:23Z</time>
      </trkpt>
      <trkpt lat="45.18907" lon="5.95652">
        <ele>1551.1</ele>
        <time>2026-07-14T09:07:24Z</time>
      </trkpt>
      <trkpt lat="45.18908" lon="5.95652">
        <ele>1551.2</ele>
        <time>2026-07-14T09:07:25Z</time>
      </trkpt>
      <trkpt lat="45.18908" lon="5.95652">
        <ele>1551.3</ele>
        <time>2026-07-14T09:07:27Z</time>
      </trkpt>
      <trkpt lat="45.18908" lon="5.95653">
        <ele>1551.4</ele>
        <time>2026-07-14T09:07:28Z</time>
      </trkpt>
      <trkpt lat="45.18909" lon="5.95653">
        <ele>1551.6</ele>
        <time>2026-07-14T09:07:30Z</time>
      </trkpt>
      <trkpt lat="45.18909" lon="5.95653">
        <ele>1551.7</ele>
        <time>2026-07-14T09:07:32Z</time>
      </trkpt>
      <trkpt lat="45.18909" lon="5.95653">
        <ele>1551.7</ele>
        <time>2026-07-14T09:07:33Z</time>
      </trkpt>
      <trkpt lat="45.1891" lon="5.95653">
        <ele>1551.8</ele>
        <time>2026-07-14T09:07:34Z</time>
      </trkpt>
      <trkpt lat="45.1891" lon="5.95653">
        <ele>1551.8</ele>
        <time>2026-07-14T09:07:35Z</time>
      </trkpt>
      <trkpt lat="45.1891" lon="5.95653">
        <ele>1551.8</ele>
        <time>2026-07-14T09:07:36Z</time>
      </trkpt>
      <trkpt lat="45.1891" lon="5.95653">
        <ele>1551.8</ele>
        <time>2026-07-14T09:07:37Z</time>
      </trkpt>
      <trkpt lat="45.1891" lon="5.95653">
        <ele>1551.9</ele>
        <time>2026-07-14T09:07:38Z</time>
      </trkpt>
      <trkpt lat="45.1891" lon="5.95653">
        <ele>1551.9</ele>
        <time>2026-07-14T09:07:39Z</time>
      </trkpt>
      <trkpt lat="45.1891" lon="5.95653">
        <ele>1551.9</ele>
        <time>2026-07-14T09:07:40Z</time>
      </trkpt>
      <trkpt lat="45.1891" lon="5.95653">
        <ele>1551.9</ele>
        <time>2026-07-14T09:07:41Z</time>
      </trkpt>
      <trkpt lat="45.1891" lon="5.95653">
        <ele>1551.9</ele>
        <time>2026-07-14T09:07:42Z</time>
      </trkpt>
      <trkpt lat="45.1891" lon="5.95653">
        <ele>1552</ele>
        <time>2026-07-14T09:07:43Z</time>
      </trkpt>
      <trkpt lat="45.1891" lon="5.95653">
        <ele>1552</ele>
        <time>2026-07-14T09:07:44Z</time>
      </trkpt>
      <trkpt lat="45.1891" lon="5.95653">
        <ele>1552</ele>
        <time>2026-07-14T09:07:45Z</time>
      </trkpt>
      <trkpt lat="45.1891" lon="5.95653">
        <ele>1552</ele>
        <time>2026-07-14T09:07:46Z</time>
      </trkpt>
      <trkpt lat="45.1891" lon="5.95653">
        <ele>1552</ele>
        <time>2026-07-14T09:07:47Z</time>
      </trkpt>
      <trkpt lat="45.1891" lon="5.95653">
        <ele>1552</ele>
        <time>2026-07-14T09:07:48Z</time>
      </trkpt>
      <trkpt lat="45.1891" lon="5.95653">
        <ele>1552</ele>
        <time>2026-07-14T09:07:49Z</time>
      </trkpt>
      <trkpt lat="45.1891" lon="5.95653">
        <ele>1552.1</ele>
        <time>2026-07-14T09:07:51Z</time>
      </trkpt>
      <trkpt lat="45.18909" lon="5.95653">
        <ele>1552.3</ele>
        <time>2026-07-14T09:07:52Z</time>
      </trkpt>
      <trkpt lat="45.18908" lon="5.95654">
        <ele>1552.5</ele>
        <time>2026-07-14T09:07:53Z</time>
      </trkpt>
      <trkpt lat="45.18908" lon="5.95654">
        <ele>1552.7</ele>
        <time>2026-07-14T09:07:54Z</time>
      </trkpt>
      <trkpt lat="45.18907" lon="5.95654">
        <ele>1552.8</ele>
        <time>2026-07-14T09:07:55Z</time>
      </trkpt>
      <trkpt lat="45.18907" lon="5.95655">
        <ele>1553</ele>
        <time>2026-07-14T09:07:56Z</time>
      </trkpt>
      <trkpt lat="45.18906" lon="5.95655">
        <ele>1553.3</ele>
        <time>2026-07-14T09:07:58Z</time>
      </trkpt>
      <trkpt lat="45.18905" lon="5.95655">
        <ele>1553.5</ele>
        <time>2026-07-14T09:07:59Z</time>
      </trkpt>
      <trkpt lat="45.18905" lon="5.95656">
        <ele>1553.7</ele>
        <time>2026-07-14T09:08:00Z</time>
      </trkpt>
      <trkpt lat="45.18905" lon="5.95656">
        <ele>1553.8</ele>
        <time>2026-07-14T09:08:01Z</time>
      </trkpt>
      <trkpt lat="45.18904" lon="5.95657">
        <ele>1553.9</ele>
        <time>2026-07-14T09:08:02Z</time>
      </trkpt>
      <trkpt lat="45.18904" lon="5.95657">
        <ele>1554</ele>
        <time>2026-07-14T09:08:03Z</time>
      </trkpt>
      <trkpt lat="45.18903" lon="5.95657">
        <ele>1554.2</ele>
        <time>2026-07-14T09:08:05Z</time>
      </trkpt>
      <trkpt lat="45.18902" lon="5.95657">
        <ele>1554.5</ele>
        <time>2026-07-14T09:08:07Z</time>
      </trkpt>
      <trkpt lat="45.18902" lon="5.95658">
        <ele>1554.6</ele>
        <time>2026-07-14T09:08:08Z</time>
      </trkpt>
      <trkpt lat="45.18901" lon="5.95659">
        <ele>1554.8</ele>
        <time>2026-07-14T09:08:09Z</time>
      </trkpt>
      <trkpt lat="45.189" lon="5.95659">
        <ele>1555</ele>
        <time>2026-07-14T09:08:10Z</time>
      </trkpt>
      <trkpt lat="45.189" lon="5.9566">
        <ele>1555.1</ele>
        <time>2026-07-14T09:08:11Z</time>
      </trkpt>
      <trkpt lat="45.189" lon="5.95661">
        <ele>1555.3</ele>
        <time>2026-07-14T09:08:12Z</time>
      </trkpt>
      <trkpt lat="45.189" lon="5.95661">
        <ele>1555.4</ele>
        <time>2026-07-14T09:08:13Z</time>
      </trkpt>
      <trkpt lat="45.189" lon="5.95662">
        <ele>1555.5</ele>
        <time>2026-07-14T09:08:14Z</time>
      </trkpt>
      <trkpt lat="45.189" lon="5.95662">
        <ele>1555.6</ele>
        <time>2026-07-14T09:08:16Z</time>
      </trkpt>
      <trkpt lat="45.189" lon="5.95662">
        <ele>1555.6</ele>
        <time>2026-07-14T09:08:17Z</time>
      </trkpt>
      <trkpt lat="45.18899" lon="5.95663">
        <ele>1555.9</ele>
        <time>2026-07-14T09:08:18Z</time>
      </trkpt>
      <trkpt lat="45.18899" lon="5.95663">
        <ele>1556</ele>
        <time>2026-07-14T09:08:19Z</time>
      </trkpt>
      <trkpt lat="45.18898" lon="5.95664">
        <ele>1556.1</ele>
        <time>2026-07-14T09:08:21Z</time>
      </trkpt>
      <trkpt lat="45.18898" lon="5.95664">
        <ele>1556.3</ele>
        <time>2026-07-14T09:08:22Z</time>
      </trkpt>
      <trkpt lat="45.18897" lon="5.95665">
        <ele>1556.4</ele>
        <time>2026-07-14T09:08:23Z</time>
      </trkpt>
      <trkpt lat="45.18896" lon="5.95665">
        <ele>1556.6</ele>
        <time>2026-07-14T09:08:25Z</time>
      </trkpt>
      <trkpt lat="45.18896" lon="5.95665">
        <ele>1556.7</ele>
        <time>2026-07-14T09:08:26Z</time>
      </trkpt>
      <trkpt lat="45.18895" lon="5.95665">
        <ele>1556.8</ele>
        <time>2026-07-14T09:08:27Z</time>
      </trkpt>
      <trkpt lat="45.18895" lon="5.95665">
        <ele>1556.9</ele>
        <time>2026-07-14T09:08:28Z</time>
      </trkpt>
      <trkpt lat="45.18894" lon="5.95665">
        <ele>1557.1</ele>
        <time>2026-07-14T09:08:29Z</time>
      </trkpt>
      <trkpt lat="45.18894" lon="5.95665">
        <ele>1557.2</ele>
        <time>2026-07-14T09:08:31Z</time>
      </trkpt>
      <trkpt lat="45.18893" lon="5.95664">
        <ele>1557.4</ele>
        <time>2026-07-14T09:08:32Z</time>
      </trkpt>
      <trkpt lat="45.18892" lon="5.95664">
        <ele>1557.5</ele>
        <time>2026-07-14T09:08:33Z</time>
      </trkpt>
      <trkpt lat="45.18892" lon="5.95664">
        <ele>1557.6</ele>
        <time>2026-07-14T09:08:34Z</time>
      </trkpt>
      <trkpt lat="45.18891" lon="5.95664">
        <ele>1557.7</ele>
        <time>2026-07-14T09:08:35Z</time>
      </trkpt>
      <trkpt lat="45.18891" lon="5.95663">
        <ele>1557.8</ele>
        <time>2026-07-14T09:08:37Z</time>
      </trkpt>
      <trkpt lat="45.18891" lon="5.95663">
        <ele>1557.9</ele>
        <time>2026-07-14T09:08:39Z</time>
      </trkpt>
      <trkpt lat="45.1889" lon="5.95664">
        <ele>1557.9</ele>
        <time>2026-07-14T09:08:40Z</time>
      </trkpt>
      <trkpt lat="45.1889" lon="5.95664">
        <ele>1558</ele>
        <time>2026-07-14T09:08:41Z</time>
      </trkpt>
      <trkpt lat="45.1889" lon="5.95664">
        <ele>1558.1</ele>
        <time>2026-07-14T09:08:42Z</time>
      </trkpt>
      <trkpt lat="45.1889" lon="5.95665">
        <ele>1558.2</ele>
        <time>2026-07-14T09:08:43Z</time>
      </trkpt>
      <trkpt lat="45.1889" lon="5.95665">
        <ele>1558.2</ele>
        <time>2026-07-14T09:08:44Z</time>
      </trkpt>
      <trkpt lat="45.18889" lon="5.95665">
        <ele>1558.3</ele>
        <time>2026-07-14T09:08:45Z</time>
      </trkpt>
      <trkpt lat="45.18889" lon="5.95665">
        <ele>1558.3</ele>
        <time>2026-07-14T09:08:46Z</time>
      </trkpt>
      <trkpt lat="45.18889" lon="5.95665">
        <ele>1558.4</ele>
        <time>2026-07-14T09:08:48Z</time>
      </trkpt>
      <trkpt lat="45.18888" lon="5.95665">
        <ele>1558.5</ele>
        <time>2026-07-14T09:08:49Z</time>
      </trkpt>
      <trkpt lat="45.18889" lon="5.95666">
        <ele>1558.5</ele>
        <time>2026-07-14T09:08:50Z</time>
      </trkpt>
      <trkpt lat="45.18889" lon="5.95666">
        <ele>1558.5</ele>
        <time>2026-07-14T09:08:51Z</time>
      </trkpt>
      <trkpt lat="45.18889" lon="5.95666">
        <ele>1558.6</ele>
        <time>2026-07-14T09:08:52Z</time>
      </trkpt>
      <trkpt lat="45.18889" lon="5.95666">
        <ele>1558.6</ele>
        <time>2026-07-14T09:08:53Z</time>
      </trkpt>
      <trkpt lat="45.18889" lon="5.95666">
        <ele>1558.6</ele>
        <time>2026-07-14T09:08:54Z</time>
      </trkpt>
      <trkpt lat="45.18888" lon="5.95666">
        <ele>1558.7</ele>
        <time>2026-07-14T09:08:56Z</time>
      </trkpt>
      <trkpt lat="45.18888" lon="5.95667">
        <ele>1558.7</ele>
        <time>2026-07-14T09:08:57Z</time>
      </trkpt>
      <trkpt lat="45.18888" lon="5.95667">
        <ele>1558.8</ele>
        <time>2026-07-14T09:08:58Z</time>
      </trkpt>
      <trkpt lat="45.18887" lon="5.95667">
        <ele>1558.9</ele>
        <time>2026-07-14T09:09:00Z</time>
      </trkpt>
      <trkpt lat="45.18887" lon="5.95667">
        <ele>1558.9</ele>
        <time>2026-07-14T09:09:01Z</time>
      </trkpt>
      <trkpt lat="45.18886" lon="5.95668">
        <ele>1559.1</ele>
        <time>2026-07-14T09:09:02Z</time>
      </trkpt>
      <trkpt lat="45.18885" lon="5.95669">
        <ele>1559.3</ele>
        <time>2026-07-14T09:09:04Z</time>
      </trkpt>
      <trkpt lat="45.18885" lon="5.9567">
        <ele>1559.5</ele>
        <time>2026-07-14T09:09:06Z</time>
      </trkpt>
      <trkpt lat="45.18884" lon="5.95671">
        <ele>1559.6</ele>
        <time>2026-07-14T09:09:07Z</time>
      </trkpt>
      <trkpt lat="45.18884" lon="5.95671">
        <ele>1559.7</ele>
        <time>2026-07-14T09:09:08Z</time>
      </trkpt>
      <trkpt lat="45.18884" lon="5.95672">
        <ele>1559.8</ele>
        <time>2026-07-14T09:09:09Z</time>
      </trkpt>
      <trkpt lat="45.18884" lon="5.95672">
        <ele>1559.9</ele>
        <time>2026-07-14T09:09:10Z</time>
      </trkpt>
      <trkpt lat="45.18883" lon="5.95673">
        <ele>1560</ele>
        <time>2026-07-14T09:09:11Z</time>
      </trkpt>
      <trkpt lat="45.18882" lon="5.95673">
        <ele>1560.1</ele>
        <time>2026-07-14T09:09:12Z</time>
      </trkpt>
      <trkpt lat="45.18882" lon="5.95674">
        <ele>1560.3</ele>
        <time>2026-07-14T09:09:13Z</time>
      </trkpt>
      <trkpt lat="45.18881" lon="5.95675">
        <ele>1560.4</ele>
        <time>2026-07-14T09:09:14Z</time>
      </trkpt>
      <trkpt lat="45.1888" lon="5.95675">
        <ele>1560.6</ele>
        <time>2026-07-14T09:09:15Z</time>
      </trkpt>
      <trkpt lat="45.18879" lon="5.95676">
        <ele>1560.7</ele>
        <time>2026-07-14T09:09:16Z</time>
      </trkpt>
      <trkpt lat="45.18879" lon="5.95676">
        <ele>1560.9</ele>
        <time>2026-07-14T09:09:17Z</time>
      </trkpt>
      <trkpt lat="45.18878" lon="5.95677">
        <ele>1561</ele>
        <time>2026-07-14T09:09:18Z</time>
      </trkpt>
      <trkpt lat="45.18877" lon="5.95677">
        <ele>1561.1</ele>
        <time>2026-07-14T09:09:19Z</time>
      </trkpt>
      <trkpt lat="45.18877" lon="5.95678">
        <ele>1561.2</ele>
        <time>2026-07-14T09:09:20Z</time>
      </trkpt>
      <trkpt lat="45.18876" lon="5.95678">
        <ele>1561.3</ele>
        <time>2026-07-14T09:09:21Z</time>
      </trkpt>
      <trkpt lat="45.18876" lon="5.95679">
        <ele>1561.5</ele>
        <time>2026-07-14T09:09:23Z</time>
      </trkpt>
      <trkpt lat="45.18875" lon="5.95679">
        <ele>1561.6</ele>
        <time>2026-07-14T09:09:24Z</time>
      </trkpt>
      <trkpt lat="45.18874" lon="5.9568">
        <ele>1561.8</ele>
        <time>2026-07-14T09:09:26Z</time>
      </trkpt>
      <trkpt lat="45.18874" lon="5.95681">
        <ele>1562</ele>
        <time>2026-07-14T09:09:27Z</time>
      </trkpt>
      <trkpt lat="45.18873" lon="5.95682">
        <ele>1562.1</ele>
        <time>2026-07-14T09:09:28Z</time>
      </trkpt>
      <trkpt lat="45.18873" lon="5.95682">
        <ele>1562.2</ele>
        <time>2026-07-14T09:09:29Z</time>
      </trkpt>
      <trkpt lat="45.18873" lon="5.95683">
        <ele>1562.3</ele>
        <time>2026-07-14T09:09:30Z</time>
      </trkpt>
      <trkpt lat="45.18872" lon="5.95684">
        <ele>1562.5</ele>
        <time>2026-07-14T09:09:31Z</time>
      </trkpt>
      <trkpt lat="45.18872" lon="5.95685">
        <ele>1562.7</ele>
        <time>2026-07-14T09:09:32Z</time>
      </trkpt>
      <trkpt lat="45.18872" lon="5.95686">
        <ele>1562.8</ele>
        <time>2026-07-14T09:09:33Z</time>
      </trkpt>
      <trkpt lat="45.18872" lon="5.95689">
        <ele>1563.2</ele>
        <time>2026-07-14T09:09:35Z</time>
      </trkpt>
      <trkpt lat="45.18871" lon="5.95691">
        <ele>1563.5</ele>
        <time>2026-07-14T09:09:37Z</time>
      </trkpt>
      <trkpt lat="45.18871" lon="5.95693">
        <ele>1563.8</ele>
        <time>2026-07-14T09:09:39Z</time>
      </trkpt>
      <trkpt lat="45.18871" lon="5.95694">
        <ele>1564</ele>
        <time>2026-07-14T09:09:40Z</time>
      </trkpt>
      <trkpt lat="45.1887" lon="5.95695">
        <ele>1564.2</ele>
        <time>2026-07-14T09:09:42Z</time>
      </trkpt>
      <trkpt lat="45.1887" lon="5.95696">
        <ele>1564.4</ele>
        <time>2026-07-14T09:09:43Z</time>
      </trkpt>
      <trkpt lat="45.18869" lon="5.95697">
        <ele>1564.6</ele>
        <time>2026-07-14T09:09:45Z</time>
      </trkpt>
      <trkpt lat="45.18869" lon="5.95699">
        <ele>1564.9</ele>
        <time>2026-07-14T09:09:47Z</time>
      </trkpt>
      <trkpt lat="45.18868" lon="5.95699">
        <ele>1565</ele>
        <time>2026-07-14T09:09:48Z</time>
      </trkpt>
      <trkpt lat="45.18867" lon="5.95699">
        <ele>1565.3</ele>
        <time>2026-07-14T09:09:50Z</time>
      </trkpt>
      <trkpt lat="45.18866" lon="5.95699">
        <ele>1565.4</ele>
        <time>2026-07-14T09:09:51Z</time>
      </trkpt>
      <trkpt lat="45.18866" lon="5.957">
        <ele>1565.6</ele>
        <time>2026-07-14T09:09:52Z</time>
      </trkpt>
      <trkpt lat="45.18866" lon="5.957">
        <ele>1565.7</ele>
        <time>2026-07-14T09:09:53Z</time>
      </trkpt>
      <trkpt lat="45.18865" lon="5.95699">
        <ele>1565.9</ele>
        <time>2026-07-14T09:09:54Z</time>
      </trkpt>
      <trkpt lat="45.18864" lon="5.95699">
        <ele>1566</ele>
        <time>2026-07-14T09:09:55Z</time>
      </trkpt>
      <trkpt lat="45.18863" lon="5.95699">
        <ele>1566.2</ele>
        <time>2026-07-14T09:09:56Z</time>
      </trkpt>
      <trkpt lat="45.18862" lon="5.957">
        <ele>1566.5</ele>
        <time>2026-07-14T09:09:58Z</time>
      </trkpt>
      <trkpt lat="45.18861" lon="5.957">
        <ele>1566.6</ele>
        <time>2026-07-14T09:09:59Z</time>
      </trkpt>
      <trkpt lat="45.18861" lon="5.957">
        <ele>1566.8</ele>
        <time>2026-07-14T09:10:00Z</time>
      </trkpt>
      <trkpt lat="45.18861" lon="5.957">
        <ele>1566.8</ele>
        <time>2026-07-14T09:10:01Z</time>
      </trkpt>
      <trkpt lat="45.1886" lon="5.957">
        <ele>1566.9</ele>
        <time>2026-07-14T09:10:02Z</time>
      </trkpt>
      <trkpt lat="45.1886" lon="5.957">
        <ele>1567</ele>
        <time>2026-07-14T09:10:03Z</time>
      </trkpt>
      <trkpt lat="45.18859" lon="5.957">
        <ele>1567.1</ele>
        <time>2026-07-14T09:10:04Z</time>
      </trkpt>
      <trkpt lat="45.18859" lon="5.95701">
        <ele>1567.2</ele>
        <time>2026-07-14T09:10:05Z</time>
      </trkpt>
      <trkpt lat="45.18859" lon="5.95701">
        <ele>1567.2</ele>
        <time>2026-07-14T09:10:06Z</time>
      </trkpt>
      <trkpt lat="45.18859" lon="5.95701">
        <ele>1567.3</ele>
        <time>2026-07-14T09:10:07Z</time>
      </trkpt>
      <trkpt lat="45.18859" lon="5.95701">
        <ele>1567.4</ele>
        <time>2026-07-14T09:10:09Z</time>
      </trkpt>
      <trkpt lat="45.18859" lon="5.95702">
        <ele>1567.4</ele>
        <time>2026-07-14T09:10:10Z</time>
      </trkpt>
      <trkpt lat="45.18859" lon="5.95702">
        <ele>1567.5</ele>
        <time>2026-07-14T09:10:11Z</time>
      </trkpt>
      <trkpt lat="45.18859" lon="5.95702">
        <ele>1567.6</ele>
        <time>2026-07-14T09:10:12Z</time>
      </trkpt>
      <trkpt lat="45.1886" lon="5.95702">
        <ele>1567.6</ele>
        <time>2026-07-14T09:10:13Z</time>
      </trkpt>
      <trkpt lat="45.1886" lon="5.95702">
        <ele>1567.7</ele>
        <time>2026-07-14T09:10:14Z</time>
      </trkpt>
      <trkpt lat="45.1886" lon="5.95702">
        <ele>1567.7</ele>
        <time>2026-07-14T09:10:15Z</time>
      </trkpt>
      <trkpt lat="45.1886" lon="5.95702">
        <ele>1567.8</ele>
        <time>2026-07-14T09:10:16Z</time>
      </trkpt>
      <trkpt lat="45.18859" lon="5.95703">
        <ele>1567.9</ele>
        <time>2026-07-14T09:10:17Z</time>
      </trkpt>
      <trkpt lat="45.18859" lon="5.95702">
        <ele>1568</ele>
        <time>2026-07-14T09:10:18Z</time>
      </trkpt>
      <trkpt lat="45.18859" lon="5.95703">
        <ele>1568</ele>
        <time>2026-07-14T09:10:19Z</time>
      </trkpt>
      <trkpt lat="45.18858" lon="5.95704">
        <ele>1568.3</ele>
        <time>2026-07-14T09:10:21Z</time>
      </trkpt>
      <trkpt lat="45.18858" lon="5.95704">
        <ele>1568.4</ele>
        <time>2026-07-14T09:10:22Z</time>
      </trkpt>
      <trkpt lat="45.18858" lon="5.95705">
        <ele>1568.5</ele>
        <time>2026-07-14T09:10:23Z</time>
      </trkpt>
      <trkpt lat="45.18857" lon="5.95706">
        <ele>1568.6</ele>
        <time>2026-07-14T09:10:24Z</time>
      </trkpt>
      <trkpt lat="45.18857" lon="5.95706">
        <ele>1568.7</ele>
        <time>2026-07-14T09:10:25Z</time>
      </trkpt>
      <trkpt lat="45.18857" lon="5.95707">
        <ele>1568.9</ele>
        <time>2026-07-14T09:10:27Z</time>
      </trkpt>
      <trkpt lat="45.18857" lon="5.95708">
        <ele>1568.9</ele>
        <time>2026-07-14T09:10:28Z</time>
      </trkpt>
      <trkpt lat="45.18857" lon="5.95708">
        <ele>1569</ele>
        <time>2026-07-14T09:10:29Z</time>
      </trkpt>
      <trkpt lat="45.18857" lon="5.95709">
        <ele>1569.1</ele>
        <time>2026-07-14T09:10:30Z</time>
      </trkpt>
      <trkpt lat="45.18857" lon="5.95709">
        <ele>1569.2</ele>
        <time>2026-07-14T09:10:31Z</time>
      </trkpt>
      <trkpt lat="45.18856" lon="5.9571">
        <ele>1569.5</ele>
        <time>2026-07-14T09:10:33Z</time>
      </trkpt>
      <trkpt lat="45.18855" lon="5.95711">
        <ele>1569.6</ele>
        <time>2026-07-14T09:10:34Z</time>
      </trkpt>
      <trkpt lat="45.18855" lon="5.95711">
        <ele>1569.8</ele>
        <time>2026-07-14T09:10:35Z</time>
      </trkpt>
      <trkpt lat="45.18855" lon="5.95712">
        <ele>1569.9</ele>
        <time>2026-07-14T09:10:36Z</time>
      </trkpt>
      <trkpt lat="45.18854" lon="5.95713">
        <ele>1570.1</ele>
        <time>2026-07-14T09:10:37Z</time>
      </trkpt>
      <trkpt lat="45.18854" lon="5.95714">
        <ele>1570.3</ele>
        <time>2026-07-14T09:10:38Z</time>
      </trkpt>
      <trkpt lat="45.18853" lon="5.95715">
        <ele>1570.4</ele>
        <time>2026-07-14T09:10:39Z</time>
      </trkpt>
      <trkpt lat="45.18853" lon="5.95716">
        <ele>1570.6</ele>
        <time>2026-07-14T09:10:40Z</time>
      </trkpt>
      <trkpt lat="45.18852" lon="5.95716">
        <ele>1570.8</ele>
        <time>2026-07-14T09:10:41Z</time>
      </trkpt>
      <trkpt lat="45.18851" lon="5.95717">
        <ele>1570.9</ele>
        <time>2026-07-14T09:10:42Z</time>
      </trkpt>
      <trkpt lat="45.1885" lon="5.95717">
        <ele>1571.2</ele>
        <time>2026-07-14T09:10:44Z</time>
      </trkpt>
      <trkpt lat="45.18849" lon="5.95718">
        <ele>1571.5</ele>
        <time>2026-07-14T09:10:46Z</time>
      </trkpt>
      <trkpt lat="45.18849" lon="5.95718">
        <ele>1571.6</ele>
        <time>2026-07-14T09:10:47Z</time>
      </trkpt>
      <trkpt lat="45.18848" lon="5.95718">
        <ele>1571.6</ele>
        <time>2026-07-14T09:10:48Z</time>
      </trkpt>
      <trkpt lat="45.18848" lon="5.95718">
        <ele>1571.7</ele>
        <time>2026-07-14T09:10:49Z</time>
      </trkpt>
      <trkpt lat="45.18848" lon="5.95718">
        <ele>1571.8</ele>
        <time>2026-07-14T09:10:50Z</time>
      </trkpt>
      <trkpt lat="45.18847" lon="5.95718">
        <ele>1571.9</ele>
        <time>2026-07-14T09:10:51Z</time>
      </trkpt>
      <trkpt lat="45.18847" lon="5.95718">
        <ele>1572.1</ele>
        <time>2026-07-14T09:10:53Z</time>
      </trkpt>
      <trkpt lat="45.18846" lon="5.95718">
        <ele>1572.2</ele>
        <time>2026-07-14T09:10:54Z</time>
      </trkpt>
      <trkpt lat="45.18846" lon="5.95718">
        <ele>1572.3</ele>
        <time>2026-07-14T09:10:55Z</time>
      </trkpt>
      <trkpt lat="45.18845" lon="5.95719">
        <ele>1572.4</ele>
        <time>2026-07-14T09:10:56Z</time>
      </trkpt>
      <trkpt lat="45.18844" lon="5.9572">
        <ele>1572.7</ele>
        <time>2026-07-14T09:10:58Z</time>
      </trkpt>
      <trkpt lat="45.18843" lon="5.95721">
        <ele>1573</ele>
        <time>2026-07-14T09:11:00Z</time>
      </trkpt>
      <trkpt lat="45.18842" lon="5.95722">
        <ele>1573.2</ele>
        <time>2026-07-14T09:11:01Z</time>
      </trkpt>
      <trkpt lat="45.18842" lon="5.95722">
        <ele>1573.4</ele>
        <time>2026-07-14T09:11:02Z</time>
      </trkpt>
      <trkpt lat="45.18841" lon="5.95723">
        <ele>1573.5</ele>
        <time>2026-07-14T09:11:03Z</time>
      </trkpt>
      <trkpt lat="45.18841" lon="5.95723">
        <ele>1573.6</ele>
        <time>2026-07-14T09:11:04Z</time>
      </trkpt>
      <trkpt lat="45.1884" lon="5.95724">
        <ele>1573.8</ele>
        <time>2026-07-14T09:11:05Z</time>
      </trkpt>
      <trkpt lat="45.1884" lon="5.95724">
        <ele>1573.9</ele>
        <time>2026-07-14T09:11:06Z</time>
      </trkpt>
      <trkpt lat="45.18839" lon="5.95724">
        <ele>1574</ele>
        <time>2026-07-14T09:11:07Z</time>
      </trkpt>
      <trkpt lat="45.18839" lon="5.95725">
        <ele>1574.1</ele>
        <time>2026-07-14T09:11:09Z</time>
      </trkpt>
      <trkpt lat="45.18838" lon="5.95725">
        <ele>1574.2</ele>
        <time>2026-07-14T09:11:10Z</time>
      </trkpt>
      <trkpt lat="45.18838" lon="5.95725">
        <ele>1574.2</ele>
        <time>2026-07-14T09:11:11Z</time>
      </trkpt>
      <trkpt lat="45.18838" lon="5.95726">
        <ele>1574.4</ele>
        <time>2026-07-14T09:11:13Z</time>
      </trkpt>
      <trkpt lat="45.18837" lon="5.95726">
        <ele>1574.5</ele>
        <time>2026-07-14T09:11:14Z</time>
      </trkpt>
      <trkpt lat="45.18837" lon="5.95726">
        <ele>1574.5</ele>
        <time>2026-07-14T09:11:15Z</time>
      </trkpt>
      <trkpt lat="45.18837" lon="5.95726">
        <ele>1574.6</ele>
        <time>2026-07-14T09:11:16Z</time>
      </trkpt>
      <trkpt lat="45.18836" lon="5.95726">
        <ele>1574.7</ele>
        <time>2026-07-14T09:11:17Z</time>
      </trkpt>
      <trkpt lat="45.18836" lon="5.95727">
        <ele>1574.8</ele>
        <time>2026-07-14T09:11:18Z</time>
      </trkpt>
      <trkpt lat="45.18836" lon="5.95727">
        <ele>1574.8</ele>
        <time>2026-07-14T09:11:19Z</time>
      </trkpt>
      <trkpt lat="45.18835" lon="5.95726">
        <ele>1575</ele>
        <time>2026-07-14T09:11:20Z</time>
      </trkpt>
      <trkpt lat="45.18835" lon="5.95726">
        <ele>1575.1</ele>
        <time>2026-07-14T09:11:21Z</time>
      </trkpt>
      <trkpt lat="45.18834" lon="5.95726">
        <ele>1575.2</ele>
        <time>2026-07-14T09:11:22Z</time>
      </trkpt>
      <trkpt lat="45.18834" lon="5.95726">
        <ele>1575.2</ele>
        <time>2026-07-14T09:11:23Z</time>
      </trkpt>
      <trkpt lat="45.18833" lon="5.95726">
        <ele>1575.3</ele>
        <time>2026-07-14T09:11:24Z</time>
      </trkpt>
      <trkpt lat="45.18833" lon="5.95726">
        <ele>1575.4</ele>
        <time>2026-07-14T09:11:25Z</time>
      </trkpt>
      <trkpt lat="45.18833" lon="5.95726">
        <ele>1575.5</ele>
        <time>2026-07-14T09:11:26Z</time>
      </trkpt>
      <trkpt lat="45.18833" lon="5.95726">
        <ele>1575.5</ele>
        <time>2026-07-14T09:11:27Z</time>
      </trkpt>
      <trkpt lat="45.18832" lon="5.95725">
        <ele>1575.6</ele>
        <time>2026-07-14T09:11:29Z</time>
      </trkpt>
      <trkpt lat="45.18832" lon="5.95725">
        <ele>1575.7</ele>
        <time>2026-07-14T09:11:30Z</time>
      </trkpt>
      <trkpt lat="45.18831" lon="5.95725">
        <ele>1575.8</ele>
        <time>2026-07-14T09:11:32Z</time>
      </trkpt>
      <trkpt lat="45.18831" lon="5.95726">
        <ele>1575.9</ele>
        <time>2026-07-14T09:11:33Z</time>
      </trkpt>
      <trkpt lat="45.1883" lon="5.95726">
        <ele>1575.9</ele>
        <time>2026-07-14T09:11:34Z</time>
      </trkpt>
      <trkpt lat="45.1883" lon="5.95726">
        <ele>1576</ele>
        <time>2026-07-14T09:11:35Z</time>
      </trkpt>
      <trkpt lat="45.1883" lon="5.95727">
        <ele>1576.1</ele>
        <time>2026-07-14T09:11:36Z</time>
      </trkpt>
      <trkpt lat="45.18829" lon="5.95728">
        <ele>1576.2</ele>
        <time>2026-07-14T09:11:37Z</time>
      </trkpt>
      <trkpt lat="45.18829" lon="5.95729">
        <ele>1576.3</ele>
        <time>2026-07-14T09:11:38Z</time>
      </trkpt>
      <trkpt lat="45.18829" lon="5.9573">
        <ele>1576.4</ele>
        <time>2026-07-14T09:11:39Z</time>
      </trkpt>
      <trkpt lat="45.18829" lon="5.95732">
        <ele>1576.7</ele>
        <time>2026-07-14T09:11:41Z</time>
      </trkpt>
      <trkpt lat="45.18829" lon="5.95733">
        <ele>1576.8</ele>
        <time>2026-07-14T09:11:42Z</time>
      </trkpt>
      <trkpt lat="45.18828" lon="5.95734">
        <ele>1576.9</ele>
        <time>2026-07-14T09:11:43Z</time>
      </trkpt>
      <trkpt lat="45.18828" lon="5.95734">
        <ele>1577</ele>
        <time>2026-07-14T09:11:44Z</time>
      </trkpt>
      <trkpt lat="45.18827" lon="5.95735">
        <ele>1577</ele>
        <time>2026-07-14T09:11:45Z</time>
      </trkpt>
      <trkpt lat="45.18826" lon="5.95735">
        <ele>1577.1</ele>
        <time>2026-07-14T09:11:46Z</time>
      </trkpt>
      <trkpt lat="45.18826" lon="5.95736">
        <ele>1577.2</ele>
        <time>2026-07-14T09:11:47Z</time>
      </trkpt>
      <trkpt lat="45.18825" lon="5.95737">
        <ele>1577.4</ele>
        <time>2026-07-14T09:11:49Z</time>
      </trkpt>
      <trkpt lat="45.18824" lon="5.95738">
        <ele>1577.5</ele>
        <time>2026-07-14T09:11:50Z</time>
      </trkpt>
      <trkpt lat="45.18824" lon="5.95739">
        <ele>1577.5</ele>
        <time>2026-07-14T09:11:51Z</time>
      </trkpt>
      <trkpt lat="45.18824" lon="5.95739">
        <ele>1577.6</ele>
        <time>2026-07-14T09:11:52Z</time>
      </trkpt>
      <trkpt lat="45.18824" lon="5.9574">
        <ele>1577.6</ele>
        <time>2026-07-14T09:11:53Z</time>
      </trkpt>
      <trkpt lat="45.18825" lon="5.95742">
        <ele>1577.7</ele>
        <time>2026-07-14T09:11:55Z</time>
      </trkpt>
      <trkpt lat="45.18825" lon="5.95743">
        <ele>1577.8</ele>
        <time>2026-07-14T09:11:56Z</time>
      </trkpt>
      <trkpt lat="45.18825" lon="5.95744">
        <ele>1577.9</ele>
        <time>2026-07-14T09:11:58Z</time>
      </trkpt>
      <trkpt lat="45.18824" lon="5.95745">
        <ele>1577.9</ele>
        <time>2026-07-14T09:11:59Z</time>
      </trkpt>
      <trkpt lat="45.18824" lon="5.95746">
        <ele>1578</ele>
        <time>2026-07-14T09:12:00Z</time>
      </trkpt>
      <trkpt lat="45.18823" lon="5.95748">
        <ele>1578</ele>
        <time>2026-07-14T09:12:01Z</time>
      </trkpt>
      <trkpt lat="45.18823" lon="5.95749">
        <ele>1578.1</ele>
        <time>2026-07-14T09:12:02Z</time>
      </trkpt>
      <trkpt lat="45.18822" lon="5.9575">
        <ele>1578.1</ele>
        <time>2026-07-14T09:12:03Z</time>
      </trkpt>
      <trkpt lat="45.18822" lon="5.95751">
        <ele>1578.2</ele>
        <time>2026-07-14T09:12:04Z</time>
      </trkpt>
      <trkpt lat="45.18821" lon="5.95752">
        <ele>1578.2</ele>
        <time>2026-07-14T09:12:05Z</time>
      </trkpt>
      <trkpt lat="45.1882" lon="5.95754">
        <ele>1578.3</ele>
        <time>2026-07-14T09:12:07Z</time>
      </trkpt>
      <trkpt lat="45.1882" lon="5.95755">
        <ele>1578.3</ele>
        <time>2026-07-14T09:12:08Z</time>
      </trkpt>
      <trkpt lat="45.1882" lon="5.95756">
        <ele>1578.3</ele>
        <time>2026-07-14T09:12:09Z</time>
      </trkpt>
      <trkpt lat="45.1882" lon="5.95758">
        <ele>1578.4</ele>
        <time>2026-07-14T09:12:10Z</time>
      </trkpt>
      <trkpt lat="45.1882" lon="5.95759">
        <ele>1578.4</ele>
        <time>2026-07-14T09:12:11Z</time>
      </trkpt>
      <trkpt lat="45.1882" lon="5.95761">
        <ele>1578.4</ele>
        <time>2026-07-14T09:12:12Z</time>
      </trkpt>
      <trkpt lat="45.18821" lon="5.95762">
        <ele>1578.4</ele>
        <time>2026-07-14T09:12:13Z</time>
      </trkpt>
      <trkpt lat="45.18821" lon="5.95764">
        <ele>1578.5</ele>
        <time>2026-07-14T09:12:14Z</time>
      </trkpt>
      <trkpt lat="45.18821" lon="5.95765">
        <ele>1578.5</ele>
        <time>2026-07-14T09:12:15Z</time>
      </trkpt>
      <trkpt lat="45.18821" lon="5.95766">
        <ele>1578.5</ele>
        <time>2026-07-14T09:12:16Z</time>
      </trkpt>
      <trkpt lat="45.18821" lon="5.95767">
        <ele>1578.5</ele>
        <time>2026-07-14T09:12:17Z</time>
      </trkpt>
      <trkpt lat="45.18821" lon="5.95768">
        <ele>1578.5</ele>
        <time>2026-07-14T09:12:18Z</time>
      </trkpt>
      <trkpt lat="45.18821" lon="5.95768">
        <ele>1578.5</ele>
        <time>2026-07-14T09:12:19Z</time>
      </trkpt>
      <trkpt lat="45.18821" lon="5.95769">
        <ele>1578.6</ele>
        <time>2026-07-14T09:12:20Z</time>
      </trkpt>
      <trkpt lat="45.18821" lon="5.9577">
        <ele>1578.6</ele>
        <time>2026-07-14T09:12:21Z</time>
      </trkpt>
      <trkpt lat="45.18821" lon="5.95771">
        <ele>1578.6</ele>
        <time>2026-07-14T09:12:22Z</time>
      </trkpt>
      <trkpt lat="45.1882" lon="5.95771">
        <ele>1578.6</ele>
        <time>2026-07-14T09:12:23Z</time>
      </trkpt>
      <trkpt lat="45.1882" lon="5.95772">
        <ele>1578.6</ele>
        <time>2026-07-14T09:12:24Z</time>
      </trkpt>
      <trkpt lat="45.1882" lon="5.95773">
        <ele>1578.7</ele>
        <time>2026-07-14T09:12:25Z</time>
      </trkpt>
      <trkpt lat="45.1882" lon="5.95774">
        <ele>1578.7</ele>
        <time>2026-07-14T09:12:26Z</time>
      </trkpt>
      <trkpt lat="45.1882" lon="5.95777">
        <ele>1578.8</ele>
        <time>2026-07-14T09:12:28Z</time>
      </trkpt>
      <trkpt lat="45.18821" lon="5.95778">
        <ele>1578.8</ele>
        <time>2026-07-14T09:12:29Z</time>
      </trkpt>
      <trkpt lat="45.18821" lon="5.95779">
        <ele>1578.8</ele>
        <time>2026-07-14T09:12:30Z</time>
      </trkpt>
      <trkpt lat="45.1882" lon="5.9578">
        <ele>1578.9</ele>
        <time>2026-07-14T09:12:31Z</time>
      </trkpt>
      <trkpt lat="45.1882" lon="5.95781">
        <ele>1578.9</ele>
        <time>2026-07-14T09:12:32Z</time>
      </trkpt>
      <trkpt lat="45.1882" lon="5.95782">
        <ele>1578.9</ele>
        <time>2026-07-14T09:12:33Z</time>
      </trkpt>
      <trkpt lat="45.1882" lon="5.95783">
        <ele>1578.9</ele>
        <time>2026-07-14T09:12:34Z</time>
      </trkpt>
      <trkpt lat="45.1882" lon="5.95783">
        <ele>1579</ele>
        <time>2026-07-14T09:12:35Z</time>
      </trkpt>
      <trkpt lat="45.1882" lon="5.95784">
        <ele>1579</ele>
        <time>2026-07-14T09:12:36Z</time>
      </trkpt>
      <trkpt lat="45.18821" lon="5.95785">
        <ele>1579.1</ele>
        <time>2026-07-14T09:12:37Z</time>
      </trkpt>
      <trkpt lat="45.18821" lon="5.95786">
        <ele>1579.1</ele>
        <time>2026-07-14T09:12:38Z</time>
      </trkpt>
      <trkpt lat="45.18822" lon="5.95788">
        <ele>1579.2</ele>
        <time>2026-07-14T09:12:39Z</time>
      </trkpt>
      <trkpt lat="45.18822" lon="5.95789">
        <ele>1579.3</ele>
        <time>2026-07-14T09:12:40Z</time>
      </trkpt>
      <trkpt lat="45.18822" lon="5.9579">
        <ele>1579.3</ele>
        <time>2026-07-14T09:12:41Z</time>
      </trkpt>
      <trkpt lat="45.18822" lon="5.9579">
        <ele>1579.4</ele>
        <time>2026-07-14T09:12:43Z</time>
      </trkpt>
      <trkpt lat="45.18822" lon="5.95792">
        <ele>1579.5</ele>
        <time>2026-07-14T09:12:44Z</time>
      </trkpt>
      <trkpt lat="45.18822" lon="5.95793">
        <ele>1579.6</ele>
        <time>2026-07-14T09:12:45Z</time>
      </trkpt>
      <trkpt lat="45.18822" lon="5.95794">
        <ele>1579.6</ele>
        <time>2026-07-14T09:12:46Z</time>
      </trkpt>
      <trkpt lat="45.18821" lon="5.95795">
        <ele>1579.8</ele>
        <time>2026-07-14T09:12:48Z</time>
      </trkpt>
      <trkpt lat="45.1882" lon="5.95796">
        <ele>1579.8</ele>
        <time>2026-07-14T09:12:49Z</time>
      </trkpt>
      <trkpt lat="45.1882" lon="5.95797">
        <ele>1579.9</ele>
        <time>2026-07-14T09:12:50Z</time>
      </trkpt>
      <trkpt lat="45.1882" lon="5.95797">
        <ele>1580</ele>
        <time>2026-07-14T09:12:51Z</time>
      </trkpt>
      <trkpt lat="45.18819" lon="5.95798">
        <ele>1580</ele>
        <time>2026-07-14T09:12:52Z</time>
      </trkpt>
      <trkpt lat="45.18819" lon="5.95798">
        <ele>1580.1</ele>
        <time>2026-07-14T09:12:53Z</time>
      </trkpt>
      <trkpt lat="45.18819" lon="5.95799">
        <ele>1580.2</ele>
        <time>2026-07-14T09:12:54Z</time>
      </trkpt>
      <trkpt lat="45.18819" lon="5.95801">
        <ele>1580.4</ele>
        <time>2026-07-14T09:12:56Z</time>
      </trkpt>
      <trkpt lat="45.18819" lon="5.95802">
        <ele>1580.5</ele>
        <time>2026-07-14T09:12:57Z</time>
      </trkpt>
      <trkpt lat="45.18819" lon="5.95804">
        <ele>1580.7</ele>
        <time>2026-07-14T09:12:58Z</time>
      </trkpt>
      <trkpt lat="45.18818" lon="5.95805">
        <ele>1580.8</ele>
        <time>2026-07-14T09:12:59Z</time>
      </trkpt>
      <trkpt lat="45.18816" lon="5.9581">
        <ele>1581.6</ele>
        <time>2026-07-14T09:13:01Z</time>
      </trkpt>
      <trkpt lat="45.18814" lon="5.95812">
        <ele>1582.1</ele>
        <time>2026-07-14T09:13:02Z</time>
      </trkpt>
      <trkpt lat="45.18812" lon="5.95813">
        <ele>1582.5</ele>
        <time>2026-07-14T09:13:03Z</time>
      </trkpt>
      <trkpt lat="45.18811" lon="5.95813">
        <ele>1582.8</ele>
        <time>2026-07-14T09:13:04Z</time>
      </trkpt>
      <trkpt lat="45.1881" lon="5.95814">
        <ele>1582.9</ele>
        <time>2026-07-14T09:13:05Z</time>
      </trkpt>
      <trkpt lat="45.18811" lon="5.95816">
        <ele>1583.3</ele>
        <time>2026-07-14T09:13:06Z</time>
      </trkpt>
      <trkpt lat="45.18812" lon="5.95817">
        <ele>1583.7</ele>
        <time>2026-07-14T09:13:07Z</time>
      </trkpt>
      <trkpt lat="45.18815" lon="5.95819">
        <ele>1584.5</ele>
        <time>2026-07-14T09:13:09Z</time>
      </trkpt>
      <trkpt lat="45.18816" lon="5.9582">
        <ele>1584.8</ele>
        <time>2026-07-14T09:13:11Z</time>
      </trkpt>
      <trkpt lat="45.18818" lon="5.9582">
        <ele>1585.4</ele>
        <time>2026-07-14T09:13:12Z</time>
      </trkpt>
      <trkpt lat="45.18819" lon="5.9582">
        <ele>1585.6</ele>
        <time>2026-07-14T09:13:14Z</time>
      </trkpt>
      <trkpt lat="45.18819" lon="5.95821">
        <ele>1585.8</ele>
        <time>2026-07-14T09:13:15Z</time>
      </trkpt>
      <trkpt lat="45.18818" lon="5.95821">
        <ele>1586</ele>
        <time>2026-07-14T09:13:16Z</time>
      </trkpt>
      <trkpt lat="45.18818" lon="5.95822">
        <ele>1586.2</ele>
        <time>2026-07-14T09:13:17Z</time>
      </trkpt>
      <trkpt lat="45.18818" lon="5.95823">
        <ele>1586.4</ele>
        <time>2026-07-14T09:13:18Z</time>
      </trkpt>
      <trkpt lat="45.18817" lon="5.95823">
        <ele>1586.5</ele>
        <time>2026-07-14T09:13:19Z</time>
      </trkpt>
      <trkpt lat="45.18817" lon="5.95823">
        <ele>1586.6</ele>
        <time>2026-07-14T09:13:20Z</time>
      </trkpt>
      <trkpt lat="45.18816" lon="5.95823">
        <ele>1586.8</ele>
        <time>2026-07-14T09:13:21Z</time>
      </trkpt>
      <trkpt lat="45.18816" lon="5.95823">
        <ele>1587</ele>
        <time>2026-07-14T09:13:22Z</time>
      </trkpt>
      <trkpt lat="45.18816" lon="5.95823">
        <ele>1587</ele>
        <time>2026-07-14T09:13:23Z</time>
      </trkpt>
      <trkpt lat="45.18816" lon="5.95823">
        <ele>1587.1</ele>
        <time>2026-07-14T09:13:24Z</time>
      </trkpt>
      <trkpt lat="45.18816" lon="5.95824">
        <ele>1587.2</ele>
        <time>2026-07-14T09:13:25Z</time>
      </trkpt>
      <trkpt lat="45.18816" lon="5.95824">
        <ele>1587.3</ele>
        <time>2026-07-14T09:13:26Z</time>
      </trkpt>
      <trkpt lat="45.18816" lon="5.95823">
        <ele>1587.5</ele>
        <time>2026-07-14T09:13:27Z</time>
      </trkpt>
      <trkpt lat="45.18816" lon="5.95822">
        <ele>1587.6</ele>
        <time>2026-07-14T09:13:28Z</time>
      </trkpt>
      <trkpt lat="45.18817" lon="5.95823">
        <ele>1587.8</ele>
        <time>2026-07-14T09:13:29Z</time>
      </trkpt>
      <trkpt lat="45.18817" lon="5.95823">
        <ele>1588</ele>
        <time>2026-07-14T09:13:30Z</time>
      </trkpt>
      <trkpt lat="45.18818" lon="5.95824">
        <ele>1588.3</ele>
        <time>2026-07-14T09:13:31Z</time>
      </trkpt>
      <trkpt lat="45.18818" lon="5.95825">
        <ele>1588.5</ele>
        <time>2026-07-14T09:13:32Z</time>
      </trkpt>
      <trkpt lat="45.18816" lon="5.95829">
        <ele>1589.4</ele>
        <time>2026-07-14T09:13:34Z</time>
      </trkpt>
      <trkpt lat="45.18815" lon="5.9583">
        <ele>1589.8</ele>
        <time>2026-07-14T09:13:35Z</time>
      </trkpt>
      <trkpt lat="45.18815" lon="5.95831">
        <ele>1590.1</ele>
        <time>2026-07-14T09:13:36Z</time>
      </trkpt>
      <trkpt lat="45.18814" lon="5.9583">
        <ele>1590.4</ele>
        <time>2026-07-14T09:13:37Z</time>
      </trkpt>
      <trkpt lat="45.18813" lon="5.95829">
        <ele>1590.7</ele>
        <time>2026-07-14T09:13:38Z</time>
      </trkpt>
      <trkpt lat="45.18813" lon="5.95828">
        <ele>1590.9</ele>
        <time>2026-07-14T09:13:39Z</time>
      </trkpt>
      <trkpt lat="45.18813" lon="5.95827">
        <ele>1591</ele>
        <time>2026-07-14T09:13:40Z</time>
      </trkpt>
      <trkpt lat="45.18814" lon="5.95827">
        <ele>1591.2</ele>
        <time>2026-07-14T09:13:41Z</time>
      </trkpt>
      <trkpt lat="45.18814" lon="5.95826">
        <ele>1591.3</ele>
        <time>2026-07-14T09:13:42Z</time>
      </trkpt>
      <trkpt lat="45.18814" lon="5.95827">
        <ele>1591.3</ele>
        <time>2026-07-14T09:13:43Z</time>
      </trkpt>
      <trkpt lat="45.18814" lon="5.95826">
        <ele>1591.5</ele>
        <time>2026-07-14T09:13:44Z</time>
      </trkpt>
      <trkpt lat="45.18814" lon="5.95826">
        <ele>1591.5</ele>
        <time>2026-07-14T09:13:45Z</time>
      </trkpt>
      <trkpt lat="45.18814" lon="5.95826">
        <ele>1591.6</ele>
        <time>2026-07-14T09:13:46Z</time>
      </trkpt>
      <trkpt lat="45.18813" lon="5.95825">
        <ele>1591.7</ele>
        <time>2026-07-14T09:13:47Z</time>
      </trkpt>
      <trkpt lat="45.18813" lon="5.95825">
        <ele>1591.8</ele>
        <time>2026-07-14T09:13:48Z</time>
      </trkpt>
      <trkpt lat="45.18812" lon="5.95824">
        <ele>1592.2</ele>
        <time>2026-07-14T09:13:50Z</time>
      </trkpt>
      <trkpt lat="45.18811" lon="5.95823">
        <ele>1592.5</ele>
        <time>2026-07-14T09:13:51Z</time>
      </trkpt>
      <trkpt lat="45.18811" lon="5.95822">
        <ele>1592.8</ele>
        <time>2026-07-14T09:13:52Z</time>
      </trkpt>
      <trkpt lat="45.1881" lon="5.95822">
        <ele>1593</ele>
        <time>2026-07-14T09:13:53Z</time>
      </trkpt>
      <trkpt lat="45.1881" lon="5.95821">
        <ele>1593.2</ele>
        <time>2026-07-14T09:13:54Z</time>
      </trkpt>
      <trkpt lat="45.18809" lon="5.95821">
        <ele>1593.3</ele>
        <time>2026-07-14T09:13:55Z</time>
      </trkpt>
      <trkpt lat="45.18809" lon="5.95821">
        <ele>1593.4</ele>
        <time>2026-07-14T09:13:56Z</time>
      </trkpt>
      <trkpt lat="45.18808" lon="5.95821">
        <ele>1593.6</ele>
        <time>2026-07-14T09:13:57Z</time>
      </trkpt>
      <trkpt lat="45.18807" lon="5.95822">
        <ele>1594</ele>
        <time>2026-07-14T09:13:59Z</time>
      </trkpt>
      <trkpt lat="45.18806" lon="5.95823">
        <ele>1594.3</ele>
        <time>2026-07-14T09:14:00Z</time>
      </trkpt>
      <trkpt lat="45.18806" lon="5.95823">
        <ele>1594.4</ele>
        <time>2026-07-14T09:14:01Z</time>
      </trkpt>
      <trkpt lat="45.18806" lon="5.95824">
        <ele>1594.6</ele>
        <time>2026-07-14T09:14:02Z</time>
      </trkpt>
      <trkpt lat="45.18807" lon="5.95825">
        <ele>1594.9</ele>
        <time>2026-07-14T09:14:04Z</time>
      </trkpt>
      <trkpt lat="45.18807" lon="5.95826">
        <ele>1595</ele>
        <time>2026-07-14T09:14:05Z</time>
      </trkpt>
      <trkpt lat="45.18807" lon="5.95826">
        <ele>1595.1</ele>
        <time>2026-07-14T09:14:06Z</time>
      </trkpt>
      <trkpt lat="45.18807" lon="5.95826">
        <ele>1595.3</ele>
        <time>2026-07-14T09:14:07Z</time>
      </trkpt>
      <trkpt lat="45.18808" lon="5.95827">
        <ele>1595.4</ele>
        <time>2026-07-14T09:14:08Z</time>
      </trkpt>
      <trkpt lat="45.18808" lon="5.95827">
        <ele>1595.5</ele>
        <time>2026-07-14T09:14:09Z</time>
      </trkpt>
      <trkpt lat="45.18808" lon="5.95828">
        <ele>1595.7</ele>
        <time>2026-07-14T09:14:11Z</time>
      </trkpt>
      <trkpt lat="45.18808" lon="5.95829">
        <ele>1595.9</ele>
        <time>2026-07-14T09:14:12Z</time>
      </trkpt>
      <trkpt lat="45.18809" lon="5.95829">
        <ele>1596.1</ele>
        <time>2026-07-14T09:14:13Z</time>
      </trkpt>
      <trkpt lat="45.18809" lon="5.9583">
        <ele>1596.4</ele>
        <time>2026-07-14T09:14:14Z</time>
      </trkpt>
      <trkpt lat="45.1881" lon="5.95831">
        <ele>1596.6</ele>
        <time>2026-07-14T09:14:15Z</time>
      </trkpt>
      <trkpt lat="45.1881" lon="5.95832">
        <ele>1596.8</ele>
        <time>2026-07-14T09:14:16Z</time>
      </trkpt>
      <trkpt lat="45.1881" lon="5.95832">
        <ele>1596.9</ele>
        <time>2026-07-14T09:14:17Z</time>
      </trkpt>
      <trkpt lat="45.1881" lon="5.95832">
        <ele>1597</ele>
        <time>2026-07-14T09:14:18Z</time>
      </trkpt>
      <trkpt lat="45.1881" lon="5.95833">
        <ele>1597.2</ele>
        <time>2026-07-14T09:14:19Z</time>
      </trkpt>
      <trkpt lat="45.18809" lon="5.95833">
        <ele>1597.3</ele>
        <time>2026-07-14T09:14:20Z</time>
      </trkpt>
      <trkpt lat="45.18809" lon="5.95833">
        <ele>1597.4</ele>
        <time>2026-07-14T09:14:21Z</time>
      </trkpt>
      <trkpt lat="45.18808" lon="5.95833">
        <ele>1597.6</ele>
        <time>2026-07-14T09:14:22Z</time>
      </trkpt>
      <trkpt lat="45.18808" lon="5.95834">
        <ele>1597.8</ele>
        <time>2026-07-14T09:14:23Z</time>
      </trkpt>
      <trkpt lat="45.18807" lon="5.95834">
        <ele>1598</ele>
        <time>2026-07-14T09:14:24Z</time>
      </trkpt>
      <trkpt lat="45.18807" lon="5.95836">
        <ele>1598.4</ele>
        <time>2026-07-14T09:14:26Z</time>
      </trkpt>
      <trkpt lat="45.18808" lon="5.95837">
        <ele>1598.7</ele>
        <time>2026-07-14T09:14:28Z</time>
      </trkpt>
      <trkpt lat="45.18809" lon="5.95837">
        <ele>1598.9</ele>
        <time>2026-07-14T09:14:30Z</time>
      </trkpt>
      <trkpt lat="45.18809" lon="5.95838">
        <ele>1599.1</ele>
        <time>2026-07-14T09:14:32Z</time>
      </trkpt>
      <trkpt lat="45.18809" lon="5.95838">
        <ele>1599.2</ele>
        <time>2026-07-14T09:14:33Z</time>
      </trkpt>
      <trkpt lat="45.18809" lon="5.95839">
        <ele>1599.3</ele>
        <time>2026-07-14T09:14:34Z</time>
      </trkpt>
      <trkpt lat="45.18809" lon="5.9584">
        <ele>1599.5</ele>
        <time>2026-07-14T09:14:35Z</time>
      </trkpt>
      <trkpt lat="45.18809" lon="5.9584">
        <ele>1599.6</ele>
        <time>2026-07-14T09:14:36Z</time>
      </trkpt>
      <trkpt lat="45.18809" lon="5.95841">
        <ele>1599.8</ele>
        <time>2026-07-14T09:14:37Z</time>
      </trkpt>
      <trkpt lat="45.18809" lon="5.95841">
        <ele>1599.9</ele>
        <time>2026-07-14T09:14:38Z</time>
      </trkpt>
      <trkpt lat="45.18809" lon="5.95842">
        <ele>1600</ele>
        <time>2026-07-14T09:14:39Z</time>
      </trkpt>
      <trkpt lat="45.18809" lon="5.95843">
        <ele>1600.2</ele>
        <time>2026-07-14T09:14:40Z</time>
      </trkpt>
      <trkpt lat="45.18808" lon="5.95844">
        <ele>1600.3</ele>
        <time>2026-07-14T09:14:41Z</time>
      </trkpt>
      <trkpt lat="45.18808" lon="5.95844">
        <ele>1600.5</ele>
        <time>2026-07-14T09:14:42Z</time>
      </trkpt>
      <trkpt lat="45.18808" lon="5.95845">
        <ele>1600.6</ele>
        <time>2026-07-14T09:14:43Z</time>
      </trkpt>
      <trkpt lat="45.18808" lon="5.95845">
        <ele>1600.8</ele>
        <time>2026-07-14T09:14:44Z</time>
      </trkpt>
      <trkpt lat="45.18807" lon="5.95845">
        <ele>1600.9</ele>
        <time>2026-07-14T09:14:45Z</time>
      </trkpt>
      <trkpt lat="45.18807" lon="5.95845">
        <ele>1601</ele>
        <time>2026-07-14T09:14:46Z</time>
      </trkpt>
      <trkpt lat="45.18806" lon="5.95845">
        <ele>1601.1</ele>
        <time>2026-07-14T09:14:47Z</time>
      </trkpt>
      <trkpt lat="45.18806" lon="5.95845">
        <ele>1601.2</ele>
        <time>2026-07-14T09:14:48Z</time>
      </trkpt>
      <trkpt lat="45.18806" lon="5.95845">
        <ele>1601.4</ele>
        <time>2026-07-14T09:14:49Z</time>
      </trkpt>
      <trkpt lat="45.18805" lon="5.95845">
        <ele>1601.5</ele>
        <time>2026-07-14T09:14:50Z</time>
      </trkpt>
      <trkpt lat="45.18805" lon="5.95844">
        <ele>1601.6</ele>
        <time>2026-07-14T09:14:51Z</time>
      </trkpt>
      <trkpt lat="45.18805" lon="5.95844">
        <ele>1601.7</ele>
        <time>2026-07-14T09:14:52Z</time>
      </trkpt>
      <trkpt lat="45.18805" lon="5.95843">
        <ele>1601.8</ele>
        <time>2026-07-14T09:14:53Z</time>
      </trkpt>
      <trkpt lat="45.18805" lon="5.95843">
        <ele>1601.9</ele>
        <time>2026-07-14T09:14:54Z</time>
      </trkpt>
      <trkpt lat="45.18804" lon="5.95841">
        <ele>1602.3</ele>
        <time>2026-07-14T09:14:56Z</time>
      </trkpt>
      <trkpt lat="45.18803" lon="5.95841">
        <ele>1602.5</ele>
        <time>2026-07-14T09:14:57Z</time>
      </trkpt>
      <trkpt lat="45.18803" lon="5.95841">
        <ele>1602.6</ele>
        <time>2026-07-14T09:14:58Z</time>
      </trkpt>
      <trkpt lat="45.18802" lon="5.9584">
        <ele>1602.8</ele>
        <time>2026-07-14T09:14:59Z</time>
      </trkpt>
      <trkpt lat="45.188" lon="5.95841">
        <ele>1603.4</ele>
        <time>2026-07-14T09:15:01Z</time>
      </trkpt>
      <trkpt lat="45.188" lon="5.95842">
        <ele>1603.6</ele>
        <time>2026-07-14T09:15:02Z</time>
      </trkpt>
      <trkpt lat="45.18799" lon="5.95842">
        <ele>1603.8</ele>
        <time>2026-07-14T09:15:03Z</time>
      </trkpt>
      <trkpt lat="45.18799" lon="5.95844">
        <ele>1604.1</ele>
        <time>2026-07-14T09:15:04Z</time>
      </trkpt>
      <trkpt lat="45.18799" lon="5.95844">
        <ele>1604.3</ele>
        <time>2026-07-14T09:15:05Z</time>
      </trkpt>
      <trkpt lat="45.188" lon="5.95845">
        <ele>1604.4</ele>
        <time>2026-07-14T09:15:06Z</time>
      </trkpt>
      <trkpt lat="45.188" lon="5.95845">
        <ele>1604.5</ele>
        <time>2026-07-14T09:15:07Z</time>
      </trkpt>
      <trkpt lat="45.18799" lon="5.95846">
        <ele>1604.6</ele>
        <time>2026-07-14T09:15:08Z</time>
      </trkpt>
      <trkpt lat="45.18799" lon="5.95846">
        <ele>1604.8</ele>
        <time>2026-07-14T09:15:09Z</time>
      </trkpt>
      <trkpt lat="45.18798" lon="5.95847">
        <ele>1605</ele>
        <time>2026-07-14T09:15:10Z</time>
      </trkpt>
      <trkpt lat="45.18797" lon="5.95847">
        <ele>1605.3</ele>
        <time>2026-07-14T09:15:11Z</time>
      </trkpt>
      <trkpt lat="45.18796" lon="5.95848">
        <ele>1605.5</ele>
        <time>2026-07-14T09:15:12Z</time>
      </trkpt>
      <trkpt lat="45.18796" lon="5.95849">
        <ele>1605.8</ele>
        <time>2026-07-14T09:15:13Z</time>
      </trkpt>
      <trkpt lat="45.18796" lon="5.95849">
        <ele>1605.9</ele>
        <time>2026-07-14T09:15:14Z</time>
      </trkpt>
      <trkpt lat="45.18796" lon="5.9585">
        <ele>1606</ele>
        <time>2026-07-14T09:15:16Z</time>
      </trkpt>
      <trkpt lat="45.18796" lon="5.9585">
        <ele>1606.1</ele>
        <time>2026-07-14T09:15:18Z</time>
      </trkpt>
      <trkpt lat="45.18796" lon="5.9585">
        <ele>1606.1</ele>
        <time>2026-07-14T09:15:19Z</time>
      </trkpt>
      <trkpt lat="45.18796" lon="5.9585">
        <ele>1606.1</ele>
        <time>2026-07-14T09:15:20Z</time>
      </trkpt>
      <trkpt lat="45.18796" lon="5.9585">
        <ele>1606.1</ele>
        <time>2026-07-14T09:15:21Z</time>
      </trkpt>
      <trkpt lat="45.18796" lon="5.9585">
        <ele>1606.2</ele>
        <time>2026-07-14T09:15:22Z</time>
      </trkpt>
      <trkpt lat="45.18796" lon="5.9585">
        <ele>1606.2</ele>
        <time>2026-07-14T09:15:23Z</time>
      </trkpt>
      <trkpt lat="45.18796" lon="5.95851">
        <ele>1606.2</ele>
        <time>2026-07-14T09:15:24Z</time>
      </trkpt>
      <trkpt lat="45.18796" lon="5.95851">
        <ele>1606.3</ele>
        <time>2026-07-14T09:15:25Z</time>
      </trkpt>
      <trkpt lat="45.18795" lon="5.95851">
        <ele>1606.3</ele>
        <time>2026-07-14T09:15:26Z</time>
      </trkpt>
      <trkpt lat="45.18795" lon="5.95851">
        <ele>1606.5</ele>
        <time>2026-07-14T09:15:27Z</time>
      </trkpt>
      <trkpt lat="45.18795" lon="5.95851">
        <ele>1606.6</ele>
        <time>2026-07-14T09:15:28Z</time>
      </trkpt>
      <trkpt lat="45.18793" lon="5.95851">
        <ele>1607</ele>
        <time>2026-07-14T09:15:30Z</time>
      </trkpt>
      <trkpt lat="45.18793" lon="5.95851">
        <ele>1607.1</ele>
        <time>2026-07-14T09:15:31Z</time>
      </trkpt>
      <trkpt lat="45.18792" lon="5.9585">
        <ele>1607.4</ele>
        <time>2026-07-14T09:15:32Z</time>
      </trkpt>
      <trkpt lat="45.18792" lon="5.95849">
        <ele>1607.8</ele>
        <time>2026-07-14T09:15:34Z</time>
      </trkpt>
      <trkpt lat="45.18792" lon="5.95848">
        <ele>1608</ele>
        <time>2026-07-14T09:15:35Z</time>
      </trkpt>
      <trkpt lat="45.18792" lon="5.95847">
        <ele>1608.2</ele>
        <time>2026-07-14T09:15:37Z</time>
      </trkpt>
      <trkpt lat="45.18792" lon="5.95846">
        <ele>1608.4</ele>
        <time>2026-07-14T09:15:38Z</time>
      </trkpt>
      <trkpt lat="45.18792" lon="5.95845">
        <ele>1608.6</ele>
        <time>2026-07-14T09:15:39Z</time>
      </trkpt>
      <trkpt lat="45.18793" lon="5.95844">
        <ele>1608.9</ele>
        <time>2026-07-14T09:15:40Z</time>
      </trkpt>
      <trkpt lat="45.18793" lon="5.95843">
        <ele>1609.1</ele>
        <time>2026-07-14T09:15:42Z</time>
      </trkpt>
      <trkpt lat="45.18793" lon="5.95843">
        <ele>1609.2</ele>
        <time>2026-07-14T09:15:43Z</time>
      </trkpt>
      <trkpt lat="45.18792" lon="5.95842">
        <ele>1609.3</ele>
        <time>2026-07-14T09:15:44Z</time>
      </trkpt>
      <trkpt lat="45.18792" lon="5.95842">
        <ele>1609.4</ele>
        <time>2026-07-14T09:15:46Z</time>
      </trkpt>
      <trkpt lat="45.18792" lon="5.95842">
        <ele>1609.4</ele>
        <time>2026-07-14T09:15:47Z</time>
      </trkpt>
      <trkpt lat="45.18792" lon="5.95841">
        <ele>1609.5</ele>
        <time>2026-07-14T09:15:48Z</time>
      </trkpt>
      <trkpt lat="45.18792" lon="5.95841">
        <ele>1609.5</ele>
        <time>2026-07-14T09:15:49Z</time>
      </trkpt>
      <trkpt lat="45.18792" lon="5.95841">
        <ele>1609.6</ele>
        <time>2026-07-14T09:15:50Z</time>
      </trkpt>
      <trkpt lat="45.18792" lon="5.95841">
        <ele>1609.6</ele>
        <time>2026-07-14T09:15:51Z</time>
      </trkpt>
      <trkpt lat="45.18792" lon="5.95841">
        <ele>1609.6</ele>
        <time>2026-07-14T09:15:52Z</time>
      </trkpt>
      <trkpt lat="45.18792" lon="5.95841">
        <ele>1609.6</ele>
        <time>2026-07-14T09:15:54Z</time>
      </trkpt>
      <trkpt lat="45.18792" lon="5.95841">
        <ele>1609.6</ele>
        <time>2026-07-14T09:15:55Z</time>
      </trkpt>
      <trkpt lat="45.18792" lon="5.95841">
        <ele>1609.7</ele>
        <time>2026-07-14T09:15:56Z</time>
      </trkpt>
      <trkpt lat="45.18792" lon="5.95841">
        <ele>1609.7</ele>
        <time>2026-07-14T09:15:58Z</time>
      </trkpt>
      <trkpt lat="45.18792" lon="5.95841">
        <ele>1609.7</ele>
        <time>2026-07-14T09:15:59Z</time>
      </trkpt>
      <trkpt lat="45.18792" lon="5.95841">
        <ele>1609.7</ele>
        <time>2026-07-14T09:16:00Z</time>
      </trkpt>
      <trkpt lat="45.18792" lon="5.95841">
        <ele>1609.7</ele>
        <time>2026-07-14T09:16:01Z</time>
      </trkpt>
      <trkpt lat="45.18792" lon="5.95841">
        <ele>1609.8</ele>
        <time>2026-07-14T09:16:02Z</time>
      </trkpt>
      <trkpt lat="45.18792" lon="5.95841">
        <ele>1609.8</ele>
        <time>2026-07-14T09:16:03Z</time>
      </trkpt>
      <trkpt lat="45.18792" lon="5.95841">
        <ele>1609.8</ele>
        <time>2026-07-14T09:16:04Z</time>
      </trkpt>
      <trkpt lat="45.18792" lon="5.95841">
        <ele>1609.8</ele>
        <time>2026-07-14T09:16:05Z</time>
      </trkpt>
      <trkpt lat="45.18792" lon="5.95841">
        <ele>1609.8</ele>
        <time>2026-07-14T09:16:06Z</time>
      </trkpt>
      <trkpt lat="45.18792" lon="5.95841">
        <ele>1609.8</ele>
        <time>2026-07-14T09:16:07Z</time>
      </trkpt>
      <trkpt lat="45.18792" lon="5.95841">
        <ele>1609.8</ele>
        <time>2026-07-14T09:16:08Z</time>
      </trkpt>
      <trkpt lat="45.18792" lon="5.95841">
        <ele>1609.8</ele>
        <time>2026-07-14T09:16:09Z</time>
      </trkpt>
      <trkpt lat="45.18792" lon="5.95841">
        <ele>1609.8</ele>
        <time>2026-07-14T09:16:10Z</time>
      </trkpt>
      <trkpt lat="45.18792" lon="5.95841">
        <ele>1609.8</ele>
        <time>2026-07-14T09:16:12Z</time>
      </trkpt>
      <trkpt lat="45.18792" lon="5.95841">
        <ele>1609.8</ele>
        <time>2026-07-14T09:16:13Z</time>
      </trkpt>
      <trkpt lat="45.18792" lon="5.95841">
        <ele>1609.8</ele>
        <time>2026-07-14T09:16:14Z</time>
      </trkpt>
      <trkpt lat="45.18792" lon="5.95841">
        <ele>1609.9</ele>
        <time>2026-07-14T09:16:15Z</time>
      </trkpt>
      <trkpt lat="45.18792" lon="5.95841">
        <ele>1609.9</ele>
        <time>2026-07-14T09:16:16Z</time>
      </trkpt>
      <trkpt lat="45.18792" lon="5.95841">
        <ele>1610</ele>
        <time>2026-07-14T09:16:17Z</time>
      </trkpt>
      <trkpt lat="45.18792" lon="5.95841">
        <ele>1610</ele>
        <time>2026-07-14T09:16:19Z</time>
      </trkpt>
      <trkpt lat="45.18792" lon="5.95841">
        <ele>1610</ele>
        <time>2026-07-14T09:16:20Z</time>
      </trkpt>
      <trkpt lat="45.18792" lon="5.95841">
        <ele>1610.1</ele>
        <time>2026-07-14T09:16:21Z</time>
      </trkpt>
      <trkpt lat="45.18792" lon="5.9584">
        <ele>1610.1</ele>
        <time>2026-07-14T09:16:22Z</time>
      </trkpt>
      <trkpt lat="45.18792" lon="5.9584">
        <ele>1610.1</ele>
        <time>2026-07-14T09:16:23Z</time>
      </trkpt>
      <trkpt lat="45.18792" lon="5.95841">
        <ele>1610.2</ele>
        <time>2026-07-14T09:16:24Z</time>
      </trkpt>
      <trkpt lat="45.18792" lon="5.95841">
        <ele>1610.3</ele>
        <time>2026-07-14T09:16:25Z</time>
      </trkpt>
      <trkpt lat="45.18791" lon="5.95842">
        <ele>1610.6</ele>
        <time>2026-07-14T09:16:26Z</time>
      </trkpt>
      <trkpt lat="45.1879" lon="5.95843">
        <ele>1611</ele>
        <time>2026-07-14T09:16:27Z</time>
      </trkpt>
      <trkpt lat="45.1879" lon="5.95845">
        <ele>1611.4</ele>
        <time>2026-07-14T09:16:28Z</time>
      </trkpt>
      <trkpt lat="45.18791" lon="5.95847">
        <ele>1611.7</ele>
        <time>2026-07-14T09:16:29Z</time>
      </trkpt>
      <trkpt lat="45.18791" lon="5.95848">
        <ele>1612</ele>
        <time>2026-07-14T09:16:30Z</time>
      </trkpt>
      <trkpt lat="45.18792" lon="5.95851">
        <ele>1612.8</ele>
        <time>2026-07-14T09:16:32Z</time>
      </trkpt>
      <trkpt lat="45.18792" lon="5.95853">
        <ele>1613.2</ele>
        <time>2026-07-14T09:16:33Z</time>
      </trkpt>
      <trkpt lat="45.18792" lon="5.95854">
        <ele>1613.5</ele>
        <time>2026-07-14T09:16:34Z</time>
      </trkpt>
      <trkpt lat="45.18791" lon="5.95855">
        <ele>1613.7</ele>
        <time>2026-07-14T09:16:35Z</time>
      </trkpt>
      <trkpt lat="45.18791" lon="5.95857">
        <ele>1614</ele>
        <time>2026-07-14T09:16:36Z</time>
      </trkpt>
      <trkpt lat="45.18791" lon="5.95858">
        <ele>1614.3</ele>
        <time>2026-07-14T09:16:37Z</time>
      </trkpt>
      <trkpt lat="45.18791" lon="5.95859">
        <ele>1614.4</ele>
        <time>2026-07-14T09:16:38Z</time>
      </trkpt>
      <trkpt lat="45.1879" lon="5.95861">
        <ele>1615.2</ele>
        <time>2026-07-14T09:16:40Z</time>
      </trkpt>
      <trkpt lat="45.18788" lon="5.95862">
        <ele>1615.6</ele>
        <time>2026-07-14T09:16:41Z</time>
      </trkpt>
      <trkpt lat="45.18787" lon="5.9586">
        <ele>1616.1</ele>
        <time>2026-07-14T09:16:43Z</time>
      </trkpt>
      <trkpt lat="45.18786" lon="5.95859">
        <ele>1616.6</ele>
        <time>2026-07-14T09:16:44Z</time>
      </trkpt>
      <trkpt lat="45.18784" lon="5.95857">
        <ele>1617.4</ele>
        <time>2026-07-14T09:16:45Z</time>
      </trkpt>
      <trkpt lat="45.18782" lon="5.95856">
        <ele>1617.8</ele>
        <time>2026-07-14T09:16:46Z</time>
      </trkpt>
      <trkpt lat="45.1878" lon="5.95857">
        <ele>1618.6</ele>
        <time>2026-07-14T09:16:48Z</time>
      </trkpt>
      <trkpt lat="45.18779" lon="5.95858">
        <ele>1618.9</ele>
        <time>2026-07-14T09:16:49Z</time>
      </trkpt>
      <trkpt lat="45.18778" lon="5.95859">
        <ele>1619.3</ele>
        <time>2026-07-14T09:16:50Z</time>
      </trkpt>
      <trkpt lat="45.18777" lon="5.95859">
        <ele>1619.6</ele>
        <time>2026-07-14T09:16:51Z</time>
      </trkpt>
      <trkpt lat="45.18776" lon="5.9586">
        <ele>1619.9</ele>
        <time>2026-07-14T09:16:52Z</time>
      </trkpt>
      <trkpt lat="45.18775" lon="5.95861">
        <ele>1620.3</ele>
        <time>2026-07-14T09:16:53Z</time>
      </trkpt>
      <trkpt lat="45.18774" lon="5.95863">
        <ele>1620.6</ele>
        <time>2026-07-14T09:16:54Z</time>
      </trkpt>
      <trkpt lat="45.18773" lon="5.95864">
        <ele>1620.9</ele>
        <time>2026-07-14T09:16:55Z</time>
      </trkpt>
      <trkpt lat="45.18772" lon="5.95864">
        <ele>1621.2</ele>
        <time>2026-07-14T09:16:56Z</time>
      </trkpt>
      <trkpt lat="45.18771" lon="5.95865">
        <ele>1621.4</ele>
        <time>2026-07-14T09:16:58Z</time>
      </trkpt>
      <trkpt lat="45.1877" lon="5.95866">
        <ele>1621.9</ele>
        <time>2026-07-14T09:16:59Z</time>
      </trkpt>
      <trkpt lat="45.18769" lon="5.95866">
        <ele>1622.1</ele>
        <time>2026-07-14T09:17:00Z</time>
      </trkpt>
      <trkpt lat="45.18768" lon="5.95866">
        <ele>1622.3</ele>
        <time>2026-07-14T09:17:01Z</time>
      </trkpt>
      <trkpt lat="45.18767" lon="5.95866">
        <ele>1622.5</ele>
        <time>2026-07-14T09:17:02Z</time>
      </trkpt>
      <trkpt lat="45.18766" lon="5.95865">
        <ele>1622.9</ele>
        <time>2026-07-14T09:17:04Z</time>
      </trkpt>
      <trkpt lat="45.18765" lon="5.95865">
        <ele>1623.1</ele>
        <time>2026-07-14T09:17:05Z</time>
      </trkpt>
      <trkpt lat="45.18765" lon="5.95866">
        <ele>1623.2</ele>
        <time>2026-07-14T09:17:06Z</time>
      </trkpt>
      <trkpt lat="45.18764" lon="5.95866">
        <ele>1623.3</ele>
        <time>2026-07-14T09:17:07Z</time>
      </trkpt>
      <trkpt lat="45.18764" lon="5.95867">
        <ele>1623.5</ele>
        <time>2026-07-14T09:17:08Z</time>
      </trkpt>
      <trkpt lat="45.18764" lon="5.95867">
        <ele>1623.6</ele>
        <time>2026-07-14T09:17:09Z</time>
      </trkpt>
      <trkpt lat="45.18763" lon="5.95867">
        <ele>1623.7</ele>
        <time>2026-07-14T09:17:10Z</time>
      </trkpt>
      <trkpt lat="45.18763" lon="5.95866">
        <ele>1623.8</ele>
        <time>2026-07-14T09:17:11Z</time>
      </trkpt>
      <trkpt lat="45.18763" lon="5.95866">
        <ele>1623.9</ele>
        <time>2026-07-14T09:17:12Z</time>
      </trkpt>
      <trkpt lat="45.18762" lon="5.95865">
        <ele>1624</ele>
        <time>2026-07-14T09:17:13Z</time>
      </trkpt>
      <trkpt lat="45.18762" lon="5.95865">
        <ele>1624.1</ele>
        <time>2026-07-14T09:17:14Z</time>
      </trkpt>
      <trkpt lat="45.18762" lon="5.95864">
        <ele>1624.1</ele>
        <time>2026-07-14T09:17:15Z</time>
      </trkpt>
      <trkpt lat="45.18761" lon="5.95863">
        <ele>1624.4</ele>
        <time>2026-07-14T09:17:17Z</time>
      </trkpt>
      <trkpt lat="45.18761" lon="5.95863">
        <ele>1624.5</ele>
        <time>2026-07-14T09:17:18Z</time>
      </trkpt>
      <trkpt lat="45.18761" lon="5.95863">
        <ele>1624.6</ele>
        <time>2026-07-14T09:17:19Z</time>
      </trkpt>
      <trkpt lat="45.18761" lon="5.95863">
        <ele>1624.6</ele>
        <time>2026-07-14T09:17:20Z</time>
      </trkpt>
      <trkpt lat="45.18761" lon="5.95862">
        <ele>1624.7</ele>
        <time>2026-07-14T09:17:21Z</time>
      </trkpt>
      <trkpt lat="45.18761" lon="5.95861">
        <ele>1624.8</ele>
        <time>2026-07-14T09:17:22Z</time>
      </trkpt>
      <trkpt lat="45.18761" lon="5.9586">
        <ele>1625</ele>
        <time>2026-07-14T09:17:24Z</time>
      </trkpt>
      <trkpt lat="45.18761" lon="5.95858">
        <ele>1625.3</ele>
        <time>2026-07-14T09:17:25Z</time>
      </trkpt>
      <trkpt lat="45.18762" lon="5.95857">
        <ele>1625.4</ele>
        <time>2026-07-14T09:17:26Z</time>
      </trkpt>
      <trkpt lat="45.18761" lon="5.95857">
        <ele>1625.5</ele>
        <time>2026-07-14T09:17:27Z</time>
      </trkpt>
      <trkpt lat="45.18762" lon="5.95857">
        <ele>1625.6</ele>
        <time>2026-07-14T09:17:28Z</time>
      </trkpt>
      <trkpt lat="45.18762" lon="5.95856">
        <ele>1625.7</ele>
        <time>2026-07-14T09:17:29Z</time>
      </trkpt>
      <trkpt lat="45.18762" lon="5.95856">
        <ele>1625.7</ele>
        <time>2026-07-14T09:17:31Z</time>
      </trkpt>
      <trkpt lat="45.18762" lon="5.95856">
        <ele>1625.8</ele>
        <time>2026-07-14T09:17:32Z</time>
      </trkpt>
      <trkpt lat="45.18762" lon="5.95856">
        <ele>1625.8</ele>
        <time>2026-07-14T09:17:33Z</time>
      </trkpt>
      <trkpt lat="45.18763" lon="5.95856">
        <ele>1625.8</ele>
        <time>2026-07-14T09:17:35Z</time>
      </trkpt>
      <trkpt lat="45.18763" lon="5.95856">
        <ele>1625.9</ele>
        <time>2026-07-14T09:17:36Z</time>
      </trkpt>
      <trkpt lat="45.18763" lon="5.95856">
        <ele>1625.9</ele>
        <time>2026-07-14T09:17:37Z</time>
      </trkpt>
      <trkpt lat="45.18763" lon="5.95856">
        <ele>1625.9</ele>
        <time>2026-07-14T09:17:38Z</time>
      </trkpt>
      <trkpt lat="45.18763" lon="5.95856">
        <ele>1625.9</ele>
        <time>2026-07-14T09:17:40Z</time>
      </trkpt>
      <trkpt lat="45.18763" lon="5.95855">
        <ele>1625.9</ele>
        <time>2026-07-14T09:17:41Z</time>
      </trkpt>
      <trkpt lat="45.18763" lon="5.95855">
        <ele>1625.9</ele>
        <time>2026-07-14T09:17:42Z</time>
      </trkpt>
      <trkpt lat="45.18763" lon="5.95855">
        <ele>1625.9</ele>
        <time>2026-07-14T09:17:43Z</time>
      </trkpt>
      <trkpt lat="45.18763" lon="5.95855">
        <ele>1625.9</ele>
        <time>2026-07-14T09:17:45Z</time>
      </trkpt>
      <trkpt lat="45.18762" lon="5.95855">
        <ele>1626</ele>
        <time>2026-07-14T09:17:46Z</time>
      </trkpt>
      <trkpt lat="45.18762" lon="5.95855">
        <ele>1626</ele>
        <time>2026-07-14T09:17:47Z</time>
      </trkpt>
      <trkpt lat="45.1876" lon="5.95853">
        <ele>1626.5</ele>
        <time>2026-07-14T09:17:49Z</time>
      </trkpt>
      <trkpt lat="45.18761" lon="5.95853">
        <ele>1626.6</ele>
        <time>2026-07-14T09:17:51Z</time>
      </trkpt>
      <trkpt lat="45.18761" lon="5.95852">
        <ele>1626.7</ele>
        <time>2026-07-14T09:17:52Z</time>
      </trkpt>
      <trkpt lat="45.18761" lon="5.95852">
        <ele>1626.7</ele>
        <time>2026-07-14T09:17:53Z</time>
      </trkpt>
      <trkpt lat="45.18761" lon="5.95853">
        <ele>1626.8</ele>
        <time>2026-07-14T09:17:54Z</time>
      </trkpt>
      <trkpt lat="45.18761" lon="5.95853">
        <ele>1626.8</ele>
        <time>2026-07-14T09:17:55Z</time>
      </trkpt>
      <trkpt lat="45.18761" lon="5.95853">
        <ele>1626.9</ele>
        <time>2026-07-14T09:17:56Z</time>
      </trkpt>
      <trkpt lat="45.18762" lon="5.95854">
        <ele>1627</ele>
        <time>2026-07-14T09:17:57Z</time>
      </trkpt>
      <trkpt lat="45.18762" lon="5.95854">
        <ele>1627.1</ele>
        <time>2026-07-14T09:17:58Z</time>
      </trkpt>
      <trkpt lat="45.18762" lon="5.95856">
        <ele>1627.2</ele>
        <time>2026-07-14T09:17:59Z</time>
      </trkpt>
      <trkpt lat="45.18762" lon="5.95857">
        <ele>1627.4</ele>
        <time>2026-07-14T09:18:00Z</time>
      </trkpt>
      <trkpt lat="45.18762" lon="5.95858">
        <ele>1627.5</ele>
        <time>2026-07-14T09:18:01Z</time>
      </trkpt>
      <trkpt lat="45.18762" lon="5.95859">
        <ele>1627.6</ele>
        <time>2026-07-14T09:18:02Z</time>
      </trkpt>
      <trkpt lat="45.18762" lon="5.9586">
        <ele>1627.8</ele>
        <time>2026-07-14T09:18:04Z</time>
      </trkpt>
      <trkpt lat="45.18762" lon="5.9586">
        <ele>1627.9</ele>
        <time>2026-07-14T09:18:05Z</time>
      </trkpt>
      <trkpt lat="45.18762" lon="5.95861">
        <ele>1628</ele>
        <time>2026-07-14T09:18:06Z</time>
      </trkpt>
      <trkpt lat="45.18762" lon="5.95861">
        <ele>1628</ele>
        <time>2026-07-14T09:18:07Z</time>
      </trkpt>
      <trkpt lat="45.18761" lon="5.95862">
        <ele>1628.2</ele>
        <time>2026-07-14T09:18:08Z</time>
      </trkpt>
      <trkpt lat="45.18761" lon="5.95862">
        <ele>1628.2</ele>
        <time>2026-07-14T09:18:09Z</time>
      </trkpt>
      <trkpt lat="45.18761" lon="5.95861">
        <ele>1628.3</ele>
        <time>2026-07-14T09:18:11Z</time>
      </trkpt>
      <trkpt lat="45.18762" lon="5.95861">
        <ele>1628.5</ele>
        <time>2026-07-14T09:18:12Z</time>
      </trkpt>
      <trkpt lat="45.18762" lon="5.9586">
        <ele>1628.6</ele>
        <time>2026-07-14T09:18:13Z</time>
      </trkpt>
      <trkpt lat="45.18763" lon="5.9586">
        <ele>1628.7</ele>
        <time>2026-07-14T09:18:14Z</time>
      </trkpt>
      <trkpt lat="45.18763" lon="5.9586">
        <ele>1628.7</ele>
        <time>2026-07-14T09:18:15Z</time>
      </trkpt>
      <trkpt lat="45.18763" lon="5.9586">
        <ele>1628.7</ele>
        <time>2026-07-14T09:18:17Z</time>
      </trkpt>
      <trkpt lat="45.18762" lon="5.95861">
        <ele>1628.8</ele>
        <time>2026-07-14T09:18:18Z</time>
      </trkpt>
      <trkpt lat="45.18763" lon="5.95862">
        <ele>1629</ele>
        <time>2026-07-14T09:18:19Z</time>
      </trkpt>
      <trkpt lat="45.18763" lon="5.95863">
        <ele>1629.1</ele>
        <time>2026-07-14T09:18:20Z</time>
      </trkpt>
      <trkpt lat="45.18764" lon="5.95863">
        <ele>1629.2</ele>
        <time>2026-07-14T09:18:21Z</time>
      </trkpt>
      <trkpt lat="45.18764" lon="5.95864">
        <ele>1629.3</ele>
        <time>2026-07-14T09:18:22Z</time>
      </trkpt>
      <trkpt lat="45.18765" lon="5.95865">
        <ele>1629.5</ele>
        <time>2026-07-14T09:18:23Z</time>
      </trkpt>
      <trkpt lat="45.18766" lon="5.95866">
        <ele>1629.7</ele>
        <time>2026-07-14T09:18:24Z</time>
      </trkpt>
      <trkpt lat="45.18767" lon="5.95867">
        <ele>1629.9</ele>
        <time>2026-07-14T09:18:26Z</time>
      </trkpt>
      <trkpt lat="45.18767" lon="5.95868">
        <ele>1630</ele>
        <time>2026-07-14T09:18:27Z</time>
      </trkpt>
      <trkpt lat="45.18767" lon="5.95869">
        <ele>1630.1</ele>
        <time>2026-07-14T09:18:28Z</time>
      </trkpt>
      <trkpt lat="45.18766" lon="5.95869">
        <ele>1630.2</ele>
        <time>2026-07-14T09:18:29Z</time>
      </trkpt>
      <trkpt lat="45.18765" lon="5.9587">
        <ele>1630.4</ele>
        <time>2026-07-14T09:18:31Z</time>
      </trkpt>
      <trkpt lat="45.18764" lon="5.9587">
        <ele>1630.5</ele>
        <time>2026-07-14T09:18:32Z</time>
      </trkpt>
      <trkpt lat="45.18764" lon="5.9587">
        <ele>1630.6</ele>
        <time>2026-07-14T09:18:34Z</time>
      </trkpt>
      <trkpt lat="45.18764" lon="5.9587">
        <ele>1630.6</ele>
        <time>2026-07-14T09:18:35Z</time>
      </trkpt>
      <trkpt lat="45.18763" lon="5.95871">
        <ele>1630.7</ele>
        <time>2026-07-14T09:18:36Z</time>
      </trkpt>
      <trkpt lat="45.18764" lon="5.95871">
        <ele>1630.7</ele>
        <time>2026-07-14T09:18:37Z</time>
      </trkpt>
      <trkpt lat="45.18763" lon="5.95871">
        <ele>1630.8</ele>
        <time>2026-07-14T09:18:38Z</time>
      </trkpt>
      <trkpt lat="45.18763" lon="5.95871">
        <ele>1630.9</ele>
        <time>2026-07-14T09:18:39Z</time>
      </trkpt>
      <trkpt lat="45.18762" lon="5.9587">
        <ele>1631.1</ele>
        <time>2026-07-14T09:18:41Z</time>
      </trkpt>
      <trkpt lat="45.18761" lon="5.9587">
        <ele>1631.2</ele>
        <time>2026-07-14T09:18:42Z</time>
      </trkpt>
      <trkpt lat="45.18761" lon="5.95869">
        <ele>1631.2</ele>
        <time>2026-07-14T09:18:43Z</time>
      </trkpt>
      <trkpt lat="45.18761" lon="5.95869">
        <ele>1631.3</ele>
        <time>2026-07-14T09:18:44Z</time>
      </trkpt>
      <trkpt lat="45.1876" lon="5.95869">
        <ele>1631.3</ele>
        <time>2026-07-14T09:18:45Z</time>
      </trkpt>
      <trkpt lat="45.1876" lon="5.95869">
        <ele>1631.4</ele>
        <time>2026-07-14T09:18:46Z</time>
      </trkpt>
      <trkpt lat="45.18759" lon="5.9587">
        <ele>1631.5</ele>
        <time>2026-07-14T09:18:48Z</time>
      </trkpt>
      <trkpt lat="45.18759" lon="5.9587">
        <ele>1631.6</ele>
        <time>2026-07-14T09:18:49Z</time>
      </trkpt>
      <trkpt lat="45.18759" lon="5.95871">
        <ele>1631.7</ele>
        <time>2026-07-14T09:18:50Z</time>
      </trkpt>
      <trkpt lat="45.18759" lon="5.95871">
        <ele>1631.7</ele>
        <time>2026-07-14T09:18:51Z</time>
      </trkpt>
      <trkpt lat="45.18759" lon="5.95872">
        <ele>1631.8</ele>
        <time>2026-07-14T09:18:52Z</time>
      </trkpt>
      <trkpt lat="45.1876" lon="5.95872">
        <ele>1631.9</ele>
        <time>2026-07-14T09:18:53Z</time>
      </trkpt>
      <trkpt lat="45.1876" lon="5.95873">
        <ele>1631.9</ele>
        <time>2026-07-14T09:18:54Z</time>
      </trkpt>
      <trkpt lat="45.1876" lon="5.95874">
        <ele>1632</ele>
        <time>2026-07-14T09:18:55Z</time>
      </trkpt>
      <trkpt lat="45.1876" lon="5.95875">
        <ele>1632.1</ele>
        <time>2026-07-14T09:18:56Z</time>
      </trkpt>
      <trkpt lat="45.1876" lon="5.95875">
        <ele>1632.2</ele>
        <time>2026-07-14T09:18:57Z</time>
      </trkpt>
      <trkpt lat="45.1876" lon="5.95876">
        <ele>1632.2</ele>
        <time>2026-07-14T09:18:58Z</time>
      </trkpt>
      <trkpt lat="45.1876" lon="5.95876">
        <ele>1632.3</ele>
        <time>2026-07-14T09:18:59Z</time>
      </trkpt>
      <trkpt lat="45.1876" lon="5.95877">
        <ele>1632.4</ele>
        <time>2026-07-14T09:19:00Z</time>
      </trkpt>
      <trkpt lat="45.1876" lon="5.95878">
        <ele>1632.5</ele>
        <time>2026-07-14T09:19:01Z</time>
      </trkpt>
      <trkpt lat="45.1876" lon="5.95878">
        <ele>1632.5</ele>
        <time>2026-07-14T09:19:02Z</time>
      </trkpt>
      <trkpt lat="45.1876" lon="5.95879">
        <ele>1632.6</ele>
        <time>2026-07-14T09:19:03Z</time>
      </trkpt>
      <trkpt lat="45.1876" lon="5.9588">
        <ele>1632.7</ele>
        <time>2026-07-14T09:19:05Z</time>
      </trkpt>
      <trkpt lat="45.1876" lon="5.9588">
        <ele>1632.8</ele>
        <time>2026-07-14T09:19:06Z</time>
      </trkpt>
      <trkpt lat="45.18761" lon="5.95883">
        <ele>1633</ele>
        <time>2026-07-14T09:19:07Z</time>
      </trkpt>
      <trkpt lat="45.18761" lon="5.95884">
        <ele>1633.1</ele>
        <time>2026-07-14T09:19:08Z</time>
      </trkpt>
      <trkpt lat="45.18761" lon="5.95884">
        <ele>1633.2</ele>
        <time>2026-07-14T09:19:09Z</time>
      </trkpt>
      <trkpt lat="45.1876" lon="5.95885">
        <ele>1633.3</ele>
        <time>2026-07-14T09:19:10Z</time>
      </trkpt>
      <trkpt lat="45.1876" lon="5.95886">
        <ele>1633.4</ele>
        <time>2026-07-14T09:19:11Z</time>
      </trkpt>
      <trkpt lat="45.18759" lon="5.95887">
        <ele>1633.5</ele>
        <time>2026-07-14T09:19:12Z</time>
      </trkpt>
      <trkpt lat="45.18759" lon="5.95887">
        <ele>1633.6</ele>
        <time>2026-07-14T09:19:13Z</time>
      </trkpt>
      <trkpt lat="45.18758" lon="5.95888">
        <ele>1633.8</ele>
        <time>2026-07-14T09:19:14Z</time>
      </trkpt>
      <trkpt lat="45.18757" lon="5.95889">
        <ele>1633.9</ele>
        <time>2026-07-14T09:19:16Z</time>
      </trkpt>
      <trkpt lat="45.18757" lon="5.9589">
        <ele>1634</ele>
        <time>2026-07-14T09:19:17Z</time>
      </trkpt>
      <trkpt lat="45.18757" lon="5.9589">
        <ele>1634.1</ele>
        <time>2026-07-14T09:19:18Z</time>
      </trkpt>
      <trkpt lat="45.18757" lon="5.95891">
        <ele>1634.2</ele>
        <time>2026-07-14T09:19:20Z</time>
      </trkpt>
      <trkpt lat="45.18757" lon="5.95892">
        <ele>1634.2</ele>
        <time>2026-07-14T09:19:21Z</time>
      </trkpt>
      <trkpt lat="45.18757" lon="5.95892">
        <ele>1634.4</ele>
        <time>2026-07-14T09:19:23Z</time>
      </trkpt>
      <trkpt lat="45.18756" lon="5.95893">
        <ele>1634.5</ele>
        <time>2026-07-14T09:19:24Z</time>
      </trkpt>
      <trkpt lat="45.18755" lon="5.95893">
        <ele>1634.5</ele>
        <time>2026-07-14T09:19:25Z</time>
      </trkpt>
      <trkpt lat="45.18755" lon="5.95892">
        <ele>1634.7</ele>
        <time>2026-07-14T09:19:27Z</time>
      </trkpt>
      <trkpt lat="45.18754" lon="5.95892">
        <ele>1634.8</ele>
        <time>2026-07-14T09:19:28Z</time>
      </trkpt>
      <trkpt lat="45.18754" lon="5.95892">
        <ele>1634.8</ele>
        <time>2026-07-14T09:19:29Z</time>
      </trkpt>
      <trkpt lat="45.18754" lon="5.95892">
        <ele>1634.8</ele>
        <time>2026-07-14T09:19:30Z</time>
      </trkpt>
      <trkpt lat="45.18754" lon="5.95892">
        <ele>1634.9</ele>
        <time>2026-07-14T09:19:31Z</time>
      </trkpt>
      <trkpt lat="45.18753" lon="5.95893">
        <ele>1635</ele>
        <time>2026-07-14T09:19:32Z</time>
      </trkpt>
      <trkpt lat="45.18753" lon="5.95893">
        <ele>1635</ele>
        <time>2026-07-14T09:19:33Z</time>
      </trkpt>
      <trkpt lat="45.18753" lon="5.95894">
        <ele>1635.1</ele>
        <time>2026-07-14T09:19:34Z</time>
      </trkpt>
      <trkpt lat="45.18753" lon="5.95895">
        <ele>1635.2</ele>
        <time>2026-07-14T09:19:35Z</time>
      </trkpt>
      <trkpt lat="45.18754" lon="5.95896">
        <ele>1635.3</ele>
        <time>2026-07-14T09:19:36Z</time>
      </trkpt>
      <trkpt lat="45.18754" lon="5.95897">
        <ele>1635.4</ele>
        <time>2026-07-14T09:19:37Z</time>
      </trkpt>
      <trkpt lat="45.18754" lon="5.95898">
        <ele>1635.5</ele>
        <time>2026-07-14T09:19:38Z</time>
      </trkpt>
      <trkpt lat="45.18754" lon="5.959">
        <ele>1635.8</ele>
        <time>2026-07-14T09:19:40Z</time>
      </trkpt>
      <trkpt lat="45.18754" lon="5.95901">
        <ele>1635.9</ele>
        <time>2026-07-14T09:19:41Z</time>
      </trkpt>
      <trkpt lat="45.18754" lon="5.95902">
        <ele>1635.9</ele>
        <time>2026-07-14T09:19:42Z</time>
      </trkpt>
      <trkpt lat="45.18754" lon="5.95902">
        <ele>1636</ele>
        <time>2026-07-14T09:19:43Z</time>
      </trkpt>
      <trkpt lat="45.18754" lon="5.95903">
        <ele>1636.1</ele>
        <time>2026-07-14T09:19:45Z</time>
      </trkpt>
      <trkpt lat="45.18754" lon="5.95904">
        <ele>1636.2</ele>
        <time>2026-07-14T09:19:46Z</time>
      </trkpt>
      <trkpt lat="45.18754" lon="5.95905">
        <ele>1636.3</ele>
        <time>2026-07-14T09:19:47Z</time>
      </trkpt>
      <trkpt lat="45.18754" lon="5.95905">
        <ele>1636.4</ele>
        <time>2026-07-14T09:19:48Z</time>
      </trkpt>
      <trkpt lat="45.18754" lon="5.95906">
        <ele>1636.4</ele>
        <time>2026-07-14T09:19:49Z</time>
      </trkpt>
      <trkpt lat="45.18754" lon="5.95906">
        <ele>1636.5</ele>
        <time>2026-07-14T09:19:50Z</time>
      </trkpt>
      <trkpt lat="45.18754" lon="5.95907">
        <ele>1636.6</ele>
        <time>2026-07-14T09:19:51Z</time>
      </trkpt>
      <trkpt lat="45.18753" lon="5.95907">
        <ele>1636.6</ele>
        <time>2026-07-14T09:19:52Z</time>
      </trkpt>
      <trkpt lat="45.18753" lon="5.95908">
        <ele>1636.7</ele>
        <time>2026-07-14T09:19:53Z</time>
      </trkpt>
      <trkpt lat="45.18753" lon="5.95909">
        <ele>1636.8</ele>
        <time>2026-07-14T09:19:54Z</time>
      </trkpt>
      <trkpt lat="45.18752" lon="5.9591">
        <ele>1636.9</ele>
        <time>2026-07-14T09:19:55Z</time>
      </trkpt>
      <trkpt lat="45.18753" lon="5.95911">
        <ele>1637</ele>
        <time>2026-07-14T09:19:57Z</time>
      </trkpt>
      <trkpt lat="45.18753" lon="5.95912">
        <ele>1637.1</ele>
        <time>2026-07-14T09:19:58Z</time>
      </trkpt>
      <trkpt lat="45.18753" lon="5.95912">
        <ele>1637.2</ele>
        <time>2026-07-14T09:19:59Z</time>
      </trkpt>
      <trkpt lat="45.18753" lon="5.95913">
        <ele>1637.3</ele>
        <time>2026-07-14T09:20:01Z</time>
      </trkpt>
      <trkpt lat="45.18754" lon="5.95914">
        <ele>1637.4</ele>
        <time>2026-07-14T09:20:02Z</time>
      </trkpt>
      <trkpt lat="45.18754" lon="5.95915">
        <ele>1637.5</ele>
        <time>2026-07-14T09:20:03Z</time>
      </trkpt>
      <trkpt lat="45.18753" lon="5.95916">
        <ele>1637.6</ele>
        <time>2026-07-14T09:20:04Z</time>
      </trkpt>
      <trkpt lat="45.18752" lon="5.95917">
        <ele>1637.7</ele>
        <time>2026-07-14T09:20:06Z</time>
      </trkpt>
      <trkpt lat="45.18752" lon="5.95917">
        <ele>1637.8</ele>
        <time>2026-07-14T09:20:07Z</time>
      </trkpt>
      <trkpt lat="45.18751" lon="5.95919">
        <ele>1638.1</ele>
        <time>2026-07-14T09:20:09Z</time>
      </trkpt>
      <trkpt lat="45.18751" lon="5.9592">
        <ele>1638.2</ele>
        <time>2026-07-14T09:20:10Z</time>
      </trkpt>
      <trkpt lat="45.1875" lon="5.95921">
        <ele>1638.4</ele>
        <time>2026-07-14T09:20:12Z</time>
      </trkpt>
      <trkpt lat="45.1875" lon="5.95922">
        <ele>1638.4</ele>
        <time>2026-07-14T09:20:14Z</time>
      </trkpt>
      <trkpt lat="45.1875" lon="5.95924">
        <ele>1638.6</ele>
        <time>2026-07-14T09:20:15Z</time>
      </trkpt>
      <trkpt lat="45.1875" lon="5.95924">
        <ele>1638.6</ele>
        <time>2026-07-14T09:20:16Z</time>
      </trkpt>
      <trkpt lat="45.1875" lon="5.95925">
        <ele>1638.7</ele>
        <time>2026-07-14T09:20:17Z</time>
      </trkpt>
      <trkpt lat="45.18749" lon="5.95926">
        <ele>1638.9</ele>
        <time>2026-07-14T09:20:19Z</time>
      </trkpt>
      <trkpt lat="45.18748" lon="5.95928">
        <ele>1639.1</ele>
        <time>2026-07-14T09:20:21Z</time>
      </trkpt>
      <trkpt lat="45.18748" lon="5.95928">
        <ele>1639.2</ele>
        <time>2026-07-14T09:20:22Z</time>
      </trkpt>
      <trkpt lat="45.18747" lon="5.95929">
        <ele>1639.3</ele>
        <time>2026-07-14T09:20:23Z</time>
      </trkpt>
      <trkpt lat="45.18746" lon="5.9593">
        <ele>1639.4</ele>
        <time>2026-07-14T09:20:24Z</time>
      </trkpt>
      <trkpt lat="45.18746" lon="5.95931">
        <ele>1639.6</ele>
        <time>2026-07-14T09:20:25Z</time>
      </trkpt>
      <trkpt lat="45.18746" lon="5.95932">
        <ele>1639.7</ele>
        <time>2026-07-14T09:20:26Z</time>
      </trkpt>
      <trkpt lat="45.18746" lon="5.95933">
        <ele>1639.7</ele>
        <time>2026-07-14T09:20:27Z</time>
      </trkpt>
      <trkpt lat="45.18746" lon="5.95934">
        <ele>1639.8</ele>
        <time>2026-07-14T09:20:28Z</time>
      </trkpt>
      <trkpt lat="45.18745" lon="5.95934">
        <ele>1639.9</ele>
        <time>2026-07-14T09:20:29Z</time>
      </trkpt>
      <trkpt lat="45.18745" lon="5.95935">
        <ele>1640</ele>
        <time>2026-07-14T09:20:30Z</time>
      </trkpt>
      <trkpt lat="45.18745" lon="5.95936">
        <ele>1640.1</ele>
        <time>2026-07-14T09:20:31Z</time>
      </trkpt>
      <trkpt lat="45.18744" lon="5.95936">
        <ele>1640.2</ele>
        <time>2026-07-14T09:20:32Z</time>
      </trkpt>
      <trkpt lat="45.18743" lon="5.95937">
        <ele>1640.3</ele>
        <time>2026-07-14T09:20:33Z</time>
      </trkpt>
      <trkpt lat="45.18741" lon="5.95936">
        <ele>1640.6</ele>
        <time>2026-07-14T09:20:35Z</time>
      </trkpt>
      <trkpt lat="45.18741" lon="5.95936">
        <ele>1640.7</ele>
        <time>2026-07-14T09:20:36Z</time>
      </trkpt>
      <trkpt lat="45.1874" lon="5.95937">
        <ele>1640.8</ele>
        <time>2026-07-14T09:20:37Z</time>
      </trkpt>
      <trkpt lat="45.18739" lon="5.95937">
        <ele>1640.9</ele>
        <time>2026-07-14T09:20:38Z</time>
      </trkpt>
      <trkpt lat="45.18739" lon="5.95938">
        <ele>1641</ele>
        <time>2026-07-14T09:20:39Z</time>
      </trkpt>
      <trkpt lat="45.18738" lon="5.95938">
        <ele>1641.1</ele>
        <time>2026-07-14T09:20:40Z</time>
      </trkpt>
      <trkpt lat="45.18738" lon="5.95938">
        <ele>1641.2</ele>
        <time>2026-07-14T09:20:41Z</time>
      </trkpt>
      <trkpt lat="45.18737" lon="5.95938">
        <ele>1641.2</ele>
        <time>2026-07-14T09:20:42Z</time>
      </trkpt>
      <trkpt lat="45.18737" lon="5.95938">
        <ele>1641.3</ele>
        <time>2026-07-14T09:20:43Z</time>
      </trkpt>
      <trkpt lat="45.18736" lon="5.95938">
        <ele>1641.4</ele>
        <time>2026-07-14T09:20:44Z</time>
      </trkpt>
      <trkpt lat="45.18735" lon="5.95939">
        <ele>1641.5</ele>
        <time>2026-07-14T09:20:45Z</time>
      </trkpt>
      <trkpt lat="45.18735" lon="5.9594">
        <ele>1641.6</ele>
        <time>2026-07-14T09:20:46Z</time>
      </trkpt>
      <trkpt lat="45.18735" lon="5.9594">
        <ele>1641.7</ele>
        <time>2026-07-14T09:20:47Z</time>
      </trkpt>
      <trkpt lat="45.18735" lon="5.95941">
        <ele>1641.7</ele>
        <time>2026-07-14T09:20:48Z</time>
      </trkpt>
      <trkpt lat="45.18734" lon="5.9594">
        <ele>1641.8</ele>
        <time>2026-07-14T09:20:50Z</time>
      </trkpt>
      <trkpt lat="45.18734" lon="5.9594">
        <ele>1641.8</ele>
        <time>2026-07-14T09:20:51Z</time>
      </trkpt>
      <trkpt lat="45.18733" lon="5.95939">
        <ele>1642</ele>
        <time>2026-07-14T09:20:53Z</time>
      </trkpt>
      <trkpt lat="45.18733" lon="5.9594">
        <ele>1642</ele>
        <time>2026-07-14T09:20:54Z</time>
      </trkpt>
      <trkpt lat="45.18732" lon="5.9594">
        <ele>1642.1</ele>
        <time>2026-07-14T09:20:55Z</time>
      </trkpt>
      <trkpt lat="45.18732" lon="5.95941">
        <ele>1642.2</ele>
        <time>2026-07-14T09:20:56Z</time>
      </trkpt>
      <trkpt lat="45.18731" lon="5.95942">
        <ele>1642.3</ele>
        <time>2026-07-14T09:20:57Z</time>
      </trkpt>
      <trkpt lat="45.18731" lon="5.95942">
        <ele>1642.3</ele>
        <time>2026-07-14T09:20:58Z</time>
      </trkpt>
      <trkpt lat="45.18731" lon="5.95944">
        <ele>1642.5</ele>
        <time>2026-07-14T09:21:00Z</time>
      </trkpt>
      <trkpt lat="45.1873" lon="5.95945">
        <ele>1642.6</ele>
        <time>2026-07-14T09:21:01Z</time>
      </trkpt>
      <trkpt lat="45.1873" lon="5.95945">
        <ele>1642.7</ele>
        <time>2026-07-14T09:21:02Z</time>
      </trkpt>
      <trkpt lat="45.1873" lon="5.95946">
        <ele>1642.7</ele>
        <time>2026-07-14T09:21:03Z</time>
      </trkpt>
      <trkpt lat="45.18729" lon="5.95947">
        <ele>1642.8</ele>
        <time>2026-07-14T09:21:04Z</time>
      </trkpt>
      <trkpt lat="45.18729" lon="5.95948">
        <ele>1642.9</ele>
        <time>2026-07-14T09:21:06Z</time>
      </trkpt>
      <trkpt lat="45.1873" lon="5.9595">
        <ele>1643.1</ele>
        <time>2026-07-14T09:21:07Z</time>
      </trkpt>
      <trkpt lat="45.18731" lon="5.95951">
        <ele>1643.3</ele>
        <time>2026-07-14T09:21:08Z</time>
      </trkpt>
      <trkpt lat="45.18731" lon="5.95952">
        <ele>1643.3</ele>
        <time>2026-07-14T09:21:09Z</time>
      </trkpt>
      <trkpt lat="45.18731" lon="5.95952">
        <ele>1643.4</ele>
        <time>2026-07-14T09:21:10Z</time>
      </trkpt>
      <trkpt lat="45.18732" lon="5.95953">
        <ele>1643.5</ele>
        <time>2026-07-14T09:21:11Z</time>
      </trkpt>
      <trkpt lat="45.18732" lon="5.95954">
        <ele>1643.6</ele>
        <time>2026-07-14T09:21:13Z</time>
      </trkpt>
      <trkpt lat="45.18732" lon="5.95954">
        <ele>1643.6</ele>
        <time>2026-07-14T09:21:14Z</time>
      </trkpt>
      <trkpt lat="45.18733" lon="5.95954">
        <ele>1643.6</ele>
        <time>2026-07-14T09:21:15Z</time>
      </trkpt>
      <trkpt lat="45.18733" lon="5.95954">
        <ele>1643.6</ele>
        <time>2026-07-14T09:21:16Z</time>
      </trkpt>
      <trkpt lat="45.18733" lon="5.95954">
        <ele>1643.7</ele>
        <time>2026-07-14T09:21:17Z</time>
      </trkpt>
      <trkpt lat="45.18733" lon="5.95954">
        <ele>1643.7</ele>
        <time>2026-07-14T09:21:18Z</time>
      </trkpt>
      <trkpt lat="45.18733" lon="5.95954">
        <ele>1643.7</ele>
        <time>2026-07-14T09:21:19Z</time>
      </trkpt>
      <trkpt lat="45.18733" lon="5.95954">
        <ele>1643.7</ele>
        <time>2026-07-14T09:21:20Z</time>
      </trkpt>
      <trkpt lat="45.18733" lon="5.95954">
        <ele>1643.7</ele>
        <time>2026-07-14T09:21:21Z</time>
      </trkpt>
      <trkpt lat="45.18733" lon="5.95954">
        <ele>1643.7</ele>
        <time>2026-07-14T09:21:22Z</time>
      </trkpt>
      <trkpt lat="45.18733" lon="5.95954">
        <ele>1643.7</ele>
        <time>2026-07-14T09:21:23Z</time>
      </trkpt>
      <trkpt lat="45.18733" lon="5.95954">
        <ele>1643.7</ele>
        <time>2026-07-14T09:21:24Z</time>
      </trkpt>
      <trkpt lat="45.18733" lon="5.95954">
        <ele>1643.7</ele>
        <time>2026-07-14T09:21:25Z</time>
      </trkpt>
      <trkpt lat="45.18733" lon="5.95954">
        <ele>1643.7</ele>
        <time>2026-07-14T09:21:26Z</time>
      </trkpt>
      <trkpt lat="45.18733" lon="5.95954">
        <ele>1643.7</ele>
        <time>2026-07-14T09:21:27Z</time>
      </trkpt>
      <trkpt lat="45.18733" lon="5.95954">
        <ele>1643.7</ele>
        <time>2026-07-14T09:21:28Z</time>
      </trkpt>
      <trkpt lat="45.18733" lon="5.95954">
        <ele>1643.7</ele>
        <time>2026-07-14T09:21:29Z</time>
      </trkpt>
      <trkpt lat="45.18733" lon="5.95954">
        <ele>1643.8</ele>
        <time>2026-07-14T09:21:30Z</time>
      </trkpt>
      <trkpt lat="45.18733" lon="5.95954">
        <ele>1643.8</ele>
        <time>2026-07-14T09:21:31Z</time>
      </trkpt>
      <trkpt lat="45.18733" lon="5.95954">
        <ele>1643.8</ele>
        <time>2026-07-14T09:21:32Z</time>
      </trkpt>
      <trkpt lat="45.18733" lon="5.95954">
        <ele>1643.8</ele>
        <time>2026-07-14T09:21:33Z</time>
      </trkpt>
      <trkpt lat="45.18733" lon="5.95954">
        <ele>1643.8</ele>
        <time>2026-07-14T09:21:34Z</time>
      </trkpt>
      <trkpt lat="45.18734" lon="5.95954">
        <ele>1643.8</ele>
        <time>2026-07-14T09:21:35Z</time>
      </trkpt>
      <trkpt lat="45.18734" lon="5.95955">
        <ele>1643.9</ele>
        <time>2026-07-14T09:21:36Z</time>
      </trkpt>
      <trkpt lat="45.18734" lon="5.95955">
        <ele>1643.9</ele>
        <time>2026-07-14T09:21:37Z</time>
      </trkpt>
      <trkpt lat="45.18734" lon="5.95955">
        <ele>1643.9</ele>
        <time>2026-07-14T09:21:38Z</time>
      </trkpt>
      <trkpt lat="45.18734" lon="5.95955">
        <ele>1643.9</ele>
        <time>2026-07-14T09:21:39Z</time>
      </trkpt>
      <trkpt lat="45.18734" lon="5.95955">
        <ele>1643.9</ele>
        <time>2026-07-14T09:21:40Z</time>
      </trkpt>
      <trkpt lat="45.18734" lon="5.95955">
        <ele>1643.9</ele>
        <time>2026-07-14T09:21:41Z</time>
      </trkpt>
      <trkpt lat="45.18734" lon="5.95955">
        <ele>1643.9</ele>
        <time>2026-07-14T09:21:42Z</time>
      </trkpt>
      <trkpt lat="45.18734" lon="5.95955">
        <ele>1643.9</ele>
        <time>2026-07-14T09:21:43Z</time>
      </trkpt>
      <trkpt lat="45.18734" lon="5.95955">
        <ele>1643.9</ele>
        <time>2026-07-14T09:21:44Z</time>
      </trkpt>
      <trkpt lat="45.18734" lon="5.95955">
        <ele>1643.9</ele>
        <time>2026-07-14T09:21:45Z</time>
      </trkpt>
      <trkpt lat="45.18734" lon="5.95955">
        <ele>1643.9</ele>
        <time>2026-07-14T09:21:46Z</time>
      </trkpt>
      <trkpt lat="45.18734" lon="5.95955">
        <ele>1643.9</ele>
        <time>2026-07-14T09:21:47Z</time>
      </trkpt>
      <trkpt lat="45.18734" lon="5.95955">
        <ele>1643.9</ele>
        <time>2026-07-14T09:21:48Z</time>
      </trkpt>
      <trkpt lat="45.18734" lon="5.95955">
        <ele>1643.9</ele>
        <time>2026-07-14T09:21:49Z</time>
      </trkpt>
      <trkpt lat="45.18734" lon="5.95955">
        <ele>1643.9</ele>
        <time>2026-07-14T09:21:50Z</time>
      </trkpt>
      <trkpt lat="45.18734" lon="5.95955">
        <ele>1643.9</ele>
        <time>2026-07-14T09:21:51Z</time>
      </trkpt>
      <trkpt lat="45.18734" lon="5.95955">
        <ele>1643.9</ele>
        <time>2026-07-14T09:21:52Z</time>
      </trkpt>
      <trkpt lat="45.18734" lon="5.95955">
        <ele>1643.9</ele>
        <time>2026-07-14T09:21:53Z</time>
      </trkpt>
      <trkpt lat="45.18734" lon="5.95955">
        <ele>1643.9</ele>
        <time>2026-07-14T09:21:54Z</time>
      </trkpt>
      <trkpt lat="45.18734" lon="5.95955">
        <ele>1643.9</ele>
        <time>2026-07-14T09:21:55Z</time>
      </trkpt>
      <trkpt lat="45.18734" lon="5.95955">
        <ele>1643.9</ele>
        <time>2026-07-14T09:21:56Z</time>
      </trkpt>
      <trkpt lat="45.18734" lon="5.95955">
        <ele>1643.9</ele>
        <time>2026-07-14T09:21:57Z</time>
      </trkpt>
      <trkpt lat="45.18734" lon="5.95955">
        <ele>1643.9</ele>
        <time>2026-07-14T09:21:58Z</time>
      </trkpt>
      <trkpt lat="45.18734" lon="5.95955">
        <ele>1643.9</ele>
        <time>2026-07-14T09:21:59Z</time>
      </trkpt>
      <trkpt lat="45.18734" lon="5.95955">
        <ele>1643.9</ele>
        <time>2026-07-14T09:22:00Z</time>
      </trkpt>
      <trkpt lat="45.18734" lon="5.95955">
        <ele>1643.9</ele>
        <time>2026-07-14T09:22:01Z</time>
      </trkpt>
      <trkpt lat="45.18734" lon="5.95955">
        <ele>1643.9</ele>
        <time>2026-07-14T09:22:02Z</time>
      </trkpt>
      <trkpt lat="45.18734" lon="5.95955">
        <ele>1643.9</ele>
        <time>2026-07-14T09:22:03Z</time>
      </trkpt>
      <trkpt lat="45.18734" lon="5.95955">
        <ele>1643.9</ele>
        <time>2026-07-14T09:22:04Z</time>
      </trkpt>
      <trkpt lat="45.18734" lon="5.95955">
        <ele>1643.9</ele>
        <time>2026-07-14T09:22:05Z</time>
      </trkpt>
      <trkpt lat="45.18734" lon="5.95955">
        <ele>1643.9</ele>
        <time>2026-07-14T09:22:06Z</time>
      </trkpt>
      <trkpt lat="45.18734" lon="5.95955">
        <ele>1643.9</ele>
        <time>2026-07-14T09:22:07Z</time>
      </trkpt>
      <trkpt lat="45.18734" lon="5.95955">
        <ele>1643.9</ele>
        <time>2026-07-14T09:22:08Z</time>
      </trkpt>
      <trkpt lat="45.18734" lon="5.95955">
        <ele>1643.9</ele>
        <time>2026-07-14T09:22:09Z</time>
      </trkpt>
      <trkpt lat="45.18734" lon="5.95955">
        <ele>1643.9</ele>
        <time>2026-07-14T09:22:10Z</time>
      </trkpt>
      <trkpt lat="45.18734" lon="5.95955">
        <ele>1643.9</ele>
        <time>2026-07-14T09:22:11Z</time>
      </trkpt>
      <trkpt lat="45.18734" lon="5.95955">
        <ele>1643.9</ele>
        <time>2026-07-14T09:22:12Z</time>
      </trkpt>
      <trkpt lat="45.18734" lon="5.95955">
        <ele>1643.9</ele>
        <time>2026-07-14T09:22:13Z</time>
      </trkpt>
      <trkpt lat="45.18734" lon="5.95955">
        <ele>1643.9</ele>
        <time>2026-07-14T09:22:14Z</time>
      </trkpt>
      <trkpt lat="45.18734" lon="5.95955">
        <ele>1643.9</ele>
        <time>2026-07-14T09:22:15Z</time>
      </trkpt>
      <trkpt lat="45.18734" lon="5.95955">
        <ele>1643.9</ele>
        <time>2026-07-14T09:22:16Z</time>
      </trkpt>
      <trkpt lat="45.18734" lon="5.95955">
        <ele>1643.9</ele>
        <time>2026-07-14T09:22:17Z</time>
      </trkpt>
      <trkpt lat="45.18734" lon="5.95955">
        <ele>1643.9</ele>
        <time>2026-07-14T09:22:18Z</time>
      </trkpt>
      <trkpt lat="45.18734" lon="5.95955">
        <ele>1643.9</ele>
        <time>2026-07-14T09:22:19Z</time>
      </trkpt>
      <trkpt lat="45.18734" lon="5.95955">
        <ele>1643.9</ele>
        <time>2026-07-14T09:22:20Z</time>
      </trkpt>
      <trkpt lat="45.18734" lon="5.95955">
        <ele>1643.9</ele>
        <time>2026-07-14T09:22:21Z</time>
      </trkpt>
      <trkpt lat="45.18734" lon="5.95955">
        <ele>1643.9</ele>
        <time>2026-07-14T09:22:22Z</time>
      </trkpt>
      <trkpt lat="45.18734" lon="5.95955">
        <ele>1643.9</ele>
        <time>2026-07-14T09:22:23Z</time>
      </trkpt>
      <trkpt lat="45.18734" lon="5.95955">
        <ele>1643.9</ele>
        <time>2026-07-14T09:22:24Z</time>
      </trkpt>
      <trkpt lat="45.18734" lon="5.95955">
        <ele>1643.9</ele>
        <time>2026-07-14T09:22:25Z</time>
      </trkpt>
      <trkpt lat="45.18734" lon="5.95955">
        <ele>1643.9</ele>
        <time>2026-07-14T09:22:26Z</time>
      </trkpt>
      <trkpt lat="45.18734" lon="5.95954">
        <ele>1644</ele>
        <time>2026-07-14T09:22:27Z</time>
      </trkpt>
      <trkpt lat="45.18734" lon="5.95954">
        <ele>1644</ele>
        <time>2026-07-14T09:22:28Z</time>
      </trkpt>
      <trkpt lat="45.18734" lon="5.95954">
        <ele>1644</ele>
        <time>2026-07-14T09:22:29Z</time>
      </trkpt>
      <trkpt lat="45.18734" lon="5.95954">
        <ele>1644</ele>
        <time>2026-07-14T09:22:30Z</time>
      </trkpt>
      <trkpt lat="45.18734" lon="5.95954">
        <ele>1644</ele>
        <time>2026-07-14T09:22:31Z</time>
      </trkpt>
      <trkpt lat="45.18734" lon="5.95954">
        <ele>1644</ele>
        <time>2026-07-14T09:22:32Z</time>
      </trkpt>
      <trkpt lat="45.18734" lon="5.95954">
        <ele>1644</ele>
        <time>2026-07-14T09:22:33Z</time>
      </trkpt>
      <trkpt lat="45.18734" lon="5.95954">
        <ele>1644</ele>
        <time>2026-07-14T09:22:34Z</time>
      </trkpt>
      <trkpt lat="45.18734" lon="5.95954">
        <ele>1644</ele>
        <time>2026-07-14T09:22:36Z</time>
      </trkpt>
      <trkpt lat="45.18734" lon="5.95954">
        <ele>1644</ele>
        <time>2026-07-14T09:22:37Z</time>
      </trkpt>
      <trkpt lat="45.18734" lon="5.95954">
        <ele>1644</ele>
        <time>2026-07-14T09:22:39Z</time>
      </trkpt>
      <trkpt lat="45.18734" lon="5.95954">
        <ele>1644</ele>
        <time>2026-07-14T09:22:40Z</time>
      </trkpt>
      <trkpt lat="45.18734" lon="5.95954">
        <ele>1644</ele>
        <time>2026-07-14T09:22:41Z</time>
      </trkpt>
      <trkpt lat="45.18734" lon="5.95954">
        <ele>1644</ele>
        <time>2026-07-14T09:22:42Z</time>
      </trkpt>
      <trkpt lat="45.18734" lon="5.95954">
        <ele>1644</ele>
        <time>2026-07-14T09:22:43Z</time>
      </trkpt>
      <trkpt lat="45.18734" lon="5.95954">
        <ele>1644</ele>
        <time>2026-07-14T09:22:44Z</time>
      </trkpt>
      <trkpt lat="45.18734" lon="5.95954">
        <ele>1644</ele>
        <time>2026-07-14T09:22:45Z</time>
      </trkpt>
      <trkpt lat="45.18734" lon="5.95954">
        <ele>1644</ele>
        <time>2026-07-14T09:22:47Z</time>
      </trkpt>
      <trkpt lat="45.18734" lon="5.95954">
        <ele>1644</ele>
        <time>2026-07-14T09:22:49Z</time>
      </trkpt>
      <trkpt lat="45.18734" lon="5.95954">
        <ele>1644</ele>
        <time>2026-07-14T09:22:50Z</time>
      </trkpt>
      <trkpt lat="45.18734" lon="5.95953">
        <ele>1644.1</ele>
        <time>2026-07-14T09:22:52Z</time>
      </trkpt>
      <trkpt lat="45.18734" lon="5.95953">
        <ele>1644.1</ele>
        <time>2026-07-14T09:22:53Z</time>
      </trkpt>
      <trkpt lat="45.18734" lon="5.95953">
        <ele>1644.1</ele>
        <time>2026-07-14T09:22:54Z</time>
      </trkpt>
      <trkpt lat="45.18734" lon="5.95953">
        <ele>1644.1</ele>
        <time>2026-07-14T09:22:55Z</time>
      </trkpt>
      <trkpt lat="45.18734" lon="5.95954">
        <ele>1644.2</ele>
        <time>2026-07-14T09:22:57Z</time>
      </trkpt>
      <trkpt lat="45.18734" lon="5.95954">
        <ele>1644.3</ele>
        <time>2026-07-14T09:22:58Z</time>
      </trkpt>
      <trkpt lat="45.18734" lon="5.95955">
        <ele>1644.3</ele>
        <time>2026-07-14T09:22:59Z</time>
      </trkpt>
      <trkpt lat="45.18734" lon="5.95956">
        <ele>1644.4</ele>
        <time>2026-07-14T09:23:00Z</time>
      </trkpt>
      <trkpt lat="45.18734" lon="5.95957">
        <ele>1644.5</ele>
        <time>2026-07-14T09:23:02Z</time>
      </trkpt>
      <trkpt lat="45.18734" lon="5.95957">
        <ele>1644.5</ele>
        <time>2026-07-14T09:23:03Z</time>
      </trkpt>
      <trkpt lat="45.18733" lon="5.95957">
        <ele>1644.6</ele>
        <time>2026-07-14T09:23:05Z</time>
      </trkpt>
      <trkpt lat="45.18732" lon="5.95957">
        <ele>1644.8</ele>
        <time>2026-07-14T09:23:07Z</time>
      </trkpt>
      <trkpt lat="45.18731" lon="5.95958">
        <ele>1644.9</ele>
        <time>2026-07-14T09:23:09Z</time>
      </trkpt>
      <trkpt lat="45.1873" lon="5.95959">
        <ele>1645.1</ele>
        <time>2026-07-14T09:23:10Z</time>
      </trkpt>
      <trkpt lat="45.1873" lon="5.9596">
        <ele>1645.2</ele>
        <time>2026-07-14T09:23:11Z</time>
      </trkpt>
      <trkpt lat="45.18729" lon="5.95961">
        <ele>1645.4</ele>
        <time>2026-07-14T09:23:12Z</time>
      </trkpt>
      <trkpt lat="45.18728" lon="5.95962">
        <ele>1645.5</ele>
        <time>2026-07-14T09:23:13Z</time>
      </trkpt>
      <trkpt lat="45.18728" lon="5.95964">
        <ele>1645.7</ele>
        <time>2026-07-14T09:23:15Z</time>
      </trkpt>
      <trkpt lat="45.18728" lon="5.95965">
        <ele>1645.8</ele>
        <time>2026-07-14T09:23:17Z</time>
      </trkpt>
      <trkpt lat="45.18727" lon="5.95966">
        <ele>1646</ele>
        <time>2026-07-14T09:23:19Z</time>
      </trkpt>
      <trkpt lat="45.18726" lon="5.95966">
        <ele>1646.1</ele>
        <time>2026-07-14T09:23:20Z</time>
      </trkpt>
      <trkpt lat="45.18725" lon="5.95967">
        <ele>1646.2</ele>
        <time>2026-07-14T09:23:22Z</time>
      </trkpt>
      <trkpt lat="45.18725" lon="5.95968">
        <ele>1646.4</ele>
        <time>2026-07-14T09:23:24Z</time>
      </trkpt>
      <trkpt lat="45.18724" lon="5.9597">
        <ele>1646.5</ele>
        <time>2026-07-14T09:23:25Z</time>
      </trkpt>
      <trkpt lat="45.18724" lon="5.9597">
        <ele>1646.6</ele>
        <time>2026-07-14T09:23:26Z</time>
      </trkpt>
      <trkpt lat="45.18725" lon="5.95973">
        <ele>1646.9</ele>
        <time>2026-07-14T09:23:28Z</time>
      </trkpt>
      <trkpt lat="45.18726" lon="5.95974">
        <ele>1647.1</ele>
        <time>2026-07-14T09:23:29Z</time>
      </trkpt>
      <trkpt lat="45.18726" lon="5.95975">
        <ele>1647.2</ele>
        <time>2026-07-14T09:23:30Z</time>
      </trkpt>
      <trkpt lat="45.18726" lon="5.95976">
        <ele>1647.3</ele>
        <time>2026-07-14T09:23:31Z</time>
      </trkpt>
      <trkpt lat="45.18726" lon="5.95978">
        <ele>1647.5</ele>
        <time>2026-07-14T09:23:33Z</time>
      </trkpt>
      <trkpt lat="45.18727" lon="5.95979">
        <ele>1647.7</ele>
        <time>2026-07-14T09:23:35Z</time>
      </trkpt>
      <trkpt lat="45.18727" lon="5.95981">
        <ele>1647.9</ele>
        <time>2026-07-14T09:23:37Z</time>
      </trkpt>
      <trkpt lat="45.18727" lon="5.95982">
        <ele>1648</ele>
        <time>2026-07-14T09:23:38Z</time>
      </trkpt>
      <trkpt lat="45.18727" lon="5.95983">
        <ele>1648.1</ele>
        <time>2026-07-14T09:23:39Z</time>
      </trkpt>
      <trkpt lat="45.18727" lon="5.95984">
        <ele>1648.1</ele>
        <time>2026-07-14T09:23:41Z</time>
      </trkpt>
      <trkpt lat="45.18728" lon="5.95985">
        <ele>1648.3</ele>
        <time>2026-07-14T09:23:42Z</time>
      </trkpt>
      <trkpt lat="45.18729" lon="5.95986">
        <ele>1648.5</ele>
        <time>2026-07-14T09:23:44Z</time>
      </trkpt>
      <trkpt lat="45.18729" lon="5.95986">
        <ele>1648.6</ele>
        <time>2026-07-14T09:23:45Z</time>
      </trkpt>
      <trkpt lat="45.18729" lon="5.95987">
        <ele>1648.7</ele>
        <time>2026-07-14T09:23:46Z</time>
      </trkpt>
      <trkpt lat="45.18728" lon="5.95989">
        <ele>1648.9</ele>
        <time>2026-07-14T09:23:48Z</time>
      </trkpt>
      <trkpt lat="45.18728" lon="5.95991">
        <ele>1649.1</ele>
        <time>2026-07-14T09:23:50Z</time>
      </trkpt>
      <trkpt lat="45.18728" lon="5.95992">
        <ele>1649.3</ele>
        <time>2026-07-14T09:23:51Z</time>
      </trkpt>
      <trkpt lat="45.18728" lon="5.95993">
        <ele>1649.4</ele>
        <time>2026-07-14T09:23:52Z</time>
      </trkpt>
      <trkpt lat="45.18727" lon="5.95994">
        <ele>1649.5</ele>
        <time>2026-07-14T09:23:53Z</time>
      </trkpt>
      <trkpt lat="45.18727" lon="5.95995">
        <ele>1649.7</ele>
        <time>2026-07-14T09:23:55Z</time>
      </trkpt>
      <trkpt lat="45.18727" lon="5.95996">
        <ele>1649.8</ele>
        <time>2026-07-14T09:23:56Z</time>
      </trkpt>
      <trkpt lat="45.18727" lon="5.95998">
        <ele>1650</ele>
        <time>2026-07-14T09:23:57Z</time>
      </trkpt>
      <trkpt lat="45.18726" lon="5.95999">
        <ele>1650.2</ele>
        <time>2026-07-14T09:23:58Z</time>
      </trkpt>
      <trkpt lat="45.18726" lon="5.96">
        <ele>1650.3</ele>
        <time>2026-07-14T09:23:59Z</time>
      </trkpt>
      <trkpt lat="45.18725" lon="5.96002">
        <ele>1650.6</ele>
        <time>2026-07-14T09:24:01Z</time>
      </trkpt>
      <trkpt lat="45.18725" lon="5.96003">
        <ele>1650.7</ele>
        <time>2026-07-14T09:24:02Z</time>
      </trkpt>
      <trkpt lat="45.18725" lon="5.96004">
        <ele>1650.9</ele>
        <time>2026-07-14T09:24:03Z</time>
      </trkpt>
      <trkpt lat="45.18725" lon="5.96005">
        <ele>1651</ele>
        <time>2026-07-14T09:24:04Z</time>
      </trkpt>
      <trkpt lat="45.18724" lon="5.96006">
        <ele>1651.1</ele>
        <time>2026-07-14T09:24:05Z</time>
      </trkpt>
      <trkpt lat="45.18724" lon="5.96007">
        <ele>1651.2</ele>
        <time>2026-07-14T09:24:07Z</time>
      </trkpt>
      <trkpt lat="45.18724" lon="5.96009">
        <ele>1651.4</ele>
        <time>2026-07-14T09:24:08Z</time>
      </trkpt>
      <trkpt lat="45.18725" lon="5.9601">
        <ele>1651.5</ele>
        <time>2026-07-14T09:24:09Z</time>
      </trkpt>
      <trkpt lat="45.18725" lon="5.9601">
        <ele>1651.7</ele>
        <time>2026-07-14T09:24:10Z</time>
      </trkpt>
      <trkpt lat="45.18725" lon="5.96011">
        <ele>1651.8</ele>
        <time>2026-07-14T09:24:11Z</time>
      </trkpt>
      <trkpt lat="45.18725" lon="5.96012">
        <ele>1651.9</ele>
        <time>2026-07-14T09:24:12Z</time>
      </trkpt>
      <trkpt lat="45.18725" lon="5.96013">
        <ele>1652</ele>
        <time>2026-07-14T09:24:13Z</time>
      </trkpt>
      <trkpt lat="45.18725" lon="5.96015">
        <ele>1652.3</ele>
        <time>2026-07-14T09:24:15Z</time>
      </trkpt>
      <trkpt lat="45.18724" lon="5.96016">
        <ele>1652.4</ele>
        <time>2026-07-14T09:24:16Z</time>
      </trkpt>
      <trkpt lat="45.18724" lon="5.96017">
        <ele>1652.5</ele>
        <time>2026-07-14T09:24:17Z</time>
      </trkpt>
      <trkpt lat="45.18724" lon="5.96017">
        <ele>1652.7</ele>
        <time>2026-07-14T09:24:18Z</time>
      </trkpt>
      <trkpt lat="45.18724" lon="5.96018">
        <ele>1652.8</ele>
        <time>2026-07-14T09:24:19Z</time>
      </trkpt>
      <trkpt lat="45.18725" lon="5.96019">
        <ele>1652.9</ele>
        <time>2026-07-14T09:24:20Z</time>
      </trkpt>
      <trkpt lat="45.18725" lon="5.9602">
        <ele>1653</ele>
        <time>2026-07-14T09:24:21Z</time>
      </trkpt>
      <trkpt lat="45.18725" lon="5.96021">
        <ele>1653.2</ele>
        <time>2026-07-14T09:24:22Z</time>
      </trkpt>
      <trkpt lat="45.18725" lon="5.96022">
        <ele>1653.3</ele>
        <time>2026-07-14T09:24:23Z</time>
      </trkpt>
      <trkpt lat="45.18724" lon="5.96023">
        <ele>1653.5</ele>
        <time>2026-07-14T09:24:24Z</time>
      </trkpt>
      <trkpt lat="45.18724" lon="5.96023">
        <ele>1653.6</ele>
        <time>2026-07-14T09:24:25Z</time>
      </trkpt>
      <trkpt lat="45.18723" lon="5.96024">
        <ele>1653.8</ele>
        <time>2026-07-14T09:24:26Z</time>
      </trkpt>
      <trkpt lat="45.18723" lon="5.96024">
        <ele>1653.9</ele>
        <time>2026-07-14T09:24:27Z</time>
      </trkpt>
      <trkpt lat="45.18722" lon="5.96025">
        <ele>1654.1</ele>
        <time>2026-07-14T09:24:28Z</time>
      </trkpt>
      <trkpt lat="45.18722" lon="5.96026">
        <ele>1654.3</ele>
        <time>2026-07-14T09:24:29Z</time>
      </trkpt>
      <trkpt lat="45.18721" lon="5.96027">
        <ele>1654.4</ele>
        <time>2026-07-14T09:24:30Z</time>
      </trkpt>
      <trkpt lat="45.18721" lon="5.96028">
        <ele>1654.5</ele>
        <time>2026-07-14T09:24:31Z</time>
      </trkpt>
      <trkpt lat="45.18722" lon="5.96029">
        <ele>1654.7</ele>
        <time>2026-07-14T09:24:32Z</time>
      </trkpt>
      <trkpt lat="45.18722" lon="5.9603">
        <ele>1654.8</ele>
        <time>2026-07-14T09:24:33Z</time>
      </trkpt>
      <trkpt lat="45.18723" lon="5.96031">
        <ele>1655</ele>
        <time>2026-07-14T09:24:34Z</time>
      </trkpt>
      <trkpt lat="45.18723" lon="5.96031">
        <ele>1655.2</ele>
        <time>2026-07-14T09:24:35Z</time>
      </trkpt>
      <trkpt lat="45.18724" lon="5.96032">
        <ele>1655.4</ele>
        <time>2026-07-14T09:24:36Z</time>
      </trkpt>
      <trkpt lat="45.18724" lon="5.96033">
        <ele>1655.5</ele>
        <time>2026-07-14T09:24:37Z</time>
      </trkpt>
      <trkpt lat="45.18725" lon="5.96034">
        <ele>1655.8</ele>
        <time>2026-07-14T09:24:38Z</time>
      </trkpt>
      <trkpt lat="45.18725" lon="5.96036">
        <ele>1656</ele>
        <time>2026-07-14T09:24:39Z</time>
      </trkpt>
      <trkpt lat="45.18725" lon="5.96037">
        <ele>1656.2</ele>
        <time>2026-07-14T09:24:40Z</time>
      </trkpt>
      <trkpt lat="45.18725" lon="5.96038">
        <ele>1656.3</ele>
        <time>2026-07-14T09:24:41Z</time>
      </trkpt>
      <trkpt lat="45.18726" lon="5.96039">
        <ele>1656.5</ele>
        <time>2026-07-14T09:24:42Z</time>
      </trkpt>
      <trkpt lat="45.18726" lon="5.9604">
        <ele>1656.6</ele>
        <time>2026-07-14T09:24:43Z</time>
      </trkpt>
      <trkpt lat="45.18725" lon="5.96041">
        <ele>1656.8</ele>
        <time>2026-07-14T09:24:44Z</time>
      </trkpt>
      <trkpt lat="45.18725" lon="5.96042">
        <ele>1656.9</ele>
        <time>2026-07-14T09:24:45Z</time>
      </trkpt>
      <trkpt lat="45.18725" lon="5.96042">
        <ele>1657</ele>
        <time>2026-07-14T09:24:46Z</time>
      </trkpt>
      <trkpt lat="45.18725" lon="5.96042">
        <ele>1657.1</ele>
        <time>2026-07-14T09:24:47Z</time>
      </trkpt>
      <trkpt lat="45.18724" lon="5.96042">
        <ele>1657.2</ele>
        <time>2026-07-14T09:24:48Z</time>
      </trkpt>
      <trkpt lat="45.18723" lon="5.96042">
        <ele>1657.4</ele>
        <time>2026-07-14T09:24:49Z</time>
      </trkpt>
      <trkpt lat="45.18722" lon="5.96042">
        <ele>1657.6</ele>
        <time>2026-07-14T09:24:50Z</time>
      </trkpt>
      <trkpt lat="45.18722" lon="5.96041">
        <ele>1657.7</ele>
        <time>2026-07-14T09:24:51Z</time>
      </trkpt>
      <trkpt lat="45.18722" lon="5.96041">
        <ele>1657.7</ele>
        <time>2026-07-14T09:24:52Z</time>
      </trkpt>
      <trkpt lat="45.18722" lon="5.96041">
        <ele>1657.8</ele>
        <time>2026-07-14T09:24:53Z</time>
      </trkpt>
      <trkpt lat="45.18722" lon="5.96041">
        <ele>1657.8</ele>
        <time>2026-07-14T09:24:54Z</time>
      </trkpt>
      <trkpt lat="45.18722" lon="5.96041">
        <ele>1657.8</ele>
        <time>2026-07-14T09:24:55Z</time>
      </trkpt>
      <trkpt lat="45.18722" lon="5.96041">
        <ele>1657.8</ele>
        <time>2026-07-14T09:24:56Z</time>
      </trkpt>
      <trkpt lat="45.18722" lon="5.96041">
        <ele>1657.8</ele>
        <time>2026-07-14T09:24:57Z</time>
      </trkpt>
      <trkpt lat="45.18722" lon="5.96041">
        <ele>1657.8</ele>
        <time>2026-07-14T09:24:58Z</time>
      </trkpt>
      <trkpt lat="45.18722" lon="5.96041">
        <ele>1657.9</ele>
        <time>2026-07-14T09:25:00Z</time>
      </trkpt>
      <trkpt lat="45.18721" lon="5.96041">
        <ele>1657.9</ele>
        <time>2026-07-14T09:25:01Z</time>
      </trkpt>
      <trkpt lat="45.18721" lon="5.96041">
        <ele>1657.9</ele>
        <time>2026-07-14T09:25:02Z</time>
      </trkpt>
      <trkpt lat="45.18721" lon="5.96041">
        <ele>1657.9</ele>
        <time>2026-07-14T09:25:03Z</time>
      </trkpt>
      <trkpt lat="45.18721" lon="5.96041">
        <ele>1657.9</ele>
        <time>2026-07-14T09:25:04Z</time>
      </trkpt>
      <trkpt lat="45.18721" lon="5.96041">
        <ele>1658</ele>
        <time>2026-07-14T09:25:05Z</time>
      </trkpt>
      <trkpt lat="45.18721" lon="5.96041">
        <ele>1658</ele>
        <time>2026-07-14T09:25:06Z</time>
      </trkpt>
      <trkpt lat="45.18721" lon="5.96041">
        <ele>1658</ele>
        <time>2026-07-14T09:25:08Z</time>
      </trkpt>
      <trkpt lat="45.18721" lon="5.96041">
        <ele>1658</ele>
        <time>2026-07-14T09:25:09Z</time>
      </trkpt>
      <trkpt lat="45.18721" lon="5.96041">
        <ele>1658.1</ele>
        <time>2026-07-14T09:25:11Z</time>
      </trkpt>
      <trkpt lat="45.18721" lon="5.96042">
        <ele>1658.2</ele>
        <time>2026-07-14T09:25:12Z</time>
      </trkpt>
      <trkpt lat="45.18721" lon="5.96043">
        <ele>1658.3</ele>
        <time>2026-07-14T09:25:13Z</time>
      </trkpt>
      <trkpt lat="45.18721" lon="5.96045">
        <ele>1658.6</ele>
        <time>2026-07-14T09:25:14Z</time>
      </trkpt>
      <trkpt lat="45.18721" lon="5.96046">
        <ele>1658.7</ele>
        <time>2026-07-14T09:25:16Z</time>
      </trkpt>
      <trkpt lat="45.18721" lon="5.96047">
        <ele>1658.9</ele>
        <time>2026-07-14T09:25:17Z</time>
      </trkpt>
      <trkpt lat="45.1872" lon="5.96048">
        <ele>1659</ele>
        <time>2026-07-14T09:25:19Z</time>
      </trkpt>
      <trkpt lat="45.18719" lon="5.9605">
        <ele>1659.3</ele>
        <time>2026-07-14T09:25:20Z</time>
      </trkpt>
      <trkpt lat="45.18719" lon="5.96051">
        <ele>1659.5</ele>
        <time>2026-07-14T09:25:21Z</time>
      </trkpt>
      <trkpt lat="45.18718" lon="5.96051">
        <ele>1659.7</ele>
        <time>2026-07-14T09:25:22Z</time>
      </trkpt>
      <trkpt lat="45.18717" lon="5.96051">
        <ele>1659.8</ele>
        <time>2026-07-14T09:25:23Z</time>
      </trkpt>
      <trkpt lat="45.18717" lon="5.96052">
        <ele>1659.9</ele>
        <time>2026-07-14T09:25:24Z</time>
      </trkpt>
      <trkpt lat="45.18718" lon="5.96052">
        <ele>1660</ele>
        <time>2026-07-14T09:25:26Z</time>
      </trkpt>
      <trkpt lat="45.18718" lon="5.96053">
        <ele>1660</ele>
        <time>2026-07-14T09:25:27Z</time>
      </trkpt>
      <trkpt lat="45.18717" lon="5.96054">
        <ele>1660.2</ele>
        <time>2026-07-14T09:25:29Z</time>
      </trkpt>
      <trkpt lat="45.18717" lon="5.96055">
        <ele>1660.4</ele>
        <time>2026-07-14T09:25:31Z</time>
      </trkpt>
      <trkpt lat="45.18715" lon="5.96056">
        <ele>1660.7</ele>
        <time>2026-07-14T09:25:33Z</time>
      </trkpt>
      <trkpt lat="45.18715" lon="5.96056">
        <ele>1660.8</ele>
        <time>2026-07-14T09:25:34Z</time>
      </trkpt>
      <trkpt lat="45.18714" lon="5.96056">
        <ele>1660.9</ele>
        <time>2026-07-14T09:25:35Z</time>
      </trkpt>
      <trkpt lat="45.18714" lon="5.96056">
        <ele>1661</ele>
        <time>2026-07-14T09:25:36Z</time>
      </trkpt>
      <trkpt lat="45.18713" lon="5.96056">
        <ele>1661.1</ele>
        <time>2026-07-14T09:25:37Z</time>
      </trkpt>
      <trkpt lat="45.18713" lon="5.96057">
        <ele>1661.2</ele>
        <time>2026-07-14T09:25:38Z</time>
      </trkpt>
      <trkpt lat="45.18713" lon="5.96057">
        <ele>1661.2</ele>
        <time>2026-07-14T09:25:39Z</time>
      </trkpt>
      <trkpt lat="45.18712" lon="5.96058">
        <ele>1661.4</ele>
        <time>2026-07-14T09:25:40Z</time>
      </trkpt>
      <trkpt lat="45.18712" lon="5.96058">
        <ele>1661.4</ele>
        <time>2026-07-14T09:25:41Z</time>
      </trkpt>
      <trkpt lat="45.18712" lon="5.96058">
        <ele>1661.5</ele>
        <time>2026-07-14T09:25:42Z</time>
      </trkpt>
      <trkpt lat="45.18711" lon="5.96059">
        <ele>1661.6</ele>
        <time>2026-07-14T09:25:43Z</time>
      </trkpt>
      <trkpt lat="45.18711" lon="5.9606">
        <ele>1661.7</ele>
        <time>2026-07-14T09:25:44Z</time>
      </trkpt>
      <trkpt lat="45.18711" lon="5.9606">
        <ele>1661.8</ele>
        <time>2026-07-14T09:25:45Z</time>
      </trkpt>
      <trkpt lat="45.18709" lon="5.96062">
        <ele>1662.1</ele>
        <time>2026-07-14T09:25:47Z</time>
      </trkpt>
      <trkpt lat="45.18709" lon="5.96062">
        <ele>1662.2</ele>
        <time>2026-07-14T09:25:48Z</time>
      </trkpt>
      <trkpt lat="45.18708" lon="5.96063">
        <ele>1662.4</ele>
        <time>2026-07-14T09:25:49Z</time>
      </trkpt>
      <trkpt lat="45.18708" lon="5.96065">
        <ele>1662.6</ele>
        <time>2026-07-14T09:25:51Z</time>
      </trkpt>
      <trkpt lat="45.18708" lon="5.96066">
        <ele>1662.8</ele>
        <time>2026-07-14T09:25:52Z</time>
      </trkpt>
      <trkpt lat="45.18708" lon="5.96067">
        <ele>1662.9</ele>
        <time>2026-07-14T09:25:53Z</time>
      </trkpt>
      <trkpt lat="45.18708" lon="5.96068">
        <ele>1663</ele>
        <time>2026-07-14T09:25:54Z</time>
      </trkpt>
      <trkpt lat="45.18708" lon="5.96069">
        <ele>1663.1</ele>
        <time>2026-07-14T09:25:55Z</time>
      </trkpt>
      <trkpt lat="45.18707" lon="5.9607">
        <ele>1663.1</ele>
        <time>2026-07-14T09:25:56Z</time>
      </trkpt>
      <trkpt lat="45.18707" lon="5.9607">
        <ele>1663.2</ele>
        <time>2026-07-14T09:25:57Z</time>
      </trkpt>
      <trkpt lat="45.18707" lon="5.96071">
        <ele>1663.3</ele>
        <time>2026-07-14T09:25:58Z</time>
      </trkpt>
      <trkpt lat="45.18707" lon="5.96072">
        <ele>1663.5</ele>
        <time>2026-07-14T09:25:59Z</time>
      </trkpt>
      <trkpt lat="45.18707" lon="5.96074">
        <ele>1663.7</ele>
        <time>2026-07-14T09:26:01Z</time>
      </trkpt>
      <trkpt lat="45.18707" lon="5.96075">
        <ele>1663.8</ele>
        <time>2026-07-14T09:26:02Z</time>
      </trkpt>
      <trkpt lat="45.18707" lon="5.96075">
        <ele>1663.9</ele>
        <time>2026-07-14T09:26:03Z</time>
      </trkpt>
      <trkpt lat="45.18708" lon="5.96076">
        <ele>1664</ele>
        <time>2026-07-14T09:26:04Z</time>
      </trkpt>
      <trkpt lat="45.18708" lon="5.96077">
        <ele>1664</ele>
        <time>2026-07-14T09:26:05Z</time>
      </trkpt>
      <trkpt lat="45.18708" lon="5.96077">
        <ele>1664.1</ele>
        <time>2026-07-14T09:26:06Z</time>
      </trkpt>
      <trkpt lat="45.18708" lon="5.96078">
        <ele>1664.2</ele>
        <time>2026-07-14T09:26:07Z</time>
      </trkpt>
      <trkpt lat="45.18708" lon="5.96078">
        <ele>1664.3</ele>
        <time>2026-07-14T09:26:08Z</time>
      </trkpt>
      <trkpt lat="45.18709" lon="5.96078">
        <ele>1664.3</ele>
        <time>2026-07-14T09:26:10Z</time>
      </trkpt>
      <trkpt lat="45.18709" lon="5.96078">
        <ele>1664.3</ele>
        <time>2026-07-14T09:26:11Z</time>
      </trkpt>
      <trkpt lat="45.18709" lon="5.96078">
        <ele>1664.3</ele>
        <time>2026-07-14T09:26:12Z</time>
      </trkpt>
      <trkpt lat="45.18709" lon="5.96078">
        <ele>1664.4</ele>
        <time>2026-07-14T09:26:13Z</time>
      </trkpt>
      <trkpt lat="45.18709" lon="5.96077">
        <ele>1664.4</ele>
        <time>2026-07-14T09:26:14Z</time>
      </trkpt>
      <trkpt lat="45.18709" lon="5.96077">
        <ele>1664.5</ele>
        <time>2026-07-14T09:26:16Z</time>
      </trkpt>
      <trkpt lat="45.18709" lon="5.96077">
        <ele>1664.5</ele>
        <time>2026-07-14T09:26:17Z</time>
      </trkpt>
      <trkpt lat="45.18709" lon="5.96077">
        <ele>1664.5</ele>
        <time>2026-07-14T09:26:18Z</time>
      </trkpt>
      <trkpt lat="45.18709" lon="5.96077">
        <ele>1664.5</ele>
        <time>2026-07-14T09:26:19Z</time>
      </trkpt>
      <trkpt lat="45.18709" lon="5.96078">
        <ele>1664.5</ele>
        <time>2026-07-14T09:26:20Z</time>
      </trkpt>
      <trkpt lat="45.18708" lon="5.96079">
        <ele>1664.7</ele>
        <time>2026-07-14T09:26:21Z</time>
      </trkpt>
      <trkpt lat="45.18707" lon="5.9608">
        <ele>1664.9</ele>
        <time>2026-07-14T09:26:22Z</time>
      </trkpt>
      <trkpt lat="45.18706" lon="5.96081">
        <ele>1665.1</ele>
        <time>2026-07-14T09:26:23Z</time>
      </trkpt>
      <trkpt lat="45.18706" lon="5.96082">
        <ele>1665.2</ele>
        <time>2026-07-14T09:26:24Z</time>
      </trkpt>
      <trkpt lat="45.18706" lon="5.96083">
        <ele>1665.3</ele>
        <time>2026-07-14T09:26:25Z</time>
      </trkpt>
      <trkpt lat="45.18706" lon="5.96084">
        <ele>1665.5</ele>
        <time>2026-07-14T09:26:26Z</time>
      </trkpt>
      <trkpt lat="45.18706" lon="5.96085">
        <ele>1665.6</ele>
        <time>2026-07-14T09:26:27Z</time>
      </trkpt>
      <trkpt lat="45.18706" lon="5.96086">
        <ele>1665.7</ele>
        <time>2026-07-14T09:26:28Z</time>
      </trkpt>
      <trkpt lat="45.18706" lon="5.96086">
        <ele>1665.7</ele>
        <time>2026-07-14T09:26:29Z</time>
      </trkpt>
      <trkpt lat="45.18705" lon="5.96088">
        <ele>1665.9</ele>
        <time>2026-07-14T09:26:31Z</time>
      </trkpt>
      <trkpt lat="45.18705" lon="5.96088">
        <ele>1666</ele>
        <time>2026-07-14T09:26:32Z</time>
      </trkpt>
      <trkpt lat="45.18705" lon="5.96089">
        <ele>1666.1</ele>
        <time>2026-07-14T09:26:33Z</time>
      </trkpt>
      <trkpt lat="45.18704" lon="5.9609">
        <ele>1666.2</ele>
        <time>2026-07-14T09:26:34Z</time>
      </trkpt>
      <trkpt lat="45.18704" lon="5.96091">
        <ele>1666.3</ele>
        <time>2026-07-14T09:26:35Z</time>
      </trkpt>
      <trkpt lat="45.18704" lon="5.96092">
        <ele>1666.4</ele>
        <time>2026-07-14T09:26:36Z</time>
      </trkpt>
      <trkpt lat="45.18704" lon="5.96093">
        <ele>1666.5</ele>
        <time>2026-07-14T09:26:37Z</time>
      </trkpt>
      <trkpt lat="45.18704" lon="5.96093">
        <ele>1666.6</ele>
        <time>2026-07-14T09:26:38Z</time>
      </trkpt>
      <trkpt lat="45.18703" lon="5.96094">
        <ele>1666.7</ele>
        <time>2026-07-14T09:26:39Z</time>
      </trkpt>
      <trkpt lat="45.18703" lon="5.96094">
        <ele>1666.8</ele>
        <time>2026-07-14T09:26:40Z</time>
      </trkpt>
      <trkpt lat="45.18702" lon="5.96095">
        <ele>1666.9</ele>
        <time>2026-07-14T09:26:42Z</time>
      </trkpt>
      <trkpt lat="45.18701" lon="5.96096">
        <ele>1667.1</ele>
        <time>2026-07-14T09:26:43Z</time>
      </trkpt>
      <trkpt lat="45.18701" lon="5.96097">
        <ele>1667.2</ele>
        <time>2026-07-14T09:26:44Z</time>
      </trkpt>
      <trkpt lat="45.187" lon="5.96098">
        <ele>1667.3</ele>
        <time>2026-07-14T09:26:45Z</time>
      </trkpt>
      <trkpt lat="45.187" lon="5.96098">
        <ele>1667.4</ele>
        <time>2026-07-14T09:26:46Z</time>
      </trkpt>
      <trkpt lat="45.187" lon="5.96099">
        <ele>1667.4</ele>
        <time>2026-07-14T09:26:47Z</time>
      </trkpt>
      <trkpt lat="45.18699" lon="5.96099">
        <ele>1667.5</ele>
        <time>2026-07-14T09:26:48Z</time>
      </trkpt>
      <trkpt lat="45.18699" lon="5.96099">
        <ele>1667.6</ele>
        <time>2026-07-14T09:26:49Z</time>
      </trkpt>
      <trkpt lat="45.18698" lon="5.96099">
        <ele>1667.8</ele>
        <time>2026-07-14T09:26:50Z</time>
      </trkpt>
      <trkpt lat="45.18697" lon="5.96099">
        <ele>1667.9</ele>
        <time>2026-07-14T09:26:51Z</time>
      </trkpt>
      <trkpt lat="45.18697" lon="5.96098">
        <ele>1668</ele>
        <time>2026-07-14T09:26:52Z</time>
      </trkpt>
      <trkpt lat="45.18696" lon="5.96098">
        <ele>1668.1</ele>
        <time>2026-07-14T09:26:54Z</time>
      </trkpt>
      <trkpt lat="45.18695" lon="5.96099">
        <ele>1668.2</ele>
        <time>2026-07-14T09:26:55Z</time>
      </trkpt>
      <trkpt lat="45.18695" lon="5.96099">
        <ele>1668.3</ele>
        <time>2026-07-14T09:26:56Z</time>
      </trkpt>
      <trkpt lat="45.18694" lon="5.961">
        <ele>1668.4</ele>
        <time>2026-07-14T09:26:57Z</time>
      </trkpt>
      <trkpt lat="45.18693" lon="5.961">
        <ele>1668.5</ele>
        <time>2026-07-14T09:26:58Z</time>
      </trkpt>
      <trkpt lat="45.18692" lon="5.961">
        <ele>1668.7</ele>
        <time>2026-07-14T09:26:59Z</time>
      </trkpt>
      <trkpt lat="45.18692" lon="5.96101">
        <ele>1668.8</ele>
        <time>2026-07-14T09:27:00Z</time>
      </trkpt>
      <trkpt lat="45.18691" lon="5.96101">
        <ele>1668.9</ele>
        <time>2026-07-14T09:27:01Z</time>
      </trkpt>
      <trkpt lat="45.18691" lon="5.96103">
        <ele>1669.1</ele>
        <time>2026-07-14T09:27:02Z</time>
      </trkpt>
      <trkpt lat="45.18691" lon="5.96104">
        <ele>1669.2</ele>
        <time>2026-07-14T09:27:03Z</time>
      </trkpt>
      <trkpt lat="45.1869" lon="5.96105">
        <ele>1669.3</ele>
        <time>2026-07-14T09:27:04Z</time>
      </trkpt>
      <trkpt lat="45.1869" lon="5.96106">
        <ele>1669.4</ele>
        <time>2026-07-14T09:27:05Z</time>
      </trkpt>
      <trkpt lat="45.18689" lon="5.96108">
        <ele>1669.7</ele>
        <time>2026-07-14T09:27:07Z</time>
      </trkpt>
      <trkpt lat="45.18688" lon="5.96109">
        <ele>1669.8</ele>
        <time>2026-07-14T09:27:08Z</time>
      </trkpt>
      <trkpt lat="45.18688" lon="5.9611">
        <ele>1669.9</ele>
        <time>2026-07-14T09:27:09Z</time>
      </trkpt>
      <trkpt lat="45.18688" lon="5.96111">
        <ele>1670</ele>
        <time>2026-07-14T09:27:10Z</time>
      </trkpt>
      <trkpt lat="45.18688" lon="5.96112">
        <ele>1670.1</ele>
        <time>2026-07-14T09:27:11Z</time>
      </trkpt>
      <trkpt lat="45.18687" lon="5.96113">
        <ele>1670.2</ele>
        <time>2026-07-14T09:27:12Z</time>
      </trkpt>
      <trkpt lat="45.18687" lon="5.96113">
        <ele>1670.3</ele>
        <time>2026-07-14T09:27:13Z</time>
      </trkpt>
      <trkpt lat="45.18686" lon="5.96113">
        <ele>1670.4</ele>
        <time>2026-07-14T09:27:14Z</time>
      </trkpt>
      <trkpt lat="45.18685" lon="5.96113">
        <ele>1670.5</ele>
        <time>2026-07-14T09:27:15Z</time>
      </trkpt>
      <trkpt lat="45.18684" lon="5.96113">
        <ele>1670.6</ele>
        <time>2026-07-14T09:27:16Z</time>
      </trkpt>
      <trkpt lat="45.18684" lon="5.96113">
        <ele>1670.7</ele>
        <time>2026-07-14T09:27:17Z</time>
      </trkpt>
      <trkpt lat="45.18683" lon="5.96113">
        <ele>1670.7</ele>
        <time>2026-07-14T09:27:18Z</time>
      </trkpt>
      <trkpt lat="45.18683" lon="5.96113">
        <ele>1670.8</ele>
        <time>2026-07-14T09:27:19Z</time>
      </trkpt>
      <trkpt lat="45.18682" lon="5.96114">
        <ele>1670.9</ele>
        <time>2026-07-14T09:27:20Z</time>
      </trkpt>
      <trkpt lat="45.18682" lon="5.96114">
        <ele>1671</ele>
        <time>2026-07-14T09:27:21Z</time>
      </trkpt>
      <trkpt lat="45.18681" lon="5.96114">
        <ele>1671</ele>
        <time>2026-07-14T09:27:22Z</time>
      </trkpt>
      <trkpt lat="45.18681" lon="5.96115">
        <ele>1671.1</ele>
        <time>2026-07-14T09:27:23Z</time>
      </trkpt>
      <trkpt lat="45.18681" lon="5.96115">
        <ele>1671.1</ele>
        <time>2026-07-14T09:27:24Z</time>
      </trkpt>
      <trkpt lat="45.1868" lon="5.96115">
        <ele>1671.2</ele>
        <time>2026-07-14T09:27:25Z</time>
      </trkpt>
      <trkpt lat="45.1868" lon="5.96116">
        <ele>1671.3</ele>
        <time>2026-07-14T09:27:26Z</time>
      </trkpt>
      <trkpt lat="45.1868" lon="5.96116">
        <ele>1671.3</ele>
        <time>2026-07-14T09:27:27Z</time>
      </trkpt>
      <trkpt lat="45.18679" lon="5.96117">
        <ele>1671.5</ele>
        <time>2026-07-14T09:27:28Z</time>
      </trkpt>
      <trkpt lat="45.18678" lon="5.96117">
        <ele>1671.5</ele>
        <time>2026-07-14T09:27:29Z</time>
      </trkpt>
      <trkpt lat="45.18679" lon="5.96116">
        <ele>1671.6</ele>
        <time>2026-07-14T09:27:30Z</time>
      </trkpt>
      <trkpt lat="45.18679" lon="5.96116">
        <ele>1671.7</ele>
        <time>2026-07-14T09:27:31Z</time>
      </trkpt>
      <trkpt lat="45.1868" lon="5.96115">
        <ele>1671.8</ele>
        <time>2026-07-14T09:27:32Z</time>
      </trkpt>
      <trkpt lat="45.1868" lon="5.96115">
        <ele>1671.8</ele>
        <time>2026-07-14T09:27:34Z</time>
      </trkpt>
      <trkpt lat="45.1868" lon="5.96116">
        <ele>1671.8</ele>
        <time>2026-07-14T09:27:36Z</time>
      </trkpt>
      <trkpt lat="45.18679" lon="5.96116">
        <ele>1671.9</ele>
        <time>2026-07-14T09:27:37Z</time>
      </trkpt>
      <trkpt lat="45.18679" lon="5.96116">
        <ele>1671.9</ele>
        <time>2026-07-14T09:27:38Z</time>
      </trkpt>
      <trkpt lat="45.18679" lon="5.96117">
        <ele>1671.9</ele>
        <time>2026-07-14T09:27:39Z</time>
      </trkpt>
      <trkpt lat="45.18679" lon="5.96117">
        <ele>1671.9</ele>
        <time>2026-07-14T09:27:40Z</time>
      </trkpt>
      <trkpt lat="45.18678" lon="5.96118">
        <ele>1672.1</ele>
        <time>2026-07-14T09:27:41Z</time>
      </trkpt>
      <trkpt lat="45.18677" lon="5.96118">
        <ele>1672.2</ele>
        <time>2026-07-14T09:27:43Z</time>
      </trkpt>
      <trkpt lat="45.18677" lon="5.96119">
        <ele>1672.3</ele>
        <time>2026-07-14T09:27:44Z</time>
      </trkpt>
      <trkpt lat="45.18676" lon="5.96119">
        <ele>1672.4</ele>
        <time>2026-07-14T09:27:45Z</time>
      </trkpt>
      <trkpt lat="45.18675" lon="5.9612">
        <ele>1672.6</ele>
        <time>2026-07-14T09:27:46Z</time>
      </trkpt>
      <trkpt lat="45.18674" lon="5.96121">
        <ele>1672.7</ele>
        <time>2026-07-14T09:27:47Z</time>
      </trkpt>
      <trkpt lat="45.18674" lon="5.96121">
        <ele>1672.8</ele>
        <time>2026-07-14T09:27:48Z</time>
      </trkpt>
      <trkpt lat="45.18674" lon="5.96122">
        <ele>1672.9</ele>
        <time>2026-07-14T09:27:49Z</time>
      </trkpt>
      <trkpt lat="45.18673" lon="5.96123">
        <ele>1673</ele>
        <time>2026-07-14T09:27:50Z</time>
      </trkpt>
      <trkpt lat="45.18673" lon="5.96124">
        <ele>1673</ele>
        <time>2026-07-14T09:27:51Z</time>
      </trkpt>
      <trkpt lat="45.18673" lon="5.96125">
        <ele>1673.1</ele>
        <time>2026-07-14T09:27:52Z</time>
      </trkpt>
      <trkpt lat="45.18672" lon="5.96126">
        <ele>1673.2</ele>
        <time>2026-07-14T09:27:53Z</time>
      </trkpt>
      <trkpt lat="45.18672" lon="5.96127">
        <ele>1673.3</ele>
        <time>2026-07-14T09:27:54Z</time>
      </trkpt>
      <trkpt lat="45.18672" lon="5.96128">
        <ele>1673.5</ele>
        <time>2026-07-14T09:27:56Z</time>
      </trkpt>
      <trkpt lat="45.18671" lon="5.9613">
        <ele>1673.6</ele>
        <time>2026-07-14T09:27:58Z</time>
      </trkpt>
      <trkpt lat="45.18671" lon="5.96131">
        <ele>1673.7</ele>
        <time>2026-07-14T09:27:59Z</time>
      </trkpt>
      <trkpt lat="45.18671" lon="5.96131">
        <ele>1673.7</ele>
        <time>2026-07-14T09:28:00Z</time>
      </trkpt>
      <trkpt lat="45.18671" lon="5.96133">
        <ele>1673.9</ele>
        <time>2026-07-14T09:28:01Z</time>
      </trkpt>
      <trkpt lat="45.18671" lon="5.96135">
        <ele>1674</ele>
        <time>2026-07-14T09:28:02Z</time>
      </trkpt>
      <trkpt lat="45.1867" lon="5.96136">
        <ele>1674.2</ele>
        <time>2026-07-14T09:28:04Z</time>
      </trkpt>
      <trkpt lat="45.18669" lon="5.96137">
        <ele>1674.2</ele>
        <time>2026-07-14T09:28:05Z</time>
      </trkpt>
      <trkpt lat="45.18669" lon="5.96138">
        <ele>1674.3</ele>
        <time>2026-07-14T09:28:06Z</time>
      </trkpt>
      <trkpt lat="45.18669" lon="5.96138">
        <ele>1674.4</ele>
        <time>2026-07-14T09:28:07Z</time>
      </trkpt>
      <trkpt lat="45.18668" lon="5.96139">
        <ele>1674.4</ele>
        <time>2026-07-14T09:28:08Z</time>
      </trkpt>
      <trkpt lat="45.18668" lon="5.96139">
        <ele>1674.5</ele>
        <time>2026-07-14T09:28:10Z</time>
      </trkpt>
      <trkpt lat="45.18667" lon="5.9614">
        <ele>1674.6</ele>
        <time>2026-07-14T09:28:11Z</time>
      </trkpt>
      <trkpt lat="45.18667" lon="5.96141">
        <ele>1674.7</ele>
        <time>2026-07-14T09:28:12Z</time>
      </trkpt>
      <trkpt lat="45.18667" lon="5.96142">
        <ele>1674.8</ele>
        <time>2026-07-14T09:28:13Z</time>
      </trkpt>
      <trkpt lat="45.18668" lon="5.96143">
        <ele>1674.9</ele>
        <time>2026-07-14T09:28:14Z</time>
      </trkpt>
      <trkpt lat="45.18668" lon="5.96143">
        <ele>1675</ele>
        <time>2026-07-14T09:28:15Z</time>
      </trkpt>
      <trkpt lat="45.18669" lon="5.96144">
        <ele>1675.1</ele>
        <time>2026-07-14T09:28:16Z</time>
      </trkpt>
      <trkpt lat="45.1867" lon="5.96144">
        <ele>1675.1</ele>
        <time>2026-07-14T09:28:17Z</time>
      </trkpt>
      <trkpt lat="45.1867" lon="5.96145">
        <ele>1675.2</ele>
        <time>2026-07-14T09:28:18Z</time>
      </trkpt>
      <trkpt lat="45.1867" lon="5.96145">
        <ele>1675.2</ele>
        <time>2026-07-14T09:28:19Z</time>
      </trkpt>
      <trkpt lat="45.1867" lon="5.96146">
        <ele>1675.2</ele>
        <time>2026-07-14T09:28:20Z</time>
      </trkpt>
      <trkpt lat="45.1867" lon="5.96146">
        <ele>1675.2</ele>
        <time>2026-07-14T09:28:22Z</time>
      </trkpt>
      <trkpt lat="45.1867" lon="5.96147">
        <ele>1675.2</ele>
        <time>2026-07-14T09:28:23Z</time>
      </trkpt>
      <trkpt lat="45.1867" lon="5.96146">
        <ele>1675.2</ele>
        <time>2026-07-14T09:28:24Z</time>
      </trkpt>
      <trkpt lat="45.1867" lon="5.96146">
        <ele>1675.2</ele>
        <time>2026-07-14T09:28:25Z</time>
      </trkpt>
      <trkpt lat="45.1867" lon="5.96146">
        <ele>1675.2</ele>
        <time>2026-07-14T09:28:27Z</time>
      </trkpt>
      <trkpt lat="45.1867" lon="5.96147">
        <ele>1675.2</ele>
        <time>2026-07-14T09:28:29Z</time>
      </trkpt>
      <trkpt lat="45.1867" lon="5.96147">
        <ele>1675.2</ele>
        <time>2026-07-14T09:28:30Z</time>
      </trkpt>
      <trkpt lat="45.1867" lon="5.96147">
        <ele>1675.3</ele>
        <time>2026-07-14T09:28:31Z</time>
      </trkpt>
      <trkpt lat="45.1867" lon="5.96148">
        <ele>1675.3</ele>
        <time>2026-07-14T09:28:32Z</time>
      </trkpt>
      <trkpt lat="45.1867" lon="5.96149">
        <ele>1675.3</ele>
        <time>2026-07-14T09:28:33Z</time>
      </trkpt>
      <trkpt lat="45.1867" lon="5.9615">
        <ele>1675.3</ele>
        <time>2026-07-14T09:28:34Z</time>
      </trkpt>
      <trkpt lat="45.1867" lon="5.9615">
        <ele>1675.3</ele>
        <time>2026-07-14T09:28:35Z</time>
      </trkpt>
      <trkpt lat="45.18669" lon="5.9615">
        <ele>1675.3</ele>
        <time>2026-07-14T09:28:37Z</time>
      </trkpt>
      <trkpt lat="45.18669" lon="5.9615">
        <ele>1675.3</ele>
        <time>2026-07-14T09:28:39Z</time>
      </trkpt>
      <trkpt lat="45.18669" lon="5.9615">
        <ele>1675.3</ele>
        <time>2026-07-14T09:28:40Z</time>
      </trkpt>
      <trkpt lat="45.18669" lon="5.9615">
        <ele>1675.3</ele>
        <time>2026-07-14T09:28:41Z</time>
      </trkpt>
      <trkpt lat="45.18669" lon="5.9615">
        <ele>1675.3</ele>
        <time>2026-07-14T09:28:43Z</time>
      </trkpt>
      <trkpt lat="45.18669" lon="5.9615">
        <ele>1675.3</ele>
        <time>2026-07-14T09:28:44Z</time>
      </trkpt>
      <trkpt lat="45.18669" lon="5.9615">
        <ele>1675.3</ele>
        <time>2026-07-14T09:28:45Z</time>
      </trkpt>
      <trkpt lat="45.18669" lon="5.9615">
        <ele>1675.3</ele>
        <time>2026-07-14T09:28:46Z</time>
      </trkpt>
      <trkpt lat="45.18669" lon="5.9615">
        <ele>1675.3</ele>
        <time>2026-07-14T09:28:47Z</time>
      </trkpt>
      <trkpt lat="45.18669" lon="5.9615">
        <ele>1675.3</ele>
        <time>2026-07-14T09:28:49Z</time>
      </trkpt>
      <trkpt lat="45.18669" lon="5.9615">
        <ele>1675.3</ele>
        <time>2026-07-14T09:28:50Z</time>
      </trkpt>
      <trkpt lat="45.18669" lon="5.9615">
        <ele>1675.3</ele>
        <time>2026-07-14T09:28:52Z</time>
      </trkpt>
      <trkpt lat="45.18669" lon="5.9615">
        <ele>1675.3</ele>
        <time>2026-07-14T09:28:53Z</time>
      </trkpt>
      <trkpt lat="45.18669" lon="5.9615">
        <ele>1675.3</ele>
        <time>2026-07-14T09:28:54Z</time>
      </trkpt>
      <trkpt lat="45.18669" lon="5.9615">
        <ele>1675.3</ele>
        <time>2026-07-14T09:28:55Z</time>
      </trkpt>
      <trkpt lat="45.18669" lon="5.9615">
        <ele>1675.3</ele>
        <time>2026-07-14T09:28:56Z</time>
      </trkpt>
      <trkpt lat="45.18669" lon="5.9615">
        <ele>1675.3</ele>
        <time>2026-07-14T09:28:57Z</time>
      </trkpt>
      <trkpt lat="45.18669" lon="5.9615">
        <ele>1675.3</ele>
        <time>2026-07-14T09:28:58Z</time>
      </trkpt>
      <trkpt lat="45.18669" lon="5.9615">
        <ele>1675.3</ele>
        <time>2026-07-14T09:28:59Z</time>
      </trkpt>
      <trkpt lat="45.18669" lon="5.9615">
        <ele>1675.3</ele>
        <time>2026-07-14T09:29:01Z</time>
      </trkpt>
      <trkpt lat="45.18669" lon="5.96151">
        <ele>1675.3</ele>
        <time>2026-07-14T09:29:03Z</time>
      </trkpt>
      <trkpt lat="45.1867" lon="5.96152">
        <ele>1675.4</ele>
        <time>2026-07-14T09:29:05Z</time>
      </trkpt>
      <trkpt lat="45.1867" lon="5.96153">
        <ele>1675.4</ele>
        <time>2026-07-14T09:29:06Z</time>
      </trkpt>
      <trkpt lat="45.18669" lon="5.96156">
        <ele>1675.4</ele>
        <time>2026-07-14T09:29:08Z</time>
      </trkpt>
      <trkpt lat="45.18668" lon="5.96158">
        <ele>1675.5</ele>
        <time>2026-07-14T09:29:09Z</time>
      </trkpt>
      <trkpt lat="45.18667" lon="5.9616">
        <ele>1675.5</ele>
        <time>2026-07-14T09:29:10Z</time>
      </trkpt>
      <trkpt lat="45.18667" lon="5.96162">
        <ele>1675.5</ele>
        <time>2026-07-14T09:29:12Z</time>
      </trkpt>
      <trkpt lat="45.18667" lon="5.96163">
        <ele>1675.5</ele>
        <time>2026-07-14T09:29:13Z</time>
      </trkpt>
      <trkpt lat="45.18668" lon="5.96163">
        <ele>1675.6</ele>
        <time>2026-07-14T09:29:14Z</time>
      </trkpt>
      <trkpt lat="45.18668" lon="5.96164">
        <ele>1675.6</ele>
        <time>2026-07-14T09:29:15Z</time>
      </trkpt>
      <trkpt lat="45.18669" lon="5.96164">
        <ele>1675.6</ele>
        <time>2026-07-14T09:29:16Z</time>
      </trkpt>
      <trkpt lat="45.1867" lon="5.96164">
        <ele>1675.6</ele>
        <time>2026-07-14T09:29:17Z</time>
      </trkpt>
      <trkpt lat="45.18671" lon="5.96165">
        <ele>1675.6</ele>
        <time>2026-07-14T09:29:18Z</time>
      </trkpt>
      <trkpt lat="45.18671" lon="5.96166">
        <ele>1675.6</ele>
        <time>2026-07-14T09:29:19Z</time>
      </trkpt>
      <trkpt lat="45.18672" lon="5.96166">
        <ele>1675.7</ele>
        <time>2026-07-14T09:29:20Z</time>
      </trkpt>
      <trkpt lat="45.18673" lon="5.96165">
        <ele>1675.7</ele>
        <time>2026-07-14T09:29:21Z</time>
      </trkpt>
      <trkpt lat="45.18675" lon="5.96163">
        <ele>1675.7</ele>
        <time>2026-07-14T09:29:22Z</time>
      </trkpt>
      <trkpt lat="45.18675" lon="5.96161">
        <ele>1675.8</ele>
        <time>2026-07-14T09:29:24Z</time>
      </trkpt>
      <trkpt lat="45.18675" lon="5.9616">
        <ele>1675.8</ele>
        <time>2026-07-14T09:29:25Z</time>
      </trkpt>
      <trkpt lat="45.18675" lon="5.9616">
        <ele>1675.8</ele>
        <time>2026-07-14T09:29:26Z</time>
      </trkpt>
      <trkpt lat="45.18675" lon="5.9616">
        <ele>1675.8</ele>
        <time>2026-07-14T09:29:27Z</time>
      </trkpt>
      <trkpt lat="45.18676" lon="5.9616">
        <ele>1675.8</ele>
        <time>2026-07-14T09:29:28Z</time>
      </trkpt>
      <trkpt lat="45.18676" lon="5.9616">
        <ele>1675.8</ele>
        <time>2026-07-14T09:29:29Z</time>
      </trkpt>
      <trkpt lat="45.18676" lon="5.9616">
        <ele>1675.8</ele>
        <time>2026-07-14T09:29:30Z</time>
      </trkpt>
      <trkpt lat="45.18676" lon="5.9616">
        <ele>1675.8</ele>
        <time>2026-07-14T09:29:31Z</time>
      </trkpt>
      <trkpt lat="45.18676" lon="5.9616">
        <ele>1675.8</ele>
        <time>2026-07-14T09:29:32Z</time>
      </trkpt>
      <trkpt lat="45.18676" lon="5.9616">
        <ele>1675.8</ele>
        <time>2026-07-14T09:29:33Z</time>
      </trkpt>
      <trkpt lat="45.18676" lon="5.9616">
        <ele>1675.8</ele>
        <time>2026-07-14T09:29:34Z</time>
      </trkpt>
      <trkpt lat="45.18676" lon="5.9616">
        <ele>1675.8</ele>
        <time>2026-07-14T09:29:35Z</time>
      </trkpt>
      <trkpt lat="45.18676" lon="5.9616">
        <ele>1675.8</ele>
        <time>2026-07-14T09:29:36Z</time>
      </trkpt>
      <trkpt lat="45.18676" lon="5.9616">
        <ele>1675.8</ele>
        <time>2026-07-14T09:29:37Z</time>
      </trkpt>
      <trkpt lat="45.18676" lon="5.9616">
        <ele>1675.8</ele>
        <time>2026-07-14T09:29:38Z</time>
      </trkpt>
      <trkpt lat="45.18676" lon="5.9616">
        <ele>1675.8</ele>
        <time>2026-07-14T09:29:39Z</time>
      </trkpt>
      <trkpt lat="45.18676" lon="5.9616">
        <ele>1675.8</ele>
        <time>2026-07-14T09:29:41Z</time>
      </trkpt>
      <trkpt lat="45.18676" lon="5.9616">
        <ele>1675.8</ele>
        <time>2026-07-14T09:29:42Z</time>
      </trkpt>
      <trkpt lat="45.18676" lon="5.9616">
        <ele>1675.8</ele>
        <time>2026-07-14T09:29:43Z</time>
      </trkpt>
      <trkpt lat="45.18676" lon="5.9616">
        <ele>1675.8</ele>
        <time>2026-07-14T09:29:44Z</time>
      </trkpt>
      <trkpt lat="45.18676" lon="5.9616">
        <ele>1675.8</ele>
        <time>2026-07-14T09:29:46Z</time>
      </trkpt>
      <trkpt lat="45.18676" lon="5.9616">
        <ele>1675.8</ele>
        <time>2026-07-14T09:29:47Z</time>
      </trkpt>
      <trkpt lat="45.18676" lon="5.9616">
        <ele>1675.8</ele>
        <time>2026-07-14T09:29:48Z</time>
      </trkpt>
      <trkpt lat="45.18676" lon="5.9616">
        <ele>1675.8</ele>
        <time>2026-07-14T09:29:49Z</time>
      </trkpt>
      <trkpt lat="45.18676" lon="5.9616">
        <ele>1675.8</ele>
        <time>2026-07-14T09:29:50Z</time>
      </trkpt>
      <trkpt lat="45.18676" lon="5.9616">
        <ele>1675.8</ele>
        <time>2026-07-14T09:29:51Z</time>
      </trkpt>
      <trkpt lat="45.18676" lon="5.9616">
        <ele>1675.8</ele>
        <time>2026-07-14T09:29:52Z</time>
      </trkpt>
      <trkpt lat="45.18676" lon="5.9616">
        <ele>1675.8</ele>
        <time>2026-07-14T09:29:53Z</time>
      </trkpt>
      <trkpt lat="45.18676" lon="5.9616">
        <ele>1675.8</ele>
        <time>2026-07-14T09:29:54Z</time>
      </trkpt>
      <trkpt lat="45.18676" lon="5.9616">
        <ele>1675.8</ele>
        <time>2026-07-14T09:29:55Z</time>
      </trkpt>
      <trkpt lat="45.18676" lon="5.9616">
        <ele>1675.8</ele>
        <time>2026-07-14T09:29:56Z</time>
      </trkpt>
      <trkpt lat="45.18676" lon="5.9616">
        <ele>1675.8</ele>
        <time>2026-07-14T09:29:57Z</time>
      </trkpt>
      <trkpt lat="45.18676" lon="5.9616">
        <ele>1675.8</ele>
        <time>2026-07-14T09:29:58Z</time>
      </trkpt>
      <trkpt lat="45.18676" lon="5.9616">
        <ele>1675.8</ele>
        <time>2026-07-14T09:29:59Z</time>
      </trkpt>
      <trkpt lat="45.18676" lon="5.9616">
        <ele>1675.8</ele>
        <time>2026-07-14T09:30:00Z</time>
      </trkpt>
      <trkpt lat="45.18676" lon="5.9616">
        <ele>1675.8</ele>
        <time>2026-07-14T09:30:01Z</time>
      </trkpt>
      <trkpt lat="45.18676" lon="5.9616">
        <ele>1675.8</ele>
        <time>2026-07-14T09:30:03Z</time>
      </trkpt>
      <trkpt lat="45.18676" lon="5.9616">
        <ele>1675.8</ele>
        <time>2026-07-14T09:30:04Z</time>
      </trkpt>
      <trkpt lat="45.18676" lon="5.9616">
        <ele>1675.8</ele>
        <time>2026-07-14T09:30:05Z</time>
      </trkpt>
      <trkpt lat="45.18676" lon="5.9616">
        <ele>1675.8</ele>
        <time>2026-07-14T09:30:07Z</time>
      </trkpt>
      <trkpt lat="45.18676" lon="5.9616">
        <ele>1675.8</ele>
        <time>2026-07-14T09:30:08Z</time>
      </trkpt>
      <trkpt lat="45.18676" lon="5.9616">
        <ele>1675.8</ele>
        <time>2026-07-14T09:30:09Z</time>
      </trkpt>
      <trkpt lat="45.18677" lon="5.9616">
        <ele>1675.8</ele>
        <time>2026-07-14T09:30:10Z</time>
      </trkpt>
      <trkpt lat="45.18677" lon="5.9616">
        <ele>1675.8</ele>
        <time>2026-07-14T09:30:11Z</time>
      </trkpt>
      <trkpt lat="45.18678" lon="5.9616">
        <ele>1675.9</ele>
        <time>2026-07-14T09:30:12Z</time>
      </trkpt>
      <trkpt lat="45.1868" lon="5.9616">
        <ele>1675.9</ele>
        <time>2026-07-14T09:30:13Z</time>
      </trkpt>
      <trkpt lat="45.18681" lon="5.9616">
        <ele>1676</ele>
        <time>2026-07-14T09:30:15Z</time>
      </trkpt>
      <trkpt lat="45.18682" lon="5.9616">
        <ele>1676</ele>
        <time>2026-07-14T09:30:16Z</time>
      </trkpt>
      <trkpt lat="45.18683" lon="5.9616">
        <ele>1676.1</ele>
        <time>2026-07-14T09:30:17Z</time>
      </trkpt>
      <trkpt lat="45.18684" lon="5.9616">
        <ele>1676.1</ele>
        <time>2026-07-14T09:30:18Z</time>
      </trkpt>
      <trkpt lat="45.18686" lon="5.96161">
        <ele>1676.2</ele>
        <time>2026-07-14T09:30:20Z</time>
      </trkpt>
      <trkpt lat="45.18687" lon="5.96163">
        <ele>1676.2</ele>
        <time>2026-07-14T09:30:22Z</time>
      </trkpt>
      <trkpt lat="45.18686" lon="5.96164">
        <ele>1676.3</ele>
        <time>2026-07-14T09:30:23Z</time>
      </trkpt>
      <trkpt lat="45.18686" lon="5.96164">
        <ele>1676.3</ele>
        <time>2026-07-14T09:30:24Z</time>
      </trkpt>
      <trkpt lat="45.18686" lon="5.96164">
        <ele>1676.3</ele>
        <time>2026-07-14T09:30:25Z</time>
      </trkpt>
      <trkpt lat="45.18686" lon="5.96164">
        <ele>1676.3</ele>
        <time>2026-07-14T09:30:26Z</time>
      </trkpt>
      <trkpt lat="45.18686" lon="5.96164">
        <ele>1676.3</ele>
        <time>2026-07-14T09:30:27Z</time>
      </trkpt>
      <trkpt lat="45.18687" lon="5.96164">
        <ele>1676.3</ele>
        <time>2026-07-14T09:30:28Z</time>
      </trkpt>
      <trkpt lat="45.18687" lon="5.96164">
        <ele>1676.3</ele>
        <time>2026-07-14T09:30:29Z</time>
      </trkpt>
      <trkpt lat="45.18688" lon="5.96165">
        <ele>1676.3</ele>
        <time>2026-07-14T09:30:30Z</time>
      </trkpt>
      <trkpt lat="45.18689" lon="5.96165">
        <ele>1676.4</ele>
        <time>2026-07-14T09:30:31Z</time>
      </trkpt>
      <trkpt lat="45.1869" lon="5.96164">
        <ele>1676.4</ele>
        <time>2026-07-14T09:30:32Z</time>
      </trkpt>
      <trkpt lat="45.18691" lon="5.96164">
        <ele>1676.4</ele>
        <time>2026-07-14T09:30:33Z</time>
      </trkpt>
      <trkpt lat="45.18692" lon="5.96164">
        <ele>1676.4</ele>
        <time>2026-07-14T09:30:34Z</time>
      </trkpt>
      <trkpt lat="45.18693" lon="5.96164">
        <ele>1676.4</ele>
        <time>2026-07-14T09:30:35Z</time>
      </trkpt>
      <trkpt lat="45.18694" lon="5.96165">
        <ele>1676.4</ele>
        <time>2026-07-14T09:30:37Z</time>
      </trkpt>
      <trkpt lat="45.18696" lon="5.96165">
        <ele>1676.5</ele>
        <time>2026-07-14T09:30:39Z</time>
      </trkpt>
      <trkpt lat="45.18698" lon="5.96164">
        <ele>1676.5</ele>
        <time>2026-07-14T09:30:41Z</time>
      </trkpt>
      <trkpt lat="45.18698" lon="5.96163">
        <ele>1676.4</ele>
        <time>2026-07-14T09:30:42Z</time>
      </trkpt>
      <trkpt lat="45.18699" lon="5.96162">
        <ele>1676.4</ele>
        <time>2026-07-14T09:30:43Z</time>
      </trkpt>
      <trkpt lat="45.18701" lon="5.96162">
        <ele>1676.4</ele>
        <time>2026-07-14T09:30:45Z</time>
      </trkpt>
      <trkpt lat="45.18702" lon="5.96163">
        <ele>1676.4</ele>
        <time>2026-07-14T09:30:46Z</time>
      </trkpt>
      <trkpt lat="45.18703" lon="5.96163">
        <ele>1676.3</ele>
        <time>2026-07-14T09:30:47Z</time>
      </trkpt>
      <trkpt lat="45.18704" lon="5.96163">
        <ele>1676.3</ele>
        <time>2026-07-14T09:30:48Z</time>
      </trkpt>
      <trkpt lat="45.18705" lon="5.96162">
        <ele>1676.3</ele>
        <time>2026-07-14T09:30:49Z</time>
      </trkpt>
      <trkpt lat="45.18706" lon="5.96161">
        <ele>1676.2</ele>
        <time>2026-07-14T09:30:50Z</time>
      </trkpt>
      <trkpt lat="45.18707" lon="5.96161">
        <ele>1676.2</ele>
        <time>2026-07-14T09:30:51Z</time>
      </trkpt>
      <trkpt lat="45.18708" lon="5.96161">
        <ele>1676.2</ele>
        <time>2026-07-14T09:30:52Z</time>
      </trkpt>
      <trkpt lat="45.18709" lon="5.9616">
        <ele>1676.1</ele>
        <time>2026-07-14T09:30:53Z</time>
      </trkpt>
      <trkpt lat="45.1871" lon="5.9616">
        <ele>1676.1</ele>
        <time>2026-07-14T09:30:54Z</time>
      </trkpt>
      <trkpt lat="45.18711" lon="5.96159">
        <ele>1676</ele>
        <time>2026-07-14T09:30:55Z</time>
      </trkpt>
      <trkpt lat="45.18712" lon="5.96159">
        <ele>1676</ele>
        <time>2026-07-14T09:30:56Z</time>
      </trkpt>
      <trkpt lat="45.18713" lon="5.96158">
        <ele>1676</ele>
        <time>2026-07-14T09:30:57Z</time>
      </trkpt>
      <trkpt lat="45.18714" lon="5.96158">
        <ele>1675.9</ele>
        <time>2026-07-14T09:30:58Z</time>
      </trkpt>
      <trkpt lat="45.18715" lon="5.96158">
        <ele>1675.9</ele>
        <time>2026-07-14T09:30:59Z</time>
      </trkpt>
      <trkpt lat="45.18717" lon="5.96157">
        <ele>1675.9</ele>
        <time>2026-07-14T09:31:01Z</time>
      </trkpt>
      <trkpt lat="45.18717" lon="5.96156">
        <ele>1675.8</ele>
        <time>2026-07-14T09:31:02Z</time>
      </trkpt>
      <trkpt lat="45.18719" lon="5.96156">
        <ele>1675.8</ele>
        <time>2026-07-14T09:31:03Z</time>
      </trkpt>
      <trkpt lat="45.1872" lon="5.96156">
        <ele>1675.8</ele>
        <time>2026-07-14T09:31:04Z</time>
      </trkpt>
      <trkpt lat="45.18721" lon="5.96157">
        <ele>1675.8</ele>
        <time>2026-07-14T09:31:05Z</time>
      </trkpt>
      <trkpt lat="45.18721" lon="5.96157">
        <ele>1675.8</ele>
        <time>2026-07-14T09:31:06Z</time>
      </trkpt>
      <trkpt lat="45.18722" lon="5.96156">
        <ele>1675.8</ele>
        <time>2026-07-14T09:31:07Z</time>
      </trkpt>
      <trkpt lat="45.18723" lon="5.96156">
        <ele>1675.9</ele>
        <time>2026-07-14T09:31:08Z</time>
      </trkpt>
      <trkpt lat="45.18724" lon="5.96156">
        <ele>1675.9</ele>
        <time>2026-07-14T09:31:09Z</time>
      </trkpt>
      <trkpt lat="45.18725" lon="5.96156">
        <ele>1675.9</ele>
        <time>2026-07-14T09:31:10Z</time>
      </trkpt>
      <trkpt lat="45.18725" lon="5.96157">
        <ele>1675.9</ele>
        <time>2026-07-14T09:31:11Z</time>
      </trkpt>
      <trkpt lat="45.18727" lon="5.96157">
        <ele>1676</ele>
        <time>2026-07-14T09:31:13Z</time>
      </trkpt>
      <trkpt lat="45.18728" lon="5.96158">
        <ele>1676.1</ele>
        <time>2026-07-14T09:31:14Z</time>
      </trkpt>
      <trkpt lat="45.18729" lon="5.96158">
        <ele>1676.1</ele>
        <time>2026-07-14T09:31:15Z</time>
      </trkpt>
      <trkpt lat="45.1873" lon="5.96158">
        <ele>1676.2</ele>
        <time>2026-07-14T09:31:16Z</time>
      </trkpt>
      <trkpt lat="45.18731" lon="5.96158">
        <ele>1676.3</ele>
        <time>2026-07-14T09:31:17Z</time>
      </trkpt>
      <trkpt lat="45.18732" lon="5.96158">
        <ele>1676.4</ele>
        <time>2026-07-14T09:31:18Z</time>
      </trkpt>
      <trkpt lat="45.18732" lon="5.96158">
        <ele>1676.5</ele>
        <time>2026-07-14T09:31:19Z</time>
      </trkpt>
      <trkpt lat="45.18733" lon="5.96158">
        <ele>1676.5</ele>
        <time>2026-07-14T09:31:20Z</time>
      </trkpt>
      <trkpt lat="45.18734" lon="5.96158">
        <ele>1676.6</ele>
        <time>2026-07-14T09:31:21Z</time>
      </trkpt>
      <trkpt lat="45.18735" lon="5.96158">
        <ele>1676.7</ele>
        <time>2026-07-14T09:31:22Z</time>
      </trkpt>
      <trkpt lat="45.18735" lon="5.96158">
        <ele>1676.8</ele>
        <time>2026-07-14T09:31:23Z</time>
      </trkpt>
      <trkpt lat="45.18736" lon="5.96158">
        <ele>1676.8</ele>
        <time>2026-07-14T09:31:24Z</time>
      </trkpt>
      <trkpt lat="45.18737" lon="5.96158">
        <ele>1676.9</ele>
        <time>2026-07-14T09:31:25Z</time>
      </trkpt>
      <trkpt lat="45.18737" lon="5.96159">
        <ele>1677</ele>
        <time>2026-07-14T09:31:26Z</time>
      </trkpt>
      <trkpt lat="45.18738" lon="5.96159">
        <ele>1677.1</ele>
        <time>2026-07-14T09:31:27Z</time>
      </trkpt>
      <trkpt lat="45.18739" lon="5.96159">
        <ele>1677.2</ele>
        <time>2026-07-14T09:31:28Z</time>
      </trkpt>
      <trkpt lat="45.18739" lon="5.96159">
        <ele>1677.3</ele>
        <time>2026-07-14T09:31:29Z</time>
      </trkpt>
      <trkpt lat="45.1874" lon="5.9616">
        <ele>1677.4</ele>
        <time>2026-07-14T09:31:31Z</time>
      </trkpt>
      <trkpt lat="45.18741" lon="5.9616">
        <ele>1677.6</ele>
        <time>2026-07-14T09:31:32Z</time>
      </trkpt>
      <trkpt lat="45.18742" lon="5.9616">
        <ele>1677.8</ele>
        <time>2026-07-14T09:31:34Z</time>
      </trkpt>
      <trkpt lat="45.18743" lon="5.9616">
        <ele>1677.9</ele>
        <time>2026-07-14T09:31:35Z</time>
      </trkpt>
      <trkpt lat="45.18744" lon="5.9616">
        <ele>1678.1</ele>
        <time>2026-07-14T09:31:37Z</time>
      </trkpt>
      <trkpt lat="45.18745" lon="5.96159">
        <ele>1678.4</ele>
        <time>2026-07-14T09:31:39Z</time>
      </trkpt>
      <trkpt lat="45.18746" lon="5.96159">
        <ele>1678.5</ele>
        <time>2026-07-14T09:31:41Z</time>
      </trkpt>
      <trkpt lat="45.18747" lon="5.96159">
        <ele>1678.6</ele>
        <time>2026-07-14T09:31:42Z</time>
      </trkpt>
      <trkpt lat="45.18748" lon="5.96159">
        <ele>1678.8</ele>
        <time>2026-07-14T09:31:43Z</time>
      </trkpt>
      <trkpt lat="45.18749" lon="5.96159">
        <ele>1679</ele>
        <time>2026-07-14T09:31:44Z</time>
      </trkpt>
      <trkpt lat="45.18749" lon="5.96159">
        <ele>1679.1</ele>
        <time>2026-07-14T09:31:45Z</time>
      </trkpt>
      <trkpt lat="45.1875" lon="5.96159">
        <ele>1679.2</ele>
        <time>2026-07-14T09:31:46Z</time>
      </trkpt>
      <trkpt lat="45.18751" lon="5.96159">
        <ele>1679.3</ele>
        <time>2026-07-14T09:31:47Z</time>
      </trkpt>
      <trkpt lat="45.18752" lon="5.9616">
        <ele>1679.5</ele>
        <time>2026-07-14T09:31:48Z</time>
      </trkpt>
      <trkpt lat="45.18752" lon="5.9616">
        <ele>1679.6</ele>
        <time>2026-07-14T09:31:49Z</time>
      </trkpt>
      <trkpt lat="45.18753" lon="5.96161">
        <ele>1679.7</ele>
        <time>2026-07-14T09:31:50Z</time>
      </trkpt>
      <trkpt lat="45.18754" lon="5.96162">
        <ele>1680</ele>
        <time>2026-07-14T09:31:52Z</time>
      </trkpt>
      <trkpt lat="45.18754" lon="5.96163">
        <ele>1680.1</ele>
        <time>2026-07-14T09:31:53Z</time>
      </trkpt>
      <trkpt lat="45.18754" lon="5.96163">
        <ele>1680.2</ele>
        <time>2026-07-14T09:31:54Z</time>
      </trkpt>
      <trkpt lat="45.18755" lon="5.96164">
        <ele>1680.3</ele>
        <time>2026-07-14T09:31:55Z</time>
      </trkpt>
      <trkpt lat="45.18755" lon="5.96164">
        <ele>1680.4</ele>
        <time>2026-07-14T09:31:56Z</time>
      </trkpt>
      <trkpt lat="45.18756" lon="5.96165">
        <ele>1680.5</ele>
        <time>2026-07-14T09:31:57Z</time>
      </trkpt>
      <trkpt lat="45.18756" lon="5.96165">
        <ele>1680.6</ele>
        <time>2026-07-14T09:31:58Z</time>
      </trkpt>
      <trkpt lat="45.18757" lon="5.96165">
        <ele>1680.8</ele>
        <time>2026-07-14T09:32:00Z</time>
      </trkpt>
      <trkpt lat="45.18758" lon="5.96166">
        <ele>1681</ele>
        <time>2026-07-14T09:32:02Z</time>
      </trkpt>
      <trkpt lat="45.18759" lon="5.96168">
        <ele>1681.2</ele>
        <time>2026-07-14T09:32:04Z</time>
      </trkpt>
      <trkpt lat="45.18759" lon="5.96168">
        <ele>1681.3</ele>
        <time>2026-07-14T09:32:05Z</time>
      </trkpt>
      <trkpt lat="45.1876" lon="5.96169">
        <ele>1681.3</ele>
        <time>2026-07-14T09:32:06Z</time>
      </trkpt>
      <trkpt lat="45.18761" lon="5.96171">
        <ele>1681.6</ele>
        <time>2026-07-14T09:32:08Z</time>
      </trkpt>
      <trkpt lat="45.18762" lon="5.96172">
        <ele>1681.7</ele>
        <time>2026-07-14T09:32:09Z</time>
      </trkpt>
      <trkpt lat="45.18763" lon="5.96172">
        <ele>1681.8</ele>
        <time>2026-07-14T09:32:10Z</time>
      </trkpt>
      <trkpt lat="45.18763" lon="5.96173">
        <ele>1681.9</ele>
        <time>2026-07-14T09:32:11Z</time>
      </trkpt>
      <trkpt lat="45.18764" lon="5.96173">
        <ele>1681.9</ele>
        <time>2026-07-14T09:32:12Z</time>
      </trkpt>
      <trkpt lat="45.18766" lon="5.96174">
        <ele>1682.1</ele>
        <time>2026-07-14T09:32:14Z</time>
      </trkpt>
      <trkpt lat="45.18766" lon="5.96174">
        <ele>1682.1</ele>
        <time>2026-07-14T09:32:15Z</time>
      </trkpt>
      <trkpt lat="45.18767" lon="5.96175">
        <ele>1682.2</ele>
        <time>2026-07-14T09:32:16Z</time>
      </trkpt>
      <trkpt lat="45.18767" lon="5.96176">
        <ele>1682.3</ele>
        <time>2026-07-14T09:32:17Z</time>
      </trkpt>
      <trkpt lat="45.18768" lon="5.96177">
        <ele>1682.3</ele>
        <time>2026-07-14T09:32:18Z</time>
      </trkpt>
      <trkpt lat="45.18769" lon="5.96178">
        <ele>1682.4</ele>
        <time>2026-07-14T09:32:19Z</time>
      </trkpt>
      <trkpt lat="45.18769" lon="5.96179">
        <ele>1682.4</ele>
        <time>2026-07-14T09:32:20Z</time>
      </trkpt>
      <trkpt lat="45.18769" lon="5.96179">
        <ele>1682.5</ele>
        <time>2026-07-14T09:32:21Z</time>
      </trkpt>
      <trkpt lat="45.1877" lon="5.9618">
        <ele>1682.5</ele>
        <time>2026-07-14T09:32:22Z</time>
      </trkpt>
      <trkpt lat="45.1877" lon="5.96181">
        <ele>1682.5</ele>
        <time>2026-07-14T09:32:23Z</time>
      </trkpt>
      <trkpt lat="45.1877" lon="5.96182">
        <ele>1682.6</ele>
        <time>2026-07-14T09:32:24Z</time>
      </trkpt>
      <trkpt lat="45.18771" lon="5.96183">
        <ele>1682.6</ele>
        <time>2026-07-14T09:32:26Z</time>
      </trkpt>
      <trkpt lat="45.18772" lon="5.96183">
        <ele>1682.6</ele>
        <time>2026-07-14T09:32:27Z</time>
      </trkpt>
      <trkpt lat="45.18772" lon="5.96184">
        <ele>1682.7</ele>
        <time>2026-07-14T09:32:28Z</time>
      </trkpt>
      <trkpt lat="45.18773" lon="5.96184">
        <ele>1682.7</ele>
        <time>2026-07-14T09:32:29Z</time>
      </trkpt>
      <trkpt lat="45.18773" lon="5.96185">
        <ele>1682.7</ele>
        <time>2026-07-14T09:32:30Z</time>
      </trkpt>
      <trkpt lat="45.18774" lon="5.96186">
        <ele>1682.8</ele>
        <time>2026-07-14T09:32:31Z</time>
      </trkpt>
      <trkpt lat="45.18775" lon="5.96186">
        <ele>1682.8</ele>
        <time>2026-07-14T09:32:32Z</time>
      </trkpt>
      <trkpt lat="45.18775" lon="5.96187">
        <ele>1682.9</ele>
        <time>2026-07-14T09:32:33Z</time>
      </trkpt>
      <trkpt lat="45.18776" lon="5.96187">
        <ele>1682.9</ele>
        <time>2026-07-14T09:32:34Z</time>
      </trkpt>
      <trkpt lat="45.18777" lon="5.96187">
        <ele>1682.9</ele>
        <time>2026-07-14T09:32:35Z</time>
      </trkpt>
      <trkpt lat="45.18778" lon="5.96188">
        <ele>1683</ele>
        <time>2026-07-14T09:32:37Z</time>
      </trkpt>
      <trkpt lat="45.18779" lon="5.96188">
        <ele>1683.1</ele>
        <time>2026-07-14T09:32:38Z</time>
      </trkpt>
      <trkpt lat="45.18781" lon="5.96188">
        <ele>1683.2</ele>
        <time>2026-07-14T09:32:40Z</time>
      </trkpt>
      <trkpt lat="45.18781" lon="5.96188">
        <ele>1683.2</ele>
        <time>2026-07-14T09:32:41Z</time>
      </trkpt>
      <trkpt lat="45.18782" lon="5.96188">
        <ele>1683.3</ele>
        <time>2026-07-14T09:32:42Z</time>
      </trkpt>
      <trkpt lat="45.18783" lon="5.96188">
        <ele>1683.4</ele>
        <time>2026-07-14T09:32:44Z</time>
      </trkpt>
      <trkpt lat="45.18784" lon="5.96188">
        <ele>1683.4</ele>
        <time>2026-07-14T09:32:45Z</time>
      </trkpt>
      <trkpt lat="45.18785" lon="5.96188">
        <ele>1683.5</ele>
        <time>2026-07-14T09:32:46Z</time>
      </trkpt>
      <trkpt lat="45.18785" lon="5.96189">
        <ele>1683.5</ele>
        <time>2026-07-14T09:32:48Z</time>
      </trkpt>
      <trkpt lat="45.18786" lon="5.96189">
        <ele>1683.6</ele>
        <time>2026-07-14T09:32:49Z</time>
      </trkpt>
      <trkpt lat="45.18787" lon="5.9619">
        <ele>1683.7</ele>
        <time>2026-07-14T09:32:50Z</time>
      </trkpt>
      <trkpt lat="45.18787" lon="5.96191">
        <ele>1683.8</ele>
        <time>2026-07-14T09:32:51Z</time>
      </trkpt>
      <trkpt lat="45.18788" lon="5.96191">
        <ele>1683.9</ele>
        <time>2026-07-14T09:32:52Z</time>
      </trkpt>
      <trkpt lat="45.18789" lon="5.96192">
        <ele>1684</ele>
        <time>2026-07-14T09:32:53Z</time>
      </trkpt>
      <trkpt lat="45.18789" lon="5.96193">
        <ele>1684.1</ele>
        <time>2026-07-14T09:32:54Z</time>
      </trkpt>
      <trkpt lat="45.1879" lon="5.96193">
        <ele>1684.2</ele>
        <time>2026-07-14T09:32:55Z</time>
      </trkpt>
      <trkpt lat="45.18791" lon="5.96194">
        <ele>1684.3</ele>
        <time>2026-07-14T09:32:56Z</time>
      </trkpt>
      <trkpt lat="45.18791" lon="5.96194">
        <ele>1684.4</ele>
        <time>2026-07-14T09:32:57Z</time>
      </trkpt>
      <trkpt lat="45.18792" lon="5.96195">
        <ele>1684.5</ele>
        <time>2026-07-14T09:32:58Z</time>
      </trkpt>
      <trkpt lat="45.18793" lon="5.96195">
        <ele>1684.6</ele>
        <time>2026-07-14T09:33:00Z</time>
      </trkpt>
      <trkpt lat="45.18794" lon="5.96195">
        <ele>1684.8</ele>
        <time>2026-07-14T09:33:02Z</time>
      </trkpt>
      <trkpt lat="45.18795" lon="5.96196">
        <ele>1684.9</ele>
        <time>2026-07-14T09:33:03Z</time>
      </trkpt>
      <trkpt lat="45.18795" lon="5.96197">
        <ele>1685</ele>
        <time>2026-07-14T09:33:04Z</time>
      </trkpt>
      <trkpt lat="45.18796" lon="5.96197">
        <ele>1685.1</ele>
        <time>2026-07-14T09:33:05Z</time>
      </trkpt>
      <trkpt lat="45.18796" lon="5.96198">
        <ele>1685.2</ele>
        <time>2026-07-14T09:33:06Z</time>
      </trkpt>
      <trkpt lat="45.18797" lon="5.96198">
        <ele>1685.3</ele>
        <time>2026-07-14T09:33:08Z</time>
      </trkpt>
      <trkpt lat="45.18798" lon="5.96198">
        <ele>1685.5</ele>
        <time>2026-07-14T09:33:09Z</time>
      </trkpt>
      <trkpt lat="45.18798" lon="5.96197">
        <ele>1685.5</ele>
        <time>2026-07-14T09:33:10Z</time>
      </trkpt>
      <trkpt lat="45.18799" lon="5.96197">
        <ele>1685.6</ele>
        <time>2026-07-14T09:33:11Z</time>
      </trkpt>
      <trkpt lat="45.18799" lon="5.96197">
        <ele>1685.7</ele>
        <time>2026-07-14T09:33:12Z</time>
      </trkpt>
      <trkpt lat="45.188" lon="5.96197">
        <ele>1685.8</ele>
        <time>2026-07-14T09:33:13Z</time>
      </trkpt>
      <trkpt lat="45.18801" lon="5.96197">
        <ele>1686</ele>
        <time>2026-07-14T09:33:15Z</time>
      </trkpt>
      <trkpt lat="45.18803" lon="5.96196">
        <ele>1686.2</ele>
        <time>2026-07-14T09:33:17Z</time>
      </trkpt>
      <trkpt lat="45.18803" lon="5.96197">
        <ele>1686.3</ele>
        <time>2026-07-14T09:33:18Z</time>
      </trkpt>
      <trkpt lat="45.18804" lon="5.96196">
        <ele>1686.4</ele>
        <time>2026-07-14T09:33:19Z</time>
      </trkpt>
      <trkpt lat="45.18804" lon="5.96196">
        <ele>1686.5</ele>
        <time>2026-07-14T09:33:20Z</time>
      </trkpt>
      <trkpt lat="45.18805" lon="5.96196">
        <ele>1686.6</ele>
        <time>2026-07-14T09:33:21Z</time>
      </trkpt>
      <trkpt lat="45.18806" lon="5.96196">
        <ele>1686.7</ele>
        <time>2026-07-14T09:33:23Z</time>
      </trkpt>
      <trkpt lat="45.18807" lon="5.96196">
        <ele>1686.8</ele>
        <time>2026-07-14T09:33:24Z</time>
      </trkpt>
      <trkpt lat="45.18807" lon="5.96196">
        <ele>1686.9</ele>
        <time>2026-07-14T09:33:25Z</time>
      </trkpt>
      <trkpt lat="45.18808" lon="5.96195">
        <ele>1687</ele>
        <time>2026-07-14T09:33:26Z</time>
      </trkpt>
      <trkpt lat="45.18809" lon="5.96195">
        <ele>1687.2</ele>
        <time>2026-07-14T09:33:27Z</time>
      </trkpt>
      <trkpt lat="45.18809" lon="5.96194">
        <ele>1687.3</ele>
        <time>2026-07-14T09:33:28Z</time>
      </trkpt>
      <trkpt lat="45.1881" lon="5.96194">
        <ele>1687.3</ele>
        <time>2026-07-14T09:33:29Z</time>
      </trkpt>
      <trkpt lat="45.1881" lon="5.96194">
        <ele>1687.4</ele>
        <time>2026-07-14T09:33:30Z</time>
      </trkpt>
      <trkpt lat="45.18811" lon="5.96193">
        <ele>1687.5</ele>
        <time>2026-07-14T09:33:31Z</time>
      </trkpt>
      <trkpt lat="45.18812" lon="5.96193">
        <ele>1687.6</ele>
        <time>2026-07-14T09:33:32Z</time>
      </trkpt>
      <trkpt lat="45.18812" lon="5.96193">
        <ele>1687.7</ele>
        <time>2026-07-14T09:33:33Z</time>
      </trkpt>
      <trkpt lat="45.18813" lon="5.96192">
        <ele>1687.8</ele>
        <time>2026-07-14T09:33:34Z</time>
      </trkpt>
      <trkpt lat="45.18814" lon="5.96192">
        <ele>1687.9</ele>
        <time>2026-07-14T09:33:35Z</time>
      </trkpt>
      <trkpt lat="45.18814" lon="5.96192">
        <ele>1688</ele>
        <time>2026-07-14T09:33:36Z</time>
      </trkpt>
      <trkpt lat="45.18815" lon="5.96191">
        <ele>1688.1</ele>
        <time>2026-07-14T09:33:37Z</time>
      </trkpt>
      <trkpt lat="45.18817" lon="5.96191">
        <ele>1688.2</ele>
        <time>2026-07-14T09:33:39Z</time>
      </trkpt>
      <trkpt lat="45.18817" lon="5.96191">
        <ele>1688.3</ele>
        <time>2026-07-14T09:33:40Z</time>
      </trkpt>
      <trkpt lat="45.18818" lon="5.96191">
        <ele>1688.4</ele>
        <time>2026-07-14T09:33:41Z</time>
      </trkpt>
      <trkpt lat="45.18819" lon="5.9619">
        <ele>1688.5</ele>
        <time>2026-07-14T09:33:43Z</time>
      </trkpt>
      <trkpt lat="45.1882" lon="5.9619">
        <ele>1688.6</ele>
        <time>2026-07-14T09:33:44Z</time>
      </trkpt>
      <trkpt lat="45.18821" lon="5.9619">
        <ele>1688.7</ele>
        <time>2026-07-14T09:33:45Z</time>
      </trkpt>
      <trkpt lat="45.18823" lon="5.96189">
        <ele>1688.8</ele>
        <time>2026-07-14T09:33:47Z</time>
      </trkpt>
      <trkpt lat="45.18823" lon="5.96189">
        <ele>1688.9</ele>
        <time>2026-07-14T09:33:48Z</time>
      </trkpt>
      <trkpt lat="45.18825" lon="5.9619">
        <ele>1689</ele>
        <time>2026-07-14T09:33:50Z</time>
      </trkpt>
      <trkpt lat="45.18826" lon="5.9619">
        <ele>1689.1</ele>
        <time>2026-07-14T09:33:52Z</time>
      </trkpt>
      <trkpt lat="45.18827" lon="5.96189">
        <ele>1689.2</ele>
        <time>2026-07-14T09:33:53Z</time>
      </trkpt>
      <trkpt lat="45.18828" lon="5.96189">
        <ele>1689.2</ele>
        <time>2026-07-14T09:33:54Z</time>
      </trkpt>
      <trkpt lat="45.18829" lon="5.9619">
        <ele>1689.3</ele>
        <time>2026-07-14T09:33:55Z</time>
      </trkpt>
      <trkpt lat="45.1883" lon="5.9619">
        <ele>1689.4</ele>
        <time>2026-07-14T09:33:57Z</time>
      </trkpt>
      <trkpt lat="45.1883" lon="5.96192">
        <ele>1689.4</ele>
        <time>2026-07-14T09:33:59Z</time>
      </trkpt>
      <trkpt lat="45.1883" lon="5.96193">
        <ele>1689.5</ele>
        <time>2026-07-14T09:34:00Z</time>
      </trkpt>
      <trkpt lat="45.18829" lon="5.96193">
        <ele>1689.5</ele>
        <time>2026-07-14T09:34:01Z</time>
      </trkpt>
      <trkpt lat="45.18828" lon="5.96194">
        <ele>1689.5</ele>
        <time>2026-07-14T09:34:02Z</time>
      </trkpt>
      <trkpt lat="45.18827" lon="5.96194">
        <ele>1689.6</ele>
        <time>2026-07-14T09:34:03Z</time>
      </trkpt>
      <trkpt lat="45.18826" lon="5.96194">
        <ele>1689.6</ele>
        <time>2026-07-14T09:34:04Z</time>
      </trkpt>
      <trkpt lat="45.18826" lon="5.96194">
        <ele>1689.6</ele>
        <time>2026-07-14T09:34:05Z</time>
      </trkpt>
      <trkpt lat="45.18827" lon="5.96193">
        <ele>1689.6</ele>
        <time>2026-07-14T09:34:06Z</time>
      </trkpt>
      <trkpt lat="45.18827" lon="5.96193">
        <ele>1689.6</ele>
        <time>2026-07-14T09:34:07Z</time>
      </trkpt>
      <trkpt lat="45.18828" lon="5.96193">
        <ele>1689.6</ele>
        <time>2026-07-14T09:34:08Z</time>
      </trkpt>
      <trkpt lat="45.18828" lon="5.96193">
        <ele>1689.6</ele>
        <time>2026-07-14T09:34:09Z</time>
      </trkpt>
      <trkpt lat="45.18828" lon="5.96193">
        <ele>1689.6</ele>
        <time>2026-07-14T09:34:10Z</time>
      </trkpt>
      <trkpt lat="45.18828" lon="5.96193">
        <ele>1689.6</ele>
        <time>2026-07-14T09:34:11Z</time>
      </trkpt>
      <trkpt lat="45.18828" lon="5.96193">
        <ele>1689.6</ele>
        <time>2026-07-14T09:34:12Z</time>
      </trkpt>
      <trkpt lat="45.18828" lon="5.96193">
        <ele>1689.6</ele>
        <time>2026-07-14T09:34:13Z</time>
      </trkpt>
      <trkpt lat="45.18828" lon="5.96193">
        <ele>1689.7</ele>
        <time>2026-07-14T09:34:14Z</time>
      </trkpt>
      <trkpt lat="45.18828" lon="5.96193">
        <ele>1689.7</ele>
        <time>2026-07-14T09:34:16Z</time>
      </trkpt>
      <trkpt lat="45.18828" lon="5.96193">
        <ele>1689.7</ele>
        <time>2026-07-14T09:34:17Z</time>
      </trkpt>
      <trkpt lat="45.18828" lon="5.96193">
        <ele>1689.7</ele>
        <time>2026-07-14T09:34:19Z</time>
      </trkpt>
      <trkpt lat="45.18828" lon="5.96193">
        <ele>1689.7</ele>
        <time>2026-07-14T09:34:20Z</time>
      </trkpt>
      <trkpt lat="45.18828" lon="5.96193">
        <ele>1689.7</ele>
        <time>2026-07-14T09:34:21Z</time>
      </trkpt>
      <trkpt lat="45.18828" lon="5.96193">
        <ele>1689.7</ele>
        <time>2026-07-14T09:34:22Z</time>
      </trkpt>
      <trkpt lat="45.18828" lon="5.96193">
        <ele>1689.7</ele>
        <time>2026-07-14T09:34:23Z</time>
      </trkpt>
      <trkpt lat="45.18828" lon="5.96193">
        <ele>1689.7</ele>
        <time>2026-07-14T09:34:25Z</time>
      </trkpt>
      <trkpt lat="45.18828" lon="5.96193">
        <ele>1689.7</ele>
        <time>2026-07-14T09:34:26Z</time>
      </trkpt>
      <trkpt lat="45.18828" lon="5.96192">
        <ele>1689.7</ele>
        <time>2026-07-14T09:34:27Z</time>
      </trkpt>
      <trkpt lat="45.18828" lon="5.96192">
        <ele>1689.7</ele>
        <time>2026-07-14T09:34:28Z</time>
      </trkpt>
      <trkpt lat="45.18828" lon="5.96192">
        <ele>1689.7</ele>
        <time>2026-07-14T09:34:29Z</time>
      </trkpt>
      <trkpt lat="45.18829" lon="5.96192">
        <ele>1689.7</ele>
        <time>2026-07-14T09:34:30Z</time>
      </trkpt>
      <trkpt lat="45.18829" lon="5.96192">
        <ele>1689.7</ele>
        <time>2026-07-14T09:34:31Z</time>
      </trkpt>
      <trkpt lat="45.18829" lon="5.96192">
        <ele>1689.7</ele>
        <time>2026-07-14T09:34:32Z</time>
      </trkpt>
      <trkpt lat="45.1883" lon="5.96192">
        <ele>1689.7</ele>
        <time>2026-07-14T09:34:33Z</time>
      </trkpt>
      <trkpt lat="45.18831" lon="5.96192">
        <ele>1689.7</ele>
        <time>2026-07-14T09:34:34Z</time>
      </trkpt>
      <trkpt lat="45.18832" lon="5.96193">
        <ele>1689.7</ele>
        <time>2026-07-14T09:34:35Z</time>
      </trkpt>
      <trkpt lat="45.18833" lon="5.96194">
        <ele>1689.6</ele>
        <time>2026-07-14T09:34:36Z</time>
      </trkpt>
      <trkpt lat="45.18834" lon="5.96195">
        <ele>1689.6</ele>
        <time>2026-07-14T09:34:37Z</time>
      </trkpt>
      <trkpt lat="45.18835" lon="5.96198">
        <ele>1689.6</ele>
        <time>2026-07-14T09:34:39Z</time>
      </trkpt>
      <trkpt lat="45.18837" lon="5.96201">
        <ele>1689.5</ele>
        <time>2026-07-14T09:34:40Z</time>
      </trkpt>
      <trkpt lat="45.18838" lon="5.96202">
        <ele>1689.4</ele>
        <time>2026-07-14T09:34:42Z</time>
      </trkpt>
      <trkpt lat="45.1884" lon="5.96204">
        <ele>1689.4</ele>
        <time>2026-07-14T09:34:44Z</time>
      </trkpt>
      <trkpt lat="45.18841" lon="5.96205">
        <ele>1689.4</ele>
        <time>2026-07-14T09:34:46Z</time>
      </trkpt>
      <trkpt lat="45.18842" lon="5.96206">
        <ele>1689.3</ele>
        <time>2026-07-14T09:34:47Z</time>
      </trkpt>
      <trkpt lat="45.18843" lon="5.96206">
        <ele>1689.3</ele>
        <time>2026-07-14T09:34:48Z</time>
      </trkpt>
      <trkpt lat="45.18844" lon="5.96208">
        <ele>1689.3</ele>
        <time>2026-07-14T09:34:49Z</time>
      </trkpt>
      <trkpt lat="45.18845" lon="5.9621">
        <ele>1689.3</ele>
        <time>2026-07-14T09:34:51Z</time>
      </trkpt>
      <trkpt lat="45.18847" lon="5.96211">
        <ele>1689.3</ele>
        <time>2026-07-14T09:34:53Z</time>
      </trkpt>
      <trkpt lat="45.18847" lon="5.96212">
        <ele>1689.3</ele>
        <time>2026-07-14T09:34:54Z</time>
      </trkpt>
      <trkpt lat="45.18849" lon="5.96214">
        <ele>1689.3</ele>
        <time>2026-07-14T09:34:56Z</time>
      </trkpt>
      <trkpt lat="45.1885" lon="5.96215">
        <ele>1689.3</ele>
        <time>2026-07-14T09:34:57Z</time>
      </trkpt>
      <trkpt lat="45.18851" lon="5.96217">
        <ele>1689.3</ele>
        <time>2026-07-14T09:34:59Z</time>
      </trkpt>
      <trkpt lat="45.18852" lon="5.9622">
        <ele>1689.3</ele>
        <time>2026-07-14T09:35:01Z</time>
      </trkpt>
      <trkpt lat="45.18852" lon="5.96221">
        <ele>1689.4</ele>
        <time>2026-07-14T09:35:02Z</time>
      </trkpt>
      <trkpt lat="45.18852" lon="5.96222">
        <ele>1689.4</ele>
        <time>2026-07-14T09:35:03Z</time>
      </trkpt>
      <trkpt lat="45.18852" lon="5.96224">
        <ele>1689.4</ele>
        <time>2026-07-14T09:35:04Z</time>
      </trkpt>
      <trkpt lat="45.18853" lon="5.96225">
        <ele>1689.4</ele>
        <time>2026-07-14T09:35:05Z</time>
      </trkpt>
      <trkpt lat="45.18854" lon="5.96226">
        <ele>1689.5</ele>
        <time>2026-07-14T09:35:06Z</time>
      </trkpt>
      <trkpt lat="45.18854" lon="5.96227">
        <ele>1689.5</ele>
        <time>2026-07-14T09:35:07Z</time>
      </trkpt>
      <trkpt lat="45.18855" lon="5.96228">
        <ele>1689.5</ele>
        <time>2026-07-14T09:35:08Z</time>
      </trkpt>
      <trkpt lat="45.18856" lon="5.96229">
        <ele>1689.6</ele>
        <time>2026-07-14T09:35:09Z</time>
      </trkpt>
      <trkpt lat="45.18856" lon="5.9623">
        <ele>1689.6</ele>
        <time>2026-07-14T09:35:10Z</time>
      </trkpt>
      <trkpt lat="45.18858" lon="5.96232">
        <ele>1689.7</ele>
        <time>2026-07-14T09:35:12Z</time>
      </trkpt>
      <trkpt lat="45.18858" lon="5.96233">
        <ele>1689.8</ele>
        <time>2026-07-14T09:35:13Z</time>
      </trkpt>
      <trkpt lat="45.18858" lon="5.96234">
        <ele>1689.8</ele>
        <time>2026-07-14T09:35:14Z</time>
      </trkpt>
      <trkpt lat="45.18858" lon="5.96235">
        <ele>1689.8</ele>
        <time>2026-07-14T09:35:15Z</time>
      </trkpt>
      <trkpt lat="45.18858" lon="5.96236">
        <ele>1689.9</ele>
        <time>2026-07-14T09:35:16Z</time>
      </trkpt>
      <trkpt lat="45.18858" lon="5.96237">
        <ele>1689.9</ele>
        <time>2026-07-14T09:35:17Z</time>
      </trkpt>
      <trkpt lat="45.18858" lon="5.96238">
        <ele>1690</ele>
        <time>2026-07-14T09:35:19Z</time>
      </trkpt>
      <trkpt lat="45.18858" lon="5.96238">
        <ele>1690</ele>
        <time>2026-07-14T09:35:21Z</time>
      </trkpt>
      <trkpt lat="45.18858" lon="5.96237">
        <ele>1690</ele>
        <time>2026-07-14T09:35:23Z</time>
      </trkpt>
      <trkpt lat="45.18858" lon="5.96237">
        <ele>1690</ele>
        <time>2026-07-14T09:35:24Z</time>
      </trkpt>
      <trkpt lat="45.18858" lon="5.96237">
        <ele>1690</ele>
        <time>2026-07-14T09:35:25Z</time>
      </trkpt>
      <trkpt lat="45.18858" lon="5.96237">
        <ele>1690</ele>
        <time>2026-07-14T09:35:26Z</time>
      </trkpt>
      <trkpt lat="45.18858" lon="5.96237">
        <ele>1690</ele>
        <time>2026-07-14T09:35:28Z</time>
      </trkpt>
      <trkpt lat="45.18858" lon="5.96237">
        <ele>1690</ele>
        <time>2026-07-14T09:35:29Z</time>
      </trkpt>
      <trkpt lat="45.18858" lon="5.96237">
        <ele>1690</ele>
        <time>2026-07-14T09:35:31Z</time>
      </trkpt>
      <trkpt lat="45.18859" lon="5.96238">
        <ele>1690.1</ele>
        <time>2026-07-14T09:35:32Z</time>
      </trkpt>
      <trkpt lat="45.1886" lon="5.96239">
        <ele>1690.2</ele>
        <time>2026-07-14T09:35:33Z</time>
      </trkpt>
      <trkpt lat="45.1886" lon="5.9624">
        <ele>1690.3</ele>
        <time>2026-07-14T09:35:34Z</time>
      </trkpt>
      <trkpt lat="45.18861" lon="5.96241">
        <ele>1690.3</ele>
        <time>2026-07-14T09:35:35Z</time>
      </trkpt>
      <trkpt lat="45.18861" lon="5.96241">
        <ele>1690.4</ele>
        <time>2026-07-14T09:35:36Z</time>
      </trkpt>
      <trkpt lat="45.18862" lon="5.96242">
        <ele>1690.5</ele>
        <time>2026-07-14T09:35:37Z</time>
      </trkpt>
      <trkpt lat="45.18863" lon="5.96243">
        <ele>1690.5</ele>
        <time>2026-07-14T09:35:38Z</time>
      </trkpt>
      <trkpt lat="45.18863" lon="5.96243">
        <ele>1690.6</ele>
        <time>2026-07-14T09:35:39Z</time>
      </trkpt>
      <trkpt lat="45.18864" lon="5.96244">
        <ele>1690.7</ele>
        <time>2026-07-14T09:35:40Z</time>
      </trkpt>
      <trkpt lat="45.18864" lon="5.96246">
        <ele>1690.8</ele>
        <time>2026-07-14T09:35:41Z</time>
      </trkpt>
      <trkpt lat="45.18865" lon="5.96247">
        <ele>1691</ele>
        <time>2026-07-14T09:35:43Z</time>
      </trkpt>
      <trkpt lat="45.18866" lon="5.96248">
        <ele>1691.1</ele>
        <time>2026-07-14T09:35:44Z</time>
      </trkpt>
      <trkpt lat="45.18866" lon="5.9625">
        <ele>1691.3</ele>
        <time>2026-07-14T09:35:46Z</time>
      </trkpt>
      <trkpt lat="45.18867" lon="5.96251">
        <ele>1691.4</ele>
        <time>2026-07-14T09:35:47Z</time>
      </trkpt>
      <trkpt lat="45.18867" lon="5.96252">
        <ele>1691.4</ele>
        <time>2026-07-14T09:35:48Z</time>
      </trkpt>
      <trkpt lat="45.18867" lon="5.96253">
        <ele>1691.5</ele>
        <time>2026-07-14T09:35:49Z</time>
      </trkpt>
      <trkpt lat="45.18867" lon="5.96254">
        <ele>1691.6</ele>
        <time>2026-07-14T09:35:50Z</time>
      </trkpt>
      <trkpt lat="45.18868" lon="5.96255">
        <ele>1691.7</ele>
        <time>2026-07-14T09:35:51Z</time>
      </trkpt>
      <trkpt lat="45.18868" lon="5.96256">
        <ele>1691.8</ele>
        <time>2026-07-14T09:35:53Z</time>
      </trkpt>
      <trkpt lat="45.18868" lon="5.96257">
        <ele>1691.9</ele>
        <time>2026-07-14T09:35:54Z</time>
      </trkpt>
      <trkpt lat="45.18868" lon="5.96257">
        <ele>1692</ele>
        <time>2026-07-14T09:35:55Z</time>
      </trkpt>
      <trkpt lat="45.18869" lon="5.96259">
        <ele>1692.2</ele>
        <time>2026-07-14T09:35:56Z</time>
      </trkpt>
      <trkpt lat="45.18869" lon="5.9626">
        <ele>1692.3</ele>
        <time>2026-07-14T09:35:57Z</time>
      </trkpt>
      <trkpt lat="45.18869" lon="5.96261">
        <ele>1692.3</ele>
        <time>2026-07-14T09:35:58Z</time>
      </trkpt>
      <trkpt lat="45.18869" lon="5.96262">
        <ele>1692.4</ele>
        <time>2026-07-14T09:35:59Z</time>
      </trkpt>
      <trkpt lat="45.18869" lon="5.96262">
        <ele>1692.5</ele>
        <time>2026-07-14T09:36:00Z</time>
      </trkpt>
      <trkpt lat="45.18869" lon="5.96263">
        <ele>1692.6</ele>
        <time>2026-07-14T09:36:01Z</time>
      </trkpt>
      <trkpt lat="45.1887" lon="5.96264">
        <ele>1692.7</ele>
        <time>2026-07-14T09:36:02Z</time>
      </trkpt>
      <trkpt lat="45.1887" lon="5.96265">
        <ele>1692.7</ele>
        <time>2026-07-14T09:36:03Z</time>
      </trkpt>
      <trkpt lat="45.1887" lon="5.96265">
        <ele>1692.8</ele>
        <time>2026-07-14T09:36:04Z</time>
      </trkpt>
      <trkpt lat="45.1887" lon="5.96266">
        <ele>1692.9</ele>
        <time>2026-07-14T09:36:05Z</time>
      </trkpt>
      <trkpt lat="45.18871" lon="5.96266">
        <ele>1693</ele>
        <time>2026-07-14T09:36:06Z</time>
      </trkpt>
      <trkpt lat="45.18872" lon="5.96267">
        <ele>1693.1</ele>
        <time>2026-07-14T09:36:07Z</time>
      </trkpt>
      <trkpt lat="45.18872" lon="5.96267">
        <ele>1693.2</ele>
        <time>2026-07-14T09:36:08Z</time>
      </trkpt>
      <trkpt lat="45.18872" lon="5.96268">
        <ele>1693.2</ele>
        <time>2026-07-14T09:36:09Z</time>
      </trkpt>
      <trkpt lat="45.18873" lon="5.96268">
        <ele>1693.3</ele>
        <time>2026-07-14T09:36:10Z</time>
      </trkpt>
      <trkpt lat="45.18873" lon="5.96269">
        <ele>1693.4</ele>
        <time>2026-07-14T09:36:11Z</time>
      </trkpt>
      <trkpt lat="45.18874" lon="5.96269">
        <ele>1693.5</ele>
        <time>2026-07-14T09:36:12Z</time>
      </trkpt>
      <trkpt lat="45.18874" lon="5.9627">
        <ele>1693.5</ele>
        <time>2026-07-14T09:36:13Z</time>
      </trkpt>
      <trkpt lat="45.18874" lon="5.96271">
        <ele>1693.6</ele>
        <time>2026-07-14T09:36:14Z</time>
      </trkpt>
      <trkpt lat="45.18875" lon="5.96271">
        <ele>1693.7</ele>
        <time>2026-07-14T09:36:15Z</time>
      </trkpt>
      <trkpt lat="45.18875" lon="5.96273">
        <ele>1693.9</ele>
        <time>2026-07-14T09:36:16Z</time>
      </trkpt>
      <trkpt lat="45.18875" lon="5.96274">
        <ele>1694</ele>
        <time>2026-07-14T09:36:17Z</time>
      </trkpt>
      <trkpt lat="45.18876" lon="5.96274">
        <ele>1694.1</ele>
        <time>2026-07-14T09:36:18Z</time>
      </trkpt>
      <trkpt lat="45.18876" lon="5.96275">
        <ele>1694.2</ele>
        <time>2026-07-14T09:36:19Z</time>
      </trkpt>
      <trkpt lat="45.18877" lon="5.96276">
        <ele>1694.3</ele>
        <time>2026-07-14T09:36:20Z</time>
      </trkpt>
      <trkpt lat="45.18877" lon="5.96278">
        <ele>1694.5</ele>
        <time>2026-07-14T09:36:22Z</time>
      </trkpt>
      <trkpt lat="45.18877" lon="5.9628">
        <ele>1694.7</ele>
        <time>2026-07-14T09:36:23Z</time>
      </trkpt>
      <trkpt lat="45.18877" lon="5.96281">
        <ele>1694.8</ele>
        <time>2026-07-14T09:36:24Z</time>
      </trkpt>
      <trkpt lat="45.18878" lon="5.96282">
        <ele>1695</ele>
        <time>2026-07-14T09:36:25Z</time>
      </trkpt>
      <trkpt lat="45.18878" lon="5.96284">
        <ele>1695.1</ele>
        <time>2026-07-14T09:36:27Z</time>
      </trkpt>
      <trkpt lat="45.18879" lon="5.96285">
        <ele>1695.3</ele>
        <time>2026-07-14T09:36:28Z</time>
      </trkpt>
      <trkpt lat="45.18879" lon="5.96286">
        <ele>1695.4</ele>
        <time>2026-07-14T09:36:29Z</time>
      </trkpt>
      <trkpt lat="45.1888" lon="5.96287">
        <ele>1695.5</ele>
        <time>2026-07-14T09:36:30Z</time>
      </trkpt>
      <trkpt lat="45.1888" lon="5.96287">
        <ele>1695.6</ele>
        <time>2026-07-14T09:36:31Z</time>
      </trkpt>
      <trkpt lat="45.18881" lon="5.96287">
        <ele>1695.8</ele>
        <time>2026-07-14T09:36:32Z</time>
      </trkpt>
      <trkpt lat="45.18882" lon="5.96288">
        <ele>1695.9</ele>
        <time>2026-07-14T09:36:33Z</time>
      </trkpt>
      <trkpt lat="45.18882" lon="5.96288">
        <ele>1696</ele>
        <time>2026-07-14T09:36:34Z</time>
      </trkpt>
      <trkpt lat="45.18884" lon="5.96289">
        <ele>1696.3</ele>
        <time>2026-07-14T09:36:36Z</time>
      </trkpt>
      <trkpt lat="45.18884" lon="5.9629">
        <ele>1696.4</ele>
        <time>2026-07-14T09:36:37Z</time>
      </trkpt>
      <trkpt lat="45.18885" lon="5.9629">
        <ele>1696.5</ele>
        <time>2026-07-14T09:36:38Z</time>
      </trkpt>
      <trkpt lat="45.18886" lon="5.96292">
        <ele>1696.8</ele>
        <time>2026-07-14T09:36:40Z</time>
      </trkpt>
      <trkpt lat="45.18887" lon="5.96292">
        <ele>1696.9</ele>
        <time>2026-07-14T09:36:41Z</time>
      </trkpt>
      <trkpt lat="45.18887" lon="5.96293">
        <ele>1697</ele>
        <time>2026-07-14T09:36:42Z</time>
      </trkpt>
      <trkpt lat="45.18888" lon="5.96294">
        <ele>1697.1</ele>
        <time>2026-07-14T09:36:43Z</time>
      </trkpt>
      <trkpt lat="45.18889" lon="5.96295">
        <ele>1697.3</ele>
        <time>2026-07-14T09:36:45Z</time>
      </trkpt>
      <trkpt lat="45.18889" lon="5.96296">
        <ele>1697.4</ele>
        <time>2026-07-14T09:36:46Z</time>
      </trkpt>
      <trkpt lat="45.18889" lon="5.96296">
        <ele>1697.5</ele>
        <time>2026-07-14T09:36:47Z</time>
      </trkpt>
      <trkpt lat="45.1889" lon="5.96296">
        <ele>1697.6</ele>
        <time>2026-07-14T09:36:48Z</time>
      </trkpt>
      <trkpt lat="45.1889" lon="5.96297">
        <ele>1697.6</ele>
        <time>2026-07-14T09:36:49Z</time>
      </trkpt>
      <trkpt lat="45.1889" lon="5.96297">
        <ele>1697.7</ele>
        <time>2026-07-14T09:36:50Z</time>
      </trkpt>
      <trkpt lat="45.18891" lon="5.96298">
        <ele>1697.8</ele>
        <time>2026-07-14T09:36:51Z</time>
      </trkpt>
      <trkpt lat="45.18891" lon="5.96298">
        <ele>1697.9</ele>
        <time>2026-07-14T09:36:52Z</time>
      </trkpt>
      <trkpt lat="45.18892" lon="5.96299">
        <ele>1698.1</ele>
        <time>2026-07-14T09:36:53Z</time>
      </trkpt>
      <trkpt lat="45.18892" lon="5.963">
        <ele>1698.1</ele>
        <time>2026-07-14T09:36:54Z</time>
      </trkpt>
      <trkpt lat="45.18892" lon="5.963">
        <ele>1698.3</ele>
        <time>2026-07-14T09:36:55Z</time>
      </trkpt>
      <trkpt lat="45.18893" lon="5.96302">
        <ele>1698.4</ele>
        <time>2026-07-14T09:36:57Z</time>
      </trkpt>
      <trkpt lat="45.18893" lon="5.96302">
        <ele>1698.5</ele>
        <time>2026-07-14T09:36:58Z</time>
      </trkpt>
      <trkpt lat="45.18894" lon="5.96303">
        <ele>1698.7</ele>
        <time>2026-07-14T09:36:59Z</time>
      </trkpt>
      <trkpt lat="45.18895" lon="5.96303">
        <ele>1698.8</ele>
        <time>2026-07-14T09:37:00Z</time>
      </trkpt>
      <trkpt lat="45.18895" lon="5.96304">
        <ele>1698.9</ele>
        <time>2026-07-14T09:37:01Z</time>
      </trkpt>
      <trkpt lat="45.18896" lon="5.96305">
        <ele>1699.1</ele>
        <time>2026-07-14T09:37:02Z</time>
      </trkpt>
      <trkpt lat="45.18897" lon="5.96306">
        <ele>1699.2</ele>
        <time>2026-07-14T09:37:03Z</time>
      </trkpt>
      <trkpt lat="45.18897" lon="5.96307">
        <ele>1699.4</ele>
        <time>2026-07-14T09:37:04Z</time>
      </trkpt>
      <trkpt lat="45.18898" lon="5.96308">
        <ele>1699.5</ele>
        <time>2026-07-14T09:37:05Z</time>
      </trkpt>
      <trkpt lat="45.18898" lon="5.96309">
        <ele>1699.7</ele>
        <time>2026-07-14T09:37:06Z</time>
      </trkpt>
      <trkpt lat="45.18899" lon="5.96309">
        <ele>1699.8</ele>
        <time>2026-07-14T09:37:08Z</time>
      </trkpt>
      <trkpt lat="45.18899" lon="5.96311">
        <ele>1700</ele>
        <time>2026-07-14T09:37:09Z</time>
      </trkpt>
      <trkpt lat="45.189" lon="5.96312">
        <ele>1700.2</ele>
        <time>2026-07-14T09:37:10Z</time>
      </trkpt>
      <trkpt lat="45.189" lon="5.96312">
        <ele>1700.3</ele>
        <time>2026-07-14T09:37:11Z</time>
      </trkpt>
      <trkpt lat="45.18901" lon="5.96313">
        <ele>1700.4</ele>
        <time>2026-07-14T09:37:12Z</time>
      </trkpt>
      <trkpt lat="45.18901" lon="5.96314">
        <ele>1700.5</ele>
        <time>2026-07-14T09:37:13Z</time>
      </trkpt>
      <trkpt lat="45.18901" lon="5.96314">
        <ele>1700.6</ele>
        <time>2026-07-14T09:37:14Z</time>
      </trkpt>
      <trkpt lat="45.18902" lon="5.96315">
        <ele>1700.7</ele>
        <time>2026-07-14T09:37:15Z</time>
      </trkpt>
      <trkpt lat="45.18902" lon="5.96315">
        <ele>1700.8</ele>
        <time>2026-07-14T09:37:16Z</time>
      </trkpt>
      <trkpt lat="45.18903" lon="5.96315">
        <ele>1700.9</ele>
        <time>2026-07-14T09:37:17Z</time>
      </trkpt>
      <trkpt lat="45.18904" lon="5.96316">
        <ele>1701</ele>
        <time>2026-07-14T09:37:18Z</time>
      </trkpt>
      <trkpt lat="45.18904" lon="5.96316">
        <ele>1701.1</ele>
        <time>2026-07-14T09:37:19Z</time>
      </trkpt>
      <trkpt lat="45.18905" lon="5.96316">
        <ele>1701.3</ele>
        <time>2026-07-14T09:37:20Z</time>
      </trkpt>
      <trkpt lat="45.18905" lon="5.96316">
        <ele>1701.4</ele>
        <time>2026-07-14T09:37:21Z</time>
      </trkpt>
      <trkpt lat="45.18906" lon="5.96317">
        <ele>1701.6</ele>
        <time>2026-07-14T09:37:23Z</time>
      </trkpt>
      <trkpt lat="45.18907" lon="5.96318">
        <ele>1701.8</ele>
        <time>2026-07-14T09:37:25Z</time>
      </trkpt>
      <trkpt lat="45.18907" lon="5.96319">
        <ele>1701.9</ele>
        <time>2026-07-14T09:37:26Z</time>
      </trkpt>
      <trkpt lat="45.18908" lon="5.96319">
        <ele>1702</ele>
        <time>2026-07-14T09:37:27Z</time>
      </trkpt>
      <trkpt lat="45.18908" lon="5.9632">
        <ele>1702.1</ele>
        <time>2026-07-14T09:37:28Z</time>
      </trkpt>
      <trkpt lat="45.18909" lon="5.9632">
        <ele>1702.2</ele>
        <time>2026-07-14T09:37:29Z</time>
      </trkpt>
      <trkpt lat="45.18909" lon="5.9632">
        <ele>1702.3</ele>
        <time>2026-07-14T09:37:30Z</time>
      </trkpt>
      <trkpt lat="45.1891" lon="5.96321">
        <ele>1702.4</ele>
        <time>2026-07-14T09:37:31Z</time>
      </trkpt>
      <trkpt lat="45.18911" lon="5.96322">
        <ele>1702.7</ele>
        <time>2026-07-14T09:37:33Z</time>
      </trkpt>
      <trkpt lat="45.18911" lon="5.96322">
        <ele>1702.8</ele>
        <time>2026-07-14T09:37:34Z</time>
      </trkpt>
      <trkpt lat="45.18911" lon="5.96323">
        <ele>1702.9</ele>
        <time>2026-07-14T09:37:35Z</time>
      </trkpt>
      <trkpt lat="45.18912" lon="5.96324">
        <ele>1703.2</ele>
        <time>2026-07-14T09:37:37Z</time>
      </trkpt>
      <trkpt lat="45.18912" lon="5.96325">
        <ele>1703.3</ele>
        <time>2026-07-14T09:37:38Z</time>
      </trkpt>
      <trkpt lat="45.18913" lon="5.96327">
        <ele>1703.6</ele>
        <time>2026-07-14T09:37:40Z</time>
      </trkpt>
      <trkpt lat="45.18913" lon="5.96327">
        <ele>1703.7</ele>
        <time>2026-07-14T09:37:41Z</time>
      </trkpt>
      <trkpt lat="45.18913" lon="5.96328">
        <ele>1703.8</ele>
        <time>2026-07-14T09:37:42Z</time>
      </trkpt>
      <trkpt lat="45.18914" lon="5.96329">
        <ele>1704</ele>
        <time>2026-07-14T09:37:43Z</time>
      </trkpt>
      <trkpt lat="45.18914" lon="5.9633">
        <ele>1704.1</ele>
        <time>2026-07-14T09:37:44Z</time>
      </trkpt>
      <trkpt lat="45.18914" lon="5.96332">
        <ele>1704.4</ele>
        <time>2026-07-14T09:37:46Z</time>
      </trkpt>
      <trkpt lat="45.18914" lon="5.96333">
        <ele>1704.5</ele>
        <time>2026-07-14T09:37:47Z</time>
      </trkpt>
      <trkpt lat="45.18914" lon="5.96334">
        <ele>1704.7</ele>
        <time>2026-07-14T09:37:48Z</time>
      </trkpt>
      <trkpt lat="45.18913" lon="5.96335">
        <ele>1704.9</ele>
        <time>2026-07-14T09:37:49Z</time>
      </trkpt>
      <trkpt lat="45.18913" lon="5.96336">
        <ele>1705</ele>
        <time>2026-07-14T09:37:50Z</time>
      </trkpt>
      <trkpt lat="45.18913" lon="5.96337">
        <ele>1705.2</ele>
        <time>2026-07-14T09:37:51Z</time>
      </trkpt>
      <trkpt lat="45.18913" lon="5.96337">
        <ele>1705.3</ele>
        <time>2026-07-14T09:37:52Z</time>
      </trkpt>
      <trkpt lat="45.18913" lon="5.96338">
        <ele>1705.4</ele>
        <time>2026-07-14T09:37:53Z</time>
      </trkpt>
      <trkpt lat="45.18913" lon="5.96339">
        <ele>1705.5</ele>
        <time>2026-07-14T09:37:54Z</time>
      </trkpt>
      <trkpt lat="45.18914" lon="5.96339">
        <ele>1705.6</ele>
        <time>2026-07-14T09:37:55Z</time>
      </trkpt>
      <trkpt lat="45.18914" lon="5.9634">
        <ele>1705.8</ele>
        <time>2026-07-14T09:37:56Z</time>
      </trkpt>
      <trkpt lat="45.18915" lon="5.96341">
        <ele>1705.9</ele>
        <time>2026-07-14T09:37:57Z</time>
      </trkpt>
      <trkpt lat="45.18915" lon="5.96341">
        <ele>1706.1</ele>
        <time>2026-07-14T09:37:59Z</time>
      </trkpt>
      <trkpt lat="45.18916" lon="5.96343">
        <ele>1706.4</ele>
        <time>2026-07-14T09:38:00Z</time>
      </trkpt>
      <trkpt lat="45.18916" lon="5.96344">
        <ele>1706.5</ele>
        <time>2026-07-14T09:38:01Z</time>
      </trkpt>
      <trkpt lat="45.18917" lon="5.96344">
        <ele>1706.6</ele>
        <time>2026-07-14T09:38:02Z</time>
      </trkpt>
      <trkpt lat="45.18917" lon="5.96345">
        <ele>1706.7</ele>
        <time>2026-07-14T09:38:03Z</time>
      </trkpt>
      <trkpt lat="45.18917" lon="5.96346">
        <ele>1706.9</ele>
        <time>2026-07-14T09:38:04Z</time>
      </trkpt>
      <trkpt lat="45.18917" lon="5.96347">
        <ele>1707</ele>
        <time>2026-07-14T09:38:05Z</time>
      </trkpt>
      <trkpt lat="45.18917" lon="5.96348">
        <ele>1707.1</ele>
        <time>2026-07-14T09:38:06Z</time>
      </trkpt>
      <trkpt lat="45.18918" lon="5.96348">
        <ele>1707.3</ele>
        <time>2026-07-14T09:38:07Z</time>
      </trkpt>
      <trkpt lat="45.18918" lon="5.9635">
        <ele>1707.5</ele>
        <time>2026-07-14T09:38:08Z</time>
      </trkpt>
      <trkpt lat="45.18919" lon="5.96351">
        <ele>1707.7</ele>
        <time>2026-07-14T09:38:09Z</time>
      </trkpt>
      <trkpt lat="45.18919" lon="5.96352">
        <ele>1707.8</ele>
        <time>2026-07-14T09:38:10Z</time>
      </trkpt>
      <trkpt lat="45.1892" lon="5.96353">
        <ele>1708</ele>
        <time>2026-07-14T09:38:11Z</time>
      </trkpt>
      <trkpt lat="45.1892" lon="5.96353">
        <ele>1708.1</ele>
        <time>2026-07-14T09:38:12Z</time>
      </trkpt>
      <trkpt lat="45.1892" lon="5.96354">
        <ele>1708.2</ele>
        <time>2026-07-14T09:38:13Z</time>
      </trkpt>
      <trkpt lat="45.18921" lon="5.96355">
        <ele>1708.4</ele>
        <time>2026-07-14T09:38:14Z</time>
      </trkpt>
      <trkpt lat="45.18921" lon="5.96356">
        <ele>1708.5</ele>
        <time>2026-07-14T09:38:15Z</time>
      </trkpt>
      <trkpt lat="45.18921" lon="5.96357">
        <ele>1708.6</ele>
        <time>2026-07-14T09:38:16Z</time>
      </trkpt>
      <trkpt lat="45.18921" lon="5.96358">
        <ele>1708.7</ele>
        <time>2026-07-14T09:38:17Z</time>
      </trkpt>
      <trkpt lat="45.18922" lon="5.96359">
        <ele>1708.9</ele>
        <time>2026-07-14T09:38:18Z</time>
      </trkpt>
      <trkpt lat="45.18922" lon="5.9636">
        <ele>1709</ele>
        <time>2026-07-14T09:38:20Z</time>
      </trkpt>
      <trkpt lat="45.18922" lon="5.9636">
        <ele>1709.1</ele>
        <time>2026-07-14T09:38:21Z</time>
      </trkpt>
      <trkpt lat="45.18923" lon="5.96362">
        <ele>1709.3</ele>
        <time>2026-07-14T09:38:22Z</time>
      </trkpt>
      <trkpt lat="45.18923" lon="5.96362">
        <ele>1709.4</ele>
        <time>2026-07-14T09:38:23Z</time>
      </trkpt>
      <trkpt lat="45.18923" lon="5.96363">
        <ele>1709.5</ele>
        <time>2026-07-14T09:38:24Z</time>
      </trkpt>
      <trkpt lat="45.18924" lon="5.96365">
        <ele>1709.7</ele>
        <time>2026-07-14T09:38:26Z</time>
      </trkpt>
      <trkpt lat="45.18924" lon="5.96365">
        <ele>1709.8</ele>
        <time>2026-07-14T09:38:27Z</time>
      </trkpt>
      <trkpt lat="45.18925" lon="5.96366">
        <ele>1709.9</ele>
        <time>2026-07-14T09:38:28Z</time>
      </trkpt>
      <trkpt lat="45.18925" lon="5.96367">
        <ele>1710</ele>
        <time>2026-07-14T09:38:29Z</time>
      </trkpt>
      <trkpt lat="45.18925" lon="5.96367">
        <ele>1710.1</ele>
        <time>2026-07-14T09:38:30Z</time>
      </trkpt>
      <trkpt lat="45.18925" lon="5.96368">
        <ele>1710.3</ele>
        <time>2026-07-14T09:38:31Z</time>
      </trkpt>
      <trkpt lat="45.18925" lon="5.96369">
        <ele>1710.3</ele>
        <time>2026-07-14T09:38:32Z</time>
      </trkpt>
      <trkpt lat="45.18925" lon="5.9637">
        <ele>1710.4</ele>
        <time>2026-07-14T09:38:33Z</time>
      </trkpt>
      <trkpt lat="45.18925" lon="5.9637">
        <ele>1710.5</ele>
        <time>2026-07-14T09:38:34Z</time>
      </trkpt>
      <trkpt lat="45.18925" lon="5.96371">
        <ele>1710.6</ele>
        <time>2026-07-14T09:38:35Z</time>
      </trkpt>
      <trkpt lat="45.18925" lon="5.96372">
        <ele>1710.7</ele>
        <time>2026-07-14T09:38:36Z</time>
      </trkpt>
      <trkpt lat="45.18925" lon="5.96373">
        <ele>1710.8</ele>
        <time>2026-07-14T09:38:37Z</time>
      </trkpt>
      <trkpt lat="45.18925" lon="5.96374">
        <ele>1710.9</ele>
        <time>2026-07-14T09:38:38Z</time>
      </trkpt>
      <trkpt lat="45.18925" lon="5.96374">
        <ele>1711.1</ele>
        <time>2026-07-14T09:38:39Z</time>
      </trkpt>
      <trkpt lat="45.18925" lon="5.96375">
        <ele>1711.2</ele>
        <time>2026-07-14T09:38:40Z</time>
      </trkpt>
      <trkpt lat="45.18925" lon="5.96376">
        <ele>1711.3</ele>
        <time>2026-07-14T09:38:41Z</time>
      </trkpt>
      <trkpt lat="45.18926" lon="5.96376">
        <ele>1711.4</ele>
        <time>2026-07-14T09:38:42Z</time>
      </trkpt>
      <trkpt lat="45.18926" lon="5.96377">
        <ele>1711.5</ele>
        <time>2026-07-14T09:38:43Z</time>
      </trkpt>
      <trkpt lat="45.18926" lon="5.96377">
        <ele>1711.6</ele>
        <time>2026-07-14T09:38:44Z</time>
      </trkpt>
      <trkpt lat="45.18927" lon="5.96378">
        <ele>1711.7</ele>
        <time>2026-07-14T09:38:45Z</time>
      </trkpt>
      <trkpt lat="45.18926" lon="5.96379">
        <ele>1711.9</ele>
        <time>2026-07-14T09:38:46Z</time>
      </trkpt>
      <trkpt lat="45.18926" lon="5.96381">
        <ele>1712.1</ele>
        <time>2026-07-14T09:38:47Z</time>
      </trkpt>
      <trkpt lat="45.18927" lon="5.96382">
        <ele>1712.2</ele>
        <time>2026-07-14T09:38:48Z</time>
      </trkpt>
      <trkpt lat="45.18927" lon="5.96383">
        <ele>1712.4</ele>
        <time>2026-07-14T09:38:49Z</time>
      </trkpt>
      <trkpt lat="45.18928" lon="5.96384">
        <ele>1712.6</ele>
        <time>2026-07-14T09:38:50Z</time>
      </trkpt>
      <trkpt lat="45.18928" lon="5.96384">
        <ele>1712.7</ele>
        <time>2026-07-14T09:38:51Z</time>
      </trkpt>
      <trkpt lat="45.18929" lon="5.96385">
        <ele>1712.9</ele>
        <time>2026-07-14T09:38:52Z</time>
      </trkpt>
      <trkpt lat="45.18929" lon="5.96386">
        <ele>1713</ele>
        <time>2026-07-14T09:38:53Z</time>
      </trkpt>
      <trkpt lat="45.1893" lon="5.96387">
        <ele>1713.1</ele>
        <time>2026-07-14T09:38:54Z</time>
      </trkpt>
      <trkpt lat="45.1893" lon="5.96388">
        <ele>1713.3</ele>
        <time>2026-07-14T09:38:55Z</time>
      </trkpt>
      <trkpt lat="45.1893" lon="5.96389">
        <ele>1713.4</ele>
        <time>2026-07-14T09:38:56Z</time>
      </trkpt>
      <trkpt lat="45.1893" lon="5.9639">
        <ele>1713.6</ele>
        <time>2026-07-14T09:38:57Z</time>
      </trkpt>
      <trkpt lat="45.18931" lon="5.96391">
        <ele>1713.7</ele>
        <time>2026-07-14T09:38:58Z</time>
      </trkpt>
      <trkpt lat="45.18931" lon="5.96392">
        <ele>1713.8</ele>
        <time>2026-07-14T09:38:59Z</time>
      </trkpt>
      <trkpt lat="45.18932" lon="5.96391">
        <ele>1713.9</ele>
        <time>2026-07-14T09:39:00Z</time>
      </trkpt>
      <trkpt lat="45.18932" lon="5.96391">
        <ele>1714</ele>
        <time>2026-07-14T09:39:01Z</time>
      </trkpt>
      <trkpt lat="45.18932" lon="5.9639">
        <ele>1714.1</ele>
        <time>2026-07-14T09:39:02Z</time>
      </trkpt>
      <trkpt lat="45.18932" lon="5.96391">
        <ele>1714.1</ele>
        <time>2026-07-14T09:39:03Z</time>
      </trkpt>
      <trkpt lat="45.18931" lon="5.96391">
        <ele>1714.1</ele>
        <time>2026-07-14T09:39:04Z</time>
      </trkpt>
      <trkpt lat="45.18931" lon="5.96391">
        <ele>1714.2</ele>
        <time>2026-07-14T09:39:06Z</time>
      </trkpt>
      <trkpt lat="45.18931" lon="5.96391">
        <ele>1714.2</ele>
        <time>2026-07-14T09:39:08Z</time>
      </trkpt>
      <trkpt lat="45.18931" lon="5.96391">
        <ele>1714.3</ele>
        <time>2026-07-14T09:39:09Z</time>
      </trkpt>
      <trkpt lat="45.18931" lon="5.96391">
        <ele>1714.3</ele>
        <time>2026-07-14T09:39:10Z</time>
      </trkpt>
      <trkpt lat="45.1893" lon="5.96391">
        <ele>1714.3</ele>
        <time>2026-07-14T09:39:11Z</time>
      </trkpt>
      <trkpt lat="45.1893" lon="5.96391">
        <ele>1714.3</ele>
        <time>2026-07-14T09:39:12Z</time>
      </trkpt>
      <trkpt lat="45.1893" lon="5.96391">
        <ele>1714.3</ele>
        <time>2026-07-14T09:39:13Z</time>
      </trkpt>
      <trkpt lat="45.1893" lon="5.96391">
        <ele>1714.3</ele>
        <time>2026-07-14T09:39:14Z</time>
      </trkpt>
      <trkpt lat="45.1893" lon="5.96391">
        <ele>1714.3</ele>
        <time>2026-07-14T09:39:15Z</time>
      </trkpt>
      <trkpt lat="45.1893" lon="5.96391">
        <ele>1714.3</ele>
        <time>2026-07-14T09:39:17Z</time>
      </trkpt>
      <trkpt lat="45.1893" lon="5.96392">
        <ele>1714.3</ele>
        <time>2026-07-14T09:39:18Z</time>
      </trkpt>
      <trkpt lat="45.1893" lon="5.96392">
        <ele>1714.4</ele>
        <time>2026-07-14T09:39:19Z</time>
      </trkpt>
      <trkpt lat="45.1893" lon="5.96392">
        <ele>1714.4</ele>
        <time>2026-07-14T09:39:20Z</time>
      </trkpt>
      <trkpt lat="45.18931" lon="5.96392">
        <ele>1714.4</ele>
        <time>2026-07-14T09:39:21Z</time>
      </trkpt>
      <trkpt lat="45.18931" lon="5.96392">
        <ele>1714.4</ele>
        <time>2026-07-14T09:39:22Z</time>
      </trkpt>
      <trkpt lat="45.18931" lon="5.96392">
        <ele>1714.4</ele>
        <time>2026-07-14T09:39:23Z</time>
      </trkpt>
      <trkpt lat="45.18931" lon="5.96392">
        <ele>1714.5</ele>
        <time>2026-07-14T09:39:24Z</time>
      </trkpt>
      <trkpt lat="45.18931" lon="5.96392">
        <ele>1714.5</ele>
        <time>2026-07-14T09:39:25Z</time>
      </trkpt>
      <trkpt lat="45.18931" lon="5.96392">
        <ele>1714.5</ele>
        <time>2026-07-14T09:39:26Z</time>
      </trkpt>
      <trkpt lat="45.18931" lon="5.96392">
        <ele>1714.5</ele>
        <time>2026-07-14T09:39:27Z</time>
      </trkpt>
      <trkpt lat="45.18931" lon="5.96392">
        <ele>1714.5</ele>
        <time>2026-07-14T09:39:28Z</time>
      </trkpt>
      <trkpt lat="45.18931" lon="5.96392">
        <ele>1714.5</ele>
        <time>2026-07-14T09:39:29Z</time>
      </trkpt>
      <trkpt lat="45.18931" lon="5.96392">
        <ele>1714.5</ele>
        <time>2026-07-14T09:39:30Z</time>
      </trkpt>
      <trkpt lat="45.18931" lon="5.96392">
        <ele>1714.5</ele>
        <time>2026-07-14T09:39:31Z</time>
      </trkpt>
      <trkpt lat="45.18931" lon="5.96392">
        <ele>1714.5</ele>
        <time>2026-07-14T09:39:32Z</time>
      </trkpt>
      <trkpt lat="45.18931" lon="5.96392">
        <ele>1714.5</ele>
        <time>2026-07-14T09:39:33Z</time>
      </trkpt>
      <trkpt lat="45.18931" lon="5.96392">
        <ele>1714.6</ele>
        <time>2026-07-14T09:39:34Z</time>
      </trkpt>
      <trkpt lat="45.18931" lon="5.96392">
        <ele>1714.6</ele>
        <time>2026-07-14T09:39:35Z</time>
      </trkpt>
      <trkpt lat="45.18931" lon="5.96392">
        <ele>1714.6</ele>
        <time>2026-07-14T09:39:37Z</time>
      </trkpt>
      <trkpt lat="45.18931" lon="5.96392">
        <ele>1714.6</ele>
        <time>2026-07-14T09:39:38Z</time>
      </trkpt>
      <trkpt lat="45.18931" lon="5.96392">
        <ele>1714.6</ele>
        <time>2026-07-14T09:39:39Z</time>
      </trkpt>
      <trkpt lat="45.18931" lon="5.96392">
        <ele>1714.6</ele>
        <time>2026-07-14T09:39:40Z</time>
      </trkpt>
      <trkpt lat="45.18931" lon="5.96392">
        <ele>1714.6</ele>
        <time>2026-07-14T09:39:41Z</time>
      </trkpt>
      <trkpt lat="45.18931" lon="5.96392">
        <ele>1714.6</ele>
        <time>2026-07-14T09:39:42Z</time>
      </trkpt>
      <trkpt lat="45.18931" lon="5.96392">
        <ele>1714.6</ele>
        <time>2026-07-14T09:39:43Z</time>
      </trkpt>
      <trkpt lat="45.18931" lon="5.96392">
        <ele>1714.6</ele>
        <time>2026-07-14T09:39:44Z</time>
      </trkpt>
      <trkpt lat="45.18931" lon="5.96392">
        <ele>1714.6</ele>
        <time>2026-07-14T09:39:45Z</time>
      </trkpt>
      <trkpt lat="45.18931" lon="5.96392">
        <ele>1714.6</ele>
        <time>2026-07-14T09:39:46Z</time>
      </trkpt>
      <trkpt lat="45.18931" lon="5.96392">
        <ele>1714.6</ele>
        <time>2026-07-14T09:39:47Z</time>
      </trkpt>
      <trkpt lat="45.18931" lon="5.96392">
        <ele>1714.6</ele>
        <time>2026-07-14T09:39:48Z</time>
      </trkpt>
      <trkpt lat="45.18931" lon="5.96392">
        <ele>1714.6</ele>
        <time>2026-07-14T09:39:49Z</time>
      </trkpt>
      <trkpt lat="45.18931" lon="5.96392">
        <ele>1714.6</ele>
        <time>2026-07-14T09:39:50Z</time>
      </trkpt>
      <trkpt lat="45.18931" lon="5.96392">
        <ele>1714.6</ele>
        <time>2026-07-14T09:39:51Z</time>
      </trkpt>
      <trkpt lat="45.18931" lon="5.96392">
        <ele>1714.6</ele>
        <time>2026-07-14T09:39:52Z</time>
      </trkpt>
      <trkpt lat="45.18931" lon="5.96392">
        <ele>1714.6</ele>
        <time>2026-07-14T09:39:53Z</time>
      </trkpt>
      <trkpt lat="45.18931" lon="5.96392">
        <ele>1714.6</ele>
        <time>2026-07-14T09:39:54Z</time>
      </trkpt>
      <trkpt lat="45.18931" lon="5.96392">
        <ele>1714.6</ele>
        <time>2026-07-14T09:39:55Z</time>
      </trkpt>
      <trkpt lat="45.18931" lon="5.96392">
        <ele>1714.6</ele>
        <time>2026-07-14T09:39:56Z</time>
      </trkpt>
      <trkpt lat="45.18931" lon="5.96392">
        <ele>1714.7</ele>
        <time>2026-07-14T09:39:57Z</time>
      </trkpt>
      <trkpt lat="45.18931" lon="5.96392">
        <ele>1714.7</ele>
        <time>2026-07-14T09:39:58Z</time>
      </trkpt>
      <trkpt lat="45.18931" lon="5.96392">
        <ele>1714.7</ele>
        <time>2026-07-14T09:39:59Z</time>
      </trkpt>
      <trkpt lat="45.18931" lon="5.96392">
        <ele>1714.7</ele>
        <time>2026-07-14T09:40:00Z</time>
      </trkpt>
      <trkpt lat="45.18931" lon="5.96392">
        <ele>1714.7</ele>
        <time>2026-07-14T09:40:02Z</time>
      </trkpt>
      <trkpt lat="45.18931" lon="5.96392">
        <ele>1714.8</ele>
        <time>2026-07-14T09:40:03Z</time>
      </trkpt>
      <trkpt lat="45.18931" lon="5.96392">
        <ele>1714.8</ele>
        <time>2026-07-14T09:40:04Z</time>
      </trkpt>
      <trkpt lat="45.18931" lon="5.96392">
        <ele>1714.8</ele>
        <time>2026-07-14T09:40:05Z</time>
      </trkpt>
      <trkpt lat="45.18931" lon="5.96392">
        <ele>1714.8</ele>
        <time>2026-07-14T09:40:06Z</time>
      </trkpt>
      <trkpt lat="45.18931" lon="5.96392">
        <ele>1714.8</ele>
        <time>2026-07-14T09:40:07Z</time>
      </trkpt>
      <trkpt lat="45.18931" lon="5.96392">
        <ele>1714.8</ele>
        <time>2026-07-14T09:40:08Z</time>
      </trkpt>
      <trkpt lat="45.18931" lon="5.96392">
        <ele>1714.8</ele>
        <time>2026-07-14T09:40:09Z</time>
      </trkpt>
      <trkpt lat="45.18931" lon="5.96392">
        <ele>1714.8</ele>
        <time>2026-07-14T09:40:10Z</time>
      </trkpt>
      <trkpt lat="45.18931" lon="5.96392">
        <ele>1714.8</ele>
        <time>2026-07-14T09:40:11Z</time>
      </trkpt>
      <trkpt lat="45.18931" lon="5.96392">
        <ele>1714.8</ele>
        <time>2026-07-14T09:40:12Z</time>
      </trkpt>
      <trkpt lat="45.18931" lon="5.96392">
        <ele>1714.8</ele>
        <time>2026-07-14T09:40:13Z</time>
      </trkpt>
      <trkpt lat="45.18931" lon="5.96392">
        <ele>1714.8</ele>
        <time>2026-07-14T09:40:14Z</time>
      </trkpt>
      <trkpt lat="45.18931" lon="5.96392">
        <ele>1714.8</ele>
        <time>2026-07-14T09:40:15Z</time>
      </trkpt>
      <trkpt lat="45.18931" lon="5.96392">
        <ele>1714.8</ele>
        <time>2026-07-14T09:40:16Z</time>
      </trkpt>
      <trkpt lat="45.18931" lon="5.96392">
        <ele>1714.8</ele>
        <time>2026-07-14T09:40:17Z</time>
      </trkpt>
      <trkpt lat="45.1893" lon="5.96392">
        <ele>1714.8</ele>
        <time>2026-07-14T09:40:18Z</time>
      </trkpt>
      <trkpt lat="45.1893" lon="5.96392">
        <ele>1714.8</ele>
        <time>2026-07-14T09:40:19Z</time>
      </trkpt>
      <trkpt lat="45.1893" lon="5.96392">
        <ele>1714.8</ele>
        <time>2026-07-14T09:40:20Z</time>
      </trkpt>
      <trkpt lat="45.1893" lon="5.96392">
        <ele>1714.8</ele>
        <time>2026-07-14T09:40:21Z</time>
      </trkpt>
      <trkpt lat="45.1893" lon="5.96392">
        <ele>1714.8</ele>
        <time>2026-07-14T09:40:22Z</time>
      </trkpt>
      <trkpt lat="45.1893" lon="5.96392">
        <ele>1714.8</ele>
        <time>2026-07-14T09:40:23Z</time>
      </trkpt>
      <trkpt lat="45.1893" lon="5.96392">
        <ele>1714.8</ele>
        <time>2026-07-14T09:40:24Z</time>
      </trkpt>
      <trkpt lat="45.1893" lon="5.96392">
        <ele>1714.8</ele>
        <time>2026-07-14T09:40:25Z</time>
      </trkpt>
      <trkpt lat="45.1893" lon="5.96392">
        <ele>1714.8</ele>
        <time>2026-07-14T09:40:26Z</time>
      </trkpt>
      <trkpt lat="45.1893" lon="5.96392">
        <ele>1714.8</ele>
        <time>2026-07-14T09:40:27Z</time>
      </trkpt>
      <trkpt lat="45.1893" lon="5.96392">
        <ele>1714.8</ele>
        <time>2026-07-14T09:40:28Z</time>
      </trkpt>
      <trkpt lat="45.1893" lon="5.96392">
        <ele>1714.8</ele>
        <time>2026-07-14T09:40:29Z</time>
      </trkpt>
      <trkpt lat="45.1893" lon="5.96392">
        <ele>1714.8</ele>
        <time>2026-07-14T09:40:30Z</time>
      </trkpt>
      <trkpt lat="45.1893" lon="5.96392">
        <ele>1714.8</ele>
        <time>2026-07-14T09:40:31Z</time>
      </trkpt>
      <trkpt lat="45.1893" lon="5.96393">
        <ele>1714.8</ele>
        <time>2026-07-14T09:40:32Z</time>
      </trkpt>
      <trkpt lat="45.1893" lon="5.96393">
        <ele>1714.8</ele>
        <time>2026-07-14T09:40:33Z</time>
      </trkpt>
      <trkpt lat="45.1893" lon="5.96393">
        <ele>1714.8</ele>
        <time>2026-07-14T09:40:34Z</time>
      </trkpt>
      <trkpt lat="45.1893" lon="5.96393">
        <ele>1714.8</ele>
        <time>2026-07-14T09:40:35Z</time>
      </trkpt>
      <trkpt lat="45.1893" lon="5.96393">
        <ele>1714.8</ele>
        <time>2026-07-14T09:40:36Z</time>
      </trkpt>
      <trkpt lat="45.1893" lon="5.96393">
        <ele>1714.8</ele>
        <time>2026-07-14T09:40:37Z</time>
      </trkpt>
      <trkpt lat="45.1893" lon="5.96393">
        <ele>1714.8</ele>
        <time>2026-07-14T09:40:38Z</time>
      </trkpt>
      <trkpt lat="45.1893" lon="5.96393">
        <ele>1714.8</ele>
        <time>2026-07-14T09:40:39Z</time>
      </trkpt>
      <trkpt lat="45.1893" lon="5.96393">
        <ele>1714.8</ele>
        <time>2026-07-14T09:40:40Z</time>
      </trkpt>
      <trkpt lat="45.1893" lon="5.96393">
        <ele>1714.8</ele>
        <time>2026-07-14T09:40:41Z</time>
      </trkpt>
      <trkpt lat="45.1893" lon="5.96393">
        <ele>1714.8</ele>
        <time>2026-07-14T09:40:42Z</time>
      </trkpt>
      <trkpt lat="45.1893" lon="5.96393">
        <ele>1714.8</ele>
        <time>2026-07-14T09:40:43Z</time>
      </trkpt>
      <trkpt lat="45.1893" lon="5.96393">
        <ele>1714.8</ele>
        <time>2026-07-14T09:40:44Z</time>
      </trkpt>
      <trkpt lat="45.1893" lon="5.96393">
        <ele>1714.8</ele>
        <time>2026-07-14T09:40:45Z</time>
      </trkpt>
      <trkpt lat="45.1893" lon="5.96393">
        <ele>1714.8</ele>
        <time>2026-07-14T09:40:46Z</time>
      </trkpt>
      <trkpt lat="45.1893" lon="5.96393">
        <ele>1714.8</ele>
        <time>2026-07-14T09:40:47Z</time>
      </trkpt>
      <trkpt lat="45.1893" lon="5.96393">
        <ele>1714.8</ele>
        <time>2026-07-14T09:40:48Z</time>
      </trkpt>
      <trkpt lat="45.1893" lon="5.96393">
        <ele>1714.8</ele>
        <time>2026-07-14T09:40:49Z</time>
      </trkpt>
      <trkpt lat="45.1893" lon="5.96393">
        <ele>1714.9</ele>
        <time>2026-07-14T09:40:50Z</time>
      </trkpt>
      <trkpt lat="45.1893" lon="5.96393">
        <ele>1714.9</ele>
        <time>2026-07-14T09:40:51Z</time>
      </trkpt>
      <trkpt lat="45.1893" lon="5.96393">
        <ele>1714.9</ele>
        <time>2026-07-14T09:40:52Z</time>
      </trkpt>
      <trkpt lat="45.18931" lon="5.96394">
        <ele>1715</ele>
        <time>2026-07-14T09:40:54Z</time>
      </trkpt>
      <trkpt lat="45.18931" lon="5.96394">
        <ele>1715</ele>
        <time>2026-07-14T09:40:55Z</time>
      </trkpt>
      <trkpt lat="45.18931" lon="5.96394">
        <ele>1715</ele>
        <time>2026-07-14T09:40:56Z</time>
      </trkpt>
      <trkpt lat="45.18933" lon="5.96396">
        <ele>1715.3</ele>
        <time>2026-07-14T09:40:58Z</time>
      </trkpt>
      <trkpt lat="45.18933" lon="5.96397">
        <ele>1715.5</ele>
        <time>2026-07-14T09:40:59Z</time>
      </trkpt>
      <trkpt lat="45.18934" lon="5.96398">
        <ele>1715.6</ele>
        <time>2026-07-14T09:41:00Z</time>
      </trkpt>
      <trkpt lat="45.18935" lon="5.96399">
        <ele>1715.7</ele>
        <time>2026-07-14T09:41:01Z</time>
      </trkpt>
      <trkpt lat="45.18935" lon="5.964">
        <ele>1715.8</ele>
        <time>2026-07-14T09:41:02Z</time>
      </trkpt>
      <trkpt lat="45.18936" lon="5.964">
        <ele>1715.9</ele>
        <time>2026-07-14T09:41:03Z</time>
      </trkpt>
      <trkpt lat="45.18936" lon="5.96401">
        <ele>1716</ele>
        <time>2026-07-14T09:41:04Z</time>
      </trkpt>
      <trkpt lat="45.18936" lon="5.96404">
        <ele>1716.2</ele>
        <time>2026-07-14T09:41:06Z</time>
      </trkpt>
      <trkpt lat="45.18937" lon="5.96405">
        <ele>1716.3</ele>
        <time>2026-07-14T09:41:07Z</time>
      </trkpt>
      <trkpt lat="45.18937" lon="5.96406">
        <ele>1716.5</ele>
        <time>2026-07-14T09:41:08Z</time>
      </trkpt>
      <trkpt lat="45.18937" lon="5.96408">
        <ele>1716.5</ele>
        <time>2026-07-14T09:41:10Z</time>
      </trkpt>
      <trkpt lat="45.18937" lon="5.96409">
        <ele>1716.7</ele>
        <time>2026-07-14T09:41:11Z</time>
      </trkpt>
      <trkpt lat="45.18938" lon="5.9641">
        <ele>1716.8</ele>
        <time>2026-07-14T09:41:12Z</time>
      </trkpt>
      <trkpt lat="45.18939" lon="5.96412">
        <ele>1717</ele>
        <time>2026-07-14T09:41:13Z</time>
      </trkpt>
      <trkpt lat="45.18939" lon="5.96413">
        <ele>1717.1</ele>
        <time>2026-07-14T09:41:14Z</time>
      </trkpt>
      <trkpt lat="45.1894" lon="5.96414">
        <ele>1717.2</ele>
        <time>2026-07-14T09:41:15Z</time>
      </trkpt>
      <trkpt lat="45.1894" lon="5.96415">
        <ele>1717.3</ele>
        <time>2026-07-14T09:41:17Z</time>
      </trkpt>
      <trkpt lat="45.18941" lon="5.96415">
        <ele>1717.4</ele>
        <time>2026-07-14T09:41:18Z</time>
      </trkpt>
      <trkpt lat="45.18941" lon="5.96416">
        <ele>1717.5</ele>
        <time>2026-07-14T09:41:19Z</time>
      </trkpt>
      <trkpt lat="45.18942" lon="5.96417">
        <ele>1717.6</ele>
        <time>2026-07-14T09:41:20Z</time>
      </trkpt>
      <trkpt lat="45.18942" lon="5.96418">
        <ele>1717.7</ele>
        <time>2026-07-14T09:41:21Z</time>
      </trkpt>
      <trkpt lat="45.18943" lon="5.96419">
        <ele>1717.8</ele>
        <time>2026-07-14T09:41:22Z</time>
      </trkpt>
      <trkpt lat="45.18943" lon="5.9642">
        <ele>1717.9</ele>
        <time>2026-07-14T09:41:23Z</time>
      </trkpt>
      <trkpt lat="45.18942" lon="5.96422">
        <ele>1718.2</ele>
        <time>2026-07-14T09:41:25Z</time>
      </trkpt>
      <trkpt lat="45.18942" lon="5.96423">
        <ele>1718.3</ele>
        <time>2026-07-14T09:41:26Z</time>
      </trkpt>
      <trkpt lat="45.18943" lon="5.96424">
        <ele>1718.4</ele>
        <time>2026-07-14T09:41:27Z</time>
      </trkpt>
      <trkpt lat="45.18943" lon="5.96424">
        <ele>1718.4</ele>
        <time>2026-07-14T09:41:28Z</time>
      </trkpt>
      <trkpt lat="45.18943" lon="5.96425">
        <ele>1718.5</ele>
        <time>2026-07-14T09:41:29Z</time>
      </trkpt>
      <trkpt lat="45.18944" lon="5.96425">
        <ele>1718.6</ele>
        <time>2026-07-14T09:41:30Z</time>
      </trkpt>
      <trkpt lat="45.18944" lon="5.96425">
        <ele>1718.7</ele>
        <time>2026-07-14T09:41:31Z</time>
      </trkpt>
      <trkpt lat="45.18945" lon="5.96426">
        <ele>1718.8</ele>
        <time>2026-07-14T09:41:33Z</time>
      </trkpt>
      <trkpt lat="45.18945" lon="5.96427">
        <ele>1718.9</ele>
        <time>2026-07-14T09:41:34Z</time>
      </trkpt>
      <trkpt lat="45.18946" lon="5.96427">
        <ele>1719</ele>
        <time>2026-07-14T09:41:35Z</time>
      </trkpt>
      <trkpt lat="45.18946" lon="5.96427">
        <ele>1719.1</ele>
        <time>2026-07-14T09:41:36Z</time>
      </trkpt>
      <trkpt lat="45.18947" lon="5.96428">
        <ele>1719.2</ele>
        <time>2026-07-14T09:41:37Z</time>
      </trkpt>
      <trkpt lat="45.18947" lon="5.96428">
        <ele>1719.3</ele>
        <time>2026-07-14T09:41:38Z</time>
      </trkpt>
      <trkpt lat="45.18948" lon="5.96429">
        <ele>1719.4</ele>
        <time>2026-07-14T09:41:39Z</time>
      </trkpt>
      <trkpt lat="45.18948" lon="5.96429">
        <ele>1719.5</ele>
        <time>2026-07-14T09:41:40Z</time>
      </trkpt>
      <trkpt lat="45.18948" lon="5.9643">
        <ele>1719.5</ele>
        <time>2026-07-14T09:41:41Z</time>
      </trkpt>
      <trkpt lat="45.18948" lon="5.9643">
        <ele>1719.6</ele>
        <time>2026-07-14T09:41:42Z</time>
      </trkpt>
      <trkpt lat="45.18949" lon="5.96431">
        <ele>1719.7</ele>
        <time>2026-07-14T09:41:43Z</time>
      </trkpt>
      <trkpt lat="45.18949" lon="5.96431">
        <ele>1719.8</ele>
        <time>2026-07-14T09:41:44Z</time>
      </trkpt>
      <trkpt lat="45.1895" lon="5.96432">
        <ele>1719.9</ele>
        <time>2026-07-14T09:41:45Z</time>
      </trkpt>
      <trkpt lat="45.1895" lon="5.96432">
        <ele>1720</ele>
        <time>2026-07-14T09:41:46Z</time>
      </trkpt>
      <trkpt lat="45.18951" lon="5.96432">
        <ele>1720.1</ele>
        <time>2026-07-14T09:41:47Z</time>
      </trkpt>
      <trkpt lat="45.18951" lon="5.96432">
        <ele>1720.2</ele>
        <time>2026-07-14T09:41:48Z</time>
      </trkpt>
      <trkpt lat="45.18952" lon="5.96432">
        <ele>1720.3</ele>
        <time>2026-07-14T09:41:49Z</time>
      </trkpt>
      <trkpt lat="45.18952" lon="5.96432">
        <ele>1720.4</ele>
        <time>2026-07-14T09:41:50Z</time>
      </trkpt>
      <trkpt lat="45.18953" lon="5.96432">
        <ele>1720.5</ele>
        <time>2026-07-14T09:41:51Z</time>
      </trkpt>
      <trkpt lat="45.18953" lon="5.96432">
        <ele>1720.6</ele>
        <time>2026-07-14T09:41:52Z</time>
      </trkpt>
      <trkpt lat="45.18953" lon="5.96432">
        <ele>1720.7</ele>
        <time>2026-07-14T09:41:53Z</time>
      </trkpt>
      <trkpt lat="45.18954" lon="5.96431">
        <ele>1720.8</ele>
        <time>2026-07-14T09:41:55Z</time>
      </trkpt>
      <trkpt lat="45.18955" lon="5.96431">
        <ele>1720.9</ele>
        <time>2026-07-14T09:41:56Z</time>
      </trkpt>
      <trkpt lat="45.18956" lon="5.96431">
        <ele>1721.1</ele>
        <time>2026-07-14T09:41:58Z</time>
      </trkpt>
      <trkpt lat="45.18956" lon="5.96431">
        <ele>1721.2</ele>
        <time>2026-07-14T09:41:59Z</time>
      </trkpt>
      <trkpt lat="45.18957" lon="5.96431">
        <ele>1721.4</ele>
        <time>2026-07-14T09:42:00Z</time>
      </trkpt>
      <trkpt lat="45.18958" lon="5.96431">
        <ele>1721.5</ele>
        <time>2026-07-14T09:42:01Z</time>
      </trkpt>
      <trkpt lat="45.18958" lon="5.96431">
        <ele>1721.6</ele>
        <time>2026-07-14T09:42:02Z</time>
      </trkpt>
      <trkpt lat="45.18959" lon="5.96431">
        <ele>1721.7</ele>
        <time>2026-07-14T09:42:03Z</time>
      </trkpt>
      <trkpt lat="45.18959" lon="5.96431">
        <ele>1721.8</ele>
        <time>2026-07-14T09:42:04Z</time>
      </trkpt>
      <trkpt lat="45.1896" lon="5.96431">
        <ele>1722</ele>
        <time>2026-07-14T09:42:06Z</time>
      </trkpt>
      <trkpt lat="45.18961" lon="5.96432">
        <ele>1722.2</ele>
        <time>2026-07-14T09:42:08Z</time>
      </trkpt>
      <trkpt lat="45.18962" lon="5.96432">
        <ele>1722.4</ele>
        <time>2026-07-14T09:42:09Z</time>
      </trkpt>
      <trkpt lat="45.18963" lon="5.96433">
        <ele>1722.6</ele>
        <time>2026-07-14T09:42:11Z</time>
      </trkpt>
      <trkpt lat="45.18964" lon="5.96432">
        <ele>1722.7</ele>
        <time>2026-07-14T09:42:13Z</time>
      </trkpt>
      <trkpt lat="45.18965" lon="5.96432">
        <ele>1722.9</ele>
        <time>2026-07-14T09:42:14Z</time>
      </trkpt>
      <trkpt lat="45.18965" lon="5.96433">
        <ele>1723</ele>
        <time>2026-07-14T09:42:15Z</time>
      </trkpt>
      <trkpt lat="45.18966" lon="5.96433">
        <ele>1723.1</ele>
        <time>2026-07-14T09:42:17Z</time>
      </trkpt>
      <trkpt lat="45.18967" lon="5.96434">
        <ele>1723.3</ele>
        <time>2026-07-14T09:42:18Z</time>
      </trkpt>
      <trkpt lat="45.18967" lon="5.96434">
        <ele>1723.3</ele>
        <time>2026-07-14T09:42:19Z</time>
      </trkpt>
      <trkpt lat="45.18967" lon="5.96434">
        <ele>1723.4</ele>
        <time>2026-07-14T09:42:20Z</time>
      </trkpt>
      <trkpt lat="45.18968" lon="5.96434">
        <ele>1723.5</ele>
        <time>2026-07-14T09:42:21Z</time>
      </trkpt>
      <trkpt lat="45.18968" lon="5.96434">
        <ele>1723.6</ele>
        <time>2026-07-14T09:42:22Z</time>
      </trkpt>
      <trkpt lat="45.18969" lon="5.96435">
        <ele>1723.8</ele>
        <time>2026-07-14T09:42:24Z</time>
      </trkpt>
      <trkpt lat="45.1897" lon="5.96436">
        <ele>1723.9</ele>
        <time>2026-07-14T09:42:25Z</time>
      </trkpt>
      <trkpt lat="45.1897" lon="5.96437">
        <ele>1724.1</ele>
        <time>2026-07-14T09:42:27Z</time>
      </trkpt>
      <trkpt lat="45.1897" lon="5.96438">
        <ele>1724.2</ele>
        <time>2026-07-14T09:42:28Z</time>
      </trkpt>
      <trkpt lat="45.18971" lon="5.96439">
        <ele>1724.3</ele>
        <time>2026-07-14T09:42:29Z</time>
      </trkpt>
      <trkpt lat="45.18971" lon="5.9644">
        <ele>1724.5</ele>
        <time>2026-07-14T09:42:30Z</time>
      </trkpt>
      <trkpt lat="45.18971" lon="5.96441">
        <ele>1724.6</ele>
        <time>2026-07-14T09:42:31Z</time>
      </trkpt>
      <trkpt lat="45.18972" lon="5.96442">
        <ele>1724.7</ele>
        <time>2026-07-14T09:42:32Z</time>
      </trkpt>
      <trkpt lat="45.18972" lon="5.96444">
        <ele>1725</ele>
        <time>2026-07-14T09:42:33Z</time>
      </trkpt>
      <trkpt lat="45.18973" lon="5.96446">
        <ele>1725.2</ele>
        <time>2026-07-14T09:42:35Z</time>
      </trkpt>
      <trkpt lat="45.18973" lon="5.96447">
        <ele>1725.3</ele>
        <time>2026-07-14T09:42:37Z</time>
      </trkpt>
      <trkpt lat="45.18974" lon="5.96449">
        <ele>1725.5</ele>
        <time>2026-07-14T09:42:38Z</time>
      </trkpt>
      <trkpt lat="45.18974" lon="5.96449">
        <ele>1725.5</ele>
        <time>2026-07-14T09:42:39Z</time>
      </trkpt>
      <trkpt lat="45.18974" lon="5.9645">
        <ele>1725.6</ele>
        <time>2026-07-14T09:42:40Z</time>
      </trkpt>
      <trkpt lat="45.18975" lon="5.9645">
        <ele>1725.7</ele>
        <time>2026-07-14T09:42:41Z</time>
      </trkpt>
      <trkpt lat="45.18975" lon="5.96451">
        <ele>1725.7</ele>
        <time>2026-07-14T09:42:42Z</time>
      </trkpt>
      <trkpt lat="45.18975" lon="5.96452">
        <ele>1725.8</ele>
        <time>2026-07-14T09:42:43Z</time>
      </trkpt>
      <trkpt lat="45.18975" lon="5.96452">
        <ele>1725.9</ele>
        <time>2026-07-14T09:42:44Z</time>
      </trkpt>
      <trkpt lat="45.18975" lon="5.96453">
        <ele>1726</ele>
        <time>2026-07-14T09:42:45Z</time>
      </trkpt>
      <trkpt lat="45.18975" lon="5.96454">
        <ele>1726</ele>
        <time>2026-07-14T09:42:46Z</time>
      </trkpt>
      <trkpt lat="45.18975" lon="5.96455">
        <ele>1726.1</ele>
        <time>2026-07-14T09:42:47Z</time>
      </trkpt>
      <trkpt lat="45.18976" lon="5.96455">
        <ele>1726.2</ele>
        <time>2026-07-14T09:42:48Z</time>
      </trkpt>
      <trkpt lat="45.18977" lon="5.96456">
        <ele>1726.3</ele>
        <time>2026-07-14T09:42:50Z</time>
      </trkpt>
      <trkpt lat="45.18977" lon="5.96457">
        <ele>1726.4</ele>
        <time>2026-07-14T09:42:51Z</time>
      </trkpt>
      <trkpt lat="45.18979" lon="5.96457">
        <ele>1726.6</ele>
        <time>2026-07-14T09:42:53Z</time>
      </trkpt>
      <trkpt lat="45.18979" lon="5.96457">
        <ele>1726.7</ele>
        <time>2026-07-14T09:42:54Z</time>
      </trkpt>
      <trkpt lat="45.1898" lon="5.96457">
        <ele>1726.9</ele>
        <time>2026-07-14T09:42:56Z</time>
      </trkpt>
      <trkpt lat="45.18981" lon="5.96456">
        <ele>1727</ele>
        <time>2026-07-14T09:42:57Z</time>
      </trkpt>
      <trkpt lat="45.18981" lon="5.96456">
        <ele>1727</ele>
        <time>2026-07-14T09:42:58Z</time>
      </trkpt>
      <trkpt lat="45.18981" lon="5.96455">
        <ele>1727.1</ele>
        <time>2026-07-14T09:42:59Z</time>
      </trkpt>
      <trkpt lat="45.18981" lon="5.96455">
        <ele>1727.1</ele>
        <time>2026-07-14T09:43:00Z</time>
      </trkpt>
      <trkpt lat="45.18982" lon="5.96455">
        <ele>1727.2</ele>
        <time>2026-07-14T09:43:01Z</time>
      </trkpt>
      <trkpt lat="45.18982" lon="5.96456">
        <ele>1727.3</ele>
        <time>2026-07-14T09:43:02Z</time>
      </trkpt>
      <trkpt lat="45.18983" lon="5.96456">
        <ele>1727.4</ele>
        <time>2026-07-14T09:43:03Z</time>
      </trkpt>
      <trkpt lat="45.18983" lon="5.96457">
        <ele>1727.5</ele>
        <time>2026-07-14T09:43:05Z</time>
      </trkpt>
      <trkpt lat="45.18984" lon="5.96457">
        <ele>1727.6</ele>
        <time>2026-07-14T09:43:06Z</time>
      </trkpt>
      <trkpt lat="45.18984" lon="5.96457">
        <ele>1727.7</ele>
        <time>2026-07-14T09:43:07Z</time>
      </trkpt>
      <trkpt lat="45.18985" lon="5.96458">
        <ele>1727.8</ele>
        <time>2026-07-14T09:43:08Z</time>
      </trkpt>
      <trkpt lat="45.18985" lon="5.96458">
        <ele>1727.9</ele>
        <time>2026-07-14T09:43:09Z</time>
      </trkpt>
      <trkpt lat="45.18986" lon="5.96459">
        <ele>1728</ele>
        <time>2026-07-14T09:43:10Z</time>
      </trkpt>
      <trkpt lat="45.18986" lon="5.96459">
        <ele>1728.1</ele>
        <time>2026-07-14T09:43:11Z</time>
      </trkpt>
      <trkpt lat="45.18987" lon="5.9646">
        <ele>1728.2</ele>
        <time>2026-07-14T09:43:12Z</time>
      </trkpt>
      <trkpt lat="45.18987" lon="5.9646">
        <ele>1728.3</ele>
        <time>2026-07-14T09:43:13Z</time>
      </trkpt>
      <trkpt lat="45.18988" lon="5.9646">
        <ele>1728.4</ele>
        <time>2026-07-14T09:43:14Z</time>
      </trkpt>
      <trkpt lat="45.18989" lon="5.96461">
        <ele>1728.5</ele>
        <time>2026-07-14T09:43:15Z</time>
      </trkpt>
      <trkpt lat="45.18989" lon="5.96461">
        <ele>1728.6</ele>
        <time>2026-07-14T09:43:16Z</time>
      </trkpt>
      <trkpt lat="45.18989" lon="5.96462">
        <ele>1728.7</ele>
        <time>2026-07-14T09:43:17Z</time>
      </trkpt>
      <trkpt lat="45.18989" lon="5.96462">
        <ele>1728.8</ele>
        <time>2026-07-14T09:43:18Z</time>
      </trkpt>
      <trkpt lat="45.18989" lon="5.96463">
        <ele>1728.9</ele>
        <time>2026-07-14T09:43:19Z</time>
      </trkpt>
      <trkpt lat="45.1899" lon="5.96463">
        <ele>1728.9</ele>
        <time>2026-07-14T09:43:20Z</time>
      </trkpt>
      <trkpt lat="45.1899" lon="5.96463">
        <ele>1729</ele>
        <time>2026-07-14T09:43:21Z</time>
      </trkpt>
      <trkpt lat="45.18991" lon="5.96463">
        <ele>1729.1</ele>
        <time>2026-07-14T09:43:22Z</time>
      </trkpt>
      <trkpt lat="45.18991" lon="5.96464">
        <ele>1729.2</ele>
        <time>2026-07-14T09:43:23Z</time>
      </trkpt>
      <trkpt lat="45.18992" lon="5.96464">
        <ele>1729.4</ele>
        <time>2026-07-14T09:43:24Z</time>
      </trkpt>
      <trkpt lat="45.18992" lon="5.96464">
        <ele>1729.5</ele>
        <time>2026-07-14T09:43:25Z</time>
      </trkpt>
      <trkpt lat="45.18993" lon="5.96464">
        <ele>1729.6</ele>
        <time>2026-07-14T09:43:26Z</time>
      </trkpt>
      <trkpt lat="45.18993" lon="5.96465">
        <ele>1729.7</ele>
        <time>2026-07-14T09:43:27Z</time>
      </trkpt>
      <trkpt lat="45.18994" lon="5.96465">
        <ele>1729.8</ele>
        <time>2026-07-14T09:43:28Z</time>
      </trkpt>
      <trkpt lat="45.18994" lon="5.96466">
        <ele>1730</ele>
        <time>2026-07-14T09:43:29Z</time>
      </trkpt>
      <trkpt lat="45.18995" lon="5.96466">
        <ele>1730.1</ele>
        <time>2026-07-14T09:43:30Z</time>
      </trkpt>
      <trkpt lat="45.18995" lon="5.96466">
        <ele>1730.2</ele>
        <time>2026-07-14T09:43:31Z</time>
      </trkpt>
      <trkpt lat="45.18995" lon="5.96467">
        <ele>1730.2</ele>
        <time>2026-07-14T09:43:32Z</time>
      </trkpt>
      <trkpt lat="45.18995" lon="5.96467">
        <ele>1730.3</ele>
        <time>2026-07-14T09:43:33Z</time>
      </trkpt>
      <trkpt lat="45.18996" lon="5.96467">
        <ele>1730.4</ele>
        <time>2026-07-14T09:43:34Z</time>
      </trkpt>
      <trkpt lat="45.18996" lon="5.96467">
        <ele>1730.5</ele>
        <time>2026-07-14T09:43:35Z</time>
      </trkpt>
      <trkpt lat="45.18997" lon="5.96467">
        <ele>1730.6</ele>
        <time>2026-07-14T09:43:36Z</time>
      </trkpt>
      <trkpt lat="45.18997" lon="5.96468">
        <ele>1730.8</ele>
        <time>2026-07-14T09:43:38Z</time>
      </trkpt>
      <trkpt lat="45.18998" lon="5.96468">
        <ele>1730.9</ele>
        <time>2026-07-14T09:43:39Z</time>
      </trkpt>
      <trkpt lat="45.18998" lon="5.96469">
        <ele>1731</ele>
        <time>2026-07-14T09:43:40Z</time>
      </trkpt>
      <trkpt lat="45.18998" lon="5.96469">
        <ele>1731.1</ele>
        <time>2026-07-14T09:43:42Z</time>
      </trkpt>
      <trkpt lat="45.18999" lon="5.9647">
        <ele>1731.3</ele>
        <time>2026-07-14T09:43:43Z</time>
      </trkpt>
      <trkpt lat="45.18999" lon="5.9647">
        <ele>1731.4</ele>
        <time>2026-07-14T09:43:44Z</time>
      </trkpt>
      <trkpt lat="45.19" lon="5.9647">
        <ele>1731.6</ele>
        <time>2026-07-14T09:43:46Z</time>
      </trkpt>
      <trkpt lat="45.19" lon="5.9647">
        <ele>1731.7</ele>
        <time>2026-07-14T09:43:47Z</time>
      </trkpt>
      <trkpt lat="45.19001" lon="5.96471">
        <ele>1731.9</ele>
        <time>2026-07-14T09:43:48Z</time>
      </trkpt>
      <trkpt lat="45.19001" lon="5.96471">
        <ele>1732</ele>
        <time>2026-07-14T09:43:49Z</time>
      </trkpt>
      <trkpt lat="45.19002" lon="5.96472">
        <ele>1732.2</ele>
        <time>2026-07-14T09:43:50Z</time>
      </trkpt>
      <trkpt lat="45.19002" lon="5.96472">
        <ele>1732.3</ele>
        <time>2026-07-14T09:43:51Z</time>
      </trkpt>
      <trkpt lat="45.19003" lon="5.96472">
        <ele>1732.4</ele>
        <time>2026-07-14T09:43:52Z</time>
      </trkpt>
      <trkpt lat="45.19003" lon="5.96473">
        <ele>1732.6</ele>
        <time>2026-07-14T09:43:53Z</time>
      </trkpt>
      <trkpt lat="45.19004" lon="5.96473">
        <ele>1732.9</ele>
        <time>2026-07-14T09:43:55Z</time>
      </trkpt>
      <trkpt lat="45.19005" lon="5.96474">
        <ele>1733</ele>
        <time>2026-07-14T09:43:56Z</time>
      </trkpt>
      <trkpt lat="45.19005" lon="5.96474">
        <ele>1733.2</ele>
        <time>2026-07-14T09:43:57Z</time>
      </trkpt>
      <trkpt lat="45.19005" lon="5.96474">
        <ele>1733.3</ele>
        <time>2026-07-14T09:43:58Z</time>
      </trkpt>
      <trkpt lat="45.19006" lon="5.96475">
        <ele>1733.4</ele>
        <time>2026-07-14T09:43:59Z</time>
      </trkpt>
      <trkpt lat="45.19006" lon="5.96475">
        <ele>1733.5</ele>
        <time>2026-07-14T09:44:00Z</time>
      </trkpt>
      <trkpt lat="45.19006" lon="5.96476">
        <ele>1733.6</ele>
        <time>2026-07-14T09:44:01Z</time>
      </trkpt>
      <trkpt lat="45.19006" lon="5.96476">
        <ele>1733.8</ele>
        <time>2026-07-14T09:44:02Z</time>
      </trkpt>
      <trkpt lat="45.19006" lon="5.96477">
        <ele>1733.9</ele>
        <time>2026-07-14T09:44:04Z</time>
      </trkpt>
      <trkpt lat="45.19006" lon="5.96477">
        <ele>1734</ele>
        <time>2026-07-14T09:44:06Z</time>
      </trkpt>
      <trkpt lat="45.19007" lon="5.96478">
        <ele>1734.2</ele>
        <time>2026-07-14T09:44:07Z</time>
      </trkpt>
      <trkpt lat="45.19007" lon="5.96478">
        <ele>1734.4</ele>
        <time>2026-07-14T09:44:08Z</time>
      </trkpt>
      <trkpt lat="45.19008" lon="5.96479">
        <ele>1734.5</ele>
        <time>2026-07-14T09:44:09Z</time>
      </trkpt>
      <trkpt lat="45.19009" lon="5.96479">
        <ele>1734.8</ele>
        <time>2026-07-14T09:44:11Z</time>
      </trkpt>
      <trkpt lat="45.19009" lon="5.9648">
        <ele>1734.9</ele>
        <time>2026-07-14T09:44:12Z</time>
      </trkpt>
      <trkpt lat="45.19009" lon="5.9648">
        <ele>1735</ele>
        <time>2026-07-14T09:44:13Z</time>
      </trkpt>
      <trkpt lat="45.1901" lon="5.96481">
        <ele>1735.3</ele>
        <time>2026-07-14T09:44:15Z</time>
      </trkpt>
      <trkpt lat="45.1901" lon="5.96482">
        <ele>1735.5</ele>
        <time>2026-07-14T09:44:16Z</time>
      </trkpt>
      <trkpt lat="45.1901" lon="5.96482">
        <ele>1735.6</ele>
        <time>2026-07-14T09:44:17Z</time>
      </trkpt>
      <trkpt lat="45.19011" lon="5.96483">
        <ele>1735.7</ele>
        <time>2026-07-14T09:44:18Z</time>
      </trkpt>
      <trkpt lat="45.19011" lon="5.96483">
        <ele>1735.8</ele>
        <time>2026-07-14T09:44:19Z</time>
      </trkpt>
      <trkpt lat="45.19011" lon="5.96483">
        <ele>1736</ele>
        <time>2026-07-14T09:44:20Z</time>
      </trkpt>
      <trkpt lat="45.19012" lon="5.96483">
        <ele>1736.2</ele>
        <time>2026-07-14T09:44:21Z</time>
      </trkpt>
      <trkpt lat="45.19012" lon="5.96483">
        <ele>1736.3</ele>
        <time>2026-07-14T09:44:22Z</time>
      </trkpt>
      <trkpt lat="45.19013" lon="5.96484">
        <ele>1736.5</ele>
        <time>2026-07-14T09:44:24Z</time>
      </trkpt>
      <trkpt lat="45.19013" lon="5.96485">
        <ele>1736.8</ele>
        <time>2026-07-14T09:44:25Z</time>
      </trkpt>
      <trkpt lat="45.19013" lon="5.96486">
        <ele>1737</ele>
        <time>2026-07-14T09:44:26Z</time>
      </trkpt>
      <trkpt lat="45.19014" lon="5.96486">
        <ele>1737.1</ele>
        <time>2026-07-14T09:44:27Z</time>
      </trkpt>
      <trkpt lat="45.19014" lon="5.96487">
        <ele>1737.3</ele>
        <time>2026-07-14T09:44:28Z</time>
      </trkpt>
      <trkpt lat="45.19014" lon="5.96487">
        <ele>1737.4</ele>
        <time>2026-07-14T09:44:29Z</time>
      </trkpt>
      <trkpt lat="45.19014" lon="5.96488">
        <ele>1737.5</ele>
        <time>2026-07-14T09:44:30Z</time>
      </trkpt>
      <trkpt lat="45.19015" lon="5.96488">
        <ele>1737.6</ele>
        <time>2026-07-14T09:44:31Z</time>
      </trkpt>
      <trkpt lat="45.19015" lon="5.96488">
        <ele>1737.7</ele>
        <time>2026-07-14T09:44:32Z</time>
      </trkpt>
      <trkpt lat="45.19016" lon="5.96488">
        <ele>1737.9</ele>
        <time>2026-07-14T09:44:33Z</time>
      </trkpt>
      <trkpt lat="45.19016" lon="5.96489">
        <ele>1738</ele>
        <time>2026-07-14T09:44:34Z</time>
      </trkpt>
      <trkpt lat="45.19016" lon="5.96489">
        <ele>1738.2</ele>
        <time>2026-07-14T09:44:35Z</time>
      </trkpt>
      <trkpt lat="45.19016" lon="5.9649">
        <ele>1738.3</ele>
        <time>2026-07-14T09:44:36Z</time>
      </trkpt>
      <trkpt lat="45.19017" lon="5.96491">
        <ele>1738.6</ele>
        <time>2026-07-14T09:44:38Z</time>
      </trkpt>
      <trkpt lat="45.19017" lon="5.96491">
        <ele>1738.8</ele>
        <time>2026-07-14T09:44:40Z</time>
      </trkpt>
      <trkpt lat="45.19017" lon="5.96492">
        <ele>1738.9</ele>
        <time>2026-07-14T09:44:41Z</time>
      </trkpt>
      <trkpt lat="45.19017" lon="5.96492">
        <ele>1739</ele>
        <time>2026-07-14T09:44:42Z</time>
      </trkpt>
      <trkpt lat="45.19018" lon="5.96493">
        <ele>1739.1</ele>
        <time>2026-07-14T09:44:44Z</time>
      </trkpt>
      <trkpt lat="45.19018" lon="5.96493">
        <ele>1739.3</ele>
        <time>2026-07-14T09:44:45Z</time>
      </trkpt>
      <trkpt lat="45.19018" lon="5.96493">
        <ele>1739.4</ele>
        <time>2026-07-14T09:44:46Z</time>
      </trkpt>
      <trkpt lat="45.19018" lon="5.96494">
        <ele>1739.5</ele>
        <time>2026-07-14T09:44:47Z</time>
      </trkpt>
      <trkpt lat="45.19019" lon="5.96494">
        <ele>1739.6</ele>
        <time>2026-07-14T09:44:48Z</time>
      </trkpt>
      <trkpt lat="45.19019" lon="5.96494">
        <ele>1739.7</ele>
        <time>2026-07-14T09:44:49Z</time>
      </trkpt>
      <trkpt lat="45.19019" lon="5.96494">
        <ele>1739.9</ele>
        <time>2026-07-14T09:44:50Z</time>
      </trkpt>
      <trkpt lat="45.1902" lon="5.96495">
        <ele>1740</ele>
        <time>2026-07-14T09:44:51Z</time>
      </trkpt>
      <trkpt lat="45.1902" lon="5.96496">
        <ele>1740.3</ele>
        <time>2026-07-14T09:44:53Z</time>
      </trkpt>
      <trkpt lat="45.19021" lon="5.96496">
        <ele>1740.4</ele>
        <time>2026-07-14T09:44:54Z</time>
      </trkpt>
      <trkpt lat="45.19021" lon="5.96497">
        <ele>1740.6</ele>
        <time>2026-07-14T09:44:55Z</time>
      </trkpt>
      <trkpt lat="45.19021" lon="5.96497">
        <ele>1740.9</ele>
        <time>2026-07-14T09:44:56Z</time>
      </trkpt>
      <trkpt lat="45.19022" lon="5.96498">
        <ele>1741.1</ele>
        <time>2026-07-14T09:44:57Z</time>
      </trkpt>
      <trkpt lat="45.19022" lon="5.96498">
        <ele>1741.2</ele>
        <time>2026-07-14T09:44:58Z</time>
      </trkpt>
      <trkpt lat="45.19022" lon="5.96499">
        <ele>1741.3</ele>
        <time>2026-07-14T09:44:59Z</time>
      </trkpt>
      <trkpt lat="45.19023" lon="5.96499">
        <ele>1741.4</ele>
        <time>2026-07-14T09:45:00Z</time>
      </trkpt>
      <trkpt lat="45.19023" lon="5.96499">
        <ele>1741.5</ele>
        <time>2026-07-14T09:45:01Z</time>
      </trkpt>
      <trkpt lat="45.19023" lon="5.96499">
        <ele>1741.6</ele>
        <time>2026-07-14T09:45:02Z</time>
      </trkpt>
      <trkpt lat="45.19023" lon="5.965">
        <ele>1741.7</ele>
        <time>2026-07-14T09:45:03Z</time>
      </trkpt>
      <trkpt lat="45.19023" lon="5.965">
        <ele>1741.9</ele>
        <time>2026-07-14T09:45:04Z</time>
      </trkpt>
      <trkpt lat="45.19023" lon="5.965">
        <ele>1741.9</ele>
        <time>2026-07-14T09:45:05Z</time>
      </trkpt>
      <trkpt lat="45.19024" lon="5.965">
        <ele>1742</ele>
        <time>2026-07-14T09:45:06Z</time>
      </trkpt>
      <trkpt lat="45.19024" lon="5.96501">
        <ele>1742.2</ele>
        <time>2026-07-14T09:45:08Z</time>
      </trkpt>
      <trkpt lat="45.19024" lon="5.96501">
        <ele>1742.3</ele>
        <time>2026-07-14T09:45:09Z</time>
      </trkpt>
      <trkpt lat="45.19025" lon="5.96501">
        <ele>1742.4</ele>
        <time>2026-07-14T09:45:10Z</time>
      </trkpt>
      <trkpt lat="45.19025" lon="5.96501">
        <ele>1742.6</ele>
        <time>2026-07-14T09:45:11Z</time>
      </trkpt>
      <trkpt lat="45.19025" lon="5.96501">
        <ele>1742.6</ele>
        <time>2026-07-14T09:45:12Z</time>
      </trkpt>
      <trkpt lat="45.19026" lon="5.96501">
        <ele>1742.8</ele>
        <time>2026-07-14T09:45:13Z</time>
      </trkpt>
      <trkpt lat="45.19026" lon="5.96501">
        <ele>1742.9</ele>
        <time>2026-07-14T09:45:14Z</time>
      </trkpt>
      <trkpt lat="45.19026" lon="5.96501">
        <ele>1743</ele>
        <time>2026-07-14T09:45:15Z</time>
      </trkpt>
      <trkpt lat="45.19027" lon="5.96501">
        <ele>1743.2</ele>
        <time>2026-07-14T09:45:16Z</time>
      </trkpt>
      <trkpt lat="45.19027" lon="5.96501">
        <ele>1743.3</ele>
        <time>2026-07-14T09:45:17Z</time>
      </trkpt>
      <trkpt lat="45.19028" lon="5.96502">
        <ele>1743.5</ele>
        <time>2026-07-14T09:45:18Z</time>
      </trkpt>
      <trkpt lat="45.19028" lon="5.96502">
        <ele>1743.7</ele>
        <time>2026-07-14T09:45:19Z</time>
      </trkpt>
      <trkpt lat="45.19028" lon="5.96503">
        <ele>1743.8</ele>
        <time>2026-07-14T09:45:20Z</time>
      </trkpt>
      <trkpt lat="45.19029" lon="5.96503">
        <ele>1744</ele>
        <time>2026-07-14T09:45:21Z</time>
      </trkpt>
      <trkpt lat="45.19029" lon="5.96504">
        <ele>1744.2</ele>
        <time>2026-07-14T09:45:22Z</time>
      </trkpt>
      <trkpt lat="45.19029" lon="5.96504">
        <ele>1744.3</ele>
        <time>2026-07-14T09:45:23Z</time>
      </trkpt>
      <trkpt lat="45.1903" lon="5.96505">
        <ele>1744.5</ele>
        <time>2026-07-14T09:45:24Z</time>
      </trkpt>
      <trkpt lat="45.1903" lon="5.96505">
        <ele>1744.6</ele>
        <time>2026-07-14T09:45:25Z</time>
      </trkpt>
      <trkpt lat="45.19031" lon="5.96506">
        <ele>1744.9</ele>
        <time>2026-07-14T09:45:27Z</time>
      </trkpt>
      <trkpt lat="45.19031" lon="5.96506">
        <ele>1745.1</ele>
        <time>2026-07-14T09:45:28Z</time>
      </trkpt>
      <trkpt lat="45.19031" lon="5.96507">
        <ele>1745.2</ele>
        <time>2026-07-14T09:45:29Z</time>
      </trkpt>
      <trkpt lat="45.19032" lon="5.96507">
        <ele>1745.4</ele>
        <time>2026-07-14T09:45:30Z</time>
      </trkpt>
      <trkpt lat="45.19032" lon="5.96508">
        <ele>1745.6</ele>
        <time>2026-07-14T09:45:31Z</time>
      </trkpt>
      <trkpt lat="45.19032" lon="5.96508">
        <ele>1745.7</ele>
        <time>2026-07-14T09:45:32Z</time>
      </trkpt>
      <trkpt lat="45.19032" lon="5.96509">
        <ele>1745.8</ele>
        <time>2026-07-14T09:45:33Z</time>
      </trkpt>
      <trkpt lat="45.19032" lon="5.96509">
        <ele>1745.9</ele>
        <time>2026-07-14T09:45:34Z</time>
      </trkpt>
      <trkpt lat="45.19032" lon="5.9651">
        <ele>1746</ele>
        <time>2026-07-14T09:45:35Z</time>
      </trkpt>
      <trkpt lat="45.19032" lon="5.9651">
        <ele>1746.1</ele>
        <time>2026-07-14T09:45:36Z</time>
      </trkpt>
      <trkpt lat="45.19032" lon="5.9651">
        <ele>1746.2</ele>
        <time>2026-07-14T09:45:37Z</time>
      </trkpt>
      <trkpt lat="45.19033" lon="5.96511">
        <ele>1746.3</ele>
        <time>2026-07-14T09:45:38Z</time>
      </trkpt>
      <trkpt lat="45.19033" lon="5.96511">
        <ele>1746.5</ele>
        <time>2026-07-14T09:45:39Z</time>
      </trkpt>
      <trkpt lat="45.19033" lon="5.96511">
        <ele>1746.7</ele>
        <time>2026-07-14T09:45:40Z</time>
      </trkpt>
      <trkpt lat="45.19034" lon="5.96512">
        <ele>1746.8</ele>
        <time>2026-07-14T09:45:41Z</time>
      </trkpt>
      <trkpt lat="45.19035" lon="5.96512">
        <ele>1747.2</ele>
        <time>2026-07-14T09:45:43Z</time>
      </trkpt>
      <trkpt lat="45.19035" lon="5.96513">
        <ele>1747.3</ele>
        <time>2026-07-14T09:45:44Z</time>
      </trkpt>
      <trkpt lat="45.19035" lon="5.96513">
        <ele>1747.5</ele>
        <time>2026-07-14T09:45:45Z</time>
      </trkpt>
      <trkpt lat="45.19036" lon="5.96513">
        <ele>1747.6</ele>
        <time>2026-07-14T09:45:46Z</time>
      </trkpt>
      <trkpt lat="45.19036" lon="5.96513">
        <ele>1747.8</ele>
        <time>2026-07-14T09:45:47Z</time>
      </trkpt>
      <trkpt lat="45.19037" lon="5.96514">
        <ele>1748.1</ele>
        <time>2026-07-14T09:45:49Z</time>
      </trkpt>
      <trkpt lat="45.19037" lon="5.96514">
        <ele>1748.2</ele>
        <time>2026-07-14T09:45:50Z</time>
      </trkpt>
      <trkpt lat="45.19038" lon="5.96515">
        <ele>1748.4</ele>
        <time>2026-07-14T09:45:51Z</time>
      </trkpt>
      <trkpt lat="45.19038" lon="5.96515">
        <ele>1748.6</ele>
        <time>2026-07-14T09:45:52Z</time>
      </trkpt>
      <trkpt lat="45.19038" lon="5.96516">
        <ele>1748.8</ele>
        <time>2026-07-14T09:45:53Z</time>
      </trkpt>
      <trkpt lat="45.19039" lon="5.96517">
        <ele>1749.2</ele>
        <time>2026-07-14T09:45:55Z</time>
      </trkpt>
      <trkpt lat="45.1904" lon="5.96517">
        <ele>1749.3</ele>
        <time>2026-07-14T09:45:56Z</time>
      </trkpt>
      <trkpt lat="45.1904" lon="5.96518">
        <ele>1749.4</ele>
        <time>2026-07-14T09:45:57Z</time>
      </trkpt>
      <trkpt lat="45.1904" lon="5.96519">
        <ele>1749.7</ele>
        <time>2026-07-14T09:45:59Z</time>
      </trkpt>
      <trkpt lat="45.19041" lon="5.96519">
        <ele>1749.8</ele>
        <time>2026-07-14T09:46:00Z</time>
      </trkpt>
      <trkpt lat="45.19041" lon="5.9652">
        <ele>1750</ele>
        <time>2026-07-14T09:46:01Z</time>
      </trkpt>
      <trkpt lat="45.19041" lon="5.9652">
        <ele>1750.1</ele>
        <time>2026-07-14T09:46:02Z</time>
      </trkpt>
      <trkpt lat="45.19041" lon="5.9652">
        <ele>1750.2</ele>
        <time>2026-07-14T09:46:03Z</time>
      </trkpt>
      <trkpt lat="45.19041" lon="5.96521">
        <ele>1750.5</ele>
        <time>2026-07-14T09:46:05Z</time>
      </trkpt>
      <trkpt lat="45.19041" lon="5.96522">
        <ele>1750.6</ele>
        <time>2026-07-14T09:46:06Z</time>
      </trkpt>
      <trkpt lat="45.19041" lon="5.96523">
        <ele>1750.8</ele>
        <time>2026-07-14T09:46:07Z</time>
      </trkpt>
      <trkpt lat="45.1904" lon="5.96523">
        <ele>1751.1</ele>
        <time>2026-07-14T09:46:08Z</time>
      </trkpt>
      <trkpt lat="45.19039" lon="5.96523">
        <ele>1751.5</ele>
        <time>2026-07-14T09:46:10Z</time>
      </trkpt>
      <trkpt lat="45.19038" lon="5.96524">
        <ele>1751.7</ele>
        <time>2026-07-14T09:46:11Z</time>
      </trkpt>
      <trkpt lat="45.19038" lon="5.96523">
        <ele>1751.9</ele>
        <time>2026-07-14T09:46:12Z</time>
      </trkpt>
      <trkpt lat="45.19037" lon="5.96523">
        <ele>1752.2</ele>
        <time>2026-07-14T09:46:13Z</time>
      </trkpt>
      <trkpt lat="45.19037" lon="5.96523">
        <ele>1752.2</ele>
        <time>2026-07-14T09:46:14Z</time>
      </trkpt>
      <trkpt lat="45.19036" lon="5.96523">
        <ele>1752.4</ele>
        <time>2026-07-14T09:46:15Z</time>
      </trkpt>
      <trkpt lat="45.19036" lon="5.96523">
        <ele>1752.6</ele>
        <time>2026-07-14T09:46:16Z</time>
      </trkpt>
      <trkpt lat="45.19035" lon="5.96523">
        <ele>1752.7</ele>
        <time>2026-07-14T09:46:17Z</time>
      </trkpt>
      <trkpt lat="45.19035" lon="5.96524">
        <ele>1752.9</ele>
        <time>2026-07-14T09:46:18Z</time>
      </trkpt>
      <trkpt lat="45.19034" lon="5.96524">
        <ele>1753</ele>
        <time>2026-07-14T09:46:19Z</time>
      </trkpt>
      <trkpt lat="45.19034" lon="5.96524">
        <ele>1753.2</ele>
        <time>2026-07-14T09:46:20Z</time>
      </trkpt>
      <trkpt lat="45.19033" lon="5.96524">
        <ele>1753.4</ele>
        <time>2026-07-14T09:46:21Z</time>
      </trkpt>
      <trkpt lat="45.19033" lon="5.96525">
        <ele>1753.6</ele>
        <time>2026-07-14T09:46:23Z</time>
      </trkpt>
      <trkpt lat="45.19032" lon="5.96526">
        <ele>1753.9</ele>
        <time>2026-07-14T09:46:24Z</time>
      </trkpt>
      <trkpt lat="45.19032" lon="5.96527">
        <ele>1754.1</ele>
        <time>2026-07-14T09:46:26Z</time>
      </trkpt>
      <trkpt lat="45.19031" lon="5.96527">
        <ele>1754.2</ele>
        <time>2026-07-14T09:46:27Z</time>
      </trkpt>
      <trkpt lat="45.19031" lon="5.96527">
        <ele>1754.3</ele>
        <time>2026-07-14T09:46:28Z</time>
      </trkpt>
      <trkpt lat="45.19031" lon="5.96527">
        <ele>1754.4</ele>
        <time>2026-07-14T09:46:29Z</time>
      </trkpt>
      <trkpt lat="45.19031" lon="5.96527">
        <ele>1754.5</ele>
        <time>2026-07-14T09:46:30Z</time>
      </trkpt>
      <trkpt lat="45.1903" lon="5.96528">
        <ele>1754.7</ele>
        <time>2026-07-14T09:46:32Z</time>
      </trkpt>
      <trkpt lat="45.1903" lon="5.96528">
        <ele>1754.9</ele>
        <time>2026-07-14T09:46:33Z</time>
      </trkpt>
      <trkpt lat="45.19029" lon="5.96528">
        <ele>1755</ele>
        <time>2026-07-14T09:46:34Z</time>
      </trkpt>
      <trkpt lat="45.19029" lon="5.96528">
        <ele>1755.1</ele>
        <time>2026-07-14T09:46:35Z</time>
      </trkpt>
      <trkpt lat="45.19029" lon="5.96528">
        <ele>1755.2</ele>
        <time>2026-07-14T09:46:36Z</time>
      </trkpt>
      <trkpt lat="45.19028" lon="5.96528">
        <ele>1755.5</ele>
        <time>2026-07-14T09:46:38Z</time>
      </trkpt>
      <trkpt lat="45.19027" lon="5.96528">
        <ele>1755.7</ele>
        <time>2026-07-14T09:46:39Z</time>
      </trkpt>
      <trkpt lat="45.19027" lon="5.96529">
        <ele>1755.8</ele>
        <time>2026-07-14T09:46:40Z</time>
      </trkpt>
      <trkpt lat="45.19026" lon="5.96529">
        <ele>1756</ele>
        <time>2026-07-14T09:46:41Z</time>
      </trkpt>
      <trkpt lat="45.19026" lon="5.96529">
        <ele>1756.2</ele>
        <time>2026-07-14T09:46:42Z</time>
      </trkpt>
      <trkpt lat="45.19025" lon="5.96529">
        <ele>1756.4</ele>
        <time>2026-07-14T09:46:43Z</time>
      </trkpt>
      <trkpt lat="45.19025" lon="5.9653">
        <ele>1756.5</ele>
        <time>2026-07-14T09:46:44Z</time>
      </trkpt>
      <trkpt lat="45.19024" lon="5.9653">
        <ele>1756.7</ele>
        <time>2026-07-14T09:46:45Z</time>
      </trkpt>
      <trkpt lat="45.19024" lon="5.9653">
        <ele>1756.8</ele>
        <time>2026-07-14T09:46:46Z</time>
      </trkpt>
      <trkpt lat="45.19023" lon="5.96531">
        <ele>1757.1</ele>
        <time>2026-07-14T09:46:48Z</time>
      </trkpt>
      <trkpt lat="45.19023" lon="5.96531">
        <ele>1757.2</ele>
        <time>2026-07-14T09:46:49Z</time>
      </trkpt>
      <trkpt lat="45.19023" lon="5.96531">
        <ele>1757.4</ele>
        <time>2026-07-14T09:46:50Z</time>
      </trkpt>
      <trkpt lat="45.19022" lon="5.96532">
        <ele>1757.5</ele>
        <time>2026-07-14T09:46:51Z</time>
      </trkpt>
      <trkpt lat="45.19022" lon="5.96532">
        <ele>1757.7</ele>
        <time>2026-07-14T09:46:52Z</time>
      </trkpt>
      <trkpt lat="45.19021" lon="5.96532">
        <ele>1757.8</ele>
        <time>2026-07-14T09:46:53Z</time>
      </trkpt>
      <trkpt lat="45.19021" lon="5.96532">
        <ele>1757.9</ele>
        <time>2026-07-14T09:46:54Z</time>
      </trkpt>
      <trkpt lat="45.19021" lon="5.96532">
        <ele>1758</ele>
        <time>2026-07-14T09:46:55Z</time>
      </trkpt>
      <trkpt lat="45.19021" lon="5.96533">
        <ele>1758.1</ele>
        <time>2026-07-14T09:46:56Z</time>
      </trkpt>
      <trkpt lat="45.1902" lon="5.96533">
        <ele>1758.2</ele>
        <time>2026-07-14T09:46:57Z</time>
      </trkpt>
      <trkpt lat="45.1902" lon="5.96533">
        <ele>1758.3</ele>
        <time>2026-07-14T09:46:58Z</time>
      </trkpt>
      <trkpt lat="45.1902" lon="5.96533">
        <ele>1758.4</ele>
        <time>2026-07-14T09:46:59Z</time>
      </trkpt>
      <trkpt lat="45.1902" lon="5.96534">
        <ele>1758.5</ele>
        <time>2026-07-14T09:47:00Z</time>
      </trkpt>
      <trkpt lat="45.19019" lon="5.96534">
        <ele>1758.6</ele>
        <time>2026-07-14T09:47:01Z</time>
      </trkpt>
      <trkpt lat="45.19019" lon="5.96534">
        <ele>1758.7</ele>
        <time>2026-07-14T09:47:02Z</time>
      </trkpt>
      <trkpt lat="45.19019" lon="5.96534">
        <ele>1758.8</ele>
        <time>2026-07-14T09:47:03Z</time>
      </trkpt>
      <trkpt lat="45.19018" lon="5.96534">
        <ele>1758.9</ele>
        <time>2026-07-14T09:47:04Z</time>
      </trkpt>
      <trkpt lat="45.19018" lon="5.96534">
        <ele>1759</ele>
        <time>2026-07-14T09:47:05Z</time>
      </trkpt>
      <trkpt lat="45.19018" lon="5.96535">
        <ele>1759.2</ele>
        <time>2026-07-14T09:47:06Z</time>
      </trkpt>
      <trkpt lat="45.19017" lon="5.96535">
        <ele>1759.3</ele>
        <time>2026-07-14T09:47:07Z</time>
      </trkpt>
      <trkpt lat="45.19017" lon="5.96535">
        <ele>1759.4</ele>
        <time>2026-07-14T09:47:08Z</time>
      </trkpt>
      <trkpt lat="45.19016" lon="5.96535">
        <ele>1759.6</ele>
        <time>2026-07-14T09:47:09Z</time>
      </trkpt>
      <trkpt lat="45.19016" lon="5.96535">
        <ele>1759.8</ele>
        <time>2026-07-14T09:47:10Z</time>
      </trkpt>
      <trkpt lat="45.19016" lon="5.96534">
        <ele>1759.9</ele>
        <time>2026-07-14T09:47:11Z</time>
      </trkpt>
      <trkpt lat="45.19015" lon="5.96534">
        <ele>1760</ele>
        <time>2026-07-14T09:47:12Z</time>
      </trkpt>
      <trkpt lat="45.19014" lon="5.96534">
        <ele>1760.2</ele>
        <time>2026-07-14T09:47:13Z</time>
      </trkpt>
      <trkpt lat="45.19013" lon="5.96534">
        <ele>1760.6</ele>
        <time>2026-07-14T09:47:15Z</time>
      </trkpt>
      <trkpt lat="45.19013" lon="5.96534">
        <ele>1760.7</ele>
        <time>2026-07-14T09:47:16Z</time>
      </trkpt>
      <trkpt lat="45.19013" lon="5.96534">
        <ele>1760.8</ele>
        <time>2026-07-14T09:47:18Z</time>
      </trkpt>
      <trkpt lat="45.19012" lon="5.96535">
        <ele>1761.1</ele>
        <time>2026-07-14T09:47:19Z</time>
      </trkpt>
      <trkpt lat="45.19011" lon="5.96535">
        <ele>1761.2</ele>
        <time>2026-07-14T09:47:20Z</time>
      </trkpt>
      <trkpt lat="45.19011" lon="5.96535">
        <ele>1761.4</ele>
        <time>2026-07-14T09:47:21Z</time>
      </trkpt>
      <trkpt lat="45.19011" lon="5.96535">
        <ele>1761.5</ele>
        <time>2026-07-14T09:47:22Z</time>
      </trkpt>
      <trkpt lat="45.1901" lon="5.96536">
        <ele>1761.6</ele>
        <time>2026-07-14T09:47:23Z</time>
      </trkpt>
      <trkpt lat="45.1901" lon="5.96536">
        <ele>1761.9</ele>
        <time>2026-07-14T09:47:25Z</time>
      </trkpt>
      <trkpt lat="45.19009" lon="5.96537">
        <ele>1762</ele>
        <time>2026-07-14T09:47:26Z</time>
      </trkpt>
      <trkpt lat="45.19009" lon="5.96537">
        <ele>1762.2</ele>
        <time>2026-07-14T09:47:28Z</time>
      </trkpt>
      <trkpt lat="45.19009" lon="5.96538">
        <ele>1762.4</ele>
        <time>2026-07-14T09:47:29Z</time>
      </trkpt>
      <trkpt lat="45.19008" lon="5.96538">
        <ele>1762.5</ele>
        <time>2026-07-14T09:47:30Z</time>
      </trkpt>
      <trkpt lat="45.19008" lon="5.96538">
        <ele>1762.6</ele>
        <time>2026-07-14T09:47:31Z</time>
      </trkpt>
      <trkpt lat="45.19008" lon="5.96539">
        <ele>1762.8</ele>
        <time>2026-07-14T09:47:33Z</time>
      </trkpt>
      <trkpt lat="45.19007" lon="5.96539">
        <ele>1763</ele>
        <time>2026-07-14T09:47:34Z</time>
      </trkpt>
      <trkpt lat="45.19007" lon="5.96539">
        <ele>1763.1</ele>
        <time>2026-07-14T09:47:35Z</time>
      </trkpt>
      <trkpt lat="45.19007" lon="5.9654">
        <ele>1763.2</ele>
        <time>2026-07-14T09:47:36Z</time>
      </trkpt>
      <trkpt lat="45.19006" lon="5.9654">
        <ele>1763.3</ele>
        <time>2026-07-14T09:47:37Z</time>
      </trkpt>
      <trkpt lat="45.19006" lon="5.9654">
        <ele>1763.4</ele>
        <time>2026-07-14T09:47:38Z</time>
      </trkpt>
      <trkpt lat="45.19006" lon="5.9654">
        <ele>1763.5</ele>
        <time>2026-07-14T09:47:39Z</time>
      </trkpt>
      <trkpt lat="45.19005" lon="5.9654">
        <ele>1763.6</ele>
        <time>2026-07-14T09:47:40Z</time>
      </trkpt>
      <trkpt lat="45.19005" lon="5.96541">
        <ele>1763.8</ele>
        <time>2026-07-14T09:47:41Z</time>
      </trkpt>
      <trkpt lat="45.19004" lon="5.96541">
        <ele>1764</ele>
        <time>2026-07-14T09:47:42Z</time>
      </trkpt>
      <trkpt lat="45.19004" lon="5.96541">
        <ele>1764.1</ele>
        <time>2026-07-14T09:47:43Z</time>
      </trkpt>
      <trkpt lat="45.19003" lon="5.96541">
        <ele>1764.3</ele>
        <time>2026-07-14T09:47:44Z</time>
      </trkpt>
      <trkpt lat="45.19003" lon="5.96541">
        <ele>1764.4</ele>
        <time>2026-07-14T09:47:45Z</time>
      </trkpt>
      <trkpt lat="45.19003" lon="5.96542">
        <ele>1764.5</ele>
        <time>2026-07-14T09:47:46Z</time>
      </trkpt>
      <trkpt lat="45.19002" lon="5.96542">
        <ele>1764.6</ele>
        <time>2026-07-14T09:47:47Z</time>
      </trkpt>
      <trkpt lat="45.19002" lon="5.96542">
        <ele>1764.7</ele>
        <time>2026-07-14T09:47:48Z</time>
      </trkpt>
      <trkpt lat="45.19002" lon="5.96542">
        <ele>1764.8</ele>
        <time>2026-07-14T09:47:49Z</time>
      </trkpt>
      <trkpt lat="45.19001" lon="5.96542">
        <ele>1764.9</ele>
        <time>2026-07-14T09:47:50Z</time>
      </trkpt>
      <trkpt lat="45.19001" lon="5.96542">
        <ele>1765.1</ele>
        <time>2026-07-14T09:47:51Z</time>
      </trkpt>
      <trkpt lat="45.19" lon="5.96542">
        <ele>1765.3</ele>
        <time>2026-07-14T09:47:52Z</time>
      </trkpt>
      <trkpt lat="45.19" lon="5.96542">
        <ele>1765.5</ele>
        <time>2026-07-14T09:47:53Z</time>
      </trkpt>
      <trkpt lat="45.18999" lon="5.96542">
        <ele>1765.6</ele>
        <time>2026-07-14T09:47:54Z</time>
      </trkpt>
      <trkpt lat="45.18999" lon="5.96542">
        <ele>1765.8</ele>
        <time>2026-07-14T09:47:55Z</time>
      </trkpt>
      <trkpt lat="45.18998" lon="5.96543">
        <ele>1765.9</ele>
        <time>2026-07-14T09:47:56Z</time>
      </trkpt>
      <trkpt lat="45.18998" lon="5.96543">
        <ele>1766</ele>
        <time>2026-07-14T09:47:57Z</time>
      </trkpt>
      <trkpt lat="45.18998" lon="5.96544">
        <ele>1766.3</ele>
        <time>2026-07-14T09:47:59Z</time>
      </trkpt>
      <trkpt lat="45.18997" lon="5.96544">
        <ele>1766.4</ele>
        <time>2026-07-14T09:48:00Z</time>
      </trkpt>
      <trkpt lat="45.18997" lon="5.96545">
        <ele>1766.7</ele>
        <time>2026-07-14T09:48:02Z</time>
      </trkpt>
      <trkpt lat="45.18996" lon="5.96545">
        <ele>1767</ele>
        <time>2026-07-14T09:48:04Z</time>
      </trkpt>
      <trkpt lat="45.18995" lon="5.96545">
        <ele>1767.2</ele>
        <time>2026-07-14T09:48:06Z</time>
      </trkpt>
      <trkpt lat="45.18994" lon="5.96545">
        <ele>1767.6</ele>
        <time>2026-07-14T09:48:07Z</time>
      </trkpt>
      <trkpt lat="45.18993" lon="5.96545">
        <ele>1767.9</ele>
        <time>2026-07-14T09:48:09Z</time>
      </trkpt>
      <trkpt lat="45.18992" lon="5.96546">
        <ele>1768.1</ele>
        <time>2026-07-14T09:48:10Z</time>
      </trkpt>
      <trkpt lat="45.18992" lon="5.96546">
        <ele>1768.2</ele>
        <time>2026-07-14T09:48:11Z</time>
      </trkpt>
      <trkpt lat="45.18992" lon="5.96547">
        <ele>1768.4</ele>
        <time>2026-07-14T09:48:12Z</time>
      </trkpt>
      <trkpt lat="45.18992" lon="5.96548">
        <ele>1768.5</ele>
        <time>2026-07-14T09:48:13Z</time>
      </trkpt>
      <trkpt lat="45.18992" lon="5.96548">
        <ele>1768.6</ele>
        <time>2026-07-14T09:48:14Z</time>
      </trkpt>
      <trkpt lat="45.18991" lon="5.96548">
        <ele>1768.8</ele>
        <time>2026-07-14T09:48:15Z</time>
      </trkpt>
      <trkpt lat="45.1899" lon="5.96548">
        <ele>1769.1</ele>
        <time>2026-07-14T09:48:17Z</time>
      </trkpt>
      <trkpt lat="45.1899" lon="5.96548">
        <ele>1769.2</ele>
        <time>2026-07-14T09:48:18Z</time>
      </trkpt>
      <trkpt lat="45.18991" lon="5.96547">
        <ele>1769.3</ele>
        <time>2026-07-14T09:48:20Z</time>
      </trkpt>
      <trkpt lat="45.18991" lon="5.96547">
        <ele>1769.3</ele>
        <time>2026-07-14T09:48:22Z</time>
      </trkpt>
      <trkpt lat="45.18991" lon="5.96547">
        <ele>1769.3</ele>
        <time>2026-07-14T09:48:23Z</time>
      </trkpt>
      <trkpt lat="45.18991" lon="5.96547">
        <ele>1769.4</ele>
        <time>2026-07-14T09:48:24Z</time>
      </trkpt>
      <trkpt lat="45.18991" lon="5.96547">
        <ele>1769.4</ele>
        <time>2026-07-14T09:48:25Z</time>
      </trkpt>
      <trkpt lat="45.18991" lon="5.96548">
        <ele>1769.4</ele>
        <time>2026-07-14T09:48:26Z</time>
      </trkpt>
      <trkpt lat="45.18991" lon="5.96548">
        <ele>1769.4</ele>
        <time>2026-07-14T09:48:27Z</time>
      </trkpt>
      <trkpt lat="45.18991" lon="5.96548">
        <ele>1769.4</ele>
        <time>2026-07-14T09:48:28Z</time>
      </trkpt>
      <trkpt lat="45.18991" lon="5.96548">
        <ele>1769.4</ele>
        <time>2026-07-14T09:48:29Z</time>
      </trkpt>
      <trkpt lat="45.18991" lon="5.96548">
        <ele>1769.4</ele>
        <time>2026-07-14T09:48:30Z</time>
      </trkpt>
      <trkpt lat="45.18991" lon="5.96548">
        <ele>1769.5</ele>
        <time>2026-07-14T09:48:31Z</time>
      </trkpt>
      <trkpt lat="45.18991" lon="5.96548">
        <ele>1769.5</ele>
        <time>2026-07-14T09:48:32Z</time>
      </trkpt>
      <trkpt lat="45.18991" lon="5.96547">
        <ele>1769.6</ele>
        <time>2026-07-14T09:48:33Z</time>
      </trkpt>
      <trkpt lat="45.18991" lon="5.96547">
        <ele>1769.6</ele>
        <time>2026-07-14T09:48:34Z</time>
      </trkpt>
      <trkpt lat="45.18991" lon="5.96547">
        <ele>1769.6</ele>
        <time>2026-07-14T09:48:35Z</time>
      </trkpt>
      <trkpt lat="45.18991" lon="5.96547">
        <ele>1769.7</ele>
        <time>2026-07-14T09:48:36Z</time>
      </trkpt>
      <trkpt lat="45.18991" lon="5.96547">
        <ele>1769.7</ele>
        <time>2026-07-14T09:48:37Z</time>
      </trkpt>
      <trkpt lat="45.18991" lon="5.96547">
        <ele>1769.7</ele>
        <time>2026-07-14T09:48:38Z</time>
      </trkpt>
      <trkpt lat="45.18991" lon="5.96547">
        <ele>1769.7</ele>
        <time>2026-07-14T09:48:39Z</time>
      </trkpt>
      <trkpt lat="45.18991" lon="5.96547">
        <ele>1769.7</ele>
        <time>2026-07-14T09:48:40Z</time>
      </trkpt>
      <trkpt lat="45.18991" lon="5.96547">
        <ele>1769.7</ele>
        <time>2026-07-14T09:48:41Z</time>
      </trkpt>
      <trkpt lat="45.18991" lon="5.96547">
        <ele>1769.7</ele>
        <time>2026-07-14T09:48:42Z</time>
      </trkpt>
      <trkpt lat="45.18991" lon="5.96547">
        <ele>1769.8</ele>
        <time>2026-07-14T09:48:43Z</time>
      </trkpt>
      <trkpt lat="45.18991" lon="5.96547">
        <ele>1769.8</ele>
        <time>2026-07-14T09:48:44Z</time>
      </trkpt>
      <trkpt lat="45.18991" lon="5.96547">
        <ele>1769.9</ele>
        <time>2026-07-14T09:48:45Z</time>
      </trkpt>
      <trkpt lat="45.18991" lon="5.96547">
        <ele>1769.9</ele>
        <time>2026-07-14T09:48:46Z</time>
      </trkpt>
      <trkpt lat="45.18991" lon="5.96547">
        <ele>1769.9</ele>
        <time>2026-07-14T09:48:47Z</time>
      </trkpt>
      <trkpt lat="45.18991" lon="5.96548">
        <ele>1770</ele>
        <time>2026-07-14T09:48:48Z</time>
      </trkpt>
      <trkpt lat="45.18991" lon="5.96548">
        <ele>1770</ele>
        <time>2026-07-14T09:48:49Z</time>
      </trkpt>
      <trkpt lat="45.18991" lon="5.96548">
        <ele>1770</ele>
        <time>2026-07-14T09:48:50Z</time>
      </trkpt>
      <trkpt lat="45.18991" lon="5.96548">
        <ele>1770</ele>
        <time>2026-07-14T09:48:51Z</time>
      </trkpt>
      <trkpt lat="45.18991" lon="5.96548">
        <ele>1770</ele>
        <time>2026-07-14T09:48:52Z</time>
      </trkpt>
      <trkpt lat="45.18991" lon="5.96548">
        <ele>1770</ele>
        <time>2026-07-14T09:48:53Z</time>
      </trkpt>
      <trkpt lat="45.18991" lon="5.96548">
        <ele>1770</ele>
        <time>2026-07-14T09:48:54Z</time>
      </trkpt>
      <trkpt lat="45.18991" lon="5.96548">
        <ele>1770</ele>
        <time>2026-07-14T09:48:55Z</time>
      </trkpt>
      <trkpt lat="45.18991" lon="5.96548">
        <ele>1770</ele>
        <time>2026-07-14T09:48:56Z</time>
      </trkpt>
      <trkpt lat="45.18991" lon="5.96548">
        <ele>1770.1</ele>
        <time>2026-07-14T09:48:57Z</time>
      </trkpt>
      <trkpt lat="45.18991" lon="5.96548">
        <ele>1770.1</ele>
        <time>2026-07-14T09:48:58Z</time>
      </trkpt>
      <trkpt lat="45.18991" lon="5.96548">
        <ele>1770.1</ele>
        <time>2026-07-14T09:48:59Z</time>
      </trkpt>
      <trkpt lat="45.18991" lon="5.96548">
        <ele>1770.1</ele>
        <time>2026-07-14T09:49:00Z</time>
      </trkpt>
      <trkpt lat="45.18992" lon="5.96548">
        <ele>1770.1</ele>
        <time>2026-07-14T09:49:01Z</time>
      </trkpt>
      <trkpt lat="45.18992" lon="5.96548">
        <ele>1770.1</ele>
        <time>2026-07-14T09:49:02Z</time>
      </trkpt>
      <trkpt lat="45.18992" lon="5.96548">
        <ele>1770.1</ele>
        <time>2026-07-14T09:49:03Z</time>
      </trkpt>
      <trkpt lat="45.18992" lon="5.96548">
        <ele>1770.1</ele>
        <time>2026-07-14T09:49:04Z</time>
      </trkpt>
      <trkpt lat="45.18992" lon="5.96548">
        <ele>1770.1</ele>
        <time>2026-07-14T09:49:05Z</time>
      </trkpt>
      <trkpt lat="45.18992" lon="5.96548">
        <ele>1770.1</ele>
        <time>2026-07-14T09:49:06Z</time>
      </trkpt>
      <trkpt lat="45.18992" lon="5.96548">
        <ele>1770.2</ele>
        <time>2026-07-14T09:49:07Z</time>
      </trkpt>
      <trkpt lat="45.18992" lon="5.96548">
        <ele>1770.2</ele>
        <time>2026-07-14T09:49:08Z</time>
      </trkpt>
      <trkpt lat="45.18992" lon="5.96548">
        <ele>1770.2</ele>
        <time>2026-07-14T09:49:09Z</time>
      </trkpt>
      <trkpt lat="45.18992" lon="5.96548">
        <ele>1770.2</ele>
        <time>2026-07-14T09:49:10Z</time>
      </trkpt>
      <trkpt lat="45.18992" lon="5.96548">
        <ele>1770.2</ele>
        <time>2026-07-14T09:49:11Z</time>
      </trkpt>
      <trkpt lat="45.18992" lon="5.96548">
        <ele>1770.2</ele>
        <time>2026-07-14T09:49:12Z</time>
      </trkpt>
      <trkpt lat="45.18992" lon="5.96548">
        <ele>1770.2</ele>
        <time>2026-07-14T09:49:13Z</time>
      </trkpt>
      <trkpt lat="45.18992" lon="5.96548">
        <ele>1770.2</ele>
        <time>2026-07-14T09:49:14Z</time>
      </trkpt>
      <trkpt lat="45.18992" lon="5.96548">
        <ele>1770.2</ele>
        <time>2026-07-14T09:49:15Z</time>
      </trkpt>
      <trkpt lat="45.18992" lon="5.96548">
        <ele>1770.2</ele>
        <time>2026-07-14T09:49:16Z</time>
      </trkpt>
      <trkpt lat="45.18992" lon="5.96548">
        <ele>1770.2</ele>
        <time>2026-07-14T09:49:17Z</time>
      </trkpt>
      <trkpt lat="45.18992" lon="5.96548">
        <ele>1770.2</ele>
        <time>2026-07-14T09:49:18Z</time>
      </trkpt>
      <trkpt lat="45.18992" lon="5.96548">
        <ele>1770.2</ele>
        <time>2026-07-14T09:49:19Z</time>
      </trkpt>
      <trkpt lat="45.18992" lon="5.96548">
        <ele>1770.2</ele>
        <time>2026-07-14T09:49:20Z</time>
      </trkpt>
      <trkpt lat="45.18992" lon="5.96548">
        <ele>1770.2</ele>
        <time>2026-07-14T09:49:21Z</time>
      </trkpt>
      <trkpt lat="45.18992" lon="5.96548">
        <ele>1770.2</ele>
        <time>2026-07-14T09:49:22Z</time>
      </trkpt>
      <trkpt lat="45.18992" lon="5.96548">
        <ele>1770.2</ele>
        <time>2026-07-14T09:49:23Z</time>
      </trkpt>
      <trkpt lat="45.18992" lon="5.96548">
        <ele>1770.2</ele>
        <time>2026-07-14T09:49:24Z</time>
      </trkpt>
      <trkpt lat="45.18992" lon="5.96548">
        <ele>1770.2</ele>
        <time>2026-07-14T09:49:25Z</time>
      </trkpt>
      <trkpt lat="45.18992" lon="5.96548">
        <ele>1770.2</ele>
        <time>2026-07-14T09:49:26Z</time>
      </trkpt>
      <trkpt lat="45.18992" lon="5.96548">
        <ele>1770.2</ele>
        <time>2026-07-14T09:49:27Z</time>
      </trkpt>
      <trkpt lat="45.18992" lon="5.96548">
        <ele>1770.2</ele>
        <time>2026-07-14T09:49:28Z</time>
      </trkpt>
      <trkpt lat="45.18992" lon="5.96548">
        <ele>1770.2</ele>
        <time>2026-07-14T09:49:30Z</time>
      </trkpt>
      <trkpt lat="45.18992" lon="5.96548">
        <ele>1770.3</ele>
        <time>2026-07-14T09:49:31Z</time>
      </trkpt>
      <trkpt lat="45.18992" lon="5.96548">
        <ele>1770.3</ele>
        <time>2026-07-14T09:49:32Z</time>
      </trkpt>
      <trkpt lat="45.18992" lon="5.96548">
        <ele>1770.3</ele>
        <time>2026-07-14T09:49:33Z</time>
      </trkpt>
      <trkpt lat="45.18992" lon="5.96548">
        <ele>1770.3</ele>
        <time>2026-07-14T09:49:34Z</time>
      </trkpt>
      <trkpt lat="45.18992" lon="5.96548">
        <ele>1770.3</ele>
        <time>2026-07-14T09:49:35Z</time>
      </trkpt>
      <trkpt lat="45.18992" lon="5.96548">
        <ele>1770.3</ele>
        <time>2026-07-14T09:49:37Z</time>
      </trkpt>
      <trkpt lat="45.18992" lon="5.96548">
        <ele>1770.3</ele>
        <time>2026-07-14T09:49:38Z</time>
      </trkpt>
      <trkpt lat="45.18992" lon="5.96548">
        <ele>1770.4</ele>
        <time>2026-07-14T09:49:39Z</time>
      </trkpt>
      <trkpt lat="45.18992" lon="5.96548">
        <ele>1770.4</ele>
        <time>2026-07-14T09:49:41Z</time>
      </trkpt>
      <trkpt lat="45.18991" lon="5.96548">
        <ele>1770.4</ele>
        <time>2026-07-14T09:49:43Z</time>
      </trkpt>
      <trkpt lat="45.18991" lon="5.96548">
        <ele>1770.4</ele>
        <time>2026-07-14T09:49:45Z</time>
      </trkpt>
      <trkpt lat="45.18991" lon="5.96548">
        <ele>1770.4</ele>
        <time>2026-07-14T09:49:46Z</time>
      </trkpt>
      <trkpt lat="45.18991" lon="5.96548">
        <ele>1770.5</ele>
        <time>2026-07-14T09:49:48Z</time>
      </trkpt>
      <trkpt lat="45.18991" lon="5.96548">
        <ele>1770.5</ele>
        <time>2026-07-14T09:49:50Z</time>
      </trkpt>
      <trkpt lat="45.18991" lon="5.96548">
        <ele>1770.5</ele>
        <time>2026-07-14T09:49:51Z</time>
      </trkpt>
      <trkpt lat="45.18991" lon="5.96548">
        <ele>1770.5</ele>
        <time>2026-07-14T09:49:52Z</time>
      </trkpt>
      <trkpt lat="45.18991" lon="5.96548">
        <ele>1770.5</ele>
        <time>2026-07-14T09:49:53Z</time>
      </trkpt>
      <trkpt lat="45.18991" lon="5.96548">
        <ele>1770.5</ele>
        <time>2026-07-14T09:49:54Z</time>
      </trkpt>
      <trkpt lat="45.18991" lon="5.96548">
        <ele>1770.5</ele>
        <time>2026-07-14T09:49:56Z</time>
      </trkpt>
      <trkpt lat="45.18991" lon="5.96548">
        <ele>1770.6</ele>
        <time>2026-07-14T09:49:57Z</time>
      </trkpt>
      <trkpt lat="45.18991" lon="5.96548">
        <ele>1770.6</ele>
        <time>2026-07-14T09:49:58Z</time>
      </trkpt>
      <trkpt lat="45.18991" lon="5.96548">
        <ele>1770.6</ele>
        <time>2026-07-14T09:49:59Z</time>
      </trkpt>
      <trkpt lat="45.18991" lon="5.96548">
        <ele>1770.6</ele>
        <time>2026-07-14T09:50:00Z</time>
      </trkpt>
      <trkpt lat="45.18992" lon="5.96548">
        <ele>1770.6</ele>
        <time>2026-07-14T09:50:01Z</time>
      </trkpt>
      <trkpt lat="45.18992" lon="5.96548">
        <ele>1770.6</ele>
        <time>2026-07-14T09:50:03Z</time>
      </trkpt>
      <trkpt lat="45.18992" lon="5.96548">
        <ele>1770.6</ele>
        <time>2026-07-14T09:50:04Z</time>
      </trkpt>
      <trkpt lat="45.18992" lon="5.96548">
        <ele>1770.6</ele>
        <time>2026-07-14T09:50:05Z</time>
      </trkpt>
      <trkpt lat="45.18992" lon="5.96548">
        <ele>1770.6</ele>
        <time>2026-07-14T09:50:06Z</time>
      </trkpt>
      <trkpt lat="45.18992" lon="5.96548">
        <ele>1770.6</ele>
        <time>2026-07-14T09:50:07Z</time>
      </trkpt>
      <trkpt lat="45.18992" lon="5.96548">
        <ele>1770.6</ele>
        <time>2026-07-14T09:50:08Z</time>
      </trkpt>
      <trkpt lat="45.18992" lon="5.96548">
        <ele>1770.6</ele>
        <time>2026-07-14T09:50:10Z</time>
      </trkpt>
      <trkpt lat="45.18992" lon="5.96548">
        <ele>1770.6</ele>
        <time>2026-07-14T09:50:11Z</time>
      </trkpt>
      <trkpt lat="45.18992" lon="5.96548">
        <ele>1770.6</ele>
        <time>2026-07-14T09:50:12Z</time>
      </trkpt>
      <trkpt lat="45.18992" lon="5.96548">
        <ele>1770.6</ele>
        <time>2026-07-14T09:50:13Z</time>
      </trkpt>
      <trkpt lat="45.18992" lon="5.96548">
        <ele>1770.6</ele>
        <time>2026-07-14T09:50:14Z</time>
      </trkpt>
      <trkpt lat="45.18992" lon="5.96548">
        <ele>1770.6</ele>
        <time>2026-07-14T09:50:15Z</time>
      </trkpt>
      <trkpt lat="45.18992" lon="5.96548">
        <ele>1770.6</ele>
        <time>2026-07-14T09:50:17Z</time>
      </trkpt>
      <trkpt lat="45.18992" lon="5.96548">
        <ele>1770.6</ele>
        <time>2026-07-14T09:50:18Z</time>
      </trkpt>
      <trkpt lat="45.18992" lon="5.96548">
        <ele>1770.6</ele>
        <time>2026-07-14T09:50:20Z</time>
      </trkpt>
      <trkpt lat="45.18992" lon="5.96548">
        <ele>1770.7</ele>
        <time>2026-07-14T09:50:21Z</time>
      </trkpt>
      <trkpt lat="45.18992" lon="5.96548">
        <ele>1770.7</ele>
        <time>2026-07-14T09:50:22Z</time>
      </trkpt>
      <trkpt lat="45.18992" lon="5.96548">
        <ele>1770.7</ele>
        <time>2026-07-14T09:50:23Z</time>
      </trkpt>
      <trkpt lat="45.18992" lon="5.96548">
        <ele>1770.7</ele>
        <time>2026-07-14T09:50:24Z</time>
      </trkpt>
      <trkpt lat="45.18992" lon="5.96548">
        <ele>1770.7</ele>
        <time>2026-07-14T09:50:25Z</time>
      </trkpt>
      <trkpt lat="45.18992" lon="5.96548">
        <ele>1770.7</ele>
        <time>2026-07-14T09:50:26Z</time>
      </trkpt>
      <trkpt lat="45.18992" lon="5.96548">
        <ele>1770.7</ele>
        <time>2026-07-14T09:50:27Z</time>
      </trkpt>
      <trkpt lat="45.18992" lon="5.96548">
        <ele>1770.7</ele>
        <time>2026-07-14T09:50:28Z</time>
      </trkpt>
      <trkpt lat="45.18992" lon="5.96548">
        <ele>1770.7</ele>
        <time>2026-07-14T09:50:29Z</time>
      </trkpt>
      <trkpt lat="45.18992" lon="5.96548">
        <ele>1770.7</ele>
        <time>2026-07-14T09:50:30Z</time>
      </trkpt>
      <trkpt lat="45.18992" lon="5.96548">
        <ele>1770.8</ele>
        <time>2026-07-14T09:50:31Z</time>
      </trkpt>
      <trkpt lat="45.18992" lon="5.96548">
        <ele>1770.8</ele>
        <time>2026-07-14T09:50:32Z</time>
      </trkpt>
      <trkpt lat="45.18992" lon="5.96548">
        <ele>1770.8</ele>
        <time>2026-07-14T09:50:33Z</time>
      </trkpt>
      <trkpt lat="45.18992" lon="5.96548">
        <ele>1770.8</ele>
        <time>2026-07-14T09:50:34Z</time>
      </trkpt>
      <trkpt lat="45.18992" lon="5.96548">
        <ele>1770.8</ele>
        <time>2026-07-14T09:50:35Z</time>
      </trkpt>
      <trkpt lat="45.18992" lon="5.96548">
        <ele>1770.8</ele>
        <time>2026-07-14T09:50:36Z</time>
      </trkpt>
      <trkpt lat="45.18992" lon="5.96548">
        <ele>1770.8</ele>
        <time>2026-07-14T09:50:37Z</time>
      </trkpt>
      <trkpt lat="45.18992" lon="5.96548">
        <ele>1770.8</ele>
        <time>2026-07-14T09:50:38Z</time>
      </trkpt>
      <trkpt lat="45.18992" lon="5.96548">
        <ele>1770.8</ele>
        <time>2026-07-14T09:50:39Z</time>
      </trkpt>
      <trkpt lat="45.18992" lon="5.96548">
        <ele>1770.8</ele>
        <time>2026-07-14T09:50:40Z</time>
      </trkpt>
      <trkpt lat="45.18992" lon="5.96548">
        <ele>1770.8</ele>
        <time>2026-07-14T09:50:41Z</time>
      </trkpt>
      <trkpt lat="45.18992" lon="5.96548">
        <ele>1770.9</ele>
        <time>2026-07-14T09:50:42Z</time>
      </trkpt>
      <trkpt lat="45.18992" lon="5.96547">
        <ele>1770.9</ele>
        <time>2026-07-14T09:50:43Z</time>
      </trkpt>
      <trkpt lat="45.18992" lon="5.96547">
        <ele>1771</ele>
        <time>2026-07-14T09:50:44Z</time>
      </trkpt>
      <trkpt lat="45.18992" lon="5.96547">
        <ele>1771</ele>
        <time>2026-07-14T09:50:45Z</time>
      </trkpt>
      <trkpt lat="45.18992" lon="5.96547">
        <ele>1771</ele>
        <time>2026-07-14T09:50:46Z</time>
      </trkpt>
      <trkpt lat="45.18992" lon="5.96547">
        <ele>1771</ele>
        <time>2026-07-14T09:50:47Z</time>
      </trkpt>
      <trkpt lat="45.18992" lon="5.96547">
        <ele>1771</ele>
        <time>2026-07-14T09:50:48Z</time>
      </trkpt>
      <trkpt lat="45.18992" lon="5.96547">
        <ele>1771</ele>
        <time>2026-07-14T09:50:49Z</time>
      </trkpt>
      <trkpt lat="45.18992" lon="5.96547">
        <ele>1771.1</ele>
        <time>2026-07-14T09:50:50Z</time>
      </trkpt>
      <trkpt lat="45.18992" lon="5.96547">
        <ele>1771.1</ele>
        <time>2026-07-14T09:50:51Z</time>
      </trkpt>
      <trkpt lat="45.18992" lon="5.96547">
        <ele>1771.1</ele>
        <time>2026-07-14T09:50:52Z</time>
      </trkpt>
      <trkpt lat="45.18991" lon="5.96547">
        <ele>1771.2</ele>
        <time>2026-07-14T09:50:53Z</time>
      </trkpt>
      <trkpt lat="45.18991" lon="5.96547">
        <ele>1771.2</ele>
        <time>2026-07-14T09:50:54Z</time>
      </trkpt>
      <trkpt lat="45.18991" lon="5.96547">
        <ele>1771.4</ele>
        <time>2026-07-14T09:50:56Z</time>
      </trkpt>
      <trkpt lat="45.1899" lon="5.96547">
        <ele>1771.5</ele>
        <time>2026-07-14T09:50:57Z</time>
      </trkpt>
      <trkpt lat="45.1899" lon="5.96547">
        <ele>1771.7</ele>
        <time>2026-07-14T09:50:58Z</time>
      </trkpt>
      <trkpt lat="45.1899" lon="5.96547">
        <ele>1771.8</ele>
        <time>2026-07-14T09:50:59Z</time>
      </trkpt>
      <trkpt lat="45.18989" lon="5.96548">
        <ele>1772</ele>
        <time>2026-07-14T09:51:00Z</time>
      </trkpt>
      <trkpt lat="45.18989" lon="5.96548">
        <ele>1772</ele>
        <time>2026-07-14T09:51:01Z</time>
      </trkpt>
      <trkpt lat="45.18988" lon="5.96548">
        <ele>1772.2</ele>
        <time>2026-07-14T09:51:02Z</time>
      </trkpt>
      <trkpt lat="45.18988" lon="5.96548">
        <ele>1772.5</ele>
        <time>2026-07-14T09:51:03Z</time>
      </trkpt>
      <trkpt lat="45.18987" lon="5.96547">
        <ele>1772.7</ele>
        <time>2026-07-14T09:51:04Z</time>
      </trkpt>
      <trkpt lat="45.18986" lon="5.96547">
        <ele>1772.9</ele>
        <time>2026-07-14T09:51:05Z</time>
      </trkpt>
      <trkpt lat="45.18986" lon="5.96547">
        <ele>1773.1</ele>
        <time>2026-07-14T09:51:06Z</time>
      </trkpt>
      <trkpt lat="45.18985" lon="5.96547">
        <ele>1773.3</ele>
        <time>2026-07-14T09:51:07Z</time>
      </trkpt>
      <trkpt lat="45.18984" lon="5.96548">
        <ele>1773.6</ele>
        <time>2026-07-14T09:51:09Z</time>
      </trkpt>
      <trkpt lat="45.18983" lon="5.96548">
        <ele>1773.8</ele>
        <time>2026-07-14T09:51:10Z</time>
      </trkpt>
      <trkpt lat="45.18982" lon="5.96548">
        <ele>1774</ele>
        <time>2026-07-14T09:51:12Z</time>
      </trkpt>
      <trkpt lat="45.18982" lon="5.96548">
        <ele>1774.2</ele>
        <time>2026-07-14T09:51:13Z</time>
      </trkpt>
      <trkpt lat="45.18981" lon="5.96548">
        <ele>1774.3</ele>
        <time>2026-07-14T09:51:15Z</time>
      </trkpt>
      <trkpt lat="45.18981" lon="5.96548">
        <ele>1774.5</ele>
        <time>2026-07-14T09:51:16Z</time>
      </trkpt>
      <trkpt lat="45.18981" lon="5.96548">
        <ele>1774.5</ele>
        <time>2026-07-14T09:51:17Z</time>
      </trkpt>
      <trkpt lat="45.18981" lon="5.96548">
        <ele>1774.6</ele>
        <time>2026-07-14T09:51:18Z</time>
      </trkpt>
      <trkpt lat="45.18981" lon="5.96548">
        <ele>1774.6</ele>
        <time>2026-07-14T09:51:19Z</time>
      </trkpt>
      <trkpt lat="45.18981" lon="5.96548">
        <ele>1774.7</ele>
        <time>2026-07-14T09:51:20Z</time>
      </trkpt>
      <trkpt lat="45.1898" lon="5.96548">
        <ele>1774.8</ele>
        <time>2026-07-14T09:51:21Z</time>
      </trkpt>
      <trkpt lat="45.18979" lon="5.96549">
        <ele>1775</ele>
        <time>2026-07-14T09:51:23Z</time>
      </trkpt>
      <trkpt lat="45.18979" lon="5.96549">
        <ele>1775.3</ele>
        <time>2026-07-14T09:51:25Z</time>
      </trkpt>
      <trkpt lat="45.18978" lon="5.96549">
        <ele>1775.5</ele>
        <time>2026-07-14T09:51:26Z</time>
      </trkpt>
      <trkpt lat="45.18977" lon="5.96549">
        <ele>1775.8</ele>
        <time>2026-07-14T09:51:27Z</time>
      </trkpt>
      <trkpt lat="45.18976" lon="5.96549">
        <ele>1775.9</ele>
        <time>2026-07-14T09:51:28Z</time>
      </trkpt>
      <trkpt lat="45.18976" lon="5.96549">
        <ele>1776.1</ele>
        <time>2026-07-14T09:51:29Z</time>
      </trkpt>
      <trkpt lat="45.18975" lon="5.96549">
        <ele>1776.3</ele>
        <time>2026-07-14T09:51:30Z</time>
      </trkpt>
      <trkpt lat="45.18975" lon="5.96549">
        <ele>1776.4</ele>
        <time>2026-07-14T09:51:31Z</time>
      </trkpt>
      <trkpt lat="45.18974" lon="5.96549">
        <ele>1776.6</ele>
        <time>2026-07-14T09:51:32Z</time>
      </trkpt>
      <trkpt lat="45.18974" lon="5.96549">
        <ele>1776.6</ele>
        <time>2026-07-14T09:51:33Z</time>
      </trkpt>
      <trkpt lat="45.18975" lon="5.96548">
        <ele>1776.7</ele>
        <time>2026-07-14T09:51:34Z</time>
      </trkpt>
      <trkpt lat="45.18975" lon="5.96548">
        <ele>1776.7</ele>
        <time>2026-07-14T09:51:36Z</time>
      </trkpt>
      <trkpt lat="45.18975" lon="5.96549">
        <ele>1776.7</ele>
        <time>2026-07-14T09:51:37Z</time>
      </trkpt>
      <trkpt lat="45.18975" lon="5.96549">
        <ele>1776.7</ele>
        <time>2026-07-14T09:51:38Z</time>
      </trkpt>
      <trkpt lat="45.18975" lon="5.96549">
        <ele>1776.7</ele>
        <time>2026-07-14T09:51:39Z</time>
      </trkpt>
      <trkpt lat="45.18974" lon="5.96548">
        <ele>1776.8</ele>
        <time>2026-07-14T09:51:40Z</time>
      </trkpt>
      <trkpt lat="45.18974" lon="5.96548">
        <ele>1776.9</ele>
        <time>2026-07-14T09:51:41Z</time>
      </trkpt>
      <trkpt lat="45.18974" lon="5.96548">
        <ele>1777</ele>
        <time>2026-07-14T09:51:42Z</time>
      </trkpt>
      <trkpt lat="45.18973" lon="5.96548">
        <ele>1777.3</ele>
        <time>2026-07-14T09:51:43Z</time>
      </trkpt>
      <trkpt lat="45.18972" lon="5.96548">
        <ele>1777.4</ele>
        <time>2026-07-14T09:51:44Z</time>
      </trkpt>
      <trkpt lat="45.18972" lon="5.96548">
        <ele>1777.6</ele>
        <time>2026-07-14T09:51:45Z</time>
      </trkpt>
      <trkpt lat="45.18971" lon="5.96548">
        <ele>1777.7</ele>
        <time>2026-07-14T09:51:47Z</time>
      </trkpt>
      <trkpt lat="45.18971" lon="5.96549">
        <ele>1778</ele>
        <time>2026-07-14T09:51:48Z</time>
      </trkpt>
      <trkpt lat="45.1897" lon="5.96549">
        <ele>1778.1</ele>
        <time>2026-07-14T09:51:49Z</time>
      </trkpt>
      <trkpt lat="45.1897" lon="5.96549">
        <ele>1778.3</ele>
        <time>2026-07-14T09:51:50Z</time>
      </trkpt>
      <trkpt lat="45.18969" lon="5.96549">
        <ele>1778.4</ele>
        <time>2026-07-14T09:51:51Z</time>
      </trkpt>
      <trkpt lat="45.18969" lon="5.96549">
        <ele>1778.5</ele>
        <time>2026-07-14T09:51:52Z</time>
      </trkpt>
      <trkpt lat="45.18968" lon="5.96549">
        <ele>1778.7</ele>
        <time>2026-07-14T09:51:53Z</time>
      </trkpt>
      <trkpt lat="45.18968" lon="5.96549">
        <ele>1778.8</ele>
        <time>2026-07-14T09:51:54Z</time>
      </trkpt>
      <trkpt lat="45.18967" lon="5.96549">
        <ele>1779</ele>
        <time>2026-07-14T09:51:55Z</time>
      </trkpt>
      <trkpt lat="45.18966" lon="5.96549">
        <ele>1779.2</ele>
        <time>2026-07-14T09:51:56Z</time>
      </trkpt>
      <trkpt lat="45.18966" lon="5.96548">
        <ele>1779.3</ele>
        <time>2026-07-14T09:51:57Z</time>
      </trkpt>
      <trkpt lat="45.18965" lon="5.96548">
        <ele>1779.5</ele>
        <time>2026-07-14T09:51:59Z</time>
      </trkpt>
      <trkpt lat="45.18965" lon="5.96548">
        <ele>1779.7</ele>
        <time>2026-07-14T09:52:00Z</time>
      </trkpt>
      <trkpt lat="45.18964" lon="5.96547">
        <ele>1779.9</ele>
        <time>2026-07-14T09:52:01Z</time>
      </trkpt>
      <trkpt lat="45.18964" lon="5.96547">
        <ele>1780</ele>
        <time>2026-07-14T09:52:02Z</time>
      </trkpt>
      <trkpt lat="45.18964" lon="5.96547">
        <ele>1780</ele>
        <time>2026-07-14T09:52:03Z</time>
      </trkpt>
      <trkpt lat="45.18963" lon="5.96547">
        <ele>1780.1</ele>
        <time>2026-07-14T09:52:04Z</time>
      </trkpt>
      <trkpt lat="45.18963" lon="5.96546">
        <ele>1780.2</ele>
        <time>2026-07-14T09:52:05Z</time>
      </trkpt>
      <trkpt lat="45.18963" lon="5.96546">
        <ele>1780.3</ele>
        <time>2026-07-14T09:52:06Z</time>
      </trkpt>
      <trkpt lat="45.18962" lon="5.96546">
        <ele>1780.5</ele>
        <time>2026-07-14T09:52:08Z</time>
      </trkpt>
      <trkpt lat="45.18962" lon="5.96545">
        <ele>1780.6</ele>
        <time>2026-07-14T09:52:09Z</time>
      </trkpt>
      <trkpt lat="45.18962" lon="5.96545">
        <ele>1780.7</ele>
        <time>2026-07-14T09:52:11Z</time>
      </trkpt>
      <trkpt lat="45.18961" lon="5.96545">
        <ele>1780.8</ele>
        <time>2026-07-14T09:52:12Z</time>
      </trkpt>
      <trkpt lat="45.18961" lon="5.96545">
        <ele>1780.9</ele>
        <time>2026-07-14T09:52:13Z</time>
      </trkpt>
      <trkpt lat="45.18961" lon="5.96545">
        <ele>1781</ele>
        <time>2026-07-14T09:52:15Z</time>
      </trkpt>
      <trkpt lat="45.18961" lon="5.96545">
        <ele>1781</ele>
        <time>2026-07-14T09:52:16Z</time>
      </trkpt>
      <trkpt lat="45.18961" lon="5.96545">
        <ele>1781</ele>
        <time>2026-07-14T09:52:18Z</time>
      </trkpt>
      <trkpt lat="45.18961" lon="5.96546">
        <ele>1781.1</ele>
        <time>2026-07-14T09:52:19Z</time>
      </trkpt>
      <trkpt lat="45.18961" lon="5.96546">
        <ele>1781.2</ele>
        <time>2026-07-14T09:52:21Z</time>
      </trkpt>
      <trkpt lat="45.1896" lon="5.96546">
        <ele>1781.3</ele>
        <time>2026-07-14T09:52:22Z</time>
      </trkpt>
      <trkpt lat="45.1896" lon="5.96547">
        <ele>1781.5</ele>
        <time>2026-07-14T09:52:24Z</time>
      </trkpt>
      <trkpt lat="45.18959" lon="5.96547">
        <ele>1781.6</ele>
        <time>2026-07-14T09:52:25Z</time>
      </trkpt>
      <trkpt lat="45.18959" lon="5.96547">
        <ele>1781.6</ele>
        <time>2026-07-14T09:52:26Z</time>
      </trkpt>
      <trkpt lat="45.18959" lon="5.96547">
        <ele>1781.7</ele>
        <time>2026-07-14T09:52:27Z</time>
      </trkpt>
      <trkpt lat="45.18959" lon="5.96548">
        <ele>1781.8</ele>
        <time>2026-07-14T09:52:29Z</time>
      </trkpt>
      <trkpt lat="45.18959" lon="5.96549">
        <ele>1782.1</ele>
        <time>2026-07-14T09:52:30Z</time>
      </trkpt>
      <trkpt lat="45.18959" lon="5.96549">
        <ele>1782.1</ele>
        <time>2026-07-14T09:52:31Z</time>
      </trkpt>
      <trkpt lat="45.18959" lon="5.9655">
        <ele>1782.2</ele>
        <time>2026-07-14T09:52:32Z</time>
      </trkpt>
      <trkpt lat="45.1896" lon="5.9655">
        <ele>1782.3</ele>
        <time>2026-07-14T09:52:33Z</time>
      </trkpt>
      <trkpt lat="45.1896" lon="5.9655">
        <ele>1782.3</ele>
        <time>2026-07-14T09:52:34Z</time>
      </trkpt>
      <trkpt lat="45.18959" lon="5.9655">
        <ele>1782.3</ele>
        <time>2026-07-14T09:52:36Z</time>
      </trkpt>
      <trkpt lat="45.18959" lon="5.9655">
        <ele>1782.4</ele>
        <time>2026-07-14T09:52:37Z</time>
      </trkpt>
      <trkpt lat="45.18959" lon="5.9655">
        <ele>1782.4</ele>
        <time>2026-07-14T09:52:38Z</time>
      </trkpt>
      <trkpt lat="45.18959" lon="5.9655">
        <ele>1782.4</ele>
        <time>2026-07-14T09:52:39Z</time>
      </trkpt>
      <trkpt lat="45.18959" lon="5.9655">
        <ele>1782.4</ele>
        <time>2026-07-14T09:52:40Z</time>
      </trkpt>
      <trkpt lat="45.18959" lon="5.9655">
        <ele>1782.4</ele>
        <time>2026-07-14T09:52:41Z</time>
      </trkpt>
      <trkpt lat="45.18959" lon="5.9655">
        <ele>1782.5</ele>
        <time>2026-07-14T09:52:42Z</time>
      </trkpt>
      <trkpt lat="45.18959" lon="5.9655">
        <ele>1782.5</ele>
        <time>2026-07-14T09:52:43Z</time>
      </trkpt>
      <trkpt lat="45.18959" lon="5.9655">
        <ele>1782.5</ele>
        <time>2026-07-14T09:52:44Z</time>
      </trkpt>
      <trkpt lat="45.18959" lon="5.9655">
        <ele>1782.5</ele>
        <time>2026-07-14T09:52:46Z</time>
      </trkpt>
      <trkpt lat="45.18959" lon="5.9655">
        <ele>1782.5</ele>
        <time>2026-07-14T09:52:47Z</time>
      </trkpt>
      <trkpt lat="45.18959" lon="5.9655">
        <ele>1782.5</ele>
        <time>2026-07-14T09:52:48Z</time>
      </trkpt>
      <trkpt lat="45.18959" lon="5.9655">
        <ele>1782.6</ele>
        <time>2026-07-14T09:52:50Z</time>
      </trkpt>
      <trkpt lat="45.18959" lon="5.9655">
        <ele>1782.6</ele>
        <time>2026-07-14T09:52:51Z</time>
      </trkpt>
      <trkpt lat="45.18959" lon="5.9655">
        <ele>1782.7</ele>
        <time>2026-07-14T09:52:53Z</time>
      </trkpt>
      <trkpt lat="45.1896" lon="5.9655">
        <ele>1782.7</ele>
        <time>2026-07-14T09:52:54Z</time>
      </trkpt>
      <trkpt lat="45.18959" lon="5.9655">
        <ele>1782.7</ele>
        <time>2026-07-14T09:52:55Z</time>
      </trkpt>
      <trkpt lat="45.18959" lon="5.9655">
        <ele>1782.7</ele>
        <time>2026-07-14T09:52:56Z</time>
      </trkpt>
      <trkpt lat="45.1896" lon="5.96551">
        <ele>1782.8</ele>
        <time>2026-07-14T09:52:57Z</time>
      </trkpt>
      <trkpt lat="45.1896" lon="5.96551">
        <ele>1782.8</ele>
        <time>2026-07-14T09:52:58Z</time>
      </trkpt>
      <trkpt lat="45.1896" lon="5.96551">
        <ele>1782.8</ele>
        <time>2026-07-14T09:53:00Z</time>
      </trkpt>
      <trkpt lat="45.1896" lon="5.96551">
        <ele>1782.8</ele>
        <time>2026-07-14T09:53:01Z</time>
      </trkpt>
      <trkpt lat="45.1896" lon="5.96551">
        <ele>1782.8</ele>
        <time>2026-07-14T09:53:02Z</time>
      </trkpt>
      <trkpt lat="45.1896" lon="5.96551">
        <ele>1782.8</ele>
        <time>2026-07-14T09:53:03Z</time>
      </trkpt>
      <trkpt lat="45.1896" lon="5.96551">
        <ele>1782.8</ele>
        <time>2026-07-14T09:53:04Z</time>
      </trkpt>
      <trkpt lat="45.1896" lon="5.96551">
        <ele>1782.8</ele>
        <time>2026-07-14T09:53:05Z</time>
      </trkpt>
      <trkpt lat="45.1896" lon="5.96551">
        <ele>1782.8</ele>
        <time>2026-07-14T09:53:07Z</time>
      </trkpt>
      <trkpt lat="45.1896" lon="5.96551">
        <ele>1782.8</ele>
        <time>2026-07-14T09:53:08Z</time>
      </trkpt>
      <trkpt lat="45.1896" lon="5.96552">
        <ele>1783</ele>
        <time>2026-07-14T09:53:10Z</time>
      </trkpt>
      <trkpt lat="45.1896" lon="5.96552">
        <ele>1783.1</ele>
        <time>2026-07-14T09:53:11Z</time>
      </trkpt>
      <trkpt lat="45.1896" lon="5.96552">
        <ele>1783.1</ele>
        <time>2026-07-14T09:53:12Z</time>
      </trkpt>
      <trkpt lat="45.1896" lon="5.96552">
        <ele>1783.2</ele>
        <time>2026-07-14T09:53:13Z</time>
      </trkpt>
      <trkpt lat="45.1896" lon="5.96553">
        <ele>1783.3</ele>
        <time>2026-07-14T09:53:14Z</time>
      </trkpt>
      <trkpt lat="45.18961" lon="5.96553">
        <ele>1783.4</ele>
        <time>2026-07-14T09:53:15Z</time>
      </trkpt>
      <trkpt lat="45.18961" lon="5.96554">
        <ele>1783.6</ele>
        <time>2026-07-14T09:53:16Z</time>
      </trkpt>
      <trkpt lat="45.18961" lon="5.96554">
        <ele>1783.8</ele>
        <time>2026-07-14T09:53:17Z</time>
      </trkpt>
      <trkpt lat="45.18962" lon="5.96555">
        <ele>1783.9</ele>
        <time>2026-07-14T09:53:18Z</time>
      </trkpt>
      <trkpt lat="45.18962" lon="5.96556">
        <ele>1784.2</ele>
        <time>2026-07-14T09:53:19Z</time>
      </trkpt>
      <trkpt lat="45.18963" lon="5.96557">
        <ele>1784.5</ele>
        <time>2026-07-14T09:53:21Z</time>
      </trkpt>
      <trkpt lat="45.18963" lon="5.96558">
        <ele>1784.6</ele>
        <time>2026-07-14T09:53:22Z</time>
      </trkpt>
      <trkpt lat="45.18963" lon="5.96558">
        <ele>1784.8</ele>
        <time>2026-07-14T09:53:23Z</time>
      </trkpt>
      <trkpt lat="45.18964" lon="5.96559">
        <ele>1785</ele>
        <time>2026-07-14T09:53:24Z</time>
      </trkpt>
      <trkpt lat="45.18964" lon="5.96559">
        <ele>1785.1</ele>
        <time>2026-07-14T09:53:25Z</time>
      </trkpt>
      <trkpt lat="45.18964" lon="5.9656">
        <ele>1785.2</ele>
        <time>2026-07-14T09:53:26Z</time>
      </trkpt>
      <trkpt lat="45.18965" lon="5.9656">
        <ele>1785.4</ele>
        <time>2026-07-14T09:53:27Z</time>
      </trkpt>
      <trkpt lat="45.18965" lon="5.9656">
        <ele>1785.5</ele>
        <time>2026-07-14T09:53:28Z</time>
      </trkpt>
      <trkpt lat="45.18965" lon="5.96561">
        <ele>1785.7</ele>
        <time>2026-07-14T09:53:29Z</time>
      </trkpt>
      <trkpt lat="45.18966" lon="5.96561">
        <ele>1785.8</ele>
        <time>2026-07-14T09:53:30Z</time>
      </trkpt>
      <trkpt lat="45.18966" lon="5.96562">
        <ele>1786</ele>
        <time>2026-07-14T09:53:31Z</time>
      </trkpt>
      <trkpt lat="45.18966" lon="5.96562">
        <ele>1786.1</ele>
        <time>2026-07-14T09:53:32Z</time>
      </trkpt>
      <trkpt lat="45.18967" lon="5.96563">
        <ele>1786.3</ele>
        <time>2026-07-14T09:53:33Z</time>
      </trkpt>
      <trkpt lat="45.18967" lon="5.96563">
        <ele>1786.4</ele>
        <time>2026-07-14T09:53:34Z</time>
      </trkpt>
      <trkpt lat="45.18967" lon="5.96564">
        <ele>1786.6</ele>
        <time>2026-07-14T09:53:35Z</time>
      </trkpt>
      <trkpt lat="45.18968" lon="5.96565">
        <ele>1786.9</ele>
        <time>2026-07-14T09:53:36Z</time>
      </trkpt>
      <trkpt lat="45.18968" lon="5.96566">
        <ele>1787</ele>
        <time>2026-07-14T09:53:38Z</time>
      </trkpt>
      <trkpt lat="45.18968" lon="5.96566">
        <ele>1787.2</ele>
        <time>2026-07-14T09:53:39Z</time>
      </trkpt>
      <trkpt lat="45.18968" lon="5.96567">
        <ele>1787.3</ele>
        <time>2026-07-14T09:53:40Z</time>
      </trkpt>
      <trkpt lat="45.18969" lon="5.96567">
        <ele>1787.4</ele>
        <time>2026-07-14T09:53:41Z</time>
      </trkpt>
      <trkpt lat="45.18969" lon="5.96568">
        <ele>1787.6</ele>
        <time>2026-07-14T09:53:42Z</time>
      </trkpt>
      <trkpt lat="45.18969" lon="5.96568">
        <ele>1787.7</ele>
        <time>2026-07-14T09:53:43Z</time>
      </trkpt>
      <trkpt lat="45.1897" lon="5.96568">
        <ele>1787.9</ele>
        <time>2026-07-14T09:53:44Z</time>
      </trkpt>
      <trkpt lat="45.1897" lon="5.96569">
        <ele>1787.9</ele>
        <time>2026-07-14T09:53:45Z</time>
      </trkpt>
      <trkpt lat="45.1897" lon="5.96569">
        <ele>1788.1</ele>
        <time>2026-07-14T09:53:46Z</time>
      </trkpt>
      <trkpt lat="45.18971" lon="5.96569">
        <ele>1788.3</ele>
        <time>2026-07-14T09:53:47Z</time>
      </trkpt>
      <trkpt lat="45.18971" lon="5.9657">
        <ele>1788.4</ele>
        <time>2026-07-14T09:53:48Z</time>
      </trkpt>
      <trkpt lat="45.18972" lon="5.9657">
        <ele>1788.6</ele>
        <time>2026-07-14T09:53:49Z</time>
      </trkpt>
      <trkpt lat="45.18972" lon="5.9657">
        <ele>1788.8</ele>
        <time>2026-07-14T09:53:51Z</time>
      </trkpt>
      <trkpt lat="45.18972" lon="5.96571">
        <ele>1788.9</ele>
        <time>2026-07-14T09:53:52Z</time>
      </trkpt>
      <trkpt lat="45.18973" lon="5.96571">
        <ele>1789.1</ele>
        <time>2026-07-14T09:53:53Z</time>
      </trkpt>
      <trkpt lat="45.18973" lon="5.96571">
        <ele>1789.2</ele>
        <time>2026-07-14T09:53:54Z</time>
      </trkpt>
      <trkpt lat="45.18974" lon="5.96572">
        <ele>1789.4</ele>
        <time>2026-07-14T09:53:55Z</time>
      </trkpt>
      <trkpt lat="45.18974" lon="5.96572">
        <ele>1789.5</ele>
        <time>2026-07-14T09:53:56Z</time>
      </trkpt>
      <trkpt lat="45.18974" lon="5.96572">
        <ele>1789.6</ele>
        <time>2026-07-14T09:53:57Z</time>
      </trkpt>
      <trkpt lat="45.18974" lon="5.96573">
        <ele>1789.7</ele>
        <time>2026-07-14T09:53:58Z</time>
      </trkpt>
      <trkpt lat="45.18975" lon="5.96573">
        <ele>1789.8</ele>
        <time>2026-07-14T09:53:59Z</time>
      </trkpt>
      <trkpt lat="45.18975" lon="5.96574">
        <ele>1789.9</ele>
        <time>2026-07-14T09:54:00Z</time>
      </trkpt>
      <trkpt lat="45.18975" lon="5.96574">
        <ele>1790</ele>
        <time>2026-07-14T09:54:01Z</time>
      </trkpt>
      <trkpt lat="45.18974" lon="5.96575">
        <ele>1790.2</ele>
        <time>2026-07-14T09:54:02Z</time>
      </trkpt>
      <trkpt lat="45.18974" lon="5.96575">
        <ele>1790.4</ele>
        <time>2026-07-14T09:54:03Z</time>
      </trkpt>
      <trkpt lat="45.18974" lon="5.96577">
        <ele>1790.7</ele>
        <time>2026-07-14T09:54:05Z</time>
      </trkpt>
      <trkpt lat="45.18974" lon="5.96577">
        <ele>1790.9</ele>
        <time>2026-07-14T09:54:06Z</time>
      </trkpt>
      <trkpt lat="45.18974" lon="5.96578">
        <ele>1791.1</ele>
        <time>2026-07-14T09:54:07Z</time>
      </trkpt>
      <trkpt lat="45.18974" lon="5.96579">
        <ele>1791.2</ele>
        <time>2026-07-14T09:54:08Z</time>
      </trkpt>
      <trkpt lat="45.18975" lon="5.96579">
        <ele>1791.4</ele>
        <time>2026-07-14T09:54:09Z</time>
      </trkpt>
      <trkpt lat="45.18975" lon="5.96579">
        <ele>1791.5</ele>
        <time>2026-07-14T09:54:10Z</time>
      </trkpt>
      <trkpt lat="45.18976" lon="5.96579">
        <ele>1791.7</ele>
        <time>2026-07-14T09:54:11Z</time>
      </trkpt>
      <trkpt lat="45.18976" lon="5.96579">
        <ele>1791.8</ele>
        <time>2026-07-14T09:54:12Z</time>
      </trkpt>
      <trkpt lat="45.18977" lon="5.96579">
        <ele>1792</ele>
        <time>2026-07-14T09:54:13Z</time>
      </trkpt>
      <trkpt lat="45.18977" lon="5.96579">
        <ele>1792.2</ele>
        <time>2026-07-14T09:54:14Z</time>
      </trkpt>
      <trkpt lat="45.18977" lon="5.9658">
        <ele>1792.3</ele>
        <time>2026-07-14T09:54:15Z</time>
      </trkpt>
      <trkpt lat="45.18978" lon="5.9658">
        <ele>1792.4</ele>
        <time>2026-07-14T09:54:16Z</time>
      </trkpt>
      <trkpt lat="45.18978" lon="5.9658">
        <ele>1792.6</ele>
        <time>2026-07-14T09:54:17Z</time>
      </trkpt>
      <trkpt lat="45.18978" lon="5.96581">
        <ele>1792.7</ele>
        <time>2026-07-14T09:54:18Z</time>
      </trkpt>
      <trkpt lat="45.18979" lon="5.96581">
        <ele>1792.9</ele>
        <time>2026-07-14T09:54:19Z</time>
      </trkpt>
      <trkpt lat="45.18979" lon="5.96582">
        <ele>1793</ele>
        <time>2026-07-14T09:54:20Z</time>
      </trkpt>
      <trkpt lat="45.18979" lon="5.96582">
        <ele>1793.2</ele>
        <time>2026-07-14T09:54:21Z</time>
      </trkpt>
      <trkpt lat="45.1898" lon="5.96583">
        <ele>1793.3</ele>
        <time>2026-07-14T09:54:22Z</time>
      </trkpt>
      <trkpt lat="45.1898" lon="5.96583">
        <ele>1793.4</ele>
        <time>2026-07-14T09:54:23Z</time>
      </trkpt>
      <trkpt lat="45.1898" lon="5.96583">
        <ele>1793.6</ele>
        <time>2026-07-14T09:54:24Z</time>
      </trkpt>
      <trkpt lat="45.18981" lon="5.96584">
        <ele>1793.7</ele>
        <time>2026-07-14T09:54:25Z</time>
      </trkpt>
      <trkpt lat="45.18981" lon="5.96584">
        <ele>1793.9</ele>
        <time>2026-07-14T09:54:26Z</time>
      </trkpt>
      <trkpt lat="45.18981" lon="5.96584">
        <ele>1794</ele>
        <time>2026-07-14T09:54:28Z</time>
      </trkpt>
      <trkpt lat="45.18982" lon="5.96585">
        <ele>1794.2</ele>
        <time>2026-07-14T09:54:29Z</time>
      </trkpt>
      <trkpt lat="45.18982" lon="5.96585">
        <ele>1794.3</ele>
        <time>2026-07-14T09:54:30Z</time>
      </trkpt>
      <trkpt lat="45.18982" lon="5.96586">
        <ele>1794.5</ele>
        <time>2026-07-14T09:54:31Z</time>
      </trkpt>
      <trkpt lat="45.18982" lon="5.96586">
        <ele>1794.5</ele>
        <time>2026-07-14T09:54:32Z</time>
      </trkpt>
      <trkpt lat="45.18983" lon="5.96586">
        <ele>1794.6</ele>
        <time>2026-07-14T09:54:33Z</time>
      </trkpt>
      <trkpt lat="45.18983" lon="5.96587">
        <ele>1794.7</ele>
        <time>2026-07-14T09:54:34Z</time>
      </trkpt>
      <trkpt lat="45.18983" lon="5.96587">
        <ele>1794.9</ele>
        <time>2026-07-14T09:54:35Z</time>
      </trkpt>
      <trkpt lat="45.18983" lon="5.96588">
        <ele>1795</ele>
        <time>2026-07-14T09:54:36Z</time>
      </trkpt>
      <trkpt lat="45.18983" lon="5.96588">
        <ele>1795.1</ele>
        <time>2026-07-14T09:54:37Z</time>
      </trkpt>
      <trkpt lat="45.18983" lon="5.96589">
        <ele>1795.2</ele>
        <time>2026-07-14T09:54:38Z</time>
      </trkpt>
      <trkpt lat="45.18983" lon="5.96589">
        <ele>1795.4</ele>
        <time>2026-07-14T09:54:39Z</time>
      </trkpt>
      <trkpt lat="45.18984" lon="5.9659">
        <ele>1795.5</ele>
        <time>2026-07-14T09:54:40Z</time>
      </trkpt>
      <trkpt lat="45.18984" lon="5.96591">
        <ele>1795.8</ele>
        <time>2026-07-14T09:54:42Z</time>
      </trkpt>
      <trkpt lat="45.18985" lon="5.96591">
        <ele>1796</ele>
        <time>2026-07-14T09:54:43Z</time>
      </trkpt>
      <trkpt lat="45.18985" lon="5.96592">
        <ele>1796.1</ele>
        <time>2026-07-14T09:54:44Z</time>
      </trkpt>
      <trkpt lat="45.18985" lon="5.96592">
        <ele>1796.2</ele>
        <time>2026-07-14T09:54:46Z</time>
      </trkpt>
      <trkpt lat="45.18985" lon="5.96593">
        <ele>1796.4</ele>
        <time>2026-07-14T09:54:47Z</time>
      </trkpt>
      <trkpt lat="45.18986" lon="5.96593">
        <ele>1796.5</ele>
        <time>2026-07-14T09:54:49Z</time>
      </trkpt>
      <trkpt lat="45.18986" lon="5.96593">
        <ele>1796.6</ele>
        <time>2026-07-14T09:54:50Z</time>
      </trkpt>
      <trkpt lat="45.18986" lon="5.96594">
        <ele>1796.7</ele>
        <time>2026-07-14T09:54:51Z</time>
      </trkpt>
      <trkpt lat="45.18986" lon="5.96594">
        <ele>1796.8</ele>
        <time>2026-07-14T09:54:52Z</time>
      </trkpt>
      <trkpt lat="45.18987" lon="5.96595">
        <ele>1797.1</ele>
        <time>2026-07-14T09:54:54Z</time>
      </trkpt>
      <trkpt lat="45.18987" lon="5.96595">
        <ele>1797.2</ele>
        <time>2026-07-14T09:54:55Z</time>
      </trkpt>
      <trkpt lat="45.18987" lon="5.96596">
        <ele>1797.3</ele>
        <time>2026-07-14T09:54:56Z</time>
      </trkpt>
      <trkpt lat="45.18988" lon="5.96596">
        <ele>1797.4</ele>
        <time>2026-07-14T09:54:57Z</time>
      </trkpt>
      <trkpt lat="45.18988" lon="5.96596">
        <ele>1797.6</ele>
        <time>2026-07-14T09:54:58Z</time>
      </trkpt>
      <trkpt lat="45.18988" lon="5.96597">
        <ele>1797.7</ele>
        <time>2026-07-14T09:54:59Z</time>
      </trkpt>
      <trkpt lat="45.18989" lon="5.96597">
        <ele>1797.9</ele>
        <time>2026-07-14T09:55:00Z</time>
      </trkpt>
      <trkpt lat="45.1899" lon="5.96597">
        <ele>1798.1</ele>
        <time>2026-07-14T09:55:01Z</time>
      </trkpt>
      <trkpt lat="45.1899" lon="5.96597">
        <ele>1798.3</ele>
        <time>2026-07-14T09:55:02Z</time>
      </trkpt>
      <trkpt lat="45.18991" lon="5.96598">
        <ele>1798.6</ele>
        <time>2026-07-14T09:55:04Z</time>
      </trkpt>
      <trkpt lat="45.18992" lon="5.96599">
        <ele>1798.9</ele>
        <time>2026-07-14T09:55:06Z</time>
      </trkpt>
      <trkpt lat="45.18992" lon="5.966">
        <ele>1799.2</ele>
        <time>2026-07-14T09:55:08Z</time>
      </trkpt>
      <trkpt lat="45.18993" lon="5.966">
        <ele>1799.3</ele>
        <time>2026-07-14T09:55:09Z</time>
      </trkpt>
      <trkpt lat="45.18993" lon="5.96601">
        <ele>1799.4</ele>
        <time>2026-07-14T09:55:11Z</time>
      </trkpt>
      <trkpt lat="45.18993" lon="5.96601">
        <ele>1799.5</ele>
        <time>2026-07-14T09:55:12Z</time>
      </trkpt>
      <trkpt lat="45.18993" lon="5.96602">
        <ele>1799.8</ele>
        <time>2026-07-14T09:55:13Z</time>
      </trkpt>
      <trkpt lat="45.18993" lon="5.96603">
        <ele>1799.9</ele>
        <time>2026-07-14T09:55:14Z</time>
      </trkpt>
      <trkpt lat="45.18993" lon="5.96603">
        <ele>1800.1</ele>
        <time>2026-07-14T09:55:15Z</time>
      </trkpt>
      <trkpt lat="45.18994" lon="5.96604">
        <ele>1800.2</ele>
        <time>2026-07-14T09:55:16Z</time>
      </trkpt>
      <trkpt lat="45.18994" lon="5.96604">
        <ele>1800.3</ele>
        <time>2026-07-14T09:55:17Z</time>
      </trkpt>
      <trkpt lat="45.18994" lon="5.96605">
        <ele>1800.5</ele>
        <time>2026-07-14T09:55:18Z</time>
      </trkpt>
      <trkpt lat="45.18995" lon="5.96605">
        <ele>1800.6</ele>
        <time>2026-07-14T09:55:19Z</time>
      </trkpt>
      <trkpt lat="45.18995" lon="5.96605">
        <ele>1800.7</ele>
        <time>2026-07-14T09:55:20Z</time>
      </trkpt>
      <trkpt lat="45.18995" lon="5.96606">
        <ele>1800.9</ele>
        <time>2026-07-14T09:55:21Z</time>
      </trkpt>
      <trkpt lat="45.18996" lon="5.96606">
        <ele>1801</ele>
        <time>2026-07-14T09:55:22Z</time>
      </trkpt>
      <trkpt lat="45.18996" lon="5.96606">
        <ele>1801.1</ele>
        <time>2026-07-14T09:55:23Z</time>
      </trkpt>
      <trkpt lat="45.18996" lon="5.96606">
        <ele>1801.2</ele>
        <time>2026-07-14T09:55:24Z</time>
      </trkpt>
      <trkpt lat="45.18997" lon="5.96606">
        <ele>1801.5</ele>
        <time>2026-07-14T09:55:26Z</time>
      </trkpt>
      <trkpt lat="45.18998" lon="5.96606">
        <ele>1801.7</ele>
        <time>2026-07-14T09:55:28Z</time>
      </trkpt>
      <trkpt lat="45.18998" lon="5.96607">
        <ele>1802</ele>
        <time>2026-07-14T09:55:30Z</time>
      </trkpt>
      <trkpt lat="45.18998" lon="5.96608">
        <ele>1802.2</ele>
        <time>2026-07-14T09:55:31Z</time>
      </trkpt>
      <trkpt lat="45.18998" lon="5.96608">
        <ele>1802.4</ele>
        <time>2026-07-14T09:55:32Z</time>
      </trkpt>
      <trkpt lat="45.18998" lon="5.96609">
        <ele>1802.5</ele>
        <time>2026-07-14T09:55:33Z</time>
      </trkpt>
      <trkpt lat="45.18997" lon="5.96609">
        <ele>1802.6</ele>
        <time>2026-07-14T09:55:34Z</time>
      </trkpt>
      <trkpt lat="45.18997" lon="5.9661">
        <ele>1802.8</ele>
        <time>2026-07-14T09:55:35Z</time>
      </trkpt>
      <trkpt lat="45.18997" lon="5.9661">
        <ele>1802.8</ele>
        <time>2026-07-14T09:55:36Z</time>
      </trkpt>
      <trkpt lat="45.18997" lon="5.9661">
        <ele>1802.9</ele>
        <time>2026-07-14T09:55:37Z</time>
      </trkpt>
      <trkpt lat="45.18996" lon="5.9661">
        <ele>1803.1</ele>
        <time>2026-07-14T09:55:39Z</time>
      </trkpt>
      <trkpt lat="45.18996" lon="5.96611">
        <ele>1803.3</ele>
        <time>2026-07-14T09:55:40Z</time>
      </trkpt>
      <trkpt lat="45.18996" lon="5.96611">
        <ele>1803.4</ele>
        <time>2026-07-14T09:55:41Z</time>
      </trkpt>
      <trkpt lat="45.18995" lon="5.96612">
        <ele>1803.6</ele>
        <time>2026-07-14T09:55:43Z</time>
      </trkpt>
      <trkpt lat="45.18995" lon="5.96612">
        <ele>1803.8</ele>
        <time>2026-07-14T09:55:44Z</time>
      </trkpt>
      <trkpt lat="45.18995" lon="5.96613">
        <ele>1804</ele>
        <time>2026-07-14T09:55:45Z</time>
      </trkpt>
      <trkpt lat="45.18996" lon="5.96615">
        <ele>1804.4</ele>
        <time>2026-07-14T09:55:46Z</time>
      </trkpt>
      <trkpt lat="45.18996" lon="5.96615">
        <ele>1804.6</ele>
        <time>2026-07-14T09:55:47Z</time>
      </trkpt>
      <trkpt lat="45.18997" lon="5.96616">
        <ele>1804.7</ele>
        <time>2026-07-14T09:55:48Z</time>
      </trkpt>
      <trkpt lat="45.18997" lon="5.96616">
        <ele>1804.9</ele>
        <time>2026-07-14T09:55:50Z</time>
      </trkpt>
      <trkpt lat="45.18997" lon="5.96616">
        <ele>1805</ele>
        <time>2026-07-14T09:55:51Z</time>
      </trkpt>
      <trkpt lat="45.18998" lon="5.96616">
        <ele>1805.3</ele>
        <time>2026-07-14T09:55:52Z</time>
      </trkpt>
      <trkpt lat="45.18998" lon="5.96616">
        <ele>1805.4</ele>
        <time>2026-07-14T09:55:53Z</time>
      </trkpt>
      <trkpt lat="45.18999" lon="5.96616">
        <ele>1805.5</ele>
        <time>2026-07-14T09:55:54Z</time>
      </trkpt>
      <trkpt lat="45.18999" lon="5.96617">
        <ele>1805.7</ele>
        <time>2026-07-14T09:55:56Z</time>
      </trkpt>
      <trkpt lat="45.18999" lon="5.96617">
        <ele>1805.8</ele>
        <time>2026-07-14T09:55:57Z</time>
      </trkpt>
      <trkpt lat="45.18999" lon="5.96618">
        <ele>1806.1</ele>
        <time>2026-07-14T09:55:58Z</time>
      </trkpt>
      <trkpt lat="45.19" lon="5.96619">
        <ele>1806.3</ele>
        <time>2026-07-14T09:55:59Z</time>
      </trkpt>
      <trkpt lat="45.19" lon="5.96619">
        <ele>1806.5</ele>
        <time>2026-07-14T09:56:00Z</time>
      </trkpt>
      <trkpt lat="45.19" lon="5.9662">
        <ele>1806.6</ele>
        <time>2026-07-14T09:56:01Z</time>
      </trkpt>
      <trkpt lat="45.19" lon="5.96621">
        <ele>1806.8</ele>
        <time>2026-07-14T09:56:03Z</time>
      </trkpt>
      <trkpt lat="45.19" lon="5.96621">
        <ele>1807</ele>
        <time>2026-07-14T09:56:04Z</time>
      </trkpt>
      <trkpt lat="45.19001" lon="5.96621">
        <ele>1807</ele>
        <time>2026-07-14T09:56:05Z</time>
      </trkpt>
      <trkpt lat="45.19001" lon="5.96621">
        <ele>1807.2</ele>
        <time>2026-07-14T09:56:06Z</time>
      </trkpt>
      <trkpt lat="45.19002" lon="5.96621">
        <ele>1807.5</ele>
        <time>2026-07-14T09:56:08Z</time>
      </trkpt>
      <trkpt lat="45.19002" lon="5.96622">
        <ele>1807.6</ele>
        <time>2026-07-14T09:56:09Z</time>
      </trkpt>
      <trkpt lat="45.19002" lon="5.96622">
        <ele>1807.7</ele>
        <time>2026-07-14T09:56:10Z</time>
      </trkpt>
      <trkpt lat="45.19002" lon="5.96623">
        <ele>1807.9</ele>
        <time>2026-07-14T09:56:11Z</time>
      </trkpt>
      <trkpt lat="45.19002" lon="5.96623">
        <ele>1808.1</ele>
        <time>2026-07-14T09:56:12Z</time>
      </trkpt>
      <trkpt lat="45.19002" lon="5.96624">
        <ele>1808.2</ele>
        <time>2026-07-14T09:56:13Z</time>
      </trkpt>
      <trkpt lat="45.19003" lon="5.96624">
        <ele>1808.3</ele>
        <time>2026-07-14T09:56:14Z</time>
      </trkpt>
      <trkpt lat="45.19003" lon="5.96624">
        <ele>1808.5</ele>
        <time>2026-07-14T09:56:15Z</time>
      </trkpt>
      <trkpt lat="45.19004" lon="5.96624">
        <ele>1808.7</ele>
        <time>2026-07-14T09:56:16Z</time>
      </trkpt>
      <trkpt lat="45.19004" lon="5.96625">
        <ele>1808.8</ele>
        <time>2026-07-14T09:56:17Z</time>
      </trkpt>
      <trkpt lat="45.19004" lon="5.96625">
        <ele>1809</ele>
        <time>2026-07-14T09:56:18Z</time>
      </trkpt>
      <trkpt lat="45.19005" lon="5.96625">
        <ele>1809.1</ele>
        <time>2026-07-14T09:56:19Z</time>
      </trkpt>
      <trkpt lat="45.19005" lon="5.96625">
        <ele>1809.3</ele>
        <time>2026-07-14T09:56:20Z</time>
      </trkpt>
      <trkpt lat="45.19005" lon="5.96626">
        <ele>1809.5</ele>
        <time>2026-07-14T09:56:22Z</time>
      </trkpt>
      <trkpt lat="45.19006" lon="5.96626">
        <ele>1809.7</ele>
        <time>2026-07-14T09:56:24Z</time>
      </trkpt>
      <trkpt lat="45.19006" lon="5.96627">
        <ele>1809.9</ele>
        <time>2026-07-14T09:56:25Z</time>
      </trkpt>
      <trkpt lat="45.19006" lon="5.96628">
        <ele>1810.2</ele>
        <time>2026-07-14T09:56:26Z</time>
      </trkpt>
      <trkpt lat="45.19006" lon="5.96629">
        <ele>1810.4</ele>
        <time>2026-07-14T09:56:28Z</time>
      </trkpt>
      <trkpt lat="45.19007" lon="5.96629">
        <ele>1810.5</ele>
        <time>2026-07-14T09:56:30Z</time>
      </trkpt>
      <trkpt lat="45.19007" lon="5.96629">
        <ele>1810.6</ele>
        <time>2026-07-14T09:56:31Z</time>
      </trkpt>
      <trkpt lat="45.19007" lon="5.96629">
        <ele>1810.7</ele>
        <time>2026-07-14T09:56:32Z</time>
      </trkpt>
      <trkpt lat="45.19007" lon="5.96629">
        <ele>1810.8</ele>
        <time>2026-07-14T09:56:33Z</time>
      </trkpt>
      <trkpt lat="45.19008" lon="5.96629">
        <ele>1810.9</ele>
        <time>2026-07-14T09:56:34Z</time>
      </trkpt>
      <trkpt lat="45.19008" lon="5.9663">
        <ele>1811.1</ele>
        <time>2026-07-14T09:56:35Z</time>
      </trkpt>
      <trkpt lat="45.19008" lon="5.9663">
        <ele>1811.2</ele>
        <time>2026-07-14T09:56:36Z</time>
      </trkpt>
      <trkpt lat="45.19009" lon="5.9663">
        <ele>1811.4</ele>
        <time>2026-07-14T09:56:37Z</time>
      </trkpt>
      <trkpt lat="45.19009" lon="5.96631">
        <ele>1811.7</ele>
        <time>2026-07-14T09:56:39Z</time>
      </trkpt>
      <trkpt lat="45.1901" lon="5.96631">
        <ele>1811.9</ele>
        <time>2026-07-14T09:56:41Z</time>
      </trkpt>
      <trkpt lat="45.19011" lon="5.96632">
        <ele>1812.3</ele>
        <time>2026-07-14T09:56:42Z</time>
      </trkpt>
      <trkpt lat="45.19011" lon="5.96633">
        <ele>1812.4</ele>
        <time>2026-07-14T09:56:43Z</time>
      </trkpt>
      <trkpt lat="45.19011" lon="5.96633">
        <ele>1812.6</ele>
        <time>2026-07-14T09:56:44Z</time>
      </trkpt>
      <trkpt lat="45.19011" lon="5.96635">
        <ele>1813.1</ele>
        <time>2026-07-14T09:56:46Z</time>
      </trkpt>
      <trkpt lat="45.19012" lon="5.96636">
        <ele>1813.2</ele>
        <time>2026-07-14T09:56:47Z</time>
      </trkpt>
      <trkpt lat="45.19012" lon="5.96636">
        <ele>1813.4</ele>
        <time>2026-07-14T09:56:48Z</time>
      </trkpt>
      <trkpt lat="45.19012" lon="5.96637">
        <ele>1813.6</ele>
        <time>2026-07-14T09:56:49Z</time>
      </trkpt>
      <trkpt lat="45.19012" lon="5.96637">
        <ele>1813.8</ele>
        <time>2026-07-14T09:56:50Z</time>
      </trkpt>
      <trkpt lat="45.19012" lon="5.96638">
        <ele>1813.9</ele>
        <time>2026-07-14T09:56:51Z</time>
      </trkpt>
      <trkpt lat="45.19013" lon="5.96638">
        <ele>1814.1</ele>
        <time>2026-07-14T09:56:52Z</time>
      </trkpt>
      <trkpt lat="45.19013" lon="5.96638">
        <ele>1814.2</ele>
        <time>2026-07-14T09:56:53Z</time>
      </trkpt>
      <trkpt lat="45.19014" lon="5.96638">
        <ele>1814.4</ele>
        <time>2026-07-14T09:56:54Z</time>
      </trkpt>
      <trkpt lat="45.19014" lon="5.96638">
        <ele>1814.5</ele>
        <time>2026-07-14T09:56:55Z</time>
      </trkpt>
      <trkpt lat="45.19014" lon="5.96639">
        <ele>1814.7</ele>
        <time>2026-07-14T09:56:56Z</time>
      </trkpt>
      <trkpt lat="45.19015" lon="5.96639">
        <ele>1814.8</ele>
        <time>2026-07-14T09:56:57Z</time>
      </trkpt>
      <trkpt lat="45.19015" lon="5.9664">
        <ele>1815.1</ele>
        <time>2026-07-14T09:56:59Z</time>
      </trkpt>
      <trkpt lat="45.19016" lon="5.9664">
        <ele>1815.4</ele>
        <time>2026-07-14T09:57:01Z</time>
      </trkpt>
      <trkpt lat="45.19016" lon="5.9664">
        <ele>1815.4</ele>
        <time>2026-07-14T09:57:02Z</time>
      </trkpt>
      <trkpt lat="45.19016" lon="5.96641">
        <ele>1815.5</ele>
        <time>2026-07-14T09:57:03Z</time>
      </trkpt>
      <trkpt lat="45.19017" lon="5.96642">
        <ele>1815.8</ele>
        <time>2026-07-14T09:57:05Z</time>
      </trkpt>
      <trkpt lat="45.19017" lon="5.96642">
        <ele>1816.1</ele>
        <time>2026-07-14T09:57:06Z</time>
      </trkpt>
      <trkpt lat="45.19017" lon="5.96642">
        <ele>1816.2</ele>
        <time>2026-07-14T09:57:07Z</time>
      </trkpt>
      <trkpt lat="45.19018" lon="5.96643">
        <ele>1816.4</ele>
        <time>2026-07-14T09:57:08Z</time>
      </trkpt>
      <trkpt lat="45.19018" lon="5.96643">
        <ele>1816.5</ele>
        <time>2026-07-14T09:57:09Z</time>
      </trkpt>
      <trkpt lat="45.19018" lon="5.96643">
        <ele>1816.6</ele>
        <time>2026-07-14T09:57:10Z</time>
      </trkpt>
      <trkpt lat="45.19018" lon="5.96644">
        <ele>1816.6</ele>
        <time>2026-07-14T09:57:11Z</time>
      </trkpt>
      <trkpt lat="45.19018" lon="5.96644">
        <ele>1816.8</ele>
        <time>2026-07-14T09:57:12Z</time>
      </trkpt>
      <trkpt lat="45.19018" lon="5.96645">
        <ele>1816.9</ele>
        <time>2026-07-14T09:57:13Z</time>
      </trkpt>
      <trkpt lat="45.19019" lon="5.96645">
        <ele>1817.1</ele>
        <time>2026-07-14T09:57:15Z</time>
      </trkpt>
      <trkpt lat="45.19019" lon="5.96646">
        <ele>1817.2</ele>
        <time>2026-07-14T09:57:16Z</time>
      </trkpt>
      <trkpt lat="45.19019" lon="5.96646">
        <ele>1817.4</ele>
        <time>2026-07-14T09:57:17Z</time>
      </trkpt>
      <trkpt lat="45.1902" lon="5.96646">
        <ele>1817.6</ele>
        <time>2026-07-14T09:57:19Z</time>
      </trkpt>
      <trkpt lat="45.1902" lon="5.96647">
        <ele>1817.7</ele>
        <time>2026-07-14T09:57:20Z</time>
      </trkpt>
      <trkpt lat="45.1902" lon="5.96647">
        <ele>1817.9</ele>
        <time>2026-07-14T09:57:21Z</time>
      </trkpt>
      <trkpt lat="45.1902" lon="5.96648">
        <ele>1818.1</ele>
        <time>2026-07-14T09:57:22Z</time>
      </trkpt>
      <trkpt lat="45.19021" lon="5.96648">
        <ele>1818.2</ele>
        <time>2026-07-14T09:57:23Z</time>
      </trkpt>
      <trkpt lat="45.19021" lon="5.96649">
        <ele>1818.4</ele>
        <time>2026-07-14T09:57:24Z</time>
      </trkpt>
      <trkpt lat="45.19021" lon="5.96649">
        <ele>1818.6</ele>
        <time>2026-07-14T09:57:25Z</time>
      </trkpt>
      <trkpt lat="45.19022" lon="5.9665">
        <ele>1818.7</ele>
        <time>2026-07-14T09:57:26Z</time>
      </trkpt>
      <trkpt lat="45.19022" lon="5.9665">
        <ele>1818.9</ele>
        <time>2026-07-14T09:57:28Z</time>
      </trkpt>
      <trkpt lat="45.19023" lon="5.96651">
        <ele>1819.2</ele>
        <time>2026-07-14T09:57:29Z</time>
      </trkpt>
      <trkpt lat="45.19023" lon="5.96651">
        <ele>1819.3</ele>
        <time>2026-07-14T09:57:30Z</time>
      </trkpt>
      <trkpt lat="45.19023" lon="5.96652">
        <ele>1819.6</ele>
        <time>2026-07-14T09:57:32Z</time>
      </trkpt>
      <trkpt lat="45.19023" lon="5.96652">
        <ele>1819.7</ele>
        <time>2026-07-14T09:57:33Z</time>
      </trkpt>
      <trkpt lat="45.19024" lon="5.96653">
        <ele>1819.8</ele>
        <time>2026-07-14T09:57:34Z</time>
      </trkpt>
      <trkpt lat="45.19024" lon="5.96654">
        <ele>1820</ele>
        <time>2026-07-14T09:57:35Z</time>
      </trkpt>
      <trkpt lat="45.19024" lon="5.96654">
        <ele>1820.2</ele>
        <time>2026-07-14T09:57:36Z</time>
      </trkpt>
      <trkpt lat="45.19024" lon="5.96655">
        <ele>1820.4</ele>
        <time>2026-07-14T09:57:37Z</time>
      </trkpt>
      <trkpt lat="45.19024" lon="5.96656">
        <ele>1820.5</ele>
        <time>2026-07-14T09:57:38Z</time>
      </trkpt>
      <trkpt lat="45.19024" lon="5.96656">
        <ele>1820.7</ele>
        <time>2026-07-14T09:57:39Z</time>
      </trkpt>
      <trkpt lat="45.19024" lon="5.96658">
        <ele>1821</ele>
        <time>2026-07-14T09:57:41Z</time>
      </trkpt>
      <trkpt lat="45.19025" lon="5.96658">
        <ele>1821.2</ele>
        <time>2026-07-14T09:57:42Z</time>
      </trkpt>
      <trkpt lat="45.19025" lon="5.96659">
        <ele>1821.5</ele>
        <time>2026-07-14T09:57:44Z</time>
      </trkpt>
      <trkpt lat="45.19026" lon="5.9666">
        <ele>1821.8</ele>
        <time>2026-07-14T09:57:46Z</time>
      </trkpt>
      <trkpt lat="45.19027" lon="5.9666">
        <ele>1822</ele>
        <time>2026-07-14T09:57:47Z</time>
      </trkpt>
      <trkpt lat="45.19027" lon="5.9666">
        <ele>1822.2</ele>
        <time>2026-07-14T09:57:49Z</time>
      </trkpt>
      <trkpt lat="45.19027" lon="5.9666">
        <ele>1822.3</ele>
        <time>2026-07-14T09:57:50Z</time>
      </trkpt>
      <trkpt lat="45.19028" lon="5.96661">
        <ele>1822.4</ele>
        <time>2026-07-14T09:57:51Z</time>
      </trkpt>
      <trkpt lat="45.19028" lon="5.96661">
        <ele>1822.5</ele>
        <time>2026-07-14T09:57:52Z</time>
      </trkpt>
      <trkpt lat="45.19028" lon="5.96661">
        <ele>1822.7</ele>
        <time>2026-07-14T09:57:53Z</time>
      </trkpt>
      <trkpt lat="45.19029" lon="5.96662">
        <ele>1822.9</ele>
        <time>2026-07-14T09:57:54Z</time>
      </trkpt>
      <trkpt lat="45.19029" lon="5.96662">
        <ele>1823</ele>
        <time>2026-07-14T09:57:55Z</time>
      </trkpt>
      <trkpt lat="45.19029" lon="5.96663">
        <ele>1823.3</ele>
        <time>2026-07-14T09:57:56Z</time>
      </trkpt>
      <trkpt lat="45.19029" lon="5.96664">
        <ele>1823.4</ele>
        <time>2026-07-14T09:57:57Z</time>
      </trkpt>
      <trkpt lat="45.19028" lon="5.96664">
        <ele>1823.6</ele>
        <time>2026-07-14T09:57:58Z</time>
      </trkpt>
      <trkpt lat="45.19028" lon="5.96665">
        <ele>1823.7</ele>
        <time>2026-07-14T09:58:00Z</time>
      </trkpt>
      <trkpt lat="45.19028" lon="5.96665">
        <ele>1823.7</ele>
        <time>2026-07-14T09:58:01Z</time>
      </trkpt>
      <trkpt lat="45.19028" lon="5.96665">
        <ele>1823.8</ele>
        <time>2026-07-14T09:58:02Z</time>
      </trkpt>
      <trkpt lat="45.19028" lon="5.96666">
        <ele>1824</ele>
        <time>2026-07-14T09:58:03Z</time>
      </trkpt>
      <trkpt lat="45.19027" lon="5.96666">
        <ele>1824.1</ele>
        <time>2026-07-14T09:58:04Z</time>
      </trkpt>
      <trkpt lat="45.19027" lon="5.96667">
        <ele>1824.3</ele>
        <time>2026-07-14T09:58:05Z</time>
      </trkpt>
      <trkpt lat="45.19027" lon="5.96667">
        <ele>1824.5</ele>
        <time>2026-07-14T09:58:06Z</time>
      </trkpt>
      <trkpt lat="45.19026" lon="5.96667">
        <ele>1824.6</ele>
        <time>2026-07-14T09:58:07Z</time>
      </trkpt>
      <trkpt lat="45.19026" lon="5.96667">
        <ele>1824.8</ele>
        <time>2026-07-14T09:58:08Z</time>
      </trkpt>
      <trkpt lat="45.19025" lon="5.96667">
        <ele>1824.9</ele>
        <time>2026-07-14T09:58:09Z</time>
      </trkpt>
      <trkpt lat="45.19025" lon="5.96667">
        <ele>1825.1</ele>
        <time>2026-07-14T09:58:10Z</time>
      </trkpt>
      <trkpt lat="45.19024" lon="5.96667">
        <ele>1825.2</ele>
        <time>2026-07-14T09:58:11Z</time>
      </trkpt>
      <trkpt lat="45.19024" lon="5.96667">
        <ele>1825.3</ele>
        <time>2026-07-14T09:58:12Z</time>
      </trkpt>
      <trkpt lat="45.19024" lon="5.96667">
        <ele>1825.5</ele>
        <time>2026-07-14T09:58:13Z</time>
      </trkpt>
      <trkpt lat="45.19023" lon="5.96667">
        <ele>1825.6</ele>
        <time>2026-07-14T09:58:14Z</time>
      </trkpt>
      <trkpt lat="45.19023" lon="5.96667">
        <ele>1825.7</ele>
        <time>2026-07-14T09:58:15Z</time>
      </trkpt>
      <trkpt lat="45.19023" lon="5.96667">
        <ele>1825.8</ele>
        <time>2026-07-14T09:58:16Z</time>
      </trkpt>
      <trkpt lat="45.19022" lon="5.96667">
        <ele>1825.9</ele>
        <time>2026-07-14T09:58:17Z</time>
      </trkpt>
      <trkpt lat="45.19022" lon="5.96667">
        <ele>1826</ele>
        <time>2026-07-14T09:58:18Z</time>
      </trkpt>
      <trkpt lat="45.19022" lon="5.96668">
        <ele>1826.1</ele>
        <time>2026-07-14T09:58:19Z</time>
      </trkpt>
      <trkpt lat="45.19022" lon="5.96668">
        <ele>1826.3</ele>
        <time>2026-07-14T09:58:20Z</time>
      </trkpt>
      <trkpt lat="45.19021" lon="5.96668">
        <ele>1826.4</ele>
        <time>2026-07-14T09:58:21Z</time>
      </trkpt>
      <trkpt lat="45.19021" lon="5.96669">
        <ele>1826.5</ele>
        <time>2026-07-14T09:58:22Z</time>
      </trkpt>
      <trkpt lat="45.19021" lon="5.96669">
        <ele>1826.6</ele>
        <time>2026-07-14T09:58:23Z</time>
      </trkpt>
      <trkpt lat="45.19021" lon="5.96669">
        <ele>1826.7</ele>
        <time>2026-07-14T09:58:24Z</time>
      </trkpt>
      <trkpt lat="45.19021" lon="5.9667">
        <ele>1826.8</ele>
        <time>2026-07-14T09:58:25Z</time>
      </trkpt>
      <trkpt lat="45.19021" lon="5.9667">
        <ele>1826.9</ele>
        <time>2026-07-14T09:58:26Z</time>
      </trkpt>
      <trkpt lat="45.19021" lon="5.9667">
        <ele>1827</ele>
        <time>2026-07-14T09:58:28Z</time>
      </trkpt>
      <trkpt lat="45.1902" lon="5.96669">
        <ele>1827.2</ele>
        <time>2026-07-14T09:58:30Z</time>
      </trkpt>
      <trkpt lat="45.1902" lon="5.96669">
        <ele>1827.2</ele>
        <time>2026-07-14T09:58:32Z</time>
      </trkpt>
      <trkpt lat="45.1902" lon="5.96669">
        <ele>1827.3</ele>
        <time>2026-07-14T09:58:33Z</time>
      </trkpt>
      <trkpt lat="45.1902" lon="5.96669">
        <ele>1827.3</ele>
        <time>2026-07-14T09:58:34Z</time>
      </trkpt>
      <trkpt lat="45.1902" lon="5.96669">
        <ele>1827.3</ele>
        <time>2026-07-14T09:58:36Z</time>
      </trkpt>
      <trkpt lat="45.1902" lon="5.96669">
        <ele>1827.3</ele>
        <time>2026-07-14T09:58:38Z</time>
      </trkpt>
      <trkpt lat="45.1902" lon="5.96669">
        <ele>1827.3</ele>
        <time>2026-07-14T09:58:40Z</time>
      </trkpt>
      <trkpt lat="45.1902" lon="5.96669">
        <ele>1827.4</ele>
        <time>2026-07-14T09:58:41Z</time>
      </trkpt>
      <trkpt lat="45.1902" lon="5.96669">
        <ele>1827.4</ele>
        <time>2026-07-14T09:58:42Z</time>
      </trkpt>
      <trkpt lat="45.1902" lon="5.96669">
        <ele>1827.4</ele>
        <time>2026-07-14T09:58:43Z</time>
      </trkpt>
      <trkpt lat="45.1902" lon="5.96669">
        <ele>1827.4</ele>
        <time>2026-07-14T09:58:45Z</time>
      </trkpt>
      <trkpt lat="45.1902" lon="5.96669">
        <ele>1827.4</ele>
        <time>2026-07-14T09:58:46Z</time>
      </trkpt>
      <trkpt lat="45.1902" lon="5.96669">
        <ele>1827.5</ele>
        <time>2026-07-14T09:58:47Z</time>
      </trkpt>
      <trkpt lat="45.1902" lon="5.96669">
        <ele>1827.5</ele>
        <time>2026-07-14T09:58:49Z</time>
      </trkpt>
      <trkpt lat="45.1902" lon="5.96669">
        <ele>1827.5</ele>
        <time>2026-07-14T09:58:50Z</time>
      </trkpt>
      <trkpt lat="45.1902" lon="5.96669">
        <ele>1827.5</ele>
        <time>2026-07-14T09:58:52Z</time>
      </trkpt>
      <trkpt lat="45.1902" lon="5.96669">
        <ele>1827.5</ele>
        <time>2026-07-14T09:58:53Z</time>
      </trkpt>
      <trkpt lat="45.1902" lon="5.96669">
        <ele>1827.6</ele>
        <time>2026-07-14T09:58:54Z</time>
      </trkpt>
      <trkpt lat="45.1902" lon="5.96669">
        <ele>1827.6</ele>
        <time>2026-07-14T09:58:55Z</time>
      </trkpt>
      <trkpt lat="45.1902" lon="5.96669">
        <ele>1827.7</ele>
        <time>2026-07-14T09:58:56Z</time>
      </trkpt>
      <trkpt lat="45.1902" lon="5.96669">
        <ele>1827.7</ele>
        <time>2026-07-14T09:58:57Z</time>
      </trkpt>
      <trkpt lat="45.1902" lon="5.96669">
        <ele>1827.7</ele>
        <time>2026-07-14T09:58:58Z</time>
      </trkpt>
      <trkpt lat="45.1902" lon="5.96669">
        <ele>1827.8</ele>
        <time>2026-07-14T09:58:59Z</time>
      </trkpt>
      <trkpt lat="45.1902" lon="5.96669">
        <ele>1827.8</ele>
        <time>2026-07-14T09:59:00Z</time>
      </trkpt>
      <trkpt lat="45.1902" lon="5.96669">
        <ele>1827.8</ele>
        <time>2026-07-14T09:59:01Z</time>
      </trkpt>
      <trkpt lat="45.1902" lon="5.96669">
        <ele>1827.9</ele>
        <time>2026-07-14T09:59:02Z</time>
      </trkpt>
      <trkpt lat="45.1902" lon="5.96669">
        <ele>1827.9</ele>
        <time>2026-07-14T09:59:03Z</time>
      </trkpt>
      <trkpt lat="45.1902" lon="5.96669">
        <ele>1827.9</ele>
        <time>2026-07-14T09:59:04Z</time>
      </trkpt>
      <trkpt lat="45.1902" lon="5.96669">
        <ele>1827.9</ele>
        <time>2026-07-14T09:59:05Z</time>
      </trkpt>
      <trkpt lat="45.1902" lon="5.96669">
        <ele>1827.9</ele>
        <time>2026-07-14T09:59:06Z</time>
      </trkpt>
      <trkpt lat="45.1902" lon="5.9667">
        <ele>1828</ele>
        <time>2026-07-14T09:59:07Z</time>
      </trkpt>
      <trkpt lat="45.19019" lon="5.9667">
        <ele>1828</ele>
        <time>2026-07-14T09:59:09Z</time>
      </trkpt>
      <trkpt lat="45.19019" lon="5.9667">
        <ele>1828</ele>
        <time>2026-07-14T09:59:11Z</time>
      </trkpt>
      <trkpt lat="45.19019" lon="5.9667">
        <ele>1828</ele>
        <time>2026-07-14T09:59:12Z</time>
      </trkpt>
      <trkpt lat="45.19019" lon="5.9667">
        <ele>1828</ele>
        <time>2026-07-14T09:59:13Z</time>
      </trkpt>
      <trkpt lat="45.19019" lon="5.9667">
        <ele>1828</ele>
        <time>2026-07-14T09:59:14Z</time>
      </trkpt>
      <trkpt lat="45.19019" lon="5.9667">
        <ele>1828</ele>
        <time>2026-07-14T09:59:15Z</time>
      </trkpt>
      <trkpt lat="45.19019" lon="5.9667">
        <ele>1828</ele>
        <time>2026-07-14T09:59:16Z</time>
      </trkpt>
      <trkpt lat="45.19019" lon="5.9667">
        <ele>1828</ele>
        <time>2026-07-14T09:59:17Z</time>
      </trkpt>
      <trkpt lat="45.19019" lon="5.9667">
        <ele>1828</ele>
        <time>2026-07-14T09:59:18Z</time>
      </trkpt>
      <trkpt lat="45.19019" lon="5.9667">
        <ele>1828</ele>
        <time>2026-07-14T09:59:19Z</time>
      </trkpt>
      <trkpt lat="45.19019" lon="5.9667">
        <ele>1828</ele>
        <time>2026-07-14T09:59:20Z</time>
      </trkpt>
      <trkpt lat="45.19019" lon="5.9667">
        <ele>1828</ele>
        <time>2026-07-14T09:59:21Z</time>
      </trkpt>
      <trkpt lat="45.19019" lon="5.9667">
        <ele>1828</ele>
        <time>2026-07-14T09:59:22Z</time>
      </trkpt>
      <trkpt lat="45.19019" lon="5.9667">
        <ele>1828</ele>
        <time>2026-07-14T09:59:23Z</time>
      </trkpt>
      <trkpt lat="45.19019" lon="5.9667">
        <ele>1828</ele>
        <time>2026-07-14T09:59:24Z</time>
      </trkpt>
      <trkpt lat="45.19019" lon="5.9667">
        <ele>1828.1</ele>
        <time>2026-07-14T09:59:25Z</time>
      </trkpt>
      <trkpt lat="45.19019" lon="5.9667">
        <ele>1828.1</ele>
        <time>2026-07-14T09:59:26Z</time>
      </trkpt>
      <trkpt lat="45.19019" lon="5.9667">
        <ele>1828.1</ele>
        <time>2026-07-14T09:59:27Z</time>
      </trkpt>
      <trkpt lat="45.19019" lon="5.9667">
        <ele>1828.1</ele>
        <time>2026-07-14T09:59:28Z</time>
      </trkpt>
      <trkpt lat="45.19019" lon="5.9667">
        <ele>1828.1</ele>
        <time>2026-07-14T09:59:29Z</time>
      </trkpt>
      <trkpt lat="45.19019" lon="5.9667">
        <ele>1828.1</ele>
        <time>2026-07-14T09:59:30Z</time>
      </trkpt>
      <trkpt lat="45.19019" lon="5.9667">
        <ele>1828.1</ele>
        <time>2026-07-14T09:59:31Z</time>
      </trkpt>
      <trkpt lat="45.19019" lon="5.9667">
        <ele>1828.1</ele>
        <time>2026-07-14T09:59:32Z</time>
      </trkpt>
      <trkpt lat="45.19019" lon="5.9667">
        <ele>1828.1</ele>
        <time>2026-07-14T09:59:33Z</time>
      </trkpt>
      <trkpt lat="45.19019" lon="5.9667">
        <ele>1828.1</ele>
        <time>2026-07-14T09:59:34Z</time>
      </trkpt>
      <trkpt lat="45.19019" lon="5.9667">
        <ele>1828.1</ele>
        <time>2026-07-14T09:59:35Z</time>
      </trkpt>
      <trkpt lat="45.19019" lon="5.9667">
        <ele>1828.1</ele>
        <time>2026-07-14T09:59:36Z</time>
      </trkpt>
      <trkpt lat="45.19019" lon="5.9667">
        <ele>1828.1</ele>
        <time>2026-07-14T09:59:37Z</time>
      </trkpt>
      <trkpt lat="45.19019" lon="5.9667">
        <ele>1828.1</ele>
        <time>2026-07-14T09:59:38Z</time>
      </trkpt>
      <trkpt lat="45.19019" lon="5.9667">
        <ele>1828.1</ele>
        <time>2026-07-14T09:59:39Z</time>
      </trkpt>
      <trkpt lat="45.19019" lon="5.9667">
        <ele>1828.1</ele>
        <time>2026-07-14T09:59:40Z</time>
      </trkpt>
      <trkpt lat="45.19019" lon="5.9667">
        <ele>1828.1</ele>
        <time>2026-07-14T09:59:41Z</time>
      </trkpt>
      <trkpt lat="45.19019" lon="5.9667">
        <ele>1828.1</ele>
        <time>2026-07-14T09:59:42Z</time>
      </trkpt>
      <trkpt lat="45.19019" lon="5.9667">
        <ele>1828.1</ele>
        <time>2026-07-14T09:59:43Z</time>
      </trkpt>
      <trkpt lat="45.19019" lon="5.96669">
        <ele>1828.3</ele>
        <time>2026-07-14T09:59:44Z</time>
      </trkpt>
      <trkpt lat="45.19019" lon="5.96669">
        <ele>1828.4</ele>
        <time>2026-07-14T09:59:45Z</time>
      </trkpt>
      <trkpt lat="45.19019" lon="5.96669">
        <ele>1828.4</ele>
        <time>2026-07-14T09:59:47Z</time>
      </trkpt>
      <trkpt lat="45.19019" lon="5.96669">
        <ele>1828.4</ele>
        <time>2026-07-14T09:59:48Z</time>
      </trkpt>
      <trkpt lat="45.19019" lon="5.96669">
        <ele>1828.4</ele>
        <time>2026-07-14T09:59:50Z</time>
      </trkpt>
      <trkpt lat="45.19019" lon="5.96669">
        <ele>1828.4</ele>
        <time>2026-07-14T09:59:51Z</time>
      </trkpt>
      <trkpt lat="45.19019" lon="5.96669">
        <ele>1828.4</ele>
        <time>2026-07-14T09:59:52Z</time>
      </trkpt>
      <trkpt lat="45.19018" lon="5.96669">
        <ele>1828.5</ele>
        <time>2026-07-14T09:59:53Z</time>
      </trkpt>
      <trkpt lat="45.19019" lon="5.96669">
        <ele>1828.7</ele>
        <time>2026-07-14T09:59:54Z</time>
      </trkpt>
      <trkpt lat="45.19019" lon="5.96669">
        <ele>1828.8</ele>
        <time>2026-07-14T09:59:56Z</time>
      </trkpt>
      <trkpt lat="45.1902" lon="5.96669">
        <ele>1828.9</ele>
        <time>2026-07-14T09:59:57Z</time>
      </trkpt>
      <trkpt lat="45.1902" lon="5.96669">
        <ele>1828.9</ele>
        <time>2026-07-14T09:59:59Z</time>
      </trkpt>
      <trkpt lat="45.1902" lon="5.9667">
        <ele>1829.1</ele>
        <time>2026-07-14T10:00:00Z</time>
      </trkpt>
      <trkpt lat="45.1902" lon="5.96671">
        <ele>1829.4</ele>
        <time>2026-07-14T10:00:02Z</time>
      </trkpt>
      <trkpt lat="45.19021" lon="5.96672">
        <ele>1829.5</ele>
        <time>2026-07-14T10:00:04Z</time>
      </trkpt>
      <trkpt lat="45.19021" lon="5.96672">
        <ele>1829.7</ele>
        <time>2026-07-14T10:00:05Z</time>
      </trkpt>
      <trkpt lat="45.19021" lon="5.96673">
        <ele>1829.9</ele>
        <time>2026-07-14T10:00:06Z</time>
      </trkpt>
      <trkpt lat="45.1902" lon="5.96674">
        <ele>1830.2</ele>
        <time>2026-07-14T10:00:08Z</time>
      </trkpt>
      <trkpt lat="45.1902" lon="5.96675">
        <ele>1830.3</ele>
        <time>2026-07-14T10:00:09Z</time>
      </trkpt>
      <trkpt lat="45.1902" lon="5.96675">
        <ele>1830.5</ele>
        <time>2026-07-14T10:00:11Z</time>
      </trkpt>
      <trkpt lat="45.1902" lon="5.96676">
        <ele>1830.6</ele>
        <time>2026-07-14T10:00:12Z</time>
      </trkpt>
      <trkpt lat="45.19021" lon="5.96676">
        <ele>1830.9</ele>
        <time>2026-07-14T10:00:13Z</time>
      </trkpt>
      <trkpt lat="45.19022" lon="5.96676">
        <ele>1831</ele>
        <time>2026-07-14T10:00:14Z</time>
      </trkpt>
      <trkpt lat="45.19022" lon="5.96676">
        <ele>1831.1</ele>
        <time>2026-07-14T10:00:16Z</time>
      </trkpt>
      <trkpt lat="45.19023" lon="5.96676">
        <ele>1831.4</ele>
        <time>2026-07-14T10:00:17Z</time>
      </trkpt>
      <trkpt lat="45.19024" lon="5.96678">
        <ele>1832</ele>
        <time>2026-07-14T10:00:19Z</time>
      </trkpt>
      <trkpt lat="45.19024" lon="5.96679">
        <ele>1832.3</ele>
        <time>2026-07-14T10:00:21Z</time>
      </trkpt>
      <trkpt lat="45.19024" lon="5.9668">
        <ele>1832.4</ele>
        <time>2026-07-14T10:00:22Z</time>
      </trkpt>
      <trkpt lat="45.19024" lon="5.9668">
        <ele>1832.6</ele>
        <time>2026-07-14T10:00:23Z</time>
      </trkpt>
      <trkpt lat="45.19023" lon="5.96681">
        <ele>1832.8</ele>
        <time>2026-07-14T10:00:24Z</time>
      </trkpt>
      <trkpt lat="45.19023" lon="5.96681">
        <ele>1832.9</ele>
        <time>2026-07-14T10:00:25Z</time>
      </trkpt>
      <trkpt lat="45.19023" lon="5.96682">
        <ele>1833</ele>
        <time>2026-07-14T10:00:26Z</time>
      </trkpt>
      <trkpt lat="45.19024" lon="5.96682">
        <ele>1833.2</ele>
        <time>2026-07-14T10:00:27Z</time>
      </trkpt>
      <trkpt lat="45.19024" lon="5.96682">
        <ele>1833.2</ele>
        <time>2026-07-14T10:00:28Z</time>
      </trkpt>
      <trkpt lat="45.19024" lon="5.96682">
        <ele>1833.4</ele>
        <time>2026-07-14T10:00:30Z</time>
      </trkpt>
      <trkpt lat="45.19024" lon="5.96682">
        <ele>1833.4</ele>
        <time>2026-07-14T10:00:31Z</time>
      </trkpt>
      <trkpt lat="45.19025" lon="5.96683">
        <ele>1833.6</ele>
        <time>2026-07-14T10:00:33Z</time>
      </trkpt>
      <trkpt lat="45.19025" lon="5.96683">
        <ele>1833.8</ele>
        <time>2026-07-14T10:00:34Z</time>
      </trkpt>
      <trkpt lat="45.19026" lon="5.96684">
        <ele>1834.1</ele>
        <time>2026-07-14T10:00:35Z</time>
      </trkpt>
      <trkpt lat="45.19026" lon="5.96684">
        <ele>1834.2</ele>
        <time>2026-07-14T10:00:37Z</time>
      </trkpt>
      <trkpt lat="45.19027" lon="5.96685">
        <ele>1834.6</ele>
        <time>2026-07-14T10:00:38Z</time>
      </trkpt>
      <trkpt lat="45.19028" lon="5.96685">
        <ele>1834.8</ele>
        <time>2026-07-14T10:00:40Z</time>
      </trkpt>
      <trkpt lat="45.19028" lon="5.96685">
        <ele>1835</ele>
        <time>2026-07-14T10:00:42Z</time>
      </trkpt>
      <trkpt lat="45.1903" lon="5.96686">
        <ele>1835.4</ele>
        <time>2026-07-14T10:00:43Z</time>
      </trkpt>
      <trkpt lat="45.1903" lon="5.96686">
        <ele>1835.6</ele>
        <time>2026-07-14T10:00:45Z</time>
      </trkpt>
      <trkpt lat="45.1903" lon="5.96687">
        <ele>1835.9</ele>
        <time>2026-07-14T10:00:46Z</time>
      </trkpt>
      <trkpt lat="45.1903" lon="5.96688">
        <ele>1836.2</ele>
        <time>2026-07-14T10:00:47Z</time>
      </trkpt>
      <trkpt lat="45.19029" lon="5.96689">
        <ele>1836.5</ele>
        <time>2026-07-14T10:00:48Z</time>
      </trkpt>
      <trkpt lat="45.19029" lon="5.96689">
        <ele>1836.7</ele>
        <time>2026-07-14T10:00:49Z</time>
      </trkpt>
      <trkpt lat="45.19028" lon="5.96689">
        <ele>1836.9</ele>
        <time>2026-07-14T10:00:50Z</time>
      </trkpt>
      <trkpt lat="45.19028" lon="5.96689">
        <ele>1837.1</ele>
        <time>2026-07-14T10:00:51Z</time>
      </trkpt>
      <trkpt lat="45.19027" lon="5.9669">
        <ele>1837.2</ele>
        <time>2026-07-14T10:00:52Z</time>
      </trkpt>
      <trkpt lat="45.19027" lon="5.9669">
        <ele>1837.2</ele>
        <time>2026-07-14T10:00:53Z</time>
      </trkpt>
      <trkpt lat="45.19027" lon="5.9669">
        <ele>1837.4</ele>
        <time>2026-07-14T10:00:54Z</time>
      </trkpt>
      <trkpt lat="45.19027" lon="5.96691">
        <ele>1837.6</ele>
        <time>2026-07-14T10:00:55Z</time>
      </trkpt>
      <trkpt lat="45.19028" lon="5.96692">
        <ele>1837.8</ele>
        <time>2026-07-14T10:00:56Z</time>
      </trkpt>
      <trkpt lat="45.19028" lon="5.96693">
        <ele>1838.1</ele>
        <time>2026-07-14T10:00:57Z</time>
      </trkpt>
      <trkpt lat="45.19029" lon="5.96694">
        <ele>1838.3</ele>
        <time>2026-07-14T10:00:58Z</time>
      </trkpt>
      <trkpt lat="45.19029" lon="5.96694">
        <ele>1838.5</ele>
        <time>2026-07-14T10:00:59Z</time>
      </trkpt>
      <trkpt lat="45.19029" lon="5.96695">
        <ele>1838.7</ele>
        <time>2026-07-14T10:01:00Z</time>
      </trkpt>
      <trkpt lat="45.1903" lon="5.96695">
        <ele>1838.8</ele>
        <time>2026-07-14T10:01:02Z</time>
      </trkpt>
      <trkpt lat="45.1903" lon="5.96695">
        <ele>1839</ele>
        <time>2026-07-14T10:01:03Z</time>
      </trkpt>
      <trkpt lat="45.19031" lon="5.96695">
        <ele>1839.2</ele>
        <time>2026-07-14T10:01:04Z</time>
      </trkpt>
      <trkpt lat="45.19031" lon="5.96695">
        <ele>1839.2</ele>
        <time>2026-07-14T10:01:06Z</time>
      </trkpt>
      <trkpt lat="45.19031" lon="5.96695">
        <ele>1839.3</ele>
        <time>2026-07-14T10:01:07Z</time>
      </trkpt>
      <trkpt lat="45.19031" lon="5.96696">
        <ele>1839.4</ele>
        <time>2026-07-14T10:01:08Z</time>
      </trkpt>
      <trkpt lat="45.19032" lon="5.96697">
        <ele>1839.7</ele>
        <time>2026-07-14T10:01:09Z</time>
      </trkpt>
      <trkpt lat="45.19032" lon="5.96697">
        <ele>1839.9</ele>
        <time>2026-07-14T10:01:11Z</time>
      </trkpt>
      <trkpt lat="45.19033" lon="5.96697">
        <ele>1840.1</ele>
        <time>2026-07-14T10:01:13Z</time>
      </trkpt>
      <trkpt lat="45.19033" lon="5.96697">
        <ele>1840.2</ele>
        <time>2026-07-14T10:01:14Z</time>
      </trkpt>
      <trkpt lat="45.19034" lon="5.96696">
        <ele>1840.4</ele>
        <time>2026-07-14T10:01:15Z</time>
      </trkpt>
      <trkpt lat="45.19034" lon="5.96696">
        <ele>1840.5</ele>
        <time>2026-07-14T10:01:16Z</time>
      </trkpt>
      <trkpt lat="45.19034" lon="5.96697">
        <ele>1840.6</ele>
        <time>2026-07-14T10:01:17Z</time>
      </trkpt>
      <trkpt lat="45.19035" lon="5.96697">
        <ele>1840.7</ele>
        <time>2026-07-14T10:01:18Z</time>
      </trkpt>
      <trkpt lat="45.19035" lon="5.96697">
        <ele>1840.8</ele>
        <time>2026-07-14T10:01:19Z</time>
      </trkpt>
      <trkpt lat="45.19035" lon="5.96698">
        <ele>1841</ele>
        <time>2026-07-14T10:01:20Z</time>
      </trkpt>
      <trkpt lat="45.19035" lon="5.96699">
        <ele>1841.1</ele>
        <time>2026-07-14T10:01:21Z</time>
      </trkpt>
      <trkpt lat="45.19036" lon="5.96699">
        <ele>1841.3</ele>
        <time>2026-07-14T10:01:22Z</time>
      </trkpt>
      <trkpt lat="45.19036" lon="5.967">
        <ele>1841.5</ele>
        <time>2026-07-14T10:01:24Z</time>
      </trkpt>
      <trkpt lat="45.19036" lon="5.96701">
        <ele>1841.7</ele>
        <time>2026-07-14T10:01:25Z</time>
      </trkpt>
      <trkpt lat="45.19037" lon="5.96701">
        <ele>1841.9</ele>
        <time>2026-07-14T10:01:27Z</time>
      </trkpt>
      <trkpt lat="45.19037" lon="5.96702">
        <ele>1842.1</ele>
        <time>2026-07-14T10:01:28Z</time>
      </trkpt>
      <trkpt lat="45.19037" lon="5.96702">
        <ele>1842.2</ele>
        <time>2026-07-14T10:01:29Z</time>
      </trkpt>
      <trkpt lat="45.19038" lon="5.96702">
        <ele>1842.3</ele>
        <time>2026-07-14T10:01:30Z</time>
      </trkpt>
      <trkpt lat="45.19038" lon="5.96703">
        <ele>1842.3</ele>
        <time>2026-07-14T10:01:31Z</time>
      </trkpt>
      <trkpt lat="45.19038" lon="5.96703">
        <ele>1842.5</ele>
        <time>2026-07-14T10:01:32Z</time>
      </trkpt>
      <trkpt lat="45.19038" lon="5.96703">
        <ele>1842.5</ele>
        <time>2026-07-14T10:01:33Z</time>
      </trkpt>
      <trkpt lat="45.19038" lon="5.96704">
        <ele>1842.6</ele>
        <time>2026-07-14T10:01:34Z</time>
      </trkpt>
      <trkpt lat="45.19039" lon="5.96704">
        <ele>1842.7</ele>
        <time>2026-07-14T10:01:35Z</time>
      </trkpt>
      <trkpt lat="45.19039" lon="5.96704">
        <ele>1842.8</ele>
        <time>2026-07-14T10:01:36Z</time>
      </trkpt>
      <trkpt lat="45.19039" lon="5.96704">
        <ele>1842.9</ele>
        <time>2026-07-14T10:01:37Z</time>
      </trkpt>
      <trkpt lat="45.1904" lon="5.96705">
        <ele>1843</ele>
        <time>2026-07-14T10:01:38Z</time>
      </trkpt>
      <trkpt lat="45.1904" lon="5.96705">
        <ele>1843.2</ele>
        <time>2026-07-14T10:01:39Z</time>
      </trkpt>
      <trkpt lat="45.1904" lon="5.96706">
        <ele>1843.3</ele>
        <time>2026-07-14T10:01:40Z</time>
      </trkpt>
      <trkpt lat="45.19041" lon="5.96706">
        <ele>1843.5</ele>
        <time>2026-07-14T10:01:41Z</time>
      </trkpt>
      <trkpt lat="45.19041" lon="5.96707">
        <ele>1843.6</ele>
        <time>2026-07-14T10:01:42Z</time>
      </trkpt>
      <trkpt lat="45.19042" lon="5.96708">
        <ele>1843.9</ele>
        <time>2026-07-14T10:01:44Z</time>
      </trkpt>
      <trkpt lat="45.19042" lon="5.96708">
        <ele>1844</ele>
        <time>2026-07-14T10:01:45Z</time>
      </trkpt>
      <trkpt lat="45.19042" lon="5.96709">
        <ele>1844.2</ele>
        <time>2026-07-14T10:01:46Z</time>
      </trkpt>
      <trkpt lat="45.19043" lon="5.9671">
        <ele>1844.4</ele>
        <time>2026-07-14T10:01:47Z</time>
      </trkpt>
      <trkpt lat="45.19043" lon="5.96711">
        <ele>1844.6</ele>
        <time>2026-07-14T10:01:48Z</time>
      </trkpt>
      <trkpt lat="45.19043" lon="5.96712">
        <ele>1844.9</ele>
        <time>2026-07-14T10:01:50Z</time>
      </trkpt>
      <trkpt lat="45.19044" lon="5.96713">
        <ele>1845.1</ele>
        <time>2026-07-14T10:01:51Z</time>
      </trkpt>
      <trkpt lat="45.19044" lon="5.96714">
        <ele>1845.4</ele>
        <time>2026-07-14T10:01:52Z</time>
      </trkpt>
      <trkpt lat="45.19045" lon="5.96715">
        <ele>1845.6</ele>
        <time>2026-07-14T10:01:53Z</time>
      </trkpt>
      <trkpt lat="45.19045" lon="5.96716">
        <ele>1845.7</ele>
        <time>2026-07-14T10:01:54Z</time>
      </trkpt>
      <trkpt lat="45.19045" lon="5.96716">
        <ele>1845.9</ele>
        <time>2026-07-14T10:01:55Z</time>
      </trkpt>
      <trkpt lat="45.19046" lon="5.96718">
        <ele>1846.3</ele>
        <time>2026-07-14T10:01:57Z</time>
      </trkpt>
      <trkpt lat="45.19046" lon="5.96719">
        <ele>1846.5</ele>
        <time>2026-07-14T10:01:58Z</time>
      </trkpt>
      <trkpt lat="45.19046" lon="5.9672">
        <ele>1846.7</ele>
        <time>2026-07-14T10:01:59Z</time>
      </trkpt>
      <trkpt lat="45.19047" lon="5.96721">
        <ele>1846.8</ele>
        <time>2026-07-14T10:02:00Z</time>
      </trkpt>
      <trkpt lat="45.19047" lon="5.96721">
        <ele>1847</ele>
        <time>2026-07-14T10:02:01Z</time>
      </trkpt>
      <trkpt lat="45.19047" lon="5.96722">
        <ele>1847.3</ele>
        <time>2026-07-14T10:02:03Z</time>
      </trkpt>
      <trkpt lat="45.19048" lon="5.96723">
        <ele>1847.4</ele>
        <time>2026-07-14T10:02:04Z</time>
      </trkpt>
      <trkpt lat="45.19048" lon="5.96724">
        <ele>1847.6</ele>
        <time>2026-07-14T10:02:05Z</time>
      </trkpt>
      <trkpt lat="45.19048" lon="5.96724">
        <ele>1847.7</ele>
        <time>2026-07-14T10:02:06Z</time>
      </trkpt>
      <trkpt lat="45.19048" lon="5.96725">
        <ele>1847.9</ele>
        <time>2026-07-14T10:02:07Z</time>
      </trkpt>
      <trkpt lat="45.19048" lon="5.96726">
        <ele>1848.1</ele>
        <time>2026-07-14T10:02:08Z</time>
      </trkpt>
      <trkpt lat="45.19047" lon="5.96726">
        <ele>1848.4</ele>
        <time>2026-07-14T10:02:10Z</time>
      </trkpt>
      <trkpt lat="45.19046" lon="5.96726">
        <ele>1848.6</ele>
        <time>2026-07-14T10:02:11Z</time>
      </trkpt>
      <trkpt lat="45.19046" lon="5.96726">
        <ele>1848.7</ele>
        <time>2026-07-14T10:02:12Z</time>
      </trkpt>
      <trkpt lat="45.19045" lon="5.96726">
        <ele>1848.8</ele>
        <time>2026-07-14T10:02:13Z</time>
      </trkpt>
      <trkpt lat="45.19045" lon="5.96725">
        <ele>1849.1</ele>
        <time>2026-07-14T10:02:15Z</time>
      </trkpt>
      <trkpt lat="45.19044" lon="5.96724">
        <ele>1849.3</ele>
        <time>2026-07-14T10:02:16Z</time>
      </trkpt>
      <trkpt lat="45.19044" lon="5.96724">
        <ele>1849.5</ele>
        <time>2026-07-14T10:02:18Z</time>
      </trkpt>
      <trkpt lat="45.19043" lon="5.96724">
        <ele>1849.7</ele>
        <time>2026-07-14T10:02:19Z</time>
      </trkpt>
      <trkpt lat="45.19043" lon="5.96724">
        <ele>1849.7</ele>
        <time>2026-07-14T10:02:20Z</time>
      </trkpt>
      <trkpt lat="45.19043" lon="5.96724">
        <ele>1849.8</ele>
        <time>2026-07-14T10:02:21Z</time>
      </trkpt>
      <trkpt lat="45.19042" lon="5.96724">
        <ele>1850</ele>
        <time>2026-07-14T10:02:22Z</time>
      </trkpt>
      <trkpt lat="45.19042" lon="5.96724">
        <ele>1850.2</ele>
        <time>2026-07-14T10:02:24Z</time>
      </trkpt>
      <trkpt lat="45.19041" lon="5.96724">
        <ele>1850.3</ele>
        <time>2026-07-14T10:02:25Z</time>
      </trkpt>
      <trkpt lat="45.19041" lon="5.96724">
        <ele>1850.4</ele>
        <time>2026-07-14T10:02:26Z</time>
      </trkpt>
      <trkpt lat="45.19041" lon="5.96726">
        <ele>1850.7</ele>
        <time>2026-07-14T10:02:28Z</time>
      </trkpt>
      <trkpt lat="45.19042" lon="5.96727">
        <ele>1851</ele>
        <time>2026-07-14T10:02:30Z</time>
      </trkpt>
      <trkpt lat="45.19042" lon="5.96728">
        <ele>1851.3</ele>
        <time>2026-07-14T10:02:32Z</time>
      </trkpt>
      <trkpt lat="45.19042" lon="5.96729">
        <ele>1851.6</ele>
        <time>2026-07-14T10:02:34Z</time>
      </trkpt>
      <trkpt lat="45.19042" lon="5.9673">
        <ele>1851.7</ele>
        <time>2026-07-14T10:02:35Z</time>
      </trkpt>
      <trkpt lat="45.19042" lon="5.9673">
        <ele>1851.9</ele>
        <time>2026-07-14T10:02:37Z</time>
      </trkpt>
      <trkpt lat="45.19042" lon="5.96731">
        <ele>1852</ele>
        <time>2026-07-14T10:02:38Z</time>
      </trkpt>
      <trkpt lat="45.19042" lon="5.96731">
        <ele>1852.1</ele>
        <time>2026-07-14T10:02:40Z</time>
      </trkpt>
      <trkpt lat="45.19042" lon="5.96732">
        <ele>1852.4</ele>
        <time>2026-07-14T10:02:41Z</time>
      </trkpt>
      <trkpt lat="45.19043" lon="5.96733">
        <ele>1852.5</ele>
        <time>2026-07-14T10:02:42Z</time>
      </trkpt>
      <trkpt lat="45.19043" lon="5.96733">
        <ele>1852.6</ele>
        <time>2026-07-14T10:02:43Z</time>
      </trkpt>
      <trkpt lat="45.19043" lon="5.96733">
        <ele>1852.7</ele>
        <time>2026-07-14T10:02:44Z</time>
      </trkpt>
      <trkpt lat="45.19043" lon="5.96733">
        <ele>1852.7</ele>
        <time>2026-07-14T10:02:45Z</time>
      </trkpt>
      <trkpt lat="45.19043" lon="5.96734">
        <ele>1852.8</ele>
        <time>2026-07-14T10:02:46Z</time>
      </trkpt>
      <trkpt lat="45.19043" lon="5.96734">
        <ele>1852.9</ele>
        <time>2026-07-14T10:02:48Z</time>
      </trkpt>
      <trkpt lat="45.19044" lon="5.96735">
        <ele>1853.2</ele>
        <time>2026-07-14T10:02:49Z</time>
      </trkpt>
      <trkpt lat="45.19044" lon="5.96736">
        <ele>1853.6</ele>
        <time>2026-07-14T10:02:51Z</time>
      </trkpt>
      <trkpt lat="45.19044" lon="5.96737">
        <ele>1853.7</ele>
        <time>2026-07-14T10:02:52Z</time>
      </trkpt>
      <trkpt lat="45.19044" lon="5.96738">
        <ele>1853.9</ele>
        <time>2026-07-14T10:02:53Z</time>
      </trkpt>
      <trkpt lat="45.19044" lon="5.96739">
        <ele>1854.2</ele>
        <time>2026-07-14T10:02:55Z</time>
      </trkpt>
      <trkpt lat="45.19044" lon="5.96739">
        <ele>1854.4</ele>
        <time>2026-07-14T10:02:56Z</time>
      </trkpt>
      <trkpt lat="45.19044" lon="5.9674">
        <ele>1854.5</ele>
        <time>2026-07-14T10:02:57Z</time>
      </trkpt>
      <trkpt lat="45.19044" lon="5.96741">
        <ele>1854.7</ele>
        <time>2026-07-14T10:02:58Z</time>
      </trkpt>
      <trkpt lat="45.19043" lon="5.96741">
        <ele>1855</ele>
        <time>2026-07-14T10:02:59Z</time>
      </trkpt>
      <trkpt lat="45.19043" lon="5.96743">
        <ele>1855.4</ele>
        <time>2026-07-14T10:03:01Z</time>
      </trkpt>
      <trkpt lat="45.19043" lon="5.96743">
        <ele>1855.5</ele>
        <time>2026-07-14T10:03:02Z</time>
      </trkpt>
      <trkpt lat="45.19043" lon="5.96744">
        <ele>1855.7</ele>
        <time>2026-07-14T10:03:03Z</time>
      </trkpt>
      <trkpt lat="45.19043" lon="5.96744">
        <ele>1855.8</ele>
        <time>2026-07-14T10:03:04Z</time>
      </trkpt>
      <trkpt lat="45.19044" lon="5.96744">
        <ele>1855.9</ele>
        <time>2026-07-14T10:03:05Z</time>
      </trkpt>
      <trkpt lat="45.19044" lon="5.96745">
        <ele>1856</ele>
        <time>2026-07-14T10:03:06Z</time>
      </trkpt>
      <trkpt lat="45.19044" lon="5.96745">
        <ele>1856.3</ele>
        <time>2026-07-14T10:03:08Z</time>
      </trkpt>
      <trkpt lat="45.19044" lon="5.96745">
        <ele>1856.3</ele>
        <time>2026-07-14T10:03:09Z</time>
      </trkpt>
      <trkpt lat="45.19044" lon="5.96746">
        <ele>1856.4</ele>
        <time>2026-07-14T10:03:10Z</time>
      </trkpt>
      <trkpt lat="45.19044" lon="5.96746">
        <ele>1856.6</ele>
        <time>2026-07-14T10:03:11Z</time>
      </trkpt>
      <trkpt lat="45.19044" lon="5.96747">
        <ele>1856.8</ele>
        <time>2026-07-14T10:03:12Z</time>
      </trkpt>
      <trkpt lat="45.19044" lon="5.96748">
        <ele>1857</ele>
        <time>2026-07-14T10:03:13Z</time>
      </trkpt>
      <trkpt lat="45.19045" lon="5.96748">
        <ele>1857.2</ele>
        <time>2026-07-14T10:03:14Z</time>
      </trkpt>
      <trkpt lat="45.19045" lon="5.96749">
        <ele>1857.4</ele>
        <time>2026-07-14T10:03:15Z</time>
      </trkpt>
      <trkpt lat="45.19046" lon="5.96749">
        <ele>1857.6</ele>
        <time>2026-07-14T10:03:16Z</time>
      </trkpt>
      <trkpt lat="45.19046" lon="5.96749">
        <ele>1857.7</ele>
        <time>2026-07-14T10:03:17Z</time>
      </trkpt>
      <trkpt lat="45.19046" lon="5.96749">
        <ele>1857.8</ele>
        <time>2026-07-14T10:03:18Z</time>
      </trkpt>
      <trkpt lat="45.19046" lon="5.9675">
        <ele>1858</ele>
        <time>2026-07-14T10:03:19Z</time>
      </trkpt>
      <trkpt lat="45.19047" lon="5.9675">
        <ele>1858.2</ele>
        <time>2026-07-14T10:03:20Z</time>
      </trkpt>
      <trkpt lat="45.19047" lon="5.9675">
        <ele>1858.3</ele>
        <time>2026-07-14T10:03:21Z</time>
      </trkpt>
      <trkpt lat="45.19047" lon="5.96752">
        <ele>1858.7</ele>
        <time>2026-07-14T10:03:23Z</time>
      </trkpt>
      <trkpt lat="45.19047" lon="5.96753">
        <ele>1858.9</ele>
        <time>2026-07-14T10:03:24Z</time>
      </trkpt>
      <trkpt lat="45.19047" lon="5.96753">
        <ele>1859.1</ele>
        <time>2026-07-14T10:03:25Z</time>
      </trkpt>
      <trkpt lat="45.19046" lon="5.96753">
        <ele>1859.3</ele>
        <time>2026-07-14T10:03:26Z</time>
      </trkpt>
      <trkpt lat="45.19046" lon="5.96753">
        <ele>1859.5</ele>
        <time>2026-07-14T10:03:27Z</time>
      </trkpt>
      <trkpt lat="45.19046" lon="5.96753">
        <ele>1859.6</ele>
        <time>2026-07-14T10:03:28Z</time>
      </trkpt>
      <trkpt lat="45.19045" lon="5.96753">
        <ele>1859.8</ele>
        <time>2026-07-14T10:03:29Z</time>
      </trkpt>
      <trkpt lat="45.19045" lon="5.96753">
        <ele>1859.9</ele>
        <time>2026-07-14T10:03:30Z</time>
      </trkpt>
      <trkpt lat="45.19044" lon="5.96753">
        <ele>1860.1</ele>
        <time>2026-07-14T10:03:31Z</time>
      </trkpt>
      <trkpt lat="45.19044" lon="5.96753">
        <ele>1860.2</ele>
        <time>2026-07-14T10:03:32Z</time>
      </trkpt>
      <trkpt lat="45.19044" lon="5.96753">
        <ele>1860.4</ele>
        <time>2026-07-14T10:03:33Z</time>
      </trkpt>
      <trkpt lat="45.19043" lon="5.96753">
        <ele>1860.5</ele>
        <time>2026-07-14T10:03:34Z</time>
      </trkpt>
      <trkpt lat="45.19043" lon="5.96754">
        <ele>1860.8</ele>
        <time>2026-07-14T10:03:36Z</time>
      </trkpt>
      <trkpt lat="45.19043" lon="5.96754">
        <ele>1860.8</ele>
        <time>2026-07-14T10:03:37Z</time>
      </trkpt>
      <trkpt lat="45.19043" lon="5.96755">
        <ele>1861</ele>
        <time>2026-07-14T10:03:38Z</time>
      </trkpt>
      <trkpt lat="45.19043" lon="5.96755">
        <ele>1861.2</ele>
        <time>2026-07-14T10:03:39Z</time>
      </trkpt>
      <trkpt lat="45.19043" lon="5.96756">
        <ele>1861.3</ele>
        <time>2026-07-14T10:03:40Z</time>
      </trkpt>
      <trkpt lat="45.19043" lon="5.96756">
        <ele>1861.4</ele>
        <time>2026-07-14T10:03:41Z</time>
      </trkpt>
      <trkpt lat="45.19043" lon="5.96757">
        <ele>1861.5</ele>
        <time>2026-07-14T10:03:43Z</time>
      </trkpt>
      <trkpt lat="45.19043" lon="5.96757">
        <ele>1861.7</ele>
        <time>2026-07-14T10:03:44Z</time>
      </trkpt>
      <trkpt lat="45.19043" lon="5.96759">
        <ele>1862.1</ele>
        <time>2026-07-14T10:03:45Z</time>
      </trkpt>
      <trkpt lat="45.19044" lon="5.96759">
        <ele>1862.3</ele>
        <time>2026-07-14T10:03:46Z</time>
      </trkpt>
      <trkpt lat="45.19044" lon="5.9676">
        <ele>1862.4</ele>
        <time>2026-07-14T10:03:47Z</time>
      </trkpt>
      <trkpt lat="45.19044" lon="5.9676">
        <ele>1862.5</ele>
        <time>2026-07-14T10:03:48Z</time>
      </trkpt>
      <trkpt lat="45.19044" lon="5.96761">
        <ele>1862.7</ele>
        <time>2026-07-14T10:03:49Z</time>
      </trkpt>
      <trkpt lat="45.19044" lon="5.96761">
        <ele>1862.9</ele>
        <time>2026-07-14T10:03:50Z</time>
      </trkpt>
      <trkpt lat="45.19044" lon="5.96762">
        <ele>1863.1</ele>
        <time>2026-07-14T10:03:52Z</time>
      </trkpt>
      <trkpt lat="45.19045" lon="5.96762">
        <ele>1863.3</ele>
        <time>2026-07-14T10:03:53Z</time>
      </trkpt>
      <trkpt lat="45.19045" lon="5.96763">
        <ele>1863.3</ele>
        <time>2026-07-14T10:03:54Z</time>
      </trkpt>
      <trkpt lat="45.19045" lon="5.96763">
        <ele>1863.4</ele>
        <time>2026-07-14T10:03:55Z</time>
      </trkpt>
      <trkpt lat="45.19045" lon="5.96763">
        <ele>1863.6</ele>
        <time>2026-07-14T10:03:56Z</time>
      </trkpt>
      <trkpt lat="45.19045" lon="5.96764">
        <ele>1863.8</ele>
        <time>2026-07-14T10:03:57Z</time>
      </trkpt>
      <trkpt lat="45.19044" lon="5.96765">
        <ele>1863.9</ele>
        <time>2026-07-14T10:03:58Z</time>
      </trkpt>
      <trkpt lat="45.19045" lon="5.96765">
        <ele>1864.1</ele>
        <time>2026-07-14T10:04:00Z</time>
      </trkpt>
      <trkpt lat="45.19045" lon="5.96766">
        <ele>1864.3</ele>
        <time>2026-07-14T10:04:01Z</time>
      </trkpt>
      <trkpt lat="45.19045" lon="5.96766">
        <ele>1864.5</ele>
        <time>2026-07-14T10:04:02Z</time>
      </trkpt>
      <trkpt lat="45.19046" lon="5.96767">
        <ele>1864.7</ele>
        <time>2026-07-14T10:04:04Z</time>
      </trkpt>
      <trkpt lat="45.19047" lon="5.96766">
        <ele>1865</ele>
        <time>2026-07-14T10:04:05Z</time>
      </trkpt>
      <trkpt lat="45.19047" lon="5.96766">
        <ele>1865.1</ele>
        <time>2026-07-14T10:04:06Z</time>
      </trkpt>
      <trkpt lat="45.19047" lon="5.96767">
        <ele>1865.4</ele>
        <time>2026-07-14T10:04:08Z</time>
      </trkpt>
      <trkpt lat="45.19047" lon="5.96767">
        <ele>1865.5</ele>
        <time>2026-07-14T10:04:10Z</time>
      </trkpt>
      <trkpt lat="45.19048" lon="5.96768">
        <ele>1865.8</ele>
        <time>2026-07-14T10:04:11Z</time>
      </trkpt>
      <trkpt lat="45.19047" lon="5.96769">
        <ele>1865.9</ele>
        <time>2026-07-14T10:04:12Z</time>
      </trkpt>
      <trkpt lat="45.19047" lon="5.96769">
        <ele>1866.1</ele>
        <time>2026-07-14T10:04:13Z</time>
      </trkpt>
      <trkpt lat="45.19046" lon="5.9677">
        <ele>1866.5</ele>
        <time>2026-07-14T10:04:15Z</time>
      </trkpt>
      <trkpt lat="45.19046" lon="5.96771">
        <ele>1866.7</ele>
        <time>2026-07-14T10:04:16Z</time>
      </trkpt>
      <trkpt lat="45.19045" lon="5.96771">
        <ele>1866.9</ele>
        <time>2026-07-14T10:04:17Z</time>
      </trkpt>
      <trkpt lat="45.19045" lon="5.96771">
        <ele>1867.1</ele>
        <time>2026-07-14T10:04:18Z</time>
      </trkpt>
      <trkpt lat="45.19045" lon="5.96772">
        <ele>1867.3</ele>
        <time>2026-07-14T10:04:20Z</time>
      </trkpt>
      <trkpt lat="45.19044" lon="5.96773">
        <ele>1867.5</ele>
        <time>2026-07-14T10:04:21Z</time>
      </trkpt>
      <trkpt lat="45.19044" lon="5.96774">
        <ele>1867.7</ele>
        <time>2026-07-14T10:04:22Z</time>
      </trkpt>
      <trkpt lat="45.19045" lon="5.96773">
        <ele>1867.8</ele>
        <time>2026-07-14T10:04:23Z</time>
      </trkpt>
      <trkpt lat="45.19045" lon="5.96773">
        <ele>1867.8</ele>
        <time>2026-07-14T10:04:25Z</time>
      </trkpt>
      <trkpt lat="45.19045" lon="5.96773">
        <ele>1867.9</ele>
        <time>2026-07-14T10:04:26Z</time>
      </trkpt>
      <trkpt lat="45.19045" lon="5.96773">
        <ele>1867.9</ele>
        <time>2026-07-14T10:04:27Z</time>
      </trkpt>
      <trkpt lat="45.19045" lon="5.96773">
        <ele>1867.9</ele>
        <time>2026-07-14T10:04:28Z</time>
      </trkpt>
      <trkpt lat="45.19045" lon="5.96773">
        <ele>1868</ele>
        <time>2026-07-14T10:04:29Z</time>
      </trkpt>
      <trkpt lat="45.19045" lon="5.96773">
        <ele>1868</ele>
        <time>2026-07-14T10:04:31Z</time>
      </trkpt>
      <trkpt lat="45.19044" lon="5.96773">
        <ele>1868</ele>
        <time>2026-07-14T10:04:32Z</time>
      </trkpt>
      <trkpt lat="45.19044" lon="5.96773">
        <ele>1868.1</ele>
        <time>2026-07-14T10:04:33Z</time>
      </trkpt>
      <trkpt lat="45.19045" lon="5.96773">
        <ele>1868.1</ele>
        <time>2026-07-14T10:04:35Z</time>
      </trkpt>
      <trkpt lat="45.19045" lon="5.96774">
        <ele>1868.2</ele>
        <time>2026-07-14T10:04:36Z</time>
      </trkpt>
      <trkpt lat="45.19045" lon="5.96774">
        <ele>1868.3</ele>
        <time>2026-07-14T10:04:37Z</time>
      </trkpt>
      <trkpt lat="45.19045" lon="5.96774">
        <ele>1868.3</ele>
        <time>2026-07-14T10:04:38Z</time>
      </trkpt>
      <trkpt lat="45.19045" lon="5.96774">
        <ele>1868.3</ele>
        <time>2026-07-14T10:04:40Z</time>
      </trkpt>
      <trkpt lat="45.19045" lon="5.96774">
        <ele>1868.4</ele>
        <time>2026-07-14T10:04:41Z</time>
      </trkpt>
      <trkpt lat="45.19045" lon="5.96774">
        <ele>1868.4</ele>
        <time>2026-07-14T10:04:42Z</time>
      </trkpt>
      <trkpt lat="45.19045" lon="5.96774">
        <ele>1868.4</ele>
        <time>2026-07-14T10:04:43Z</time>
      </trkpt>
      <trkpt lat="45.19045" lon="5.96774">
        <ele>1868.5</ele>
        <time>2026-07-14T10:04:44Z</time>
      </trkpt>
      <trkpt lat="45.19045" lon="5.96774">
        <ele>1868.5</ele>
        <time>2026-07-14T10:04:45Z</time>
      </trkpt>
      <trkpt lat="45.19045" lon="5.96774">
        <ele>1868.5</ele>
        <time>2026-07-14T10:04:46Z</time>
      </trkpt>
      <trkpt lat="45.19045" lon="5.96774">
        <ele>1868.5</ele>
        <time>2026-07-14T10:04:47Z</time>
      </trkpt>
      <trkpt lat="45.19045" lon="5.96774">
        <ele>1868.5</ele>
        <time>2026-07-14T10:04:48Z</time>
      </trkpt>
      <trkpt lat="45.19045" lon="5.96774">
        <ele>1868.5</ele>
        <time>2026-07-14T10:04:49Z</time>
      </trkpt>
      <trkpt lat="45.19045" lon="5.96774">
        <ele>1868.5</ele>
        <time>2026-07-14T10:04:50Z</time>
      </trkpt>
      <trkpt lat="45.19045" lon="5.96774">
        <ele>1868.5</ele>
        <time>2026-07-14T10:04:51Z</time>
      </trkpt>
      <trkpt lat="45.19045" lon="5.96774">
        <ele>1868.5</ele>
        <time>2026-07-14T10:04:53Z</time>
      </trkpt>
      <trkpt lat="45.19045" lon="5.96774">
        <ele>1868.6</ele>
        <time>2026-07-14T10:04:54Z</time>
      </trkpt>
      <trkpt lat="45.19045" lon="5.96774">
        <ele>1868.6</ele>
        <time>2026-07-14T10:04:55Z</time>
      </trkpt>
      <trkpt lat="45.19045" lon="5.96774">
        <ele>1868.6</ele>
        <time>2026-07-14T10:04:56Z</time>
      </trkpt>
      <trkpt lat="45.19045" lon="5.96774">
        <ele>1868.6</ele>
        <time>2026-07-14T10:04:57Z</time>
      </trkpt>
      <trkpt lat="45.19045" lon="5.96774">
        <ele>1868.6</ele>
        <time>2026-07-14T10:04:58Z</time>
      </trkpt>
      <trkpt lat="45.19045" lon="5.96774">
        <ele>1868.6</ele>
        <time>2026-07-14T10:04:59Z</time>
      </trkpt>
      <trkpt lat="45.19045" lon="5.96774">
        <ele>1868.6</ele>
        <time>2026-07-14T10:05:01Z</time>
      </trkpt>
      <trkpt lat="45.19045" lon="5.96774">
        <ele>1868.6</ele>
        <time>2026-07-14T10:05:02Z</time>
      </trkpt>
      <trkpt lat="45.19045" lon="5.96774">
        <ele>1868.6</ele>
        <time>2026-07-14T10:05:03Z</time>
      </trkpt>
      <trkpt lat="45.19045" lon="5.96774">
        <ele>1868.6</ele>
        <time>2026-07-14T10:05:04Z</time>
      </trkpt>
      <trkpt lat="45.19045" lon="5.96774">
        <ele>1868.7</ele>
        <time>2026-07-14T10:05:06Z</time>
      </trkpt>
      <trkpt lat="45.19045" lon="5.96774">
        <ele>1868.7</ele>
        <time>2026-07-14T10:05:07Z</time>
      </trkpt>
      <trkpt lat="45.19045" lon="5.96774">
        <ele>1868.7</ele>
        <time>2026-07-14T10:05:08Z</time>
      </trkpt>
      <trkpt lat="45.19045" lon="5.96774">
        <ele>1868.7</ele>
        <time>2026-07-14T10:05:09Z</time>
      </trkpt>
      <trkpt lat="45.19045" lon="5.96774">
        <ele>1868.7</ele>
        <time>2026-07-14T10:05:10Z</time>
      </trkpt>
      <trkpt lat="45.19045" lon="5.96774">
        <ele>1868.7</ele>
        <time>2026-07-14T10:05:11Z</time>
      </trkpt>
      <trkpt lat="45.19045" lon="5.96774">
        <ele>1868.7</ele>
        <time>2026-07-14T10:05:12Z</time>
      </trkpt>
      <trkpt lat="45.19045" lon="5.96774">
        <ele>1868.8</ele>
        <time>2026-07-14T10:05:14Z</time>
      </trkpt>
      <trkpt lat="45.19045" lon="5.96774">
        <ele>1868.8</ele>
        <time>2026-07-14T10:05:15Z</time>
      </trkpt>
      <trkpt lat="45.19045" lon="5.96774">
        <ele>1868.8</ele>
        <time>2026-07-14T10:05:16Z</time>
      </trkpt>
      <trkpt lat="45.19045" lon="5.96774">
        <ele>1868.8</ele>
        <time>2026-07-14T10:05:17Z</time>
      </trkpt>
      <trkpt lat="45.19045" lon="5.96774">
        <ele>1868.8</ele>
        <time>2026-07-14T10:05:18Z</time>
      </trkpt>
      <trkpt lat="45.19045" lon="5.96774">
        <ele>1868.8</ele>
        <time>2026-07-14T10:05:19Z</time>
      </trkpt>
      <trkpt lat="45.19045" lon="5.96774">
        <ele>1868.9</ele>
        <time>2026-07-14T10:05:20Z</time>
      </trkpt>
      <trkpt lat="45.19045" lon="5.96774">
        <ele>1868.9</ele>
        <time>2026-07-14T10:05:21Z</time>
      </trkpt>
      <trkpt lat="45.19045" lon="5.96774">
        <ele>1868.9</ele>
        <time>2026-07-14T10:05:22Z</time>
      </trkpt>
      <trkpt lat="45.19045" lon="5.96774">
        <ele>1868.9</ele>
        <time>2026-07-14T10:05:23Z</time>
      </trkpt>
      <trkpt lat="45.19045" lon="5.96774">
        <ele>1868.9</ele>
        <time>2026-07-14T10:05:24Z</time>
      </trkpt>
      <trkpt lat="45.19045" lon="5.96774">
        <ele>1869</ele>
        <time>2026-07-14T10:05:25Z</time>
      </trkpt>
      <trkpt lat="45.19045" lon="5.96774">
        <ele>1869</ele>
        <time>2026-07-14T10:05:26Z</time>
      </trkpt>
      <trkpt lat="45.19045" lon="5.96774">
        <ele>1869</ele>
        <time>2026-07-14T10:05:27Z</time>
      </trkpt>
      <trkpt lat="45.19045" lon="5.96774">
        <ele>1869</ele>
        <time>2026-07-14T10:05:28Z</time>
      </trkpt>
      <trkpt lat="45.19045" lon="5.96774">
        <ele>1869</ele>
        <time>2026-07-14T10:05:29Z</time>
      </trkpt>
      <trkpt lat="45.19045" lon="5.96775">
        <ele>1869</ele>
        <time>2026-07-14T10:05:30Z</time>
      </trkpt>
      <trkpt lat="45.19045" lon="5.96775">
        <ele>1869</ele>
        <time>2026-07-14T10:05:31Z</time>
      </trkpt>
      <trkpt lat="45.19045" lon="5.96775">
        <ele>1869</ele>
        <time>2026-07-14T10:05:32Z</time>
      </trkpt>
      <trkpt lat="45.19045" lon="5.96774">
        <ele>1869.1</ele>
        <time>2026-07-14T10:05:33Z</time>
      </trkpt>
      <trkpt lat="45.19045" lon="5.96774">
        <ele>1869.1</ele>
        <time>2026-07-14T10:05:34Z</time>
      </trkpt>
      <trkpt lat="45.19045" lon="5.96774">
        <ele>1869.1</ele>
        <time>2026-07-14T10:05:35Z</time>
      </trkpt>
      <trkpt lat="45.19045" lon="5.96774">
        <ele>1869.1</ele>
        <time>2026-07-14T10:05:36Z</time>
      </trkpt>
      <trkpt lat="45.19045" lon="5.96774">
        <ele>1869.1</ele>
        <time>2026-07-14T10:05:37Z</time>
      </trkpt>
      <trkpt lat="45.19045" lon="5.96774">
        <ele>1869.2</ele>
        <time>2026-07-14T10:05:38Z</time>
      </trkpt>
      <trkpt lat="45.19045" lon="5.96774">
        <ele>1869.2</ele>
        <time>2026-07-14T10:05:39Z</time>
      </trkpt>
      <trkpt lat="45.19045" lon="5.96774">
        <ele>1869.3</ele>
        <time>2026-07-14T10:05:40Z</time>
      </trkpt>
      <trkpt lat="45.19045" lon="5.96774">
        <ele>1869.3</ele>
        <time>2026-07-14T10:05:41Z</time>
      </trkpt>
      <trkpt lat="45.19045" lon="5.96774">
        <ele>1869.3</ele>
        <time>2026-07-14T10:05:43Z</time>
      </trkpt>
      <trkpt lat="45.19045" lon="5.96774">
        <ele>1869.3</ele>
        <time>2026-07-14T10:05:44Z</time>
      </trkpt>
      <trkpt lat="45.19045" lon="5.96774">
        <ele>1869.4</ele>
        <time>2026-07-14T10:05:45Z</time>
      </trkpt>
      <trkpt lat="45.19045" lon="5.96774">
        <ele>1869.4</ele>
        <time>2026-07-14T10:05:46Z</time>
      </trkpt>
      <trkpt lat="45.19045" lon="5.96774">
        <ele>1869.4</ele>
        <time>2026-07-14T10:05:47Z</time>
      </trkpt>
      <trkpt lat="45.19045" lon="5.96774">
        <ele>1869.5</ele>
        <time>2026-07-14T10:05:48Z</time>
      </trkpt>
      <trkpt lat="45.19045" lon="5.96773">
        <ele>1869.5</ele>
        <time>2026-07-14T10:05:49Z</time>
      </trkpt>
      <trkpt lat="45.19045" lon="5.96773">
        <ele>1869.5</ele>
        <time>2026-07-14T10:05:50Z</time>
      </trkpt>
      <trkpt lat="45.19045" lon="5.96773">
        <ele>1869.5</ele>
        <time>2026-07-14T10:05:51Z</time>
      </trkpt>
      <trkpt lat="45.19045" lon="5.96773">
        <ele>1869.6</ele>
        <time>2026-07-14T10:05:52Z</time>
      </trkpt>
      <trkpt lat="45.19045" lon="5.96773">
        <ele>1869.6</ele>
        <time>2026-07-14T10:05:53Z</time>
      </trkpt>
      <trkpt lat="45.19045" lon="5.96773">
        <ele>1869.6</ele>
        <time>2026-07-14T10:05:54Z</time>
      </trkpt>
      <trkpt lat="45.19045" lon="5.96773">
        <ele>1869.6</ele>
        <time>2026-07-14T10:05:55Z</time>
      </trkpt>
      <trkpt lat="45.19045" lon="5.96773">
        <ele>1869.6</ele>
        <time>2026-07-14T10:05:56Z</time>
      </trkpt>
      <trkpt lat="45.19045" lon="5.96773">
        <ele>1869.6</ele>
        <time>2026-07-14T10:05:57Z</time>
      </trkpt>
      <trkpt lat="45.19045" lon="5.96773">
        <ele>1869.7</ele>
        <time>2026-07-14T10:05:58Z</time>
      </trkpt>
      <trkpt lat="45.19045" lon="5.96773">
        <ele>1869.7</ele>
        <time>2026-07-14T10:06:00Z</time>
      </trkpt>
      <trkpt lat="45.19045" lon="5.96773">
        <ele>1869.7</ele>
        <time>2026-07-14T10:06:02Z</time>
      </trkpt>
      <trkpt lat="45.19045" lon="5.96773">
        <ele>1869.7</ele>
        <time>2026-07-14T10:06:03Z</time>
      </trkpt>
      <trkpt lat="45.19045" lon="5.96773">
        <ele>1869.7</ele>
        <time>2026-07-14T10:06:04Z</time>
      </trkpt>
      <trkpt lat="45.19045" lon="5.96773">
        <ele>1869.7</ele>
        <time>2026-07-14T10:06:05Z</time>
      </trkpt>
      <trkpt lat="45.19045" lon="5.96773">
        <ele>1869.7</ele>
        <time>2026-07-14T10:06:06Z</time>
      </trkpt>
      <trkpt lat="45.19045" lon="5.96773">
        <ele>1869.7</ele>
        <time>2026-07-14T10:06:08Z</time>
      </trkpt>
      <trkpt lat="45.19045" lon="5.96773">
        <ele>1869.7</ele>
        <time>2026-07-14T10:06:09Z</time>
      </trkpt>
      <trkpt lat="45.19045" lon="5.96773">
        <ele>1869.8</ele>
        <time>2026-07-14T10:06:10Z</time>
      </trkpt>
      <trkpt lat="45.19045" lon="5.96773">
        <ele>1869.8</ele>
        <time>2026-07-14T10:06:11Z</time>
      </trkpt>
      <trkpt lat="45.19045" lon="5.96773">
        <ele>1869.8</ele>
        <time>2026-07-14T10:06:13Z</time>
      </trkpt>
      <trkpt lat="45.19045" lon="5.96773">
        <ele>1869.8</ele>
        <time>2026-07-14T10:06:14Z</time>
      </trkpt>
      <trkpt lat="45.19045" lon="5.96773">
        <ele>1869.8</ele>
        <time>2026-07-14T10:06:15Z</time>
      </trkpt>
      <trkpt lat="45.19045" lon="5.96773">
        <ele>1869.8</ele>
        <time>2026-07-14T10:06:16Z</time>
      </trkpt>
      <trkpt lat="45.19045" lon="5.96773">
        <ele>1869.8</ele>
        <time>2026-07-14T10:06:17Z</time>
      </trkpt>
      <trkpt lat="45.19045" lon="5.96773">
        <ele>1869.8</ele>
        <time>2026-07-14T10:06:18Z</time>
      </trkpt>
      <trkpt lat="45.19045" lon="5.96773">
        <ele>1869.8</ele>
        <time>2026-07-14T10:06:19Z</time>
      </trkpt>
      <trkpt lat="45.19045" lon="5.96773">
        <ele>1869.8</ele>
        <time>2026-07-14T10:06:20Z</time>
      </trkpt>
      <trkpt lat="45.19045" lon="5.96773">
        <ele>1869.8</ele>
        <time>2026-07-14T10:06:21Z</time>
      </trkpt>
      <trkpt lat="45.19045" lon="5.96773">
        <ele>1869.8</ele>
        <time>2026-07-14T10:06:23Z</time>
      </trkpt>
      <trkpt lat="45.19045" lon="5.96773">
        <ele>1869.8</ele>
        <time>2026-07-14T10:06:24Z</time>
      </trkpt>
      <trkpt lat="45.19045" lon="5.96773">
        <ele>1869.8</ele>
        <time>2026-07-14T10:06:25Z</time>
      </trkpt>
      <trkpt lat="45.19045" lon="5.96773">
        <ele>1869.8</ele>
        <time>2026-07-14T10:06:27Z</time>
      </trkpt>
      <trkpt lat="45.19045" lon="5.96773">
        <ele>1869.8</ele>
        <time>2026-07-14T10:06:28Z</time>
      </trkpt>
      <trkpt lat="45.19045" lon="5.96773">
        <ele>1869.8</ele>
        <time>2026-07-14T10:06:29Z</time>
      </trkpt>
      <trkpt lat="45.19045" lon="5.96773">
        <ele>1869.8</ele>
        <time>2026-07-14T10:06:30Z</time>
      </trkpt>
      <trkpt lat="45.19045" lon="5.96773">
        <ele>1869.8</ele>
        <time>2026-07-14T10:06:31Z</time>
      </trkpt>
      <trkpt lat="45.19045" lon="5.96773">
        <ele>1869.8</ele>
        <time>2026-07-14T10:06:33Z</time>
      </trkpt>
      <trkpt lat="45.19045" lon="5.96773">
        <ele>1869.8</ele>
        <time>2026-07-14T10:06:34Z</time>
      </trkpt>
      <trkpt lat="45.19045" lon="5.96773">
        <ele>1869.9</ele>
        <time>2026-07-14T10:06:35Z</time>
      </trkpt>
      <trkpt lat="45.19045" lon="5.96773">
        <ele>1869.9</ele>
        <time>2026-07-14T10:06:36Z</time>
      </trkpt>
      <trkpt lat="45.19045" lon="5.96773">
        <ele>1869.9</ele>
        <time>2026-07-14T10:06:37Z</time>
      </trkpt>
      <trkpt lat="45.19045" lon="5.96773">
        <ele>1869.9</ele>
        <time>2026-07-14T10:06:38Z</time>
      </trkpt>
      <trkpt lat="45.19045" lon="5.96773">
        <ele>1869.9</ele>
        <time>2026-07-14T10:06:39Z</time>
      </trkpt>
      <trkpt lat="45.19045" lon="5.96773">
        <ele>1870</ele>
        <time>2026-07-14T10:06:40Z</time>
      </trkpt>
      <trkpt lat="45.19045" lon="5.96774">
        <ele>1870.2</ele>
        <time>2026-07-14T10:06:41Z</time>
      </trkpt>
      <trkpt lat="45.19045" lon="5.96774">
        <ele>1870.3</ele>
        <time>2026-07-14T10:06:42Z</time>
      </trkpt>
      <trkpt lat="45.19046" lon="5.96774">
        <ele>1870.3</ele>
        <time>2026-07-14T10:06:43Z</time>
      </trkpt>
      <trkpt lat="45.19046" lon="5.96775">
        <ele>1870.4</ele>
        <time>2026-07-14T10:06:44Z</time>
      </trkpt>
      <trkpt lat="45.19046" lon="5.96775">
        <ele>1870.5</ele>
        <time>2026-07-14T10:06:45Z</time>
      </trkpt>
      <trkpt lat="45.19046" lon="5.96775">
        <ele>1870.7</ele>
        <time>2026-07-14T10:06:46Z</time>
      </trkpt>
      <trkpt lat="45.19046" lon="5.96776">
        <ele>1870.8</ele>
        <time>2026-07-14T10:06:47Z</time>
      </trkpt>
      <trkpt lat="45.19047" lon="5.96777">
        <ele>1871</ele>
        <time>2026-07-14T10:06:48Z</time>
      </trkpt>
      <trkpt lat="45.19047" lon="5.96777">
        <ele>1871.2</ele>
        <time>2026-07-14T10:06:49Z</time>
      </trkpt>
      <trkpt lat="45.19047" lon="5.96778">
        <ele>1871.4</ele>
        <time>2026-07-14T10:06:50Z</time>
      </trkpt>
      <trkpt lat="45.19047" lon="5.96778">
        <ele>1871.5</ele>
        <time>2026-07-14T10:06:51Z</time>
      </trkpt>
      <trkpt lat="45.19047" lon="5.96779">
        <ele>1871.7</ele>
        <time>2026-07-14T10:06:52Z</time>
      </trkpt>
      <trkpt lat="45.19047" lon="5.9678">
        <ele>1871.9</ele>
        <time>2026-07-14T10:06:53Z</time>
      </trkpt>
      <trkpt lat="45.19047" lon="5.96781">
        <ele>1872.1</ele>
        <time>2026-07-14T10:06:54Z</time>
      </trkpt>
      <trkpt lat="45.19046" lon="5.96782">
        <ele>1872.3</ele>
        <time>2026-07-14T10:06:55Z</time>
      </trkpt>
      <trkpt lat="45.19046" lon="5.96782">
        <ele>1872.4</ele>
        <time>2026-07-14T10:06:56Z</time>
      </trkpt>
      <trkpt lat="45.19046" lon="5.96783">
        <ele>1872.6</ele>
        <time>2026-07-14T10:06:57Z</time>
      </trkpt>
      <trkpt lat="45.19046" lon="5.96784">
        <ele>1872.8</ele>
        <time>2026-07-14T10:06:58Z</time>
      </trkpt>
      <trkpt lat="45.19047" lon="5.96785">
        <ele>1872.9</ele>
        <time>2026-07-14T10:06:59Z</time>
      </trkpt>
      <trkpt lat="45.19047" lon="5.96785">
        <ele>1873.1</ele>
        <time>2026-07-14T10:07:00Z</time>
      </trkpt>
      <trkpt lat="45.19048" lon="5.96786">
        <ele>1873.3</ele>
        <time>2026-07-14T10:07:01Z</time>
      </trkpt>
      <trkpt lat="45.19048" lon="5.96787">
        <ele>1873.4</ele>
        <time>2026-07-14T10:07:02Z</time>
      </trkpt>
      <trkpt lat="45.19048" lon="5.96788">
        <ele>1873.7</ele>
        <time>2026-07-14T10:07:04Z</time>
      </trkpt>
      <trkpt lat="45.19048" lon="5.96788">
        <ele>1873.8</ele>
        <time>2026-07-14T10:07:05Z</time>
      </trkpt>
      <trkpt lat="45.19048" lon="5.96789">
        <ele>1873.9</ele>
        <time>2026-07-14T10:07:06Z</time>
      </trkpt>
      <trkpt lat="45.19048" lon="5.96789">
        <ele>1874</ele>
        <time>2026-07-14T10:07:07Z</time>
      </trkpt>
      <trkpt lat="45.19048" lon="5.9679">
        <ele>1874</ele>
        <time>2026-07-14T10:07:08Z</time>
      </trkpt>
      <trkpt lat="45.19047" lon="5.96789">
        <ele>1874.1</ele>
        <time>2026-07-14T10:07:09Z</time>
      </trkpt>
      <trkpt lat="45.19047" lon="5.96789">
        <ele>1874.3</ele>
        <time>2026-07-14T10:07:11Z</time>
      </trkpt>
      <trkpt lat="45.19046" lon="5.96789">
        <ele>1874.4</ele>
        <time>2026-07-14T10:07:12Z</time>
      </trkpt>
      <trkpt lat="45.19046" lon="5.96789">
        <ele>1874.4</ele>
        <time>2026-07-14T10:07:13Z</time>
      </trkpt>
      <trkpt lat="45.19046" lon="5.96789">
        <ele>1874.5</ele>
        <time>2026-07-14T10:07:14Z</time>
      </trkpt>
      <trkpt lat="45.19046" lon="5.9679">
        <ele>1874.6</ele>
        <time>2026-07-14T10:07:15Z</time>
      </trkpt>
      <trkpt lat="45.19046" lon="5.96791">
        <ele>1874.7</ele>
        <time>2026-07-14T10:07:16Z</time>
      </trkpt>
      <trkpt lat="45.19046" lon="5.96791">
        <ele>1874.8</ele>
        <time>2026-07-14T10:07:17Z</time>
      </trkpt>
      <trkpt lat="45.19046" lon="5.96792">
        <ele>1874.9</ele>
        <time>2026-07-14T10:07:18Z</time>
      </trkpt>
      <trkpt lat="45.19047" lon="5.96792">
        <ele>1875</ele>
        <time>2026-07-14T10:07:19Z</time>
      </trkpt>
      <trkpt lat="45.19047" lon="5.96793">
        <ele>1875.1</ele>
        <time>2026-07-14T10:07:20Z</time>
      </trkpt>
      <trkpt lat="45.19047" lon="5.96794">
        <ele>1875.2</ele>
        <time>2026-07-14T10:07:21Z</time>
      </trkpt>
      <trkpt lat="45.19048" lon="5.96794">
        <ele>1875.3</ele>
        <time>2026-07-14T10:07:22Z</time>
      </trkpt>
      <trkpt lat="45.19048" lon="5.96795">
        <ele>1875.3</ele>
        <time>2026-07-14T10:07:23Z</time>
      </trkpt>
      <trkpt lat="45.19049" lon="5.96795">
        <ele>1875.4</ele>
        <time>2026-07-14T10:07:25Z</time>
      </trkpt>
      <trkpt lat="45.1905" lon="5.96795">
        <ele>1875.6</ele>
        <time>2026-07-14T10:07:26Z</time>
      </trkpt>
      <trkpt lat="45.19051" lon="5.96795">
        <ele>1875.7</ele>
        <time>2026-07-14T10:07:27Z</time>
      </trkpt>
      <trkpt lat="45.19052" lon="5.96795">
        <ele>1875.8</ele>
        <time>2026-07-14T10:07:29Z</time>
      </trkpt>
      <trkpt lat="45.19052" lon="5.96795">
        <ele>1875.9</ele>
        <time>2026-07-14T10:07:30Z</time>
      </trkpt>
      <trkpt lat="45.19053" lon="5.96795">
        <ele>1875.9</ele>
        <time>2026-07-14T10:07:31Z</time>
      </trkpt>
      <trkpt lat="45.19053" lon="5.96795">
        <ele>1876</ele>
        <time>2026-07-14T10:07:32Z</time>
      </trkpt>
      <trkpt lat="45.19053" lon="5.96796">
        <ele>1876.1</ele>
        <time>2026-07-14T10:07:33Z</time>
      </trkpt>
      <trkpt lat="45.19053" lon="5.96797">
        <ele>1876.1</ele>
        <time>2026-07-14T10:07:34Z</time>
      </trkpt>
      <trkpt lat="45.19054" lon="5.96797">
        <ele>1876.2</ele>
        <time>2026-07-14T10:07:36Z</time>
      </trkpt>
      <trkpt lat="45.19055" lon="5.96798">
        <ele>1876.3</ele>
        <time>2026-07-14T10:07:37Z</time>
      </trkpt>
      <trkpt lat="45.19055" lon="5.96798">
        <ele>1876.3</ele>
        <time>2026-07-14T10:07:38Z</time>
      </trkpt>
      <trkpt lat="45.19056" lon="5.96798">
        <ele>1876.4</ele>
        <time>2026-07-14T10:07:39Z</time>
      </trkpt>
      <trkpt lat="45.19056" lon="5.96798">
        <ele>1876.4</ele>
        <time>2026-07-14T10:07:40Z</time>
      </trkpt>
      <trkpt lat="45.19057" lon="5.96798">
        <ele>1876.5</ele>
        <time>2026-07-14T10:07:41Z</time>
      </trkpt>
      <trkpt lat="45.19057" lon="5.96798">
        <ele>1876.5</ele>
        <time>2026-07-14T10:07:42Z</time>
      </trkpt>
      <trkpt lat="45.19057" lon="5.96797">
        <ele>1876.6</ele>
        <time>2026-07-14T10:07:43Z</time>
      </trkpt>
      <trkpt lat="45.19057" lon="5.96797">
        <ele>1876.6</ele>
        <time>2026-07-14T10:07:44Z</time>
      </trkpt>
      <trkpt lat="45.19058" lon="5.96796">
        <ele>1876.7</ele>
        <time>2026-07-14T10:07:45Z</time>
      </trkpt>
      <trkpt lat="45.19058" lon="5.96796">
        <ele>1876.7</ele>
        <time>2026-07-14T10:07:47Z</time>
      </trkpt>
      <trkpt lat="45.19058" lon="5.96796">
        <ele>1876.7</ele>
        <time>2026-07-14T10:07:48Z</time>
      </trkpt>
      <trkpt lat="45.19058" lon="5.96795">
        <ele>1876.8</ele>
        <time>2026-07-14T10:07:49Z</time>
      </trkpt>
      <trkpt lat="45.19059" lon="5.96795">
        <ele>1876.9</ele>
        <time>2026-07-14T10:07:50Z</time>
      </trkpt>
      <trkpt lat="45.1906" lon="5.96795">
        <ele>1877</ele>
        <time>2026-07-14T10:07:51Z</time>
      </trkpt>
      <trkpt lat="45.1906" lon="5.96794">
        <ele>1877.1</ele>
        <time>2026-07-14T10:07:52Z</time>
      </trkpt>
      <trkpt lat="45.19061" lon="5.96794">
        <ele>1877.2</ele>
        <time>2026-07-14T10:07:53Z</time>
      </trkpt>
      <trkpt lat="45.19062" lon="5.96794">
        <ele>1877.3</ele>
        <time>2026-07-14T10:07:54Z</time>
      </trkpt>
      <trkpt lat="45.19064" lon="5.96795">
        <ele>1877.5</ele>
        <time>2026-07-14T10:07:56Z</time>
      </trkpt>
      <trkpt lat="45.19065" lon="5.96795">
        <ele>1877.6</ele>
        <time>2026-07-14T10:07:58Z</time>
      </trkpt>
      <trkpt lat="45.19066" lon="5.96795">
        <ele>1877.7</ele>
        <time>2026-07-14T10:07:59Z</time>
      </trkpt>
      <trkpt lat="45.19067" lon="5.96795">
        <ele>1878</ele>
        <time>2026-07-14T10:08:00Z</time>
      </trkpt>
      <trkpt lat="45.19068" lon="5.96795">
        <ele>1878.1</ele>
        <time>2026-07-14T10:08:01Z</time>
      </trkpt>
      <trkpt lat="45.19069" lon="5.96796">
        <ele>1878.2</ele>
        <time>2026-07-14T10:08:03Z</time>
      </trkpt>
      <trkpt lat="45.19069" lon="5.96796">
        <ele>1878.3</ele>
        <time>2026-07-14T10:08:04Z</time>
      </trkpt>
      <trkpt lat="45.1907" lon="5.96797">
        <ele>1878.4</ele>
        <time>2026-07-14T10:08:05Z</time>
      </trkpt>
      <trkpt lat="45.19071" lon="5.96797">
        <ele>1878.5</ele>
        <time>2026-07-14T10:08:06Z</time>
      </trkpt>
      <trkpt lat="45.19072" lon="5.96796">
        <ele>1878.7</ele>
        <time>2026-07-14T10:08:08Z</time>
      </trkpt>
      <trkpt lat="45.19072" lon="5.96796">
        <ele>1878.8</ele>
        <time>2026-07-14T10:08:09Z</time>
      </trkpt>
      <trkpt lat="45.19073" lon="5.96795">
        <ele>1878.9</ele>
        <time>2026-07-14T10:08:10Z</time>
      </trkpt>
      <trkpt lat="45.19073" lon="5.96795">
        <ele>1878.9</ele>
        <time>2026-07-14T10:08:11Z</time>
      </trkpt>
      <trkpt lat="45.19074" lon="5.96795">
        <ele>1879</ele>
        <time>2026-07-14T10:08:12Z</time>
      </trkpt>
      <trkpt lat="45.19075" lon="5.96794">
        <ele>1879.1</ele>
        <time>2026-07-14T10:08:13Z</time>
      </trkpt>
      <trkpt lat="45.19075" lon="5.96793">
        <ele>1879.3</ele>
        <time>2026-07-14T10:08:15Z</time>
      </trkpt>
      <trkpt lat="45.19076" lon="5.96793">
        <ele>1879.4</ele>
        <time>2026-07-14T10:08:16Z</time>
      </trkpt>
      <trkpt lat="45.19076" lon="5.96793">
        <ele>1879.5</ele>
        <time>2026-07-14T10:08:17Z</time>
      </trkpt>
      <trkpt lat="45.19077" lon="5.96794">
        <ele>1879.5</ele>
        <time>2026-07-14T10:08:18Z</time>
      </trkpt>
      <trkpt lat="45.19078" lon="5.96794">
        <ele>1879.6</ele>
        <time>2026-07-14T10:08:19Z</time>
      </trkpt>
      <trkpt lat="45.19078" lon="5.96794">
        <ele>1879.7</ele>
        <time>2026-07-14T10:08:20Z</time>
      </trkpt>
      <trkpt lat="45.19079" lon="5.96794">
        <ele>1879.8</ele>
        <time>2026-07-14T10:08:21Z</time>
      </trkpt>
      <trkpt lat="45.19079" lon="5.96794">
        <ele>1879.8</ele>
        <time>2026-07-14T10:08:22Z</time>
      </trkpt>
      <trkpt lat="45.1908" lon="5.96794">
        <ele>1879.9</ele>
        <time>2026-07-14T10:08:23Z</time>
      </trkpt>
      <trkpt lat="45.1908" lon="5.96794">
        <ele>1880</ele>
        <time>2026-07-14T10:08:24Z</time>
      </trkpt>
      <trkpt lat="45.19081" lon="5.96795">
        <ele>1880</ele>
        <time>2026-07-14T10:08:25Z</time>
      </trkpt>
      <trkpt lat="45.19081" lon="5.96795">
        <ele>1880.1</ele>
        <time>2026-07-14T10:08:26Z</time>
      </trkpt>
      <trkpt lat="45.19082" lon="5.96795">
        <ele>1880.2</ele>
        <time>2026-07-14T10:08:27Z</time>
      </trkpt>
      <trkpt lat="45.19082" lon="5.96795">
        <ele>1880.2</ele>
        <time>2026-07-14T10:08:28Z</time>
      </trkpt>
      <trkpt lat="45.19083" lon="5.96794">
        <ele>1880.3</ele>
        <time>2026-07-14T10:08:29Z</time>
      </trkpt>
      <trkpt lat="45.19083" lon="5.96793">
        <ele>1880.3</ele>
        <time>2026-07-14T10:08:30Z</time>
      </trkpt>
      <trkpt lat="45.19084" lon="5.96793">
        <ele>1880.4</ele>
        <time>2026-07-14T10:08:31Z</time>
      </trkpt>
      <trkpt lat="45.19084" lon="5.96792">
        <ele>1880.5</ele>
        <time>2026-07-14T10:08:32Z</time>
      </trkpt>
      <trkpt lat="45.19085" lon="5.96791">
        <ele>1880.5</ele>
        <time>2026-07-14T10:08:33Z</time>
      </trkpt>
      <trkpt lat="45.19085" lon="5.9679">
        <ele>1880.6</ele>
        <time>2026-07-14T10:08:34Z</time>
      </trkpt>
      <trkpt lat="45.19086" lon="5.96789">
        <ele>1880.7</ele>
        <time>2026-07-14T10:08:35Z</time>
      </trkpt>
      <trkpt lat="45.19086" lon="5.96788">
        <ele>1880.7</ele>
        <time>2026-07-14T10:08:36Z</time>
      </trkpt>
      <trkpt lat="45.19087" lon="5.96787">
        <ele>1880.8</ele>
        <time>2026-07-14T10:08:37Z</time>
      </trkpt>
      <trkpt lat="45.19088" lon="5.96785">
        <ele>1880.9</ele>
        <time>2026-07-14T10:08:39Z</time>
      </trkpt>
      <trkpt lat="45.19088" lon="5.96784">
        <ele>1881</ele>
        <time>2026-07-14T10:08:40Z</time>
      </trkpt>
      <trkpt lat="45.19089" lon="5.96784">
        <ele>1881</ele>
        <time>2026-07-14T10:08:41Z</time>
      </trkpt>
      <trkpt lat="45.19089" lon="5.96783">
        <ele>1881</ele>
        <time>2026-07-14T10:08:42Z</time>
      </trkpt>
      <trkpt lat="45.19089" lon="5.96782">
        <ele>1881.1</ele>
        <time>2026-07-14T10:08:43Z</time>
      </trkpt>
      <trkpt lat="45.1909" lon="5.96782">
        <ele>1881.1</ele>
        <time>2026-07-14T10:08:44Z</time>
      </trkpt>
      <trkpt lat="45.19091" lon="5.96782">
        <ele>1881.1</ele>
        <time>2026-07-14T10:08:45Z</time>
      </trkpt>
      <trkpt lat="45.19091" lon="5.96781">
        <ele>1881.2</ele>
        <time>2026-07-14T10:08:46Z</time>
      </trkpt>
      <trkpt lat="45.19092" lon="5.96781">
        <ele>1881.2</ele>
        <time>2026-07-14T10:08:48Z</time>
      </trkpt>
      <trkpt lat="45.19093" lon="5.9678">
        <ele>1881.3</ele>
        <time>2026-07-14T10:08:49Z</time>
      </trkpt>
      <trkpt lat="45.19094" lon="5.9678">
        <ele>1881.3</ele>
        <time>2026-07-14T10:08:50Z</time>
      </trkpt>
      <trkpt lat="45.19094" lon="5.9678">
        <ele>1881.4</ele>
        <time>2026-07-14T10:08:51Z</time>
      </trkpt>
      <trkpt lat="45.19095" lon="5.9678">
        <ele>1881.4</ele>
        <time>2026-07-14T10:08:52Z</time>
      </trkpt>
      <trkpt lat="45.19096" lon="5.9678">
        <ele>1881.4</ele>
        <time>2026-07-14T10:08:53Z</time>
      </trkpt>
      <trkpt lat="45.19097" lon="5.96779">
        <ele>1881.5</ele>
        <time>2026-07-14T10:08:54Z</time>
      </trkpt>
      <trkpt lat="45.19097" lon="5.96779">
        <ele>1881.6</ele>
        <time>2026-07-14T10:08:55Z</time>
      </trkpt>
      <trkpt lat="45.19098" lon="5.96779">
        <ele>1881.7</ele>
        <time>2026-07-14T10:08:56Z</time>
      </trkpt>
      <trkpt lat="45.191" lon="5.96779">
        <ele>1881.8</ele>
        <time>2026-07-14T10:08:58Z</time>
      </trkpt>
      <trkpt lat="45.19101" lon="5.96779">
        <ele>1881.9</ele>
        <time>2026-07-14T10:08:59Z</time>
      </trkpt>
      <trkpt lat="45.19102" lon="5.96779">
        <ele>1882</ele>
        <time>2026-07-14T10:09:00Z</time>
      </trkpt>
      <trkpt lat="45.19103" lon="5.96779">
        <ele>1882.1</ele>
        <time>2026-07-14T10:09:01Z</time>
      </trkpt>
      <trkpt lat="45.19105" lon="5.96779">
        <ele>1882.3</ele>
        <time>2026-07-14T10:09:03Z</time>
      </trkpt>
      <trkpt lat="45.19105" lon="5.96779">
        <ele>1882.4</ele>
        <time>2026-07-14T10:09:04Z</time>
      </trkpt>
      <trkpt lat="45.19106" lon="5.96779">
        <ele>1882.5</ele>
        <time>2026-07-14T10:09:05Z</time>
      </trkpt>
      <trkpt lat="45.19107" lon="5.96778">
        <ele>1882.6</ele>
        <time>2026-07-14T10:09:06Z</time>
      </trkpt>
      <trkpt lat="45.19108" lon="5.96778">
        <ele>1882.8</ele>
        <time>2026-07-14T10:09:08Z</time>
      </trkpt>
      <trkpt lat="45.19109" lon="5.96777">
        <ele>1883</ele>
        <time>2026-07-14T10:09:09Z</time>
      </trkpt>
      <trkpt lat="45.1911" lon="5.96777">
        <ele>1883.1</ele>
        <time>2026-07-14T10:09:10Z</time>
      </trkpt>
      <trkpt lat="45.1911" lon="5.96777">
        <ele>1883.2</ele>
        <time>2026-07-14T10:09:11Z</time>
      </trkpt>
      <trkpt lat="45.19111" lon="5.96777">
        <ele>1883.3</ele>
        <time>2026-07-14T10:09:12Z</time>
      </trkpt>
      <trkpt lat="45.19111" lon="5.96777">
        <ele>1883.4</ele>
        <time>2026-07-14T10:09:13Z</time>
      </trkpt>
      <trkpt lat="45.19112" lon="5.96777">
        <ele>1883.6</ele>
        <time>2026-07-14T10:09:14Z</time>
      </trkpt>
      <trkpt lat="45.19113" lon="5.96777">
        <ele>1883.7</ele>
        <time>2026-07-14T10:09:15Z</time>
      </trkpt>
      <trkpt lat="45.19113" lon="5.96777">
        <ele>1883.8</ele>
        <time>2026-07-14T10:09:16Z</time>
      </trkpt>
      <trkpt lat="45.19114" lon="5.96777">
        <ele>1884</ele>
        <time>2026-07-14T10:09:17Z</time>
      </trkpt>
      <trkpt lat="45.19114" lon="5.96777">
        <ele>1884</ele>
        <time>2026-07-14T10:09:18Z</time>
      </trkpt>
      <trkpt lat="45.19115" lon="5.96777">
        <ele>1884.1</ele>
        <time>2026-07-14T10:09:19Z</time>
      </trkpt>
      <trkpt lat="45.19116" lon="5.96777">
        <ele>1884.3</ele>
        <time>2026-07-14T10:09:20Z</time>
      </trkpt>
      <trkpt lat="45.19116" lon="5.96777">
        <ele>1884.5</ele>
        <time>2026-07-14T10:09:21Z</time>
      </trkpt>
      <trkpt lat="45.19117" lon="5.96778">
        <ele>1884.7</ele>
        <time>2026-07-14T10:09:22Z</time>
      </trkpt>
      <trkpt lat="45.19117" lon="5.96778">
        <ele>1884.9</ele>
        <time>2026-07-14T10:09:23Z</time>
      </trkpt>
      <trkpt lat="45.19118" lon="5.96778">
        <ele>1885.2</ele>
        <time>2026-07-14T10:09:24Z</time>
      </trkpt>
      <trkpt lat="45.19118" lon="5.96778">
        <ele>1885.4</ele>
        <time>2026-07-14T10:09:25Z</time>
      </trkpt>
      <trkpt lat="45.19119" lon="5.96778">
        <ele>1885.6</ele>
        <time>2026-07-14T10:09:26Z</time>
      </trkpt>
      <trkpt lat="45.19119" lon="5.96778">
        <ele>1885.7</ele>
        <time>2026-07-14T10:09:27Z</time>
      </trkpt>
      <trkpt lat="45.19119" lon="5.96778">
        <ele>1885.9</ele>
        <time>2026-07-14T10:09:28Z</time>
      </trkpt>
      <trkpt lat="45.1912" lon="5.96778">
        <ele>1886.1</ele>
        <time>2026-07-14T10:09:29Z</time>
      </trkpt>
      <trkpt lat="45.1912" lon="5.96778">
        <ele>1886.3</ele>
        <time>2026-07-14T10:09:30Z</time>
      </trkpt>
      <trkpt lat="45.19121" lon="5.96778">
        <ele>1886.4</ele>
        <time>2026-07-14T10:09:31Z</time>
      </trkpt>
      <trkpt lat="45.19121" lon="5.96778">
        <ele>1886.6</ele>
        <time>2026-07-14T10:09:32Z</time>
      </trkpt>
      <trkpt lat="45.19121" lon="5.96778">
        <ele>1886.8</ele>
        <time>2026-07-14T10:09:34Z</time>
      </trkpt>
      <trkpt lat="45.19122" lon="5.96778">
        <ele>1887.1</ele>
        <time>2026-07-14T10:09:35Z</time>
      </trkpt>
      <trkpt lat="45.19123" lon="5.96778">
        <ele>1887.3</ele>
        <time>2026-07-14T10:09:36Z</time>
      </trkpt>
      <trkpt lat="45.19123" lon="5.96778">
        <ele>1887.6</ele>
        <time>2026-07-14T10:09:37Z</time>
      </trkpt>
      <trkpt lat="45.19124" lon="5.96778">
        <ele>1887.8</ele>
        <time>2026-07-14T10:09:38Z</time>
      </trkpt>
      <trkpt lat="45.19124" lon="5.96779">
        <ele>1888.1</ele>
        <time>2026-07-14T10:09:39Z</time>
      </trkpt>
      <trkpt lat="45.19125" lon="5.96779">
        <ele>1888.3</ele>
        <time>2026-07-14T10:09:40Z</time>
      </trkpt>
      <trkpt lat="45.19126" lon="5.96779">
        <ele>1888.6</ele>
        <time>2026-07-14T10:09:41Z</time>
      </trkpt>
      <trkpt lat="45.19127" lon="5.96779">
        <ele>1889</ele>
        <time>2026-07-14T10:09:43Z</time>
      </trkpt>
      <trkpt lat="45.19127" lon="5.96779">
        <ele>1889.2</ele>
        <time>2026-07-14T10:09:44Z</time>
      </trkpt>
      <trkpt lat="45.19127" lon="5.9678">
        <ele>1889.4</ele>
        <time>2026-07-14T10:09:45Z</time>
      </trkpt>
      <trkpt lat="45.19128" lon="5.9678">
        <ele>1889.7</ele>
        <time>2026-07-14T10:09:46Z</time>
      </trkpt>
      <trkpt lat="45.19129" lon="5.9678">
        <ele>1890</ele>
        <time>2026-07-14T10:09:48Z</time>
      </trkpt>
      <trkpt lat="45.19129" lon="5.9678">
        <ele>1890.1</ele>
        <time>2026-07-14T10:09:49Z</time>
      </trkpt>
      <trkpt lat="45.19129" lon="5.96781">
        <ele>1890.2</ele>
        <time>2026-07-14T10:09:50Z</time>
      </trkpt>
      <trkpt lat="45.19129" lon="5.96781">
        <ele>1890.3</ele>
        <time>2026-07-14T10:09:51Z</time>
      </trkpt>
      <trkpt lat="45.19129" lon="5.96781">
        <ele>1890.4</ele>
        <time>2026-07-14T10:09:52Z</time>
      </trkpt>
      <trkpt lat="45.1913" lon="5.96782">
        <ele>1890.5</ele>
        <time>2026-07-14T10:09:53Z</time>
      </trkpt>
      <trkpt lat="45.1913" lon="5.96782">
        <ele>1890.6</ele>
        <time>2026-07-14T10:09:54Z</time>
      </trkpt>
      <trkpt lat="45.1913" lon="5.96782">
        <ele>1890.7</ele>
        <time>2026-07-14T10:09:55Z</time>
      </trkpt>
      <trkpt lat="45.1913" lon="5.96782">
        <ele>1890.9</ele>
        <time>2026-07-14T10:09:56Z</time>
      </trkpt>
      <trkpt lat="45.19131" lon="5.96782">
        <ele>1891</ele>
        <time>2026-07-14T10:09:57Z</time>
      </trkpt>
      <trkpt lat="45.19131" lon="5.96782">
        <ele>1891.2</ele>
        <time>2026-07-14T10:09:58Z</time>
      </trkpt>
      <trkpt lat="45.19131" lon="5.96782">
        <ele>1891.3</ele>
        <time>2026-07-14T10:09:59Z</time>
      </trkpt>
      <trkpt lat="45.19132" lon="5.96783">
        <ele>1891.6</ele>
        <time>2026-07-14T10:10:00Z</time>
      </trkpt>
      <trkpt lat="45.19132" lon="5.96783">
        <ele>1891.8</ele>
        <time>2026-07-14T10:10:01Z</time>
      </trkpt>
      <trkpt lat="45.19132" lon="5.96784">
        <ele>1892</ele>
        <time>2026-07-14T10:10:02Z</time>
      </trkpt>
      <trkpt lat="45.19132" lon="5.96785">
        <ele>1892.3</ele>
        <time>2026-07-14T10:10:03Z</time>
      </trkpt>
      <trkpt lat="45.19132" lon="5.96786">
        <ele>1892.5</ele>
        <time>2026-07-14T10:10:04Z</time>
      </trkpt>
      <trkpt lat="45.19132" lon="5.96786">
        <ele>1892.7</ele>
        <time>2026-07-14T10:10:05Z</time>
      </trkpt>
      <trkpt lat="45.19133" lon="5.96787">
        <ele>1893.1</ele>
        <time>2026-07-14T10:10:07Z</time>
      </trkpt>
      <trkpt lat="45.19133" lon="5.96788">
        <ele>1893.3</ele>
        <time>2026-07-14T10:10:08Z</time>
      </trkpt>
      <trkpt lat="45.19134" lon="5.96788">
        <ele>1893.5</ele>
        <time>2026-07-14T10:10:09Z</time>
      </trkpt>
      <trkpt lat="45.19134" lon="5.96788">
        <ele>1893.7</ele>
        <time>2026-07-14T10:10:11Z</time>
      </trkpt>
      <trkpt lat="45.19135" lon="5.96789">
        <ele>1894.1</ele>
        <time>2026-07-14T10:10:12Z</time>
      </trkpt>
      <trkpt lat="45.19135" lon="5.96788">
        <ele>1894.4</ele>
        <time>2026-07-14T10:10:14Z</time>
      </trkpt>
      <trkpt lat="45.19135" lon="5.96787">
        <ele>1894.6</ele>
        <time>2026-07-14T10:10:15Z</time>
      </trkpt>
      <trkpt lat="45.19136" lon="5.96787">
        <ele>1894.6</ele>
        <time>2026-07-14T10:10:16Z</time>
      </trkpt>
      <trkpt lat="45.19136" lon="5.96787">
        <ele>1894.7</ele>
        <time>2026-07-14T10:10:17Z</time>
      </trkpt>
      <trkpt lat="45.19135" lon="5.96788">
        <ele>1894.8</ele>
        <time>2026-07-14T10:10:19Z</time>
      </trkpt>
      <trkpt lat="45.19135" lon="5.96788">
        <ele>1894.9</ele>
        <time>2026-07-14T10:10:20Z</time>
      </trkpt>
      <trkpt lat="45.19135" lon="5.96788">
        <ele>1894.9</ele>
        <time>2026-07-14T10:10:21Z</time>
      </trkpt>
      <trkpt lat="45.19135" lon="5.96787">
        <ele>1894.9</ele>
        <time>2026-07-14T10:10:22Z</time>
      </trkpt>
      <trkpt lat="45.19135" lon="5.96787">
        <ele>1894.9</ele>
        <time>2026-07-14T10:10:24Z</time>
      </trkpt>
      <trkpt lat="45.19135" lon="5.96787">
        <ele>1894.9</ele>
        <time>2026-07-14T10:10:25Z</time>
      </trkpt>
      <trkpt lat="45.19136" lon="5.96787">
        <ele>1895</ele>
        <time>2026-07-14T10:10:26Z</time>
      </trkpt>
      <trkpt lat="45.19136" lon="5.96788">
        <ele>1895.2</ele>
        <time>2026-07-14T10:10:27Z</time>
      </trkpt>
      <trkpt lat="45.19136" lon="5.96788">
        <ele>1895.4</ele>
        <time>2026-07-14T10:10:28Z</time>
      </trkpt>
      <trkpt lat="45.19137" lon="5.96788">
        <ele>1895.6</ele>
        <time>2026-07-14T10:10:29Z</time>
      </trkpt>
      <trkpt lat="45.19138" lon="5.96788">
        <ele>1895.8</ele>
        <time>2026-07-14T10:10:30Z</time>
      </trkpt>
      <trkpt lat="45.19138" lon="5.96788">
        <ele>1896.1</ele>
        <time>2026-07-14T10:10:31Z</time>
      </trkpt>
      <trkpt lat="45.19139" lon="5.96788">
        <ele>1896.4</ele>
        <time>2026-07-14T10:10:32Z</time>
      </trkpt>
      <trkpt lat="45.1914" lon="5.96788">
        <ele>1896.7</ele>
        <time>2026-07-14T10:10:33Z</time>
      </trkpt>
      <trkpt lat="45.19141" lon="5.96788">
        <ele>1896.9</ele>
        <time>2026-07-14T10:10:34Z</time>
      </trkpt>
      <trkpt lat="45.19142" lon="5.96789">
        <ele>1897.4</ele>
        <time>2026-07-14T10:10:36Z</time>
      </trkpt>
      <trkpt lat="45.19142" lon="5.96789">
        <ele>1897.6</ele>
        <time>2026-07-14T10:10:37Z</time>
      </trkpt>
      <trkpt lat="45.19143" lon="5.96789">
        <ele>1898</ele>
        <time>2026-07-14T10:10:39Z</time>
      </trkpt>
      <trkpt lat="45.19144" lon="5.96789">
        <ele>1898.1</ele>
        <time>2026-07-14T10:10:40Z</time>
      </trkpt>
      <trkpt lat="45.19144" lon="5.96789">
        <ele>1898.3</ele>
        <time>2026-07-14T10:10:42Z</time>
      </trkpt>
      <trkpt lat="45.19145" lon="5.96789">
        <ele>1898.6</ele>
        <time>2026-07-14T10:10:43Z</time>
      </trkpt>
      <trkpt lat="45.19146" lon="5.96789">
        <ele>1898.8</ele>
        <time>2026-07-14T10:10:44Z</time>
      </trkpt>
      <trkpt lat="45.19146" lon="5.96789">
        <ele>1898.9</ele>
        <time>2026-07-14T10:10:45Z</time>
      </trkpt>
      <trkpt lat="45.19147" lon="5.9679">
        <ele>1899.1</ele>
        <time>2026-07-14T10:10:46Z</time>
      </trkpt>
      <trkpt lat="45.19147" lon="5.9679">
        <ele>1899.2</ele>
        <time>2026-07-14T10:10:47Z</time>
      </trkpt>
      <trkpt lat="45.19148" lon="5.9679">
        <ele>1899.5</ele>
        <time>2026-07-14T10:10:48Z</time>
      </trkpt>
      <trkpt lat="45.19148" lon="5.9679">
        <ele>1899.6</ele>
        <time>2026-07-14T10:10:49Z</time>
      </trkpt>
      <trkpt lat="45.19148" lon="5.9679">
        <ele>1899.8</ele>
        <time>2026-07-14T10:10:50Z</time>
      </trkpt>
      <trkpt lat="45.19149" lon="5.9679">
        <ele>1899.9</ele>
        <time>2026-07-14T10:10:51Z</time>
      </trkpt>
      <trkpt lat="45.19149" lon="5.9679">
        <ele>1900.1</ele>
        <time>2026-07-14T10:10:52Z</time>
      </trkpt>
      <trkpt lat="45.1915" lon="5.9679">
        <ele>1900.2</ele>
        <time>2026-07-14T10:10:53Z</time>
      </trkpt>
      <trkpt lat="45.1915" lon="5.96789">
        <ele>1900.4</ele>
        <time>2026-07-14T10:10:54Z</time>
      </trkpt>
      <trkpt lat="45.19151" lon="5.96789">
        <ele>1900.7</ele>
        <time>2026-07-14T10:10:55Z</time>
      </trkpt>
      <trkpt lat="45.19151" lon="5.96789">
        <ele>1900.8</ele>
        <time>2026-07-14T10:10:56Z</time>
      </trkpt>
      <trkpt lat="45.19152" lon="5.96789">
        <ele>1901.1</ele>
        <time>2026-07-14T10:10:57Z</time>
      </trkpt>
      <trkpt lat="45.19153" lon="5.9679">
        <ele>1901.3</ele>
        <time>2026-07-14T10:10:58Z</time>
      </trkpt>
      <trkpt lat="45.19153" lon="5.9679">
        <ele>1901.4</ele>
        <time>2026-07-14T10:10:59Z</time>
      </trkpt>
      <trkpt lat="45.19154" lon="5.9679">
        <ele>1901.6</ele>
        <time>2026-07-14T10:11:00Z</time>
      </trkpt>
      <trkpt lat="45.19154" lon="5.9679">
        <ele>1901.8</ele>
        <time>2026-07-14T10:11:01Z</time>
      </trkpt>
      <trkpt lat="45.19154" lon="5.9679">
        <ele>1901.9</ele>
        <time>2026-07-14T10:11:02Z</time>
      </trkpt>
      <trkpt lat="45.19155" lon="5.96791">
        <ele>1902.1</ele>
        <time>2026-07-14T10:11:03Z</time>
      </trkpt>
      <trkpt lat="45.19156" lon="5.96792">
        <ele>1902.5</ele>
        <time>2026-07-14T10:11:05Z</time>
      </trkpt>
      <trkpt lat="45.19156" lon="5.96792">
        <ele>1902.6</ele>
        <time>2026-07-14T10:11:06Z</time>
      </trkpt>
      <trkpt lat="45.19157" lon="5.96792">
        <ele>1902.8</ele>
        <time>2026-07-14T10:11:07Z</time>
      </trkpt>
      <trkpt lat="45.19157" lon="5.96792">
        <ele>1903</ele>
        <time>2026-07-14T10:11:08Z</time>
      </trkpt>
      <trkpt lat="45.19158" lon="5.96792">
        <ele>1903.2</ele>
        <time>2026-07-14T10:11:09Z</time>
      </trkpt>
      <trkpt lat="45.19159" lon="5.96793">
        <ele>1903.7</ele>
        <time>2026-07-14T10:11:11Z</time>
      </trkpt>
      <trkpt lat="45.1916" lon="5.96793">
        <ele>1904.1</ele>
        <time>2026-07-14T10:11:13Z</time>
      </trkpt>
      <trkpt lat="45.19161" lon="5.96793">
        <ele>1904.2</ele>
        <time>2026-07-14T10:11:14Z</time>
      </trkpt>
      <trkpt lat="45.19161" lon="5.96793">
        <ele>1904.3</ele>
        <time>2026-07-14T10:11:15Z</time>
      </trkpt>
      <trkpt lat="45.19161" lon="5.96793">
        <ele>1904.4</ele>
        <time>2026-07-14T10:11:16Z</time>
      </trkpt>
      <trkpt lat="45.19162" lon="5.96793">
        <ele>1904.6</ele>
        <time>2026-07-14T10:11:17Z</time>
      </trkpt>
      <trkpt lat="45.19163" lon="5.96793">
        <ele>1904.9</ele>
        <time>2026-07-14T10:11:19Z</time>
      </trkpt>
      <trkpt lat="45.19163" lon="5.96793">
        <ele>1905.1</ele>
        <time>2026-07-14T10:11:20Z</time>
      </trkpt>
      <trkpt lat="45.19164" lon="5.96793">
        <ele>1905.2</ele>
        <time>2026-07-14T10:11:21Z</time>
      </trkpt>
      <trkpt lat="45.19164" lon="5.96793">
        <ele>1905.4</ele>
        <time>2026-07-14T10:11:22Z</time>
      </trkpt>
      <trkpt lat="45.19164" lon="5.96794">
        <ele>1905.6</ele>
        <time>2026-07-14T10:11:23Z</time>
      </trkpt>
      <trkpt lat="45.19165" lon="5.96794">
        <ele>1905.7</ele>
        <time>2026-07-14T10:11:24Z</time>
      </trkpt>
      <trkpt lat="45.19166" lon="5.96794">
        <ele>1905.9</ele>
        <time>2026-07-14T10:11:25Z</time>
      </trkpt>
      <trkpt lat="45.19166" lon="5.96794">
        <ele>1906.1</ele>
        <time>2026-07-14T10:11:26Z</time>
      </trkpt>
      <trkpt lat="45.19166" lon="5.96794">
        <ele>1906.2</ele>
        <time>2026-07-14T10:11:27Z</time>
      </trkpt>
      <trkpt lat="45.19167" lon="5.96794">
        <ele>1906.4</ele>
        <time>2026-07-14T10:11:28Z</time>
      </trkpt>
      <trkpt lat="45.19167" lon="5.96794">
        <ele>1906.6</ele>
        <time>2026-07-14T10:11:29Z</time>
      </trkpt>
      <trkpt lat="45.19168" lon="5.96795">
        <ele>1906.7</ele>
        <time>2026-07-14T10:11:30Z</time>
      </trkpt>
      <trkpt lat="45.19168" lon="5.96795">
        <ele>1906.9</ele>
        <time>2026-07-14T10:11:31Z</time>
      </trkpt>
      <trkpt lat="45.19169" lon="5.96795">
        <ele>1907.1</ele>
        <time>2026-07-14T10:11:32Z</time>
      </trkpt>
      <trkpt lat="45.19169" lon="5.96795">
        <ele>1907.3</ele>
        <time>2026-07-14T10:11:33Z</time>
      </trkpt>
      <trkpt lat="45.1917" lon="5.96796">
        <ele>1907.6</ele>
        <time>2026-07-14T10:11:35Z</time>
      </trkpt>
      <trkpt lat="45.1917" lon="5.96796">
        <ele>1907.8</ele>
        <time>2026-07-14T10:11:36Z</time>
      </trkpt>
      <trkpt lat="45.19171" lon="5.96797">
        <ele>1908</ele>
        <time>2026-07-14T10:11:37Z</time>
      </trkpt>
      <trkpt lat="45.19171" lon="5.96797">
        <ele>1908.2</ele>
        <time>2026-07-14T10:11:38Z</time>
      </trkpt>
      <trkpt lat="45.19172" lon="5.96797">
        <ele>1908.4</ele>
        <time>2026-07-14T10:11:39Z</time>
      </trkpt>
      <trkpt lat="45.19172" lon="5.96797">
        <ele>1908.6</ele>
        <time>2026-07-14T10:11:40Z</time>
      </trkpt>
      <trkpt lat="45.19173" lon="5.96797">
        <ele>1908.7</ele>
        <time>2026-07-14T10:11:41Z</time>
      </trkpt>
      <trkpt lat="45.19173" lon="5.96798">
        <ele>1909</ele>
        <time>2026-07-14T10:11:43Z</time>
      </trkpt>
      <trkpt lat="45.19175" lon="5.96797">
        <ele>1909.4</ele>
        <time>2026-07-14T10:11:45Z</time>
      </trkpt>
      <trkpt lat="45.19175" lon="5.96797">
        <ele>1909.6</ele>
        <time>2026-07-14T10:11:46Z</time>
      </trkpt>
      <trkpt lat="45.19176" lon="5.96798">
        <ele>1910</ele>
        <time>2026-07-14T10:11:48Z</time>
      </trkpt>
      <trkpt lat="45.19177" lon="5.96798">
        <ele>1910.2</ele>
        <time>2026-07-14T10:11:49Z</time>
      </trkpt>
      <trkpt lat="45.19177" lon="5.96798">
        <ele>1910.4</ele>
        <time>2026-07-14T10:11:50Z</time>
      </trkpt>
      <trkpt lat="45.19178" lon="5.96798">
        <ele>1910.6</ele>
        <time>2026-07-14T10:11:51Z</time>
      </trkpt>
      <trkpt lat="45.19178" lon="5.96799">
        <ele>1910.8</ele>
        <time>2026-07-14T10:11:52Z</time>
      </trkpt>
      <trkpt lat="45.19178" lon="5.96799">
        <ele>1910.9</ele>
        <time>2026-07-14T10:11:53Z</time>
      </trkpt>
      <trkpt lat="45.19179" lon="5.96799">
        <ele>1911</ele>
        <time>2026-07-14T10:11:54Z</time>
      </trkpt>
      <trkpt lat="45.19179" lon="5.96799">
        <ele>1911.2</ele>
        <time>2026-07-14T10:11:55Z</time>
      </trkpt>
      <trkpt lat="45.1918" lon="5.968">
        <ele>1911.5</ele>
        <time>2026-07-14T10:11:56Z</time>
      </trkpt>
      <trkpt lat="45.1918" lon="5.968">
        <ele>1911.7</ele>
        <time>2026-07-14T10:11:57Z</time>
      </trkpt>
      <trkpt lat="45.1918" lon="5.968">
        <ele>1911.9</ele>
        <time>2026-07-14T10:11:58Z</time>
      </trkpt>
      <trkpt lat="45.19181" lon="5.96801">
        <ele>1912.1</ele>
        <time>2026-07-14T10:11:59Z</time>
      </trkpt>
      <trkpt lat="45.19181" lon="5.96802">
        <ele>1912.3</ele>
        <time>2026-07-14T10:12:00Z</time>
      </trkpt>
      <trkpt lat="45.19181" lon="5.96803">
        <ele>1912.5</ele>
        <time>2026-07-14T10:12:01Z</time>
      </trkpt>
      <trkpt lat="45.19182" lon="5.96804">
        <ele>1913</ele>
        <time>2026-07-14T10:12:03Z</time>
      </trkpt>
      <trkpt lat="45.19182" lon="5.96804">
        <ele>1913.1</ele>
        <time>2026-07-14T10:12:04Z</time>
      </trkpt>
      <trkpt lat="45.19182" lon="5.96805">
        <ele>1913.4</ele>
        <time>2026-07-14T10:12:05Z</time>
      </trkpt>
      <trkpt lat="45.19183" lon="5.96806">
        <ele>1913.7</ele>
        <time>2026-07-14T10:12:07Z</time>
      </trkpt>
      <trkpt lat="45.19183" lon="5.96806">
        <ele>1913.9</ele>
        <time>2026-07-14T10:12:08Z</time>
      </trkpt>
      <trkpt lat="45.19184" lon="5.96805">
        <ele>1914.1</ele>
        <time>2026-07-14T10:12:09Z</time>
      </trkpt>
      <trkpt lat="45.19184" lon="5.96805">
        <ele>1914.3</ele>
        <time>2026-07-14T10:12:10Z</time>
      </trkpt>
      <trkpt lat="45.19185" lon="5.96805">
        <ele>1914.5</ele>
        <time>2026-07-14T10:12:11Z</time>
      </trkpt>
      <trkpt lat="45.19185" lon="5.96805">
        <ele>1914.8</ele>
        <time>2026-07-14T10:12:13Z</time>
      </trkpt>
      <trkpt lat="45.19186" lon="5.96805">
        <ele>1915</ele>
        <time>2026-07-14T10:12:15Z</time>
      </trkpt>
      <trkpt lat="45.19186" lon="5.96807">
        <ele>1915.3</ele>
        <time>2026-07-14T10:12:16Z</time>
      </trkpt>
      <trkpt lat="45.19186" lon="5.96807">
        <ele>1915.5</ele>
        <time>2026-07-14T10:12:17Z</time>
      </trkpt>
      <trkpt lat="45.19187" lon="5.96808">
        <ele>1915.8</ele>
        <time>2026-07-14T10:12:19Z</time>
      </trkpt>
      <trkpt lat="45.19188" lon="5.96807">
        <ele>1916.1</ele>
        <time>2026-07-14T10:12:20Z</time>
      </trkpt>
      <trkpt lat="45.19188" lon="5.96807">
        <ele>1916.3</ele>
        <time>2026-07-14T10:12:21Z</time>
      </trkpt>
      <trkpt lat="45.19188" lon="5.96807">
        <ele>1916.4</ele>
        <time>2026-07-14T10:12:23Z</time>
      </trkpt>
      <trkpt lat="45.19189" lon="5.96807">
        <ele>1916.7</ele>
        <time>2026-07-14T10:12:24Z</time>
      </trkpt>
      <trkpt lat="45.1919" lon="5.96807">
        <ele>1916.9</ele>
        <time>2026-07-14T10:12:25Z</time>
      </trkpt>
      <trkpt lat="45.1919" lon="5.96807">
        <ele>1917.2</ele>
        <time>2026-07-14T10:12:26Z</time>
      </trkpt>
      <trkpt lat="45.19191" lon="5.96807">
        <ele>1917.4</ele>
        <time>2026-07-14T10:12:27Z</time>
      </trkpt>
      <trkpt lat="45.19191" lon="5.96807">
        <ele>1917.6</ele>
        <time>2026-07-14T10:12:28Z</time>
      </trkpt>
      <trkpt lat="45.19192" lon="5.96808">
        <ele>1917.9</ele>
        <time>2026-07-14T10:12:30Z</time>
      </trkpt>
      <trkpt lat="45.19192" lon="5.96808">
        <ele>1918</ele>
        <time>2026-07-14T10:12:31Z</time>
      </trkpt>
      <trkpt lat="45.19192" lon="5.96809">
        <ele>1918.3</ele>
        <time>2026-07-14T10:12:33Z</time>
      </trkpt>
      <trkpt lat="45.19193" lon="5.96809">
        <ele>1918.5</ele>
        <time>2026-07-14T10:12:34Z</time>
      </trkpt>
      <trkpt lat="45.19193" lon="5.96809">
        <ele>1918.7</ele>
        <time>2026-07-14T10:12:35Z</time>
      </trkpt>
      <trkpt lat="45.19194" lon="5.9681">
        <ele>1918.9</ele>
        <time>2026-07-14T10:12:36Z</time>
      </trkpt>
      <trkpt lat="45.19194" lon="5.9681">
        <ele>1919.1</ele>
        <time>2026-07-14T10:12:37Z</time>
      </trkpt>
      <trkpt lat="45.19194" lon="5.96811">
        <ele>1919.3</ele>
        <time>2026-07-14T10:12:38Z</time>
      </trkpt>
      <trkpt lat="45.19193" lon="5.96812">
        <ele>1919.7</ele>
        <time>2026-07-14T10:12:40Z</time>
      </trkpt>
      <trkpt lat="45.19193" lon="5.96812">
        <ele>1919.8</ele>
        <time>2026-07-14T10:12:41Z</time>
      </trkpt>
      <trkpt lat="45.19193" lon="5.96813">
        <ele>1920</ele>
        <time>2026-07-14T10:12:42Z</time>
      </trkpt>
      <trkpt lat="45.19193" lon="5.96813">
        <ele>1920.2</ele>
        <time>2026-07-14T10:12:43Z</time>
      </trkpt>
      <trkpt lat="45.19192" lon="5.96813">
        <ele>1920.3</ele>
        <time>2026-07-14T10:12:44Z</time>
      </trkpt>
      <trkpt lat="45.19191" lon="5.96814">
        <ele>1920.9</ele>
        <time>2026-07-14T10:12:46Z</time>
      </trkpt>
      <trkpt lat="45.19191" lon="5.96815">
        <ele>1921.1</ele>
        <time>2026-07-14T10:12:47Z</time>
      </trkpt>
      <trkpt lat="45.1919" lon="5.96815">
        <ele>1921.3</ele>
        <time>2026-07-14T10:12:48Z</time>
      </trkpt>
      <trkpt lat="45.1919" lon="5.96816">
        <ele>1921.6</ele>
        <time>2026-07-14T10:12:50Z</time>
      </trkpt>
      <trkpt lat="45.1919" lon="5.96816">
        <ele>1921.7</ele>
        <time>2026-07-14T10:12:51Z</time>
      </trkpt>
      <trkpt lat="45.1919" lon="5.96817">
        <ele>1921.9</ele>
        <time>2026-07-14T10:12:52Z</time>
      </trkpt>
      <trkpt lat="45.1919" lon="5.96817">
        <ele>1922.1</ele>
        <time>2026-07-14T10:12:53Z</time>
      </trkpt>
      <trkpt lat="45.1919" lon="5.96818">
        <ele>1922.2</ele>
        <time>2026-07-14T10:12:54Z</time>
      </trkpt>
      <trkpt lat="45.1919" lon="5.96818">
        <ele>1922.4</ele>
        <time>2026-07-14T10:12:55Z</time>
      </trkpt>
      <trkpt lat="45.1919" lon="5.96819">
        <ele>1922.5</ele>
        <time>2026-07-14T10:12:56Z</time>
      </trkpt>
      <trkpt lat="45.19189" lon="5.96819">
        <ele>1922.7</ele>
        <time>2026-07-14T10:12:57Z</time>
      </trkpt>
      <trkpt lat="45.19189" lon="5.9682">
        <ele>1922.9</ele>
        <time>2026-07-14T10:12:58Z</time>
      </trkpt>
      <trkpt lat="45.19189" lon="5.9682">
        <ele>1923.2</ele>
        <time>2026-07-14T10:12:59Z</time>
      </trkpt>
      <trkpt lat="45.19188" lon="5.96821">
        <ele>1923.3</ele>
        <time>2026-07-14T10:13:00Z</time>
      </trkpt>
      <trkpt lat="45.19188" lon="5.96821">
        <ele>1923.7</ele>
        <time>2026-07-14T10:13:01Z</time>
      </trkpt>
      <trkpt lat="45.19187" lon="5.96821">
        <ele>1923.8</ele>
        <time>2026-07-14T10:13:02Z</time>
      </trkpt>
      <trkpt lat="45.19187" lon="5.96822">
        <ele>1924</ele>
        <time>2026-07-14T10:13:03Z</time>
      </trkpt>
      <trkpt lat="45.19186" lon="5.96822">
        <ele>1924.3</ele>
        <time>2026-07-14T10:13:04Z</time>
      </trkpt>
      <trkpt lat="45.19186" lon="5.96822">
        <ele>1924.4</ele>
        <time>2026-07-14T10:13:05Z</time>
      </trkpt>
      <trkpt lat="45.19186" lon="5.96823">
        <ele>1924.6</ele>
        <time>2026-07-14T10:13:06Z</time>
      </trkpt>
      <trkpt lat="45.19186" lon="5.96823">
        <ele>1924.6</ele>
        <time>2026-07-14T10:13:07Z</time>
      </trkpt>
      <trkpt lat="45.19185" lon="5.96823">
        <ele>1924.8</ele>
        <time>2026-07-14T10:13:08Z</time>
      </trkpt>
      <trkpt lat="45.19185" lon="5.96823">
        <ele>1924.9</ele>
        <time>2026-07-14T10:13:09Z</time>
      </trkpt>
      <trkpt lat="45.19185" lon="5.96823">
        <ele>1925</ele>
        <time>2026-07-14T10:13:10Z</time>
      </trkpt>
      <trkpt lat="45.19184" lon="5.96824">
        <ele>1925.3</ele>
        <time>2026-07-14T10:13:11Z</time>
      </trkpt>
      <trkpt lat="45.19184" lon="5.96824">
        <ele>1925.4</ele>
        <time>2026-07-14T10:13:12Z</time>
      </trkpt>
      <trkpt lat="45.19185" lon="5.96825">
        <ele>1925.7</ele>
        <time>2026-07-14T10:13:13Z</time>
      </trkpt>
      <trkpt lat="45.19185" lon="5.96825">
        <ele>1925.8</ele>
        <time>2026-07-14T10:13:14Z</time>
      </trkpt>
      <trkpt lat="45.19185" lon="5.96825">
        <ele>1925.9</ele>
        <time>2026-07-14T10:13:15Z</time>
      </trkpt>
      <trkpt lat="45.19185" lon="5.96825">
        <ele>1926</ele>
        <time>2026-07-14T10:13:17Z</time>
      </trkpt>
      <trkpt lat="45.19185" lon="5.96824">
        <ele>1926.1</ele>
        <time>2026-07-14T10:13:19Z</time>
      </trkpt>
      <trkpt lat="45.19185" lon="5.96824">
        <ele>1926.2</ele>
        <time>2026-07-14T10:13:20Z</time>
      </trkpt>
      <trkpt lat="45.19184" lon="5.96824">
        <ele>1926.2</ele>
        <time>2026-07-14T10:13:21Z</time>
      </trkpt>
      <trkpt lat="45.19184" lon="5.96824">
        <ele>1926.2</ele>
        <time>2026-07-14T10:13:22Z</time>
      </trkpt>
      <trkpt lat="45.19184" lon="5.96824">
        <ele>1926.2</ele>
        <time>2026-07-14T10:13:23Z</time>
      </trkpt>
      <trkpt lat="45.19184" lon="5.96824">
        <ele>1926.3</ele>
        <time>2026-07-14T10:13:24Z</time>
      </trkpt>
      <trkpt lat="45.19184" lon="5.96824">
        <ele>1926.3</ele>
        <time>2026-07-14T10:13:25Z</time>
      </trkpt>
      <trkpt lat="45.19184" lon="5.96824">
        <ele>1926.3</ele>
        <time>2026-07-14T10:13:26Z</time>
      </trkpt>
      <trkpt lat="45.19184" lon="5.96824">
        <ele>1926.4</ele>
        <time>2026-07-14T10:13:27Z</time>
      </trkpt>
      <trkpt lat="45.19184" lon="5.96824">
        <ele>1926.4</ele>
        <time>2026-07-14T10:13:28Z</time>
      </trkpt>
      <trkpt lat="45.19184" lon="5.96825">
        <ele>1926.4</ele>
        <time>2026-07-14T10:13:29Z</time>
      </trkpt>
      <trkpt lat="45.19184" lon="5.96825">
        <ele>1926.4</ele>
        <time>2026-07-14T10:13:30Z</time>
      </trkpt>
      <trkpt lat="45.19184" lon="5.96825">
        <ele>1926.4</ele>
        <time>2026-07-14T10:13:31Z</time>
      </trkpt>
      <trkpt lat="45.19184" lon="5.96825">
        <ele>1926.4</ele>
        <time>2026-07-14T10:13:32Z</time>
      </trkpt>
      <trkpt lat="45.19184" lon="5.96825">
        <ele>1926.5</ele>
        <time>2026-07-14T10:13:33Z</time>
      </trkpt>
      <trkpt lat="45.19184" lon="5.96825">
        <ele>1926.5</ele>
        <time>2026-07-14T10:13:34Z</time>
      </trkpt>
      <trkpt lat="45.19184" lon="5.96825">
        <ele>1926.5</ele>
        <time>2026-07-14T10:13:35Z</time>
      </trkpt>
      <trkpt lat="45.19184" lon="5.96825">
        <ele>1926.5</ele>
        <time>2026-07-14T10:13:36Z</time>
      </trkpt>
      <trkpt lat="45.19184" lon="5.96825">
        <ele>1926.6</ele>
        <time>2026-07-14T10:13:37Z</time>
      </trkpt>
      <trkpt lat="45.19184" lon="5.96825">
        <ele>1926.6</ele>
        <time>2026-07-14T10:13:38Z</time>
      </trkpt>
      <trkpt lat="45.19184" lon="5.96825">
        <ele>1926.6</ele>
        <time>2026-07-14T10:13:39Z</time>
      </trkpt>
      <trkpt lat="45.19184" lon="5.96825">
        <ele>1926.6</ele>
        <time>2026-07-14T10:13:40Z</time>
      </trkpt>
      <trkpt lat="45.19184" lon="5.96824">
        <ele>1926.6</ele>
        <time>2026-07-14T10:13:41Z</time>
      </trkpt>
      <trkpt lat="45.19184" lon="5.96824">
        <ele>1926.6</ele>
        <time>2026-07-14T10:13:43Z</time>
      </trkpt>
      <trkpt lat="45.19184" lon="5.96824">
        <ele>1926.6</ele>
        <time>2026-07-14T10:13:44Z</time>
      </trkpt>
      <trkpt lat="45.19184" lon="5.96824">
        <ele>1926.6</ele>
        <time>2026-07-14T10:13:45Z</time>
      </trkpt>
      <trkpt lat="45.19184" lon="5.96824">
        <ele>1926.6</ele>
        <time>2026-07-14T10:13:46Z</time>
      </trkpt>
      <trkpt lat="45.19184" lon="5.96824">
        <ele>1926.6</ele>
        <time>2026-07-14T10:13:47Z</time>
      </trkpt>
      <trkpt lat="45.19184" lon="5.96824">
        <ele>1926.6</ele>
        <time>2026-07-14T10:13:49Z</time>
      </trkpt>
      <trkpt lat="45.19184" lon="5.96824">
        <ele>1926.6</ele>
        <time>2026-07-14T10:13:50Z</time>
      </trkpt>
      <trkpt lat="45.19184" lon="5.96824">
        <ele>1926.6</ele>
        <time>2026-07-14T10:13:51Z</time>
      </trkpt>
      <trkpt lat="45.19184" lon="5.96824">
        <ele>1926.6</ele>
        <time>2026-07-14T10:13:52Z</time>
      </trkpt>
      <trkpt lat="45.19184" lon="5.96824">
        <ele>1926.6</ele>
        <time>2026-07-14T10:13:53Z</time>
      </trkpt>
      <trkpt lat="45.19184" lon="5.96824">
        <ele>1926.6</ele>
        <time>2026-07-14T10:13:54Z</time>
      </trkpt>
      <trkpt lat="45.19184" lon="5.96824">
        <ele>1926.7</ele>
        <time>2026-07-14T10:13:55Z</time>
      </trkpt>
      <trkpt lat="45.19184" lon="5.96824">
        <ele>1926.7</ele>
        <time>2026-07-14T10:13:56Z</time>
      </trkpt>
      <trkpt lat="45.19184" lon="5.96824">
        <ele>1926.7</ele>
        <time>2026-07-14T10:13:57Z</time>
      </trkpt>
      <trkpt lat="45.19184" lon="5.96824">
        <ele>1926.7</ele>
        <time>2026-07-14T10:13:58Z</time>
      </trkpt>
      <trkpt lat="45.19184" lon="5.96824">
        <ele>1926.7</ele>
        <time>2026-07-14T10:13:59Z</time>
      </trkpt>
      <trkpt lat="45.19184" lon="5.96824">
        <ele>1926.7</ele>
        <time>2026-07-14T10:14:00Z</time>
      </trkpt>
      <trkpt lat="45.19184" lon="5.96824">
        <ele>1926.7</ele>
        <time>2026-07-14T10:14:02Z</time>
      </trkpt>
      <trkpt lat="45.19184" lon="5.96824">
        <ele>1926.7</ele>
        <time>2026-07-14T10:14:03Z</time>
      </trkpt>
      <trkpt lat="45.19184" lon="5.96824">
        <ele>1926.7</ele>
        <time>2026-07-14T10:14:05Z</time>
      </trkpt>
      <trkpt lat="45.19184" lon="5.96824">
        <ele>1926.7</ele>
        <time>2026-07-14T10:14:06Z</time>
      </trkpt>
      <trkpt lat="45.19184" lon="5.96824">
        <ele>1926.7</ele>
        <time>2026-07-14T10:14:07Z</time>
      </trkpt>
      <trkpt lat="45.19184" lon="5.96824">
        <ele>1926.7</ele>
        <time>2026-07-14T10:14:08Z</time>
      </trkpt>
      <trkpt lat="45.19184" lon="5.96824">
        <ele>1926.7</ele>
        <time>2026-07-14T10:14:10Z</time>
      </trkpt>
      <trkpt lat="45.19184" lon="5.96824">
        <ele>1926.7</ele>
        <time>2026-07-14T10:14:11Z</time>
      </trkpt>
      <trkpt lat="45.19184" lon="5.96824">
        <ele>1926.7</ele>
        <time>2026-07-14T10:14:13Z</time>
      </trkpt>
      <trkpt lat="45.19184" lon="5.96824">
        <ele>1926.7</ele>
        <time>2026-07-14T10:14:15Z</time>
      </trkpt>
      <trkpt lat="45.19184" lon="5.96824">
        <ele>1926.7</ele>
        <time>2026-07-14T10:14:16Z</time>
      </trkpt>
      <trkpt lat="45.19184" lon="5.96824">
        <ele>1926.7</ele>
        <time>2026-07-14T10:14:17Z</time>
      </trkpt>
      <trkpt lat="45.19184" lon="5.96824">
        <ele>1926.7</ele>
        <time>2026-07-14T10:14:18Z</time>
      </trkpt>
      <trkpt lat="45.19184" lon="5.96824">
        <ele>1926.7</ele>
        <time>2026-07-14T10:14:19Z</time>
      </trkpt>
      <trkpt lat="45.19184" lon="5.96824">
        <ele>1926.7</ele>
        <time>2026-07-14T10:14:20Z</time>
      </trkpt>
      <trkpt lat="45.19184" lon="5.96824">
        <ele>1926.7</ele>
        <time>2026-07-14T10:14:21Z</time>
      </trkpt>
      <trkpt lat="45.19184" lon="5.96824">
        <ele>1926.7</ele>
        <time>2026-07-14T10:14:22Z</time>
      </trkpt>
      <trkpt lat="45.19184" lon="5.96824">
        <ele>1926.7</ele>
        <time>2026-07-14T10:14:23Z</time>
      </trkpt>
      <trkpt lat="45.19184" lon="5.96824">
        <ele>1926.7</ele>
        <time>2026-07-14T10:14:24Z</time>
      </trkpt>
      <trkpt lat="45.19184" lon="5.96824">
        <ele>1926.7</ele>
        <time>2026-07-14T10:14:25Z</time>
      </trkpt>
      <trkpt lat="45.19184" lon="5.96824">
        <ele>1926.7</ele>
        <time>2026-07-14T10:14:26Z</time>
      </trkpt>
      <trkpt lat="45.19184" lon="5.96824">
        <ele>1926.7</ele>
        <time>2026-07-14T10:14:27Z</time>
      </trkpt>
      <trkpt lat="45.19184" lon="5.96824">
        <ele>1926.7</ele>
        <time>2026-07-14T10:14:28Z</time>
      </trkpt>
      <trkpt lat="45.19184" lon="5.96824">
        <ele>1926.7</ele>
        <time>2026-07-14T10:14:30Z</time>
      </trkpt>
      <trkpt lat="45.19184" lon="5.96824">
        <ele>1926.8</ele>
        <time>2026-07-14T10:14:32Z</time>
      </trkpt>
      <trkpt lat="45.19184" lon="5.96824">
        <ele>1926.8</ele>
        <time>2026-07-14T10:14:33Z</time>
      </trkpt>
      <trkpt lat="45.19184" lon="5.96824">
        <ele>1926.8</ele>
        <time>2026-07-14T10:14:34Z</time>
      </trkpt>
      <trkpt lat="45.19184" lon="5.96824">
        <ele>1926.8</ele>
        <time>2026-07-14T10:14:35Z</time>
      </trkpt>
      <trkpt lat="45.19184" lon="5.96824">
        <ele>1926.8</ele>
        <time>2026-07-14T10:14:36Z</time>
      </trkpt>
      <trkpt lat="45.19184" lon="5.96824">
        <ele>1926.8</ele>
        <time>2026-07-14T10:14:37Z</time>
      </trkpt>
      <trkpt lat="45.19184" lon="5.96824">
        <ele>1926.8</ele>
        <time>2026-07-14T10:14:38Z</time>
      </trkpt>
      <trkpt lat="45.19184" lon="5.96824">
        <ele>1926.8</ele>
        <time>2026-07-14T10:14:39Z</time>
      </trkpt>
      <trkpt lat="45.19184" lon="5.96824">
        <ele>1926.8</ele>
        <time>2026-07-14T10:14:40Z</time>
      </trkpt>
      <trkpt lat="45.19184" lon="5.96824">
        <ele>1926.9</ele>
        <time>2026-07-14T10:14:41Z</time>
      </trkpt>
      <trkpt lat="45.19184" lon="5.96824">
        <ele>1926.9</ele>
        <time>2026-07-14T10:14:42Z</time>
      </trkpt>
      <trkpt lat="45.19184" lon="5.96824">
        <ele>1926.9</ele>
        <time>2026-07-14T10:14:43Z</time>
      </trkpt>
      <trkpt lat="45.19184" lon="5.96824">
        <ele>1926.9</ele>
        <time>2026-07-14T10:14:44Z</time>
      </trkpt>
      <trkpt lat="45.19184" lon="5.96825">
        <ele>1927</ele>
        <time>2026-07-14T10:14:45Z</time>
      </trkpt>
      <trkpt lat="45.19184" lon="5.96825">
        <ele>1927.2</ele>
        <time>2026-07-14T10:14:46Z</time>
      </trkpt>
      <trkpt lat="45.19185" lon="5.96826">
        <ele>1927.5</ele>
        <time>2026-07-14T10:14:47Z</time>
      </trkpt>
      <trkpt lat="45.19185" lon="5.96827">
        <ele>1927.8</ele>
        <time>2026-07-14T10:14:48Z</time>
      </trkpt>
      <trkpt lat="45.19186" lon="5.96828">
        <ele>1928.1</ele>
        <time>2026-07-14T10:14:49Z</time>
      </trkpt>
      <trkpt lat="45.19186" lon="5.96828">
        <ele>1928.3</ele>
        <time>2026-07-14T10:14:50Z</time>
      </trkpt>
      <trkpt lat="45.19187" lon="5.96828">
        <ele>1928.5</ele>
        <time>2026-07-14T10:14:51Z</time>
      </trkpt>
      <trkpt lat="45.19187" lon="5.96828">
        <ele>1928.7</ele>
        <time>2026-07-14T10:14:52Z</time>
      </trkpt>
      <trkpt lat="45.19188" lon="5.96828">
        <ele>1928.9</ele>
        <time>2026-07-14T10:14:53Z</time>
      </trkpt>
      <trkpt lat="45.19188" lon="5.96828">
        <ele>1929.1</ele>
        <time>2026-07-14T10:14:54Z</time>
      </trkpt>
      <trkpt lat="45.19188" lon="5.96828">
        <ele>1929.2</ele>
        <time>2026-07-14T10:14:55Z</time>
      </trkpt>
      <trkpt lat="45.19189" lon="5.96828">
        <ele>1929.4</ele>
        <time>2026-07-14T10:14:56Z</time>
      </trkpt>
      <trkpt lat="45.19189" lon="5.96829">
        <ele>1929.5</ele>
        <time>2026-07-14T10:14:57Z</time>
      </trkpt>
      <trkpt lat="45.19189" lon="5.96829">
        <ele>1929.7</ele>
        <time>2026-07-14T10:14:58Z</time>
      </trkpt>
      <trkpt lat="45.1919" lon="5.96829">
        <ele>1929.8</ele>
        <time>2026-07-14T10:14:59Z</time>
      </trkpt>
      <trkpt lat="45.1919" lon="5.9683">
        <ele>1930</ele>
        <time>2026-07-14T10:15:00Z</time>
      </trkpt>
      <trkpt lat="45.1919" lon="5.9683">
        <ele>1930.1</ele>
        <time>2026-07-14T10:15:01Z</time>
      </trkpt>
      <trkpt lat="45.1919" lon="5.9683">
        <ele>1930.2</ele>
        <time>2026-07-14T10:15:02Z</time>
      </trkpt>
      <trkpt lat="45.19191" lon="5.9683">
        <ele>1930.4</ele>
        <time>2026-07-14T10:15:03Z</time>
      </trkpt>
      <trkpt lat="45.19191" lon="5.9683">
        <ele>1930.5</ele>
        <time>2026-07-14T10:15:04Z</time>
      </trkpt>
      <trkpt lat="45.19191" lon="5.9683">
        <ele>1930.6</ele>
        <time>2026-07-14T10:15:05Z</time>
      </trkpt>
      <trkpt lat="45.19192" lon="5.9683">
        <ele>1930.8</ele>
        <time>2026-07-14T10:15:06Z</time>
      </trkpt>
      <trkpt lat="45.19192" lon="5.96831">
        <ele>1931.1</ele>
        <time>2026-07-14T10:15:08Z</time>
      </trkpt>
      <trkpt lat="45.19192" lon="5.96831">
        <ele>1931.2</ele>
        <time>2026-07-14T10:15:09Z</time>
      </trkpt>
      <trkpt lat="45.19192" lon="5.96831">
        <ele>1931.2</ele>
        <time>2026-07-14T10:15:10Z</time>
      </trkpt>
      <trkpt lat="45.19192" lon="5.96831">
        <ele>1931.3</ele>
        <time>2026-07-14T10:15:11Z</time>
      </trkpt>
      <trkpt lat="45.19192" lon="5.9683">
        <ele>1931.5</ele>
        <time>2026-07-14T10:15:13Z</time>
      </trkpt>
      <trkpt lat="45.19193" lon="5.9683">
        <ele>1931.6</ele>
        <time>2026-07-14T10:15:14Z</time>
      </trkpt>
      <trkpt lat="45.19193" lon="5.96831">
        <ele>1931.7</ele>
        <time>2026-07-14T10:15:15Z</time>
      </trkpt>
      <trkpt lat="45.19193" lon="5.96831">
        <ele>1931.9</ele>
        <time>2026-07-14T10:15:16Z</time>
      </trkpt>
      <trkpt lat="45.19194" lon="5.96832">
        <ele>1932.3</ele>
        <time>2026-07-14T10:15:18Z</time>
      </trkpt>
      <trkpt lat="45.19194" lon="5.96832">
        <ele>1932.5</ele>
        <time>2026-07-14T10:15:19Z</time>
      </trkpt>
      <trkpt lat="45.19195" lon="5.96832">
        <ele>1932.7</ele>
        <time>2026-07-14T10:15:20Z</time>
      </trkpt>
      <trkpt lat="45.19195" lon="5.96833">
        <ele>1933</ele>
        <time>2026-07-14T10:15:22Z</time>
      </trkpt>
      <trkpt lat="45.19196" lon="5.96833">
        <ele>1933.3</ele>
        <time>2026-07-14T10:15:24Z</time>
      </trkpt>
      <trkpt lat="45.19197" lon="5.96834">
        <ele>1933.6</ele>
        <time>2026-07-14T10:15:26Z</time>
      </trkpt>
      <trkpt lat="45.19197" lon="5.96834">
        <ele>1933.8</ele>
        <time>2026-07-14T10:15:27Z</time>
      </trkpt>
      <trkpt lat="45.19198" lon="5.96835">
        <ele>1934.1</ele>
        <time>2026-07-14T10:15:28Z</time>
      </trkpt>
      <trkpt lat="45.19198" lon="5.96835">
        <ele>1934.2</ele>
        <time>2026-07-14T10:15:29Z</time>
      </trkpt>
      <trkpt lat="45.19198" lon="5.96835">
        <ele>1934.4</ele>
        <time>2026-07-14T10:15:30Z</time>
      </trkpt>
      <trkpt lat="45.19199" lon="5.96835">
        <ele>1934.5</ele>
        <time>2026-07-14T10:15:31Z</time>
      </trkpt>
      <trkpt lat="45.19199" lon="5.96835">
        <ele>1934.6</ele>
        <time>2026-07-14T10:15:32Z</time>
      </trkpt>
      <trkpt lat="45.192" lon="5.96836">
        <ele>1934.8</ele>
        <time>2026-07-14T10:15:34Z</time>
      </trkpt>
      <trkpt lat="45.192" lon="5.96836">
        <ele>1935</ele>
        <time>2026-07-14T10:15:35Z</time>
      </trkpt>
      <trkpt lat="45.19201" lon="5.96836">
        <ele>1935.2</ele>
        <time>2026-07-14T10:15:37Z</time>
      </trkpt>
      <trkpt lat="45.19201" lon="5.96836">
        <ele>1935.4</ele>
        <time>2026-07-14T10:15:38Z</time>
      </trkpt>
      <trkpt lat="45.19201" lon="5.96837">
        <ele>1935.6</ele>
        <time>2026-07-14T10:15:39Z</time>
      </trkpt>
      <trkpt lat="45.19202" lon="5.96837">
        <ele>1935.8</ele>
        <time>2026-07-14T10:15:40Z</time>
      </trkpt>
      <trkpt lat="45.19202" lon="5.96837">
        <ele>1936</ele>
        <time>2026-07-14T10:15:42Z</time>
      </trkpt>
      <trkpt lat="45.19203" lon="5.96838">
        <ele>1936.2</ele>
        <time>2026-07-14T10:15:43Z</time>
      </trkpt>
      <trkpt lat="45.19203" lon="5.96838">
        <ele>1936.4</ele>
        <time>2026-07-14T10:15:44Z</time>
      </trkpt>
      <trkpt lat="45.19204" lon="5.96838">
        <ele>1936.6</ele>
        <time>2026-07-14T10:15:45Z</time>
      </trkpt>
      <trkpt lat="45.19205" lon="5.96838">
        <ele>1936.9</ele>
        <time>2026-07-14T10:15:46Z</time>
      </trkpt>
      <trkpt lat="45.19205" lon="5.96838">
        <ele>1937</ele>
        <time>2026-07-14T10:15:48Z</time>
      </trkpt>
      <trkpt lat="45.19206" lon="5.96839">
        <ele>1937.4</ele>
        <time>2026-07-14T10:15:49Z</time>
      </trkpt>
      <trkpt lat="45.19206" lon="5.96839">
        <ele>1937.6</ele>
        <time>2026-07-14T10:15:50Z</time>
      </trkpt>
      <trkpt lat="45.19207" lon="5.9684">
        <ele>1938</ele>
        <time>2026-07-14T10:15:52Z</time>
      </trkpt>
      <trkpt lat="45.19208" lon="5.9684">
        <ele>1938.2</ele>
        <time>2026-07-14T10:15:53Z</time>
      </trkpt>
      <trkpt lat="45.19208" lon="5.9684">
        <ele>1938.4</ele>
        <time>2026-07-14T10:15:54Z</time>
      </trkpt>
      <trkpt lat="45.19209" lon="5.9684">
        <ele>1938.6</ele>
        <time>2026-07-14T10:15:55Z</time>
      </trkpt>
      <trkpt lat="45.19209" lon="5.9684">
        <ele>1938.7</ele>
        <time>2026-07-14T10:15:56Z</time>
      </trkpt>
      <trkpt lat="45.19209" lon="5.9684">
        <ele>1938.8</ele>
        <time>2026-07-14T10:15:57Z</time>
      </trkpt>
      <trkpt lat="45.19209" lon="5.96841">
        <ele>1938.9</ele>
        <time>2026-07-14T10:15:58Z</time>
      </trkpt>
      <trkpt lat="45.19209" lon="5.96841">
        <ele>1939</ele>
        <time>2026-07-14T10:15:59Z</time>
      </trkpt>
      <trkpt lat="45.19209" lon="5.96841">
        <ele>1939</ele>
        <time>2026-07-14T10:16:01Z</time>
      </trkpt>
      <trkpt lat="45.19209" lon="5.96841">
        <ele>1939.1</ele>
        <time>2026-07-14T10:16:02Z</time>
      </trkpt>
      <trkpt lat="45.19209" lon="5.96841">
        <ele>1939.1</ele>
        <time>2026-07-14T10:16:03Z</time>
      </trkpt>
      <trkpt lat="45.19209" lon="5.96841">
        <ele>1939.1</ele>
        <time>2026-07-14T10:16:04Z</time>
      </trkpt>
      <trkpt lat="45.19209" lon="5.96841">
        <ele>1939.1</ele>
        <time>2026-07-14T10:16:05Z</time>
      </trkpt>
      <trkpt lat="45.19209" lon="5.96841">
        <ele>1939.2</ele>
        <time>2026-07-14T10:16:06Z</time>
      </trkpt>
      <trkpt lat="45.1921" lon="5.96841">
        <ele>1939.3</ele>
        <time>2026-07-14T10:16:07Z</time>
      </trkpt>
      <trkpt lat="45.1921" lon="5.96841">
        <ele>1939.5</ele>
        <time>2026-07-14T10:16:09Z</time>
      </trkpt>
      <trkpt lat="45.19211" lon="5.96841">
        <ele>1939.8</ele>
        <time>2026-07-14T10:16:10Z</time>
      </trkpt>
      <trkpt lat="45.19212" lon="5.96841">
        <ele>1940.2</ele>
        <time>2026-07-14T10:16:11Z</time>
      </trkpt>
      <trkpt lat="45.19213" lon="5.96841">
        <ele>1940.3</ele>
        <time>2026-07-14T10:16:12Z</time>
      </trkpt>
      <trkpt lat="45.19214" lon="5.96841">
        <ele>1940.3</ele>
        <time>2026-07-14T10:16:13Z</time>
      </trkpt>
      <trkpt lat="45.19214" lon="5.96841">
        <ele>1940.4</ele>
        <time>2026-07-14T10:16:14Z</time>
      </trkpt>
      <trkpt lat="45.19215" lon="5.96841">
        <ele>1940.4</ele>
        <time>2026-07-14T10:16:15Z</time>
      </trkpt>
      <trkpt lat="45.19216" lon="5.96841">
        <ele>1940.4</ele>
        <time>2026-07-14T10:16:16Z</time>
      </trkpt>
      <trkpt lat="45.19216" lon="5.96841">
        <ele>1940.4</ele>
        <time>2026-07-14T10:16:17Z</time>
      </trkpt>
      <trkpt lat="45.19217" lon="5.96841">
        <ele>1940.4</ele>
        <time>2026-07-14T10:16:18Z</time>
      </trkpt>
      <trkpt lat="45.19217" lon="5.96842">
        <ele>1940.5</ele>
        <time>2026-07-14T10:16:19Z</time>
      </trkpt>
      <trkpt lat="45.19217" lon="5.96842">
        <ele>1940.5</ele>
        <time>2026-07-14T10:16:20Z</time>
      </trkpt>
      <trkpt lat="45.19217" lon="5.96843">
        <ele>1940.5</ele>
        <time>2026-07-14T10:16:21Z</time>
      </trkpt>
      <trkpt lat="45.19217" lon="5.96843">
        <ele>1940.5</ele>
        <time>2026-07-14T10:16:23Z</time>
      </trkpt>
      <trkpt lat="45.19217" lon="5.96843">
        <ele>1940.5</ele>
        <time>2026-07-14T10:16:24Z</time>
      </trkpt>
      <trkpt lat="45.19217" lon="5.96842">
        <ele>1940.4</ele>
        <time>2026-07-14T10:16:25Z</time>
      </trkpt>
      <trkpt lat="45.19217" lon="5.96842">
        <ele>1940.4</ele>
        <time>2026-07-14T10:16:26Z</time>
      </trkpt>
      <trkpt lat="45.19217" lon="5.96842">
        <ele>1940.4</ele>
        <time>2026-07-14T10:16:27Z</time>
      </trkpt>
      <trkpt lat="45.19217" lon="5.96842">
        <ele>1940.4</ele>
        <time>2026-07-14T10:16:28Z</time>
      </trkpt>
      <trkpt lat="45.19217" lon="5.96842">
        <ele>1940.4</ele>
        <time>2026-07-14T10:16:29Z</time>
      </trkpt>
      <trkpt lat="45.19217" lon="5.96842">
        <ele>1940.4</ele>
        <time>2026-07-14T10:16:30Z</time>
      </trkpt>
      <trkpt lat="45.19217" lon="5.96842">
        <ele>1940.4</ele>
        <time>2026-07-14T10:16:31Z</time>
      </trkpt>
      <trkpt lat="45.19217" lon="5.96842">
        <ele>1940.4</ele>
        <time>2026-07-14T10:16:32Z</time>
      </trkpt>
      <trkpt lat="45.19217" lon="5.96842">
        <ele>1940.4</ele>
        <time>2026-07-14T10:16:34Z</time>
      </trkpt>
      <trkpt lat="45.19217" lon="5.96842">
        <ele>1940.4</ele>
        <time>2026-07-14T10:16:35Z</time>
      </trkpt>
      <trkpt lat="45.19217" lon="5.96842">
        <ele>1940.4</ele>
        <time>2026-07-14T10:16:36Z</time>
      </trkpt>
      <trkpt lat="45.19217" lon="5.96843">
        <ele>1940.4</ele>
        <time>2026-07-14T10:16:37Z</time>
      </trkpt>
      <trkpt lat="45.19217" lon="5.96843">
        <ele>1940.4</ele>
        <time>2026-07-14T10:16:38Z</time>
      </trkpt>
      <trkpt lat="45.19217" lon="5.96842">
        <ele>1940.4</ele>
        <time>2026-07-14T10:16:39Z</time>
      </trkpt>
      <trkpt lat="45.19218" lon="5.96842">
        <ele>1940.3</ele>
        <time>2026-07-14T10:16:40Z</time>
      </trkpt>
      <trkpt lat="45.19218" lon="5.96841">
        <ele>1940.2</ele>
        <time>2026-07-14T10:16:42Z</time>
      </trkpt>
      <trkpt lat="45.19219" lon="5.9684">
        <ele>1940.1</ele>
        <time>2026-07-14T10:16:43Z</time>
      </trkpt>
      <trkpt lat="45.1922" lon="5.96839">
        <ele>1939.9</ele>
        <time>2026-07-14T10:16:44Z</time>
      </trkpt>
      <trkpt lat="45.1922" lon="5.96838">
        <ele>1939.8</ele>
        <time>2026-07-14T10:16:45Z</time>
      </trkpt>
      <trkpt lat="45.19221" lon="5.96837">
        <ele>1939.7</ele>
        <time>2026-07-14T10:16:46Z</time>
      </trkpt>
      <trkpt lat="45.19221" lon="5.96836">
        <ele>1939.5</ele>
        <time>2026-07-14T10:16:47Z</time>
      </trkpt>
      <trkpt lat="45.19222" lon="5.96834">
        <ele>1939.4</ele>
        <time>2026-07-14T10:16:48Z</time>
      </trkpt>
      <trkpt lat="45.19222" lon="5.96833">
        <ele>1939.3</ele>
        <time>2026-07-14T10:16:49Z</time>
      </trkpt>
      <trkpt lat="45.19223" lon="5.96832">
        <ele>1939.1</ele>
        <time>2026-07-14T10:16:50Z</time>
      </trkpt>
      <trkpt lat="45.19224" lon="5.96831">
        <ele>1939</ele>
        <time>2026-07-14T10:16:51Z</time>
      </trkpt>
      <trkpt lat="45.19225" lon="5.96831">
        <ele>1938.9</ele>
        <time>2026-07-14T10:16:52Z</time>
      </trkpt>
      <trkpt lat="45.19225" lon="5.9683">
        <ele>1938.8</ele>
        <time>2026-07-14T10:16:53Z</time>
      </trkpt>
      <trkpt lat="45.19226" lon="5.9683">
        <ele>1938.7</ele>
        <time>2026-07-14T10:16:54Z</time>
      </trkpt>
      <trkpt lat="45.19226" lon="5.96829">
        <ele>1938.6</ele>
        <time>2026-07-14T10:16:55Z</time>
      </trkpt>
      <trkpt lat="45.19227" lon="5.96828">
        <ele>1938.5</ele>
        <time>2026-07-14T10:16:56Z</time>
      </trkpt>
      <trkpt lat="45.19227" lon="5.96826">
        <ele>1938.3</ele>
        <time>2026-07-14T10:16:57Z</time>
      </trkpt>
      <trkpt lat="45.19228" lon="5.96824">
        <ele>1938.1</ele>
        <time>2026-07-14T10:16:59Z</time>
      </trkpt>
      <trkpt lat="45.19228" lon="5.96823">
        <ele>1937.9</ele>
        <time>2026-07-14T10:17:00Z</time>
      </trkpt>
      <trkpt lat="45.19228" lon="5.96821">
        <ele>1937.8</ele>
        <time>2026-07-14T10:17:01Z</time>
      </trkpt>
      <trkpt lat="45.19228" lon="5.9682">
        <ele>1937.7</ele>
        <time>2026-07-14T10:17:02Z</time>
      </trkpt>
      <trkpt lat="45.19229" lon="5.96819">
        <ele>1937.6</ele>
        <time>2026-07-14T10:17:03Z</time>
      </trkpt>
      <trkpt lat="45.19229" lon="5.96817">
        <ele>1937.4</ele>
        <time>2026-07-14T10:17:04Z</time>
      </trkpt>
      <trkpt lat="45.19229" lon="5.96816">
        <ele>1937.3</ele>
        <time>2026-07-14T10:17:05Z</time>
      </trkpt>
      <trkpt lat="45.19229" lon="5.96814">
        <ele>1937.1</ele>
        <time>2026-07-14T10:17:06Z</time>
      </trkpt>
      <trkpt lat="45.19229" lon="5.96813">
        <ele>1937</ele>
        <time>2026-07-14T10:17:07Z</time>
      </trkpt>
      <trkpt lat="45.19228" lon="5.96812">
        <ele>1936.9</ele>
        <time>2026-07-14T10:17:08Z</time>
      </trkpt>
      <trkpt lat="45.19228" lon="5.96811">
        <ele>1936.8</ele>
        <time>2026-07-14T10:17:09Z</time>
      </trkpt>
      <trkpt lat="45.19228" lon="5.9681">
        <ele>1936.7</ele>
        <time>2026-07-14T10:17:10Z</time>
      </trkpt>
      <trkpt lat="45.19228" lon="5.9681">
        <ele>1936.7</ele>
        <time>2026-07-14T10:17:11Z</time>
      </trkpt>
      <trkpt lat="45.19227" lon="5.96809">
        <ele>1936.6</ele>
        <time>2026-07-14T10:17:12Z</time>
      </trkpt>
      <trkpt lat="45.19227" lon="5.96808">
        <ele>1936.4</ele>
        <time>2026-07-14T10:17:13Z</time>
      </trkpt>
      <trkpt lat="45.19227" lon="5.96806">
        <ele>1936.3</ele>
        <time>2026-07-14T10:17:14Z</time>
      </trkpt>
      <trkpt lat="45.19226" lon="5.96805">
        <ele>1936.1</ele>
        <time>2026-07-14T10:17:15Z</time>
      </trkpt>
      <trkpt lat="45.19226" lon="5.96803">
        <ele>1936</ele>
        <time>2026-07-14T10:17:16Z</time>
      </trkpt>
      <trkpt lat="45.19226" lon="5.96802">
        <ele>1935.8</ele>
        <time>2026-07-14T10:17:17Z</time>
      </trkpt>
      <trkpt lat="45.19226" lon="5.968">
        <ele>1935.7</ele>
        <time>2026-07-14T10:17:18Z</time>
      </trkpt>
      <trkpt lat="45.19226" lon="5.96799">
        <ele>1935.6</ele>
        <time>2026-07-14T10:17:19Z</time>
      </trkpt>
      <trkpt lat="45.19226" lon="5.96798">
        <ele>1935.4</ele>
        <time>2026-07-14T10:17:20Z</time>
      </trkpt>
      <trkpt lat="45.19226" lon="5.96796">
        <ele>1935.3</ele>
        <time>2026-07-14T10:17:21Z</time>
      </trkpt>
      <trkpt lat="45.19225" lon="5.96794">
        <ele>1935</ele>
        <time>2026-07-14T10:17:23Z</time>
      </trkpt>
      <trkpt lat="45.19225" lon="5.96792">
        <ele>1934.8</ele>
        <time>2026-07-14T10:17:24Z</time>
      </trkpt>
      <trkpt lat="45.19225" lon="5.96791">
        <ele>1934.7</ele>
        <time>2026-07-14T10:17:25Z</time>
      </trkpt>
      <trkpt lat="45.19224" lon="5.96789">
        <ele>1934.5</ele>
        <time>2026-07-14T10:17:26Z</time>
      </trkpt>
      <trkpt lat="45.19224" lon="5.96788">
        <ele>1934.3</ele>
        <time>2026-07-14T10:17:27Z</time>
      </trkpt>
      <trkpt lat="45.19224" lon="5.96786">
        <ele>1934.2</ele>
        <time>2026-07-14T10:17:28Z</time>
      </trkpt>
      <trkpt lat="45.19225" lon="5.96785">
        <ele>1934</ele>
        <time>2026-07-14T10:17:29Z</time>
      </trkpt>
      <trkpt lat="45.19225" lon="5.96784">
        <ele>1933.8</ele>
        <time>2026-07-14T10:17:30Z</time>
      </trkpt>
      <trkpt lat="45.19225" lon="5.96782">
        <ele>1933.6</ele>
        <time>2026-07-14T10:17:31Z</time>
      </trkpt>
      <trkpt lat="45.19225" lon="5.9678">
        <ele>1933.4</ele>
        <time>2026-07-14T10:17:32Z</time>
      </trkpt>
      <trkpt lat="45.19225" lon="5.96779">
        <ele>1933.2</ele>
        <time>2026-07-14T10:17:33Z</time>
      </trkpt>
      <trkpt lat="45.19226" lon="5.96777">
        <ele>1933</ele>
        <time>2026-07-14T10:17:34Z</time>
      </trkpt>
      <trkpt lat="45.19226" lon="5.96776">
        <ele>1932.8</ele>
        <time>2026-07-14T10:17:35Z</time>
      </trkpt>
      <trkpt lat="45.19226" lon="5.96775">
        <ele>1932.6</ele>
        <time>2026-07-14T10:17:36Z</time>
      </trkpt>
      <trkpt lat="45.19227" lon="5.96774">
        <ele>1932.4</ele>
        <time>2026-07-14T10:17:37Z</time>
      </trkpt>
      <trkpt lat="45.19227" lon="5.96773">
        <ele>1932.3</ele>
        <time>2026-07-14T10:17:38Z</time>
      </trkpt>
      <trkpt lat="45.19228" lon="5.96772">
        <ele>1932.1</ele>
        <time>2026-07-14T10:17:39Z</time>
      </trkpt>
      <trkpt lat="45.19229" lon="5.96773">
        <ele>1931.9</ele>
        <time>2026-07-14T10:17:40Z</time>
      </trkpt>
      <trkpt lat="45.19229" lon="5.96773">
        <ele>1931.9</ele>
        <time>2026-07-14T10:17:41Z</time>
      </trkpt>
      <trkpt lat="45.19229" lon="5.96773">
        <ele>1931.9</ele>
        <time>2026-07-14T10:17:42Z</time>
      </trkpt>
      <trkpt lat="45.19229" lon="5.96773">
        <ele>1931.8</ele>
        <time>2026-07-14T10:17:43Z</time>
      </trkpt>
      <trkpt lat="45.19229" lon="5.96773">
        <ele>1931.8</ele>
        <time>2026-07-14T10:17:44Z</time>
      </trkpt>
      <trkpt lat="45.19229" lon="5.96773">
        <ele>1931.8</ele>
        <time>2026-07-14T10:17:45Z</time>
      </trkpt>
      <trkpt lat="45.19229" lon="5.96773">
        <ele>1931.8</ele>
        <time>2026-07-14T10:17:46Z</time>
      </trkpt>
      <trkpt lat="45.19229" lon="5.96773">
        <ele>1931.7</ele>
        <time>2026-07-14T10:17:47Z</time>
      </trkpt>
      <trkpt lat="45.19229" lon="5.96773">
        <ele>1931.7</ele>
        <time>2026-07-14T10:17:48Z</time>
      </trkpt>
      <trkpt lat="45.19229" lon="5.96773">
        <ele>1931.7</ele>
        <time>2026-07-14T10:17:49Z</time>
      </trkpt>
      <trkpt lat="45.19229" lon="5.96773">
        <ele>1931.7</ele>
        <time>2026-07-14T10:17:50Z</time>
      </trkpt>
      <trkpt lat="45.19229" lon="5.96772">
        <ele>1931.7</ele>
        <time>2026-07-14T10:17:51Z</time>
      </trkpt>
      <trkpt lat="45.1923" lon="5.96772">
        <ele>1931.7</ele>
        <time>2026-07-14T10:17:53Z</time>
      </trkpt>
      <trkpt lat="45.1923" lon="5.96772">
        <ele>1931.6</ele>
        <time>2026-07-14T10:17:54Z</time>
      </trkpt>
      <trkpt lat="45.1923" lon="5.96772">
        <ele>1931.6</ele>
        <time>2026-07-14T10:17:55Z</time>
      </trkpt>
      <trkpt lat="45.1923" lon="5.96773">
        <ele>1931.6</ele>
        <time>2026-07-14T10:17:56Z</time>
      </trkpt>
      <trkpt lat="45.1923" lon="5.96773">
        <ele>1931.6</ele>
        <time>2026-07-14T10:17:57Z</time>
      </trkpt>
      <trkpt lat="45.1923" lon="5.96773">
        <ele>1931.6</ele>
        <time>2026-07-14T10:17:58Z</time>
      </trkpt>
      <trkpt lat="45.1923" lon="5.96773">
        <ele>1931.6</ele>
        <time>2026-07-14T10:17:59Z</time>
      </trkpt>
      <trkpt lat="45.1923" lon="5.96772">
        <ele>1931.6</ele>
        <time>2026-07-14T10:18:00Z</time>
      </trkpt>
      <trkpt lat="45.1923" lon="5.96772">
        <ele>1931.5</ele>
        <time>2026-07-14T10:18:01Z</time>
      </trkpt>
      <trkpt lat="45.1923" lon="5.96772">
        <ele>1931.5</ele>
        <time>2026-07-14T10:18:02Z</time>
      </trkpt>
      <trkpt lat="45.1923" lon="5.96772">
        <ele>1931.5</ele>
        <time>2026-07-14T10:18:03Z</time>
      </trkpt>
      <trkpt lat="45.19231" lon="5.96771">
        <ele>1931.4</ele>
        <time>2026-07-14T10:18:04Z</time>
      </trkpt>
      <trkpt lat="45.19231" lon="5.9677">
        <ele>1931.2</ele>
        <time>2026-07-14T10:18:06Z</time>
      </trkpt>
      <trkpt lat="45.19231" lon="5.96769">
        <ele>1931</ele>
        <time>2026-07-14T10:18:07Z</time>
      </trkpt>
      <trkpt lat="45.19231" lon="5.96767">
        <ele>1930.7</ele>
        <time>2026-07-14T10:18:08Z</time>
      </trkpt>
      <trkpt lat="45.19231" lon="5.96765">
        <ele>1930.5</ele>
        <time>2026-07-14T10:18:09Z</time>
      </trkpt>
      <trkpt lat="45.19231" lon="5.96764">
        <ele>1930.3</ele>
        <time>2026-07-14T10:18:10Z</time>
      </trkpt>
      <trkpt lat="45.19231" lon="5.96762">
        <ele>1930.1</ele>
        <time>2026-07-14T10:18:11Z</time>
      </trkpt>
      <trkpt lat="45.19231" lon="5.96761">
        <ele>1929.9</ele>
        <time>2026-07-14T10:18:12Z</time>
      </trkpt>
      <trkpt lat="45.19232" lon="5.9676">
        <ele>1929.7</ele>
        <time>2026-07-14T10:18:13Z</time>
      </trkpt>
      <trkpt lat="45.19232" lon="5.96759">
        <ele>1929.6</ele>
        <time>2026-07-14T10:18:14Z</time>
      </trkpt>
      <trkpt lat="45.19232" lon="5.96758">
        <ele>1929.4</ele>
        <time>2026-07-14T10:18:15Z</time>
      </trkpt>
      <trkpt lat="45.19233" lon="5.96756">
        <ele>1929.2</ele>
        <time>2026-07-14T10:18:16Z</time>
      </trkpt>
      <trkpt lat="45.19233" lon="5.96755">
        <ele>1929.1</ele>
        <time>2026-07-14T10:18:17Z</time>
      </trkpt>
      <trkpt lat="45.19233" lon="5.96754">
        <ele>1929</ele>
        <time>2026-07-14T10:18:18Z</time>
      </trkpt>
      <trkpt lat="45.19234" lon="5.96753">
        <ele>1928.7</ele>
        <time>2026-07-14T10:18:19Z</time>
      </trkpt>
      <trkpt lat="45.19235" lon="5.96752">
        <ele>1928.6</ele>
        <time>2026-07-14T10:18:20Z</time>
      </trkpt>
      <trkpt lat="45.19235" lon="5.96751">
        <ele>1928.5</ele>
        <time>2026-07-14T10:18:21Z</time>
      </trkpt>
      <trkpt lat="45.19236" lon="5.96751">
        <ele>1928.4</ele>
        <time>2026-07-14T10:18:22Z</time>
      </trkpt>
      <trkpt lat="45.19236" lon="5.9675">
        <ele>1928.3</ele>
        <time>2026-07-14T10:18:23Z</time>
      </trkpt>
      <trkpt lat="45.19237" lon="5.96749">
        <ele>1928.1</ele>
        <time>2026-07-14T10:18:24Z</time>
      </trkpt>
      <trkpt lat="45.19237" lon="5.96748">
        <ele>1928</ele>
        <time>2026-07-14T10:18:25Z</time>
      </trkpt>
      <trkpt lat="45.19237" lon="5.96747">
        <ele>1927.8</ele>
        <time>2026-07-14T10:18:26Z</time>
      </trkpt>
      <trkpt lat="45.19238" lon="5.96746">
        <ele>1927.7</ele>
        <time>2026-07-14T10:18:27Z</time>
      </trkpt>
      <trkpt lat="45.19238" lon="5.96745">
        <ele>1927.6</ele>
        <time>2026-07-14T10:18:28Z</time>
      </trkpt>
      <trkpt lat="45.19239" lon="5.96744">
        <ele>1927.5</ele>
        <time>2026-07-14T10:18:29Z</time>
      </trkpt>
      <trkpt lat="45.19239" lon="5.96743">
        <ele>1927.4</ele>
        <time>2026-07-14T10:18:30Z</time>
      </trkpt>
      <trkpt lat="45.19239" lon="5.96743">
        <ele>1927.3</ele>
        <time>2026-07-14T10:18:31Z</time>
      </trkpt>
      <trkpt lat="45.19239" lon="5.96742">
        <ele>1927.2</ele>
        <time>2026-07-14T10:18:32Z</time>
      </trkpt>
      <trkpt lat="45.1924" lon="5.96741">
        <ele>1927.1</ele>
        <time>2026-07-14T10:18:33Z</time>
      </trkpt>
      <trkpt lat="45.1924" lon="5.9674">
        <ele>1926.9</ele>
        <time>2026-07-14T10:18:35Z</time>
      </trkpt>
      <trkpt lat="45.19241" lon="5.96737">
        <ele>1926.6</ele>
        <time>2026-07-14T10:18:36Z</time>
      </trkpt>
      <trkpt lat="45.19242" lon="5.96736">
        <ele>1926.5</ele>
        <time>2026-07-14T10:18:37Z</time>
      </trkpt>
      <trkpt lat="45.19242" lon="5.96735">
        <ele>1926.5</ele>
        <time>2026-07-14T10:18:39Z</time>
      </trkpt>
      <trkpt lat="45.19242" lon="5.96734">
        <ele>1926.5</ele>
        <time>2026-07-14T10:18:40Z</time>
      </trkpt>
      <trkpt lat="45.19241" lon="5.96733">
        <ele>1926.5</ele>
        <time>2026-07-14T10:18:41Z</time>
      </trkpt>
      <trkpt lat="45.19241" lon="5.96732">
        <ele>1926.6</ele>
        <time>2026-07-14T10:18:42Z</time>
      </trkpt>
      <trkpt lat="45.19241" lon="5.96731">
        <ele>1926.6</ele>
        <time>2026-07-14T10:18:43Z</time>
      </trkpt>
      <trkpt lat="45.19241" lon="5.96731">
        <ele>1926.6</ele>
        <time>2026-07-14T10:18:44Z</time>
      </trkpt>
      <trkpt lat="45.19241" lon="5.9673">
        <ele>1926.6</ele>
        <time>2026-07-14T10:18:45Z</time>
      </trkpt>
      <trkpt lat="45.19241" lon="5.96729">
        <ele>1926.6</ele>
        <time>2026-07-14T10:18:46Z</time>
      </trkpt>
      <trkpt lat="45.19241" lon="5.96729">
        <ele>1926.6</ele>
        <time>2026-07-14T10:18:47Z</time>
      </trkpt>
      <trkpt lat="45.19241" lon="5.96728">
        <ele>1926.7</ele>
        <time>2026-07-14T10:18:48Z</time>
      </trkpt>
      <trkpt lat="45.19241" lon="5.96728">
        <ele>1926.7</ele>
        <time>2026-07-14T10:18:50Z</time>
      </trkpt>
      <trkpt lat="45.19241" lon="5.96727">
        <ele>1926.7</ele>
        <time>2026-07-14T10:18:51Z</time>
      </trkpt>
      <trkpt lat="45.19242" lon="5.96727">
        <ele>1926.7</ele>
        <time>2026-07-14T10:18:52Z</time>
      </trkpt>
      <trkpt lat="45.19242" lon="5.96728">
        <ele>1926.7</ele>
        <time>2026-07-14T10:18:53Z</time>
      </trkpt>
      <trkpt lat="45.19242" lon="5.96728">
        <ele>1926.7</ele>
        <time>2026-07-14T10:18:54Z</time>
      </trkpt>
      <trkpt lat="45.19243" lon="5.96728">
        <ele>1926.7</ele>
        <time>2026-07-14T10:18:55Z</time>
      </trkpt>
      <trkpt lat="45.19242" lon="5.96729">
        <ele>1926.8</ele>
        <time>2026-07-14T10:18:57Z</time>
      </trkpt>
      <trkpt lat="45.19242" lon="5.96729">
        <ele>1926.8</ele>
        <time>2026-07-14T10:18:58Z</time>
      </trkpt>
      <trkpt lat="45.19243" lon="5.96729">
        <ele>1926.8</ele>
        <time>2026-07-14T10:18:59Z</time>
      </trkpt>
      <trkpt lat="45.19243" lon="5.96729">
        <ele>1926.8</ele>
        <time>2026-07-14T10:19:00Z</time>
      </trkpt>
      <trkpt lat="45.19243" lon="5.96729">
        <ele>1926.8</ele>
        <time>2026-07-14T10:19:01Z</time>
      </trkpt>
      <trkpt lat="45.19244" lon="5.96729">
        <ele>1926.8</ele>
        <time>2026-07-14T10:19:02Z</time>
      </trkpt>
      <trkpt lat="45.19245" lon="5.9673">
        <ele>1926.8</ele>
        <time>2026-07-14T10:19:04Z</time>
      </trkpt>
      <trkpt lat="45.19245" lon="5.96731">
        <ele>1926.8</ele>
        <time>2026-07-14T10:19:05Z</time>
      </trkpt>
      <trkpt lat="45.19245" lon="5.96731">
        <ele>1926.8</ele>
        <time>2026-07-14T10:19:06Z</time>
      </trkpt>
      <trkpt lat="45.19245" lon="5.96731">
        <ele>1926.8</ele>
        <time>2026-07-14T10:19:08Z</time>
      </trkpt>
      <trkpt lat="45.19246" lon="5.96731">
        <ele>1926.9</ele>
        <time>2026-07-14T10:19:09Z</time>
      </trkpt>
      <trkpt lat="45.19246" lon="5.96731">
        <ele>1926.9</ele>
        <time>2026-07-14T10:19:10Z</time>
      </trkpt>
      <trkpt lat="45.19246" lon="5.96731">
        <ele>1926.9</ele>
        <time>2026-07-14T10:19:11Z</time>
      </trkpt>
      <trkpt lat="45.19246" lon="5.96732">
        <ele>1926.9</ele>
        <time>2026-07-14T10:19:13Z</time>
      </trkpt>
      <trkpt lat="45.19247" lon="5.96732">
        <ele>1926.9</ele>
        <time>2026-07-14T10:19:14Z</time>
      </trkpt>
      <trkpt lat="45.19247" lon="5.96733">
        <ele>1926.9</ele>
        <time>2026-07-14T10:19:15Z</time>
      </trkpt>
      <trkpt lat="45.19248" lon="5.96733">
        <ele>1926.9</ele>
        <time>2026-07-14T10:19:16Z</time>
      </trkpt>
      <trkpt lat="45.19249" lon="5.96733">
        <ele>1926.9</ele>
        <time>2026-07-14T10:19:17Z</time>
      </trkpt>
      <trkpt lat="45.19249" lon="5.96734">
        <ele>1926.9</ele>
        <time>2026-07-14T10:19:18Z</time>
      </trkpt>
      <trkpt lat="45.1925" lon="5.96734">
        <ele>1927</ele>
        <time>2026-07-14T10:19:19Z</time>
      </trkpt>
      <trkpt lat="45.1925" lon="5.96733">
        <ele>1927</ele>
        <time>2026-07-14T10:19:20Z</time>
      </trkpt>
      <trkpt lat="45.1925" lon="5.96733">
        <ele>1927</ele>
        <time>2026-07-14T10:19:21Z</time>
      </trkpt>
      <trkpt lat="45.1925" lon="5.96733">
        <ele>1927</ele>
        <time>2026-07-14T10:19:22Z</time>
      </trkpt>
      <trkpt lat="45.1925" lon="5.96732">
        <ele>1927</ele>
        <time>2026-07-14T10:19:23Z</time>
      </trkpt>
      <trkpt lat="45.1925" lon="5.96732">
        <ele>1927</ele>
        <time>2026-07-14T10:19:24Z</time>
      </trkpt>
      <trkpt lat="45.1925" lon="5.96732">
        <ele>1927</ele>
        <time>2026-07-14T10:19:25Z</time>
      </trkpt>
      <trkpt lat="45.1925" lon="5.96732">
        <ele>1927</ele>
        <time>2026-07-14T10:19:26Z</time>
      </trkpt>
      <trkpt lat="45.1925" lon="5.96731">
        <ele>1927</ele>
        <time>2026-07-14T10:19:27Z</time>
      </trkpt>
      <trkpt lat="45.1925" lon="5.96731">
        <ele>1927</ele>
        <time>2026-07-14T10:19:28Z</time>
      </trkpt>
      <trkpt lat="45.1925" lon="5.96731">
        <ele>1927</ele>
        <time>2026-07-14T10:19:30Z</time>
      </trkpt>
      <trkpt lat="45.1925" lon="5.96731">
        <ele>1927</ele>
        <time>2026-07-14T10:19:31Z</time>
      </trkpt>
      <trkpt lat="45.1925" lon="5.96731">
        <ele>1927</ele>
        <time>2026-07-14T10:19:32Z</time>
      </trkpt>
      <trkpt lat="45.1925" lon="5.96731">
        <ele>1927</ele>
        <time>2026-07-14T10:19:33Z</time>
      </trkpt>
      <trkpt lat="45.19249" lon="5.96731">
        <ele>1927</ele>
        <time>2026-07-14T10:19:34Z</time>
      </trkpt>
      <trkpt lat="45.19249" lon="5.96731">
        <ele>1927</ele>
        <time>2026-07-14T10:19:35Z</time>
      </trkpt>
      <trkpt lat="45.19249" lon="5.96731">
        <ele>1927</ele>
        <time>2026-07-14T10:19:36Z</time>
      </trkpt>
      <trkpt lat="45.19249" lon="5.96731">
        <ele>1927</ele>
        <time>2026-07-14T10:19:37Z</time>
      </trkpt>
      <trkpt lat="45.19249" lon="5.96731">
        <ele>1927</ele>
        <time>2026-07-14T10:19:38Z</time>
      </trkpt>
      <trkpt lat="45.19249" lon="5.9673">
        <ele>1927</ele>
        <time>2026-07-14T10:19:39Z</time>
      </trkpt>
      <trkpt lat="45.19248" lon="5.9673">
        <ele>1927</ele>
        <time>2026-07-14T10:19:40Z</time>
      </trkpt>
      <trkpt lat="45.19248" lon="5.9673">
        <ele>1927</ele>
        <time>2026-07-14T10:19:41Z</time>
      </trkpt>
      <trkpt lat="45.19248" lon="5.9673">
        <ele>1927</ele>
        <time>2026-07-14T10:19:42Z</time>
      </trkpt>
      <trkpt lat="45.19248" lon="5.9673">
        <ele>1927</ele>
        <time>2026-07-14T10:19:43Z</time>
      </trkpt>
      <trkpt lat="45.19248" lon="5.9673">
        <ele>1927</ele>
        <time>2026-07-14T10:19:44Z</time>
      </trkpt>
      <trkpt lat="45.19248" lon="5.9673">
        <ele>1927</ele>
        <time>2026-07-14T10:19:45Z</time>
      </trkpt>
      <trkpt lat="45.19248" lon="5.96729">
        <ele>1927</ele>
        <time>2026-07-14T10:19:46Z</time>
      </trkpt>
      <trkpt lat="45.19248" lon="5.96729">
        <ele>1927</ele>
        <time>2026-07-14T10:19:47Z</time>
      </trkpt>
      <trkpt lat="45.19248" lon="5.96729">
        <ele>1927</ele>
        <time>2026-07-14T10:19:48Z</time>
      </trkpt>
      <trkpt lat="45.19248" lon="5.96729">
        <ele>1927</ele>
        <time>2026-07-14T10:19:49Z</time>
      </trkpt>
      <trkpt lat="45.19248" lon="5.96729">
        <ele>1927</ele>
        <time>2026-07-14T10:19:50Z</time>
      </trkpt>
      <trkpt lat="45.19248" lon="5.96729">
        <ele>1927</ele>
        <time>2026-07-14T10:19:51Z</time>
      </trkpt>
      <trkpt lat="45.19248" lon="5.96729">
        <ele>1927</ele>
        <time>2026-07-14T10:19:52Z</time>
      </trkpt>
      <trkpt lat="45.19247" lon="5.96729">
        <ele>1927</ele>
        <time>2026-07-14T10:19:53Z</time>
      </trkpt>
      <trkpt lat="45.19248" lon="5.96729">
        <ele>1927</ele>
        <time>2026-07-14T10:19:54Z</time>
      </trkpt>
      <trkpt lat="45.19247" lon="5.96728">
        <ele>1927</ele>
        <time>2026-07-14T10:19:55Z</time>
      </trkpt>
      <trkpt lat="45.19247" lon="5.96728">
        <ele>1927</ele>
        <time>2026-07-14T10:19:56Z</time>
      </trkpt>
      <trkpt lat="45.19247" lon="5.96728">
        <ele>1927</ele>
        <time>2026-07-14T10:19:57Z</time>
      </trkpt>
      <trkpt lat="45.19247" lon="5.96728">
        <ele>1927</ele>
        <time>2026-07-14T10:19:58Z</time>
      </trkpt>
      <trkpt lat="45.19248" lon="5.96728">
        <ele>1927</ele>
        <time>2026-07-14T10:19:59Z</time>
      </trkpt>
      <trkpt lat="45.19247" lon="5.96728">
        <ele>1927</ele>
        <time>2026-07-14T10:20:00Z</time>
      </trkpt>
      <trkpt lat="45.19247" lon="5.96728">
        <ele>1927</ele>
        <time>2026-07-14T10:20:01Z</time>
      </trkpt>
      <trkpt lat="45.19247" lon="5.96728">
        <ele>1927</ele>
        <time>2026-07-14T10:20:02Z</time>
      </trkpt>
      <trkpt lat="45.19247" lon="5.96728">
        <ele>1927</ele>
        <time>2026-07-14T10:20:03Z</time>
      </trkpt>
      <trkpt lat="45.19247" lon="5.96728">
        <ele>1927</ele>
        <time>2026-07-14T10:20:04Z</time>
      </trkpt>
      <trkpt lat="45.19248" lon="5.96728">
        <ele>1927</ele>
        <time>2026-07-14T10:20:05Z</time>
      </trkpt>
      <trkpt lat="45.19248" lon="5.96728">
        <ele>1927</ele>
        <time>2026-07-14T10:20:06Z</time>
      </trkpt>
      <trkpt lat="45.19248" lon="5.96728">
        <ele>1927</ele>
        <time>2026-07-14T10:20:07Z</time>
      </trkpt>
      <trkpt lat="45.19248" lon="5.96728">
        <ele>1927</ele>
        <time>2026-07-14T10:20:08Z</time>
      </trkpt>
      <trkpt lat="45.19249" lon="5.96728">
        <ele>1927</ele>
        <time>2026-07-14T10:20:09Z</time>
      </trkpt>
      <trkpt lat="45.19249" lon="5.96727">
        <ele>1927</ele>
        <time>2026-07-14T10:20:10Z</time>
      </trkpt>
      <trkpt lat="45.1925" lon="5.96727">
        <ele>1927</ele>
        <time>2026-07-14T10:20:11Z</time>
      </trkpt>
      <trkpt lat="45.1925" lon="5.96726">
        <ele>1927</ele>
        <time>2026-07-14T10:20:12Z</time>
      </trkpt>
      <trkpt lat="45.19251" lon="5.96726">
        <ele>1927.1</ele>
        <time>2026-07-14T10:20:13Z</time>
      </trkpt>
      <trkpt lat="45.19252" lon="5.96726">
        <ele>1927.1</ele>
        <time>2026-07-14T10:20:14Z</time>
      </trkpt>
      <trkpt lat="45.19252" lon="5.96726">
        <ele>1927.1</ele>
        <time>2026-07-14T10:20:15Z</time>
      </trkpt>
      <trkpt lat="45.19251" lon="5.96726">
        <ele>1927.1</ele>
        <time>2026-07-14T10:20:16Z</time>
      </trkpt>
      <trkpt lat="45.19251" lon="5.96726">
        <ele>1927.1</ele>
        <time>2026-07-14T10:20:17Z</time>
      </trkpt>
      <trkpt lat="45.19251" lon="5.96725">
        <ele>1927.1</ele>
        <time>2026-07-14T10:20:18Z</time>
      </trkpt>
      <trkpt lat="45.19251" lon="5.96725">
        <ele>1927.1</ele>
        <time>2026-07-14T10:20:19Z</time>
      </trkpt>
      <trkpt lat="45.19251" lon="5.96724">
        <ele>1927.1</ele>
        <time>2026-07-14T10:20:20Z</time>
      </trkpt>
      <trkpt lat="45.19251" lon="5.96723">
        <ele>1927</ele>
        <time>2026-07-14T10:20:21Z</time>
      </trkpt>
      <trkpt lat="45.19251" lon="5.96722">
        <ele>1927</ele>
        <time>2026-07-14T10:20:22Z</time>
      </trkpt>
      <trkpt lat="45.19251" lon="5.96722">
        <ele>1927</ele>
        <time>2026-07-14T10:20:23Z</time>
      </trkpt>
      <trkpt lat="45.19251" lon="5.96722">
        <ele>1927</ele>
        <time>2026-07-14T10:20:24Z</time>
      </trkpt>
      <trkpt lat="45.19251" lon="5.96723">
        <ele>1927</ele>
        <time>2026-07-14T10:20:25Z</time>
      </trkpt>
      <trkpt lat="45.19251" lon="5.96723">
        <ele>1927</ele>
        <time>2026-07-14T10:20:26Z</time>
      </trkpt>
      <trkpt lat="45.19251" lon="5.96723">
        <ele>1927</ele>
        <time>2026-07-14T10:20:27Z</time>
      </trkpt>
      <trkpt lat="45.19251" lon="5.96722">
        <ele>1927</ele>
        <time>2026-07-14T10:20:28Z</time>
      </trkpt>
      <trkpt lat="45.19251" lon="5.96722">
        <ele>1927</ele>
        <time>2026-07-14T10:20:29Z</time>
      </trkpt>
      <trkpt lat="45.19251" lon="5.96722">
        <ele>1927</ele>
        <time>2026-07-14T10:20:30Z</time>
      </trkpt>
      <trkpt lat="45.19251" lon="5.96722">
        <ele>1927</ele>
        <time>2026-07-14T10:20:31Z</time>
      </trkpt>
      <trkpt lat="45.19251" lon="5.96722">
        <ele>1927</ele>
        <time>2026-07-14T10:20:32Z</time>
      </trkpt>
      <trkpt lat="45.19251" lon="5.96722">
        <ele>1927</ele>
        <time>2026-07-14T10:20:33Z</time>
      </trkpt>
      <trkpt lat="45.19251" lon="5.96722">
        <ele>1927</ele>
        <time>2026-07-14T10:20:34Z</time>
      </trkpt>
      <trkpt lat="45.19251" lon="5.96722">
        <ele>1927</ele>
        <time>2026-07-14T10:20:35Z</time>
      </trkpt>
      <trkpt lat="45.19251" lon="5.96722">
        <ele>1927</ele>
        <time>2026-07-14T10:20:36Z</time>
      </trkpt>
      <trkpt lat="45.19251" lon="5.96722">
        <ele>1927</ele>
        <time>2026-07-14T10:20:37Z</time>
      </trkpt>
      <trkpt lat="45.19251" lon="5.96722">
        <ele>1927</ele>
        <time>2026-07-14T10:20:38Z</time>
      </trkpt>
      <trkpt lat="45.19251" lon="5.96722">
        <ele>1927</ele>
        <time>2026-07-14T10:20:39Z</time>
      </trkpt>
      <trkpt lat="45.19251" lon="5.96722">
        <ele>1927</ele>
        <time>2026-07-14T10:20:40Z</time>
      </trkpt>
      <trkpt lat="45.19251" lon="5.96722">
        <ele>1927</ele>
        <time>2026-07-14T10:20:41Z</time>
      </trkpt>
      <trkpt lat="45.19251" lon="5.96722">
        <ele>1927</ele>
        <time>2026-07-14T10:20:42Z</time>
      </trkpt>
      <trkpt lat="45.19251" lon="5.96722">
        <ele>1927</ele>
        <time>2026-07-14T10:20:43Z</time>
      </trkpt>
      <trkpt lat="45.19251" lon="5.96722">
        <ele>1927</ele>
        <time>2026-07-14T10:20:44Z</time>
      </trkpt>
      <trkpt lat="45.19251" lon="5.96722">
        <ele>1927</ele>
        <time>2026-07-14T10:20:45Z</time>
      </trkpt>
      <trkpt lat="45.19251" lon="5.96722">
        <ele>1927</ele>
        <time>2026-07-14T10:20:46Z</time>
      </trkpt>
      <trkpt lat="45.19251" lon="5.96723">
        <ele>1927</ele>
        <time>2026-07-14T10:20:47Z</time>
      </trkpt>
      <trkpt lat="45.19251" lon="5.96723">
        <ele>1927</ele>
        <time>2026-07-14T10:20:48Z</time>
      </trkpt>
      <trkpt lat="45.19252" lon="5.96723">
        <ele>1927</ele>
        <time>2026-07-14T10:20:49Z</time>
      </trkpt>
      <trkpt lat="45.19252" lon="5.96722">
        <ele>1927</ele>
        <time>2026-07-14T10:20:50Z</time>
      </trkpt>
      <trkpt lat="45.19252" lon="5.96722">
        <ele>1927</ele>
        <time>2026-07-14T10:20:51Z</time>
      </trkpt>
      <trkpt lat="45.19252" lon="5.96722">
        <ele>1927</ele>
        <time>2026-07-14T10:20:52Z</time>
      </trkpt>
      <trkpt lat="45.19252" lon="5.96722">
        <ele>1927</ele>
        <time>2026-07-14T10:20:53Z</time>
      </trkpt>
      <trkpt lat="45.19252" lon="5.96722">
        <ele>1927</ele>
        <time>2026-07-14T10:20:54Z</time>
      </trkpt>
      <trkpt lat="45.19252" lon="5.96722">
        <ele>1927</ele>
        <time>2026-07-14T10:20:55Z</time>
      </trkpt>
      <trkpt lat="45.19252" lon="5.96722">
        <ele>1927</ele>
        <time>2026-07-14T10:20:56Z</time>
      </trkpt>
      <trkpt lat="45.19252" lon="5.96722">
        <ele>1927</ele>
        <time>2026-07-14T10:20:57Z</time>
      </trkpt>
      <trkpt lat="45.19251" lon="5.96722">
        <ele>1927</ele>
        <time>2026-07-14T10:20:58Z</time>
      </trkpt>
      <trkpt lat="45.19251" lon="5.96722">
        <ele>1927</ele>
        <time>2026-07-14T10:20:59Z</time>
      </trkpt>
      <trkpt lat="45.19251" lon="5.96722">
        <ele>1927</ele>
        <time>2026-07-14T10:21:00Z</time>
      </trkpt>
      <trkpt lat="45.19251" lon="5.96722">
        <ele>1927</ele>
        <time>2026-07-14T10:21:01Z</time>
      </trkpt>
      <trkpt lat="45.19251" lon="5.96722">
        <ele>1927</ele>
        <time>2026-07-14T10:21:02Z</time>
      </trkpt>
      <trkpt lat="45.19251" lon="5.96722">
        <ele>1927</ele>
        <time>2026-07-14T10:21:03Z</time>
      </trkpt>
      <trkpt lat="45.1925" lon="5.96722">
        <ele>1926.9</ele>
        <time>2026-07-14T10:21:04Z</time>
      </trkpt>
      <trkpt lat="45.1925" lon="5.96722">
        <ele>1926.9</ele>
        <time>2026-07-14T10:21:05Z</time>
      </trkpt>
      <trkpt lat="45.1925" lon="5.96722">
        <ele>1926.9</ele>
        <time>2026-07-14T10:21:06Z</time>
      </trkpt>
      <trkpt lat="45.19249" lon="5.96722">
        <ele>1926.9</ele>
        <time>2026-07-14T10:21:07Z</time>
      </trkpt>
      <trkpt lat="45.19249" lon="5.96722">
        <ele>1926.9</ele>
        <time>2026-07-14T10:21:08Z</time>
      </trkpt>
      <trkpt lat="45.19249" lon="5.96722">
        <ele>1926.9</ele>
        <time>2026-07-14T10:21:09Z</time>
      </trkpt>
      <trkpt lat="45.19249" lon="5.96722">
        <ele>1926.9</ele>
        <time>2026-07-14T10:21:10Z</time>
      </trkpt>
      <trkpt lat="45.19249" lon="5.96723">
        <ele>1926.9</ele>
        <time>2026-07-14T10:21:11Z</time>
      </trkpt>
      <trkpt lat="45.19249" lon="5.96723">
        <ele>1926.9</ele>
        <time>2026-07-14T10:21:12Z</time>
      </trkpt>
      <trkpt lat="45.19249" lon="5.96723">
        <ele>1926.9</ele>
        <time>2026-07-14T10:21:13Z</time>
      </trkpt>
      <trkpt lat="45.19249" lon="5.96723">
        <ele>1926.9</ele>
        <time>2026-07-14T10:21:14Z</time>
      </trkpt>
      <trkpt lat="45.19249" lon="5.96723">
        <ele>1926.9</ele>
        <time>2026-07-14T10:21:15Z</time>
      </trkpt>
      <trkpt lat="45.19249" lon="5.96723">
        <ele>1926.9</ele>
        <time>2026-07-14T10:21:16Z</time>
      </trkpt>
      <trkpt lat="45.19249" lon="5.96723">
        <ele>1926.9</ele>
        <time>2026-07-14T10:21:17Z</time>
      </trkpt>
      <trkpt lat="45.19249" lon="5.96723">
        <ele>1926.9</ele>
        <time>2026-07-14T10:21:18Z</time>
      </trkpt>
      <trkpt lat="45.19249" lon="5.96722">
        <ele>1926.9</ele>
        <time>2026-07-14T10:21:19Z</time>
      </trkpt>
      <trkpt lat="45.19249" lon="5.96722">
        <ele>1926.9</ele>
        <time>2026-07-14T10:21:20Z</time>
      </trkpt>
      <trkpt lat="45.1925" lon="5.96721">
        <ele>1926.8</ele>
        <time>2026-07-14T10:21:21Z</time>
      </trkpt>
      <trkpt lat="45.1925" lon="5.9672">
        <ele>1926.8</ele>
        <time>2026-07-14T10:21:22Z</time>
      </trkpt>
      <trkpt lat="45.1925" lon="5.96719">
        <ele>1926.8</ele>
        <time>2026-07-14T10:21:23Z</time>
      </trkpt>
      <trkpt lat="45.19251" lon="5.96718">
        <ele>1926.8</ele>
        <time>2026-07-14T10:21:24Z</time>
      </trkpt>
      <trkpt lat="45.19251" lon="5.96717">
        <ele>1926.8</ele>
        <time>2026-07-14T10:21:25Z</time>
      </trkpt>
      <trkpt lat="45.1925" lon="5.96716">
        <ele>1926.8</ele>
        <time>2026-07-14T10:21:26Z</time>
      </trkpt>
      <trkpt lat="45.1925" lon="5.96715">
        <ele>1926.7</ele>
        <time>2026-07-14T10:21:27Z</time>
      </trkpt>
      <trkpt lat="45.19249" lon="5.96715">
        <ele>1926.7</ele>
        <time>2026-07-14T10:21:28Z</time>
      </trkpt>
      <trkpt lat="45.19249" lon="5.96715">
        <ele>1926.7</ele>
        <time>2026-07-14T10:21:29Z</time>
      </trkpt>
      <trkpt lat="45.19249" lon="5.96715">
        <ele>1926.7</ele>
        <time>2026-07-14T10:21:30Z</time>
      </trkpt>
      <trkpt lat="45.19248" lon="5.96716">
        <ele>1926.7</ele>
        <time>2026-07-14T10:21:31Z</time>
      </trkpt>
      <trkpt lat="45.19248" lon="5.96716">
        <ele>1926.7</ele>
        <time>2026-07-14T10:21:32Z</time>
      </trkpt>
      <trkpt lat="45.19248" lon="5.96716">
        <ele>1926.7</ele>
        <time>2026-07-14T10:21:33Z</time>
      </trkpt>
      <trkpt lat="45.19248" lon="5.96716">
        <ele>1926.7</ele>
        <time>2026-07-14T10:21:34Z</time>
      </trkpt>
      <trkpt lat="45.19248" lon="5.96716">
        <ele>1926.7</ele>
        <time>2026-07-14T10:21:35Z</time>
      </trkpt>
      <trkpt lat="45.19248" lon="5.96716">
        <ele>1926.7</ele>
        <time>2026-07-14T10:21:36Z</time>
      </trkpt>
      <trkpt lat="45.19248" lon="5.96716">
        <ele>1926.7</ele>
        <time>2026-07-14T10:21:37Z</time>
      </trkpt>
      <trkpt lat="45.19248" lon="5.96716">
        <ele>1926.7</ele>
        <time>2026-07-14T10:21:38Z</time>
      </trkpt>
      <trkpt lat="45.19248" lon="5.96716">
        <ele>1926.7</ele>
        <time>2026-07-14T10:21:39Z</time>
      </trkpt>
      <trkpt lat="45.19248" lon="5.96716">
        <ele>1926.7</ele>
        <time>2026-07-14T10:21:40Z</time>
      </trkpt>
      <trkpt lat="45.19248" lon="5.96716">
        <ele>1926.7</ele>
        <time>2026-07-14T10:21:41Z</time>
      </trkpt>
      <trkpt lat="45.19248" lon="5.96716">
        <ele>1926.7</ele>
        <time>2026-07-14T10:21:42Z</time>
      </trkpt>
      <trkpt lat="45.19248" lon="5.96716">
        <ele>1926.7</ele>
        <time>2026-07-14T10:21:43Z</time>
      </trkpt>
      <trkpt lat="45.19248" lon="5.96716">
        <ele>1926.7</ele>
        <time>2026-07-14T10:21:44Z</time>
      </trkpt>
      <trkpt lat="45.19248" lon="5.96716">
        <ele>1926.7</ele>
        <time>2026-07-14T10:21:45Z</time>
      </trkpt>
      <trkpt lat="45.19248" lon="5.96716">
        <ele>1926.7</ele>
        <time>2026-07-14T10:21:46Z</time>
      </trkpt>
      <trkpt lat="45.19248" lon="5.96716">
        <ele>1926.7</ele>
        <time>2026-07-14T10:21:47Z</time>
      </trkpt>
      <trkpt lat="45.19248" lon="5.96716">
        <ele>1926.7</ele>
        <time>2026-07-14T10:21:48Z</time>
      </trkpt>
      <trkpt lat="45.19248" lon="5.96716">
        <ele>1926.7</ele>
        <time>2026-07-14T10:21:49Z</time>
      </trkpt>
      <trkpt lat="45.19248" lon="5.96716">
        <ele>1926.7</ele>
        <time>2026-07-14T10:21:50Z</time>
      </trkpt>
      <trkpt lat="45.19248" lon="5.96716">
        <ele>1926.7</ele>
        <time>2026-07-14T10:21:51Z</time>
      </trkpt>
      <trkpt lat="45.19248" lon="5.96716">
        <ele>1926.7</ele>
        <time>2026-07-14T10:21:52Z</time>
      </trkpt>
      <trkpt lat="45.19248" lon="5.96716">
        <ele>1926.6</ele>
        <time>2026-07-14T10:21:53Z</time>
      </trkpt>
      <trkpt lat="45.19248" lon="5.96716">
        <ele>1926.6</ele>
        <time>2026-07-14T10:21:54Z</time>
      </trkpt>
      <trkpt lat="45.19248" lon="5.96716">
        <ele>1926.6</ele>
        <time>2026-07-14T10:21:55Z</time>
      </trkpt>
      <trkpt lat="45.19248" lon="5.96716">
        <ele>1926.6</ele>
        <time>2026-07-14T10:21:56Z</time>
      </trkpt>
      <trkpt lat="45.19248" lon="5.96716">
        <ele>1926.6</ele>
        <time>2026-07-14T10:21:57Z</time>
      </trkpt>
      <trkpt lat="45.19248" lon="5.96716">
        <ele>1926.6</ele>
        <time>2026-07-14T10:21:58Z</time>
      </trkpt>
      <trkpt lat="45.19248" lon="5.96716">
        <ele>1926.6</ele>
        <time>2026-07-14T10:21:59Z</time>
      </trkpt>
      <trkpt lat="45.19248" lon="5.96716">
        <ele>1926.6</ele>
        <time>2026-07-14T10:22:00Z</time>
      </trkpt>
      <trkpt lat="45.19247" lon="5.96716">
        <ele>1926.6</ele>
        <time>2026-07-14T10:22:01Z</time>
      </trkpt>
      <trkpt lat="45.19247" lon="5.96716">
        <ele>1926.6</ele>
        <time>2026-07-14T10:22:02Z</time>
      </trkpt>
      <trkpt lat="45.19247" lon="5.96716">
        <ele>1926.6</ele>
        <time>2026-07-14T10:22:03Z</time>
      </trkpt>
      <trkpt lat="45.19247" lon="5.96716">
        <ele>1926.6</ele>
        <time>2026-07-14T10:22:04Z</time>
      </trkpt>
      <trkpt lat="45.19247" lon="5.96716">
        <ele>1926.6</ele>
        <time>2026-07-14T10:22:05Z</time>
      </trkpt>
      <trkpt lat="45.19247" lon="5.96716">
        <ele>1926.6</ele>
        <time>2026-07-14T10:22:07Z</time>
      </trkpt>
      <trkpt lat="45.19247" lon="5.96716">
        <ele>1926.6</ele>
        <time>2026-07-14T10:22:08Z</time>
      </trkpt>
      <trkpt lat="45.19247" lon="5.96716">
        <ele>1926.6</ele>
        <time>2026-07-14T10:22:10Z</time>
      </trkpt>
      <trkpt lat="45.19247" lon="5.96716">
        <ele>1926.6</ele>
        <time>2026-07-14T10:22:12Z</time>
      </trkpt>
      <trkpt lat="45.19247" lon="5.96716">
        <ele>1926.6</ele>
        <time>2026-07-14T10:22:13Z</time>
      </trkpt>
      <trkpt lat="45.19247" lon="5.96716">
        <ele>1926.6</ele>
        <time>2026-07-14T10:22:14Z</time>
      </trkpt>
      <trkpt lat="45.19247" lon="5.96716">
        <ele>1926.6</ele>
        <time>2026-07-14T10:22:15Z</time>
      </trkpt>
      <trkpt lat="45.19247" lon="5.96716">
        <ele>1926.6</ele>
        <time>2026-07-14T10:22:17Z</time>
      </trkpt>
      <trkpt lat="45.19247" lon="5.96716">
        <ele>1926.6</ele>
        <time>2026-07-14T10:22:18Z</time>
      </trkpt>
      <trkpt lat="45.19247" lon="5.96716">
        <ele>1926.6</ele>
        <time>2026-07-14T10:22:19Z</time>
      </trkpt>
      <trkpt lat="45.19247" lon="5.96716">
        <ele>1926.6</ele>
        <time>2026-07-14T10:22:20Z</time>
      </trkpt>
      <trkpt lat="45.19247" lon="5.96716">
        <ele>1926.6</ele>
        <time>2026-07-14T10:22:21Z</time>
      </trkpt>
      <trkpt lat="45.19247" lon="5.96716">
        <ele>1926.6</ele>
        <time>2026-07-14T10:22:23Z</time>
      </trkpt>
      <trkpt lat="45.19247" lon="5.96716">
        <ele>1926.6</ele>
        <time>2026-07-14T10:22:25Z</time>
      </trkpt>
      <trkpt lat="45.19247" lon="5.96716">
        <ele>1926.6</ele>
        <time>2026-07-14T10:22:26Z</time>
      </trkpt>
      <trkpt lat="45.19247" lon="5.96716">
        <ele>1926.6</ele>
        <time>2026-07-14T10:22:27Z</time>
      </trkpt>
      <trkpt lat="45.19247" lon="5.96716">
        <ele>1926.6</ele>
        <time>2026-07-14T10:22:28Z</time>
      </trkpt>
      <trkpt lat="45.19247" lon="5.96716">
        <ele>1926.6</ele>
        <time>2026-07-14T10:22:29Z</time>
      </trkpt>
      <trkpt lat="45.19247" lon="5.96716">
        <ele>1926.6</ele>
        <time>2026-07-14T10:22:30Z</time>
      </trkpt>
      <trkpt lat="45.19247" lon="5.96716">
        <ele>1926.6</ele>
        <time>2026-07-14T10:22:31Z</time>
      </trkpt>
      <trkpt lat="45.19247" lon="5.96716">
        <ele>1926.6</ele>
        <time>2026-07-14T10:22:32Z</time>
      </trkpt>
      <trkpt lat="45.19247" lon="5.96716">
        <ele>1926.6</ele>
        <time>2026-07-14T10:22:33Z</time>
      </trkpt>
      <trkpt lat="45.19247" lon="5.96716">
        <ele>1926.6</ele>
        <time>2026-07-14T10:22:34Z</time>
      </trkpt>
      <trkpt lat="45.19247" lon="5.96716">
        <ele>1926.6</ele>
        <time>2026-07-14T10:22:35Z</time>
      </trkpt>
      <trkpt lat="45.19247" lon="5.96716">
        <ele>1926.6</ele>
        <time>2026-07-14T10:22:37Z</time>
      </trkpt>
      <trkpt lat="45.19247" lon="5.96716">
        <ele>1926.6</ele>
        <time>2026-07-14T10:22:38Z</time>
      </trkpt>
      <trkpt lat="45.19247" lon="5.96716">
        <ele>1926.6</ele>
        <time>2026-07-14T10:22:39Z</time>
      </trkpt>
      <trkpt lat="45.19247" lon="5.96716">
        <ele>1926.6</ele>
        <time>2026-07-14T10:22:40Z</time>
      </trkpt>
      <trkpt lat="45.19247" lon="5.96716">
        <ele>1926.6</ele>
        <time>2026-07-14T10:22:41Z</time>
      </trkpt>
      <trkpt lat="45.19247" lon="5.96716">
        <ele>1926.6</ele>
        <time>2026-07-14T10:22:42Z</time>
      </trkpt>
      <trkpt lat="45.19247" lon="5.96716">
        <ele>1926.6</ele>
        <time>2026-07-14T10:22:43Z</time>
      </trkpt>
      <trkpt lat="45.19247" lon="5.96716">
        <ele>1926.6</ele>
        <time>2026-07-14T10:22:44Z</time>
      </trkpt>
      <trkpt lat="45.19247" lon="5.96716">
        <ele>1926.6</ele>
        <time>2026-07-14T10:22:45Z</time>
      </trkpt>
      <trkpt lat="45.19247" lon="5.96716">
        <ele>1926.6</ele>
        <time>2026-07-14T10:22:46Z</time>
      </trkpt>
      <trkpt lat="45.19247" lon="5.96716">
        <ele>1926.6</ele>
        <time>2026-07-14T10:22:48Z</time>
      </trkpt>
      <trkpt lat="45.19247" lon="5.96716">
        <ele>1926.6</ele>
        <time>2026-07-14T10:22:49Z</time>
      </trkpt>
      <trkpt lat="45.19247" lon="5.96716">
        <ele>1926.6</ele>
        <time>2026-07-14T10:22:50Z</time>
      </trkpt>
      <trkpt lat="45.19247" lon="5.96716">
        <ele>1926.6</ele>
        <time>2026-07-14T10:22:51Z</time>
      </trkpt>
      <trkpt lat="45.19247" lon="5.96716">
        <ele>1926.6</ele>
        <time>2026-07-14T10:22:52Z</time>
      </trkpt>
      <trkpt lat="45.19247" lon="5.96716">
        <ele>1926.6</ele>
        <time>2026-07-14T10:22:53Z</time>
      </trkpt>
      <trkpt lat="45.19247" lon="5.96716">
        <ele>1926.6</ele>
        <time>2026-07-14T10:22:54Z</time>
      </trkpt>
      <trkpt lat="45.19247" lon="5.96716">
        <ele>1926.6</ele>
        <time>2026-07-14T10:22:55Z</time>
      </trkpt>
      <trkpt lat="45.19247" lon="5.96716">
        <ele>1926.6</ele>
        <time>2026-07-14T10:22:56Z</time>
      </trkpt>
      <trkpt lat="45.19247" lon="5.96716">
        <ele>1926.6</ele>
        <time>2026-07-14T10:22:57Z</time>
      </trkpt>
      <trkpt lat="45.19247" lon="5.96716">
        <ele>1926.6</ele>
        <time>2026-07-14T10:22:58Z</time>
      </trkpt>
      <trkpt lat="45.19247" lon="5.96716">
        <ele>1926.6</ele>
        <time>2026-07-14T10:22:59Z</time>
      </trkpt>
      <trkpt lat="45.19247" lon="5.96716">
        <ele>1926.6</ele>
        <time>2026-07-14T10:23:00Z</time>
      </trkpt>
      <trkpt lat="45.19247" lon="5.96716">
        <ele>1926.6</ele>
        <time>2026-07-14T10:23:01Z</time>
      </trkpt>
      <trkpt lat="45.19247" lon="5.96716">
        <ele>1926.6</ele>
        <time>2026-07-14T10:23:02Z</time>
      </trkpt>
      <trkpt lat="45.19247" lon="5.96716">
        <ele>1926.6</ele>
        <time>2026-07-14T10:23:03Z</time>
      </trkpt>
      <trkpt lat="45.19247" lon="5.96716">
        <ele>1926.6</ele>
        <time>2026-07-14T10:23:04Z</time>
      </trkpt>
      <trkpt lat="45.19247" lon="5.96716">
        <ele>1926.6</ele>
        <time>2026-07-14T10:23:05Z</time>
      </trkpt>
      <trkpt lat="45.19247" lon="5.96716">
        <ele>1926.6</ele>
        <time>2026-07-14T10:23:06Z</time>
      </trkpt>
      <trkpt lat="45.19247" lon="5.96716">
        <ele>1926.6</ele>
        <time>2026-07-14T10:23:07Z</time>
      </trkpt>
      <trkpt lat="45.19247" lon="5.96716">
        <ele>1926.6</ele>
        <time>2026-07-14T10:23:08Z</time>
      </trkpt>
      <trkpt lat="45.19247" lon="5.96716">
        <ele>1926.6</ele>
        <time>2026-07-14T10:23:09Z</time>
      </trkpt>
      <trkpt lat="45.19247" lon="5.96716">
        <ele>1926.6</ele>
        <time>2026-07-14T10:23:10Z</time>
      </trkpt>
      <trkpt lat="45.19247" lon="5.96716">
        <ele>1926.6</ele>
        <time>2026-07-14T10:23:11Z</time>
      </trkpt>
      <trkpt lat="45.19247" lon="5.96716">
        <ele>1926.6</ele>
        <time>2026-07-14T10:23:12Z</time>
      </trkpt>
      <trkpt lat="45.19247" lon="5.96716">
        <ele>1926.6</ele>
        <time>2026-07-14T10:23:13Z</time>
      </trkpt>
      <trkpt lat="45.19247" lon="5.96716">
        <ele>1926.6</ele>
        <time>2026-07-14T10:23:14Z</time>
      </trkpt>
      <trkpt lat="45.19248" lon="5.96716">
        <ele>1926.6</ele>
        <time>2026-07-14T10:23:15Z</time>
      </trkpt>
      <trkpt lat="45.19247" lon="5.96716">
        <ele>1926.6</ele>
        <time>2026-07-14T10:23:16Z</time>
      </trkpt>
      <trkpt lat="45.19248" lon="5.96716">
        <ele>1926.6</ele>
        <time>2026-07-14T10:23:17Z</time>
      </trkpt>
      <trkpt lat="45.19248" lon="5.96716">
        <ele>1926.6</ele>
        <time>2026-07-14T10:23:18Z</time>
      </trkpt>
      <trkpt lat="45.19248" lon="5.96717">
        <ele>1926.6</ele>
        <time>2026-07-14T10:23:20Z</time>
      </trkpt>
      <trkpt lat="45.19248" lon="5.96717">
        <ele>1926.6</ele>
        <time>2026-07-14T10:23:21Z</time>
      </trkpt>
      <trkpt lat="45.19248" lon="5.96717">
        <ele>1926.6</ele>
        <time>2026-07-14T10:23:22Z</time>
      </trkpt>
      <trkpt lat="45.19248" lon="5.96717">
        <ele>1926.6</ele>
        <time>2026-07-14T10:23:23Z</time>
      </trkpt>
      <trkpt lat="45.19248" lon="5.96717">
        <ele>1926.6</ele>
        <time>2026-07-14T10:23:24Z</time>
      </trkpt>
      <trkpt lat="45.19248" lon="5.96717">
        <ele>1926.6</ele>
        <time>2026-07-14T10:23:25Z</time>
      </trkpt>
      <trkpt lat="45.19248" lon="5.96717">
        <ele>1926.6</ele>
        <time>2026-07-14T10:23:26Z</time>
      </trkpt>
      <trkpt lat="45.19248" lon="5.96717">
        <ele>1926.6</ele>
        <time>2026-07-14T10:23:27Z</time>
      </trkpt>
      <trkpt lat="45.19248" lon="5.96717">
        <ele>1926.6</ele>
        <time>2026-07-14T10:23:28Z</time>
      </trkpt>
      <trkpt lat="45.19248" lon="5.96717">
        <ele>1926.6</ele>
        <time>2026-07-14T10:23:29Z</time>
      </trkpt>
      <trkpt lat="45.19248" lon="5.96717">
        <ele>1926.6</ele>
        <time>2026-07-14T10:23:30Z</time>
      </trkpt>
      <trkpt lat="45.19248" lon="5.96717">
        <ele>1926.6</ele>
        <time>2026-07-14T10:23:31Z</time>
      </trkpt>
      <trkpt lat="45.19248" lon="5.96717">
        <ele>1926.6</ele>
        <time>2026-07-14T10:23:32Z</time>
      </trkpt>
      <trkpt lat="45.19248" lon="5.96717">
        <ele>1926.6</ele>
        <time>2026-07-14T10:23:33Z</time>
      </trkpt>
      <trkpt lat="45.19249" lon="5.96718">
        <ele>1926.5</ele>
        <time>2026-07-14T10:23:34Z</time>
      </trkpt>
      <trkpt lat="45.19249" lon="5.96718">
        <ele>1926.5</ele>
        <time>2026-07-14T10:23:35Z</time>
      </trkpt>
      <trkpt lat="45.1925" lon="5.96718">
        <ele>1926.5</ele>
        <time>2026-07-14T10:23:36Z</time>
      </trkpt>
      <trkpt lat="45.19251" lon="5.96719">
        <ele>1926.5</ele>
        <time>2026-07-14T10:23:37Z</time>
      </trkpt>
      <trkpt lat="45.19251" lon="5.96719">
        <ele>1926.5</ele>
        <time>2026-07-14T10:23:38Z</time>
      </trkpt>
      <trkpt lat="45.19251" lon="5.96718">
        <ele>1926.5</ele>
        <time>2026-07-14T10:23:39Z</time>
      </trkpt>
      <trkpt lat="45.19251" lon="5.96718">
        <ele>1926.5</ele>
        <time>2026-07-14T10:23:40Z</time>
      </trkpt>
      <trkpt lat="45.19251" lon="5.96718">
        <ele>1926.4</ele>
        <time>2026-07-14T10:23:41Z</time>
      </trkpt>
      <trkpt lat="45.1925" lon="5.96718">
        <ele>1926.4</ele>
        <time>2026-07-14T10:23:42Z</time>
      </trkpt>
      <trkpt lat="45.1925" lon="5.96718">
        <ele>1926.4</ele>
        <time>2026-07-14T10:23:43Z</time>
      </trkpt>
      <trkpt lat="45.1925" lon="5.96717">
        <ele>1926.4</ele>
        <time>2026-07-14T10:23:44Z</time>
      </trkpt>
      <trkpt lat="45.1925" lon="5.96717">
        <ele>1926.4</ele>
        <time>2026-07-14T10:23:45Z</time>
      </trkpt>
      <trkpt lat="45.1925" lon="5.96717">
        <ele>1926.4</ele>
        <time>2026-07-14T10:23:46Z</time>
      </trkpt>
      <trkpt lat="45.1925" lon="5.96717">
        <ele>1926.4</ele>
        <time>2026-07-14T10:23:47Z</time>
      </trkpt>
      <trkpt lat="45.19251" lon="5.96717">
        <ele>1926.4</ele>
        <time>2026-07-14T10:23:48Z</time>
      </trkpt>
      <trkpt lat="45.19251" lon="5.96717">
        <ele>1926.4</ele>
        <time>2026-07-14T10:23:49Z</time>
      </trkpt>
      <trkpt lat="45.19251" lon="5.96717">
        <ele>1926.4</ele>
        <time>2026-07-14T10:23:50Z</time>
      </trkpt>
      <trkpt lat="45.19251" lon="5.96717">
        <ele>1926.4</ele>
        <time>2026-07-14T10:23:51Z</time>
      </trkpt>
      <trkpt lat="45.19251" lon="5.96717">
        <ele>1926.4</ele>
        <time>2026-07-14T10:23:52Z</time>
      </trkpt>
      <trkpt lat="45.1925" lon="5.96717">
        <ele>1926.4</ele>
        <time>2026-07-14T10:23:53Z</time>
      </trkpt>
      <trkpt lat="45.19251" lon="5.96717">
        <ele>1926.4</ele>
        <time>2026-07-14T10:23:54Z</time>
      </trkpt>
      <trkpt lat="45.1925" lon="5.96717">
        <ele>1926.4</ele>
        <time>2026-07-14T10:23:55Z</time>
      </trkpt>
      <trkpt lat="45.1925" lon="5.96717">
        <ele>1926.4</ele>
        <time>2026-07-14T10:23:56Z</time>
      </trkpt>
      <trkpt lat="45.1925" lon="5.96717">
        <ele>1926.4</ele>
        <time>2026-07-14T10:23:57Z</time>
      </trkpt>
      <trkpt lat="45.1925" lon="5.96717">
        <ele>1926.4</ele>
        <time>2026-07-14T10:23:58Z</time>
      </trkpt>
      <trkpt lat="45.1925" lon="5.96717">
        <ele>1926.4</ele>
        <time>2026-07-14T10:23:59Z</time>
      </trkpt>
      <trkpt lat="45.1925" lon="5.96717">
        <ele>1926.4</ele>
        <time>2026-07-14T10:24:00Z</time>
      </trkpt>
      <trkpt lat="45.1925" lon="5.96717">
        <ele>1926.4</ele>
        <time>2026-07-14T10:24:01Z</time>
      </trkpt>
      <trkpt lat="45.1925" lon="5.96717">
        <ele>1926.4</ele>
        <time>2026-07-14T10:24:02Z</time>
      </trkpt>
      <trkpt lat="45.1925" lon="5.96717">
        <ele>1926.4</ele>
        <time>2026-07-14T10:24:04Z</time>
      </trkpt>
      <trkpt lat="45.1925" lon="5.96718">
        <ele>1926.4</ele>
        <time>2026-07-14T10:24:05Z</time>
      </trkpt>
      <trkpt lat="45.1925" lon="5.96718">
        <ele>1926.4</ele>
        <time>2026-07-14T10:24:06Z</time>
      </trkpt>
      <trkpt lat="45.1925" lon="5.96718">
        <ele>1926.4</ele>
        <time>2026-07-14T10:24:07Z</time>
      </trkpt>
      <trkpt lat="45.1925" lon="5.96718">
        <ele>1926.4</ele>
        <time>2026-07-14T10:24:08Z</time>
      </trkpt>
      <trkpt lat="45.1925" lon="5.96718">
        <ele>1926.4</ele>
        <time>2026-07-14T10:24:09Z</time>
      </trkpt>
      <trkpt lat="45.1925" lon="5.96719">
        <ele>1926.4</ele>
        <time>2026-07-14T10:24:10Z</time>
      </trkpt>
      <trkpt lat="45.19249" lon="5.96719">
        <ele>1926.4</ele>
        <time>2026-07-14T10:24:11Z</time>
      </trkpt>
      <trkpt lat="45.19249" lon="5.96721">
        <ele>1926.4</ele>
        <time>2026-07-14T10:24:12Z</time>
      </trkpt>
      <trkpt lat="45.19248" lon="5.96722">
        <ele>1926.3</ele>
        <time>2026-07-14T10:24:14Z</time>
      </trkpt>
      <trkpt lat="45.19248" lon="5.96723">
        <ele>1926.3</ele>
        <time>2026-07-14T10:24:15Z</time>
      </trkpt>
      <trkpt lat="45.19247" lon="5.96725">
        <ele>1926.3</ele>
        <time>2026-07-14T10:24:16Z</time>
      </trkpt>
      <trkpt lat="45.19247" lon="5.96726">
        <ele>1926.3</ele>
        <time>2026-07-14T10:24:17Z</time>
      </trkpt>
      <trkpt lat="45.19247" lon="5.96726">
        <ele>1926.3</ele>
        <time>2026-07-14T10:24:19Z</time>
      </trkpt>
      <trkpt lat="45.19247" lon="5.96727">
        <ele>1926.3</ele>
        <time>2026-07-14T10:24:20Z</time>
      </trkpt>
      <trkpt lat="45.19248" lon="5.96727">
        <ele>1926.3</ele>
        <time>2026-07-14T10:24:21Z</time>
      </trkpt>
      <trkpt lat="45.19248" lon="5.96727">
        <ele>1926.3</ele>
        <time>2026-07-14T10:24:22Z</time>
      </trkpt>
      <trkpt lat="45.19248" lon="5.96727">
        <ele>1926.2</ele>
        <time>2026-07-14T10:24:24Z</time>
      </trkpt>
      <trkpt lat="45.19248" lon="5.96727">
        <ele>1926.2</ele>
        <time>2026-07-14T10:24:26Z</time>
      </trkpt>
      <trkpt lat="45.19248" lon="5.96727">
        <ele>1926.2</ele>
        <time>2026-07-14T10:24:27Z</time>
      </trkpt>
      <trkpt lat="45.19248" lon="5.96726">
        <ele>1926.2</ele>
        <time>2026-07-14T10:24:28Z</time>
      </trkpt>
      <trkpt lat="45.19248" lon="5.96726">
        <ele>1926.2</ele>
        <time>2026-07-14T10:24:30Z</time>
      </trkpt>
      <trkpt lat="45.19248" lon="5.96726">
        <ele>1926.2</ele>
        <time>2026-07-14T10:24:31Z</time>
      </trkpt>
      <trkpt lat="45.19248" lon="5.96726">
        <ele>1926.2</ele>
        <time>2026-07-14T10:24:32Z</time>
      </trkpt>
      <trkpt lat="45.19248" lon="5.96726">
        <ele>1926.2</ele>
        <time>2026-07-14T10:24:33Z</time>
      </trkpt>
      <trkpt lat="45.19248" lon="5.96726">
        <ele>1926.2</ele>
        <time>2026-07-14T10:24:34Z</time>
      </trkpt>
      <trkpt lat="45.19247" lon="5.96727">
        <ele>1926.2</ele>
        <time>2026-07-14T10:24:35Z</time>
      </trkpt>
      <trkpt lat="45.19247" lon="5.96728">
        <ele>1926.2</ele>
        <time>2026-07-14T10:24:36Z</time>
      </trkpt>
      <trkpt lat="45.19247" lon="5.96729">
        <ele>1926.2</ele>
        <time>2026-07-14T10:24:38Z</time>
      </trkpt>
      <trkpt lat="45.19247" lon="5.9673">
        <ele>1926.2</ele>
        <time>2026-07-14T10:24:39Z</time>
      </trkpt>
      <trkpt lat="45.19248" lon="5.96731">
        <ele>1926.2</ele>
        <time>2026-07-14T10:24:41Z</time>
      </trkpt>
      <trkpt lat="45.19247" lon="5.96731">
        <ele>1926.2</ele>
        <time>2026-07-14T10:24:43Z</time>
      </trkpt>
      <trkpt lat="45.19247" lon="5.96731">
        <ele>1926.2</ele>
        <time>2026-07-14T10:24:45Z</time>
      </trkpt>
      <trkpt lat="45.19246" lon="5.96731">
        <ele>1926.1</ele>
        <time>2026-07-14T10:24:46Z</time>
      </trkpt>
      <trkpt lat="45.19245" lon="5.96732">
        <ele>1926.1</ele>
        <time>2026-07-14T10:24:47Z</time>
      </trkpt>
      <trkpt lat="45.19245" lon="5.96732">
        <ele>1926.1</ele>
        <time>2026-07-14T10:24:48Z</time>
      </trkpt>
      <trkpt lat="45.19245" lon="5.96732">
        <ele>1926.1</ele>
        <time>2026-07-14T10:24:49Z</time>
      </trkpt>
      <trkpt lat="45.19245" lon="5.96733">
        <ele>1926.1</ele>
        <time>2026-07-14T10:24:50Z</time>
      </trkpt>
      <trkpt lat="45.19245" lon="5.96733">
        <ele>1926.1</ele>
        <time>2026-07-14T10:24:51Z</time>
      </trkpt>
      <trkpt lat="45.19245" lon="5.96733">
        <ele>1926.1</ele>
        <time>2026-07-14T10:24:53Z</time>
      </trkpt>
      <trkpt lat="45.19245" lon="5.96733">
        <ele>1926.1</ele>
        <time>2026-07-14T10:24:54Z</time>
      </trkpt>
      <trkpt lat="45.19245" lon="5.96733">
        <ele>1926.1</ele>
        <time>2026-07-14T10:24:55Z</time>
      </trkpt>
      <trkpt lat="45.19245" lon="5.96733">
        <ele>1926.1</ele>
        <time>2026-07-14T10:24:56Z</time>
      </trkpt>
      <trkpt lat="45.19245" lon="5.96733">
        <ele>1926.1</ele>
        <time>2026-07-14T10:24:57Z</time>
      </trkpt>
      <trkpt lat="45.19245" lon="5.96733">
        <ele>1926.1</ele>
        <time>2026-07-14T10:24:58Z</time>
      </trkpt>
      <trkpt lat="45.19245" lon="5.96733">
        <ele>1926.1</ele>
        <time>2026-07-14T10:24:59Z</time>
      </trkpt>
      <trkpt lat="45.19245" lon="5.96733">
        <ele>1926.1</ele>
        <time>2026-07-14T10:25:00Z</time>
      </trkpt>
      <trkpt lat="45.19245" lon="5.96733">
        <ele>1926.1</ele>
        <time>2026-07-14T10:25:01Z</time>
      </trkpt>
      <trkpt lat="45.19245" lon="5.96733">
        <ele>1926.1</ele>
        <time>2026-07-14T10:25:02Z</time>
      </trkpt>
      <trkpt lat="45.19245" lon="5.96733">
        <ele>1926.1</ele>
        <time>2026-07-14T10:25:03Z</time>
      </trkpt>
      <trkpt lat="45.19245" lon="5.96733">
        <ele>1926.1</ele>
        <time>2026-07-14T10:25:04Z</time>
      </trkpt>
      <trkpt lat="45.19245" lon="5.96733">
        <ele>1926.1</ele>
        <time>2026-07-14T10:25:05Z</time>
      </trkpt>
      <trkpt lat="45.19245" lon="5.96733">
        <ele>1926.1</ele>
        <time>2026-07-14T10:25:06Z</time>
      </trkpt>
      <trkpt lat="45.19245" lon="5.96733">
        <ele>1926.1</ele>
        <time>2026-07-14T10:25:07Z</time>
      </trkpt>
      <trkpt lat="45.19245" lon="5.96733">
        <ele>1926.1</ele>
        <time>2026-07-14T10:25:08Z</time>
      </trkpt>
      <trkpt lat="45.19245" lon="5.96733">
        <ele>1926.1</ele>
        <time>2026-07-14T10:25:09Z</time>
      </trkpt>
      <trkpt lat="45.19245" lon="5.96733">
        <ele>1926.1</ele>
        <time>2026-07-14T10:25:10Z</time>
      </trkpt>
      <trkpt lat="45.19245" lon="5.96733">
        <ele>1926.1</ele>
        <time>2026-07-14T10:25:11Z</time>
      </trkpt>
      <trkpt lat="45.19245" lon="5.96733">
        <ele>1926.1</ele>
        <time>2026-07-14T10:25:12Z</time>
      </trkpt>
      <trkpt lat="45.19245" lon="5.96733">
        <ele>1926.1</ele>
        <time>2026-07-14T10:25:13Z</time>
      </trkpt>
      <trkpt lat="45.19245" lon="5.96733">
        <ele>1926.1</ele>
        <time>2026-07-14T10:25:14Z</time>
      </trkpt>
      <trkpt lat="45.19245" lon="5.96733">
        <ele>1926.1</ele>
        <time>2026-07-14T10:25:15Z</time>
      </trkpt>
      <trkpt lat="45.19245" lon="5.96733">
        <ele>1926.1</ele>
        <time>2026-07-14T10:25:16Z</time>
      </trkpt>
      <trkpt lat="45.19245" lon="5.96733">
        <ele>1926.1</ele>
        <time>2026-07-14T10:25:17Z</time>
      </trkpt>
      <trkpt lat="45.19245" lon="5.96733">
        <ele>1926.1</ele>
        <time>2026-07-14T10:25:18Z</time>
      </trkpt>
      <trkpt lat="45.19245" lon="5.96733">
        <ele>1926.1</ele>
        <time>2026-07-14T10:25:19Z</time>
      </trkpt>
      <trkpt lat="45.19245" lon="5.96733">
        <ele>1926.1</ele>
        <time>2026-07-14T10:25:20Z</time>
      </trkpt>
      <trkpt lat="45.19245" lon="5.96733">
        <ele>1926.1</ele>
        <time>2026-07-14T10:25:21Z</time>
      </trkpt>
      <trkpt lat="45.19245" lon="5.96733">
        <ele>1926.1</ele>
        <time>2026-07-14T10:25:22Z</time>
      </trkpt>
      <trkpt lat="45.19245" lon="5.96732">
        <ele>1926.1</ele>
        <time>2026-07-14T10:25:23Z</time>
      </trkpt>
      <trkpt lat="45.19245" lon="5.96732">
        <ele>1926.1</ele>
        <time>2026-07-14T10:25:24Z</time>
      </trkpt>
      <trkpt lat="45.19244" lon="5.96732">
        <ele>1926.1</ele>
        <time>2026-07-14T10:25:25Z</time>
      </trkpt>
      <trkpt lat="45.19243" lon="5.96732">
        <ele>1926.1</ele>
        <time>2026-07-14T10:25:26Z</time>
      </trkpt>
      <trkpt lat="45.19243" lon="5.96733">
        <ele>1926.1</ele>
        <time>2026-07-14T10:25:27Z</time>
      </trkpt>
      <trkpt lat="45.19243" lon="5.96733">
        <ele>1926.1</ele>
        <time>2026-07-14T10:25:28Z</time>
      </trkpt>
      <trkpt lat="45.19243" lon="5.96733">
        <ele>1926.1</ele>
        <time>2026-07-14T10:25:29Z</time>
      </trkpt>
      <trkpt lat="45.19243" lon="5.96733">
        <ele>1926.1</ele>
        <time>2026-07-14T10:25:30Z</time>
      </trkpt>
      <trkpt lat="45.19243" lon="5.96734">
        <ele>1926.1</ele>
        <time>2026-07-14T10:25:31Z</time>
      </trkpt>
      <trkpt lat="45.19243" lon="5.96733">
        <ele>1926.1</ele>
        <time>2026-07-14T10:25:32Z</time>
      </trkpt>
      <trkpt lat="45.19243" lon="5.96733">
        <ele>1926.1</ele>
        <time>2026-07-14T10:25:33Z</time>
      </trkpt>
      <trkpt lat="45.19243" lon="5.96733">
        <ele>1926.1</ele>
        <time>2026-07-14T10:25:34Z</time>
      </trkpt>
      <trkpt lat="45.19243" lon="5.96733">
        <ele>1926.1</ele>
        <time>2026-07-14T10:25:35Z</time>
      </trkpt>
      <trkpt lat="45.19243" lon="5.96733">
        <ele>1926.1</ele>
        <time>2026-07-14T10:25:36Z</time>
      </trkpt>
      <trkpt lat="45.19243" lon="5.96733">
        <ele>1926.1</ele>
        <time>2026-07-14T10:25:37Z</time>
      </trkpt>
      <trkpt lat="45.19243" lon="5.96733">
        <ele>1926.1</ele>
        <time>2026-07-14T10:25:38Z</time>
      </trkpt>
      <trkpt lat="45.19243" lon="5.96733">
        <ele>1926</ele>
        <time>2026-07-14T10:25:39Z</time>
      </trkpt>
      <trkpt lat="45.19244" lon="5.96733">
        <ele>1926</ele>
        <time>2026-07-14T10:25:40Z</time>
      </trkpt>
      <trkpt lat="45.19244" lon="5.96732">
        <ele>1926</ele>
        <time>2026-07-14T10:25:41Z</time>
      </trkpt>
      <trkpt lat="45.19244" lon="5.96732">
        <ele>1926</ele>
        <time>2026-07-14T10:25:42Z</time>
      </trkpt>
      <trkpt lat="45.19244" lon="5.96732">
        <ele>1926</ele>
        <time>2026-07-14T10:25:43Z</time>
      </trkpt>
      <trkpt lat="45.19244" lon="5.96732">
        <ele>1926</ele>
        <time>2026-07-14T10:25:44Z</time>
      </trkpt>
      <trkpt lat="45.19244" lon="5.96732">
        <ele>1926</ele>
        <time>2026-07-14T10:25:45Z</time>
      </trkpt>
      <trkpt lat="45.19244" lon="5.96732">
        <ele>1926</ele>
        <time>2026-07-14T10:25:46Z</time>
      </trkpt>
      <trkpt lat="45.19244" lon="5.96732">
        <ele>1926</ele>
        <time>2026-07-14T10:25:47Z</time>
      </trkpt>
      <trkpt lat="45.19244" lon="5.96732">
        <ele>1926</ele>
        <time>2026-07-14T10:25:48Z</time>
      </trkpt>
      <trkpt lat="45.19244" lon="5.96732">
        <ele>1926</ele>
        <time>2026-07-14T10:25:49Z</time>
      </trkpt>
      <trkpt lat="45.19244" lon="5.96732">
        <ele>1926</ele>
        <time>2026-07-14T10:25:50Z</time>
      </trkpt>
      <trkpt lat="45.19244" lon="5.96732">
        <ele>1926</ele>
        <time>2026-07-14T10:25:51Z</time>
      </trkpt>
      <trkpt lat="45.19244" lon="5.96732">
        <ele>1926</ele>
        <time>2026-07-14T10:25:52Z</time>
      </trkpt>
      <trkpt lat="45.19244" lon="5.96732">
        <ele>1926</ele>
        <time>2026-07-14T10:25:53Z</time>
      </trkpt>
      <trkpt lat="45.19244" lon="5.96732">
        <ele>1926</ele>
        <time>2026-07-14T10:25:54Z</time>
      </trkpt>
      <trkpt lat="45.19244" lon="5.96732">
        <ele>1926</ele>
        <time>2026-07-14T10:25:55Z</time>
      </trkpt>
      <trkpt lat="45.19244" lon="5.96732">
        <ele>1926</ele>
        <time>2026-07-14T10:25:56Z</time>
      </trkpt>
      <trkpt lat="45.19244" lon="5.96732">
        <ele>1926</ele>
        <time>2026-07-14T10:25:57Z</time>
      </trkpt>
      <trkpt lat="45.19244" lon="5.96732">
        <ele>1926</ele>
        <time>2026-07-14T10:25:58Z</time>
      </trkpt>
      <trkpt lat="45.19244" lon="5.96732">
        <ele>1926</ele>
        <time>2026-07-14T10:25:59Z</time>
      </trkpt>
      <trkpt lat="45.19244" lon="5.96732">
        <ele>1926</ele>
        <time>2026-07-14T10:26:00Z</time>
      </trkpt>
      <trkpt lat="45.19244" lon="5.96732">
        <ele>1926</ele>
        <time>2026-07-14T10:26:01Z</time>
      </trkpt>
      <trkpt lat="45.19244" lon="5.96732">
        <ele>1926</ele>
        <time>2026-07-14T10:26:02Z</time>
      </trkpt>
      <trkpt lat="45.19244" lon="5.96732">
        <ele>1926</ele>
        <time>2026-07-14T10:26:03Z</time>
      </trkpt>
      <trkpt lat="45.19244" lon="5.96732">
        <ele>1926</ele>
        <time>2026-07-14T10:26:04Z</time>
      </trkpt>
      <trkpt lat="45.19244" lon="5.96732">
        <ele>1926</ele>
        <time>2026-07-14T10:26:05Z</time>
      </trkpt>
      <trkpt lat="45.19244" lon="5.96732">
        <ele>1926</ele>
        <time>2026-07-14T10:26:06Z</time>
      </trkpt>
      <trkpt lat="45.19244" lon="5.96732">
        <ele>1926</ele>
        <time>2026-07-14T10:26:07Z</time>
      </trkpt>
      <trkpt lat="45.19244" lon="5.96732">
        <ele>1926</ele>
        <time>2026-07-14T10:26:08Z</time>
      </trkpt>
      <trkpt lat="45.19244" lon="5.96732">
        <ele>1926</ele>
        <time>2026-07-14T10:26:09Z</time>
      </trkpt>
      <trkpt lat="45.19244" lon="5.96732">
        <ele>1926</ele>
        <time>2026-07-14T10:26:10Z</time>
      </trkpt>
      <trkpt lat="45.19244" lon="5.96732">
        <ele>1926</ele>
        <time>2026-07-14T10:26:11Z</time>
      </trkpt>
      <trkpt lat="45.19244" lon="5.96732">
        <ele>1926</ele>
        <time>2026-07-14T10:26:12Z</time>
      </trkpt>
      <trkpt lat="45.19244" lon="5.96732">
        <ele>1926</ele>
        <time>2026-07-14T10:26:13Z</time>
      </trkpt>
      <trkpt lat="45.19244" lon="5.96732">
        <ele>1926</ele>
        <time>2026-07-14T10:26:14Z</time>
      </trkpt>
      <trkpt lat="45.19244" lon="5.96732">
        <ele>1926</ele>
        <time>2026-07-14T10:26:15Z</time>
      </trkpt>
      <trkpt lat="45.19244" lon="5.96732">
        <ele>1926</ele>
        <time>2026-07-14T10:26:16Z</time>
      </trkpt>
      <trkpt lat="45.19244" lon="5.96732">
        <ele>1926</ele>
        <time>2026-07-14T10:26:17Z</time>
      </trkpt>
      <trkpt lat="45.19244" lon="5.96732">
        <ele>1926</ele>
        <time>2026-07-14T10:26:18Z</time>
      </trkpt>
      <trkpt lat="45.19244" lon="5.96732">
        <ele>1926</ele>
        <time>2026-07-14T10:26:19Z</time>
      </trkpt>
      <trkpt lat="45.19244" lon="5.96732">
        <ele>1926</ele>
        <time>2026-07-14T10:26:20Z</time>
      </trkpt>
      <trkpt lat="45.19244" lon="5.96732">
        <ele>1926</ele>
        <time>2026-07-14T10:26:21Z</time>
      </trkpt>
      <trkpt lat="45.19244" lon="5.96732">
        <ele>1926</ele>
        <time>2026-07-14T10:26:22Z</time>
      </trkpt>
      <trkpt lat="45.19244" lon="5.96732">
        <ele>1926</ele>
        <time>2026-07-14T10:26:23Z</time>
      </trkpt>
      <trkpt lat="45.19244" lon="5.96732">
        <ele>1926</ele>
        <time>2026-07-14T10:26:24Z</time>
      </trkpt>
      <trkpt lat="45.19244" lon="5.96732">
        <ele>1926</ele>
        <time>2026-07-14T10:26:25Z</time>
      </trkpt>
      <trkpt lat="45.19244" lon="5.96732">
        <ele>1926</ele>
        <time>2026-07-14T10:26:26Z</time>
      </trkpt>
      <trkpt lat="45.19244" lon="5.96732">
        <ele>1926</ele>
        <time>2026-07-14T10:26:27Z</time>
      </trkpt>
      <trkpt lat="45.19244" lon="5.96732">
        <ele>1926</ele>
        <time>2026-07-14T10:26:28Z</time>
      </trkpt>
      <trkpt lat="45.19244" lon="5.96732">
        <ele>1926</ele>
        <time>2026-07-14T10:26:29Z</time>
      </trkpt>
      <trkpt lat="45.19244" lon="5.96732">
        <ele>1926</ele>
        <time>2026-07-14T10:26:30Z</time>
      </trkpt>
      <trkpt lat="45.19244" lon="5.96732">
        <ele>1926</ele>
        <time>2026-07-14T10:26:31Z</time>
      </trkpt>
      <trkpt lat="45.19244" lon="5.96732">
        <ele>1926</ele>
        <time>2026-07-14T10:26:32Z</time>
      </trkpt>
      <trkpt lat="45.19244" lon="5.96732">
        <ele>1926</ele>
        <time>2026-07-14T10:26:33Z</time>
      </trkpt>
      <trkpt lat="45.19244" lon="5.96732">
        <ele>1926</ele>
        <time>2026-07-14T10:26:34Z</time>
      </trkpt>
      <trkpt lat="45.19244" lon="5.96732">
        <ele>1926</ele>
        <time>2026-07-14T10:26:35Z</time>
      </trkpt>
      <trkpt lat="45.19244" lon="5.96732">
        <ele>1926</ele>
        <time>2026-07-14T10:26:36Z</time>
      </trkpt>
      <trkpt lat="45.19244" lon="5.96732">
        <ele>1926</ele>
        <time>2026-07-14T10:26:37Z</time>
      </trkpt>
      <trkpt lat="45.19244" lon="5.96732">
        <ele>1926</ele>
        <time>2026-07-14T10:26:38Z</time>
      </trkpt>
      <trkpt lat="45.19244" lon="5.96732">
        <ele>1926</ele>
        <time>2026-07-14T10:26:39Z</time>
      </trkpt>
      <trkpt lat="45.19244" lon="5.96732">
        <ele>1926</ele>
        <time>2026-07-14T10:26:40Z</time>
      </trkpt>
      <trkpt lat="45.19244" lon="5.96732">
        <ele>1926</ele>
        <time>2026-07-14T10:26:41Z</time>
      </trkpt>
      <trkpt lat="45.19244" lon="5.96732">
        <ele>1926</ele>
        <time>2026-07-14T10:26:42Z</time>
      </trkpt>
      <trkpt lat="45.19244" lon="5.96732">
        <ele>1926</ele>
        <time>2026-07-14T10:26:43Z</time>
      </trkpt>
      <trkpt lat="45.19244" lon="5.96732">
        <ele>1926</ele>
        <time>2026-07-14T10:26:44Z</time>
      </trkpt>
      <trkpt lat="45.19244" lon="5.96732">
        <ele>1926</ele>
        <time>2026-07-14T10:26:45Z</time>
      </trkpt>
      <trkpt lat="45.19244" lon="5.96732">
        <ele>1926</ele>
        <time>2026-07-14T10:26:46Z</time>
      </trkpt>
      <trkpt lat="45.19244" lon="5.96732">
        <ele>1926</ele>
        <time>2026-07-14T10:26:47Z</time>
      </trkpt>
      <trkpt lat="45.19244" lon="5.96732">
        <ele>1926</ele>
        <time>2026-07-14T10:26:48Z</time>
      </trkpt>
      <trkpt lat="45.19244" lon="5.96732">
        <ele>1926</ele>
        <time>2026-07-14T10:26:49Z</time>
      </trkpt>
      <trkpt lat="45.19244" lon="5.96732">
        <ele>1926</ele>
        <time>2026-07-14T10:26:50Z</time>
      </trkpt>
      <trkpt lat="45.19244" lon="5.96732">
        <ele>1926</ele>
        <time>2026-07-14T10:26:51Z</time>
      </trkpt>
      <trkpt lat="45.19244" lon="5.96732">
        <ele>1926</ele>
        <time>2026-07-14T10:26:52Z</time>
      </trkpt>
      <trkpt lat="45.19244" lon="5.96732">
        <ele>1926</ele>
        <time>2026-07-14T10:26:53Z</time>
      </trkpt>
      <trkpt lat="45.19244" lon="5.96732">
        <ele>1926</ele>
        <time>2026-07-14T10:26:54Z</time>
      </trkpt>
      <trkpt lat="45.19244" lon="5.96732">
        <ele>1926</ele>
        <time>2026-07-14T10:26:55Z</time>
      </trkpt>
      <trkpt lat="45.19244" lon="5.96732">
        <ele>1926</ele>
        <time>2026-07-14T10:26:56Z</time>
      </trkpt>
      <trkpt lat="45.19244" lon="5.96732">
        <ele>1926</ele>
        <time>2026-07-14T10:26:57Z</time>
      </trkpt>
      <trkpt lat="45.19244" lon="5.96732">
        <ele>1926</ele>
        <time>2026-07-14T10:26:58Z</time>
      </trkpt>
      <trkpt lat="45.19244" lon="5.96732">
        <ele>1926</ele>
        <time>2026-07-14T10:26:59Z</time>
      </trkpt>
      <trkpt lat="45.19244" lon="5.96732">
        <ele>1926</ele>
        <time>2026-07-14T10:27:00Z</time>
      </trkpt>
      <trkpt lat="45.19244" lon="5.96732">
        <ele>1926</ele>
        <time>2026-07-14T10:27:01Z</time>
      </trkpt>
      <trkpt lat="45.19244" lon="5.96732">
        <ele>1926</ele>
        <time>2026-07-14T10:27:03Z</time>
      </trkpt>
      <trkpt lat="45.19244" lon="5.96732">
        <ele>1926</ele>
        <time>2026-07-14T10:27:04Z</time>
      </trkpt>
      <trkpt lat="45.19244" lon="5.96732">
        <ele>1926</ele>
        <time>2026-07-14T10:27:05Z</time>
      </trkpt>
      <trkpt lat="45.19244" lon="5.96732">
        <ele>1926</ele>
        <time>2026-07-14T10:27:06Z</time>
      </trkpt>
      <trkpt lat="45.19244" lon="5.96732">
        <ele>1926</ele>
        <time>2026-07-14T10:27:07Z</time>
      </trkpt>
      <trkpt lat="45.19244" lon="5.96732">
        <ele>1926</ele>
        <time>2026-07-14T10:27:08Z</time>
      </trkpt>
      <trkpt lat="45.19244" lon="5.96732">
        <ele>1926</ele>
        <time>2026-07-14T10:27:09Z</time>
      </trkpt>
      <trkpt lat="45.19244" lon="5.96732">
        <ele>1926</ele>
        <time>2026-07-14T10:27:10Z</time>
      </trkpt>
      <trkpt lat="45.19244" lon="5.96732">
        <ele>1926</ele>
        <time>2026-07-14T10:27:11Z</time>
      </trkpt>
      <trkpt lat="45.19244" lon="5.96732">
        <ele>1926</ele>
        <time>2026-07-14T10:27:12Z</time>
      </trkpt>
      <trkpt lat="45.19244" lon="5.96732">
        <ele>1926</ele>
        <time>2026-07-14T10:27:13Z</time>
      </trkpt>
      <trkpt lat="45.19244" lon="5.96732">
        <ele>1926</ele>
        <time>2026-07-14T10:27:14Z</time>
      </trkpt>
      <trkpt lat="45.19244" lon="5.96732">
        <ele>1926</ele>
        <time>2026-07-14T10:27:15Z</time>
      </trkpt>
      <trkpt lat="45.19244" lon="5.96732">
        <ele>1926</ele>
        <time>2026-07-14T10:27:16Z</time>
      </trkpt>
      <trkpt lat="45.19244" lon="5.96732">
        <ele>1926</ele>
        <time>2026-07-14T10:27:17Z</time>
      </trkpt>
      <trkpt lat="45.19244" lon="5.96732">
        <ele>1926</ele>
        <time>2026-07-14T10:27:18Z</time>
      </trkpt>
      <trkpt lat="45.19244" lon="5.96732">
        <ele>1926</ele>
        <time>2026-07-14T10:27:19Z</time>
      </trkpt>
      <trkpt lat="45.19244" lon="5.96732">
        <ele>1926</ele>
        <time>2026-07-14T10:27:20Z</time>
      </trkpt>
      <trkpt lat="45.19244" lon="5.96732">
        <ele>1926</ele>
        <time>2026-07-14T10:27:21Z</time>
      </trkpt>
      <trkpt lat="45.19244" lon="5.96732">
        <ele>1926</ele>
        <time>2026-07-14T10:27:22Z</time>
      </trkpt>
      <trkpt lat="45.19244" lon="5.96732">
        <ele>1926</ele>
        <time>2026-07-14T10:27:23Z</time>
      </trkpt>
      <trkpt lat="45.19244" lon="5.96732">
        <ele>1926</ele>
        <time>2026-07-14T10:27:24Z</time>
      </trkpt>
      <trkpt lat="45.19244" lon="5.96732">
        <ele>1926</ele>
        <time>2026-07-14T10:27:25Z</time>
      </trkpt>
      <trkpt lat="45.19244" lon="5.96732">
        <ele>1926</ele>
        <time>2026-07-14T10:27:26Z</time>
      </trkpt>
      <trkpt lat="45.19244" lon="5.96732">
        <ele>1926</ele>
        <time>2026-07-14T10:27:27Z</time>
      </trkpt>
      <trkpt lat="45.19244" lon="5.96732">
        <ele>1926</ele>
        <time>2026-07-14T10:27:28Z</time>
      </trkpt>
      <trkpt lat="45.19244" lon="5.96732">
        <ele>1926</ele>
        <time>2026-07-14T10:27:29Z</time>
      </trkpt>
      <trkpt lat="45.19244" lon="5.96732">
        <ele>1926</ele>
        <time>2026-07-14T10:27:30Z</time>
      </trkpt>
      <trkpt lat="45.19244" lon="5.96732">
        <ele>1926</ele>
        <time>2026-07-14T10:27:31Z</time>
      </trkpt>
      <trkpt lat="45.19244" lon="5.96732">
        <ele>1926</ele>
        <time>2026-07-14T10:27:32Z</time>
      </trkpt>
      <trkpt lat="45.19244" lon="5.96732">
        <ele>1926</ele>
        <time>2026-07-14T10:27:33Z</time>
      </trkpt>
      <trkpt lat="45.19244" lon="5.96732">
        <ele>1926</ele>
        <time>2026-07-14T10:27:34Z</time>
      </trkpt>
      <trkpt lat="45.19244" lon="5.96732">
        <ele>1926</ele>
        <time>2026-07-14T10:27:35Z</time>
      </trkpt>
      <trkpt lat="45.19244" lon="5.96732">
        <ele>1926</ele>
        <time>2026-07-14T10:27:36Z</time>
      </trkpt>
      <trkpt lat="45.19244" lon="5.96732">
        <ele>1926</ele>
        <time>2026-07-14T10:27:37Z</time>
      </trkpt>
      <trkpt lat="45.19244" lon="5.96732">
        <ele>1926</ele>
        <time>2026-07-14T10:27:38Z</time>
      </trkpt>
      <trkpt lat="45.19244" lon="5.96732">
        <ele>1926</ele>
        <time>2026-07-14T10:27:39Z</time>
      </trkpt>
      <trkpt lat="45.19244" lon="5.96732">
        <ele>1926</ele>
        <time>2026-07-14T10:27:40Z</time>
      </trkpt>
      <trkpt lat="45.19244" lon="5.96732">
        <ele>1926</ele>
        <time>2026-07-14T10:27:41Z</time>
      </trkpt>
      <trkpt lat="45.19244" lon="5.96732">
        <ele>1926</ele>
        <time>2026-07-14T10:27:42Z</time>
      </trkpt>
      <trkpt lat="45.19244" lon="5.96732">
        <ele>1926</ele>
        <time>2026-07-14T10:27:43Z</time>
      </trkpt>
      <trkpt lat="45.19244" lon="5.96732">
        <ele>1926</ele>
        <time>2026-07-14T10:27:44Z</time>
      </trkpt>
      <trkpt lat="45.19244" lon="5.96732">
        <ele>1926</ele>
        <time>2026-07-14T10:27:46Z</time>
      </trkpt>
      <trkpt lat="45.19244" lon="5.96732">
        <ele>1926</ele>
        <time>2026-07-14T10:27:47Z</time>
      </trkpt>
      <trkpt lat="45.19244" lon="5.96732">
        <ele>1926</ele>
        <time>2026-07-14T10:27:48Z</time>
      </trkpt>
      <trkpt lat="45.19244" lon="5.96732">
        <ele>1926</ele>
        <time>2026-07-14T10:27:49Z</time>
      </trkpt>
      <trkpt lat="45.19244" lon="5.96732">
        <ele>1926</ele>
        <time>2026-07-14T10:27:50Z</time>
      </trkpt>
      <trkpt lat="45.19244" lon="5.96732">
        <ele>1926</ele>
        <time>2026-07-14T10:27:51Z</time>
      </trkpt>
      <trkpt lat="45.19244" lon="5.96732">
        <ele>1926</ele>
        <time>2026-07-14T10:27:52Z</time>
      </trkpt>
      <trkpt lat="45.19244" lon="5.96732">
        <ele>1926</ele>
        <time>2026-07-14T10:27:53Z</time>
      </trkpt>
      <trkpt lat="45.19244" lon="5.96732">
        <ele>1926</ele>
        <time>2026-07-14T10:27:54Z</time>
      </trkpt>
      <trkpt lat="45.19244" lon="5.96732">
        <ele>1926</ele>
        <time>2026-07-14T10:27:55Z</time>
      </trkpt>
      <trkpt lat="45.19244" lon="5.96732">
        <ele>1926</ele>
        <time>2026-07-14T10:27:56Z</time>
      </trkpt>
      <trkpt lat="45.19244" lon="5.96732">
        <ele>1926</ele>
        <time>2026-07-14T10:27:57Z</time>
      </trkpt>
      <trkpt lat="45.19244" lon="5.96732">
        <ele>1926</ele>
        <time>2026-07-14T10:27:58Z</time>
      </trkpt>
      <trkpt lat="45.19243" lon="5.96732">
        <ele>1926</ele>
        <time>2026-07-14T10:27:59Z</time>
      </trkpt>
      <trkpt lat="45.19243" lon="5.96732">
        <ele>1926</ele>
        <time>2026-07-14T10:28:00Z</time>
      </trkpt>
      <trkpt lat="45.19243" lon="5.96732">
        <ele>1926</ele>
        <time>2026-07-14T10:28:01Z</time>
      </trkpt>
      <trkpt lat="45.19243" lon="5.96732">
        <ele>1926</ele>
        <time>2026-07-14T10:28:02Z</time>
      </trkpt>
      <trkpt lat="45.19243" lon="5.96732">
        <ele>1926</ele>
        <time>2026-07-14T10:28:03Z</time>
      </trkpt>
      <trkpt lat="45.19243" lon="5.96732">
        <ele>1926</ele>
        <time>2026-07-14T10:28:04Z</time>
      </trkpt>
      <trkpt lat="45.19243" lon="5.96732">
        <ele>1926</ele>
        <time>2026-07-14T10:28:05Z</time>
      </trkpt>
      <trkpt lat="45.19243" lon="5.96732">
        <ele>1926</ele>
        <time>2026-07-14T10:28:06Z</time>
      </trkpt>
      <trkpt lat="45.19243" lon="5.96732">
        <ele>1926</ele>
        <time>2026-07-14T10:28:07Z</time>
      </trkpt>
      <trkpt lat="45.19244" lon="5.96732">
        <ele>1926</ele>
        <time>2026-07-14T10:28:08Z</time>
      </trkpt>
      <trkpt lat="45.19243" lon="5.96732">
        <ele>1926</ele>
        <time>2026-07-14T10:28:09Z</time>
      </trkpt>
      <trkpt lat="45.19243" lon="5.96732">
        <ele>1926</ele>
        <time>2026-07-14T10:28:10Z</time>
      </trkpt>
      <trkpt lat="45.19243" lon="5.96732">
        <ele>1926</ele>
        <time>2026-07-14T10:28:11Z</time>
      </trkpt>
      <trkpt lat="45.19244" lon="5.96732">
        <ele>1926</ele>
        <time>2026-07-14T10:28:12Z</time>
      </trkpt>
      <trkpt lat="45.19244" lon="5.96732">
        <ele>1926</ele>
        <time>2026-07-14T10:28:13Z</time>
      </trkpt>
      <trkpt lat="45.19244" lon="5.96732">
        <ele>1926</ele>
        <time>2026-07-14T10:28:14Z</time>
      </trkpt>
      <trkpt lat="45.19243" lon="5.96732">
        <ele>1926</ele>
        <time>2026-07-14T10:28:15Z</time>
      </trkpt>
      <trkpt lat="45.19244" lon="5.96732">
        <ele>1926</ele>
        <time>2026-07-14T10:28:16Z</time>
      </trkpt>
      <trkpt lat="45.19243" lon="5.96732">
        <ele>1926</ele>
        <time>2026-07-14T10:28:17Z</time>
      </trkpt>
      <trkpt lat="45.19243" lon="5.96732">
        <ele>1926</ele>
        <time>2026-07-14T10:28:18Z</time>
      </trkpt>
      <trkpt lat="45.19243" lon="5.96732">
        <ele>1926</ele>
        <time>2026-07-14T10:28:19Z</time>
      </trkpt>
      <trkpt lat="45.19243" lon="5.96732">
        <ele>1926</ele>
        <time>2026-07-14T10:28:20Z</time>
      </trkpt>
      <trkpt lat="45.19243" lon="5.96732">
        <ele>1926</ele>
        <time>2026-07-14T10:28:21Z</time>
      </trkpt>
      <trkpt lat="45.19243" lon="5.96732">
        <ele>1926</ele>
        <time>2026-07-14T10:28:22Z</time>
      </trkpt>
      <trkpt lat="45.19243" lon="5.96732">
        <ele>1926</ele>
        <time>2026-07-14T10:28:23Z</time>
      </trkpt>
      <trkpt lat="45.19243" lon="5.96732">
        <ele>1926</ele>
        <time>2026-07-14T10:28:24Z</time>
      </trkpt>
      <trkpt lat="45.19243" lon="5.96732">
        <ele>1926</ele>
        <time>2026-07-14T10:28:25Z</time>
      </trkpt>
      <trkpt lat="45.19243" lon="5.96732">
        <ele>1926</ele>
        <time>2026-07-14T10:28:26Z</time>
      </trkpt>
      <trkpt lat="45.19243" lon="5.96732">
        <ele>1926</ele>
        <time>2026-07-14T10:28:27Z</time>
      </trkpt>
      <trkpt lat="45.19243" lon="5.96732">
        <ele>1926</ele>
        <time>2026-07-14T10:28:28Z</time>
      </trkpt>
      <trkpt lat="45.19243" lon="5.96732">
        <ele>1926</ele>
        <time>2026-07-14T10:28:29Z</time>
      </trkpt>
      <trkpt lat="45.19243" lon="5.96732">
        <ele>1926</ele>
        <time>2026-07-14T10:28:30Z</time>
      </trkpt>
      <trkpt lat="45.19243" lon="5.96732">
        <ele>1926</ele>
        <time>2026-07-14T10:28:31Z</time>
      </trkpt>
      <trkpt lat="45.19243" lon="5.96732">
        <ele>1926</ele>
        <time>2026-07-14T10:28:32Z</time>
      </trkpt>
      <trkpt lat="45.19243" lon="5.96732">
        <ele>1926</ele>
        <time>2026-07-14T10:28:33Z</time>
      </trkpt>
      <trkpt lat="45.19243" lon="5.96732">
        <ele>1926</ele>
        <time>2026-07-14T10:28:35Z</time>
      </trkpt>
      <trkpt lat="45.19243" lon="5.96732">
        <ele>1926</ele>
        <time>2026-07-14T10:28:36Z</time>
      </trkpt>
      <trkpt lat="45.19244" lon="5.96732">
        <ele>1926</ele>
        <time>2026-07-14T10:28:37Z</time>
      </trkpt>
      <trkpt lat="45.19244" lon="5.96732">
        <ele>1926</ele>
        <time>2026-07-14T10:28:38Z</time>
      </trkpt>
      <trkpt lat="45.19244" lon="5.96732">
        <ele>1926</ele>
        <time>2026-07-14T10:28:39Z</time>
      </trkpt>
      <trkpt lat="45.19244" lon="5.96732">
        <ele>1926</ele>
        <time>2026-07-14T10:28:40Z</time>
      </trkpt>
      <trkpt lat="45.19244" lon="5.96732">
        <ele>1926</ele>
        <time>2026-07-14T10:28:41Z</time>
      </trkpt>
      <trkpt lat="45.19244" lon="5.96732">
        <ele>1926</ele>
        <time>2026-07-14T10:28:42Z</time>
      </trkpt>
      <trkpt lat="45.19244" lon="5.96732">
        <ele>1926</ele>
        <time>2026-07-14T10:28:43Z</time>
      </trkpt>
      <trkpt lat="45.19244" lon="5.96732">
        <ele>1926</ele>
        <time>2026-07-14T10:28:44Z</time>
      </trkpt>
      <trkpt lat="45.19244" lon="5.96732">
        <ele>1926</ele>
        <time>2026-07-14T10:28:45Z</time>
      </trkpt>
      <trkpt lat="45.19244" lon="5.96732">
        <ele>1926</ele>
        <time>2026-07-14T10:28:46Z</time>
      </trkpt>
      <trkpt lat="45.19244" lon="5.96732">
        <ele>1926</ele>
        <time>2026-07-14T10:28:47Z</time>
      </trkpt>
      <trkpt lat="45.19244" lon="5.96732">
        <ele>1926</ele>
        <time>2026-07-14T10:28:48Z</time>
      </trkpt>
      <trkpt lat="45.19244" lon="5.96732">
        <ele>1926</ele>
        <time>2026-07-14T10:28:49Z</time>
      </trkpt>
      <trkpt lat="45.19244" lon="5.96732">
        <ele>1926</ele>
        <time>2026-07-14T10:28:50Z</time>
      </trkpt>
      <trkpt lat="45.19244" lon="5.96732">
        <ele>1926</ele>
        <time>2026-07-14T10:28:51Z</time>
      </trkpt>
      <trkpt lat="45.19244" lon="5.96732">
        <ele>1926</ele>
        <time>2026-07-14T10:28:52Z</time>
      </trkpt>
      <trkpt lat="45.19243" lon="5.96732">
        <ele>1926</ele>
        <time>2026-07-14T10:28:53Z</time>
      </trkpt>
      <trkpt lat="45.19243" lon="5.96732">
        <ele>1926</ele>
        <time>2026-07-14T10:28:54Z</time>
      </trkpt>
      <trkpt lat="45.19243" lon="5.96732">
        <ele>1926</ele>
        <time>2026-07-14T10:28:55Z</time>
      </trkpt>
      <trkpt lat="45.19243" lon="5.96732">
        <ele>1926</ele>
        <time>2026-07-14T10:28:56Z</time>
      </trkpt>
      <trkpt lat="45.19243" lon="5.96732">
        <ele>1926</ele>
        <time>2026-07-14T10:28:57Z</time>
      </trkpt>
      <trkpt lat="45.19243" lon="5.96732">
        <ele>1926</ele>
        <time>2026-07-14T10:28:58Z</time>
      </trkpt>
      <trkpt lat="45.19243" lon="5.96732">
        <ele>1926</ele>
        <time>2026-07-14T10:28:59Z</time>
      </trkpt>
      <trkpt lat="45.19243" lon="5.96732">
        <ele>1926</ele>
        <time>2026-07-14T10:29:00Z</time>
      </trkpt>
      <trkpt lat="45.19243" lon="5.96732">
        <ele>1926</ele>
        <time>2026-07-14T10:29:01Z</time>
      </trkpt>
      <trkpt lat="45.19243" lon="5.96732">
        <ele>1926</ele>
        <time>2026-07-14T10:29:02Z</time>
      </trkpt>
      <trkpt lat="45.19243" lon="5.96732">
        <ele>1926</ele>
        <time>2026-07-14T10:29:03Z</time>
      </trkpt>
      <trkpt lat="45.19244" lon="5.96732">
        <ele>1926</ele>
        <time>2026-07-14T10:29:04Z</time>
      </trkpt>
      <trkpt lat="45.19244" lon="5.96732">
        <ele>1926</ele>
        <time>2026-07-14T10:29:05Z</time>
      </trkpt>
      <trkpt lat="45.19244" lon="5.96731">
        <ele>1926</ele>
        <time>2026-07-14T10:29:06Z</time>
      </trkpt>
      <trkpt lat="45.19244" lon="5.96731">
        <ele>1926</ele>
        <time>2026-07-14T10:29:07Z</time>
      </trkpt>
      <trkpt lat="45.19244" lon="5.96731">
        <ele>1926</ele>
        <time>2026-07-14T10:29:08Z</time>
      </trkpt>
      <trkpt lat="45.19244" lon="5.96731">
        <ele>1926</ele>
        <time>2026-07-14T10:29:09Z</time>
      </trkpt>
      <trkpt lat="45.19244" lon="5.96731">
        <ele>1926</ele>
        <time>2026-07-14T10:29:10Z</time>
      </trkpt>
      <trkpt lat="45.19244" lon="5.96731">
        <ele>1926</ele>
        <time>2026-07-14T10:29:11Z</time>
      </trkpt>
      <trkpt lat="45.19244" lon="5.96731">
        <ele>1926</ele>
        <time>2026-07-14T10:29:12Z</time>
      </trkpt>
      <trkpt lat="45.19244" lon="5.96731">
        <ele>1926</ele>
        <time>2026-07-14T10:29:13Z</time>
      </trkpt>
      <trkpt lat="45.19244" lon="5.96731">
        <ele>1926</ele>
        <time>2026-07-14T10:29:14Z</time>
      </trkpt>
      <trkpt lat="45.19244" lon="5.96731">
        <ele>1926</ele>
        <time>2026-07-14T10:29:15Z</time>
      </trkpt>
      <trkpt lat="45.19244" lon="5.96731">
        <ele>1926</ele>
        <time>2026-07-14T10:29:16Z</time>
      </trkpt>
      <trkpt lat="45.19244" lon="5.96731">
        <ele>1926</ele>
        <time>2026-07-14T10:29:17Z</time>
      </trkpt>
      <trkpt lat="45.19244" lon="5.96731">
        <ele>1926</ele>
        <time>2026-07-14T10:29:18Z</time>
      </trkpt>
      <trkpt lat="45.19244" lon="5.96731">
        <ele>1926</ele>
        <time>2026-07-14T10:29:19Z</time>
      </trkpt>
      <trkpt lat="45.19244" lon="5.96731">
        <ele>1926</ele>
        <time>2026-07-14T10:29:20Z</time>
      </trkpt>
      <trkpt lat="45.19244" lon="5.96731">
        <ele>1926</ele>
        <time>2026-07-14T10:29:21Z</time>
      </trkpt>
      <trkpt lat="45.19244" lon="5.96731">
        <ele>1926</ele>
        <time>2026-07-14T10:29:22Z</time>
      </trkpt>
      <trkpt lat="45.19244" lon="5.96731">
        <ele>1926</ele>
        <time>2026-07-14T10:29:23Z</time>
      </trkpt>
      <trkpt lat="45.19244" lon="5.96731">
        <ele>1926</ele>
        <time>2026-07-14T10:29:24Z</time>
      </trkpt>
      <trkpt lat="45.19244" lon="5.96731">
        <ele>1926</ele>
        <time>2026-07-14T10:29:25Z</time>
      </trkpt>
      <trkpt lat="45.19244" lon="5.96731">
        <ele>1926</ele>
        <time>2026-07-14T10:29:26Z</time>
      </trkpt>
      <trkpt lat="45.19244" lon="5.96731">
        <ele>1926</ele>
        <time>2026-07-14T10:29:27Z</time>
      </trkpt>
      <trkpt lat="45.19244" lon="5.96731">
        <ele>1926</ele>
        <time>2026-07-14T10:29:28Z</time>
      </trkpt>
      <trkpt lat="45.19244" lon="5.96731">
        <ele>1926</ele>
        <time>2026-07-14T10:29:29Z</time>
      </trkpt>
      <trkpt lat="45.19244" lon="5.96731">
        <ele>1926</ele>
        <time>2026-07-14T10:29:30Z</time>
      </trkpt>
      <trkpt lat="45.19244" lon="5.96731">
        <ele>1926</ele>
        <time>2026-07-14T10:29:31Z</time>
      </trkpt>
      <trkpt lat="45.19244" lon="5.96731">
        <ele>1926</ele>
        <time>2026-07-14T10:29:32Z</time>
      </trkpt>
      <trkpt lat="45.19244" lon="5.96731">
        <ele>1926</ele>
        <time>2026-07-14T10:29:33Z</time>
      </trkpt>
      <trkpt lat="45.19244" lon="5.96731">
        <ele>1926</ele>
        <time>2026-07-14T10:29:34Z</time>
      </trkpt>
      <trkpt lat="45.19244" lon="5.96731">
        <ele>1926</ele>
        <time>2026-07-14T10:29:35Z</time>
      </trkpt>
      <trkpt lat="45.19244" lon="5.96731">
        <ele>1926</ele>
        <time>2026-07-14T10:29:36Z</time>
      </trkpt>
      <trkpt lat="45.19244" lon="5.96731">
        <ele>1926</ele>
        <time>2026-07-14T10:29:37Z</time>
      </trkpt>
      <trkpt lat="45.19244" lon="5.96731">
        <ele>1926</ele>
        <time>2026-07-14T10:29:38Z</time>
      </trkpt>
      <trkpt lat="45.19244" lon="5.96731">
        <ele>1926</ele>
        <time>2026-07-14T10:29:39Z</time>
      </trkpt>
      <trkpt lat="45.19244" lon="5.96731">
        <ele>1926</ele>
        <time>2026-07-14T10:29:40Z</time>
      </trkpt>
      <trkpt lat="45.19244" lon="5.96731">
        <ele>1926</ele>
        <time>2026-07-14T10:29:41Z</time>
      </trkpt>
      <trkpt lat="45.19244" lon="5.96731">
        <ele>1926</ele>
        <time>2026-07-14T10:29:42Z</time>
      </trkpt>
      <trkpt lat="45.19244" lon="5.96731">
        <ele>1926</ele>
        <time>2026-07-14T10:29:43Z</time>
      </trkpt>
      <trkpt lat="45.19244" lon="5.96731">
        <ele>1926</ele>
        <time>2026-07-14T10:29:44Z</time>
      </trkpt>
      <trkpt lat="45.19244" lon="5.96731">
        <ele>1926</ele>
        <time>2026-07-14T10:29:45Z</time>
      </trkpt>
      <trkpt lat="45.19244" lon="5.96731">
        <ele>1926</ele>
        <time>2026-07-14T10:29:46Z</time>
      </trkpt>
      <trkpt lat="45.19244" lon="5.96731">
        <ele>1926</ele>
        <time>2026-07-14T10:29:47Z</time>
      </trkpt>
      <trkpt lat="45.19244" lon="5.96731">
        <ele>1926</ele>
        <time>2026-07-14T10:29:48Z</time>
      </trkpt>
      <trkpt lat="45.19244" lon="5.96731">
        <ele>1926</ele>
        <time>2026-07-14T10:29:49Z</time>
      </trkpt>
      <trkpt lat="45.19244" lon="5.96731">
        <ele>1926</ele>
        <time>2026-07-14T10:29:50Z</time>
      </trkpt>
      <trkpt lat="45.19244" lon="5.96732">
        <ele>1926</ele>
        <time>2026-07-14T10:29:51Z</time>
      </trkpt>
      <trkpt lat="45.19244" lon="5.96732">
        <ele>1926</ele>
        <time>2026-07-14T10:29:52Z</time>
      </trkpt>
      <trkpt lat="45.19244" lon="5.96732">
        <ele>1926</ele>
        <time>2026-07-14T10:29:54Z</time>
      </trkpt>
      <trkpt lat="45.19244" lon="5.96732">
        <ele>1926</ele>
        <time>2026-07-14T10:29:56Z</time>
      </trkpt>
      <trkpt lat="45.19244" lon="5.96732">
        <ele>1926</ele>
        <time>2026-07-14T10:29:57Z</time>
      </trkpt>
      <trkpt lat="45.19244" lon="5.96732">
        <ele>1926</ele>
        <time>2026-07-14T10:29:58Z</time>
      </trkpt>
      <trkpt lat="45.19244" lon="5.96732">
        <ele>1926</ele>
        <time>2026-07-14T10:29:59Z</time>
      </trkpt>
      <trkpt lat="45.19244" lon="5.96732">
        <ele>1926</ele>
        <time>2026-07-14T10:30:00Z</time>
      </trkpt>
      <trkpt lat="45.19244" lon="5.96732">
        <ele>1926</ele>
        <time>2026-07-14T10:30:01Z</time>
      </trkpt>
      <trkpt lat="45.19244" lon="5.96732">
        <ele>1926</ele>
        <time>2026-07-14T10:30:02Z</time>
      </trkpt>
      <trkpt lat="45.19244" lon="5.96732">
        <ele>1926</ele>
        <time>2026-07-14T10:30:03Z</time>
      </trkpt>
      <trkpt lat="45.19244" lon="5.96732">
        <ele>1926</ele>
        <time>2026-07-14T10:30:04Z</time>
      </trkpt>
      <trkpt lat="45.19244" lon="5.96732">
        <ele>1926</ele>
        <time>2026-07-14T10:30:05Z</time>
      </trkpt>
      <trkpt lat="45.19244" lon="5.96732">
        <ele>1926</ele>
        <time>2026-07-14T10:30:06Z</time>
      </trkpt>
      <trkpt lat="45.19244" lon="5.96732">
        <ele>1926</ele>
        <time>2026-07-14T10:30:07Z</time>
      </trkpt>
      <trkpt lat="45.19244" lon="5.96732">
        <ele>1926</ele>
        <time>2026-07-14T10:30:08Z</time>
      </trkpt>
      <trkpt lat="45.19244" lon="5.96732">
        <ele>1926</ele>
        <time>2026-07-14T10:30:09Z</time>
      </trkpt>
      <trkpt lat="45.19244" lon="5.96732">
        <ele>1926</ele>
        <time>2026-07-14T10:30:10Z</time>
      </trkpt>
      <trkpt lat="45.19244" lon="5.96732">
        <ele>1926</ele>
        <time>2026-07-14T10:30:11Z</time>
      </trkpt>
      <trkpt lat="45.19244" lon="5.96732">
        <ele>1926</ele>
        <time>2026-07-14T10:30:12Z</time>
      </trkpt>
      <trkpt lat="45.19244" lon="5.96732">
        <ele>1926</ele>
        <time>2026-07-14T10:30:13Z</time>
      </trkpt>
      <trkpt lat="45.19244" lon="5.96732">
        <ele>1926</ele>
        <time>2026-07-14T10:30:14Z</time>
      </trkpt>
      <trkpt lat="45.19244" lon="5.96732">
        <ele>1926</ele>
        <time>2026-07-14T10:30:15Z</time>
      </trkpt>
      <trkpt lat="45.19244" lon="5.96732">
        <ele>1926</ele>
        <time>2026-07-14T10:30:16Z</time>
      </trkpt>
      <trkpt lat="45.19244" lon="5.96732">
        <ele>1926</ele>
        <time>2026-07-14T10:30:17Z</time>
      </trkpt>
      <trkpt lat="45.19244" lon="5.96732">
        <ele>1926</ele>
        <time>2026-07-14T10:30:18Z</time>
      </trkpt>
      <trkpt lat="45.19244" lon="5.96732">
        <ele>1926</ele>
        <time>2026-07-14T10:30:19Z</time>
      </trkpt>
      <trkpt lat="45.19244" lon="5.96732">
        <ele>1926</ele>
        <time>2026-07-14T10:30:20Z</time>
      </trkpt>
      <trkpt lat="45.19244" lon="5.96732">
        <ele>1926</ele>
        <time>2026-07-14T10:30:21Z</time>
      </trkpt>
      <trkpt lat="45.19244" lon="5.96732">
        <ele>1926</ele>
        <time>2026-07-14T10:30:22Z</time>
      </trkpt>
      <trkpt lat="45.19244" lon="5.96732">
        <ele>1926</ele>
        <time>2026-07-14T10:30:23Z</time>
      </trkpt>
      <trkpt lat="45.19244" lon="5.96732">
        <ele>1926</ele>
        <time>2026-07-14T10:30:24Z</time>
      </trkpt>
      <trkpt lat="45.19244" lon="5.96732">
        <ele>1926</ele>
        <time>2026-07-14T10:30:25Z</time>
      </trkpt>
      <trkpt lat="45.19244" lon="5.96732">
        <ele>1926</ele>
        <time>2026-07-14T10:30:26Z</time>
      </trkpt>
      <trkpt lat="45.19244" lon="5.96732">
        <ele>1926</ele>
        <time>2026-07-14T10:30:27Z</time>
      </trkpt>
      <trkpt lat="45.19244" lon="5.96732">
        <ele>1926</ele>
        <time>2026-07-14T10:30:28Z</time>
      </trkpt>
      <trkpt lat="45.19244" lon="5.96732">
        <ele>1926</ele>
        <time>2026-07-14T10:30:30Z</time>
      </trkpt>
      <trkpt lat="45.19244" lon="5.96732">
        <ele>1926</ele>
        <time>2026-07-14T10:30:31Z</time>
      </trkpt>
      <trkpt lat="45.19244" lon="5.96732">
        <ele>1926</ele>
        <time>2026-07-14T10:30:32Z</time>
      </trkpt>
      <trkpt lat="45.19244" lon="5.96732">
        <ele>1926</ele>
        <time>2026-07-14T10:30:33Z</time>
      </trkpt>
      <trkpt lat="45.19244" lon="5.96732">
        <ele>1926</ele>
        <time>2026-07-14T10:30:34Z</time>
      </trkpt>
      <trkpt lat="45.19244" lon="5.96732">
        <ele>1926</ele>
        <time>2026-07-14T10:30:35Z</time>
      </trkpt>
      <trkpt lat="45.19244" lon="5.96732">
        <ele>1926</ele>
        <time>2026-07-14T10:30:36Z</time>
      </trkpt>
      <trkpt lat="45.19244" lon="5.96732">
        <ele>1926</ele>
        <time>2026-07-14T10:30:37Z</time>
      </trkpt>
      <trkpt lat="45.19244" lon="5.96732">
        <ele>1926</ele>
        <time>2026-07-14T10:30:38Z</time>
      </trkpt>
      <trkpt lat="45.19244" lon="5.96732">
        <ele>1926</ele>
        <time>2026-07-14T10:30:39Z</time>
      </trkpt>
      <trkpt lat="45.19244" lon="5.96731">
        <ele>1926</ele>
        <time>2026-07-14T10:30:40Z</time>
      </trkpt>
      <trkpt lat="45.19244" lon="5.96731">
        <ele>1926</ele>
        <time>2026-07-14T10:30:41Z</time>
      </trkpt>
      <trkpt lat="45.19244" lon="5.96731">
        <ele>1926</ele>
        <time>2026-07-14T10:30:42Z</time>
      </trkpt>
      <trkpt lat="45.19244" lon="5.96731">
        <ele>1926</ele>
        <time>2026-07-14T10:30:43Z</time>
      </trkpt>
      <trkpt lat="45.19244" lon="5.96731">
        <ele>1926</ele>
        <time>2026-07-14T10:30:44Z</time>
      </trkpt>
      <trkpt lat="45.19244" lon="5.96731">
        <ele>1926</ele>
        <time>2026-07-14T10:30:45Z</time>
      </trkpt>
      <trkpt lat="45.19244" lon="5.96731">
        <ele>1926</ele>
        <time>2026-07-14T10:30:46Z</time>
      </trkpt>
      <trkpt lat="45.19244" lon="5.96731">
        <ele>1926</ele>
        <time>2026-07-14T10:30:47Z</time>
      </trkpt>
      <trkpt lat="45.19244" lon="5.96731">
        <ele>1926</ele>
        <time>2026-07-14T10:30:48Z</time>
      </trkpt>
      <trkpt lat="45.19244" lon="5.96731">
        <ele>1926</ele>
        <time>2026-07-14T10:30:49Z</time>
      </trkpt>
      <trkpt lat="45.19244" lon="5.96731">
        <ele>1926</ele>
        <time>2026-07-14T10:30:50Z</time>
      </trkpt>
      <trkpt lat="45.19244" lon="5.96731">
        <ele>1926</ele>
        <time>2026-07-14T10:30:51Z</time>
      </trkpt>
      <trkpt lat="45.19244" lon="5.96731">
        <ele>1926</ele>
        <time>2026-07-14T10:30:52Z</time>
      </trkpt>
      <trkpt lat="45.19244" lon="5.96731">
        <ele>1926</ele>
        <time>2026-07-14T10:30:53Z</time>
      </trkpt>
      <trkpt lat="45.19244" lon="5.96731">
        <ele>1926</ele>
        <time>2026-07-14T10:30:54Z</time>
      </trkpt>
      <trkpt lat="45.19244" lon="5.96731">
        <ele>1926</ele>
        <time>2026-07-14T10:30:55Z</time>
      </trkpt>
      <trkpt lat="45.19244" lon="5.96731">
        <ele>1926</ele>
        <time>2026-07-14T10:30:56Z</time>
      </trkpt>
      <trkpt lat="45.19244" lon="5.96731">
        <ele>1926</ele>
        <time>2026-07-14T10:30:57Z</time>
      </trkpt>
      <trkpt lat="45.19244" lon="5.96731">
        <ele>1926</ele>
        <time>2026-07-14T10:30:58Z</time>
      </trkpt>
      <trkpt lat="45.19244" lon="5.96731">
        <ele>1926</ele>
        <time>2026-07-14T10:30:59Z</time>
      </trkpt>
      <trkpt lat="45.19244" lon="5.96731">
        <ele>1926</ele>
        <time>2026-07-14T10:31:00Z</time>
      </trkpt>
      <trkpt lat="45.19244" lon="5.96731">
        <ele>1926</ele>
        <time>2026-07-14T10:31:01Z</time>
      </trkpt>
      <trkpt lat="45.19244" lon="5.96731">
        <ele>1926</ele>
        <time>2026-07-14T10:31:02Z</time>
      </trkpt>
      <trkpt lat="45.19244" lon="5.96731">
        <ele>1926</ele>
        <time>2026-07-14T10:31:03Z</time>
      </trkpt>
      <trkpt lat="45.19244" lon="5.96731">
        <ele>1926</ele>
        <time>2026-07-14T10:31:04Z</time>
      </trkpt>
      <trkpt lat="45.19244" lon="5.96731">
        <ele>1926</ele>
        <time>2026-07-14T10:31:05Z</time>
      </trkpt>
      <trkpt lat="45.19244" lon="5.96731">
        <ele>1926</ele>
        <time>2026-07-14T10:31:06Z</time>
      </trkpt>
      <trkpt lat="45.19244" lon="5.96731">
        <ele>1926</ele>
        <time>2026-07-14T10:31:07Z</time>
      </trkpt>
      <trkpt lat="45.19244" lon="5.96731">
        <ele>1926</ele>
        <time>2026-07-14T10:31:08Z</time>
      </trkpt>
      <trkpt lat="45.19244" lon="5.96731">
        <ele>1926</ele>
        <time>2026-07-14T10:31:09Z</time>
      </trkpt>
      <trkpt lat="45.19244" lon="5.96731">
        <ele>1926</ele>
        <time>2026-07-14T10:31:10Z</time>
      </trkpt>
      <trkpt lat="45.19244" lon="5.96731">
        <ele>1926</ele>
        <time>2026-07-14T10:31:11Z</time>
      </trkpt>
      <trkpt lat="45.19244" lon="5.96731">
        <ele>1926</ele>
        <time>2026-07-14T10:31:12Z</time>
      </trkpt>
      <trkpt lat="45.19244" lon="5.96731">
        <ele>1926</ele>
        <time>2026-07-14T10:31:13Z</time>
      </trkpt>
      <trkpt lat="45.19244" lon="5.96731">
        <ele>1926</ele>
        <time>2026-07-14T10:31:14Z</time>
      </trkpt>
      <trkpt lat="45.19244" lon="5.96731">
        <ele>1926</ele>
        <time>2026-07-14T10:31:15Z</time>
      </trkpt>
      <trkpt lat="45.19244" lon="5.96731">
        <ele>1926</ele>
        <time>2026-07-14T10:31:16Z</time>
      </trkpt>
      <trkpt lat="45.19244" lon="5.96731">
        <ele>1926</ele>
        <time>2026-07-14T10:31:17Z</time>
      </trkpt>
      <trkpt lat="45.19244" lon="5.96731">
        <ele>1926</ele>
        <time>2026-07-14T10:31:18Z</time>
      </trkpt>
      <trkpt lat="45.19244" lon="5.96731">
        <ele>1926</ele>
        <time>2026-07-14T10:31:19Z</time>
      </trkpt>
      <trkpt lat="45.19244" lon="5.96731">
        <ele>1926</ele>
        <time>2026-07-14T10:31:20Z</time>
      </trkpt>
      <trkpt lat="45.19244" lon="5.96731">
        <ele>1926</ele>
        <time>2026-07-14T10:31:21Z</time>
      </trkpt>
      <trkpt lat="45.19244" lon="5.96731">
        <ele>1926</ele>
        <time>2026-07-14T10:31:22Z</time>
      </trkpt>
      <trkpt lat="45.19244" lon="5.96731">
        <ele>1926</ele>
        <time>2026-07-14T10:31:23Z</time>
      </trkpt>
      <trkpt lat="45.19244" lon="5.96731">
        <ele>1926</ele>
        <time>2026-07-14T10:31:24Z</time>
      </trkpt>
      <trkpt lat="45.19244" lon="5.96731">
        <ele>1926</ele>
        <time>2026-07-14T10:31:25Z</time>
      </trkpt>
      <trkpt lat="45.19244" lon="5.96731">
        <ele>1926</ele>
        <time>2026-07-14T10:31:26Z</time>
      </trkpt>
      <trkpt lat="45.19244" lon="5.96731">
        <ele>1926</ele>
        <time>2026-07-14T10:31:27Z</time>
      </trkpt>
      <trkpt lat="45.19244" lon="5.96731">
        <ele>1926</ele>
        <time>2026-07-14T10:31:28Z</time>
      </trkpt>
      <trkpt lat="45.19244" lon="5.96731">
        <ele>1926</ele>
        <time>2026-07-14T10:31:29Z</time>
      </trkpt>
      <trkpt lat="45.19244" lon="5.96731">
        <ele>1926</ele>
        <time>2026-07-14T10:31:30Z</time>
      </trkpt>
      <trkpt lat="45.19244" lon="5.96731">
        <ele>1926</ele>
        <time>2026-07-14T10:31:31Z</time>
      </trkpt>
      <trkpt lat="45.19244" lon="5.96731">
        <ele>1926</ele>
        <time>2026-07-14T10:31:32Z</time>
      </trkpt>
      <trkpt lat="45.19244" lon="5.96731">
        <ele>1926</ele>
        <time>2026-07-14T10:31:33Z</time>
      </trkpt>
      <trkpt lat="45.19244" lon="5.96731">
        <ele>1926</ele>
        <time>2026-07-14T10:31:34Z</time>
      </trkpt>
      <trkpt lat="45.19244" lon="5.96731">
        <ele>1926</ele>
        <time>2026-07-14T10:31:35Z</time>
      </trkpt>
      <trkpt lat="45.19244" lon="5.96731">
        <ele>1926</ele>
        <time>2026-07-14T10:31:37Z</time>
      </trkpt>
      <trkpt lat="45.19244" lon="5.96731">
        <ele>1926</ele>
        <time>2026-07-14T10:31:38Z</time>
      </trkpt>
      <trkpt lat="45.19244" lon="5.96731">
        <ele>1926</ele>
        <time>2026-07-14T10:31:39Z</time>
      </trkpt>
      <trkpt lat="45.19244" lon="5.96731">
        <ele>1926</ele>
        <time>2026-07-14T10:31:40Z</time>
      </trkpt>
      <trkpt lat="45.19244" lon="5.96731">
        <ele>1926</ele>
        <time>2026-07-14T10:31:41Z</time>
      </trkpt>
      <trkpt lat="45.19244" lon="5.96731">
        <ele>1926</ele>
        <time>2026-07-14T10:31:42Z</time>
      </trkpt>
      <trkpt lat="45.19244" lon="5.96731">
        <ele>1926</ele>
        <time>2026-07-14T10:31:43Z</time>
      </trkpt>
      <trkpt lat="45.19244" lon="5.96731">
        <ele>1926</ele>
        <time>2026-07-14T10:31:44Z</time>
      </trkpt>
      <trkpt lat="45.19244" lon="5.96731">
        <ele>1926</ele>
        <time>2026-07-14T10:31:45Z</time>
      </trkpt>
      <trkpt lat="45.19244" lon="5.96731">
        <ele>1926</ele>
        <time>2026-07-14T10:31:46Z</time>
      </trkpt>
      <trkpt lat="45.19244" lon="5.96731">
        <ele>1926</ele>
        <time>2026-07-14T10:31:47Z</time>
      </trkpt>
      <trkpt lat="45.19244" lon="5.96731">
        <ele>1926</ele>
        <time>2026-07-14T10:31:48Z</time>
      </trkpt>
      <trkpt lat="45.19244" lon="5.96731">
        <ele>1926</ele>
        <time>2026-07-14T10:31:49Z</time>
      </trkpt>
      <trkpt lat="45.19244" lon="5.96731">
        <ele>1926</ele>
        <time>2026-07-14T10:31:50Z</time>
      </trkpt>
      <trkpt lat="45.19244" lon="5.96731">
        <ele>1926</ele>
        <time>2026-07-14T10:31:51Z</time>
      </trkpt>
      <trkpt lat="45.19244" lon="5.96731">
        <ele>1926</ele>
        <time>2026-07-14T10:31:52Z</time>
      </trkpt>
      <trkpt lat="45.19244" lon="5.96731">
        <ele>1926</ele>
        <time>2026-07-14T10:31:53Z</time>
      </trkpt>
      <trkpt lat="45.19244" lon="5.96731">
        <ele>1926</ele>
        <time>2026-07-14T10:31:54Z</time>
      </trkpt>
      <trkpt lat="45.19244" lon="5.96731">
        <ele>1926</ele>
        <time>2026-07-14T10:31:55Z</time>
      </trkpt>
      <trkpt lat="45.19244" lon="5.96731">
        <ele>1926</ele>
        <time>2026-07-14T10:31:56Z</time>
      </trkpt>
      <trkpt lat="45.19244" lon="5.96731">
        <ele>1926</ele>
        <time>2026-07-14T10:31:57Z</time>
      </trkpt>
      <trkpt lat="45.19244" lon="5.96731">
        <ele>1926</ele>
        <time>2026-07-14T10:31:58Z</time>
      </trkpt>
      <trkpt lat="45.19244" lon="5.96731">
        <ele>1926</ele>
        <time>2026-07-14T10:31:59Z</time>
      </trkpt>
      <trkpt lat="45.19244" lon="5.96731">
        <ele>1926</ele>
        <time>2026-07-14T10:32:00Z</time>
      </trkpt>
      <trkpt lat="45.19244" lon="5.96731">
        <ele>1926</ele>
        <time>2026-07-14T10:32:01Z</time>
      </trkpt>
      <trkpt lat="45.19244" lon="5.96731">
        <ele>1926</ele>
        <time>2026-07-14T10:32:02Z</time>
      </trkpt>
      <trkpt lat="45.19244" lon="5.96731">
        <ele>1926</ele>
        <time>2026-07-14T10:32:03Z</time>
      </trkpt>
      <trkpt lat="45.19244" lon="5.96731">
        <ele>1926</ele>
        <time>2026-07-14T10:32:04Z</time>
      </trkpt>
      <trkpt lat="45.19244" lon="5.96731">
        <ele>1926</ele>
        <time>2026-07-14T10:32:05Z</time>
      </trkpt>
      <trkpt lat="45.19244" lon="5.96731">
        <ele>1926</ele>
        <time>2026-07-14T10:32:06Z</time>
      </trkpt>
      <trkpt lat="45.19244" lon="5.96731">
        <ele>1926</ele>
        <time>2026-07-14T10:32:07Z</time>
      </trkpt>
      <trkpt lat="45.19244" lon="5.96731">
        <ele>1926</ele>
        <time>2026-07-14T10:32:08Z</time>
      </trkpt>
      <trkpt lat="45.19244" lon="5.96731">
        <ele>1926</ele>
        <time>2026-07-14T10:32:09Z</time>
      </trkpt>
      <trkpt lat="45.19244" lon="5.96731">
        <ele>1926</ele>
        <time>2026-07-14T10:32:10Z</time>
      </trkpt>
      <trkpt lat="45.19244" lon="5.96731">
        <ele>1926</ele>
        <time>2026-07-14T10:32:11Z</time>
      </trkpt>
      <trkpt lat="45.19244" lon="5.96731">
        <ele>1926</ele>
        <time>2026-07-14T10:32:12Z</time>
      </trkpt>
      <trkpt lat="45.19244" lon="5.96731">
        <ele>1926</ele>
        <time>2026-07-14T10:32:13Z</time>
      </trkpt>
      <trkpt lat="45.19244" lon="5.96731">
        <ele>1926</ele>
        <time>2026-07-14T10:32:14Z</time>
      </trkpt>
      <trkpt lat="45.19244" lon="5.96731">
        <ele>1926</ele>
        <time>2026-07-14T10:32:15Z</time>
      </trkpt>
      <trkpt lat="45.19244" lon="5.96731">
        <ele>1926</ele>
        <time>2026-07-14T10:32:16Z</time>
      </trkpt>
      <trkpt lat="45.19244" lon="5.96731">
        <ele>1926</ele>
        <time>2026-07-14T10:32:17Z</time>
      </trkpt>
      <trkpt lat="45.19244" lon="5.96731">
        <ele>1926</ele>
        <time>2026-07-14T10:32:18Z</time>
      </trkpt>
      <trkpt lat="45.19244" lon="5.96731">
        <ele>1926</ele>
        <time>2026-07-14T10:32:19Z</time>
      </trkpt>
      <trkpt lat="45.19244" lon="5.96731">
        <ele>1926</ele>
        <time>2026-07-14T10:32:20Z</time>
      </trkpt>
      <trkpt lat="45.19244" lon="5.96731">
        <ele>1926</ele>
        <time>2026-07-14T10:32:21Z</time>
      </trkpt>
      <trkpt lat="45.19244" lon="5.96731">
        <ele>1926</ele>
        <time>2026-07-14T10:32:22Z</time>
      </trkpt>
      <trkpt lat="45.19244" lon="5.96731">
        <ele>1926</ele>
        <time>2026-07-14T10:32:23Z</time>
      </trkpt>
      <trkpt lat="45.19244" lon="5.96731">
        <ele>1926</ele>
        <time>2026-07-14T10:32:24Z</time>
      </trkpt>
      <trkpt lat="45.19244" lon="5.96731">
        <ele>1926</ele>
        <time>2026-07-14T10:32:25Z</time>
      </trkpt>
      <trkpt lat="45.19244" lon="5.96731">
        <ele>1926</ele>
        <time>2026-07-14T10:32:26Z</time>
      </trkpt>
      <trkpt lat="45.19244" lon="5.96731">
        <ele>1926</ele>
        <time>2026-07-14T10:32:27Z</time>
      </trkpt>
      <trkpt lat="45.19244" lon="5.96731">
        <ele>1926</ele>
        <time>2026-07-14T10:32:28Z</time>
      </trkpt>
      <trkpt lat="45.19244" lon="5.96731">
        <ele>1926</ele>
        <time>2026-07-14T10:32:29Z</time>
      </trkpt>
      <trkpt lat="45.19244" lon="5.96731">
        <ele>1926</ele>
        <time>2026-07-14T10:32:30Z</time>
      </trkpt>
      <trkpt lat="45.19244" lon="5.96731">
        <ele>1926</ele>
        <time>2026-07-14T10:32:31Z</time>
      </trkpt>
      <trkpt lat="45.19244" lon="5.96731">
        <ele>1926</ele>
        <time>2026-07-14T10:32:32Z</time>
      </trkpt>
      <trkpt lat="45.19244" lon="5.96731">
        <ele>1926</ele>
        <time>2026-07-14T10:32:33Z</time>
      </trkpt>
      <trkpt lat="45.19244" lon="5.96731">
        <ele>1926</ele>
        <time>2026-07-14T10:32:34Z</time>
      </trkpt>
      <trkpt lat="45.19244" lon="5.96731">
        <ele>1926</ele>
        <time>2026-07-14T10:32:35Z</time>
      </trkpt>
      <trkpt lat="45.19244" lon="5.96731">
        <ele>1926</ele>
        <time>2026-07-14T10:32:36Z</time>
      </trkpt>
      <trkpt lat="45.19244" lon="5.96731">
        <ele>1926</ele>
        <time>2026-07-14T10:32:37Z</time>
      </trkpt>
      <trkpt lat="45.19244" lon="5.96731">
        <ele>1926</ele>
        <time>2026-07-14T10:32:38Z</time>
      </trkpt>
      <trkpt lat="45.19244" lon="5.96731">
        <ele>1926</ele>
        <time>2026-07-14T10:32:39Z</time>
      </trkpt>
      <trkpt lat="45.19244" lon="5.96731">
        <ele>1926</ele>
        <time>2026-07-14T10:32:40Z</time>
      </trkpt>
      <trkpt lat="45.19244" lon="5.96731">
        <ele>1926</ele>
        <time>2026-07-14T10:32:41Z</time>
      </trkpt>
      <trkpt lat="45.19244" lon="5.96731">
        <ele>1926</ele>
        <time>2026-07-14T10:32:42Z</time>
      </trkpt>
      <trkpt lat="45.19244" lon="5.96731">
        <ele>1926</ele>
        <time>2026-07-14T10:32:43Z</time>
      </trkpt>
      <trkpt lat="45.19244" lon="5.96731">
        <ele>1926</ele>
        <time>2026-07-14T10:32:44Z</time>
      </trkpt>
      <trkpt lat="45.19244" lon="5.96731">
        <ele>1926</ele>
        <time>2026-07-14T10:32:45Z</time>
      </trkpt>
      <trkpt lat="45.19244" lon="5.96731">
        <ele>1926</ele>
        <time>2026-07-14T10:32:46Z</time>
      </trkpt>
      <trkpt lat="45.19244" lon="5.96731">
        <ele>1926</ele>
        <time>2026-07-14T10:32:47Z</time>
      </trkpt>
      <trkpt lat="45.19244" lon="5.96731">
        <ele>1926</ele>
        <time>2026-07-14T10:32:48Z</time>
      </trkpt>
      <trkpt lat="45.19244" lon="5.96731">
        <ele>1926</ele>
        <time>2026-07-14T10:32:49Z</time>
      </trkpt>
      <trkpt lat="45.19244" lon="5.96731">
        <ele>1926</ele>
        <time>2026-07-14T10:32:50Z</time>
      </trkpt>
      <trkpt lat="45.19244" lon="5.96731">
        <ele>1926</ele>
        <time>2026-07-14T10:32:51Z</time>
      </trkpt>
      <trkpt lat="45.19244" lon="5.96731">
        <ele>1926</ele>
        <time>2026-07-14T10:32:52Z</time>
      </trkpt>
      <trkpt lat="45.19244" lon="5.96731">
        <ele>1926</ele>
        <time>2026-07-14T10:32:53Z</time>
      </trkpt>
      <trkpt lat="45.19244" lon="5.96731">
        <ele>1926</ele>
        <time>2026-07-14T10:32:54Z</time>
      </trkpt>
      <trkpt lat="45.19244" lon="5.96731">
        <ele>1926</ele>
        <time>2026-07-14T10:32:55Z</time>
      </trkpt>
      <trkpt lat="45.19244" lon="5.96731">
        <ele>1926</ele>
        <time>2026-07-14T10:32:56Z</time>
      </trkpt>
      <trkpt lat="45.19244" lon="5.96731">
        <ele>1926</ele>
        <time>2026-07-14T10:32:57Z</time>
      </trkpt>
      <trkpt lat="45.19244" lon="5.96731">
        <ele>1926</ele>
        <time>2026-07-14T10:32:58Z</time>
      </trkpt>
      <trkpt lat="45.19244" lon="5.96731">
        <ele>1926</ele>
        <time>2026-07-14T10:32:59Z</time>
      </trkpt>
      <trkpt lat="45.19244" lon="5.96731">
        <ele>1926</ele>
        <time>2026-07-14T10:33:00Z</time>
      </trkpt>
      <trkpt lat="45.19244" lon="5.96731">
        <ele>1926</ele>
        <time>2026-07-14T10:33:01Z</time>
      </trkpt>
      <trkpt lat="45.19244" lon="5.96731">
        <ele>1926</ele>
        <time>2026-07-14T10:33:02Z</time>
      </trkpt>
      <trkpt lat="45.19244" lon="5.96731">
        <ele>1926</ele>
        <time>2026-07-14T10:33:03Z</time>
      </trkpt>
      <trkpt lat="45.19244" lon="5.96731">
        <ele>1926</ele>
        <time>2026-07-14T10:33:04Z</time>
      </trkpt>
      <trkpt lat="45.19244" lon="5.96731">
        <ele>1926</ele>
        <time>2026-07-14T10:33:05Z</time>
      </trkpt>
      <trkpt lat="45.19244" lon="5.96731">
        <ele>1926</ele>
        <time>2026-07-14T10:33:06Z</time>
      </trkpt>
      <trkpt lat="45.19244" lon="5.96731">
        <ele>1926</ele>
        <time>2026-07-14T10:33:07Z</time>
      </trkpt>
      <trkpt lat="45.19244" lon="5.96731">
        <ele>1926</ele>
        <time>2026-07-14T10:33:08Z</time>
      </trkpt>
      <trkpt lat="45.19244" lon="5.96731">
        <ele>1926</ele>
        <time>2026-07-14T10:33:09Z</time>
      </trkpt>
      <trkpt lat="45.19244" lon="5.96731">
        <ele>1926</ele>
        <time>2026-07-14T10:33:10Z</time>
      </trkpt>
      <trkpt lat="45.19244" lon="5.96731">
        <ele>1926</ele>
        <time>2026-07-14T10:33:11Z</time>
      </trkpt>
      <trkpt lat="45.19244" lon="5.96731">
        <ele>1926</ele>
        <time>2026-07-14T10:33:12Z</time>
      </trkpt>
      <trkpt lat="45.19244" lon="5.96731">
        <ele>1926</ele>
        <time>2026-07-14T10:33:13Z</time>
      </trkpt>
      <trkpt lat="45.19244" lon="5.96731">
        <ele>1926</ele>
        <time>2026-07-14T10:33:14Z</time>
      </trkpt>
      <trkpt lat="45.19244" lon="5.96731">
        <ele>1926</ele>
        <time>2026-07-14T10:33:15Z</time>
      </trkpt>
      <trkpt lat="45.19244" lon="5.96731">
        <ele>1926</ele>
        <time>2026-07-14T10:33:16Z</time>
      </trkpt>
      <trkpt lat="45.19244" lon="5.96731">
        <ele>1926</ele>
        <time>2026-07-14T10:33:17Z</time>
      </trkpt>
      <trkpt lat="45.19244" lon="5.96731">
        <ele>1926</ele>
        <time>2026-07-14T10:33:18Z</time>
      </trkpt>
      <trkpt lat="45.19244" lon="5.96731">
        <ele>1926</ele>
        <time>2026-07-14T10:33:19Z</time>
      </trkpt>
      <trkpt lat="45.19244" lon="5.96731">
        <ele>1926</ele>
        <time>2026-07-14T10:33:20Z</time>
      </trkpt>
      <trkpt lat="45.19244" lon="5.96731">
        <ele>1926</ele>
        <time>2026-07-14T10:33:21Z</time>
      </trkpt>
      <trkpt lat="45.19244" lon="5.96731">
        <ele>1926</ele>
        <time>2026-07-14T10:33:22Z</time>
      </trkpt>
      <trkpt lat="45.19244" lon="5.96731">
        <ele>1926</ele>
        <time>2026-07-14T10:33:23Z</time>
      </trkpt>
      <trkpt lat="45.19244" lon="5.96731">
        <ele>1926</ele>
        <time>2026-07-14T10:33:24Z</time>
      </trkpt>
      <trkpt lat="45.19244" lon="5.96731">
        <ele>1926</ele>
        <time>2026-07-14T10:33:25Z</time>
      </trkpt>
      <trkpt lat="45.19244" lon="5.96731">
        <ele>1926</ele>
        <time>2026-07-14T10:33:26Z</time>
      </trkpt>
      <trkpt lat="45.19244" lon="5.96731">
        <ele>1926</ele>
        <time>2026-07-14T10:33:27Z</time>
      </trkpt>
      <trkpt lat="45.19244" lon="5.96731">
        <ele>1926</ele>
        <time>2026-07-14T10:33:28Z</time>
      </trkpt>
      <trkpt lat="45.19244" lon="5.96731">
        <ele>1926</ele>
        <time>2026-07-14T10:33:29Z</time>
      </trkpt>
      <trkpt lat="45.19244" lon="5.96731">
        <ele>1926</ele>
        <time>2026-07-14T10:33:30Z</time>
      </trkpt>
      <trkpt lat="45.19244" lon="5.96731">
        <ele>1926</ele>
        <time>2026-07-14T10:33:31Z</time>
      </trkpt>
      <trkpt lat="45.19244" lon="5.96731">
        <ele>1926</ele>
        <time>2026-07-14T10:33:32Z</time>
      </trkpt>
      <trkpt lat="45.19244" lon="5.96731">
        <ele>1926</ele>
        <time>2026-07-14T10:33:33Z</time>
      </trkpt>
      <trkpt lat="45.19244" lon="5.96731">
        <ele>1926</ele>
        <time>2026-07-14T10:33:34Z</time>
      </trkpt>
      <trkpt lat="45.19244" lon="5.96731">
        <ele>1926</ele>
        <time>2026-07-14T10:33:35Z</time>
      </trkpt>
      <trkpt lat="45.19244" lon="5.96731">
        <ele>1926</ele>
        <time>2026-07-14T10:33:37Z</time>
      </trkpt>
      <trkpt lat="45.19244" lon="5.96731">
        <ele>1926</ele>
        <time>2026-07-14T10:33:38Z</time>
      </trkpt>
      <trkpt lat="45.19244" lon="5.96731">
        <ele>1926</ele>
        <time>2026-07-14T10:33:39Z</time>
      </trkpt>
      <trkpt lat="45.19244" lon="5.96731">
        <ele>1926</ele>
        <time>2026-07-14T10:33:40Z</time>
      </trkpt>
      <trkpt lat="45.19244" lon="5.96731">
        <ele>1926</ele>
        <time>2026-07-14T10:33:41Z</time>
      </trkpt>
      <trkpt lat="45.19243" lon="5.96731">
        <ele>1926</ele>
        <time>2026-07-14T10:33:42Z</time>
      </trkpt>
      <trkpt lat="45.19243" lon="5.96731">
        <ele>1926</ele>
        <time>2026-07-14T10:33:43Z</time>
      </trkpt>
      <trkpt lat="45.19243" lon="5.96731">
        <ele>1926</ele>
        <time>2026-07-14T10:33:44Z</time>
      </trkpt>
      <trkpt lat="45.19243" lon="5.96731">
        <ele>1926</ele>
        <time>2026-07-14T10:33:45Z</time>
      </trkpt>
      <trkpt lat="45.19243" lon="5.96731">
        <ele>1926</ele>
        <time>2026-07-14T10:33:46Z</time>
      </trkpt>
      <trkpt lat="45.19243" lon="5.96731">
        <ele>1926</ele>
        <time>2026-07-14T10:33:47Z</time>
      </trkpt>
      <trkpt lat="45.19243" lon="5.96731">
        <ele>1926</ele>
        <time>2026-07-14T10:33:48Z</time>
      </trkpt>
      <trkpt lat="45.19243" lon="5.96731">
        <ele>1926</ele>
        <time>2026-07-14T10:33:49Z</time>
      </trkpt>
      <trkpt lat="45.19243" lon="5.96731">
        <ele>1926</ele>
        <time>2026-07-14T10:33:50Z</time>
      </trkpt>
      <trkpt lat="45.19243" lon="5.96731">
        <ele>1926</ele>
        <time>2026-07-14T10:33:51Z</time>
      </trkpt>
      <trkpt lat="45.19243" lon="5.96731">
        <ele>1926</ele>
        <time>2026-07-14T10:33:52Z</time>
      </trkpt>
      <trkpt lat="45.19243" lon="5.96731">
        <ele>1926</ele>
        <time>2026-07-14T10:33:53Z</time>
      </trkpt>
      <trkpt lat="45.19243" lon="5.96731">
        <ele>1926</ele>
        <time>2026-07-14T10:33:54Z</time>
      </trkpt>
      <trkpt lat="45.19243" lon="5.96731">
        <ele>1926</ele>
        <time>2026-07-14T10:33:55Z</time>
      </trkpt>
      <trkpt lat="45.19243" lon="5.96731">
        <ele>1926</ele>
        <time>2026-07-14T10:33:56Z</time>
      </trkpt>
      <trkpt lat="45.19243" lon="5.96731">
        <ele>1926</ele>
        <time>2026-07-14T10:33:57Z</time>
      </trkpt>
      <trkpt lat="45.19243" lon="5.96731">
        <ele>1926</ele>
        <time>2026-07-14T10:33:58Z</time>
      </trkpt>
      <trkpt lat="45.19243" lon="5.96731">
        <ele>1926</ele>
        <time>2026-07-14T10:33:59Z</time>
      </trkpt>
      <trkpt lat="45.19243" lon="5.96731">
        <ele>1926</ele>
        <time>2026-07-14T10:34:00Z</time>
      </trkpt>
      <trkpt lat="45.19243" lon="5.96731">
        <ele>1926</ele>
        <time>2026-07-14T10:34:01Z</time>
      </trkpt>
      <trkpt lat="45.19243" lon="5.96731">
        <ele>1926</ele>
        <time>2026-07-14T10:34:02Z</time>
      </trkpt>
      <trkpt lat="45.19243" lon="5.96731">
        <ele>1926</ele>
        <time>2026-07-14T10:34:03Z</time>
      </trkpt>
      <trkpt lat="45.19243" lon="5.96731">
        <ele>1926</ele>
        <time>2026-07-14T10:34:04Z</time>
      </trkpt>
      <trkpt lat="45.19243" lon="5.96731">
        <ele>1926</ele>
        <time>2026-07-14T10:34:06Z</time>
      </trkpt>
      <trkpt lat="45.19243" lon="5.96731">
        <ele>1926</ele>
        <time>2026-07-14T10:34:07Z</time>
      </trkpt>
      <trkpt lat="45.19243" lon="5.96731">
        <ele>1926</ele>
        <time>2026-07-14T10:34:08Z</time>
      </trkpt>
      <trkpt lat="45.19243" lon="5.96731">
        <ele>1926</ele>
        <time>2026-07-14T10:34:09Z</time>
      </trkpt>
      <trkpt lat="45.19243" lon="5.96731">
        <ele>1926</ele>
        <time>2026-07-14T10:34:10Z</time>
      </trkpt>
      <trkpt lat="45.19243" lon="5.96731">
        <ele>1926</ele>
        <time>2026-07-14T10:34:11Z</time>
      </trkpt>
      <trkpt lat="45.19243" lon="5.96731">
        <ele>1926</ele>
        <time>2026-07-14T10:34:12Z</time>
      </trkpt>
      <trkpt lat="45.19243" lon="5.96731">
        <ele>1926</ele>
        <time>2026-07-14T10:34:13Z</time>
      </trkpt>
      <trkpt lat="45.19243" lon="5.96731">
        <ele>1926</ele>
        <time>2026-07-14T10:34:14Z</time>
      </trkpt>
      <trkpt lat="45.19243" lon="5.96731">
        <ele>1926</ele>
        <time>2026-07-14T10:34:15Z</time>
      </trkpt>
      <trkpt lat="45.19243" lon="5.96731">
        <ele>1926</ele>
        <time>2026-07-14T10:34:16Z</time>
      </trkpt>
      <trkpt lat="45.19243" lon="5.96731">
        <ele>1926</ele>
        <time>2026-07-14T10:34:17Z</time>
      </trkpt>
      <trkpt lat="45.19243" lon="5.96731">
        <ele>1926</ele>
        <time>2026-07-14T10:34:18Z</time>
      </trkpt>
      <trkpt lat="45.19243" lon="5.96731">
        <ele>1926</ele>
        <time>2026-07-14T10:34:19Z</time>
      </trkpt>
      <trkpt lat="45.19243" lon="5.96731">
        <ele>1926</ele>
        <time>2026-07-14T10:34:20Z</time>
      </trkpt>
      <trkpt lat="45.19243" lon="5.96731">
        <ele>1926</ele>
        <time>2026-07-14T10:34:21Z</time>
      </trkpt>
      <trkpt lat="45.19243" lon="5.96731">
        <ele>1926</ele>
        <time>2026-07-14T10:34:22Z</time>
      </trkpt>
      <trkpt lat="45.19243" lon="5.96731">
        <ele>1926</ele>
        <time>2026-07-14T10:34:23Z</time>
      </trkpt>
      <trkpt lat="45.19243" lon="5.96731">
        <ele>1926</ele>
        <time>2026-07-14T10:34:24Z</time>
      </trkpt>
      <trkpt lat="45.19243" lon="5.96731">
        <ele>1926</ele>
        <time>2026-07-14T10:34:25Z</time>
      </trkpt>
      <trkpt lat="45.19243" lon="5.96731">
        <ele>1926</ele>
        <time>2026-07-14T10:34:26Z</time>
      </trkpt>
      <trkpt lat="45.19244" lon="5.96731">
        <ele>1926</ele>
        <time>2026-07-14T10:34:27Z</time>
      </trkpt>
      <trkpt lat="45.19244" lon="5.96731">
        <ele>1926</ele>
        <time>2026-07-14T10:34:28Z</time>
      </trkpt>
      <trkpt lat="45.19244" lon="5.96731">
        <ele>1926</ele>
        <time>2026-07-14T10:34:29Z</time>
      </trkpt>
      <trkpt lat="45.19244" lon="5.96731">
        <ele>1926</ele>
        <time>2026-07-14T10:34:30Z</time>
      </trkpt>
      <trkpt lat="45.19244" lon="5.96731">
        <ele>1926</ele>
        <time>2026-07-14T10:34:31Z</time>
      </trkpt>
      <trkpt lat="45.19244" lon="5.96731">
        <ele>1926</ele>
        <time>2026-07-14T10:34:32Z</time>
      </trkpt>
      <trkpt lat="45.19244" lon="5.96731">
        <ele>1926</ele>
        <time>2026-07-14T10:34:33Z</time>
      </trkpt>
      <trkpt lat="45.19244" lon="5.96731">
        <ele>1926</ele>
        <time>2026-07-14T10:34:34Z</time>
      </trkpt>
      <trkpt lat="45.19244" lon="5.96731">
        <ele>1926</ele>
        <time>2026-07-14T10:34:35Z</time>
      </trkpt>
      <trkpt lat="45.19244" lon="5.96731">
        <ele>1926</ele>
        <time>2026-07-14T10:34:36Z</time>
      </trkpt>
      <trkpt lat="45.19244" lon="5.96731">
        <ele>1926</ele>
        <time>2026-07-14T10:34:38Z</time>
      </trkpt>
      <trkpt lat="45.19244" lon="5.96731">
        <ele>1926</ele>
        <time>2026-07-14T10:34:39Z</time>
      </trkpt>
      <trkpt lat="45.19244" lon="5.96731">
        <ele>1926</ele>
        <time>2026-07-14T10:34:40Z</time>
      </trkpt>
      <trkpt lat="45.19244" lon="5.96731">
        <ele>1926</ele>
        <time>2026-07-14T10:34:41Z</time>
      </trkpt>
      <trkpt lat="45.19244" lon="5.96731">
        <ele>1926</ele>
        <time>2026-07-14T10:34:42Z</time>
      </trkpt>
      <trkpt lat="45.19244" lon="5.96731">
        <ele>1926</ele>
        <time>2026-07-14T10:34:43Z</time>
      </trkpt>
      <trkpt lat="45.19244" lon="5.96731">
        <ele>1926</ele>
        <time>2026-07-14T10:34:44Z</time>
      </trkpt>
      <trkpt lat="45.19244" lon="5.96731">
        <ele>1926</ele>
        <time>2026-07-14T10:34:45Z</time>
      </trkpt>
      <trkpt lat="45.19244" lon="5.96731">
        <ele>1926</ele>
        <time>2026-07-14T10:34:46Z</time>
      </trkpt>
      <trkpt lat="45.19244" lon="5.96731">
        <ele>1926</ele>
        <time>2026-07-14T10:34:47Z</time>
      </trkpt>
      <trkpt lat="45.19244" lon="5.96731">
        <ele>1926</ele>
        <time>2026-07-14T10:34:48Z</time>
      </trkpt>
      <trkpt lat="45.19244" lon="5.96731">
        <ele>1926</ele>
        <time>2026-07-14T10:34:49Z</time>
      </trkpt>
      <trkpt lat="45.19244" lon="5.96731">
        <ele>1926</ele>
        <time>2026-07-14T10:34:50Z</time>
      </trkpt>
      <trkpt lat="45.19244" lon="5.96731">
        <ele>1926</ele>
        <time>2026-07-14T10:34:51Z</time>
      </trkpt>
      <trkpt lat="45.19244" lon="5.96731">
        <ele>1926</ele>
        <time>2026-07-14T10:34:52Z</time>
      </trkpt>
      <trkpt lat="45.19244" lon="5.96731">
        <ele>1926</ele>
        <time>2026-07-14T10:34:53Z</time>
      </trkpt>
      <trkpt lat="45.19244" lon="5.96732">
        <ele>1926</ele>
        <time>2026-07-14T10:34:54Z</time>
      </trkpt>
      <trkpt lat="45.19244" lon="5.96732">
        <ele>1926</ele>
        <time>2026-07-14T10:34:55Z</time>
      </trkpt>
      <trkpt lat="45.19244" lon="5.96732">
        <ele>1926</ele>
        <time>2026-07-14T10:34:56Z</time>
      </trkpt>
      <trkpt lat="45.19244" lon="5.96732">
        <ele>1926</ele>
        <time>2026-07-14T10:34:57Z</time>
      </trkpt>
      <trkpt lat="45.19244" lon="5.96732">
        <ele>1926</ele>
        <time>2026-07-14T10:34:58Z</time>
      </trkpt>
      <trkpt lat="45.19244" lon="5.96732">
        <ele>1926</ele>
        <time>2026-07-14T10:34:59Z</time>
      </trkpt>
      <trkpt lat="45.19244" lon="5.96732">
        <ele>1926</ele>
        <time>2026-07-14T10:35:00Z</time>
      </trkpt>
      <trkpt lat="45.19244" lon="5.96732">
        <ele>1926</ele>
        <time>2026-07-14T10:35:01Z</time>
      </trkpt>
      <trkpt lat="45.19244" lon="5.96732">
        <ele>1926</ele>
        <time>2026-07-14T10:35:02Z</time>
      </trkpt>
      <trkpt lat="45.19244" lon="5.96732">
        <ele>1926</ele>
        <time>2026-07-14T10:35:03Z</time>
      </trkpt>
      <trkpt lat="45.19244" lon="5.96732">
        <ele>1926</ele>
        <time>2026-07-14T10:35:04Z</time>
      </trkpt>
      <trkpt lat="45.19244" lon="5.96732">
        <ele>1926</ele>
        <time>2026-07-14T10:35:05Z</time>
      </trkpt>
      <trkpt lat="45.19244" lon="5.96732">
        <ele>1926</ele>
        <time>2026-07-14T10:35:06Z</time>
      </trkpt>
      <trkpt lat="45.19244" lon="5.96732">
        <ele>1926</ele>
        <time>2026-07-14T10:35:07Z</time>
      </trkpt>
      <trkpt lat="45.19244" lon="5.96732">
        <ele>1926</ele>
        <time>2026-07-14T10:35:08Z</time>
      </trkpt>
      <trkpt lat="45.19244" lon="5.96732">
        <ele>1926</ele>
        <time>2026-07-14T10:35:09Z</time>
      </trkpt>
      <trkpt lat="45.19244" lon="5.96732">
        <ele>1926</ele>
        <time>2026-07-14T10:35:10Z</time>
      </trkpt>
      <trkpt lat="45.19244" lon="5.96732">
        <ele>1926</ele>
        <time>2026-07-14T10:35:11Z</time>
      </trkpt>
      <trkpt lat="45.19244" lon="5.96732">
        <ele>1926</ele>
        <time>2026-07-14T10:35:12Z</time>
      </trkpt>
      <trkpt lat="45.19244" lon="5.96732">
        <ele>1926</ele>
        <time>2026-07-14T10:35:13Z</time>
      </trkpt>
      <trkpt lat="45.19244" lon="5.96732">
        <ele>1926</ele>
        <time>2026-07-14T10:35:14Z</time>
      </trkpt>
      <trkpt lat="45.19244" lon="5.96732">
        <ele>1926</ele>
        <time>2026-07-14T10:35:15Z</time>
      </trkpt>
      <trkpt lat="45.19244" lon="5.96732">
        <ele>1926</ele>
        <time>2026-07-14T10:35:16Z</time>
      </trkpt>
      <trkpt lat="45.19244" lon="5.96732">
        <ele>1926</ele>
        <time>2026-07-14T10:35:17Z</time>
      </trkpt>
      <trkpt lat="45.19244" lon="5.96732">
        <ele>1926</ele>
        <time>2026-07-14T10:35:18Z</time>
      </trkpt>
      <trkpt lat="45.19244" lon="5.96732">
        <ele>1926</ele>
        <time>2026-07-14T10:35:19Z</time>
      </trkpt>
      <trkpt lat="45.19244" lon="5.96732">
        <ele>1926</ele>
        <time>2026-07-14T10:35:20Z</time>
      </trkpt>
      <trkpt lat="45.19244" lon="5.96733">
        <ele>1926</ele>
        <time>2026-07-14T10:35:21Z</time>
      </trkpt>
      <trkpt lat="45.19244" lon="5.96733">
        <ele>1926</ele>
        <time>2026-07-14T10:35:23Z</time>
      </trkpt>
      <trkpt lat="45.19244" lon="5.96733">
        <ele>1926</ele>
        <time>2026-07-14T10:35:24Z</time>
      </trkpt>
      <trkpt lat="45.19244" lon="5.96733">
        <ele>1926</ele>
        <time>2026-07-14T10:35:25Z</time>
      </trkpt>
      <trkpt lat="45.19244" lon="5.96733">
        <ele>1926</ele>
        <time>2026-07-14T10:35:26Z</time>
      </trkpt>
      <trkpt lat="45.19244" lon="5.96733">
        <ele>1926</ele>
        <time>2026-07-14T10:35:27Z</time>
      </trkpt>
      <trkpt lat="45.19244" lon="5.96733">
        <ele>1926</ele>
        <time>2026-07-14T10:35:28Z</time>
      </trkpt>
      <trkpt lat="45.19244" lon="5.96733">
        <ele>1926</ele>
        <time>2026-07-14T10:35:29Z</time>
      </trkpt>
      <trkpt lat="45.19244" lon="5.96733">
        <ele>1926</ele>
        <time>2026-07-14T10:35:30Z</time>
      </trkpt>
      <trkpt lat="45.19244" lon="5.96733">
        <ele>1926</ele>
        <time>2026-07-14T10:35:31Z</time>
      </trkpt>
      <trkpt lat="45.19244" lon="5.96733">
        <ele>1926</ele>
        <time>2026-07-14T10:35:32Z</time>
      </trkpt>
      <trkpt lat="45.19244" lon="5.96733">
        <ele>1926</ele>
        <time>2026-07-14T10:35:33Z</time>
      </trkpt>
      <trkpt lat="45.19244" lon="5.96733">
        <ele>1926</ele>
        <time>2026-07-14T10:35:34Z</time>
      </trkpt>
      <trkpt lat="45.19244" lon="5.96732">
        <ele>1926</ele>
        <time>2026-07-14T10:35:35Z</time>
      </trkpt>
      <trkpt lat="45.19244" lon="5.96732">
        <ele>1926</ele>
        <time>2026-07-14T10:35:36Z</time>
      </trkpt>
      <trkpt lat="45.19244" lon="5.96732">
        <ele>1926</ele>
        <time>2026-07-14T10:35:37Z</time>
      </trkpt>
      <trkpt lat="45.19244" lon="5.96732">
        <ele>1926</ele>
        <time>2026-07-14T10:35:38Z</time>
      </trkpt>
      <trkpt lat="45.19244" lon="5.96732">
        <ele>1926</ele>
        <time>2026-07-14T10:35:39Z</time>
      </trkpt>
      <trkpt lat="45.19244" lon="5.96732">
        <ele>1926</ele>
        <time>2026-07-14T10:35:40Z</time>
      </trkpt>
      <trkpt lat="45.19244" lon="5.96732">
        <ele>1926</ele>
        <time>2026-07-14T10:35:41Z</time>
      </trkpt>
      <trkpt lat="45.19244" lon="5.96732">
        <ele>1926</ele>
        <time>2026-07-14T10:35:42Z</time>
      </trkpt>
      <trkpt lat="45.19244" lon="5.96732">
        <ele>1926</ele>
        <time>2026-07-14T10:35:43Z</time>
      </trkpt>
      <trkpt lat="45.19244" lon="5.96732">
        <ele>1926</ele>
        <time>2026-07-14T10:35:44Z</time>
      </trkpt>
      <trkpt lat="45.19244" lon="5.96732">
        <ele>1926</ele>
        <time>2026-07-14T10:35:45Z</time>
      </trkpt>
      <trkpt lat="45.19244" lon="5.96732">
        <ele>1926</ele>
        <time>2026-07-14T10:35:46Z</time>
      </trkpt>
      <trkpt lat="45.19244" lon="5.96732">
        <ele>1926</ele>
        <time>2026-07-14T10:35:47Z</time>
      </trkpt>
      <trkpt lat="45.19244" lon="5.96732">
        <ele>1926</ele>
        <time>2026-07-14T10:35:48Z</time>
      </trkpt>
      <trkpt lat="45.19244" lon="5.96732">
        <ele>1926</ele>
        <time>2026-07-14T10:35:49Z</time>
      </trkpt>
      <trkpt lat="45.19244" lon="5.96733">
        <ele>1926</ele>
        <time>2026-07-14T10:35:50Z</time>
      </trkpt>
      <trkpt lat="45.19244" lon="5.96733">
        <ele>1926</ele>
        <time>2026-07-14T10:35:51Z</time>
      </trkpt>
      <trkpt lat="45.19244" lon="5.96733">
        <ele>1926</ele>
        <time>2026-07-14T10:35:52Z</time>
      </trkpt>
      <trkpt lat="45.19244" lon="5.96733">
        <ele>1926</ele>
        <time>2026-07-14T10:35:53Z</time>
      </trkpt>
      <trkpt lat="45.19244" lon="5.96733">
        <ele>1926</ele>
        <time>2026-07-14T10:35:54Z</time>
      </trkpt>
      <trkpt lat="45.19244" lon="5.96733">
        <ele>1926</ele>
        <time>2026-07-14T10:35:55Z</time>
      </trkpt>
      <trkpt lat="45.19244" lon="5.96733">
        <ele>1926</ele>
        <time>2026-07-14T10:35:56Z</time>
      </trkpt>
      <trkpt lat="45.19244" lon="5.96733">
        <ele>1926</ele>
        <time>2026-07-14T10:35:57Z</time>
      </trkpt>
      <trkpt lat="45.19244" lon="5.96733">
        <ele>1926</ele>
        <time>2026-07-14T10:35:58Z</time>
      </trkpt>
      <trkpt lat="45.19244" lon="5.96733">
        <ele>1926</ele>
        <time>2026-07-14T10:35:59Z</time>
      </trkpt>
      <trkpt lat="45.19244" lon="5.96733">
        <ele>1926</ele>
        <time>2026-07-14T10:36:00Z</time>
      </trkpt>
      <trkpt lat="45.19244" lon="5.96733">
        <ele>1926</ele>
        <time>2026-07-14T10:36:01Z</time>
      </trkpt>
      <trkpt lat="45.19244" lon="5.96733">
        <ele>1926</ele>
        <time>2026-07-14T10:36:02Z</time>
      </trkpt>
      <trkpt lat="45.19244" lon="5.96733">
        <ele>1926</ele>
        <time>2026-07-14T10:36:03Z</time>
      </trkpt>
      <trkpt lat="45.19244" lon="5.96733">
        <ele>1926</ele>
        <time>2026-07-14T10:36:04Z</time>
      </trkpt>
      <trkpt lat="45.19244" lon="5.96733">
        <ele>1925.9</ele>
        <time>2026-07-14T10:36:05Z</time>
      </trkpt>
      <trkpt lat="45.19244" lon="5.96733">
        <ele>1925.9</ele>
        <time>2026-07-14T10:36:06Z</time>
      </trkpt>
      <trkpt lat="45.19244" lon="5.96733">
        <ele>1925.9</ele>
        <time>2026-07-14T10:36:07Z</time>
      </trkpt>
      <trkpt lat="45.19244" lon="5.96733">
        <ele>1925.9</ele>
        <time>2026-07-14T10:36:08Z</time>
      </trkpt>
      <trkpt lat="45.19244" lon="5.96733">
        <ele>1925.9</ele>
        <time>2026-07-14T10:36:09Z</time>
      </trkpt>
      <trkpt lat="45.19244" lon="5.96733">
        <ele>1925.9</ele>
        <time>2026-07-14T10:36:10Z</time>
      </trkpt>
      <trkpt lat="45.19244" lon="5.96733">
        <ele>1925.9</ele>
        <time>2026-07-14T10:36:11Z</time>
      </trkpt>
      <trkpt lat="45.19244" lon="5.96733">
        <ele>1925.9</ele>
        <time>2026-07-14T10:36:12Z</time>
      </trkpt>
      <trkpt lat="45.19244" lon="5.96733">
        <ele>1925.9</ele>
        <time>2026-07-14T10:36:13Z</time>
      </trkpt>
      <trkpt lat="45.19244" lon="5.96733">
        <ele>1925.9</ele>
        <time>2026-07-14T10:36:14Z</time>
      </trkpt>
      <trkpt lat="45.19244" lon="5.96733">
        <ele>1925.9</ele>
        <time>2026-07-14T10:36:15Z</time>
      </trkpt>
      <trkpt lat="45.19244" lon="5.96733">
        <ele>1925.9</ele>
        <time>2026-07-14T10:36:16Z</time>
      </trkpt>
      <trkpt lat="45.19244" lon="5.96733">
        <ele>1925.9</ele>
        <time>2026-07-14T10:36:17Z</time>
      </trkpt>
      <trkpt lat="45.19244" lon="5.96733">
        <ele>1925.9</ele>
        <time>2026-07-14T10:36:18Z</time>
      </trkpt>
      <trkpt lat="45.19244" lon="5.96733">
        <ele>1925.9</ele>
        <time>2026-07-14T10:36:19Z</time>
      </trkpt>
      <trkpt lat="45.19244" lon="5.96733">
        <ele>1925.9</ele>
        <time>2026-07-14T10:36:20Z</time>
      </trkpt>
      <trkpt lat="45.19244" lon="5.96733">
        <ele>1925.9</ele>
        <time>2026-07-14T10:36:21Z</time>
      </trkpt>
      <trkpt lat="45.19244" lon="5.96733">
        <ele>1925.9</ele>
        <time>2026-07-14T10:36:22Z</time>
      </trkpt>
      <trkpt lat="45.19244" lon="5.96733">
        <ele>1925.9</ele>
        <time>2026-07-14T10:36:23Z</time>
      </trkpt>
      <trkpt lat="45.19244" lon="5.96733">
        <ele>1925.9</ele>
        <time>2026-07-14T10:36:24Z</time>
      </trkpt>
      <trkpt lat="45.19244" lon="5.96733">
        <ele>1925.9</ele>
        <time>2026-07-14T10:36:25Z</time>
      </trkpt>
      <trkpt lat="45.19244" lon="5.96733">
        <ele>1925.9</ele>
        <time>2026-07-14T10:36:26Z</time>
      </trkpt>
      <trkpt lat="45.19244" lon="5.96733">
        <ele>1925.9</ele>
        <time>2026-07-14T10:36:27Z</time>
      </trkpt>
      <trkpt lat="45.19244" lon="5.96733">
        <ele>1925.9</ele>
        <time>2026-07-14T10:36:28Z</time>
      </trkpt>
      <trkpt lat="45.19244" lon="5.96733">
        <ele>1925.9</ele>
        <time>2026-07-14T10:36:29Z</time>
      </trkpt>
      <trkpt lat="45.19244" lon="5.96733">
        <ele>1925.9</ele>
        <time>2026-07-14T10:36:30Z</time>
      </trkpt>
      <trkpt lat="45.19244" lon="5.96733">
        <ele>1925.9</ele>
        <time>2026-07-14T10:36:31Z</time>
      </trkpt>
      <trkpt lat="45.19244" lon="5.96733">
        <ele>1925.9</ele>
        <time>2026-07-14T10:36:32Z</time>
      </trkpt>
      <trkpt lat="45.19244" lon="5.96733">
        <ele>1925.9</ele>
        <time>2026-07-14T10:36:33Z</time>
      </trkpt>
      <trkpt lat="45.19244" lon="5.96733">
        <ele>1925.9</ele>
        <time>2026-07-14T10:36:34Z</time>
      </trkpt>
      <trkpt lat="45.19244" lon="5.96733">
        <ele>1925.9</ele>
        <time>2026-07-14T10:36:35Z</time>
      </trkpt>
      <trkpt lat="45.19244" lon="5.96733">
        <ele>1925.9</ele>
        <time>2026-07-14T10:36:36Z</time>
      </trkpt>
      <trkpt lat="45.19244" lon="5.96733">
        <ele>1925.9</ele>
        <time>2026-07-14T10:36:37Z</time>
      </trkpt>
      <trkpt lat="45.19244" lon="5.96733">
        <ele>1925.9</ele>
        <time>2026-07-14T10:36:38Z</time>
      </trkpt>
      <trkpt lat="45.19244" lon="5.96733">
        <ele>1925.9</ele>
        <time>2026-07-14T10:36:39Z</time>
      </trkpt>
      <trkpt lat="45.19244" lon="5.96733">
        <ele>1925.9</ele>
        <time>2026-07-14T10:36:40Z</time>
      </trkpt>
      <trkpt lat="45.19244" lon="5.96733">
        <ele>1925.9</ele>
        <time>2026-07-14T10:36:41Z</time>
      </trkpt>
      <trkpt lat="45.19244" lon="5.96733">
        <ele>1925.9</ele>
        <time>2026-07-14T10:36:42Z</time>
      </trkpt>
      <trkpt lat="45.19244" lon="5.96733">
        <ele>1925.9</ele>
        <time>2026-07-14T10:36:43Z</time>
      </trkpt>
      <trkpt lat="45.19244" lon="5.96733">
        <ele>1925.9</ele>
        <time>2026-07-14T10:36:45Z</time>
      </trkpt>
      <trkpt lat="45.19244" lon="5.96733">
        <ele>1925.9</ele>
        <time>2026-07-14T10:36:46Z</time>
      </trkpt>
      <trkpt lat="45.19244" lon="5.96733">
        <ele>1925.9</ele>
        <time>2026-07-14T10:36:47Z</time>
      </trkpt>
      <trkpt lat="45.19244" lon="5.96733">
        <ele>1925.9</ele>
        <time>2026-07-14T10:36:48Z</time>
      </trkpt>
      <trkpt lat="45.19244" lon="5.96733">
        <ele>1925.9</ele>
        <time>2026-07-14T10:36:49Z</time>
      </trkpt>
      <trkpt lat="45.19244" lon="5.96733">
        <ele>1925.9</ele>
        <time>2026-07-14T10:36:50Z</time>
      </trkpt>
      <trkpt lat="45.19244" lon="5.96733">
        <ele>1925.9</ele>
        <time>2026-07-14T10:36:51Z</time>
      </trkpt>
      <trkpt lat="45.19244" lon="5.96733">
        <ele>1925.9</ele>
        <time>2026-07-14T10:36:52Z</time>
      </trkpt>
      <trkpt lat="45.19244" lon="5.96733">
        <ele>1925.9</ele>
        <time>2026-07-14T10:36:53Z</time>
      </trkpt>
      <trkpt lat="45.19244" lon="5.96733">
        <ele>1925.9</ele>
        <time>2026-07-14T10:36:54Z</time>
      </trkpt>
      <trkpt lat="45.19244" lon="5.96733">
        <ele>1925.9</ele>
        <time>2026-07-14T10:36:55Z</time>
      </trkpt>
      <trkpt lat="45.19244" lon="5.96733">
        <ele>1925.9</ele>
        <time>2026-07-14T10:36:56Z</time>
      </trkpt>
      <trkpt lat="45.19244" lon="5.96733">
        <ele>1925.9</ele>
        <time>2026-07-14T10:36:57Z</time>
      </trkpt>
      <trkpt lat="45.19244" lon="5.96733">
        <ele>1925.9</ele>
        <time>2026-07-14T10:36:58Z</time>
      </trkpt>
      <trkpt lat="45.19244" lon="5.96733">
        <ele>1925.9</ele>
        <time>2026-07-14T10:36:59Z</time>
      </trkpt>
      <trkpt lat="45.19244" lon="5.96733">
        <ele>1925.9</ele>
        <time>2026-07-14T10:37:00Z</time>
      </trkpt>
      <trkpt lat="45.19244" lon="5.96733">
        <ele>1925.9</ele>
        <time>2026-07-14T10:37:01Z</time>
      </trkpt>
      <trkpt lat="45.19244" lon="5.96733">
        <ele>1925.9</ele>
        <time>2026-07-14T10:37:02Z</time>
      </trkpt>
      <trkpt lat="45.19244" lon="5.96733">
        <ele>1925.9</ele>
        <time>2026-07-14T10:37:03Z</time>
      </trkpt>
      <trkpt lat="45.19244" lon="5.96733">
        <ele>1925.9</ele>
        <time>2026-07-14T10:37:04Z</time>
      </trkpt>
      <trkpt lat="45.19244" lon="5.96733">
        <ele>1925.9</ele>
        <time>2026-07-14T10:37:05Z</time>
      </trkpt>
      <trkpt lat="45.19244" lon="5.96733">
        <ele>1925.9</ele>
        <time>2026-07-14T10:37:06Z</time>
      </trkpt>
      <trkpt lat="45.19244" lon="5.96733">
        <ele>1925.9</ele>
        <time>2026-07-14T10:37:07Z</time>
      </trkpt>
      <trkpt lat="45.19244" lon="5.96733">
        <ele>1925.9</ele>
        <time>2026-07-14T10:37:08Z</time>
      </trkpt>
      <trkpt lat="45.19244" lon="5.96733">
        <ele>1925.9</ele>
        <time>2026-07-14T10:37:09Z</time>
      </trkpt>
      <trkpt lat="45.19244" lon="5.96733">
        <ele>1925.9</ele>
        <time>2026-07-14T10:37:10Z</time>
      </trkpt>
      <trkpt lat="45.19244" lon="5.96733">
        <ele>1925.9</ele>
        <time>2026-07-14T10:37:11Z</time>
      </trkpt>
      <trkpt lat="45.19244" lon="5.96733">
        <ele>1925.9</ele>
        <time>2026-07-14T10:37:12Z</time>
      </trkpt>
      <trkpt lat="45.19244" lon="5.96733">
        <ele>1925.9</ele>
        <time>2026-07-14T10:37:13Z</time>
      </trkpt>
      <trkpt lat="45.19244" lon="5.96733">
        <ele>1925.9</ele>
        <time>2026-07-14T10:37:14Z</time>
      </trkpt>
      <trkpt lat="45.19244" lon="5.96733">
        <ele>1925.9</ele>
        <time>2026-07-14T10:37:15Z</time>
      </trkpt>
      <trkpt lat="45.19244" lon="5.96733">
        <ele>1925.9</ele>
        <time>2026-07-14T10:37:16Z</time>
      </trkpt>
      <trkpt lat="45.19244" lon="5.96733">
        <ele>1925.9</ele>
        <time>2026-07-14T10:37:17Z</time>
      </trkpt>
      <trkpt lat="45.19244" lon="5.96733">
        <ele>1925.9</ele>
        <time>2026-07-14T10:37:18Z</time>
      </trkpt>
      <trkpt lat="45.19244" lon="5.96733">
        <ele>1925.9</ele>
        <time>2026-07-14T10:37:19Z</time>
      </trkpt>
      <trkpt lat="45.19244" lon="5.96733">
        <ele>1925.9</ele>
        <time>2026-07-14T10:37:20Z</time>
      </trkpt>
      <trkpt lat="45.19244" lon="5.96733">
        <ele>1925.9</ele>
        <time>2026-07-14T10:37:21Z</time>
      </trkpt>
      <trkpt lat="45.19244" lon="5.96733">
        <ele>1925.9</ele>
        <time>2026-07-14T10:37:22Z</time>
      </trkpt>
      <trkpt lat="45.19244" lon="5.96733">
        <ele>1925.9</ele>
        <time>2026-07-14T10:37:23Z</time>
      </trkpt>
      <trkpt lat="45.19244" lon="5.96733">
        <ele>1925.9</ele>
        <time>2026-07-14T10:37:24Z</time>
      </trkpt>
      <trkpt lat="45.19244" lon="5.96733">
        <ele>1925.9</ele>
        <time>2026-07-14T10:37:25Z</time>
      </trkpt>
      <trkpt lat="45.19244" lon="5.96733">
        <ele>1925.9</ele>
        <time>2026-07-14T10:37:26Z</time>
      </trkpt>
      <trkpt lat="45.19244" lon="5.96733">
        <ele>1925.9</ele>
        <time>2026-07-14T10:37:27Z</time>
      </trkpt>
      <trkpt lat="45.19244" lon="5.96732">
        <ele>1925.9</ele>
        <time>2026-07-14T10:37:28Z</time>
      </trkpt>
      <trkpt lat="45.19244" lon="5.96732">
        <ele>1925.9</ele>
        <time>2026-07-14T10:37:29Z</time>
      </trkpt>
      <trkpt lat="45.19244" lon="5.96732">
        <ele>1925.9</ele>
        <time>2026-07-14T10:37:30Z</time>
      </trkpt>
      <trkpt lat="45.19243" lon="5.96733">
        <ele>1925.9</ele>
        <time>2026-07-14T10:37:31Z</time>
      </trkpt>
      <trkpt lat="45.19243" lon="5.96733">
        <ele>1925.9</ele>
        <time>2026-07-14T10:37:32Z</time>
      </trkpt>
      <trkpt lat="45.19243" lon="5.96733">
        <ele>1925.9</ele>
        <time>2026-07-14T10:37:33Z</time>
      </trkpt>
      <trkpt lat="45.19243" lon="5.96733">
        <ele>1925.9</ele>
        <time>2026-07-14T10:37:34Z</time>
      </trkpt>
      <trkpt lat="45.19243" lon="5.96733">
        <ele>1925.9</ele>
        <time>2026-07-14T10:37:35Z</time>
      </trkpt>
      <trkpt lat="45.19243" lon="5.96733">
        <ele>1925.9</ele>
        <time>2026-07-14T10:37:36Z</time>
      </trkpt>
      <trkpt lat="45.19243" lon="5.96733">
        <ele>1925.9</ele>
        <time>2026-07-14T10:37:37Z</time>
      </trkpt>
      <trkpt lat="45.19243" lon="5.96733">
        <ele>1925.9</ele>
        <time>2026-07-14T10:37:38Z</time>
      </trkpt>
      <trkpt lat="45.19243" lon="5.96733">
        <ele>1925.9</ele>
        <time>2026-07-14T10:37:39Z</time>
      </trkpt>
      <trkpt lat="45.19243" lon="5.96733">
        <ele>1925.9</ele>
        <time>2026-07-14T10:37:40Z</time>
      </trkpt>
      <trkpt lat="45.19243" lon="5.96733">
        <ele>1925.9</ele>
        <time>2026-07-14T10:37:41Z</time>
      </trkpt>
      <trkpt lat="45.19243" lon="5.96733">
        <ele>1925.9</ele>
        <time>2026-07-14T10:37:42Z</time>
      </trkpt>
      <trkpt lat="45.19243" lon="5.96733">
        <ele>1925.9</ele>
        <time>2026-07-14T10:37:43Z</time>
      </trkpt>
      <trkpt lat="45.19243" lon="5.96733">
        <ele>1925.9</ele>
        <time>2026-07-14T10:37:44Z</time>
      </trkpt>
      <trkpt lat="45.19243" lon="5.96733">
        <ele>1925.9</ele>
        <time>2026-07-14T10:37:45Z</time>
      </trkpt>
      <trkpt lat="45.19243" lon="5.96733">
        <ele>1925.9</ele>
        <time>2026-07-14T10:37:46Z</time>
      </trkpt>
      <trkpt lat="45.19243" lon="5.96733">
        <ele>1925.9</ele>
        <time>2026-07-14T10:37:47Z</time>
      </trkpt>
      <trkpt lat="45.19243" lon="5.96733">
        <ele>1925.9</ele>
        <time>2026-07-14T10:37:48Z</time>
      </trkpt>
      <trkpt lat="45.19243" lon="5.96733">
        <ele>1925.9</ele>
        <time>2026-07-14T10:37:49Z</time>
      </trkpt>
      <trkpt lat="45.19243" lon="5.96733">
        <ele>1925.9</ele>
        <time>2026-07-14T10:37:50Z</time>
      </trkpt>
      <trkpt lat="45.19243" lon="5.96733">
        <ele>1925.9</ele>
        <time>2026-07-14T10:37:51Z</time>
      </trkpt>
      <trkpt lat="45.19243" lon="5.96733">
        <ele>1925.9</ele>
        <time>2026-07-14T10:37:52Z</time>
      </trkpt>
      <trkpt lat="45.19243" lon="5.96733">
        <ele>1925.9</ele>
        <time>2026-07-14T10:37:53Z</time>
      </trkpt>
      <trkpt lat="45.19243" lon="5.96733">
        <ele>1925.9</ele>
        <time>2026-07-14T10:37:54Z</time>
      </trkpt>
      <trkpt lat="45.19243" lon="5.96733">
        <ele>1925.9</ele>
        <time>2026-07-14T10:37:55Z</time>
      </trkpt>
      <trkpt lat="45.19243" lon="5.96733">
        <ele>1925.9</ele>
        <time>2026-07-14T10:37:56Z</time>
      </trkpt>
      <trkpt lat="45.19243" lon="5.96733">
        <ele>1925.9</ele>
        <time>2026-07-14T10:37:57Z</time>
      </trkpt>
      <trkpt lat="45.19243" lon="5.96733">
        <ele>1925.9</ele>
        <time>2026-07-14T10:37:58Z</time>
      </trkpt>
      <trkpt lat="45.19243" lon="5.96733">
        <ele>1925.9</ele>
        <time>2026-07-14T10:37:59Z</time>
      </trkpt>
      <trkpt lat="45.19243" lon="5.96733">
        <ele>1925.9</ele>
        <time>2026-07-14T10:38:00Z</time>
      </trkpt>
      <trkpt lat="45.19243" lon="5.96733">
        <ele>1925.9</ele>
        <time>2026-07-14T10:38:01Z</time>
      </trkpt>
      <trkpt lat="45.19243" lon="5.96733">
        <ele>1925.9</ele>
        <time>2026-07-14T10:38:02Z</time>
      </trkpt>
      <trkpt lat="45.19243" lon="5.96733">
        <ele>1925.9</ele>
        <time>2026-07-14T10:38:03Z</time>
      </trkpt>
      <trkpt lat="45.19243" lon="5.96733">
        <ele>1925.9</ele>
        <time>2026-07-14T10:38:05Z</time>
      </trkpt>
      <trkpt lat="45.19243" lon="5.96733">
        <ele>1925.9</ele>
        <time>2026-07-14T10:38:06Z</time>
      </trkpt>
      <trkpt lat="45.19243" lon="5.96733">
        <ele>1925.9</ele>
        <time>2026-07-14T10:38:07Z</time>
      </trkpt>
      <trkpt lat="45.19243" lon="5.96733">
        <ele>1925.9</ele>
        <time>2026-07-14T10:38:08Z</time>
      </trkpt>
      <trkpt lat="45.19243" lon="5.96733">
        <ele>1925.9</ele>
        <time>2026-07-14T10:38:09Z</time>
      </trkpt>
      <trkpt lat="45.19243" lon="5.96733">
        <ele>1925.9</ele>
        <time>2026-07-14T10:38:10Z</time>
      </trkpt>
      <trkpt lat="45.19243" lon="5.96733">
        <ele>1925.9</ele>
        <time>2026-07-14T10:38:11Z</time>
      </trkpt>
      <trkpt lat="45.19243" lon="5.96733">
        <ele>1925.9</ele>
        <time>2026-07-14T10:38:12Z</time>
      </trkpt>
      <trkpt lat="45.19243" lon="5.96733">
        <ele>1925.9</ele>
        <time>2026-07-14T10:38:13Z</time>
      </trkpt>
      <trkpt lat="45.19243" lon="5.96733">
        <ele>1925.9</ele>
        <time>2026-07-14T10:38:14Z</time>
      </trkpt>
      <trkpt lat="45.19243" lon="5.96733">
        <ele>1925.9</ele>
        <time>2026-07-14T10:38:15Z</time>
      </trkpt>
      <trkpt lat="45.19243" lon="5.96732">
        <ele>1925.9</ele>
        <time>2026-07-14T10:38:16Z</time>
      </trkpt>
      <trkpt lat="45.19243" lon="5.96733">
        <ele>1925.9</ele>
        <time>2026-07-14T10:38:17Z</time>
      </trkpt>
      <trkpt lat="45.19243" lon="5.96732">
        <ele>1925.9</ele>
        <time>2026-07-14T10:38:18Z</time>
      </trkpt>
      <trkpt lat="45.19243" lon="5.96732">
        <ele>1925.9</ele>
        <time>2026-07-14T10:38:19Z</time>
      </trkpt>
      <trkpt lat="45.19243" lon="5.96732">
        <ele>1925.9</ele>
        <time>2026-07-14T10:38:20Z</time>
      </trkpt>
      <trkpt lat="45.19243" lon="5.96732">
        <ele>1925.9</ele>
        <time>2026-07-14T10:38:21Z</time>
      </trkpt>
      <trkpt lat="45.19243" lon="5.96732">
        <ele>1925.9</ele>
        <time>2026-07-14T10:38:22Z</time>
      </trkpt>
      <trkpt lat="45.19243" lon="5.96732">
        <ele>1925.9</ele>
        <time>2026-07-14T10:38:23Z</time>
      </trkpt>
      <trkpt lat="45.19243" lon="5.96732">
        <ele>1925.9</ele>
        <time>2026-07-14T10:38:24Z</time>
      </trkpt>
      <trkpt lat="45.19243" lon="5.96732">
        <ele>1925.9</ele>
        <time>2026-07-14T10:38:25Z</time>
      </trkpt>
      <trkpt lat="45.19243" lon="5.96732">
        <ele>1925.9</ele>
        <time>2026-07-14T10:38:26Z</time>
      </trkpt>
      <trkpt lat="45.19243" lon="5.96732">
        <ele>1925.9</ele>
        <time>2026-07-14T10:38:27Z</time>
      </trkpt>
      <trkpt lat="45.19243" lon="5.96732">
        <ele>1925.9</ele>
        <time>2026-07-14T10:38:28Z</time>
      </trkpt>
      <trkpt lat="45.19243" lon="5.96732">
        <ele>1925.9</ele>
        <time>2026-07-14T10:38:29Z</time>
      </trkpt>
      <trkpt lat="45.19243" lon="5.96732">
        <ele>1925.9</ele>
        <time>2026-07-14T10:38:30Z</time>
      </trkpt>
      <trkpt lat="45.19243" lon="5.96732">
        <ele>1925.9</ele>
        <time>2026-07-14T10:38:31Z</time>
      </trkpt>
      <trkpt lat="45.19243" lon="5.96732">
        <ele>1925.9</ele>
        <time>2026-07-14T10:38:32Z</time>
      </trkpt>
      <trkpt lat="45.19243" lon="5.96732">
        <ele>1925.9</ele>
        <time>2026-07-14T10:38:33Z</time>
      </trkpt>
      <trkpt lat="45.19243" lon="5.96732">
        <ele>1925.9</ele>
        <time>2026-07-14T10:38:34Z</time>
      </trkpt>
      <trkpt lat="45.19243" lon="5.96732">
        <ele>1925.9</ele>
        <time>2026-07-14T10:38:35Z</time>
      </trkpt>
      <trkpt lat="45.19243" lon="5.96732">
        <ele>1925.9</ele>
        <time>2026-07-14T10:38:36Z</time>
      </trkpt>
      <trkpt lat="45.19243" lon="5.96732">
        <ele>1925.9</ele>
        <time>2026-07-14T10:38:37Z</time>
      </trkpt>
      <trkpt lat="45.19243" lon="5.96732">
        <ele>1925.9</ele>
        <time>2026-07-14T10:38:38Z</time>
      </trkpt>
      <trkpt lat="45.19243" lon="5.96732">
        <ele>1925.9</ele>
        <time>2026-07-14T10:38:39Z</time>
      </trkpt>
      <trkpt lat="45.19243" lon="5.96732">
        <ele>1925.9</ele>
        <time>2026-07-14T10:38:40Z</time>
      </trkpt>
      <trkpt lat="45.19243" lon="5.96732">
        <ele>1925.9</ele>
        <time>2026-07-14T10:38:41Z</time>
      </trkpt>
      <trkpt lat="45.19243" lon="5.96732">
        <ele>1925.9</ele>
        <time>2026-07-14T10:38:42Z</time>
      </trkpt>
      <trkpt lat="45.19243" lon="5.96732">
        <ele>1925.9</ele>
        <time>2026-07-14T10:38:43Z</time>
      </trkpt>
      <trkpt lat="45.19243" lon="5.96732">
        <ele>1925.9</ele>
        <time>2026-07-14T10:38:44Z</time>
      </trkpt>
      <trkpt lat="45.19243" lon="5.96732">
        <ele>1925.9</ele>
        <time>2026-07-14T10:38:45Z</time>
      </trkpt>
      <trkpt lat="45.19243" lon="5.96732">
        <ele>1925.9</ele>
        <time>2026-07-14T10:38:46Z</time>
      </trkpt>
      <trkpt lat="45.19243" lon="5.96732">
        <ele>1925.9</ele>
        <time>2026-07-14T10:38:47Z</time>
      </trkpt>
      <trkpt lat="45.19243" lon="5.96732">
        <ele>1925.9</ele>
        <time>2026-07-14T10:38:48Z</time>
      </trkpt>
      <trkpt lat="45.19243" lon="5.96732">
        <ele>1925.9</ele>
        <time>2026-07-14T10:38:49Z</time>
      </trkpt>
      <trkpt lat="45.19243" lon="5.96732">
        <ele>1925.9</ele>
        <time>2026-07-14T10:38:50Z</time>
      </trkpt>
      <trkpt lat="45.19243" lon="5.96732">
        <ele>1925.9</ele>
        <time>2026-07-14T10:38:51Z</time>
      </trkpt>
      <trkpt lat="45.19243" lon="5.96732">
        <ele>1925.9</ele>
        <time>2026-07-14T10:38:52Z</time>
      </trkpt>
      <trkpt lat="45.19243" lon="5.96732">
        <ele>1925.9</ele>
        <time>2026-07-14T10:38:53Z</time>
      </trkpt>
      <trkpt lat="45.19243" lon="5.96732">
        <ele>1925.9</ele>
        <time>2026-07-14T10:38:54Z</time>
      </trkpt>
      <trkpt lat="45.19243" lon="5.96732">
        <ele>1925.9</ele>
        <time>2026-07-14T10:38:55Z</time>
      </trkpt>
      <trkpt lat="45.19243" lon="5.96732">
        <ele>1925.9</ele>
        <time>2026-07-14T10:38:56Z</time>
      </trkpt>
      <trkpt lat="45.19243" lon="5.96732">
        <ele>1925.9</ele>
        <time>2026-07-14T10:38:57Z</time>
      </trkpt>
      <trkpt lat="45.19243" lon="5.96732">
        <ele>1925.9</ele>
        <time>2026-07-14T10:38:58Z</time>
      </trkpt>
      <trkpt lat="45.19243" lon="5.96732">
        <ele>1925.9</ele>
        <time>2026-07-14T10:38:59Z</time>
      </trkpt>
      <trkpt lat="45.19243" lon="5.96732">
        <ele>1925.9</ele>
        <time>2026-07-14T10:39:00Z</time>
      </trkpt>
      <trkpt lat="45.19243" lon="5.96732">
        <ele>1925.9</ele>
        <time>2026-07-14T10:39:01Z</time>
      </trkpt>
      <trkpt lat="45.19243" lon="5.96732">
        <ele>1925.9</ele>
        <time>2026-07-14T10:39:02Z</time>
      </trkpt>
      <trkpt lat="45.19243" lon="5.96732">
        <ele>1925.9</ele>
        <time>2026-07-14T10:39:03Z</time>
      </trkpt>
      <trkpt lat="45.19243" lon="5.96732">
        <ele>1925.9</ele>
        <time>2026-07-14T10:39:04Z</time>
      </trkpt>
      <trkpt lat="45.19243" lon="5.96732">
        <ele>1925.9</ele>
        <time>2026-07-14T10:39:05Z</time>
      </trkpt>
      <trkpt lat="45.19243" lon="5.96732">
        <ele>1925.9</ele>
        <time>2026-07-14T10:39:06Z</time>
      </trkpt>
      <trkpt lat="45.19243" lon="5.96732">
        <ele>1925.9</ele>
        <time>2026-07-14T10:39:07Z</time>
      </trkpt>
      <trkpt lat="45.19243" lon="5.96732">
        <ele>1925.9</ele>
        <time>2026-07-14T10:39:08Z</time>
      </trkpt>
      <trkpt lat="45.19243" lon="5.96732">
        <ele>1925.9</ele>
        <time>2026-07-14T10:39:09Z</time>
      </trkpt>
      <trkpt lat="45.19243" lon="5.96732">
        <ele>1925.9</ele>
        <time>2026-07-14T10:39:10Z</time>
      </trkpt>
      <trkpt lat="45.19244" lon="5.96732">
        <ele>1925.9</ele>
        <time>2026-07-14T10:39:11Z</time>
      </trkpt>
      <trkpt lat="45.19244" lon="5.96732">
        <ele>1925.9</ele>
        <time>2026-07-14T10:39:12Z</time>
      </trkpt>
      <trkpt lat="45.19244" lon="5.96732">
        <ele>1925.9</ele>
        <time>2026-07-14T10:39:13Z</time>
      </trkpt>
      <trkpt lat="45.19244" lon="5.96732">
        <ele>1925.9</ele>
        <time>2026-07-14T10:39:14Z</time>
      </trkpt>
      <trkpt lat="45.19244" lon="5.96732">
        <ele>1925.9</ele>
        <time>2026-07-14T10:39:15Z</time>
      </trkpt>
      <trkpt lat="45.19244" lon="5.96732">
        <ele>1925.9</ele>
        <time>2026-07-14T10:39:16Z</time>
      </trkpt>
      <trkpt lat="45.19244" lon="5.96732">
        <ele>1925.9</ele>
        <time>2026-07-14T10:39:17Z</time>
      </trkpt>
      <trkpt lat="45.19244" lon="5.96732">
        <ele>1925.9</ele>
        <time>2026-07-14T10:39:18Z</time>
      </trkpt>
      <trkpt lat="45.19244" lon="5.96732">
        <ele>1925.9</ele>
        <time>2026-07-14T10:39:19Z</time>
      </trkpt>
      <trkpt lat="45.19244" lon="5.96732">
        <ele>1925.9</ele>
        <time>2026-07-14T10:39:20Z</time>
      </trkpt>
      <trkpt lat="45.19244" lon="5.96732">
        <ele>1925.9</ele>
        <time>2026-07-14T10:39:21Z</time>
      </trkpt>
      <trkpt lat="45.19244" lon="5.96732">
        <ele>1925.9</ele>
        <time>2026-07-14T10:39:22Z</time>
      </trkpt>
      <trkpt lat="45.19244" lon="5.96732">
        <ele>1925.9</ele>
        <time>2026-07-14T10:39:23Z</time>
      </trkpt>
      <trkpt lat="45.19244" lon="5.96732">
        <ele>1925.9</ele>
        <time>2026-07-14T10:39:24Z</time>
      </trkpt>
      <trkpt lat="45.19244" lon="5.96732">
        <ele>1925.9</ele>
        <time>2026-07-14T10:39:25Z</time>
      </trkpt>
      <trkpt lat="45.19244" lon="5.96732">
        <ele>1925.9</ele>
        <time>2026-07-14T10:39:26Z</time>
      </trkpt>
      <trkpt lat="45.19244" lon="5.96732">
        <ele>1925.9</ele>
        <time>2026-07-14T10:39:27Z</time>
      </trkpt>
      <trkpt lat="45.19244" lon="5.96732">
        <ele>1925.9</ele>
        <time>2026-07-14T10:39:28Z</time>
      </trkpt>
      <trkpt lat="45.19244" lon="5.96732">
        <ele>1925.9</ele>
        <time>2026-07-14T10:39:29Z</time>
      </trkpt>
      <trkpt lat="45.19244" lon="5.96732">
        <ele>1925.9</ele>
        <time>2026-07-14T10:39:30Z</time>
      </trkpt>
      <trkpt lat="45.19244" lon="5.96732">
        <ele>1925.9</ele>
        <time>2026-07-14T10:39:31Z</time>
      </trkpt>
      <trkpt lat="45.19244" lon="5.96732">
        <ele>1925.9</ele>
        <time>2026-07-14T10:39:32Z</time>
      </trkpt>
      <trkpt lat="45.19244" lon="5.96732">
        <ele>1925.9</ele>
        <time>2026-07-14T10:39:33Z</time>
      </trkpt>
      <trkpt lat="45.19244" lon="5.96732">
        <ele>1925.9</ele>
        <time>2026-07-14T10:39:34Z</time>
      </trkpt>
      <trkpt lat="45.19244" lon="5.96732">
        <ele>1925.9</ele>
        <time>2026-07-14T10:39:35Z</time>
      </trkpt>
      <trkpt lat="45.19244" lon="5.96732">
        <ele>1925.9</ele>
        <time>2026-07-14T10:39:36Z</time>
      </trkpt>
      <trkpt lat="45.19244" lon="5.96732">
        <ele>1925.9</ele>
        <time>2026-07-14T10:39:38Z</time>
      </trkpt>
      <trkpt lat="45.19244" lon="5.96732">
        <ele>1925.9</ele>
        <time>2026-07-14T10:39:40Z</time>
      </trkpt>
      <trkpt lat="45.19244" lon="5.96732">
        <ele>1925.9</ele>
        <time>2026-07-14T10:39:41Z</time>
      </trkpt>
      <trkpt lat="45.19244" lon="5.96732">
        <ele>1925.9</ele>
        <time>2026-07-14T10:39:42Z</time>
      </trkpt>
      <trkpt lat="45.19244" lon="5.96732">
        <ele>1925.9</ele>
        <time>2026-07-14T10:39:43Z</time>
      </trkpt>
      <trkpt lat="45.19244" lon="5.96732">
        <ele>1925.9</ele>
        <time>2026-07-14T10:39:44Z</time>
      </trkpt>
      <trkpt lat="45.19244" lon="5.96732">
        <ele>1925.9</ele>
        <time>2026-07-14T10:39:45Z</time>
      </trkpt>
      <trkpt lat="45.19244" lon="5.96732">
        <ele>1925.9</ele>
        <time>2026-07-14T10:39:46Z</time>
      </trkpt>
      <trkpt lat="45.19244" lon="5.96732">
        <ele>1925.9</ele>
        <time>2026-07-14T10:39:47Z</time>
      </trkpt>
      <trkpt lat="45.19244" lon="5.96732">
        <ele>1925.9</ele>
        <time>2026-07-14T10:39:48Z</time>
      </trkpt>
      <trkpt lat="45.19244" lon="5.96732">
        <ele>1925.9</ele>
        <time>2026-07-14T10:39:49Z</time>
      </trkpt>
      <trkpt lat="45.19244" lon="5.96732">
        <ele>1925.9</ele>
        <time>2026-07-14T10:39:50Z</time>
      </trkpt>
      <trkpt lat="45.19244" lon="5.96732">
        <ele>1925.9</ele>
        <time>2026-07-14T10:39:51Z</time>
      </trkpt>
      <trkpt lat="45.19244" lon="5.96732">
        <ele>1925.9</ele>
        <time>2026-07-14T10:39:52Z</time>
      </trkpt>
      <trkpt lat="45.19244" lon="5.96732">
        <ele>1925.9</ele>
        <time>2026-07-14T10:39:53Z</time>
      </trkpt>
      <trkpt lat="45.19244" lon="5.96732">
        <ele>1925.9</ele>
        <time>2026-07-14T10:39:54Z</time>
      </trkpt>
      <trkpt lat="45.19244" lon="5.96732">
        <ele>1925.9</ele>
        <time>2026-07-14T10:39:55Z</time>
      </trkpt>
      <trkpt lat="45.19244" lon="5.96732">
        <ele>1925.9</ele>
        <time>2026-07-14T10:39:56Z</time>
      </trkpt>
      <trkpt lat="45.19244" lon="5.96732">
        <ele>1925.9</ele>
        <time>2026-07-14T10:39:57Z</time>
      </trkpt>
      <trkpt lat="45.19244" lon="5.96732">
        <ele>1925.9</ele>
        <time>2026-07-14T10:39:58Z</time>
      </trkpt>
      <trkpt lat="45.19244" lon="5.96732">
        <ele>1925.9</ele>
        <time>2026-07-14T10:39:59Z</time>
      </trkpt>
      <trkpt lat="45.19244" lon="5.96732">
        <ele>1925.9</ele>
        <time>2026-07-14T10:40:00Z</time>
      </trkpt>
      <trkpt lat="45.19244" lon="5.96732">
        <ele>1925.9</ele>
        <time>2026-07-14T10:40:01Z</time>
      </trkpt>
      <trkpt lat="45.19244" lon="5.96732">
        <ele>1925.9</ele>
        <time>2026-07-14T10:40:02Z</time>
      </trkpt>
      <trkpt lat="45.19244" lon="5.96732">
        <ele>1925.9</ele>
        <time>2026-07-14T10:40:03Z</time>
      </trkpt>
      <trkpt lat="45.19244" lon="5.96732">
        <ele>1925.9</ele>
        <time>2026-07-14T10:40:04Z</time>
      </trkpt>
      <trkpt lat="45.19244" lon="5.96732">
        <ele>1925.9</ele>
        <time>2026-07-14T10:40:05Z</time>
      </trkpt>
      <trkpt lat="45.19244" lon="5.96732">
        <ele>1925.9</ele>
        <time>2026-07-14T10:40:06Z</time>
      </trkpt>
      <trkpt lat="45.19244" lon="5.96732">
        <ele>1925.9</ele>
        <time>2026-07-14T10:40:07Z</time>
      </trkpt>
      <trkpt lat="45.19244" lon="5.96732">
        <ele>1925.9</ele>
        <time>2026-07-14T10:40:08Z</time>
      </trkpt>
      <trkpt lat="45.19244" lon="5.96732">
        <ele>1925.9</ele>
        <time>2026-07-14T10:40:09Z</time>
      </trkpt>
      <trkpt lat="45.19244" lon="5.96732">
        <ele>1925.9</ele>
        <time>2026-07-14T10:40:10Z</time>
      </trkpt>
      <trkpt lat="45.19244" lon="5.96732">
        <ele>1925.9</ele>
        <time>2026-07-14T10:40:11Z</time>
      </trkpt>
      <trkpt lat="45.19244" lon="5.96732">
        <ele>1925.9</ele>
        <time>2026-07-14T10:40:12Z</time>
      </trkpt>
      <trkpt lat="45.19244" lon="5.96732">
        <ele>1925.9</ele>
        <time>2026-07-14T10:40:13Z</time>
      </trkpt>
      <trkpt lat="45.19244" lon="5.96732">
        <ele>1925.9</ele>
        <time>2026-07-14T10:40:14Z</time>
      </trkpt>
      <trkpt lat="45.19244" lon="5.96732">
        <ele>1925.9</ele>
        <time>2026-07-14T10:40:15Z</time>
      </trkpt>
      <trkpt lat="45.19244" lon="5.96732">
        <ele>1925.9</ele>
        <time>2026-07-14T10:40:16Z</time>
      </trkpt>
      <trkpt lat="45.19244" lon="5.96732">
        <ele>1925.9</ele>
        <time>2026-07-14T10:40:17Z</time>
      </trkpt>
      <trkpt lat="45.19244" lon="5.96732">
        <ele>1925.9</ele>
        <time>2026-07-14T10:40:18Z</time>
      </trkpt>
      <trkpt lat="45.19244" lon="5.96732">
        <ele>1925.9</ele>
        <time>2026-07-14T10:40:19Z</time>
      </trkpt>
      <trkpt lat="45.19244" lon="5.96732">
        <ele>1925.9</ele>
        <time>2026-07-14T10:40:20Z</time>
      </trkpt>
      <trkpt lat="45.19244" lon="5.96732">
        <ele>1925.9</ele>
        <time>2026-07-14T10:40:21Z</time>
      </trkpt>
      <trkpt lat="45.19244" lon="5.96732">
        <ele>1925.9</ele>
        <time>2026-07-14T10:40:22Z</time>
      </trkpt>
      <trkpt lat="45.19244" lon="5.96732">
        <ele>1925.9</ele>
        <time>2026-07-14T10:40:23Z</time>
      </trkpt>
      <trkpt lat="45.19244" lon="5.96732">
        <ele>1925.9</ele>
        <time>2026-07-14T10:40:24Z</time>
      </trkpt>
      <trkpt lat="45.19244" lon="5.96732">
        <ele>1925.9</ele>
        <time>2026-07-14T10:40:25Z</time>
      </trkpt>
      <trkpt lat="45.19244" lon="5.96732">
        <ele>1925.9</ele>
        <time>2026-07-14T10:40:26Z</time>
      </trkpt>
      <trkpt lat="45.19244" lon="5.96732">
        <ele>1925.9</ele>
        <time>2026-07-14T10:40:27Z</time>
      </trkpt>
      <trkpt lat="45.19244" lon="5.96732">
        <ele>1925.9</ele>
        <time>2026-07-14T10:40:28Z</time>
      </trkpt>
      <trkpt lat="45.19244" lon="5.96732">
        <ele>1925.9</ele>
        <time>2026-07-14T10:40:29Z</time>
      </trkpt>
      <trkpt lat="45.19244" lon="5.96732">
        <ele>1925.9</ele>
        <time>2026-07-14T10:40:30Z</time>
      </trkpt>
      <trkpt lat="45.19244" lon="5.96732">
        <ele>1925.9</ele>
        <time>2026-07-14T10:40:31Z</time>
      </trkpt>
      <trkpt lat="45.19244" lon="5.96732">
        <ele>1925.9</ele>
        <time>2026-07-14T10:40:32Z</time>
      </trkpt>
      <trkpt lat="45.19244" lon="5.96732">
        <ele>1925.9</ele>
        <time>2026-07-14T10:40:33Z</time>
      </trkpt>
      <trkpt lat="45.19244" lon="5.96732">
        <ele>1925.9</ele>
        <time>2026-07-14T10:40:34Z</time>
      </trkpt>
      <trkpt lat="45.19244" lon="5.96732">
        <ele>1925.9</ele>
        <time>2026-07-14T10:40:35Z</time>
      </trkpt>
      <trkpt lat="45.19244" lon="5.96732">
        <ele>1925.9</ele>
        <time>2026-07-14T10:40:36Z</time>
      </trkpt>
      <trkpt lat="45.19244" lon="5.96732">
        <ele>1925.9</ele>
        <time>2026-07-14T10:40:37Z</time>
      </trkpt>
      <trkpt lat="45.19244" lon="5.96732">
        <ele>1925.9</ele>
        <time>2026-07-14T10:40:38Z</time>
      </trkpt>
      <trkpt lat="45.19244" lon="5.96732">
        <ele>1925.9</ele>
        <time>2026-07-14T10:40:39Z</time>
      </trkpt>
      <trkpt lat="45.19244" lon="5.96732">
        <ele>1925.9</ele>
        <time>2026-07-14T10:40:40Z</time>
      </trkpt>
      <trkpt lat="45.19244" lon="5.96732">
        <ele>1925.9</ele>
        <time>2026-07-14T10:40:41Z</time>
      </trkpt>
      <trkpt lat="45.19244" lon="5.96732">
        <ele>1925.9</ele>
        <time>2026-07-14T10:40:42Z</time>
      </trkpt>
      <trkpt lat="45.19244" lon="5.96732">
        <ele>1925.9</ele>
        <time>2026-07-14T10:40:43Z</time>
      </trkpt>
      <trkpt lat="45.19244" lon="5.96732">
        <ele>1925.9</ele>
        <time>2026-07-14T10:40:44Z</time>
      </trkpt>
      <trkpt lat="45.19244" lon="5.96732">
        <ele>1925.9</ele>
        <time>2026-07-14T10:40:45Z</time>
      </trkpt>
      <trkpt lat="45.19244" lon="5.96732">
        <ele>1925.9</ele>
        <time>2026-07-14T10:40:46Z</time>
      </trkpt>
      <trkpt lat="45.19244" lon="5.96732">
        <ele>1925.9</ele>
        <time>2026-07-14T10:40:47Z</time>
      </trkpt>
      <trkpt lat="45.19244" lon="5.96732">
        <ele>1925.9</ele>
        <time>2026-07-14T10:40:48Z</time>
      </trkpt>
      <trkpt lat="45.19244" lon="5.96732">
        <ele>1925.9</ele>
        <time>2026-07-14T10:40:49Z</time>
      </trkpt>
      <trkpt lat="45.19244" lon="5.96732">
        <ele>1925.9</ele>
        <time>2026-07-14T10:40:50Z</time>
      </trkpt>
      <trkpt lat="45.19244" lon="5.96732">
        <ele>1925.9</ele>
        <time>2026-07-14T10:40:51Z</time>
      </trkpt>
      <trkpt lat="45.19244" lon="5.96732">
        <ele>1925.9</ele>
        <time>2026-07-14T10:40:52Z</time>
      </trkpt>
      <trkpt lat="45.19244" lon="5.96732">
        <ele>1925.9</ele>
        <time>2026-07-14T10:40:53Z</time>
      </trkpt>
      <trkpt lat="45.19244" lon="5.96732">
        <ele>1925.9</ele>
        <time>2026-07-14T10:40:54Z</time>
      </trkpt>
      <trkpt lat="45.19244" lon="5.96732">
        <ele>1925.9</ele>
        <time>2026-07-14T10:40:55Z</time>
      </trkpt>
      <trkpt lat="45.19244" lon="5.96732">
        <ele>1925.9</ele>
        <time>2026-07-14T10:40:56Z</time>
      </trkpt>
      <trkpt lat="45.19244" lon="5.96732">
        <ele>1925.9</ele>
        <time>2026-07-14T10:40:57Z</time>
      </trkpt>
      <trkpt lat="45.19244" lon="5.96732">
        <ele>1925.9</ele>
        <time>2026-07-14T10:40:58Z</time>
      </trkpt>
      <trkpt lat="45.19244" lon="5.96732">
        <ele>1925.9</ele>
        <time>2026-07-14T10:40:59Z</time>
      </trkpt>
      <trkpt lat="45.19244" lon="5.96732">
        <ele>1925.9</ele>
        <time>2026-07-14T10:41:00Z</time>
      </trkpt>
      <trkpt lat="45.19244" lon="5.96732">
        <ele>1925.9</ele>
        <time>2026-07-14T10:41:01Z</time>
      </trkpt>
      <trkpt lat="45.19244" lon="5.96732">
        <ele>1925.9</ele>
        <time>2026-07-14T10:41:02Z</time>
      </trkpt>
      <trkpt lat="45.19244" lon="5.96732">
        <ele>1925.9</ele>
        <time>2026-07-14T10:41:03Z</time>
      </trkpt>
      <trkpt lat="45.19244" lon="5.96732">
        <ele>1925.9</ele>
        <time>2026-07-14T10:41:04Z</time>
      </trkpt>
      <trkpt lat="45.19244" lon="5.96732">
        <ele>1925.9</ele>
        <time>2026-07-14T10:41:05Z</time>
      </trkpt>
      <trkpt lat="45.19244" lon="5.96732">
        <ele>1925.9</ele>
        <time>2026-07-14T10:41:06Z</time>
      </trkpt>
      <trkpt lat="45.19244" lon="5.96732">
        <ele>1925.9</ele>
        <time>2026-07-14T10:41:07Z</time>
      </trkpt>
      <trkpt lat="45.19244" lon="5.96732">
        <ele>1925.9</ele>
        <time>2026-07-14T10:41:08Z</time>
      </trkpt>
      <trkpt lat="45.19244" lon="5.96732">
        <ele>1925.9</ele>
        <time>2026-07-14T10:41:09Z</time>
      </trkpt>
      <trkpt lat="45.19244" lon="5.96732">
        <ele>1925.9</ele>
        <time>2026-07-14T10:41:10Z</time>
      </trkpt>
      <trkpt lat="45.19244" lon="5.96732">
        <ele>1925.9</ele>
        <time>2026-07-14T10:41:11Z</time>
      </trkpt>
      <trkpt lat="45.19244" lon="5.96732">
        <ele>1925.9</ele>
        <time>2026-07-14T10:41:12Z</time>
      </trkpt>
      <trkpt lat="45.19244" lon="5.96732">
        <ele>1925.9</ele>
        <time>2026-07-14T10:41:13Z</time>
      </trkpt>
      <trkpt lat="45.19244" lon="5.96732">
        <ele>1925.9</ele>
        <time>2026-07-14T10:41:14Z</time>
      </trkpt>
      <trkpt lat="45.19244" lon="5.96732">
        <ele>1925.9</ele>
        <time>2026-07-14T10:41:15Z</time>
      </trkpt>
      <trkpt lat="45.19244" lon="5.96732">
        <ele>1925.9</ele>
        <time>2026-07-14T10:41:16Z</time>
      </trkpt>
      <trkpt lat="45.19244" lon="5.96732">
        <ele>1925.9</ele>
        <time>2026-07-14T10:41:17Z</time>
      </trkpt>
      <trkpt lat="45.19244" lon="5.96732">
        <ele>1925.9</ele>
        <time>2026-07-14T10:41:18Z</time>
      </trkpt>
      <trkpt lat="45.19244" lon="5.96732">
        <ele>1925.9</ele>
        <time>2026-07-14T10:41:19Z</time>
      </trkpt>
      <trkpt lat="45.19244" lon="5.96732">
        <ele>1925.9</ele>
        <time>2026-07-14T10:41:20Z</time>
      </trkpt>
      <trkpt lat="45.19244" lon="5.96732">
        <ele>1925.9</ele>
        <time>2026-07-14T10:41:21Z</time>
      </trkpt>
      <trkpt lat="45.19244" lon="5.96732">
        <ele>1925.9</ele>
        <time>2026-07-14T10:41:22Z</time>
      </trkpt>
      <trkpt lat="45.19244" lon="5.96732">
        <ele>1925.9</ele>
        <time>2026-07-14T10:41:23Z</time>
      </trkpt>
      <trkpt lat="45.19244" lon="5.96732">
        <ele>1925.9</ele>
        <time>2026-07-14T10:41:24Z</time>
      </trkpt>
      <trkpt lat="45.19244" lon="5.96732">
        <ele>1925.9</ele>
        <time>2026-07-14T10:41:25Z</time>
      </trkpt>
      <trkpt lat="45.19244" lon="5.96732">
        <ele>1925.9</ele>
        <time>2026-07-14T10:41:26Z</time>
      </trkpt>
      <trkpt lat="45.19244" lon="5.96732">
        <ele>1925.9</ele>
        <time>2026-07-14T10:41:27Z</time>
      </trkpt>
      <trkpt lat="45.19244" lon="5.96732">
        <ele>1925.9</ele>
        <time>2026-07-14T10:41:28Z</time>
      </trkpt>
      <trkpt lat="45.19244" lon="5.96732">
        <ele>1925.9</ele>
        <time>2026-07-14T10:41:29Z</time>
      </trkpt>
      <trkpt lat="45.19244" lon="5.96732">
        <ele>1925.9</ele>
        <time>2026-07-14T10:41:30Z</time>
      </trkpt>
      <trkpt lat="45.19244" lon="5.96732">
        <ele>1925.9</ele>
        <time>2026-07-14T10:41:31Z</time>
      </trkpt>
      <trkpt lat="45.19244" lon="5.96732">
        <ele>1925.9</ele>
        <time>2026-07-14T10:41:32Z</time>
      </trkpt>
      <trkpt lat="45.19244" lon="5.96732">
        <ele>1925.9</ele>
        <time>2026-07-14T10:41:33Z</time>
      </trkpt>
      <trkpt lat="45.19244" lon="5.96732">
        <ele>1925.9</ele>
        <time>2026-07-14T10:41:34Z</time>
      </trkpt>
      <trkpt lat="45.19244" lon="5.96732">
        <ele>1925.9</ele>
        <time>2026-07-14T10:41:35Z</time>
      </trkpt>
      <trkpt lat="45.19244" lon="5.96732">
        <ele>1925.9</ele>
        <time>2026-07-14T10:41:36Z</time>
      </trkpt>
      <trkpt lat="45.19244" lon="5.96732">
        <ele>1925.9</ele>
        <time>2026-07-14T10:41:37Z</time>
      </trkpt>
      <trkpt lat="45.19244" lon="5.96732">
        <ele>1925.9</ele>
        <time>2026-07-14T10:41:38Z</time>
      </trkpt>
      <trkpt lat="45.19244" lon="5.96732">
        <ele>1925.9</ele>
        <time>2026-07-14T10:41:39Z</time>
      </trkpt>
      <trkpt lat="45.19244" lon="5.96732">
        <ele>1925.9</ele>
        <time>2026-07-14T10:41:40Z</time>
      </trkpt>
      <trkpt lat="45.19244" lon="5.96732">
        <ele>1925.9</ele>
        <time>2026-07-14T10:41:41Z</time>
      </trkpt>
      <trkpt lat="45.19244" lon="5.96732">
        <ele>1925.9</ele>
        <time>2026-07-14T10:41:42Z</time>
      </trkpt>
      <trkpt lat="45.19244" lon="5.96732">
        <ele>1925.9</ele>
        <time>2026-07-14T10:41:43Z</time>
      </trkpt>
      <trkpt lat="45.19244" lon="5.96732">
        <ele>1925.9</ele>
        <time>2026-07-14T10:41:44Z</time>
      </trkpt>
      <trkpt lat="45.19244" lon="5.96732">
        <ele>1925.9</ele>
        <time>2026-07-14T10:41:45Z</time>
      </trkpt>
      <trkpt lat="45.19244" lon="5.96732">
        <ele>1925.9</ele>
        <time>2026-07-14T10:41:46Z</time>
      </trkpt>
      <trkpt lat="45.19244" lon="5.96732">
        <ele>1925.9</ele>
        <time>2026-07-14T10:41:47Z</time>
      </trkpt>
      <trkpt lat="45.19244" lon="5.96732">
        <ele>1925.9</ele>
        <time>2026-07-14T10:41:48Z</time>
      </trkpt>
      <trkpt lat="45.19244" lon="5.96732">
        <ele>1925.9</ele>
        <time>2026-07-14T10:41:49Z</time>
      </trkpt>
      <trkpt lat="45.19244" lon="5.96732">
        <ele>1925.9</ele>
        <time>2026-07-14T10:41:50Z</time>
      </trkpt>
      <trkpt lat="45.19244" lon="5.96732">
        <ele>1925.9</ele>
        <time>2026-07-14T10:41:51Z</time>
      </trkpt>
      <trkpt lat="45.19244" lon="5.96732">
        <ele>1925.9</ele>
        <time>2026-07-14T10:41:52Z</time>
      </trkpt>
      <trkpt lat="45.19244" lon="5.96732">
        <ele>1925.9</ele>
        <time>2026-07-14T10:41:53Z</time>
      </trkpt>
      <trkpt lat="45.19244" lon="5.96732">
        <ele>1925.9</ele>
        <time>2026-07-14T10:41:54Z</time>
      </trkpt>
      <trkpt lat="45.19244" lon="5.96732">
        <ele>1925.9</ele>
        <time>2026-07-14T10:41:55Z</time>
      </trkpt>
      <trkpt lat="45.19244" lon="5.96732">
        <ele>1925.9</ele>
        <time>2026-07-14T10:41:56Z</time>
      </trkpt>
      <trkpt lat="45.19244" lon="5.96732">
        <ele>1925.9</ele>
        <time>2026-07-14T10:41:57Z</time>
      </trkpt>
      <trkpt lat="45.19244" lon="5.96732">
        <ele>1925.9</ele>
        <time>2026-07-14T10:41:58Z</time>
      </trkpt>
      <trkpt lat="45.19244" lon="5.96732">
        <ele>1925.9</ele>
        <time>2026-07-14T10:41:59Z</time>
      </trkpt>
      <trkpt lat="45.19244" lon="5.96732">
        <ele>1925.9</ele>
        <time>2026-07-14T10:42:00Z</time>
      </trkpt>
      <trkpt lat="45.19244" lon="5.96732">
        <ele>1925.9</ele>
        <time>2026-07-14T10:42:01Z</time>
      </trkpt>
      <trkpt lat="45.19244" lon="5.96732">
        <ele>1925.9</ele>
        <time>2026-07-14T10:42:02Z</time>
      </trkpt>
      <trkpt lat="45.19244" lon="5.96732">
        <ele>1925.9</ele>
        <time>2026-07-14T10:42:03Z</time>
      </trkpt>
      <trkpt lat="45.19244" lon="5.96732">
        <ele>1925.9</ele>
        <time>2026-07-14T10:42:04Z</time>
      </trkpt>
      <trkpt lat="45.19244" lon="5.96732">
        <ele>1925.9</ele>
        <time>2026-07-14T10:42:05Z</time>
      </trkpt>
      <trkpt lat="45.19244" lon="5.96732">
        <ele>1925.9</ele>
        <time>2026-07-14T10:42:06Z</time>
      </trkpt>
      <trkpt lat="45.19244" lon="5.96732">
        <ele>1925.9</ele>
        <time>2026-07-14T10:42:07Z</time>
      </trkpt>
      <trkpt lat="45.19244" lon="5.96732">
        <ele>1925.9</ele>
        <time>2026-07-14T10:42:08Z</time>
      </trkpt>
      <trkpt lat="45.19244" lon="5.96732">
        <ele>1925.9</ele>
        <time>2026-07-14T10:42:09Z</time>
      </trkpt>
      <trkpt lat="45.19244" lon="5.96732">
        <ele>1925.9</ele>
        <time>2026-07-14T10:42:10Z</time>
      </trkpt>
      <trkpt lat="45.19244" lon="5.96732">
        <ele>1925.9</ele>
        <time>2026-07-14T10:42:11Z</time>
      </trkpt>
      <trkpt lat="45.19244" lon="5.96732">
        <ele>1925.9</ele>
        <time>2026-07-14T10:42:12Z</time>
      </trkpt>
      <trkpt lat="45.19244" lon="5.96732">
        <ele>1925.9</ele>
        <time>2026-07-14T10:42:13Z</time>
      </trkpt>
      <trkpt lat="45.19244" lon="5.96732">
        <ele>1925.9</ele>
        <time>2026-07-14T10:42:14Z</time>
      </trkpt>
      <trkpt lat="45.19244" lon="5.96732">
        <ele>1925.9</ele>
        <time>2026-07-14T10:42:15Z</time>
      </trkpt>
      <trkpt lat="45.19244" lon="5.96732">
        <ele>1925.9</ele>
        <time>2026-07-14T10:42:16Z</time>
      </trkpt>
      <trkpt lat="45.19244" lon="5.96732">
        <ele>1925.9</ele>
        <time>2026-07-14T10:42:17Z</time>
      </trkpt>
      <trkpt lat="45.19244" lon="5.96732">
        <ele>1925.9</ele>
        <time>2026-07-14T10:42:18Z</time>
      </trkpt>
      <trkpt lat="45.19244" lon="5.96732">
        <ele>1925.9</ele>
        <time>2026-07-14T10:42:19Z</time>
      </trkpt>
      <trkpt lat="45.19244" lon="5.96732">
        <ele>1925.9</ele>
        <time>2026-07-14T10:42:20Z</time>
      </trkpt>
      <trkpt lat="45.19244" lon="5.96732">
        <ele>1925.9</ele>
        <time>2026-07-14T10:42:21Z</time>
      </trkpt>
      <trkpt lat="45.19244" lon="5.96732">
        <ele>1925.9</ele>
        <time>2026-07-14T10:42:22Z</time>
      </trkpt>
      <trkpt lat="45.19244" lon="5.96732">
        <ele>1925.9</ele>
        <time>2026-07-14T10:42:23Z</time>
      </trkpt>
      <trkpt lat="45.19244" lon="5.96732">
        <ele>1925.9</ele>
        <time>2026-07-14T10:42:24Z</time>
      </trkpt>
      <trkpt lat="45.19244" lon="5.96732">
        <ele>1925.9</ele>
        <time>2026-07-14T10:42:25Z</time>
      </trkpt>
      <trkpt lat="45.19244" lon="5.96732">
        <ele>1925.9</ele>
        <time>2026-07-14T10:42:26Z</time>
      </trkpt>
      <trkpt lat="45.19244" lon="5.96732">
        <ele>1925.9</ele>
        <time>2026-07-14T10:42:27Z</time>
      </trkpt>
      <trkpt lat="45.19244" lon="5.96732">
        <ele>1925.9</ele>
        <time>2026-07-14T10:42:28Z</time>
      </trkpt>
      <trkpt lat="45.19244" lon="5.96732">
        <ele>1925.9</ele>
        <time>2026-07-14T10:42:29Z</time>
      </trkpt>
      <trkpt lat="45.19244" lon="5.96732">
        <ele>1925.9</ele>
        <time>2026-07-14T10:42:30Z</time>
      </trkpt>
      <trkpt lat="45.19244" lon="5.96732">
        <ele>1925.9</ele>
        <time>2026-07-14T10:42:31Z</time>
      </trkpt>
      <trkpt lat="45.19244" lon="5.96732">
        <ele>1925.9</ele>
        <time>2026-07-14T10:42:32Z</time>
      </trkpt>
      <trkpt lat="45.19244" lon="5.96732">
        <ele>1925.9</ele>
        <time>2026-07-14T10:42:33Z</time>
      </trkpt>
      <trkpt lat="45.19244" lon="5.96732">
        <ele>1925.9</ele>
        <time>2026-07-14T10:42:34Z</time>
      </trkpt>
      <trkpt lat="45.19244" lon="5.96732">
        <ele>1925.9</ele>
        <time>2026-07-14T10:42:35Z</time>
      </trkpt>
      <trkpt lat="45.19244" lon="5.96732">
        <ele>1925.9</ele>
        <time>2026-07-14T10:42:36Z</time>
      </trkpt>
      <trkpt lat="45.19244" lon="5.96732">
        <ele>1925.9</ele>
        <time>2026-07-14T10:42:37Z</time>
      </trkpt>
      <trkpt lat="45.19244" lon="5.96732">
        <ele>1925.9</ele>
        <time>2026-07-14T10:42:38Z</time>
      </trkpt>
      <trkpt lat="45.19244" lon="5.96732">
        <ele>1925.9</ele>
        <time>2026-07-14T10:42:39Z</time>
      </trkpt>
      <trkpt lat="45.19244" lon="5.96732">
        <ele>1925.9</ele>
        <time>2026-07-14T10:42:40Z</time>
      </trkpt>
      <trkpt lat="45.19244" lon="5.96732">
        <ele>1925.9</ele>
        <time>2026-07-14T10:42:41Z</time>
      </trkpt>
      <trkpt lat="45.19244" lon="5.96732">
        <ele>1925.9</ele>
        <time>2026-07-14T10:42:42Z</time>
      </trkpt>
      <trkpt lat="45.19244" lon="5.96732">
        <ele>1925.9</ele>
        <time>2026-07-14T10:42:43Z</time>
      </trkpt>
      <trkpt lat="45.19244" lon="5.96732">
        <ele>1925.9</ele>
        <time>2026-07-14T10:42:44Z</time>
      </trkpt>
      <trkpt lat="45.19244" lon="5.96732">
        <ele>1925.9</ele>
        <time>2026-07-14T10:42:45Z</time>
      </trkpt>
      <trkpt lat="45.19244" lon="5.96732">
        <ele>1925.9</ele>
        <time>2026-07-14T10:42:46Z</time>
      </trkpt>
      <trkpt lat="45.19244" lon="5.96732">
        <ele>1925.9</ele>
        <time>2026-07-14T10:42:47Z</time>
      </trkpt>
      <trkpt lat="45.19244" lon="5.96732">
        <ele>1925.9</ele>
        <time>2026-07-14T10:42:48Z</time>
      </trkpt>
      <trkpt lat="45.19244" lon="5.96732">
        <ele>1925.9</ele>
        <time>2026-07-14T10:42:49Z</time>
      </trkpt>
      <trkpt lat="45.19244" lon="5.96732">
        <ele>1925.9</ele>
        <time>2026-07-14T10:42:50Z</time>
      </trkpt>
      <trkpt lat="45.19244" lon="5.96732">
        <ele>1925.9</ele>
        <time>2026-07-14T10:42:51Z</time>
      </trkpt>
      <trkpt lat="45.19244" lon="5.96732">
        <ele>1925.9</ele>
        <time>2026-07-14T10:42:52Z</time>
      </trkpt>
      <trkpt lat="45.19244" lon="5.96732">
        <ele>1925.9</ele>
        <time>2026-07-14T10:42:53Z</time>
      </trkpt>
      <trkpt lat="45.19244" lon="5.96732">
        <ele>1925.9</ele>
        <time>2026-07-14T10:42:54Z</time>
      </trkpt>
      <trkpt lat="45.19244" lon="5.96732">
        <ele>1925.9</ele>
        <time>2026-07-14T10:42:55Z</time>
      </trkpt>
      <trkpt lat="45.19244" lon="5.96732">
        <ele>1925.9</ele>
        <time>2026-07-14T10:42:56Z</time>
      </trkpt>
      <trkpt lat="45.19244" lon="5.96732">
        <ele>1925.9</ele>
        <time>2026-07-14T10:42:57Z</time>
      </trkpt>
      <trkpt lat="45.19244" lon="5.96732">
        <ele>1925.9</ele>
        <time>2026-07-14T10:42:58Z</time>
      </trkpt>
      <trkpt lat="45.19244" lon="5.96732">
        <ele>1925.9</ele>
        <time>2026-07-14T10:42:59Z</time>
      </trkpt>
      <trkpt lat="45.19244" lon="5.96732">
        <ele>1925.9</ele>
        <time>2026-07-14T10:43:00Z</time>
      </trkpt>
      <trkpt lat="45.19244" lon="5.96732">
        <ele>1925.9</ele>
        <time>2026-07-14T10:43:01Z</time>
      </trkpt>
      <trkpt lat="45.19244" lon="5.96732">
        <ele>1925.9</ele>
        <time>2026-07-14T10:43:02Z</time>
      </trkpt>
      <trkpt lat="45.19244" lon="5.96732">
        <ele>1925.9</ele>
        <time>2026-07-14T10:43:03Z</time>
      </trkpt>
      <trkpt lat="45.19244" lon="5.96732">
        <ele>1925.9</ele>
        <time>2026-07-14T10:43:04Z</time>
      </trkpt>
      <trkpt lat="45.19244" lon="5.96732">
        <ele>1925.9</ele>
        <time>2026-07-14T10:43:05Z</time>
      </trkpt>
      <trkpt lat="45.19244" lon="5.96732">
        <ele>1925.9</ele>
        <time>2026-07-14T10:43:06Z</time>
      </trkpt>
      <trkpt lat="45.19244" lon="5.96732">
        <ele>1925.9</ele>
        <time>2026-07-14T10:43:07Z</time>
      </trkpt>
      <trkpt lat="45.19244" lon="5.96732">
        <ele>1925.9</ele>
        <time>2026-07-14T10:43:08Z</time>
      </trkpt>
      <trkpt lat="45.19244" lon="5.96732">
        <ele>1925.9</ele>
        <time>2026-07-14T10:43:09Z</time>
      </trkpt>
      <trkpt lat="45.19244" lon="5.96732">
        <ele>1925.9</ele>
        <time>2026-07-14T10:43:10Z</time>
      </trkpt>
      <trkpt lat="45.19244" lon="5.96732">
        <ele>1925.9</ele>
        <time>2026-07-14T10:43:11Z</time>
      </trkpt>
      <trkpt lat="45.19244" lon="5.96732">
        <ele>1925.9</ele>
        <time>2026-07-14T10:43:12Z</time>
      </trkpt>
      <trkpt lat="45.19244" lon="5.96732">
        <ele>1925.9</ele>
        <time>2026-07-14T10:43:13Z</time>
      </trkpt>
      <trkpt lat="45.19244" lon="5.96732">
        <ele>1925.9</ele>
        <time>2026-07-14T10:43:14Z</time>
      </trkpt>
      <trkpt lat="45.19244" lon="5.96732">
        <ele>1925.9</ele>
        <time>2026-07-14T10:43:15Z</time>
      </trkpt>
      <trkpt lat="45.19244" lon="5.96732">
        <ele>1925.9</ele>
        <time>2026-07-14T10:43:16Z</time>
      </trkpt>
      <trkpt lat="45.19244" lon="5.96732">
        <ele>1925.9</ele>
        <time>2026-07-14T10:43:17Z</time>
      </trkpt>
      <trkpt lat="45.19244" lon="5.96732">
        <ele>1925.9</ele>
        <time>2026-07-14T10:43:18Z</time>
      </trkpt>
      <trkpt lat="45.19244" lon="5.96732">
        <ele>1925.9</ele>
        <time>2026-07-14T10:43:19Z</time>
      </trkpt>
      <trkpt lat="45.19244" lon="5.96732">
        <ele>1925.9</ele>
        <time>2026-07-14T10:43:20Z</time>
      </trkpt>
      <trkpt lat="45.19244" lon="5.96732">
        <ele>1925.9</ele>
        <time>2026-07-14T10:43:21Z</time>
      </trkpt>
      <trkpt lat="45.19244" lon="5.96732">
        <ele>1925.9</ele>
        <time>2026-07-14T10:43:22Z</time>
      </trkpt>
      <trkpt lat="45.19244" lon="5.96732">
        <ele>1925.9</ele>
        <time>2026-07-14T10:43:23Z</time>
      </trkpt>
      <trkpt lat="45.19244" lon="5.96732">
        <ele>1925.9</ele>
        <time>2026-07-14T10:43:24Z</time>
      </trkpt>
      <trkpt lat="45.19244" lon="5.96732">
        <ele>1925.9</ele>
        <time>2026-07-14T10:43:25Z</time>
      </trkpt>
      <trkpt lat="45.19244" lon="5.96732">
        <ele>1925.9</ele>
        <time>2026-07-14T10:43:26Z</time>
      </trkpt>
      <trkpt lat="45.19244" lon="5.96732">
        <ele>1925.9</ele>
        <time>2026-07-14T10:43:27Z</time>
      </trkpt>
      <trkpt lat="45.19244" lon="5.96732">
        <ele>1925.9</ele>
        <time>2026-07-14T10:43:28Z</time>
      </trkpt>
      <trkpt lat="45.19244" lon="5.96732">
        <ele>1925.9</ele>
        <time>2026-07-14T10:43:29Z</time>
      </trkpt>
      <trkpt lat="45.19244" lon="5.96732">
        <ele>1925.9</ele>
        <time>2026-07-14T10:43:30Z</time>
      </trkpt>
      <trkpt lat="45.19244" lon="5.96732">
        <ele>1925.9</ele>
        <time>2026-07-14T10:43:31Z</time>
      </trkpt>
      <trkpt lat="45.19244" lon="5.96732">
        <ele>1925.9</ele>
        <time>2026-07-14T10:43:32Z</time>
      </trkpt>
      <trkpt lat="45.19244" lon="5.96732">
        <ele>1925.9</ele>
        <time>2026-07-14T10:43:33Z</time>
      </trkpt>
      <trkpt lat="45.19244" lon="5.96732">
        <ele>1925.9</ele>
        <time>2026-07-14T10:43:34Z</time>
      </trkpt>
      <trkpt lat="45.19244" lon="5.96732">
        <ele>1925.9</ele>
        <time>2026-07-14T10:43:35Z</time>
      </trkpt>
      <trkpt lat="45.19244" lon="5.96732">
        <ele>1925.9</ele>
        <time>2026-07-14T10:43:36Z</time>
      </trkpt>
      <trkpt lat="45.19244" lon="5.96732">
        <ele>1925.9</ele>
        <time>2026-07-14T10:43:37Z</time>
      </trkpt>
      <trkpt lat="45.19244" lon="5.96732">
        <ele>1925.9</ele>
        <time>2026-07-14T10:43:38Z</time>
      </trkpt>
      <trkpt lat="45.19244" lon="5.96732">
        <ele>1925.9</ele>
        <time>2026-07-14T10:43:39Z</time>
      </trkpt>
      <trkpt lat="45.19244" lon="5.96732">
        <ele>1925.9</ele>
        <time>2026-07-14T10:43:40Z</time>
      </trkpt>
      <trkpt lat="45.19244" lon="5.96732">
        <ele>1925.9</ele>
        <time>2026-07-14T10:43:41Z</time>
      </trkpt>
      <trkpt lat="45.19244" lon="5.96732">
        <ele>1925.9</ele>
        <time>2026-07-14T10:43:42Z</time>
      </trkpt>
      <trkpt lat="45.19244" lon="5.96732">
        <ele>1925.9</ele>
        <time>2026-07-14T10:43:43Z</time>
      </trkpt>
      <trkpt lat="45.19244" lon="5.96732">
        <ele>1925.9</ele>
        <time>2026-07-14T10:43:44Z</time>
      </trkpt>
      <trkpt lat="45.19244" lon="5.96732">
        <ele>1925.9</ele>
        <time>2026-07-14T10:43:45Z</time>
      </trkpt>
      <trkpt lat="45.19244" lon="5.96732">
        <ele>1925.9</ele>
        <time>2026-07-14T10:43:46Z</time>
      </trkpt>
      <trkpt lat="45.19244" lon="5.96732">
        <ele>1925.9</ele>
        <time>2026-07-14T10:43:47Z</time>
      </trkpt>
      <trkpt lat="45.19244" lon="5.96732">
        <ele>1925.9</ele>
        <time>2026-07-14T10:43:48Z</time>
      </trkpt>
      <trkpt lat="45.19244" lon="5.96732">
        <ele>1925.9</ele>
        <time>2026-07-14T10:43:49Z</time>
      </trkpt>
      <trkpt lat="45.19244" lon="5.96732">
        <ele>1925.9</ele>
        <time>2026-07-14T10:43:50Z</time>
      </trkpt>
      <trkpt lat="45.19244" lon="5.96732">
        <ele>1925.9</ele>
        <time>2026-07-14T10:43:51Z</time>
      </trkpt>
      <trkpt lat="45.19244" lon="5.96732">
        <ele>1925.9</ele>
        <time>2026-07-14T10:43:52Z</time>
      </trkpt>
      <trkpt lat="45.19244" lon="5.96732">
        <ele>1925.9</ele>
        <time>2026-07-14T10:43:53Z</time>
      </trkpt>
      <trkpt lat="45.19244" lon="5.96732">
        <ele>1925.9</ele>
        <time>2026-07-14T10:43:54Z</time>
      </trkpt>
      <trkpt lat="45.19244" lon="5.96732">
        <ele>1925.9</ele>
        <time>2026-07-14T10:43:55Z</time>
      </trkpt>
      <trkpt lat="45.19244" lon="5.96732">
        <ele>1925.9</ele>
        <time>2026-07-14T10:43:56Z</time>
      </trkpt>
      <trkpt lat="45.19244" lon="5.96732">
        <ele>1925.9</ele>
        <time>2026-07-14T10:43:57Z</time>
      </trkpt>
      <trkpt lat="45.19244" lon="5.96732">
        <ele>1925.9</ele>
        <time>2026-07-14T10:43:58Z</time>
      </trkpt>
      <trkpt lat="45.19244" lon="5.96732">
        <ele>1925.9</ele>
        <time>2026-07-14T10:43:59Z</time>
      </trkpt>
      <trkpt lat="45.19244" lon="5.96732">
        <ele>1925.9</ele>
        <time>2026-07-14T10:44:00Z</time>
      </trkpt>
      <trkpt lat="45.19244" lon="5.96732">
        <ele>1925.9</ele>
        <time>2026-07-14T10:44:01Z</time>
      </trkpt>
      <trkpt lat="45.19244" lon="5.96732">
        <ele>1925.9</ele>
        <time>2026-07-14T10:44:02Z</time>
      </trkpt>
      <trkpt lat="45.19244" lon="5.96732">
        <ele>1925.9</ele>
        <time>2026-07-14T10:44:03Z</time>
      </trkpt>
      <trkpt lat="45.19244" lon="5.96732">
        <ele>1925.9</ele>
        <time>2026-07-14T10:44:04Z</time>
      </trkpt>
      <trkpt lat="45.19244" lon="5.96732">
        <ele>1925.9</ele>
        <time>2026-07-14T10:44:05Z</time>
      </trkpt>
      <trkpt lat="45.19244" lon="5.96732">
        <ele>1925.9</ele>
        <time>2026-07-14T10:44:06Z</time>
      </trkpt>
      <trkpt lat="45.19244" lon="5.96732">
        <ele>1925.9</ele>
        <time>2026-07-14T10:44:07Z</time>
      </trkpt>
      <trkpt lat="45.19244" lon="5.96732">
        <ele>1925.9</ele>
        <time>2026-07-14T10:44:08Z</time>
      </trkpt>
      <trkpt lat="45.19244" lon="5.96732">
        <ele>1925.9</ele>
        <time>2026-07-14T10:44:09Z</time>
      </trkpt>
      <trkpt lat="45.19244" lon="5.96732">
        <ele>1925.9</ele>
        <time>2026-07-14T10:44:10Z</time>
      </trkpt>
      <trkpt lat="45.19244" lon="5.96732">
        <ele>1925.9</ele>
        <time>2026-07-14T10:44:11Z</time>
      </trkpt>
      <trkpt lat="45.19244" lon="5.96732">
        <ele>1925.9</ele>
        <time>2026-07-14T10:44:12Z</time>
      </trkpt>
      <trkpt lat="45.19244" lon="5.96732">
        <ele>1925.9</ele>
        <time>2026-07-14T10:44:13Z</time>
      </trkpt>
      <trkpt lat="45.19244" lon="5.96732">
        <ele>1925.9</ele>
        <time>2026-07-14T10:44:14Z</time>
      </trkpt>
      <trkpt lat="45.19244" lon="5.96732">
        <ele>1925.9</ele>
        <time>2026-07-14T10:44:15Z</time>
      </trkpt>
      <trkpt lat="45.19244" lon="5.96732">
        <ele>1925.9</ele>
        <time>2026-07-14T10:44:16Z</time>
      </trkpt>
      <trkpt lat="45.19244" lon="5.96732">
        <ele>1925.9</ele>
        <time>2026-07-14T10:44:17Z</time>
      </trkpt>
      <trkpt lat="45.19244" lon="5.96732">
        <ele>1925.9</ele>
        <time>2026-07-14T10:44:18Z</time>
      </trkpt>
      <trkpt lat="45.19244" lon="5.96732">
        <ele>1925.9</ele>
        <time>2026-07-14T10:44:19Z</time>
      </trkpt>
      <trkpt lat="45.19244" lon="5.96732">
        <ele>1925.9</ele>
        <time>2026-07-14T10:44:20Z</time>
      </trkpt>
      <trkpt lat="45.19244" lon="5.96732">
        <ele>1925.9</ele>
        <time>2026-07-14T10:44:21Z</time>
      </trkpt>
      <trkpt lat="45.19244" lon="5.96732">
        <ele>1925.9</ele>
        <time>2026-07-14T10:44:22Z</time>
      </trkpt>
      <trkpt lat="45.19244" lon="5.96732">
        <ele>1925.9</ele>
        <time>2026-07-14T10:44:23Z</time>
      </trkpt>
      <trkpt lat="45.19244" lon="5.96732">
        <ele>1925.9</ele>
        <time>2026-07-14T10:44:24Z</time>
      </trkpt>
      <trkpt lat="45.19244" lon="5.96732">
        <ele>1925.9</ele>
        <time>2026-07-14T10:44:25Z</time>
      </trkpt>
      <trkpt lat="45.19244" lon="5.96732">
        <ele>1925.9</ele>
        <time>2026-07-14T10:44:26Z</time>
      </trkpt>
      <trkpt lat="45.19244" lon="5.96732">
        <ele>1925.9</ele>
        <time>2026-07-14T10:44:27Z</time>
      </trkpt>
      <trkpt lat="45.19244" lon="5.96732">
        <ele>1925.9</ele>
        <time>2026-07-14T10:44:28Z</time>
      </trkpt>
      <trkpt lat="45.19243" lon="5.96733">
        <ele>1925.9</ele>
        <time>2026-07-14T10:44:29Z</time>
      </trkpt>
      <trkpt lat="45.19243" lon="5.96733">
        <ele>1925.9</ele>
        <time>2026-07-14T10:44:30Z</time>
      </trkpt>
      <trkpt lat="45.19243" lon="5.96733">
        <ele>1925.9</ele>
        <time>2026-07-14T10:44:31Z</time>
      </trkpt>
      <trkpt lat="45.19243" lon="5.96733">
        <ele>1925.9</ele>
        <time>2026-07-14T10:44:32Z</time>
      </trkpt>
      <trkpt lat="45.19243" lon="5.96733">
        <ele>1925.9</ele>
        <time>2026-07-14T10:44:33Z</time>
      </trkpt>
      <trkpt lat="45.19243" lon="5.96733">
        <ele>1925.9</ele>
        <time>2026-07-14T10:44:34Z</time>
      </trkpt>
      <trkpt lat="45.19243" lon="5.96733">
        <ele>1925.9</ele>
        <time>2026-07-14T10:44:35Z</time>
      </trkpt>
      <trkpt lat="45.19243" lon="5.96733">
        <ele>1925.9</ele>
        <time>2026-07-14T10:44:36Z</time>
      </trkpt>
      <trkpt lat="45.19243" lon="5.96733">
        <ele>1925.9</ele>
        <time>2026-07-14T10:44:37Z</time>
      </trkpt>
      <trkpt lat="45.19243" lon="5.96733">
        <ele>1925.9</ele>
        <time>2026-07-14T10:44:38Z</time>
      </trkpt>
      <trkpt lat="45.19243" lon="5.96733">
        <ele>1925.9</ele>
        <time>2026-07-14T10:44:39Z</time>
      </trkpt>
      <trkpt lat="45.19243" lon="5.96733">
        <ele>1925.9</ele>
        <time>2026-07-14T10:44:40Z</time>
      </trkpt>
      <trkpt lat="45.19243" lon="5.96733">
        <ele>1925.9</ele>
        <time>2026-07-14T10:44:41Z</time>
      </trkpt>
      <trkpt lat="45.19243" lon="5.96733">
        <ele>1925.9</ele>
        <time>2026-07-14T10:44:42Z</time>
      </trkpt>
      <trkpt lat="45.19243" lon="5.96733">
        <ele>1925.9</ele>
        <time>2026-07-14T10:44:43Z</time>
      </trkpt>
      <trkpt lat="45.19243" lon="5.96733">
        <ele>1925.9</ele>
        <time>2026-07-14T10:44:44Z</time>
      </trkpt>
      <trkpt lat="45.19243" lon="5.96733">
        <ele>1925.9</ele>
        <time>2026-07-14T10:44:45Z</time>
      </trkpt>
      <trkpt lat="45.19243" lon="5.96733">
        <ele>1925.9</ele>
        <time>2026-07-14T10:44:46Z</time>
      </trkpt>
      <trkpt lat="45.19243" lon="5.96732">
        <ele>1925.9</ele>
        <time>2026-07-14T10:44:47Z</time>
      </trkpt>
      <trkpt lat="45.19243" lon="5.96732">
        <ele>1925.9</ele>
        <time>2026-07-14T10:44:48Z</time>
      </trkpt>
      <trkpt lat="45.19243" lon="5.96732">
        <ele>1925.9</ele>
        <time>2026-07-14T10:44:49Z</time>
      </trkpt>
      <trkpt lat="45.19243" lon="5.96732">
        <ele>1925.9</ele>
        <time>2026-07-14T10:44:50Z</time>
      </trkpt>
      <trkpt lat="45.19243" lon="5.96732">
        <ele>1925.9</ele>
        <time>2026-07-14T10:44:51Z</time>
      </trkpt>
      <trkpt lat="45.19243" lon="5.96732">
        <ele>1925.9</ele>
        <time>2026-07-14T10:44:52Z</time>
      </trkpt>
      <trkpt lat="45.19243" lon="5.96732">
        <ele>1925.9</ele>
        <time>2026-07-14T10:44:53Z</time>
      </trkpt>
      <trkpt lat="45.19243" lon="5.96732">
        <ele>1925.9</ele>
        <time>2026-07-14T10:44:54Z</time>
      </trkpt>
      <trkpt lat="45.19243" lon="5.96732">
        <ele>1925.9</ele>
        <time>2026-07-14T10:44:55Z</time>
      </trkpt>
      <trkpt lat="45.19243" lon="5.96732">
        <ele>1925.9</ele>
        <time>2026-07-14T10:44:56Z</time>
      </trkpt>
      <trkpt lat="45.19243" lon="5.96732">
        <ele>1925.9</ele>
        <time>2026-07-14T10:44:57Z</time>
      </trkpt>
      <trkpt lat="45.19243" lon="5.96732">
        <ele>1925.9</ele>
        <time>2026-07-14T10:44:58Z</time>
      </trkpt>
      <trkpt lat="45.19243" lon="5.96732">
        <ele>1925.9</ele>
        <time>2026-07-14T10:44:59Z</time>
      </trkpt>
      <trkpt lat="45.19243" lon="5.96732">
        <ele>1925.9</ele>
        <time>2026-07-14T10:45:00Z</time>
      </trkpt>
      <trkpt lat="45.19243" lon="5.96732">
        <ele>1925.9</ele>
        <time>2026-07-14T10:45:01Z</time>
      </trkpt>
      <trkpt lat="45.19243" lon="5.96732">
        <ele>1925.9</ele>
        <time>2026-07-14T10:45:02Z</time>
      </trkpt>
      <trkpt lat="45.19243" lon="5.96732">
        <ele>1925.9</ele>
        <time>2026-07-14T10:45:03Z</time>
      </trkpt>
      <trkpt lat="45.19243" lon="5.96732">
        <ele>1925.9</ele>
        <time>2026-07-14T10:45:04Z</time>
      </trkpt>
      <trkpt lat="45.19243" lon="5.96732">
        <ele>1925.9</ele>
        <time>2026-07-14T10:45:05Z</time>
      </trkpt>
      <trkpt lat="45.19243" lon="5.96732">
        <ele>1925.9</ele>
        <time>2026-07-14T10:45:06Z</time>
      </trkpt>
      <trkpt lat="45.19243" lon="5.96732">
        <ele>1925.9</ele>
        <time>2026-07-14T10:45:07Z</time>
      </trkpt>
      <trkpt lat="45.19243" lon="5.96732">
        <ele>1925.9</ele>
        <time>2026-07-14T10:45:08Z</time>
      </trkpt>
      <trkpt lat="45.19243" lon="5.96732">
        <ele>1925.9</ele>
        <time>2026-07-14T10:45:09Z</time>
      </trkpt>
      <trkpt lat="45.19243" lon="5.96732">
        <ele>1925.9</ele>
        <time>2026-07-14T10:45:10Z</time>
      </trkpt>
      <trkpt lat="45.19243" lon="5.96732">
        <ele>1925.9</ele>
        <time>2026-07-14T10:45:11Z</time>
      </trkpt>
      <trkpt lat="45.19243" lon="5.96732">
        <ele>1925.9</ele>
        <time>2026-07-14T10:45:12Z</time>
      </trkpt>
      <trkpt lat="45.19243" lon="5.96732">
        <ele>1925.9</ele>
        <time>2026-07-14T10:45:13Z</time>
      </trkpt>
      <trkpt lat="45.19243" lon="5.96732">
        <ele>1925.9</ele>
        <time>2026-07-14T10:45:14Z</time>
      </trkpt>
      <trkpt lat="45.19243" lon="5.96732">
        <ele>1925.9</ele>
        <time>2026-07-14T10:45:15Z</time>
      </trkpt>
      <trkpt lat="45.19243" lon="5.96732">
        <ele>1925.9</ele>
        <time>2026-07-14T10:45:16Z</time>
      </trkpt>
      <trkpt lat="45.19243" lon="5.96732">
        <ele>1925.9</ele>
        <time>2026-07-14T10:45:17Z</time>
      </trkpt>
      <trkpt lat="45.19243" lon="5.96732">
        <ele>1925.9</ele>
        <time>2026-07-14T10:45:18Z</time>
      </trkpt>
      <trkpt lat="45.19243" lon="5.96732">
        <ele>1925.9</ele>
        <time>2026-07-14T10:45:19Z</time>
      </trkpt>
      <trkpt lat="45.19243" lon="5.96732">
        <ele>1925.9</ele>
        <time>2026-07-14T10:45:20Z</time>
      </trkpt>
      <trkpt lat="45.19243" lon="5.96732">
        <ele>1925.9</ele>
        <time>2026-07-14T10:45:21Z</time>
      </trkpt>
      <trkpt lat="45.19243" lon="5.96732">
        <ele>1925.9</ele>
        <time>2026-07-14T10:45:22Z</time>
      </trkpt>
      <trkpt lat="45.19243" lon="5.96732">
        <ele>1925.9</ele>
        <time>2026-07-14T10:45:23Z</time>
      </trkpt>
      <trkpt lat="45.19243" lon="5.96732">
        <ele>1925.9</ele>
        <time>2026-07-14T10:45:24Z</time>
      </trkpt>
      <trkpt lat="45.19243" lon="5.96732">
        <ele>1925.9</ele>
        <time>2026-07-14T10:45:25Z</time>
      </trkpt>
      <trkpt lat="45.19243" lon="5.96732">
        <ele>1925.9</ele>
        <time>2026-07-14T10:45:26Z</time>
      </trkpt>
      <trkpt lat="45.19243" lon="5.96732">
        <ele>1925.9</ele>
        <time>2026-07-14T10:45:27Z</time>
      </trkpt>
      <trkpt lat="45.19243" lon="5.96732">
        <ele>1925.9</ele>
        <time>2026-07-14T10:45:28Z</time>
      </trkpt>
      <trkpt lat="45.19243" lon="5.96732">
        <ele>1925.9</ele>
        <time>2026-07-14T10:45:29Z</time>
      </trkpt>
      <trkpt lat="45.19243" lon="5.96732">
        <ele>1925.9</ele>
        <time>2026-07-14T10:45:30Z</time>
      </trkpt>
      <trkpt lat="45.19243" lon="5.96732">
        <ele>1925.9</ele>
        <time>2026-07-14T10:45:31Z</time>
      </trkpt>
      <trkpt lat="45.19243" lon="5.96732">
        <ele>1925.9</ele>
        <time>2026-07-14T10:45:32Z</time>
      </trkpt>
      <trkpt lat="45.19243" lon="5.96732">
        <ele>1925.9</ele>
        <time>2026-07-14T10:45:33Z</time>
      </trkpt>
      <trkpt lat="45.19243" lon="5.96732">
        <ele>1925.9</ele>
        <time>2026-07-14T10:45:34Z</time>
      </trkpt>
      <trkpt lat="45.19243" lon="5.96732">
        <ele>1925.9</ele>
        <time>2026-07-14T10:45:35Z</time>
      </trkpt>
      <trkpt lat="45.19243" lon="5.96732">
        <ele>1925.9</ele>
        <time>2026-07-14T10:45:36Z</time>
      </trkpt>
      <trkpt lat="45.19243" lon="5.96732">
        <ele>1925.9</ele>
        <time>2026-07-14T10:45:37Z</time>
      </trkpt>
      <trkpt lat="45.19243" lon="5.96732">
        <ele>1925.9</ele>
        <time>2026-07-14T10:45:38Z</time>
      </trkpt>
      <trkpt lat="45.19243" lon="5.96732">
        <ele>1925.9</ele>
        <time>2026-07-14T10:45:39Z</time>
      </trkpt>
      <trkpt lat="45.19243" lon="5.96732">
        <ele>1925.9</ele>
        <time>2026-07-14T10:45:40Z</time>
      </trkpt>
      <trkpt lat="45.19243" lon="5.96732">
        <ele>1925.9</ele>
        <time>2026-07-14T10:45:41Z</time>
      </trkpt>
      <trkpt lat="45.19243" lon="5.96732">
        <ele>1925.9</ele>
        <time>2026-07-14T10:45:42Z</time>
      </trkpt>
      <trkpt lat="45.19243" lon="5.96732">
        <ele>1925.9</ele>
        <time>2026-07-14T10:45:43Z</time>
      </trkpt>
      <trkpt lat="45.19243" lon="5.96732">
        <ele>1925.9</ele>
        <time>2026-07-14T10:45:44Z</time>
      </trkpt>
      <trkpt lat="45.19243" lon="5.96732">
        <ele>1925.9</ele>
        <time>2026-07-14T10:45:45Z</time>
      </trkpt>
      <trkpt lat="45.19243" lon="5.96732">
        <ele>1925.9</ele>
        <time>2026-07-14T10:45:46Z</time>
      </trkpt>
      <trkpt lat="45.19243" lon="5.96732">
        <ele>1925.9</ele>
        <time>2026-07-14T10:45:47Z</time>
      </trkpt>
      <trkpt lat="45.19243" lon="5.96732">
        <ele>1925.9</ele>
        <time>2026-07-14T10:45:48Z</time>
      </trkpt>
      <trkpt lat="45.19243" lon="5.96732">
        <ele>1925.9</ele>
        <time>2026-07-14T10:45:49Z</time>
      </trkpt>
      <trkpt lat="45.19243" lon="5.96732">
        <ele>1925.9</ele>
        <time>2026-07-14T10:45:50Z</time>
      </trkpt>
      <trkpt lat="45.19243" lon="5.96732">
        <ele>1925.9</ele>
        <time>2026-07-14T10:45:51Z</time>
      </trkpt>
      <trkpt lat="45.19243" lon="5.96732">
        <ele>1925.9</ele>
        <time>2026-07-14T10:45:52Z</time>
      </trkpt>
      <trkpt lat="45.19243" lon="5.96732">
        <ele>1925.9</ele>
        <time>2026-07-14T10:45:53Z</time>
      </trkpt>
      <trkpt lat="45.19243" lon="5.96732">
        <ele>1925.9</ele>
        <time>2026-07-14T10:45:54Z</time>
      </trkpt>
      <trkpt lat="45.19243" lon="5.96732">
        <ele>1925.9</ele>
        <time>2026-07-14T10:45:55Z</time>
      </trkpt>
      <trkpt lat="45.19243" lon="5.96732">
        <ele>1925.9</ele>
        <time>2026-07-14T10:45:56Z</time>
      </trkpt>
      <trkpt lat="45.19243" lon="5.96732">
        <ele>1925.9</ele>
        <time>2026-07-14T10:45:57Z</time>
      </trkpt>
      <trkpt lat="45.19243" lon="5.96732">
        <ele>1925.9</ele>
        <time>2026-07-14T10:45:58Z</time>
      </trkpt>
      <trkpt lat="45.19243" lon="5.96732">
        <ele>1925.9</ele>
        <time>2026-07-14T10:45:59Z</time>
      </trkpt>
      <trkpt lat="45.19243" lon="5.96732">
        <ele>1925.9</ele>
        <time>2026-07-14T10:46:00Z</time>
      </trkpt>
      <trkpt lat="45.19243" lon="5.96732">
        <ele>1925.9</ele>
        <time>2026-07-14T10:46:01Z</time>
      </trkpt>
      <trkpt lat="45.19243" lon="5.96732">
        <ele>1925.9</ele>
        <time>2026-07-14T10:46:02Z</time>
      </trkpt>
      <trkpt lat="45.19243" lon="5.96732">
        <ele>1925.9</ele>
        <time>2026-07-14T10:46:03Z</time>
      </trkpt>
      <trkpt lat="45.19243" lon="5.96732">
        <ele>1925.9</ele>
        <time>2026-07-14T10:46:04Z</time>
      </trkpt>
      <trkpt lat="45.19243" lon="5.96732">
        <ele>1925.9</ele>
        <time>2026-07-14T10:46:05Z</time>
      </trkpt>
      <trkpt lat="45.19243" lon="5.96732">
        <ele>1925.9</ele>
        <time>2026-07-14T10:46:06Z</time>
      </trkpt>
      <trkpt lat="45.19243" lon="5.96732">
        <ele>1925.9</ele>
        <time>2026-07-14T10:46:07Z</time>
      </trkpt>
      <trkpt lat="45.19243" lon="5.96732">
        <ele>1925.9</ele>
        <time>2026-07-14T10:46:08Z</time>
      </trkpt>
      <trkpt lat="45.19243" lon="5.96732">
        <ele>1925.9</ele>
        <time>2026-07-14T10:46:09Z</time>
      </trkpt>
      <trkpt lat="45.19243" lon="5.96732">
        <ele>1925.9</ele>
        <time>2026-07-14T10:46:10Z</time>
      </trkpt>
      <trkpt lat="45.19243" lon="5.96732">
        <ele>1925.9</ele>
        <time>2026-07-14T10:46:11Z</time>
      </trkpt>
      <trkpt lat="45.19243" lon="5.96732">
        <ele>1925.9</ele>
        <time>2026-07-14T10:46:12Z</time>
      </trkpt>
      <trkpt lat="45.19243" lon="5.96732">
        <ele>1925.9</ele>
        <time>2026-07-14T10:46:13Z</time>
      </trkpt>
      <trkpt lat="45.19243" lon="5.96732">
        <ele>1925.9</ele>
        <time>2026-07-14T10:46:14Z</time>
      </trkpt>
      <trkpt lat="45.19243" lon="5.96732">
        <ele>1925.9</ele>
        <time>2026-07-14T10:46:15Z</time>
      </trkpt>
      <trkpt lat="45.19243" lon="5.96732">
        <ele>1925.9</ele>
        <time>2026-07-14T10:46:16Z</time>
      </trkpt>
      <trkpt lat="45.19243" lon="5.96732">
        <ele>1925.9</ele>
        <time>2026-07-14T10:46:17Z</time>
      </trkpt>
      <trkpt lat="45.19243" lon="5.96732">
        <ele>1925.9</ele>
        <time>2026-07-14T10:46:18Z</time>
      </trkpt>
      <trkpt lat="45.19243" lon="5.96732">
        <ele>1925.9</ele>
        <time>2026-07-14T10:46:19Z</time>
      </trkpt>
      <trkpt lat="45.19243" lon="5.96732">
        <ele>1925.9</ele>
        <time>2026-07-14T10:46:20Z</time>
      </trkpt>
      <trkpt lat="45.19243" lon="5.96732">
        <ele>1925.9</ele>
        <time>2026-07-14T10:46:21Z</time>
      </trkpt>
      <trkpt lat="45.19243" lon="5.96732">
        <ele>1925.9</ele>
        <time>2026-07-14T10:46:22Z</time>
      </trkpt>
      <trkpt lat="45.19243" lon="5.96732">
        <ele>1925.9</ele>
        <time>2026-07-14T10:46:23Z</time>
      </trkpt>
      <trkpt lat="45.19243" lon="5.96732">
        <ele>1925.9</ele>
        <time>2026-07-14T10:46:24Z</time>
      </trkpt>
      <trkpt lat="45.19243" lon="5.96732">
        <ele>1925.9</ele>
        <time>2026-07-14T10:46:25Z</time>
      </trkpt>
      <trkpt lat="45.19243" lon="5.96732">
        <ele>1925.9</ele>
        <time>2026-07-14T10:46:26Z</time>
      </trkpt>
      <trkpt lat="45.19243" lon="5.96732">
        <ele>1925.9</ele>
        <time>2026-07-14T10:46:27Z</time>
      </trkpt>
      <trkpt lat="45.19243" lon="5.96732">
        <ele>1925.9</ele>
        <time>2026-07-14T10:46:28Z</time>
      </trkpt>
      <trkpt lat="45.19243" lon="5.96732">
        <ele>1925.9</ele>
        <time>2026-07-14T10:46:29Z</time>
      </trkpt>
      <trkpt lat="45.19243" lon="5.96732">
        <ele>1925.9</ele>
        <time>2026-07-14T10:46:30Z</time>
      </trkpt>
      <trkpt lat="45.19243" lon="5.96732">
        <ele>1925.9</ele>
        <time>2026-07-14T10:46:31Z</time>
      </trkpt>
      <trkpt lat="45.19243" lon="5.96732">
        <ele>1925.9</ele>
        <time>2026-07-14T10:46:32Z</time>
      </trkpt>
      <trkpt lat="45.19243" lon="5.96732">
        <ele>1925.9</ele>
        <time>2026-07-14T10:46:33Z</time>
      </trkpt>
      <trkpt lat="45.19243" lon="5.96732">
        <ele>1925.9</ele>
        <time>2026-07-14T10:46:34Z</time>
      </trkpt>
      <trkpt lat="45.19243" lon="5.96732">
        <ele>1925.9</ele>
        <time>2026-07-14T10:46:35Z</time>
      </trkpt>
      <trkpt lat="45.19243" lon="5.96732">
        <ele>1925.9</ele>
        <time>2026-07-14T10:46:36Z</time>
      </trkpt>
      <trkpt lat="45.19243" lon="5.96732">
        <ele>1925.9</ele>
        <time>2026-07-14T10:46:37Z</time>
      </trkpt>
      <trkpt lat="45.19243" lon="5.96732">
        <ele>1925.9</ele>
        <time>2026-07-14T10:46:38Z</time>
      </trkpt>
      <trkpt lat="45.19243" lon="5.96732">
        <ele>1925.9</ele>
        <time>2026-07-14T10:46:39Z</time>
      </trkpt>
      <trkpt lat="45.19243" lon="5.96732">
        <ele>1925.9</ele>
        <time>2026-07-14T10:46:40Z</time>
      </trkpt>
      <trkpt lat="45.19243" lon="5.96732">
        <ele>1925.9</ele>
        <time>2026-07-14T10:46:41Z</time>
      </trkpt>
      <trkpt lat="45.19243" lon="5.96732">
        <ele>1925.9</ele>
        <time>2026-07-14T10:46:42Z</time>
      </trkpt>
      <trkpt lat="45.19243" lon="5.96732">
        <ele>1925.9</ele>
        <time>2026-07-14T10:46:43Z</time>
      </trkpt>
      <trkpt lat="45.19243" lon="5.96732">
        <ele>1925.9</ele>
        <time>2026-07-14T10:46:44Z</time>
      </trkpt>
      <trkpt lat="45.19243" lon="5.96732">
        <ele>1925.9</ele>
        <time>2026-07-14T10:46:45Z</time>
      </trkpt>
      <trkpt lat="45.19243" lon="5.96732">
        <ele>1925.9</ele>
        <time>2026-07-14T10:46:46Z</time>
      </trkpt>
      <trkpt lat="45.19243" lon="5.96732">
        <ele>1925.9</ele>
        <time>2026-07-14T10:46:47Z</time>
      </trkpt>
      <trkpt lat="45.19243" lon="5.96732">
        <ele>1925.9</ele>
        <time>2026-07-14T10:46:48Z</time>
      </trkpt>
      <trkpt lat="45.19243" lon="5.96732">
        <ele>1925.9</ele>
        <time>2026-07-14T10:46:49Z</time>
      </trkpt>
      <trkpt lat="45.19243" lon="5.96732">
        <ele>1925.9</ele>
        <time>2026-07-14T10:46:50Z</time>
      </trkpt>
      <trkpt lat="45.19243" lon="5.96732">
        <ele>1925.9</ele>
        <time>2026-07-14T10:46:51Z</time>
      </trkpt>
      <trkpt lat="45.19243" lon="5.96732">
        <ele>1925.9</ele>
        <time>2026-07-14T10:46:52Z</time>
      </trkpt>
      <trkpt lat="45.19243" lon="5.96732">
        <ele>1925.9</ele>
        <time>2026-07-14T10:46:53Z</time>
      </trkpt>
      <trkpt lat="45.19243" lon="5.96732">
        <ele>1925.9</ele>
        <time>2026-07-14T10:46:54Z</time>
      </trkpt>
      <trkpt lat="45.19243" lon="5.96732">
        <ele>1925.9</ele>
        <time>2026-07-14T10:46:55Z</time>
      </trkpt>
      <trkpt lat="45.19243" lon="5.96732">
        <ele>1925.9</ele>
        <time>2026-07-14T10:46:56Z</time>
      </trkpt>
      <trkpt lat="45.19243" lon="5.96732">
        <ele>1925.9</ele>
        <time>2026-07-14T10:46:57Z</time>
      </trkpt>
      <trkpt lat="45.19243" lon="5.96732">
        <ele>1925.9</ele>
        <time>2026-07-14T10:46:58Z</time>
      </trkpt>
      <trkpt lat="45.19243" lon="5.96732">
        <ele>1925.9</ele>
        <time>2026-07-14T10:46:59Z</time>
      </trkpt>
      <trkpt lat="45.19243" lon="5.96732">
        <ele>1925.9</ele>
        <time>2026-07-14T10:47:00Z</time>
      </trkpt>
      <trkpt lat="45.19243" lon="5.96732">
        <ele>1925.9</ele>
        <time>2026-07-14T10:47:01Z</time>
      </trkpt>
      <trkpt lat="45.19243" lon="5.96732">
        <ele>1925.9</ele>
        <time>2026-07-14T10:47:02Z</time>
      </trkpt>
      <trkpt lat="45.19243" lon="5.96732">
        <ele>1925.9</ele>
        <time>2026-07-14T10:47:03Z</time>
      </trkpt>
      <trkpt lat="45.19243" lon="5.96732">
        <ele>1925.9</ele>
        <time>2026-07-14T10:47:04Z</time>
      </trkpt>
      <trkpt lat="45.19243" lon="5.96732">
        <ele>1925.9</ele>
        <time>2026-07-14T10:47:05Z</time>
      </trkpt>
      <trkpt lat="45.19243" lon="5.96732">
        <ele>1925.9</ele>
        <time>2026-07-14T10:47:06Z</time>
      </trkpt>
      <trkpt lat="45.19243" lon="5.96732">
        <ele>1925.9</ele>
        <time>2026-07-14T10:47:07Z</time>
      </trkpt>
      <trkpt lat="45.19243" lon="5.96732">
        <ele>1925.9</ele>
        <time>2026-07-14T10:47:08Z</time>
      </trkpt>
      <trkpt lat="45.19243" lon="5.96732">
        <ele>1925.9</ele>
        <time>2026-07-14T10:47:09Z</time>
      </trkpt>
      <trkpt lat="45.19243" lon="5.96732">
        <ele>1925.9</ele>
        <time>2026-07-14T10:47:10Z</time>
      </trkpt>
      <trkpt lat="45.19243" lon="5.96732">
        <ele>1925.9</ele>
        <time>2026-07-14T10:47:11Z</time>
      </trkpt>
      <trkpt lat="45.19243" lon="5.96732">
        <ele>1925.9</ele>
        <time>2026-07-14T10:47:12Z</time>
      </trkpt>
      <trkpt lat="45.19243" lon="5.96732">
        <ele>1925.9</ele>
        <time>2026-07-14T10:47:13Z</time>
      </trkpt>
      <trkpt lat="45.19243" lon="5.96732">
        <ele>1925.9</ele>
        <time>2026-07-14T10:47:14Z</time>
      </trkpt>
      <trkpt lat="45.19243" lon="5.96732">
        <ele>1925.9</ele>
        <time>2026-07-14T10:47:15Z</time>
      </trkpt>
      <trkpt lat="45.19243" lon="5.96732">
        <ele>1925.9</ele>
        <time>2026-07-14T10:47:16Z</time>
      </trkpt>
      <trkpt lat="45.19243" lon="5.96732">
        <ele>1925.9</ele>
        <time>2026-07-14T10:47:17Z</time>
      </trkpt>
      <trkpt lat="45.19243" lon="5.96732">
        <ele>1925.9</ele>
        <time>2026-07-14T10:47:18Z</time>
      </trkpt>
      <trkpt lat="45.19243" lon="5.96732">
        <ele>1925.9</ele>
        <time>2026-07-14T10:47:19Z</time>
      </trkpt>
      <trkpt lat="45.19243" lon="5.96732">
        <ele>1925.9</ele>
        <time>2026-07-14T10:47:20Z</time>
      </trkpt>
      <trkpt lat="45.19243" lon="5.96732">
        <ele>1925.9</ele>
        <time>2026-07-14T10:47:21Z</time>
      </trkpt>
      <trkpt lat="45.19243" lon="5.96732">
        <ele>1925.9</ele>
        <time>2026-07-14T10:47:22Z</time>
      </trkpt>
      <trkpt lat="45.19243" lon="5.96732">
        <ele>1925.9</ele>
        <time>2026-07-14T10:47:23Z</time>
      </trkpt>
      <trkpt lat="45.19243" lon="5.96732">
        <ele>1925.9</ele>
        <time>2026-07-14T10:47:24Z</time>
      </trkpt>
      <trkpt lat="45.19243" lon="5.96732">
        <ele>1925.9</ele>
        <time>2026-07-14T10:47:25Z</time>
      </trkpt>
      <trkpt lat="45.19243" lon="5.96732">
        <ele>1925.9</ele>
        <time>2026-07-14T10:47:26Z</time>
      </trkpt>
      <trkpt lat="45.19243" lon="5.96732">
        <ele>1925.9</ele>
        <time>2026-07-14T10:47:27Z</time>
      </trkpt>
      <trkpt lat="45.19243" lon="5.96732">
        <ele>1925.9</ele>
        <time>2026-07-14T10:47:28Z</time>
      </trkpt>
      <trkpt lat="45.19243" lon="5.96732">
        <ele>1925.9</ele>
        <time>2026-07-14T10:47:29Z</time>
      </trkpt>
      <trkpt lat="45.19243" lon="5.96732">
        <ele>1925.9</ele>
        <time>2026-07-14T10:47:30Z</time>
      </trkpt>
      <trkpt lat="45.19243" lon="5.96732">
        <ele>1925.9</ele>
        <time>2026-07-14T10:47:31Z</time>
      </trkpt>
      <trkpt lat="45.19243" lon="5.96732">
        <ele>1925.9</ele>
        <time>2026-07-14T10:47:32Z</time>
      </trkpt>
      <trkpt lat="45.19243" lon="5.96732">
        <ele>1925.9</ele>
        <time>2026-07-14T10:47:33Z</time>
      </trkpt>
      <trkpt lat="45.19243" lon="5.96732">
        <ele>1925.9</ele>
        <time>2026-07-14T10:47:34Z</time>
      </trkpt>
      <trkpt lat="45.19243" lon="5.96732">
        <ele>1925.9</ele>
        <time>2026-07-14T10:47:35Z</time>
      </trkpt>
      <trkpt lat="45.19243" lon="5.96732">
        <ele>1925.9</ele>
        <time>2026-07-14T10:47:36Z</time>
      </trkpt>
      <trkpt lat="45.19243" lon="5.96732">
        <ele>1925.9</ele>
        <time>2026-07-14T10:47:37Z</time>
      </trkpt>
      <trkpt lat="45.19243" lon="5.96732">
        <ele>1925.9</ele>
        <time>2026-07-14T10:47:38Z</time>
      </trkpt>
      <trkpt lat="45.19243" lon="5.96732">
        <ele>1925.9</ele>
        <time>2026-07-14T10:47:39Z</time>
      </trkpt>
      <trkpt lat="45.19243" lon="5.96732">
        <ele>1925.9</ele>
        <time>2026-07-14T10:47:40Z</time>
      </trkpt>
      <trkpt lat="45.19243" lon="5.96732">
        <ele>1925.9</ele>
        <time>2026-07-14T10:47:41Z</time>
      </trkpt>
      <trkpt lat="45.19243" lon="5.96732">
        <ele>1925.9</ele>
        <time>2026-07-14T10:47:42Z</time>
      </trkpt>
      <trkpt lat="45.19243" lon="5.96732">
        <ele>1925.9</ele>
        <time>2026-07-14T10:47:43Z</time>
      </trkpt>
      <trkpt lat="45.19243" lon="5.96732">
        <ele>1925.9</ele>
        <time>2026-07-14T10:47:44Z</time>
      </trkpt>
      <trkpt lat="45.19243" lon="5.96732">
        <ele>1925.9</ele>
        <time>2026-07-14T10:47:45Z</time>
      </trkpt>
      <trkpt lat="45.19243" lon="5.96732">
        <ele>1925.9</ele>
        <time>2026-07-14T10:47:46Z</time>
      </trkpt>
      <trkpt lat="45.19243" lon="5.96732">
        <ele>1925.9</ele>
        <time>2026-07-14T10:47:47Z</time>
      </trkpt>
      <trkpt lat="45.19243" lon="5.96732">
        <ele>1925.9</ele>
        <time>2026-07-14T10:47:48Z</time>
      </trkpt>
      <trkpt lat="45.19243" lon="5.96732">
        <ele>1925.9</ele>
        <time>2026-07-14T10:47:49Z</time>
      </trkpt>
      <trkpt lat="45.19243" lon="5.96732">
        <ele>1925.9</ele>
        <time>2026-07-14T10:47:50Z</time>
      </trkpt>
      <trkpt lat="45.19243" lon="5.96732">
        <ele>1925.9</ele>
        <time>2026-07-14T10:47:51Z</time>
      </trkpt>
      <trkpt lat="45.19243" lon="5.96732">
        <ele>1925.9</ele>
        <time>2026-07-14T10:47:52Z</time>
      </trkpt>
      <trkpt lat="45.19243" lon="5.96732">
        <ele>1925.9</ele>
        <time>2026-07-14T10:47:53Z</time>
      </trkpt>
      <trkpt lat="45.19243" lon="5.96732">
        <ele>1925.9</ele>
        <time>2026-07-14T10:47:54Z</time>
      </trkpt>
      <trkpt lat="45.19243" lon="5.96732">
        <ele>1925.9</ele>
        <time>2026-07-14T10:47:55Z</time>
      </trkpt>
      <trkpt lat="45.19243" lon="5.96732">
        <ele>1925.9</ele>
        <time>2026-07-14T10:47:56Z</time>
      </trkpt>
      <trkpt lat="45.19243" lon="5.96732">
        <ele>1925.9</ele>
        <time>2026-07-14T10:47:57Z</time>
      </trkpt>
      <trkpt lat="45.19243" lon="5.96732">
        <ele>1925.9</ele>
        <time>2026-07-14T10:47:58Z</time>
      </trkpt>
      <trkpt lat="45.19243" lon="5.96732">
        <ele>1925.9</ele>
        <time>2026-07-14T10:47:59Z</time>
      </trkpt>
      <trkpt lat="45.19243" lon="5.96732">
        <ele>1925.9</ele>
        <time>2026-07-14T10:48:00Z</time>
      </trkpt>
      <trkpt lat="45.19243" lon="5.96732">
        <ele>1925.9</ele>
        <time>2026-07-14T10:48:01Z</time>
      </trkpt>
      <trkpt lat="45.19243" lon="5.96732">
        <ele>1925.9</ele>
        <time>2026-07-14T10:48:02Z</time>
      </trkpt>
      <trkpt lat="45.19243" lon="5.96732">
        <ele>1925.9</ele>
        <time>2026-07-14T10:48:03Z</time>
      </trkpt>
      <trkpt lat="45.19243" lon="5.96732">
        <ele>1925.9</ele>
        <time>2026-07-14T10:48:04Z</time>
      </trkpt>
      <trkpt lat="45.19243" lon="5.96732">
        <ele>1925.9</ele>
        <time>2026-07-14T10:48:05Z</time>
      </trkpt>
      <trkpt lat="45.19243" lon="5.96732">
        <ele>1925.9</ele>
        <time>2026-07-14T10:48:06Z</time>
      </trkpt>
      <trkpt lat="45.19243" lon="5.96732">
        <ele>1925.9</ele>
        <time>2026-07-14T10:48:07Z</time>
      </trkpt>
      <trkpt lat="45.19243" lon="5.96732">
        <ele>1925.9</ele>
        <time>2026-07-14T10:48:08Z</time>
      </trkpt>
      <trkpt lat="45.19243" lon="5.96732">
        <ele>1925.9</ele>
        <time>2026-07-14T10:48:09Z</time>
      </trkpt>
      <trkpt lat="45.19243" lon="5.96732">
        <ele>1925.9</ele>
        <time>2026-07-14T10:48:10Z</time>
      </trkpt>
      <trkpt lat="45.19243" lon="5.96732">
        <ele>1925.9</ele>
        <time>2026-07-14T10:48:11Z</time>
      </trkpt>
      <trkpt lat="45.19243" lon="5.96732">
        <ele>1925.9</ele>
        <time>2026-07-14T10:48:12Z</time>
      </trkpt>
      <trkpt lat="45.19243" lon="5.96732">
        <ele>1925.9</ele>
        <time>2026-07-14T10:48:13Z</time>
      </trkpt>
      <trkpt lat="45.19243" lon="5.96732">
        <ele>1925.9</ele>
        <time>2026-07-14T10:48:14Z</time>
      </trkpt>
      <trkpt lat="45.19243" lon="5.96732">
        <ele>1925.9</ele>
        <time>2026-07-14T10:48:15Z</time>
      </trkpt>
      <trkpt lat="45.19243" lon="5.96732">
        <ele>1925.9</ele>
        <time>2026-07-14T10:48:16Z</time>
      </trkpt>
      <trkpt lat="45.19243" lon="5.96732">
        <ele>1925.9</ele>
        <time>2026-07-14T10:48:17Z</time>
      </trkpt>
      <trkpt lat="45.19243" lon="5.96732">
        <ele>1925.9</ele>
        <time>2026-07-14T10:48:18Z</time>
      </trkpt>
      <trkpt lat="45.19243" lon="5.96732">
        <ele>1925.9</ele>
        <time>2026-07-14T10:48:19Z</time>
      </trkpt>
      <trkpt lat="45.19243" lon="5.96732">
        <ele>1925.9</ele>
        <time>2026-07-14T10:48:20Z</time>
      </trkpt>
      <trkpt lat="45.19243" lon="5.96732">
        <ele>1925.9</ele>
        <time>2026-07-14T10:48:21Z</time>
      </trkpt>
      <trkpt lat="45.19243" lon="5.96732">
        <ele>1925.9</ele>
        <time>2026-07-14T10:48:22Z</time>
      </trkpt>
      <trkpt lat="45.19243" lon="5.96732">
        <ele>1925.9</ele>
        <time>2026-07-14T10:48:23Z</time>
      </trkpt>
      <trkpt lat="45.19243" lon="5.96732">
        <ele>1925.9</ele>
        <time>2026-07-14T10:48:24Z</time>
      </trkpt>
      <trkpt lat="45.19243" lon="5.96732">
        <ele>1925.9</ele>
        <time>2026-07-14T10:48:25Z</time>
      </trkpt>
      <trkpt lat="45.19243" lon="5.96732">
        <ele>1925.9</ele>
        <time>2026-07-14T10:48:26Z</time>
      </trkpt>
      <trkpt lat="45.19243" lon="5.96732">
        <ele>1925.9</ele>
        <time>2026-07-14T10:48:27Z</time>
      </trkpt>
      <trkpt lat="45.19243" lon="5.96732">
        <ele>1925.9</ele>
        <time>2026-07-14T10:48:28Z</time>
      </trkpt>
      <trkpt lat="45.19243" lon="5.96732">
        <ele>1925.9</ele>
        <time>2026-07-14T10:48:29Z</time>
      </trkpt>
      <trkpt lat="45.19243" lon="5.96732">
        <ele>1925.9</ele>
        <time>2026-07-14T10:48:30Z</time>
      </trkpt>
      <trkpt lat="45.19243" lon="5.96732">
        <ele>1925.9</ele>
        <time>2026-07-14T10:48:31Z</time>
      </trkpt>
      <trkpt lat="45.19243" lon="5.96732">
        <ele>1925.9</ele>
        <time>2026-07-14T10:48:32Z</time>
      </trkpt>
      <trkpt lat="45.19243" lon="5.96732">
        <ele>1925.9</ele>
        <time>2026-07-14T10:48:33Z</time>
      </trkpt>
      <trkpt lat="45.19243" lon="5.96732">
        <ele>1925.9</ele>
        <time>2026-07-14T10:48:34Z</time>
      </trkpt>
      <trkpt lat="45.19243" lon="5.96732">
        <ele>1925.9</ele>
        <time>2026-07-14T10:48:35Z</time>
      </trkpt>
      <trkpt lat="45.19243" lon="5.96732">
        <ele>1925.9</ele>
        <time>2026-07-14T10:48:36Z</time>
      </trkpt>
      <trkpt lat="45.19243" lon="5.96732">
        <ele>1925.9</ele>
        <time>2026-07-14T10:48:37Z</time>
      </trkpt>
      <trkpt lat="45.19243" lon="5.96732">
        <ele>1925.9</ele>
        <time>2026-07-14T10:48:38Z</time>
      </trkpt>
      <trkpt lat="45.19243" lon="5.96732">
        <ele>1925.9</ele>
        <time>2026-07-14T10:48:39Z</time>
      </trkpt>
      <trkpt lat="45.19243" lon="5.96732">
        <ele>1925.9</ele>
        <time>2026-07-14T10:48:40Z</time>
      </trkpt>
      <trkpt lat="45.19243" lon="5.96732">
        <ele>1925.9</ele>
        <time>2026-07-14T10:48:41Z</time>
      </trkpt>
      <trkpt lat="45.19243" lon="5.96732">
        <ele>1925.9</ele>
        <time>2026-07-14T10:48:42Z</time>
      </trkpt>
      <trkpt lat="45.19243" lon="5.96732">
        <ele>1925.9</ele>
        <time>2026-07-14T10:48:43Z</time>
      </trkpt>
      <trkpt lat="45.19243" lon="5.96732">
        <ele>1925.9</ele>
        <time>2026-07-14T10:48:44Z</time>
      </trkpt>
      <trkpt lat="45.19243" lon="5.96732">
        <ele>1925.9</ele>
        <time>2026-07-14T10:48:45Z</time>
      </trkpt>
      <trkpt lat="45.19243" lon="5.96732">
        <ele>1925.9</ele>
        <time>2026-07-14T10:48:46Z</time>
      </trkpt>
      <trkpt lat="45.19243" lon="5.96732">
        <ele>1925.9</ele>
        <time>2026-07-14T10:48:47Z</time>
      </trkpt>
      <trkpt lat="45.19243" lon="5.96732">
        <ele>1925.9</ele>
        <time>2026-07-14T10:48:48Z</time>
      </trkpt>
      <trkpt lat="45.19243" lon="5.96732">
        <ele>1925.9</ele>
        <time>2026-07-14T10:48:49Z</time>
      </trkpt>
      <trkpt lat="45.19243" lon="5.96732">
        <ele>1925.9</ele>
        <time>2026-07-14T10:48:50Z</time>
      </trkpt>
      <trkpt lat="45.19243" lon="5.96732">
        <ele>1925.9</ele>
        <time>2026-07-14T10:48:51Z</time>
      </trkpt>
      <trkpt lat="45.19243" lon="5.96732">
        <ele>1925.9</ele>
        <time>2026-07-14T10:48:52Z</time>
      </trkpt>
      <trkpt lat="45.19243" lon="5.96732">
        <ele>1925.9</ele>
        <time>2026-07-14T10:48:53Z</time>
      </trkpt>
      <trkpt lat="45.19243" lon="5.96732">
        <ele>1925.9</ele>
        <time>2026-07-14T10:48:54Z</time>
      </trkpt>
      <trkpt lat="45.19243" lon="5.96732">
        <ele>1925.9</ele>
        <time>2026-07-14T10:48:55Z</time>
      </trkpt>
      <trkpt lat="45.19243" lon="5.96732">
        <ele>1925.9</ele>
        <time>2026-07-14T10:48:56Z</time>
      </trkpt>
      <trkpt lat="45.19243" lon="5.96732">
        <ele>1925.9</ele>
        <time>2026-07-14T10:48:57Z</time>
      </trkpt>
      <trkpt lat="45.19243" lon="5.96732">
        <ele>1925.9</ele>
        <time>2026-07-14T10:48:58Z</time>
      </trkpt>
      <trkpt lat="45.19243" lon="5.96732">
        <ele>1925.9</ele>
        <time>2026-07-14T10:48:59Z</time>
      </trkpt>
      <trkpt lat="45.19243" lon="5.96732">
        <ele>1925.9</ele>
        <time>2026-07-14T10:49:00Z</time>
      </trkpt>
      <trkpt lat="45.19243" lon="5.96732">
        <ele>1925.9</ele>
        <time>2026-07-14T10:49:01Z</time>
      </trkpt>
      <trkpt lat="45.19243" lon="5.96732">
        <ele>1925.9</ele>
        <time>2026-07-14T10:49:02Z</time>
      </trkpt>
      <trkpt lat="45.19243" lon="5.96732">
        <ele>1925.9</ele>
        <time>2026-07-14T10:49:03Z</time>
      </trkpt>
      <trkpt lat="45.19243" lon="5.96732">
        <ele>1925.9</ele>
        <time>2026-07-14T10:49:04Z</time>
      </trkpt>
      <trkpt lat="45.19243" lon="5.96732">
        <ele>1925.9</ele>
        <time>2026-07-14T10:49:05Z</time>
      </trkpt>
      <trkpt lat="45.19243" lon="5.96732">
        <ele>1925.9</ele>
        <time>2026-07-14T10:49:06Z</time>
      </trkpt>
      <trkpt lat="45.19243" lon="5.96732">
        <ele>1925.9</ele>
        <time>2026-07-14T10:49:07Z</time>
      </trkpt>
      <trkpt lat="45.19243" lon="5.96732">
        <ele>1925.9</ele>
        <time>2026-07-14T10:49:08Z</time>
      </trkpt>
      <trkpt lat="45.19243" lon="5.96732">
        <ele>1925.9</ele>
        <time>2026-07-14T10:49:09Z</time>
      </trkpt>
      <trkpt lat="45.19243" lon="5.96732">
        <ele>1925.9</ele>
        <time>2026-07-14T10:49:10Z</time>
      </trkpt>
      <trkpt lat="45.19243" lon="5.96732">
        <ele>1925.9</ele>
        <time>2026-07-14T10:49:11Z</time>
      </trkpt>
      <trkpt lat="45.19243" lon="5.96732">
        <ele>1925.9</ele>
        <time>2026-07-14T10:49:12Z</time>
      </trkpt>
      <trkpt lat="45.19243" lon="5.96732">
        <ele>1925.9</ele>
        <time>2026-07-14T10:49:13Z</time>
      </trkpt>
      <trkpt lat="45.19243" lon="5.96732">
        <ele>1925.9</ele>
        <time>2026-07-14T10:49:14Z</time>
      </trkpt>
      <trkpt lat="45.19243" lon="5.96732">
        <ele>1925.9</ele>
        <time>2026-07-14T10:49:15Z</time>
      </trkpt>
      <trkpt lat="45.19243" lon="5.96732">
        <ele>1925.9</ele>
        <time>2026-07-14T10:49:16Z</time>
      </trkpt>
      <trkpt lat="45.19243" lon="5.96732">
        <ele>1925.9</ele>
        <time>2026-07-14T10:49:17Z</time>
      </trkpt>
      <trkpt lat="45.19243" lon="5.96732">
        <ele>1925.9</ele>
        <time>2026-07-14T10:49:18Z</time>
      </trkpt>
      <trkpt lat="45.19243" lon="5.96732">
        <ele>1925.9</ele>
        <time>2026-07-14T10:49:19Z</time>
      </trkpt>
      <trkpt lat="45.19243" lon="5.96732">
        <ele>1925.9</ele>
        <time>2026-07-14T10:49:20Z</time>
      </trkpt>
      <trkpt lat="45.19243" lon="5.96732">
        <ele>1925.9</ele>
        <time>2026-07-14T10:49:21Z</time>
      </trkpt>
      <trkpt lat="45.19243" lon="5.96732">
        <ele>1925.9</ele>
        <time>2026-07-14T10:49:22Z</time>
      </trkpt>
      <trkpt lat="45.19243" lon="5.96732">
        <ele>1925.9</ele>
        <time>2026-07-14T10:49:23Z</time>
      </trkpt>
      <trkpt lat="45.19243" lon="5.96732">
        <ele>1925.9</ele>
        <time>2026-07-14T10:49:24Z</time>
      </trkpt>
      <trkpt lat="45.19243" lon="5.96732">
        <ele>1925.9</ele>
        <time>2026-07-14T10:49:25Z</time>
      </trkpt>
      <trkpt lat="45.19243" lon="5.96732">
        <ele>1925.9</ele>
        <time>2026-07-14T10:49:26Z</time>
      </trkpt>
      <trkpt lat="45.19243" lon="5.96732">
        <ele>1925.9</ele>
        <time>2026-07-14T10:49:27Z</time>
      </trkpt>
      <trkpt lat="45.19243" lon="5.96732">
        <ele>1925.9</ele>
        <time>2026-07-14T10:49:28Z</time>
      </trkpt>
      <trkpt lat="45.19243" lon="5.96732">
        <ele>1925.9</ele>
        <time>2026-07-14T10:49:29Z</time>
      </trkpt>
      <trkpt lat="45.19243" lon="5.96732">
        <ele>1925.9</ele>
        <time>2026-07-14T10:49:30Z</time>
      </trkpt>
      <trkpt lat="45.19243" lon="5.96732">
        <ele>1925.9</ele>
        <time>2026-07-14T10:49:31Z</time>
      </trkpt>
      <trkpt lat="45.19243" lon="5.96732">
        <ele>1925.9</ele>
        <time>2026-07-14T10:49:32Z</time>
      </trkpt>
      <trkpt lat="45.19243" lon="5.96732">
        <ele>1925.9</ele>
        <time>2026-07-14T10:49:33Z</time>
      </trkpt>
      <trkpt lat="45.19243" lon="5.96732">
        <ele>1925.9</ele>
        <time>2026-07-14T10:49:34Z</time>
      </trkpt>
      <trkpt lat="45.19243" lon="5.96732">
        <ele>1925.9</ele>
        <time>2026-07-14T10:49:35Z</time>
      </trkpt>
      <trkpt lat="45.19243" lon="5.96732">
        <ele>1925.9</ele>
        <time>2026-07-14T10:49:36Z</time>
      </trkpt>
      <trkpt lat="45.19243" lon="5.96732">
        <ele>1925.9</ele>
        <time>2026-07-14T10:49:37Z</time>
      </trkpt>
      <trkpt lat="45.19243" lon="5.96732">
        <ele>1925.9</ele>
        <time>2026-07-14T10:49:38Z</time>
      </trkpt>
      <trkpt lat="45.19243" lon="5.96732">
        <ele>1925.9</ele>
        <time>2026-07-14T10:49:39Z</time>
      </trkpt>
      <trkpt lat="45.19243" lon="5.96732">
        <ele>1925.9</ele>
        <time>2026-07-14T10:49:40Z</time>
      </trkpt>
      <trkpt lat="45.19243" lon="5.96732">
        <ele>1925.9</ele>
        <time>2026-07-14T10:49:41Z</time>
      </trkpt>
      <trkpt lat="45.19243" lon="5.96732">
        <ele>1925.9</ele>
        <time>2026-07-14T10:49:42Z</time>
      </trkpt>
      <trkpt lat="45.19243" lon="5.96732">
        <ele>1925.9</ele>
        <time>2026-07-14T10:49:43Z</time>
      </trkpt>
      <trkpt lat="45.19243" lon="5.96732">
        <ele>1925.9</ele>
        <time>2026-07-14T10:49:44Z</time>
      </trkpt>
      <trkpt lat="45.19243" lon="5.96732">
        <ele>1925.9</ele>
        <time>2026-07-14T10:49:45Z</time>
      </trkpt>
      <trkpt lat="45.19243" lon="5.96732">
        <ele>1925.9</ele>
        <time>2026-07-14T10:49:46Z</time>
      </trkpt>
      <trkpt lat="45.19243" lon="5.96732">
        <ele>1925.9</ele>
        <time>2026-07-14T10:49:47Z</time>
      </trkpt>
      <trkpt lat="45.19243" lon="5.96732">
        <ele>1925.9</ele>
        <time>2026-07-14T10:49:48Z</time>
      </trkpt>
      <trkpt lat="45.19243" lon="5.96732">
        <ele>1925.9</ele>
        <time>2026-07-14T10:49:49Z</time>
      </trkpt>
      <trkpt lat="45.19243" lon="5.96732">
        <ele>1925.9</ele>
        <time>2026-07-14T10:49:50Z</time>
      </trkpt>
      <trkpt lat="45.19243" lon="5.96732">
        <ele>1925.9</ele>
        <time>2026-07-14T10:49:51Z</time>
      </trkpt>
      <trkpt lat="45.19243" lon="5.96732">
        <ele>1925.9</ele>
        <time>2026-07-14T10:49:52Z</time>
      </trkpt>
      <trkpt lat="45.19243" lon="5.96732">
        <ele>1925.9</ele>
        <time>2026-07-14T10:49:53Z</time>
      </trkpt>
      <trkpt lat="45.19243" lon="5.96732">
        <ele>1925.9</ele>
        <time>2026-07-14T10:49:54Z</time>
      </trkpt>
      <trkpt lat="45.19243" lon="5.96732">
        <ele>1925.9</ele>
        <time>2026-07-14T10:49:55Z</time>
      </trkpt>
      <trkpt lat="45.19243" lon="5.96732">
        <ele>1925.9</ele>
        <time>2026-07-14T10:49:56Z</time>
      </trkpt>
      <trkpt lat="45.19243" lon="5.96732">
        <ele>1925.9</ele>
        <time>2026-07-14T10:49:57Z</time>
      </trkpt>
      <trkpt lat="45.19243" lon="5.96732">
        <ele>1925.9</ele>
        <time>2026-07-14T10:49:58Z</time>
      </trkpt>
      <trkpt lat="45.19243" lon="5.96732">
        <ele>1925.9</ele>
        <time>2026-07-14T10:49:59Z</time>
      </trkpt>
      <trkpt lat="45.19243" lon="5.96732">
        <ele>1925.9</ele>
        <time>2026-07-14T10:50:00Z</time>
      </trkpt>
      <trkpt lat="45.19243" lon="5.96732">
        <ele>1925.9</ele>
        <time>2026-07-14T10:50:01Z</time>
      </trkpt>
      <trkpt lat="45.19243" lon="5.96732">
        <ele>1925.9</ele>
        <time>2026-07-14T10:50:02Z</time>
      </trkpt>
      <trkpt lat="45.19243" lon="5.96732">
        <ele>1925.9</ele>
        <time>2026-07-14T10:50:03Z</time>
      </trkpt>
      <trkpt lat="45.19243" lon="5.96732">
        <ele>1925.9</ele>
        <time>2026-07-14T10:50:04Z</time>
      </trkpt>
      <trkpt lat="45.19243" lon="5.96732">
        <ele>1925.9</ele>
        <time>2026-07-14T10:50:05Z</time>
      </trkpt>
      <trkpt lat="45.19243" lon="5.96732">
        <ele>1925.9</ele>
        <time>2026-07-14T10:50:06Z</time>
      </trkpt>
      <trkpt lat="45.19243" lon="5.96732">
        <ele>1925.9</ele>
        <time>2026-07-14T10:50:07Z</time>
      </trkpt>
      <trkpt lat="45.19243" lon="5.96732">
        <ele>1925.9</ele>
        <time>2026-07-14T10:50:08Z</time>
      </trkpt>
      <trkpt lat="45.19243" lon="5.96732">
        <ele>1925.9</ele>
        <time>2026-07-14T10:50:09Z</time>
      </trkpt>
      <trkpt lat="45.19243" lon="5.96732">
        <ele>1925.9</ele>
        <time>2026-07-14T10:50:10Z</time>
      </trkpt>
      <trkpt lat="45.19243" lon="5.96732">
        <ele>1925.9</ele>
        <time>2026-07-14T10:50:11Z</time>
      </trkpt>
      <trkpt lat="45.19243" lon="5.96732">
        <ele>1925.9</ele>
        <time>2026-07-14T10:50:12Z</time>
      </trkpt>
      <trkpt lat="45.19243" lon="5.96732">
        <ele>1925.9</ele>
        <time>2026-07-14T10:50:13Z</time>
      </trkpt>
      <trkpt lat="45.19243" lon="5.96732">
        <ele>1925.9</ele>
        <time>2026-07-14T10:50:14Z</time>
      </trkpt>
      <trkpt lat="45.19243" lon="5.96732">
        <ele>1925.9</ele>
        <time>2026-07-14T10:50:15Z</time>
      </trkpt>
      <trkpt lat="45.19243" lon="5.96732">
        <ele>1925.9</ele>
        <time>2026-07-14T10:50:16Z</time>
      </trkpt>
      <trkpt lat="45.19243" lon="5.96732">
        <ele>1925.9</ele>
        <time>2026-07-14T10:50:17Z</time>
      </trkpt>
      <trkpt lat="45.19243" lon="5.96732">
        <ele>1925.9</ele>
        <time>2026-07-14T10:50:18Z</time>
      </trkpt>
      <trkpt lat="45.19243" lon="5.96732">
        <ele>1925.9</ele>
        <time>2026-07-14T10:50:19Z</time>
      </trkpt>
      <trkpt lat="45.19243" lon="5.96732">
        <ele>1925.9</ele>
        <time>2026-07-14T10:50:20Z</time>
      </trkpt>
      <trkpt lat="45.19243" lon="5.96732">
        <ele>1925.9</ele>
        <time>2026-07-14T10:50:21Z</time>
      </trkpt>
      <trkpt lat="45.19243" lon="5.96732">
        <ele>1925.9</ele>
        <time>2026-07-14T10:50:22Z</time>
      </trkpt>
      <trkpt lat="45.19243" lon="5.96732">
        <ele>1925.9</ele>
        <time>2026-07-14T10:50:23Z</time>
      </trkpt>
      <trkpt lat="45.19243" lon="5.96732">
        <ele>1925.9</ele>
        <time>2026-07-14T10:50:24Z</time>
      </trkpt>
      <trkpt lat="45.19243" lon="5.96732">
        <ele>1925.9</ele>
        <time>2026-07-14T10:50:25Z</time>
      </trkpt>
      <trkpt lat="45.19243" lon="5.96732">
        <ele>1925.9</ele>
        <time>2026-07-14T10:50:26Z</time>
      </trkpt>
      <trkpt lat="45.19243" lon="5.96732">
        <ele>1925.9</ele>
        <time>2026-07-14T10:50:27Z</time>
      </trkpt>
      <trkpt lat="45.19243" lon="5.96732">
        <ele>1925.9</ele>
        <time>2026-07-14T10:50:28Z</time>
      </trkpt>
      <trkpt lat="45.19243" lon="5.96732">
        <ele>1925.9</ele>
        <time>2026-07-14T10:50:29Z</time>
      </trkpt>
      <trkpt lat="45.19243" lon="5.96732">
        <ele>1925.9</ele>
        <time>2026-07-14T10:50:30Z</time>
      </trkpt>
      <trkpt lat="45.19243" lon="5.96732">
        <ele>1925.9</ele>
        <time>2026-07-14T10:50:31Z</time>
      </trkpt>
      <trkpt lat="45.19243" lon="5.96732">
        <ele>1925.9</ele>
        <time>2026-07-14T10:50:32Z</time>
      </trkpt>
      <trkpt lat="45.19243" lon="5.96732">
        <ele>1925.9</ele>
        <time>2026-07-14T10:50:33Z</time>
      </trkpt>
      <trkpt lat="45.19243" lon="5.96732">
        <ele>1925.9</ele>
        <time>2026-07-14T10:50:34Z</time>
      </trkpt>
      <trkpt lat="45.19243" lon="5.96732">
        <ele>1925.9</ele>
        <time>2026-07-14T10:50:35Z</time>
      </trkpt>
      <trkpt lat="45.19243" lon="5.96732">
        <ele>1925.9</ele>
        <time>2026-07-14T10:50:36Z</time>
      </trkpt>
      <trkpt lat="45.19243" lon="5.96732">
        <ele>1925.9</ele>
        <time>2026-07-14T10:50:37Z</time>
      </trkpt>
      <trkpt lat="45.19243" lon="5.96732">
        <ele>1925.9</ele>
        <time>2026-07-14T10:50:38Z</time>
      </trkpt>
      <trkpt lat="45.19243" lon="5.96732">
        <ele>1925.9</ele>
        <time>2026-07-14T10:50:39Z</time>
      </trkpt>
      <trkpt lat="45.19243" lon="5.96732">
        <ele>1925.9</ele>
        <time>2026-07-14T10:50:40Z</time>
      </trkpt>
      <trkpt lat="45.19243" lon="5.96732">
        <ele>1925.9</ele>
        <time>2026-07-14T10:50:41Z</time>
      </trkpt>
      <trkpt lat="45.19243" lon="5.96732">
        <ele>1925.9</ele>
        <time>2026-07-14T10:50:42Z</time>
      </trkpt>
      <trkpt lat="45.19243" lon="5.96732">
        <ele>1925.9</ele>
        <time>2026-07-14T10:50:43Z</time>
      </trkpt>
      <trkpt lat="45.19243" lon="5.96732">
        <ele>1925.9</ele>
        <time>2026-07-14T10:50:44Z</time>
      </trkpt>
      <trkpt lat="45.19243" lon="5.96732">
        <ele>1925.9</ele>
        <time>2026-07-14T10:50:45Z</time>
      </trkpt>
      <trkpt lat="45.19243" lon="5.96732">
        <ele>1925.9</ele>
        <time>2026-07-14T10:50:46Z</time>
      </trkpt>
      <trkpt lat="45.19243" lon="5.96732">
        <ele>1925.9</ele>
        <time>2026-07-14T10:50:47Z</time>
      </trkpt>
      <trkpt lat="45.19243" lon="5.96732">
        <ele>1925.9</ele>
        <time>2026-07-14T10:50:48Z</time>
      </trkpt>
      <trkpt lat="45.19243" lon="5.96732">
        <ele>1925.9</ele>
        <time>2026-07-14T10:50:49Z</time>
      </trkpt>
      <trkpt lat="45.19243" lon="5.96732">
        <ele>1925.9</ele>
        <time>2026-07-14T10:50:50Z</time>
      </trkpt>
      <trkpt lat="45.19243" lon="5.96732">
        <ele>1925.9</ele>
        <time>2026-07-14T10:50:51Z</time>
      </trkpt>
      <trkpt lat="45.19243" lon="5.96732">
        <ele>1925.9</ele>
        <time>2026-07-14T10:50:52Z</time>
      </trkpt>
      <trkpt lat="45.19243" lon="5.96732">
        <ele>1925.9</ele>
        <time>2026-07-14T10:50:53Z</time>
      </trkpt>
      <trkpt lat="45.19243" lon="5.96732">
        <ele>1925.9</ele>
        <time>2026-07-14T10:50:54Z</time>
      </trkpt>
      <trkpt lat="45.19243" lon="5.96732">
        <ele>1925.9</ele>
        <time>2026-07-14T10:50:55Z</time>
      </trkpt>
      <trkpt lat="45.19243" lon="5.96732">
        <ele>1925.9</ele>
        <time>2026-07-14T10:50:56Z</time>
      </trkpt>
      <trkpt lat="45.19243" lon="5.96732">
        <ele>1925.9</ele>
        <time>2026-07-14T10:50:57Z</time>
      </trkpt>
      <trkpt lat="45.19243" lon="5.96732">
        <ele>1925.9</ele>
        <time>2026-07-14T10:50:58Z</time>
      </trkpt>
      <trkpt lat="45.19243" lon="5.96732">
        <ele>1925.9</ele>
        <time>2026-07-14T10:50:59Z</time>
      </trkpt>
      <trkpt lat="45.19243" lon="5.96732">
        <ele>1925.9</ele>
        <time>2026-07-14T10:51:00Z</time>
      </trkpt>
      <trkpt lat="45.19243" lon="5.96732">
        <ele>1925.8</ele>
        <time>2026-07-14T10:51:01Z</time>
      </trkpt>
      <trkpt lat="45.19243" lon="5.96732">
        <ele>1925.8</ele>
        <time>2026-07-14T10:51:02Z</time>
      </trkpt>
      <trkpt lat="45.19243" lon="5.96732">
        <ele>1925.8</ele>
        <time>2026-07-14T10:51:03Z</time>
      </trkpt>
      <trkpt lat="45.19243" lon="5.96732">
        <ele>1925.8</ele>
        <time>2026-07-14T10:51:04Z</time>
      </trkpt>
      <trkpt lat="45.19243" lon="5.96732">
        <ele>1925.8</ele>
        <time>2026-07-14T10:51:05Z</time>
      </trkpt>
      <trkpt lat="45.19243" lon="5.96732">
        <ele>1925.8</ele>
        <time>2026-07-14T10:51:06Z</time>
      </trkpt>
      <trkpt lat="45.19243" lon="5.96732">
        <ele>1925.8</ele>
        <time>2026-07-14T10:51:07Z</time>
      </trkpt>
      <trkpt lat="45.19243" lon="5.96732">
        <ele>1925.8</ele>
        <time>2026-07-14T10:51:08Z</time>
      </trkpt>
      <trkpt lat="45.19243" lon="5.96732">
        <ele>1925.8</ele>
        <time>2026-07-14T10:51:09Z</time>
      </trkpt>
      <trkpt lat="45.19243" lon="5.96732">
        <ele>1925.8</ele>
        <time>2026-07-14T10:51:10Z</time>
      </trkpt>
      <trkpt lat="45.19243" lon="5.96732">
        <ele>1925.8</ele>
        <time>2026-07-14T10:51:11Z</time>
      </trkpt>
      <trkpt lat="45.19243" lon="5.96732">
        <ele>1925.8</ele>
        <time>2026-07-14T10:51:12Z</time>
      </trkpt>
      <trkpt lat="45.19243" lon="5.96732">
        <ele>1925.8</ele>
        <time>2026-07-14T10:51:13Z</time>
      </trkpt>
      <trkpt lat="45.19243" lon="5.96732">
        <ele>1925.8</ele>
        <time>2026-07-14T10:51:14Z</time>
      </trkpt>
      <trkpt lat="45.19243" lon="5.96732">
        <ele>1925.8</ele>
        <time>2026-07-14T10:51:15Z</time>
      </trkpt>
      <trkpt lat="45.19243" lon="5.96732">
        <ele>1925.8</ele>
        <time>2026-07-14T10:51:16Z</time>
      </trkpt>
      <trkpt lat="45.19243" lon="5.96732">
        <ele>1925.8</ele>
        <time>2026-07-14T10:51:17Z</time>
      </trkpt>
      <trkpt lat="45.19243" lon="5.96732">
        <ele>1925.8</ele>
        <time>2026-07-14T10:51:18Z</time>
      </trkpt>
      <trkpt lat="45.19243" lon="5.96732">
        <ele>1925.8</ele>
        <time>2026-07-14T10:51:19Z</time>
      </trkpt>
      <trkpt lat="45.19243" lon="5.96732">
        <ele>1925.8</ele>
        <time>2026-07-14T10:51:20Z</time>
      </trkpt>
      <trkpt lat="45.19243" lon="5.96732">
        <ele>1925.8</ele>
        <time>2026-07-14T10:51:21Z</time>
      </trkpt>
      <trkpt lat="45.19243" lon="5.96732">
        <ele>1925.8</ele>
        <time>2026-07-14T10:51:22Z</time>
      </trkpt>
      <trkpt lat="45.19243" lon="5.96732">
        <ele>1925.8</ele>
        <time>2026-07-14T10:51:23Z</time>
      </trkpt>
      <trkpt lat="45.19243" lon="5.96732">
        <ele>1925.8</ele>
        <time>2026-07-14T10:51:24Z</time>
      </trkpt>
      <trkpt lat="45.19243" lon="5.96732">
        <ele>1925.8</ele>
        <time>2026-07-14T10:51:25Z</time>
      </trkpt>
      <trkpt lat="45.19243" lon="5.96732">
        <ele>1925.8</ele>
        <time>2026-07-14T10:51:26Z</time>
      </trkpt>
      <trkpt lat="45.19243" lon="5.96732">
        <ele>1925.8</ele>
        <time>2026-07-14T10:51:27Z</time>
      </trkpt>
      <trkpt lat="45.19243" lon="5.96732">
        <ele>1925.8</ele>
        <time>2026-07-14T10:51:28Z</time>
      </trkpt>
      <trkpt lat="45.19243" lon="5.96732">
        <ele>1925.8</ele>
        <time>2026-07-14T10:51:29Z</time>
      </trkpt>
      <trkpt lat="45.19243" lon="5.96732">
        <ele>1925.8</ele>
        <time>2026-07-14T10:51:30Z</time>
      </trkpt>
      <trkpt lat="45.19243" lon="5.96732">
        <ele>1925.8</ele>
        <time>2026-07-14T10:51:31Z</time>
      </trkpt>
      <trkpt lat="45.19243" lon="5.96732">
        <ele>1925.8</ele>
        <time>2026-07-14T10:51:32Z</time>
      </trkpt>
      <trkpt lat="45.19243" lon="5.96732">
        <ele>1925.8</ele>
        <time>2026-07-14T10:51:33Z</time>
      </trkpt>
      <trkpt lat="45.19243" lon="5.96732">
        <ele>1925.8</ele>
        <time>2026-07-14T10:51:34Z</time>
      </trkpt>
      <trkpt lat="45.19243" lon="5.96732">
        <ele>1925.8</ele>
        <time>2026-07-14T10:51:35Z</time>
      </trkpt>
      <trkpt lat="45.19243" lon="5.96732">
        <ele>1925.8</ele>
        <time>2026-07-14T10:51:36Z</time>
      </trkpt>
      <trkpt lat="45.19243" lon="5.96732">
        <ele>1925.8</ele>
        <time>2026-07-14T10:51:37Z</time>
      </trkpt>
      <trkpt lat="45.19243" lon="5.96732">
        <ele>1925.8</ele>
        <time>2026-07-14T10:51:38Z</time>
      </trkpt>
      <trkpt lat="45.19243" lon="5.96732">
        <ele>1925.8</ele>
        <time>2026-07-14T10:51:39Z</time>
      </trkpt>
      <trkpt lat="45.19243" lon="5.96732">
        <ele>1925.8</ele>
        <time>2026-07-14T10:51:40Z</time>
      </trkpt>
      <trkpt lat="45.19243" lon="5.96732">
        <ele>1925.8</ele>
        <time>2026-07-14T10:51:41Z</time>
      </trkpt>
      <trkpt lat="45.19243" lon="5.96732">
        <ele>1925.8</ele>
        <time>2026-07-14T10:51:42Z</time>
      </trkpt>
      <trkpt lat="45.19243" lon="5.96732">
        <ele>1925.8</ele>
        <time>2026-07-14T10:51:43Z</time>
      </trkpt>
      <trkpt lat="45.19243" lon="5.96732">
        <ele>1925.8</ele>
        <time>2026-07-14T10:51:44Z</time>
      </trkpt>
      <trkpt lat="45.19243" lon="5.96732">
        <ele>1925.8</ele>
        <time>2026-07-14T10:51:45Z</time>
      </trkpt>
      <trkpt lat="45.19243" lon="5.96732">
        <ele>1925.8</ele>
        <time>2026-07-14T10:51:46Z</time>
      </trkpt>
      <trkpt lat="45.19243" lon="5.96732">
        <ele>1925.8</ele>
        <time>2026-07-14T10:51:47Z</time>
      </trkpt>
      <trkpt lat="45.19243" lon="5.96732">
        <ele>1925.8</ele>
        <time>2026-07-14T10:51:48Z</time>
      </trkpt>
      <trkpt lat="45.19243" lon="5.96732">
        <ele>1925.8</ele>
        <time>2026-07-14T10:51:49Z</time>
      </trkpt>
      <trkpt lat="45.19243" lon="5.96732">
        <ele>1925.8</ele>
        <time>2026-07-14T10:51:50Z</time>
      </trkpt>
      <trkpt lat="45.19243" lon="5.96732">
        <ele>1925.8</ele>
        <time>2026-07-14T10:51:51Z</time>
      </trkpt>
      <trkpt lat="45.19243" lon="5.96732">
        <ele>1925.8</ele>
        <time>2026-07-14T10:51:52Z</time>
      </trkpt>
      <trkpt lat="45.19243" lon="5.96732">
        <ele>1925.8</ele>
        <time>2026-07-14T10:51:53Z</time>
      </trkpt>
      <trkpt lat="45.19243" lon="5.96732">
        <ele>1925.8</ele>
        <time>2026-07-14T10:51:54Z</time>
      </trkpt>
      <trkpt lat="45.19243" lon="5.96732">
        <ele>1925.8</ele>
        <time>2026-07-14T10:51:55Z</time>
      </trkpt>
      <trkpt lat="45.19243" lon="5.96732">
        <ele>1925.8</ele>
        <time>2026-07-14T10:51:56Z</time>
      </trkpt>
      <trkpt lat="45.19243" lon="5.96732">
        <ele>1925.8</ele>
        <time>2026-07-14T10:51:57Z</time>
      </trkpt>
      <trkpt lat="45.19243" lon="5.96732">
        <ele>1925.8</ele>
        <time>2026-07-14T10:51:58Z</time>
      </trkpt>
      <trkpt lat="45.19243" lon="5.96732">
        <ele>1925.8</ele>
        <time>2026-07-14T10:51:59Z</time>
      </trkpt>
      <trkpt lat="45.19243" lon="5.96732">
        <ele>1925.8</ele>
        <time>2026-07-14T10:52:00Z</time>
      </trkpt>
      <trkpt lat="45.19243" lon="5.96732">
        <ele>1925.8</ele>
        <time>2026-07-14T10:52:01Z</time>
      </trkpt>
      <trkpt lat="45.19243" lon="5.96732">
        <ele>1925.8</ele>
        <time>2026-07-14T10:52:02Z</time>
      </trkpt>
      <trkpt lat="45.19243" lon="5.96732">
        <ele>1925.8</ele>
        <time>2026-07-14T10:52:03Z</time>
      </trkpt>
      <trkpt lat="45.19243" lon="5.96732">
        <ele>1925.8</ele>
        <time>2026-07-14T10:52:04Z</time>
      </trkpt>
      <trkpt lat="45.19243" lon="5.96732">
        <ele>1925.8</ele>
        <time>2026-07-14T10:52:05Z</time>
      </trkpt>
      <trkpt lat="45.19243" lon="5.96732">
        <ele>1925.8</ele>
        <time>2026-07-14T10:52:06Z</time>
      </trkpt>
      <trkpt lat="45.19243" lon="5.96732">
        <ele>1925.8</ele>
        <time>2026-07-14T10:52:07Z</time>
      </trkpt>
      <trkpt lat="45.19243" lon="5.96732">
        <ele>1925.8</ele>
        <time>2026-07-14T10:52:08Z</time>
      </trkpt>
      <trkpt lat="45.19243" lon="5.96732">
        <ele>1925.8</ele>
        <time>2026-07-14T10:52:09Z</time>
      </trkpt>
      <trkpt lat="45.19243" lon="5.96732">
        <ele>1925.8</ele>
        <time>2026-07-14T10:52:10Z</time>
      </trkpt>
      <trkpt lat="45.19243" lon="5.96732">
        <ele>1925.8</ele>
        <time>2026-07-14T10:52:11Z</time>
      </trkpt>
      <trkpt lat="45.19243" lon="5.96732">
        <ele>1925.8</ele>
        <time>2026-07-14T10:52:12Z</time>
      </trkpt>
      <trkpt lat="45.19243" lon="5.96732">
        <ele>1925.8</ele>
        <time>2026-07-14T10:52:13Z</time>
      </trkpt>
      <trkpt lat="45.19243" lon="5.96732">
        <ele>1925.8</ele>
        <time>2026-07-14T10:52:14Z</time>
      </trkpt>
      <trkpt lat="45.19243" lon="5.96732">
        <ele>1925.8</ele>
        <time>2026-07-14T10:52:15Z</time>
      </trkpt>
      <trkpt lat="45.19243" lon="5.96732">
        <ele>1925.8</ele>
        <time>2026-07-14T10:52:16Z</time>
      </trkpt>
      <trkpt lat="45.19243" lon="5.96732">
        <ele>1925.8</ele>
        <time>2026-07-14T10:52:17Z</time>
      </trkpt>
      <trkpt lat="45.19243" lon="5.96732">
        <ele>1925.8</ele>
        <time>2026-07-14T10:52:18Z</time>
      </trkpt>
      <trkpt lat="45.19243" lon="5.96732">
        <ele>1925.8</ele>
        <time>2026-07-14T10:52:19Z</time>
      </trkpt>
      <trkpt lat="45.19243" lon="5.96732">
        <ele>1925.8</ele>
        <time>2026-07-14T10:52:20Z</time>
      </trkpt>
      <trkpt lat="45.19243" lon="5.96732">
        <ele>1925.8</ele>
        <time>2026-07-14T10:52:21Z</time>
      </trkpt>
      <trkpt lat="45.19243" lon="5.96732">
        <ele>1925.8</ele>
        <time>2026-07-14T10:52:22Z</time>
      </trkpt>
      <trkpt lat="45.19243" lon="5.96732">
        <ele>1925.8</ele>
        <time>2026-07-14T10:52:23Z</time>
      </trkpt>
      <trkpt lat="45.19243" lon="5.96732">
        <ele>1925.8</ele>
        <time>2026-07-14T10:52:24Z</time>
      </trkpt>
      <trkpt lat="45.19243" lon="5.96732">
        <ele>1925.8</ele>
        <time>2026-07-14T10:52:25Z</time>
      </trkpt>
      <trkpt lat="45.19243" lon="5.96732">
        <ele>1925.8</ele>
        <time>2026-07-14T10:52:26Z</time>
      </trkpt>
      <trkpt lat="45.19243" lon="5.96732">
        <ele>1925.8</ele>
        <time>2026-07-14T10:52:27Z</time>
      </trkpt>
      <trkpt lat="45.19243" lon="5.96732">
        <ele>1925.8</ele>
        <time>2026-07-14T10:52:28Z</time>
      </trkpt>
      <trkpt lat="45.19243" lon="5.96732">
        <ele>1925.8</ele>
        <time>2026-07-14T10:52:29Z</time>
      </trkpt>
      <trkpt lat="45.19243" lon="5.96732">
        <ele>1925.8</ele>
        <time>2026-07-14T10:52:30Z</time>
      </trkpt>
      <trkpt lat="45.19243" lon="5.96732">
        <ele>1925.8</ele>
        <time>2026-07-14T10:52:31Z</time>
      </trkpt>
      <trkpt lat="45.19243" lon="5.96732">
        <ele>1925.8</ele>
        <time>2026-07-14T10:52:32Z</time>
      </trkpt>
      <trkpt lat="45.19243" lon="5.96732">
        <ele>1925.8</ele>
        <time>2026-07-14T10:52:33Z</time>
      </trkpt>
      <trkpt lat="45.19243" lon="5.96732">
        <ele>1925.8</ele>
        <time>2026-07-14T10:52:34Z</time>
      </trkpt>
      <trkpt lat="45.19243" lon="5.96732">
        <ele>1925.8</ele>
        <time>2026-07-14T10:52:35Z</time>
      </trkpt>
      <trkpt lat="45.19243" lon="5.96732">
        <ele>1925.8</ele>
        <time>2026-07-14T10:52:36Z</time>
      </trkpt>
      <trkpt lat="45.19243" lon="5.96732">
        <ele>1925.8</ele>
        <time>2026-07-14T10:52:37Z</time>
      </trkpt>
      <trkpt lat="45.19243" lon="5.96732">
        <ele>1925.8</ele>
        <time>2026-07-14T10:52:38Z</time>
      </trkpt>
      <trkpt lat="45.19243" lon="5.96732">
        <ele>1925.8</ele>
        <time>2026-07-14T10:52:39Z</time>
      </trkpt>
      <trkpt lat="45.19243" lon="5.96732">
        <ele>1925.8</ele>
        <time>2026-07-14T10:52:40Z</time>
      </trkpt>
      <trkpt lat="45.19243" lon="5.96732">
        <ele>1925.8</ele>
        <time>2026-07-14T10:52:41Z</time>
      </trkpt>
      <trkpt lat="45.19243" lon="5.96732">
        <ele>1925.8</ele>
        <time>2026-07-14T10:52:42Z</time>
      </trkpt>
      <trkpt lat="45.19243" lon="5.96732">
        <ele>1925.8</ele>
        <time>2026-07-14T10:52:43Z</time>
      </trkpt>
      <trkpt lat="45.19243" lon="5.96732">
        <ele>1925.8</ele>
        <time>2026-07-14T10:52:44Z</time>
      </trkpt>
      <trkpt lat="45.19243" lon="5.96732">
        <ele>1925.8</ele>
        <time>2026-07-14T10:52:45Z</time>
      </trkpt>
      <trkpt lat="45.19243" lon="5.96732">
        <ele>1925.8</ele>
        <time>2026-07-14T10:52:46Z</time>
      </trkpt>
      <trkpt lat="45.19243" lon="5.96732">
        <ele>1925.8</ele>
        <time>2026-07-14T10:52:47Z</time>
      </trkpt>
      <trkpt lat="45.19243" lon="5.96732">
        <ele>1925.8</ele>
        <time>2026-07-14T10:52:48Z</time>
      </trkpt>
      <trkpt lat="45.19243" lon="5.96732">
        <ele>1925.8</ele>
        <time>2026-07-14T10:52:49Z</time>
      </trkpt>
      <trkpt lat="45.19243" lon="5.96732">
        <ele>1925.8</ele>
        <time>2026-07-14T10:52:50Z</time>
      </trkpt>
      <trkpt lat="45.19243" lon="5.96732">
        <ele>1925.8</ele>
        <time>2026-07-14T10:52:51Z</time>
      </trkpt>
      <trkpt lat="45.19243" lon="5.96732">
        <ele>1925.8</ele>
        <time>2026-07-14T10:52:52Z</time>
      </trkpt>
      <trkpt lat="45.19243" lon="5.96732">
        <ele>1925.8</ele>
        <time>2026-07-14T10:52:53Z</time>
      </trkpt>
      <trkpt lat="45.19243" lon="5.96732">
        <ele>1925.8</ele>
        <time>2026-07-14T10:52:54Z</time>
      </trkpt>
      <trkpt lat="45.19243" lon="5.96732">
        <ele>1925.8</ele>
        <time>2026-07-14T10:52:55Z</time>
      </trkpt>
      <trkpt lat="45.19243" lon="5.96732">
        <ele>1925.8</ele>
        <time>2026-07-14T10:52:56Z</time>
      </trkpt>
      <trkpt lat="45.19243" lon="5.96732">
        <ele>1925.8</ele>
        <time>2026-07-14T10:52:57Z</time>
      </trkpt>
      <trkpt lat="45.19243" lon="5.96732">
        <ele>1925.8</ele>
        <time>2026-07-14T10:52:58Z</time>
      </trkpt>
      <trkpt lat="45.19243" lon="5.96732">
        <ele>1925.8</ele>
        <time>2026-07-14T10:52:59Z</time>
      </trkpt>
      <trkpt lat="45.19243" lon="5.96732">
        <ele>1925.8</ele>
        <time>2026-07-14T10:53:00Z</time>
      </trkpt>
      <trkpt lat="45.19243" lon="5.96732">
        <ele>1925.8</ele>
        <time>2026-07-14T10:53:01Z</time>
      </trkpt>
      <trkpt lat="45.19243" lon="5.96732">
        <ele>1925.8</ele>
        <time>2026-07-14T10:53:02Z</time>
      </trkpt>
      <trkpt lat="45.19243" lon="5.96732">
        <ele>1925.8</ele>
        <time>2026-07-14T10:53:03Z</time>
      </trkpt>
      <trkpt lat="45.19243" lon="5.96732">
        <ele>1925.8</ele>
        <time>2026-07-14T10:53:04Z</time>
      </trkpt>
      <trkpt lat="45.19243" lon="5.96732">
        <ele>1925.8</ele>
        <time>2026-07-14T10:53:05Z</time>
      </trkpt>
      <trkpt lat="45.19243" lon="5.96732">
        <ele>1925.8</ele>
        <time>2026-07-14T10:53:06Z</time>
      </trkpt>
      <trkpt lat="45.19243" lon="5.96732">
        <ele>1925.8</ele>
        <time>2026-07-14T10:53:07Z</time>
      </trkpt>
      <trkpt lat="45.19243" lon="5.96732">
        <ele>1925.8</ele>
        <time>2026-07-14T10:53:08Z</time>
      </trkpt>
      <trkpt lat="45.19243" lon="5.96732">
        <ele>1925.8</ele>
        <time>2026-07-14T10:53:09Z</time>
      </trkpt>
      <trkpt lat="45.19243" lon="5.96732">
        <ele>1925.8</ele>
        <time>2026-07-14T10:53:10Z</time>
      </trkpt>
      <trkpt lat="45.19243" lon="5.96732">
        <ele>1925.8</ele>
        <time>2026-07-14T10:53:11Z</time>
      </trkpt>
      <trkpt lat="45.19243" lon="5.96732">
        <ele>1925.8</ele>
        <time>2026-07-14T10:53:12Z</time>
      </trkpt>
      <trkpt lat="45.19243" lon="5.96732">
        <ele>1925.8</ele>
        <time>2026-07-14T10:53:13Z</time>
      </trkpt>
      <trkpt lat="45.19243" lon="5.96732">
        <ele>1925.8</ele>
        <time>2026-07-14T10:53:14Z</time>
      </trkpt>
      <trkpt lat="45.19243" lon="5.96732">
        <ele>1925.8</ele>
        <time>2026-07-14T10:53:15Z</time>
      </trkpt>
      <trkpt lat="45.19243" lon="5.96732">
        <ele>1925.8</ele>
        <time>2026-07-14T10:53:16Z</time>
      </trkpt>
      <trkpt lat="45.19243" lon="5.96732">
        <ele>1925.8</ele>
        <time>2026-07-14T10:53:17Z</time>
      </trkpt>
      <trkpt lat="45.19243" lon="5.96732">
        <ele>1925.8</ele>
        <time>2026-07-14T10:53:18Z</time>
      </trkpt>
      <trkpt lat="45.19243" lon="5.96732">
        <ele>1925.8</ele>
        <time>2026-07-14T10:53:19Z</time>
      </trkpt>
      <trkpt lat="45.19243" lon="5.96732">
        <ele>1925.8</ele>
        <time>2026-07-14T10:53:20Z</time>
      </trkpt>
      <trkpt lat="45.19243" lon="5.96732">
        <ele>1925.8</ele>
        <time>2026-07-14T10:53:21Z</time>
      </trkpt>
      <trkpt lat="45.19243" lon="5.96732">
        <ele>1925.8</ele>
        <time>2026-07-14T10:53:22Z</time>
      </trkpt>
      <trkpt lat="45.19243" lon="5.96732">
        <ele>1925.8</ele>
        <time>2026-07-14T10:53:23Z</time>
      </trkpt>
      <trkpt lat="45.19243" lon="5.96732">
        <ele>1925.8</ele>
        <time>2026-07-14T10:53:24Z</time>
      </trkpt>
      <trkpt lat="45.19243" lon="5.96732">
        <ele>1925.8</ele>
        <time>2026-07-14T10:53:25Z</time>
      </trkpt>
      <trkpt lat="45.19243" lon="5.96732">
        <ele>1925.8</ele>
        <time>2026-07-14T10:53:26Z</time>
      </trkpt>
      <trkpt lat="45.19243" lon="5.96732">
        <ele>1925.8</ele>
        <time>2026-07-14T10:53:27Z</time>
      </trkpt>
      <trkpt lat="45.19243" lon="5.96732">
        <ele>1925.8</ele>
        <time>2026-07-14T10:53:28Z</time>
      </trkpt>
      <trkpt lat="45.19243" lon="5.96732">
        <ele>1925.8</ele>
        <time>2026-07-14T10:53:29Z</time>
      </trkpt>
      <trkpt lat="45.19243" lon="5.96732">
        <ele>1925.8</ele>
        <time>2026-07-14T10:53:30Z</time>
      </trkpt>
      <trkpt lat="45.19243" lon="5.96732">
        <ele>1925.8</ele>
        <time>2026-07-14T10:53:31Z</time>
      </trkpt>
      <trkpt lat="45.19243" lon="5.96732">
        <ele>1925.8</ele>
        <time>2026-07-14T10:53:32Z</time>
      </trkpt>
      <trkpt lat="45.19243" lon="5.96732">
        <ele>1925.8</ele>
        <time>2026-07-14T10:53:33Z</time>
      </trkpt>
      <trkpt lat="45.19243" lon="5.96732">
        <ele>1925.8</ele>
        <time>2026-07-14T10:53:34Z</time>
      </trkpt>
      <trkpt lat="45.19243" lon="5.96732">
        <ele>1925.8</ele>
        <time>2026-07-14T10:53:35Z</time>
      </trkpt>
      <trkpt lat="45.19243" lon="5.96732">
        <ele>1925.8</ele>
        <time>2026-07-14T10:53:36Z</time>
      </trkpt>
      <trkpt lat="45.19243" lon="5.96732">
        <ele>1925.8</ele>
        <time>2026-07-14T10:53:37Z</time>
      </trkpt>
      <trkpt lat="45.19243" lon="5.96732">
        <ele>1925.8</ele>
        <time>2026-07-14T10:53:38Z</time>
      </trkpt>
      <trkpt lat="45.19243" lon="5.96732">
        <ele>1925.8</ele>
        <time>2026-07-14T10:53:39Z</time>
      </trkpt>
      <trkpt lat="45.19243" lon="5.96732">
        <ele>1925.8</ele>
        <time>2026-07-14T10:53:40Z</time>
      </trkpt>
      <trkpt lat="45.19243" lon="5.96732">
        <ele>1925.8</ele>
        <time>2026-07-14T10:53:41Z</time>
      </trkpt>
      <trkpt lat="45.19243" lon="5.96732">
        <ele>1925.8</ele>
        <time>2026-07-14T10:53:42Z</time>
      </trkpt>
      <trkpt lat="45.19243" lon="5.96732">
        <ele>1925.8</ele>
        <time>2026-07-14T10:53:43Z</time>
      </trkpt>
      <trkpt lat="45.19243" lon="5.96732">
        <ele>1925.8</ele>
        <time>2026-07-14T10:53:44Z</time>
      </trkpt>
      <trkpt lat="45.19243" lon="5.96732">
        <ele>1925.8</ele>
        <time>2026-07-14T10:53:45Z</time>
      </trkpt>
      <trkpt lat="45.19243" lon="5.96732">
        <ele>1925.8</ele>
        <time>2026-07-14T10:53:46Z</time>
      </trkpt>
      <trkpt lat="45.19243" lon="5.96732">
        <ele>1925.8</ele>
        <time>2026-07-14T10:53:47Z</time>
      </trkpt>
      <trkpt lat="45.19243" lon="5.96732">
        <ele>1925.8</ele>
        <time>2026-07-14T10:53:48Z</time>
      </trkpt>
      <trkpt lat="45.19243" lon="5.96732">
        <ele>1925.8</ele>
        <time>2026-07-14T10:53:49Z</time>
      </trkpt>
      <trkpt lat="45.19243" lon="5.96732">
        <ele>1925.8</ele>
        <time>2026-07-14T10:53:50Z</time>
      </trkpt>
      <trkpt lat="45.19243" lon="5.96732">
        <ele>1925.8</ele>
        <time>2026-07-14T10:53:51Z</time>
      </trkpt>
      <trkpt lat="45.19243" lon="5.96732">
        <ele>1925.8</ele>
        <time>2026-07-14T10:53:52Z</time>
      </trkpt>
      <trkpt lat="45.19243" lon="5.96732">
        <ele>1925.8</ele>
        <time>2026-07-14T10:53:53Z</time>
      </trkpt>
      <trkpt lat="45.19243" lon="5.96732">
        <ele>1925.8</ele>
        <time>2026-07-14T10:53:54Z</time>
      </trkpt>
      <trkpt lat="45.19243" lon="5.96732">
        <ele>1925.8</ele>
        <time>2026-07-14T10:53:55Z</time>
      </trkpt>
      <trkpt lat="45.19243" lon="5.96732">
        <ele>1925.8</ele>
        <time>2026-07-14T10:53:56Z</time>
      </trkpt>
      <trkpt lat="45.19243" lon="5.96732">
        <ele>1925.8</ele>
        <time>2026-07-14T10:53:57Z</time>
      </trkpt>
      <trkpt lat="45.19243" lon="5.96732">
        <ele>1925.8</ele>
        <time>2026-07-14T10:53:58Z</time>
      </trkpt>
      <trkpt lat="45.19243" lon="5.96732">
        <ele>1925.8</ele>
        <time>2026-07-14T10:53:59Z</time>
      </trkpt>
      <trkpt lat="45.19243" lon="5.96732">
        <ele>1925.8</ele>
        <time>2026-07-14T10:54:00Z</time>
      </trkpt>
      <trkpt lat="45.19243" lon="5.96732">
        <ele>1925.8</ele>
        <time>2026-07-14T10:54:01Z</time>
      </trkpt>
      <trkpt lat="45.19243" lon="5.96732">
        <ele>1925.8</ele>
        <time>2026-07-14T10:54:02Z</time>
      </trkpt>
      <trkpt lat="45.19243" lon="5.96732">
        <ele>1925.8</ele>
        <time>2026-07-14T10:54:03Z</time>
      </trkpt>
      <trkpt lat="45.19243" lon="5.96732">
        <ele>1925.8</ele>
        <time>2026-07-14T10:54:04Z</time>
      </trkpt>
      <trkpt lat="45.19243" lon="5.96732">
        <ele>1925.8</ele>
        <time>2026-07-14T10:54:05Z</time>
      </trkpt>
      <trkpt lat="45.19243" lon="5.96732">
        <ele>1925.8</ele>
        <time>2026-07-14T10:54:06Z</time>
      </trkpt>
      <trkpt lat="45.19243" lon="5.96732">
        <ele>1925.8</ele>
        <time>2026-07-14T10:54:07Z</time>
      </trkpt>
      <trkpt lat="45.19243" lon="5.96732">
        <ele>1925.8</ele>
        <time>2026-07-14T10:54:08Z</time>
      </trkpt>
      <trkpt lat="45.19243" lon="5.96732">
        <ele>1925.8</ele>
        <time>2026-07-14T10:54:09Z</time>
      </trkpt>
      <trkpt lat="45.19243" lon="5.96732">
        <ele>1925.8</ele>
        <time>2026-07-14T10:54:10Z</time>
      </trkpt>
      <trkpt lat="45.19243" lon="5.96732">
        <ele>1925.8</ele>
        <time>2026-07-14T10:54:11Z</time>
      </trkpt>
      <trkpt lat="45.19243" lon="5.96732">
        <ele>1925.8</ele>
        <time>2026-07-14T10:54:12Z</time>
      </trkpt>
      <trkpt lat="45.19243" lon="5.96732">
        <ele>1925.8</ele>
        <time>2026-07-14T10:54:13Z</time>
      </trkpt>
      <trkpt lat="45.19243" lon="5.96732">
        <ele>1925.8</ele>
        <time>2026-07-14T10:54:14Z</time>
      </trkpt>
      <trkpt lat="45.19243" lon="5.96732">
        <ele>1925.8</ele>
        <time>2026-07-14T10:54:15Z</time>
      </trkpt>
      <trkpt lat="45.19243" lon="5.96732">
        <ele>1925.8</ele>
        <time>2026-07-14T10:54:16Z</time>
      </trkpt>
      <trkpt lat="45.19243" lon="5.96732">
        <ele>1925.8</ele>
        <time>2026-07-14T10:54:17Z</time>
      </trkpt>
      <trkpt lat="45.19243" lon="5.96732">
        <ele>1925.8</ele>
        <time>2026-07-14T10:54:18Z</time>
      </trkpt>
      <trkpt lat="45.19243" lon="5.96732">
        <ele>1925.8</ele>
        <time>2026-07-14T10:54:19Z</time>
      </trkpt>
      <trkpt lat="45.19243" lon="5.96732">
        <ele>1925.8</ele>
        <time>2026-07-14T10:54:20Z</time>
      </trkpt>
      <trkpt lat="45.19243" lon="5.96732">
        <ele>1925.8</ele>
        <time>2026-07-14T10:54:21Z</time>
      </trkpt>
      <trkpt lat="45.19243" lon="5.96732">
        <ele>1925.8</ele>
        <time>2026-07-14T10:54:22Z</time>
      </trkpt>
      <trkpt lat="45.19243" lon="5.96732">
        <ele>1925.8</ele>
        <time>2026-07-14T10:54:23Z</time>
      </trkpt>
      <trkpt lat="45.19243" lon="5.96732">
        <ele>1925.8</ele>
        <time>2026-07-14T10:54:24Z</time>
      </trkpt>
      <trkpt lat="45.19243" lon="5.96732">
        <ele>1925.8</ele>
        <time>2026-07-14T10:54:25Z</time>
      </trkpt>
      <trkpt lat="45.19243" lon="5.96732">
        <ele>1925.8</ele>
        <time>2026-07-14T10:54:26Z</time>
      </trkpt>
      <trkpt lat="45.19243" lon="5.96732">
        <ele>1925.8</ele>
        <time>2026-07-14T10:54:27Z</time>
      </trkpt>
      <trkpt lat="45.19243" lon="5.96732">
        <ele>1925.8</ele>
        <time>2026-07-14T10:54:28Z</time>
      </trkpt>
      <trkpt lat="45.19243" lon="5.96732">
        <ele>1925.8</ele>
        <time>2026-07-14T10:54:29Z</time>
      </trkpt>
      <trkpt lat="45.19243" lon="5.96732">
        <ele>1925.8</ele>
        <time>2026-07-14T10:54:30Z</time>
      </trkpt>
      <trkpt lat="45.19243" lon="5.96732">
        <ele>1925.8</ele>
        <time>2026-07-14T10:54:31Z</time>
      </trkpt>
      <trkpt lat="45.19243" lon="5.96732">
        <ele>1925.8</ele>
        <time>2026-07-14T10:54:32Z</time>
      </trkpt>
      <trkpt lat="45.19243" lon="5.96732">
        <ele>1925.8</ele>
        <time>2026-07-14T10:54:33Z</time>
      </trkpt>
      <trkpt lat="45.19243" lon="5.96732">
        <ele>1925.8</ele>
        <time>2026-07-14T10:54:34Z</time>
      </trkpt>
      <trkpt lat="45.19243" lon="5.96732">
        <ele>1925.8</ele>
        <time>2026-07-14T10:54:35Z</time>
      </trkpt>
      <trkpt lat="45.19243" lon="5.96732">
        <ele>1925.8</ele>
        <time>2026-07-14T10:54:36Z</time>
      </trkpt>
      <trkpt lat="45.19243" lon="5.96732">
        <ele>1925.8</ele>
        <time>2026-07-14T10:54:37Z</time>
      </trkpt>
      <trkpt lat="45.19243" lon="5.96732">
        <ele>1925.8</ele>
        <time>2026-07-14T10:54:38Z</time>
      </trkpt>
      <trkpt lat="45.19243" lon="5.96732">
        <ele>1925.8</ele>
        <time>2026-07-14T10:54:39Z</time>
      </trkpt>
      <trkpt lat="45.19243" lon="5.96732">
        <ele>1925.8</ele>
        <time>2026-07-14T10:54:40Z</time>
      </trkpt>
      <trkpt lat="45.19243" lon="5.96732">
        <ele>1925.8</ele>
        <time>2026-07-14T10:54:41Z</time>
      </trkpt>
      <trkpt lat="45.19243" lon="5.96732">
        <ele>1925.8</ele>
        <time>2026-07-14T10:54:42Z</time>
      </trkpt>
      <trkpt lat="45.19243" lon="5.96732">
        <ele>1925.8</ele>
        <time>2026-07-14T10:54:43Z</time>
      </trkpt>
      <trkpt lat="45.19243" lon="5.96732">
        <ele>1925.8</ele>
        <time>2026-07-14T10:54:44Z</time>
      </trkpt>
      <trkpt lat="45.19243" lon="5.96732">
        <ele>1925.8</ele>
        <time>2026-07-14T10:54:45Z</time>
      </trkpt>
      <trkpt lat="45.19243" lon="5.96732">
        <ele>1925.8</ele>
        <time>2026-07-14T10:54:46Z</time>
      </trkpt>
      <trkpt lat="45.19243" lon="5.96732">
        <ele>1925.8</ele>
        <time>2026-07-14T10:54:47Z</time>
      </trkpt>
      <trkpt lat="45.19243" lon="5.96732">
        <ele>1925.8</ele>
        <time>2026-07-14T10:54:48Z</time>
      </trkpt>
      <trkpt lat="45.19243" lon="5.96732">
        <ele>1925.8</ele>
        <time>2026-07-14T10:54:49Z</time>
      </trkpt>
      <trkpt lat="45.19243" lon="5.96732">
        <ele>1925.8</ele>
        <time>2026-07-14T10:54:50Z</time>
      </trkpt>
      <trkpt lat="45.19243" lon="5.96732">
        <ele>1925.8</ele>
        <time>2026-07-14T10:54:51Z</time>
      </trkpt>
      <trkpt lat="45.19243" lon="5.96732">
        <ele>1925.8</ele>
        <time>2026-07-14T10:54:52Z</time>
      </trkpt>
      <trkpt lat="45.19243" lon="5.96732">
        <ele>1925.8</ele>
        <time>2026-07-14T10:54:53Z</time>
      </trkpt>
      <trkpt lat="45.19243" lon="5.96732">
        <ele>1925.8</ele>
        <time>2026-07-14T10:54:54Z</time>
      </trkpt>
      <trkpt lat="45.19243" lon="5.96732">
        <ele>1925.8</ele>
        <time>2026-07-14T10:54:55Z</time>
      </trkpt>
      <trkpt lat="45.19243" lon="5.96732">
        <ele>1925.8</ele>
        <time>2026-07-14T10:54:56Z</time>
      </trkpt>
      <trkpt lat="45.19243" lon="5.96732">
        <ele>1925.8</ele>
        <time>2026-07-14T10:54:57Z</time>
      </trkpt>
      <trkpt lat="45.19243" lon="5.96732">
        <ele>1925.8</ele>
        <time>2026-07-14T10:54:58Z</time>
      </trkpt>
      <trkpt lat="45.19243" lon="5.96732">
        <ele>1925.8</ele>
        <time>2026-07-14T10:54:59Z</time>
      </trkpt>
      <trkpt lat="45.19243" lon="5.96732">
        <ele>1925.8</ele>
        <time>2026-07-14T10:55:00Z</time>
      </trkpt>
      <trkpt lat="45.19243" lon="5.96732">
        <ele>1925.8</ele>
        <time>2026-07-14T10:55:01Z</time>
      </trkpt>
      <trkpt lat="45.19243" lon="5.96732">
        <ele>1925.8</ele>
        <time>2026-07-14T10:55:02Z</time>
      </trkpt>
      <trkpt lat="45.19243" lon="5.96732">
        <ele>1925.8</ele>
        <time>2026-07-14T10:55:03Z</time>
      </trkpt>
      <trkpt lat="45.19243" lon="5.96732">
        <ele>1925.8</ele>
        <time>2026-07-14T10:55:04Z</time>
      </trkpt>
      <trkpt lat="45.19243" lon="5.96732">
        <ele>1925.8</ele>
        <time>2026-07-14T10:55:05Z</time>
      </trkpt>
      <trkpt lat="45.19243" lon="5.96732">
        <ele>1925.8</ele>
        <time>2026-07-14T10:55:06Z</time>
      </trkpt>
      <trkpt lat="45.19243" lon="5.96732">
        <ele>1925.8</ele>
        <time>2026-07-14T10:55:07Z</time>
      </trkpt>
      <trkpt lat="45.19243" lon="5.96732">
        <ele>1925.8</ele>
        <time>2026-07-14T10:55:08Z</time>
      </trkpt>
      <trkpt lat="45.19243" lon="5.96732">
        <ele>1925.8</ele>
        <time>2026-07-14T10:55:09Z</time>
      </trkpt>
      <trkpt lat="45.19243" lon="5.96732">
        <ele>1925.8</ele>
        <time>2026-07-14T10:55:10Z</time>
      </trkpt>
      <trkpt lat="45.19243" lon="5.96732">
        <ele>1925.8</ele>
        <time>2026-07-14T10:55:11Z</time>
      </trkpt>
      <trkpt lat="45.19243" lon="5.96732">
        <ele>1925.8</ele>
        <time>2026-07-14T10:55:12Z</time>
      </trkpt>
      <trkpt lat="45.19243" lon="5.96732">
        <ele>1925.8</ele>
        <time>2026-07-14T10:55:13Z</time>
      </trkpt>
      <trkpt lat="45.19243" lon="5.96732">
        <ele>1925.8</ele>
        <time>2026-07-14T10:55:14Z</time>
      </trkpt>
      <trkpt lat="45.19243" lon="5.96732">
        <ele>1925.8</ele>
        <time>2026-07-14T10:55:15Z</time>
      </trkpt>
      <trkpt lat="45.19243" lon="5.96732">
        <ele>1925.8</ele>
        <time>2026-07-14T10:55:16Z</time>
      </trkpt>
      <trkpt lat="45.19243" lon="5.96732">
        <ele>1925.8</ele>
        <time>2026-07-14T10:55:17Z</time>
      </trkpt>
      <trkpt lat="45.19243" lon="5.96732">
        <ele>1925.8</ele>
        <time>2026-07-14T10:55:18Z</time>
      </trkpt>
      <trkpt lat="45.19243" lon="5.96732">
        <ele>1925.8</ele>
        <time>2026-07-14T10:55:19Z</time>
      </trkpt>
      <trkpt lat="45.19243" lon="5.96732">
        <ele>1925.8</ele>
        <time>2026-07-14T10:55:20Z</time>
      </trkpt>
      <trkpt lat="45.19243" lon="5.96732">
        <ele>1925.8</ele>
        <time>2026-07-14T10:55:21Z</time>
      </trkpt>
      <trkpt lat="45.19243" lon="5.96732">
        <ele>1925.8</ele>
        <time>2026-07-14T10:55:22Z</time>
      </trkpt>
      <trkpt lat="45.19243" lon="5.96732">
        <ele>1925.8</ele>
        <time>2026-07-14T10:55:23Z</time>
      </trkpt>
      <trkpt lat="45.19243" lon="5.96732">
        <ele>1925.8</ele>
        <time>2026-07-14T10:55:24Z</time>
      </trkpt>
      <trkpt lat="45.19243" lon="5.96732">
        <ele>1925.8</ele>
        <time>2026-07-14T10:55:25Z</time>
      </trkpt>
      <trkpt lat="45.19243" lon="5.96732">
        <ele>1925.8</ele>
        <time>2026-07-14T10:55:26Z</time>
      </trkpt>
      <trkpt lat="45.19243" lon="5.96732">
        <ele>1925.8</ele>
        <time>2026-07-14T10:55:27Z</time>
      </trkpt>
      <trkpt lat="45.19243" lon="5.96732">
        <ele>1925.8</ele>
        <time>2026-07-14T10:55:28Z</time>
      </trkpt>
      <trkpt lat="45.19243" lon="5.96732">
        <ele>1925.8</ele>
        <time>2026-07-14T10:55:29Z</time>
      </trkpt>
      <trkpt lat="45.19243" lon="5.96732">
        <ele>1925.8</ele>
        <time>2026-07-14T10:55:30Z</time>
      </trkpt>
      <trkpt lat="45.19243" lon="5.96732">
        <ele>1925.8</ele>
        <time>2026-07-14T10:55:31Z</time>
      </trkpt>
      <trkpt lat="45.19243" lon="5.96732">
        <ele>1925.8</ele>
        <time>2026-07-14T10:55:32Z</time>
      </trkpt>
      <trkpt lat="45.19243" lon="5.96732">
        <ele>1925.8</ele>
        <time>2026-07-14T10:55:33Z</time>
      </trkpt>
      <trkpt lat="45.19243" lon="5.96732">
        <ele>1925.8</ele>
        <time>2026-07-14T10:55:34Z</time>
      </trkpt>
      <trkpt lat="45.19243" lon="5.96732">
        <ele>1925.8</ele>
        <time>2026-07-14T10:55:35Z</time>
      </trkpt>
      <trkpt lat="45.19243" lon="5.96732">
        <ele>1925.8</ele>
        <time>2026-07-14T10:55:36Z</time>
      </trkpt>
      <trkpt lat="45.19243" lon="5.96732">
        <ele>1925.8</ele>
        <time>2026-07-14T10:55:37Z</time>
      </trkpt>
      <trkpt lat="45.19243" lon="5.96732">
        <ele>1925.8</ele>
        <time>2026-07-14T10:55:38Z</time>
      </trkpt>
      <trkpt lat="45.19243" lon="5.96732">
        <ele>1925.8</ele>
        <time>2026-07-14T10:55:39Z</time>
      </trkpt>
      <trkpt lat="45.19243" lon="5.96732">
        <ele>1925.8</ele>
        <time>2026-07-14T10:55:40Z</time>
      </trkpt>
      <trkpt lat="45.19243" lon="5.96732">
        <ele>1925.8</ele>
        <time>2026-07-14T10:55:41Z</time>
      </trkpt>
      <trkpt lat="45.19243" lon="5.96732">
        <ele>1925.8</ele>
        <time>2026-07-14T10:55:42Z</time>
      </trkpt>
      <trkpt lat="45.19243" lon="5.96732">
        <ele>1925.8</ele>
        <time>2026-07-14T10:55:43Z</time>
      </trkpt>
      <trkpt lat="45.19243" lon="5.96732">
        <ele>1925.8</ele>
        <time>2026-07-14T10:55:44Z</time>
      </trkpt>
      <trkpt lat="45.19243" lon="5.96732">
        <ele>1925.8</ele>
        <time>2026-07-14T10:55:45Z</time>
      </trkpt>
      <trkpt lat="45.19243" lon="5.96732">
        <ele>1925.8</ele>
        <time>2026-07-14T10:55:46Z</time>
      </trkpt>
      <trkpt lat="45.19243" lon="5.96732">
        <ele>1925.8</ele>
        <time>2026-07-14T10:55:47Z</time>
      </trkpt>
      <trkpt lat="45.19243" lon="5.96732">
        <ele>1925.8</ele>
        <time>2026-07-14T10:55:48Z</time>
      </trkpt>
      <trkpt lat="45.19243" lon="5.96732">
        <ele>1925.8</ele>
        <time>2026-07-14T10:55:49Z</time>
      </trkpt>
      <trkpt lat="45.19243" lon="5.96732">
        <ele>1925.8</ele>
        <time>2026-07-14T10:55:50Z</time>
      </trkpt>
      <trkpt lat="45.19243" lon="5.96732">
        <ele>1925.8</ele>
        <time>2026-07-14T10:55:51Z</time>
      </trkpt>
      <trkpt lat="45.19243" lon="5.96732">
        <ele>1925.8</ele>
        <time>2026-07-14T10:55:52Z</time>
      </trkpt>
      <trkpt lat="45.19243" lon="5.96732">
        <ele>1925.8</ele>
        <time>2026-07-14T10:55:53Z</time>
      </trkpt>
      <trkpt lat="45.19243" lon="5.96732">
        <ele>1925.8</ele>
        <time>2026-07-14T10:55:54Z</time>
      </trkpt>
      <trkpt lat="45.19243" lon="5.96732">
        <ele>1925.8</ele>
        <time>2026-07-14T10:55:55Z</time>
      </trkpt>
      <trkpt lat="45.19243" lon="5.96732">
        <ele>1925.8</ele>
        <time>2026-07-14T10:55:56Z</time>
      </trkpt>
      <trkpt lat="45.19243" lon="5.96732">
        <ele>1925.8</ele>
        <time>2026-07-14T10:55:57Z</time>
      </trkpt>
      <trkpt lat="45.19243" lon="5.96732">
        <ele>1925.8</ele>
        <time>2026-07-14T10:55:58Z</time>
      </trkpt>
      <trkpt lat="45.19243" lon="5.96732">
        <ele>1925.8</ele>
        <time>2026-07-14T10:55:59Z</time>
      </trkpt>
      <trkpt lat="45.19243" lon="5.96732">
        <ele>1925.8</ele>
        <time>2026-07-14T10:56:00Z</time>
      </trkpt>
      <trkpt lat="45.19243" lon="5.96732">
        <ele>1925.8</ele>
        <time>2026-07-14T10:56:01Z</time>
      </trkpt>
      <trkpt lat="45.19243" lon="5.96732">
        <ele>1925.8</ele>
        <time>2026-07-14T10:56:02Z</time>
      </trkpt>
      <trkpt lat="45.19243" lon="5.96732">
        <ele>1925.8</ele>
        <time>2026-07-14T10:56:03Z</time>
      </trkpt>
      <trkpt lat="45.19243" lon="5.96732">
        <ele>1925.8</ele>
        <time>2026-07-14T10:56:04Z</time>
      </trkpt>
      <trkpt lat="45.19243" lon="5.96732">
        <ele>1925.8</ele>
        <time>2026-07-14T10:56:05Z</time>
      </trkpt>
      <trkpt lat="45.19243" lon="5.96732">
        <ele>1925.8</ele>
        <time>2026-07-14T10:56:06Z</time>
      </trkpt>
      <trkpt lat="45.19243" lon="5.96732">
        <ele>1925.8</ele>
        <time>2026-07-14T10:56:07Z</time>
      </trkpt>
      <trkpt lat="45.19243" lon="5.96732">
        <ele>1925.8</ele>
        <time>2026-07-14T10:56:08Z</time>
      </trkpt>
      <trkpt lat="45.19243" lon="5.96732">
        <ele>1925.8</ele>
        <time>2026-07-14T10:56:09Z</time>
      </trkpt>
      <trkpt lat="45.19243" lon="5.96732">
        <ele>1925.8</ele>
        <time>2026-07-14T10:56:10Z</time>
      </trkpt>
      <trkpt lat="45.19243" lon="5.96732">
        <ele>1925.8</ele>
        <time>2026-07-14T10:56:11Z</time>
      </trkpt>
      <trkpt lat="45.19243" lon="5.96732">
        <ele>1925.8</ele>
        <time>2026-07-14T10:56:12Z</time>
      </trkpt>
      <trkpt lat="45.19243" lon="5.96732">
        <ele>1925.8</ele>
        <time>2026-07-14T10:56:13Z</time>
      </trkpt>
      <trkpt lat="45.19243" lon="5.96732">
        <ele>1925.8</ele>
        <time>2026-07-14T10:56:14Z</time>
      </trkpt>
      <trkpt lat="45.19243" lon="5.96732">
        <ele>1925.8</ele>
        <time>2026-07-14T10:56:15Z</time>
      </trkpt>
      <trkpt lat="45.19243" lon="5.96732">
        <ele>1925.8</ele>
        <time>2026-07-14T10:56:16Z</time>
      </trkpt>
      <trkpt lat="45.19243" lon="5.96732">
        <ele>1925.8</ele>
        <time>2026-07-14T10:56:17Z</time>
      </trkpt>
      <trkpt lat="45.19243" lon="5.96732">
        <ele>1925.8</ele>
        <time>2026-07-14T10:56:18Z</time>
      </trkpt>
      <trkpt lat="45.19243" lon="5.96732">
        <ele>1925.8</ele>
        <time>2026-07-14T10:56:19Z</time>
      </trkpt>
      <trkpt lat="45.19243" lon="5.96732">
        <ele>1925.8</ele>
        <time>2026-07-14T10:56:20Z</time>
      </trkpt>
      <trkpt lat="45.19243" lon="5.96732">
        <ele>1925.8</ele>
        <time>2026-07-14T10:56:21Z</time>
      </trkpt>
      <trkpt lat="45.19243" lon="5.96732">
        <ele>1925.8</ele>
        <time>2026-07-14T10:56:22Z</time>
      </trkpt>
      <trkpt lat="45.19243" lon="5.96732">
        <ele>1925.8</ele>
        <time>2026-07-14T10:56:23Z</time>
      </trkpt>
      <trkpt lat="45.19243" lon="5.96732">
        <ele>1925.8</ele>
        <time>2026-07-14T10:56:24Z</time>
      </trkpt>
      <trkpt lat="45.19243" lon="5.96732">
        <ele>1925.8</ele>
        <time>2026-07-14T10:56:25Z</time>
      </trkpt>
      <trkpt lat="45.19243" lon="5.96732">
        <ele>1925.8</ele>
        <time>2026-07-14T10:56:26Z</time>
      </trkpt>
      <trkpt lat="45.19243" lon="5.96732">
        <ele>1925.8</ele>
        <time>2026-07-14T10:56:27Z</time>
      </trkpt>
      <trkpt lat="45.19243" lon="5.96732">
        <ele>1925.8</ele>
        <time>2026-07-14T10:56:28Z</time>
      </trkpt>
      <trkpt lat="45.19243" lon="5.96732">
        <ele>1925.8</ele>
        <time>2026-07-14T10:56:29Z</time>
      </trkpt>
      <trkpt lat="45.19243" lon="5.96732">
        <ele>1925.8</ele>
        <time>2026-07-14T10:56:30Z</time>
      </trkpt>
      <trkpt lat="45.19243" lon="5.96732">
        <ele>1925.8</ele>
        <time>2026-07-14T10:56:31Z</time>
      </trkpt>
      <trkpt lat="45.19243" lon="5.96732">
        <ele>1925.8</ele>
        <time>2026-07-14T10:56:32Z</time>
      </trkpt>
      <trkpt lat="45.19243" lon="5.96732">
        <ele>1925.8</ele>
        <time>2026-07-14T10:56:33Z</time>
      </trkpt>
      <trkpt lat="45.19243" lon="5.96732">
        <ele>1925.8</ele>
        <time>2026-07-14T10:56:34Z</time>
      </trkpt>
      <trkpt lat="45.19243" lon="5.96732">
        <ele>1925.8</ele>
        <time>2026-07-14T10:56:35Z</time>
      </trkpt>
      <trkpt lat="45.19243" lon="5.96732">
        <ele>1925.8</ele>
        <time>2026-07-14T10:56:36Z</time>
      </trkpt>
      <trkpt lat="45.19243" lon="5.96732">
        <ele>1925.8</ele>
        <time>2026-07-14T10:56:37Z</time>
      </trkpt>
      <trkpt lat="45.19243" lon="5.96732">
        <ele>1925.8</ele>
        <time>2026-07-14T10:56:38Z</time>
      </trkpt>
      <trkpt lat="45.19243" lon="5.96732">
        <ele>1925.8</ele>
        <time>2026-07-14T10:56:39Z</time>
      </trkpt>
      <trkpt lat="45.19243" lon="5.96732">
        <ele>1925.8</ele>
        <time>2026-07-14T10:56:40Z</time>
      </trkpt>
      <trkpt lat="45.19243" lon="5.96732">
        <ele>1925.8</ele>
        <time>2026-07-14T10:56:41Z</time>
      </trkpt>
      <trkpt lat="45.19243" lon="5.96732">
        <ele>1925.8</ele>
        <time>2026-07-14T10:56:42Z</time>
      </trkpt>
      <trkpt lat="45.19243" lon="5.96732">
        <ele>1925.8</ele>
        <time>2026-07-14T10:56:43Z</time>
      </trkpt>
      <trkpt lat="45.19243" lon="5.96732">
        <ele>1925.8</ele>
        <time>2026-07-14T10:56:44Z</time>
      </trkpt>
      <trkpt lat="45.19243" lon="5.96732">
        <ele>1925.8</ele>
        <time>2026-07-14T10:56:45Z</time>
      </trkpt>
      <trkpt lat="45.19243" lon="5.96732">
        <ele>1925.8</ele>
        <time>2026-07-14T10:56:46Z</time>
      </trkpt>
      <trkpt lat="45.19243" lon="5.96732">
        <ele>1925.8</ele>
        <time>2026-07-14T10:56:47Z</time>
      </trkpt>
      <trkpt lat="45.19243" lon="5.96732">
        <ele>1925.8</ele>
        <time>2026-07-14T10:56:48Z</time>
      </trkpt>
      <trkpt lat="45.19243" lon="5.96732">
        <ele>1925.8</ele>
        <time>2026-07-14T10:56:49Z</time>
      </trkpt>
      <trkpt lat="45.19243" lon="5.96732">
        <ele>1925.8</ele>
        <time>2026-07-14T10:56:50Z</time>
      </trkpt>
      <trkpt lat="45.19243" lon="5.96732">
        <ele>1925.8</ele>
        <time>2026-07-14T10:56:51Z</time>
      </trkpt>
      <trkpt lat="45.19243" lon="5.96732">
        <ele>1925.8</ele>
        <time>2026-07-14T10:56:52Z</time>
      </trkpt>
      <trkpt lat="45.19243" lon="5.96732">
        <ele>1925.8</ele>
        <time>2026-07-14T10:56:53Z</time>
      </trkpt>
      <trkpt lat="45.19243" lon="5.96732">
        <ele>1925.8</ele>
        <time>2026-07-14T10:56:54Z</time>
      </trkpt>
      <trkpt lat="45.19243" lon="5.96732">
        <ele>1925.8</ele>
        <time>2026-07-14T10:56:55Z</time>
      </trkpt>
      <trkpt lat="45.19243" lon="5.96732">
        <ele>1925.8</ele>
        <time>2026-07-14T10:56:56Z</time>
      </trkpt>
      <trkpt lat="45.19243" lon="5.96732">
        <ele>1925.8</ele>
        <time>2026-07-14T10:56:57Z</time>
      </trkpt>
      <trkpt lat="45.19243" lon="5.96732">
        <ele>1925.8</ele>
        <time>2026-07-14T10:56:58Z</time>
      </trkpt>
      <trkpt lat="45.19243" lon="5.96732">
        <ele>1925.8</ele>
        <time>2026-07-14T10:56:59Z</time>
      </trkpt>
      <trkpt lat="45.19243" lon="5.96732">
        <ele>1925.8</ele>
        <time>2026-07-14T10:57:00Z</time>
      </trkpt>
      <trkpt lat="45.19243" lon="5.96732">
        <ele>1925.8</ele>
        <time>2026-07-14T10:57:01Z</time>
      </trkpt>
      <trkpt lat="45.19243" lon="5.96732">
        <ele>1925.8</ele>
        <time>2026-07-14T10:57:02Z</time>
      </trkpt>
      <trkpt lat="45.19243" lon="5.96732">
        <ele>1925.8</ele>
        <time>2026-07-14T10:57:03Z</time>
      </trkpt>
      <trkpt lat="45.19243" lon="5.96732">
        <ele>1925.8</ele>
        <time>2026-07-14T10:57:04Z</time>
      </trkpt>
      <trkpt lat="45.19243" lon="5.96732">
        <ele>1925.8</ele>
        <time>2026-07-14T10:57:05Z</time>
      </trkpt>
      <trkpt lat="45.19243" lon="5.96732">
        <ele>1925.8</ele>
        <time>2026-07-14T10:57:06Z</time>
      </trkpt>
      <trkpt lat="45.19243" lon="5.96732">
        <ele>1925.8</ele>
        <time>2026-07-14T10:57:07Z</time>
      </trkpt>
      <trkpt lat="45.19243" lon="5.96732">
        <ele>1925.8</ele>
        <time>2026-07-14T10:57:08Z</time>
      </trkpt>
      <trkpt lat="45.19243" lon="5.96732">
        <ele>1925.8</ele>
        <time>2026-07-14T10:57:09Z</time>
      </trkpt>
      <trkpt lat="45.19243" lon="5.96732">
        <ele>1925.8</ele>
        <time>2026-07-14T10:57:10Z</time>
      </trkpt>
      <trkpt lat="45.19243" lon="5.96732">
        <ele>1925.8</ele>
        <time>2026-07-14T10:57:11Z</time>
      </trkpt>
      <trkpt lat="45.19243" lon="5.96732">
        <ele>1925.8</ele>
        <time>2026-07-14T10:57:12Z</time>
      </trkpt>
      <trkpt lat="45.19243" lon="5.96732">
        <ele>1925.8</ele>
        <time>2026-07-14T10:57:13Z</time>
      </trkpt>
      <trkpt lat="45.19243" lon="5.96732">
        <ele>1925.8</ele>
        <time>2026-07-14T10:57:14Z</time>
      </trkpt>
      <trkpt lat="45.19243" lon="5.96732">
        <ele>1925.8</ele>
        <time>2026-07-14T10:57:15Z</time>
      </trkpt>
      <trkpt lat="45.19243" lon="5.96732">
        <ele>1925.8</ele>
        <time>2026-07-14T10:57:16Z</time>
      </trkpt>
      <trkpt lat="45.19243" lon="5.96732">
        <ele>1925.8</ele>
        <time>2026-07-14T10:57:17Z</time>
      </trkpt>
      <trkpt lat="45.19243" lon="5.96732">
        <ele>1925.8</ele>
        <time>2026-07-14T10:57:18Z</time>
      </trkpt>
      <trkpt lat="45.19243" lon="5.96732">
        <ele>1925.8</ele>
        <time>2026-07-14T10:57:19Z</time>
      </trkpt>
      <trkpt lat="45.19243" lon="5.96732">
        <ele>1925.8</ele>
        <time>2026-07-14T10:57:20Z</time>
      </trkpt>
      <trkpt lat="45.19243" lon="5.96732">
        <ele>1925.8</ele>
        <time>2026-07-14T10:57:21Z</time>
      </trkpt>
      <trkpt lat="45.19243" lon="5.96732">
        <ele>1925.8</ele>
        <time>2026-07-14T10:57:22Z</time>
      </trkpt>
      <trkpt lat="45.19243" lon="5.96732">
        <ele>1925.8</ele>
        <time>2026-07-14T10:57:23Z</time>
      </trkpt>
      <trkpt lat="45.19243" lon="5.96732">
        <ele>1925.8</ele>
        <time>2026-07-14T10:57:24Z</time>
      </trkpt>
      <trkpt lat="45.19243" lon="5.96732">
        <ele>1925.8</ele>
        <time>2026-07-14T10:57:25Z</time>
      </trkpt>
      <trkpt lat="45.19243" lon="5.96732">
        <ele>1925.8</ele>
        <time>2026-07-14T10:57:26Z</time>
      </trkpt>
      <trkpt lat="45.19243" lon="5.96732">
        <ele>1925.8</ele>
        <time>2026-07-14T10:57:27Z</time>
      </trkpt>
      <trkpt lat="45.19243" lon="5.96732">
        <ele>1925.8</ele>
        <time>2026-07-14T10:57:28Z</time>
      </trkpt>
      <trkpt lat="45.19243" lon="5.96732">
        <ele>1925.8</ele>
        <time>2026-07-14T10:57:29Z</time>
      </trkpt>
      <trkpt lat="45.19243" lon="5.96732">
        <ele>1925.8</ele>
        <time>2026-07-14T10:57:30Z</time>
      </trkpt>
      <trkpt lat="45.19243" lon="5.96732">
        <ele>1925.8</ele>
        <time>2026-07-14T10:57:31Z</time>
      </trkpt>
      <trkpt lat="45.19243" lon="5.96732">
        <ele>1925.8</ele>
        <time>2026-07-14T10:57:32Z</time>
      </trkpt>
      <trkpt lat="45.19243" lon="5.96732">
        <ele>1925.8</ele>
        <time>2026-07-14T10:57:33Z</time>
      </trkpt>
      <trkpt lat="45.19243" lon="5.96732">
        <ele>1925.8</ele>
        <time>2026-07-14T10:57:34Z</time>
      </trkpt>
      <trkpt lat="45.19243" lon="5.96732">
        <ele>1925.8</ele>
        <time>2026-07-14T10:57:35Z</time>
      </trkpt>
      <trkpt lat="45.19243" lon="5.96732">
        <ele>1925.8</ele>
        <time>2026-07-14T10:57:36Z</time>
      </trkpt>
      <trkpt lat="45.19243" lon="5.96732">
        <ele>1925.8</ele>
        <time>2026-07-14T10:57:37Z</time>
      </trkpt>
      <trkpt lat="45.19243" lon="5.96732">
        <ele>1925.8</ele>
        <time>2026-07-14T10:57:38Z</time>
      </trkpt>
      <trkpt lat="45.19243" lon="5.96732">
        <ele>1925.8</ele>
        <time>2026-07-14T10:57:39Z</time>
      </trkpt>
      <trkpt lat="45.19243" lon="5.96732">
        <ele>1925.8</ele>
        <time>2026-07-14T10:57:40Z</time>
      </trkpt>
      <trkpt lat="45.19243" lon="5.96732">
        <ele>1925.8</ele>
        <time>2026-07-14T10:57:41Z</time>
      </trkpt>
      <trkpt lat="45.19243" lon="5.96732">
        <ele>1925.8</ele>
        <time>2026-07-14T10:57:42Z</time>
      </trkpt>
      <trkpt lat="45.19243" lon="5.96732">
        <ele>1925.8</ele>
        <time>2026-07-14T10:57:43Z</time>
      </trkpt>
      <trkpt lat="45.19243" lon="5.96732">
        <ele>1925.8</ele>
        <time>2026-07-14T10:57:44Z</time>
      </trkpt>
      <trkpt lat="45.19243" lon="5.96732">
        <ele>1925.8</ele>
        <time>2026-07-14T10:57:45Z</time>
      </trkpt>
      <trkpt lat="45.19243" lon="5.96732">
        <ele>1925.8</ele>
        <time>2026-07-14T10:57:46Z</time>
      </trkpt>
      <trkpt lat="45.19243" lon="5.96732">
        <ele>1925.8</ele>
        <time>2026-07-14T10:57:47Z</time>
      </trkpt>
      <trkpt lat="45.19243" lon="5.96732">
        <ele>1925.8</ele>
        <time>2026-07-14T10:57:48Z</time>
      </trkpt>
      <trkpt lat="45.19243" lon="5.96732">
        <ele>1925.8</ele>
        <time>2026-07-14T10:57:49Z</time>
      </trkpt>
      <trkpt lat="45.19243" lon="5.96732">
        <ele>1925.8</ele>
        <time>2026-07-14T10:57:50Z</time>
      </trkpt>
      <trkpt lat="45.19243" lon="5.96732">
        <ele>1925.8</ele>
        <time>2026-07-14T10:57:51Z</time>
      </trkpt>
      <trkpt lat="45.19243" lon="5.96732">
        <ele>1925.8</ele>
        <time>2026-07-14T10:57:52Z</time>
      </trkpt>
      <trkpt lat="45.19243" lon="5.96732">
        <ele>1925.8</ele>
        <time>2026-07-14T10:57:53Z</time>
      </trkpt>
      <trkpt lat="45.19243" lon="5.96732">
        <ele>1925.8</ele>
        <time>2026-07-14T10:57:54Z</time>
      </trkpt>
      <trkpt lat="45.19243" lon="5.96732">
        <ele>1925.8</ele>
        <time>2026-07-14T10:57:55Z</time>
      </trkpt>
      <trkpt lat="45.19243" lon="5.96732">
        <ele>1925.8</ele>
        <time>2026-07-14T10:57:56Z</time>
      </trkpt>
      <trkpt lat="45.19243" lon="5.96732">
        <ele>1925.8</ele>
        <time>2026-07-14T10:57:57Z</time>
      </trkpt>
      <trkpt lat="45.19243" lon="5.96732">
        <ele>1925.8</ele>
        <time>2026-07-14T10:57:58Z</time>
      </trkpt>
      <trkpt lat="45.19243" lon="5.96732">
        <ele>1925.8</ele>
        <time>2026-07-14T10:57:59Z</time>
      </trkpt>
      <trkpt lat="45.19243" lon="5.96732">
        <ele>1925.8</ele>
        <time>2026-07-14T10:58:00Z</time>
      </trkpt>
      <trkpt lat="45.19243" lon="5.96732">
        <ele>1925.8</ele>
        <time>2026-07-14T10:58:01Z</time>
      </trkpt>
      <trkpt lat="45.19243" lon="5.96732">
        <ele>1925.8</ele>
        <time>2026-07-14T10:58:02Z</time>
      </trkpt>
      <trkpt lat="45.19243" lon="5.96732">
        <ele>1925.8</ele>
        <time>2026-07-14T10:58:03Z</time>
      </trkpt>
      <trkpt lat="45.19243" lon="5.96732">
        <ele>1925.8</ele>
        <time>2026-07-14T10:58:04Z</time>
      </trkpt>
      <trkpt lat="45.19243" lon="5.96732">
        <ele>1925.8</ele>
        <time>2026-07-14T10:58:05Z</time>
      </trkpt>
      <trkpt lat="45.19243" lon="5.96732">
        <ele>1925.8</ele>
        <time>2026-07-14T10:58:06Z</time>
      </trkpt>
      <trkpt lat="45.19243" lon="5.96732">
        <ele>1925.8</ele>
        <time>2026-07-14T10:58:07Z</time>
      </trkpt>
      <trkpt lat="45.19243" lon="5.96732">
        <ele>1925.8</ele>
        <time>2026-07-14T10:58:08Z</time>
      </trkpt>
      <trkpt lat="45.19243" lon="5.96732">
        <ele>1925.8</ele>
        <time>2026-07-14T10:58:09Z</time>
      </trkpt>
      <trkpt lat="45.19243" lon="5.96732">
        <ele>1925.8</ele>
        <time>2026-07-14T10:58:10Z</time>
      </trkpt>
      <trkpt lat="45.19243" lon="5.96732">
        <ele>1925.8</ele>
        <time>2026-07-14T10:58:11Z</time>
      </trkpt>
      <trkpt lat="45.19243" lon="5.96732">
        <ele>1925.8</ele>
        <time>2026-07-14T10:58:12Z</time>
      </trkpt>
      <trkpt lat="45.19243" lon="5.96732">
        <ele>1925.8</ele>
        <time>2026-07-14T10:58:13Z</time>
      </trkpt>
      <trkpt lat="45.19243" lon="5.96732">
        <ele>1925.8</ele>
        <time>2026-07-14T10:58:14Z</time>
      </trkpt>
      <trkpt lat="45.19243" lon="5.96732">
        <ele>1925.8</ele>
        <time>2026-07-14T10:58:15Z</time>
      </trkpt>
      <trkpt lat="45.19243" lon="5.96732">
        <ele>1925.8</ele>
        <time>2026-07-14T10:58:16Z</time>
      </trkpt>
      <trkpt lat="45.19243" lon="5.96732">
        <ele>1925.8</ele>
        <time>2026-07-14T10:58:17Z</time>
      </trkpt>
      <trkpt lat="45.19243" lon="5.96732">
        <ele>1925.8</ele>
        <time>2026-07-14T10:58:18Z</time>
      </trkpt>
      <trkpt lat="45.19243" lon="5.96732">
        <ele>1925.8</ele>
        <time>2026-07-14T10:58:19Z</time>
      </trkpt>
      <trkpt lat="45.19243" lon="5.96732">
        <ele>1925.8</ele>
        <time>2026-07-14T10:58:20Z</time>
      </trkpt>
      <trkpt lat="45.19243" lon="5.96732">
        <ele>1925.8</ele>
        <time>2026-07-14T10:58:21Z</time>
      </trkpt>
      <trkpt lat="45.19243" lon="5.96732">
        <ele>1925.8</ele>
        <time>2026-07-14T10:58:22Z</time>
      </trkpt>
      <trkpt lat="45.19243" lon="5.96732">
        <ele>1925.8</ele>
        <time>2026-07-14T10:58:23Z</time>
      </trkpt>
      <trkpt lat="45.19243" lon="5.96732">
        <ele>1925.8</ele>
        <time>2026-07-14T10:58:24Z</time>
      </trkpt>
      <trkpt lat="45.19243" lon="5.96732">
        <ele>1925.8</ele>
        <time>2026-07-14T10:58:25Z</time>
      </trkpt>
      <trkpt lat="45.19243" lon="5.96732">
        <ele>1925.8</ele>
        <time>2026-07-14T10:58:26Z</time>
      </trkpt>
      <trkpt lat="45.19243" lon="5.96732">
        <ele>1925.8</ele>
        <time>2026-07-14T10:58:27Z</time>
      </trkpt>
      <trkpt lat="45.19243" lon="5.96732">
        <ele>1925.8</ele>
        <time>2026-07-14T10:58:28Z</time>
      </trkpt>
      <trkpt lat="45.19243" lon="5.96732">
        <ele>1925.8</ele>
        <time>2026-07-14T10:58:29Z</time>
      </trkpt>
      <trkpt lat="45.19243" lon="5.96732">
        <ele>1925.8</ele>
        <time>2026-07-14T10:58:30Z</time>
      </trkpt>
      <trkpt lat="45.19243" lon="5.96732">
        <ele>1925.8</ele>
        <time>2026-07-14T10:58:31Z</time>
      </trkpt>
      <trkpt lat="45.19243" lon="5.96732">
        <ele>1925.8</ele>
        <time>2026-07-14T10:58:32Z</time>
      </trkpt>
      <trkpt lat="45.19243" lon="5.96732">
        <ele>1925.8</ele>
        <time>2026-07-14T10:58:33Z</time>
      </trkpt>
      <trkpt lat="45.19243" lon="5.96732">
        <ele>1925.8</ele>
        <time>2026-07-14T10:58:34Z</time>
      </trkpt>
      <trkpt lat="45.19243" lon="5.96732">
        <ele>1925.8</ele>
        <time>2026-07-14T10:58:35Z</time>
      </trkpt>
      <trkpt lat="45.19243" lon="5.96732">
        <ele>1925.8</ele>
        <time>2026-07-14T10:58:36Z</time>
      </trkpt>
      <trkpt lat="45.19243" lon="5.96732">
        <ele>1925.8</ele>
        <time>2026-07-14T10:58:37Z</time>
      </trkpt>
      <trkpt lat="45.19243" lon="5.96732">
        <ele>1925.8</ele>
        <time>2026-07-14T10:58:38Z</time>
      </trkpt>
      <trkpt lat="45.19243" lon="5.96732">
        <ele>1925.8</ele>
        <time>2026-07-14T10:58:39Z</time>
      </trkpt>
      <trkpt lat="45.19243" lon="5.96732">
        <ele>1925.8</ele>
        <time>2026-07-14T10:58:40Z</time>
      </trkpt>
      <trkpt lat="45.19243" lon="5.96732">
        <ele>1925.8</ele>
        <time>2026-07-14T10:58:41Z</time>
      </trkpt>
      <trkpt lat="45.19243" lon="5.96732">
        <ele>1925.8</ele>
        <time>2026-07-14T10:58:42Z</time>
      </trkpt>
      <trkpt lat="45.19243" lon="5.96732">
        <ele>1925.8</ele>
        <time>2026-07-14T10:58:43Z</time>
      </trkpt>
      <trkpt lat="45.19243" lon="5.96732">
        <ele>1925.8</ele>
        <time>2026-07-14T10:58:44Z</time>
      </trkpt>
      <trkpt lat="45.19243" lon="5.96732">
        <ele>1925.8</ele>
        <time>2026-07-14T10:58:45Z</time>
      </trkpt>
      <trkpt lat="45.19243" lon="5.96732">
        <ele>1925.8</ele>
        <time>2026-07-14T10:58:46Z</time>
      </trkpt>
      <trkpt lat="45.19243" lon="5.96732">
        <ele>1925.8</ele>
        <time>2026-07-14T10:58:47Z</time>
      </trkpt>
      <trkpt lat="45.19243" lon="5.96732">
        <ele>1925.8</ele>
        <time>2026-07-14T10:58:48Z</time>
      </trkpt>
      <trkpt lat="45.19243" lon="5.96732">
        <ele>1925.8</ele>
        <time>2026-07-14T10:58:49Z</time>
      </trkpt>
      <trkpt lat="45.19243" lon="5.96732">
        <ele>1925.8</ele>
        <time>2026-07-14T10:58:50Z</time>
      </trkpt>
      <trkpt lat="45.19243" lon="5.96732">
        <ele>1925.8</ele>
        <time>2026-07-14T10:58:51Z</time>
      </trkpt>
      <trkpt lat="45.19243" lon="5.96732">
        <ele>1925.8</ele>
        <time>2026-07-14T10:58:52Z</time>
      </trkpt>
      <trkpt lat="45.19243" lon="5.96732">
        <ele>1925.8</ele>
        <time>2026-07-14T10:58:53Z</time>
      </trkpt>
      <trkpt lat="45.19243" lon="5.96732">
        <ele>1925.8</ele>
        <time>2026-07-14T10:58:54Z</time>
      </trkpt>
      <trkpt lat="45.19243" lon="5.96732">
        <ele>1925.8</ele>
        <time>2026-07-14T10:58:55Z</time>
      </trkpt>
      <trkpt lat="45.19243" lon="5.96732">
        <ele>1925.8</ele>
        <time>2026-07-14T10:58:56Z</time>
      </trkpt>
      <trkpt lat="45.19243" lon="5.96732">
        <ele>1925.8</ele>
        <time>2026-07-14T10:58:57Z</time>
      </trkpt>
      <trkpt lat="45.19243" lon="5.96732">
        <ele>1925.8</ele>
        <time>2026-07-14T10:58:58Z</time>
      </trkpt>
      <trkpt lat="45.19243" lon="5.96732">
        <ele>1925.8</ele>
        <time>2026-07-14T10:58:59Z</time>
      </trkpt>
      <trkpt lat="45.19243" lon="5.96732">
        <ele>1925.8</ele>
        <time>2026-07-14T10:59:00Z</time>
      </trkpt>
      <trkpt lat="45.19243" lon="5.96732">
        <ele>1925.8</ele>
        <time>2026-07-14T10:59:01Z</time>
      </trkpt>
      <trkpt lat="45.19243" lon="5.96732">
        <ele>1925.8</ele>
        <time>2026-07-14T10:59:02Z</time>
      </trkpt>
      <trkpt lat="45.19243" lon="5.96732">
        <ele>1925.8</ele>
        <time>2026-07-14T10:59:03Z</time>
      </trkpt>
      <trkpt lat="45.19243" lon="5.96732">
        <ele>1925.8</ele>
        <time>2026-07-14T10:59:04Z</time>
      </trkpt>
      <trkpt lat="45.19243" lon="5.96732">
        <ele>1925.8</ele>
        <time>2026-07-14T10:59:05Z</time>
      </trkpt>
      <trkpt lat="45.19243" lon="5.96732">
        <ele>1925.8</ele>
        <time>2026-07-14T10:59:06Z</time>
      </trkpt>
      <trkpt lat="45.19243" lon="5.96732">
        <ele>1925.8</ele>
        <time>2026-07-14T10:59:07Z</time>
      </trkpt>
      <trkpt lat="45.19243" lon="5.96732">
        <ele>1925.8</ele>
        <time>2026-07-14T10:59:08Z</time>
      </trkpt>
      <trkpt lat="45.19243" lon="5.96732">
        <ele>1925.8</ele>
        <time>2026-07-14T10:59:09Z</time>
      </trkpt>
      <trkpt lat="45.19243" lon="5.96732">
        <ele>1925.8</ele>
        <time>2026-07-14T10:59:10Z</time>
      </trkpt>
      <trkpt lat="45.19243" lon="5.96732">
        <ele>1925.8</ele>
        <time>2026-07-14T10:59:11Z</time>
      </trkpt>
      <trkpt lat="45.19243" lon="5.96732">
        <ele>1925.8</ele>
        <time>2026-07-14T10:59:12Z</time>
      </trkpt>
      <trkpt lat="45.19243" lon="5.96732">
        <ele>1925.8</ele>
        <time>2026-07-14T10:59:13Z</time>
      </trkpt>
      <trkpt lat="45.19243" lon="5.96732">
        <ele>1925.8</ele>
        <time>2026-07-14T10:59:14Z</time>
      </trkpt>
      <trkpt lat="45.19243" lon="5.96732">
        <ele>1925.8</ele>
        <time>2026-07-14T10:59:15Z</time>
      </trkpt>
      <trkpt lat="45.19243" lon="5.96732">
        <ele>1925.8</ele>
        <time>2026-07-14T10:59:16Z</time>
      </trkpt>
      <trkpt lat="45.19243" lon="5.96732">
        <ele>1925.8</ele>
        <time>2026-07-14T10:59:17Z</time>
      </trkpt>
      <trkpt lat="45.19243" lon="5.96732">
        <ele>1925.8</ele>
        <time>2026-07-14T10:59:18Z</time>
      </trkpt>
      <trkpt lat="45.19243" lon="5.96732">
        <ele>1925.8</ele>
        <time>2026-07-14T10:59:19Z</time>
      </trkpt>
      <trkpt lat="45.19243" lon="5.96732">
        <ele>1925.8</ele>
        <time>2026-07-14T10:59:20Z</time>
      </trkpt>
      <trkpt lat="45.19243" lon="5.96731">
        <ele>1925.8</ele>
        <time>2026-07-14T10:59:21Z</time>
      </trkpt>
      <trkpt lat="45.19243" lon="5.96731">
        <ele>1925.8</ele>
        <time>2026-07-14T10:59:22Z</time>
      </trkpt>
      <trkpt lat="45.19243" lon="5.96731">
        <ele>1925.8</ele>
        <time>2026-07-14T10:59:23Z</time>
      </trkpt>
      <trkpt lat="45.19243" lon="5.96731">
        <ele>1925.8</ele>
        <time>2026-07-14T10:59:24Z</time>
      </trkpt>
      <trkpt lat="45.19243" lon="5.96731">
        <ele>1925.8</ele>
        <time>2026-07-14T10:59:25Z</time>
      </trkpt>
      <trkpt lat="45.19243" lon="5.96731">
        <ele>1925.8</ele>
        <time>2026-07-14T10:59:26Z</time>
      </trkpt>
      <trkpt lat="45.19243" lon="5.96731">
        <ele>1925.8</ele>
        <time>2026-07-14T10:59:27Z</time>
      </trkpt>
      <trkpt lat="45.19243" lon="5.96731">
        <ele>1925.8</ele>
        <time>2026-07-14T10:59:28Z</time>
      </trkpt>
      <trkpt lat="45.19243" lon="5.96731">
        <ele>1925.8</ele>
        <time>2026-07-14T10:59:29Z</time>
      </trkpt>
      <trkpt lat="45.19243" lon="5.96731">
        <ele>1925.8</ele>
        <time>2026-07-14T10:59:30Z</time>
      </trkpt>
      <trkpt lat="45.19243" lon="5.96731">
        <ele>1925.8</ele>
        <time>2026-07-14T10:59:31Z</time>
      </trkpt>
      <trkpt lat="45.19243" lon="5.96731">
        <ele>1925.8</ele>
        <time>2026-07-14T10:59:32Z</time>
      </trkpt>
      <trkpt lat="45.19243" lon="5.96731">
        <ele>1925.8</ele>
        <time>2026-07-14T10:59:33Z</time>
      </trkpt>
      <trkpt lat="45.19243" lon="5.96731">
        <ele>1925.8</ele>
        <time>2026-07-14T10:59:34Z</time>
      </trkpt>
      <trkpt lat="45.19243" lon="5.96731">
        <ele>1925.8</ele>
        <time>2026-07-14T10:59:35Z</time>
      </trkpt>
      <trkpt lat="45.19243" lon="5.96731">
        <ele>1925.8</ele>
        <time>2026-07-14T10:59:36Z</time>
      </trkpt>
      <trkpt lat="45.19243" lon="5.96731">
        <ele>1925.8</ele>
        <time>2026-07-14T10:59:37Z</time>
      </trkpt>
      <trkpt lat="45.19243" lon="5.96731">
        <ele>1925.8</ele>
        <time>2026-07-14T10:59:38Z</time>
      </trkpt>
      <trkpt lat="45.19243" lon="5.96731">
        <ele>1925.8</ele>
        <time>2026-07-14T10:59:39Z</time>
      </trkpt>
      <trkpt lat="45.19243" lon="5.96731">
        <ele>1925.8</ele>
        <time>2026-07-14T10:59:40Z</time>
      </trkpt>
      <trkpt lat="45.19243" lon="5.96731">
        <ele>1925.8</ele>
        <time>2026-07-14T10:59:41Z</time>
      </trkpt>
      <trkpt lat="45.19243" lon="5.96731">
        <ele>1925.8</ele>
        <time>2026-07-14T10:59:42Z</time>
      </trkpt>
      <trkpt lat="45.19243" lon="5.96731">
        <ele>1925.8</ele>
        <time>2026-07-14T10:59:43Z</time>
      </trkpt>
      <trkpt lat="45.19243" lon="5.96731">
        <ele>1925.8</ele>
        <time>2026-07-14T10:59:44Z</time>
      </trkpt>
      <trkpt lat="45.19243" lon="5.96732">
        <ele>1925.8</ele>
        <time>2026-07-14T10:59:45Z</time>
      </trkpt>
      <trkpt lat="45.19243" lon="5.96732">
        <ele>1925.8</ele>
        <time>2026-07-14T10:59:46Z</time>
      </trkpt>
      <trkpt lat="45.19243" lon="5.96731">
        <ele>1925.8</ele>
        <time>2026-07-14T10:59:47Z</time>
      </trkpt>
      <trkpt lat="45.19243" lon="5.96732">
        <ele>1925.8</ele>
        <time>2026-07-14T10:59:48Z</time>
      </trkpt>
      <trkpt lat="45.19243" lon="5.96732">
        <ele>1925.8</ele>
        <time>2026-07-14T10:59:49Z</time>
      </trkpt>
      <trkpt lat="45.19243" lon="5.96731">
        <ele>1925.8</ele>
        <time>2026-07-14T10:59:50Z</time>
      </trkpt>
      <trkpt lat="45.19243" lon="5.96732">
        <ele>1925.8</ele>
        <time>2026-07-14T10:59:51Z</time>
      </trkpt>
      <trkpt lat="45.19243" lon="5.96732">
        <ele>1925.8</ele>
        <time>2026-07-14T10:59:52Z</time>
      </trkpt>
      <trkpt lat="45.19243" lon="5.96732">
        <ele>1925.8</ele>
        <time>2026-07-14T10:59:53Z</time>
      </trkpt>
      <trkpt lat="45.19243" lon="5.96732">
        <ele>1925.8</ele>
        <time>2026-07-14T10:59:54Z</time>
      </trkpt>
      <trkpt lat="45.19243" lon="5.96732">
        <ele>1925.8</ele>
        <time>2026-07-14T10:59:55Z</time>
      </trkpt>
      <trkpt lat="45.19243" lon="5.96732">
        <ele>1925.8</ele>
        <time>2026-07-14T10:59:56Z</time>
      </trkpt>
      <trkpt lat="45.19243" lon="5.96732">
        <ele>1925.8</ele>
        <time>2026-07-14T10:59:57Z</time>
      </trkpt>
      <trkpt lat="45.19243" lon="5.96732">
        <ele>1925.8</ele>
        <time>2026-07-14T10:59:58Z</time>
      </trkpt>
      <trkpt lat="45.19243" lon="5.96732">
        <ele>1925.8</ele>
        <time>2026-07-14T10:59:59Z</time>
      </trkpt>
      <trkpt lat="45.19243" lon="5.96732">
        <ele>1925.8</ele>
        <time>2026-07-14T11:00:00Z</time>
      </trkpt>
      <trkpt lat="45.19243" lon="5.96732">
        <ele>1925.8</ele>
        <time>2026-07-14T11:00:01Z</time>
      </trkpt>
      <trkpt lat="45.19243" lon="5.96732">
        <ele>1925.8</ele>
        <time>2026-07-14T11:00:02Z</time>
      </trkpt>
      <trkpt lat="45.19243" lon="5.96732">
        <ele>1925.8</ele>
        <time>2026-07-14T11:00:03Z</time>
      </trkpt>
      <trkpt lat="45.19243" lon="5.96732">
        <ele>1925.8</ele>
        <time>2026-07-14T11:00:04Z</time>
      </trkpt>
      <trkpt lat="45.19243" lon="5.96732">
        <ele>1925.8</ele>
        <time>2026-07-14T11:00:05Z</time>
      </trkpt>
      <trkpt lat="45.19243" lon="5.96732">
        <ele>1925.8</ele>
        <time>2026-07-14T11:00:06Z</time>
      </trkpt>
      <trkpt lat="45.19243" lon="5.96732">
        <ele>1925.8</ele>
        <time>2026-07-14T11:00:07Z</time>
      </trkpt>
      <trkpt lat="45.19243" lon="5.96732">
        <ele>1925.8</ele>
        <time>2026-07-14T11:00:08Z</time>
      </trkpt>
      <trkpt lat="45.19243" lon="5.96732">
        <ele>1925.8</ele>
        <time>2026-07-14T11:00:09Z</time>
      </trkpt>
      <trkpt lat="45.19243" lon="5.96732">
        <ele>1925.8</ele>
        <time>2026-07-14T11:00:10Z</time>
      </trkpt>
      <trkpt lat="45.19243" lon="5.96732">
        <ele>1925.8</ele>
        <time>2026-07-14T11:00:11Z</time>
      </trkpt>
      <trkpt lat="45.19243" lon="5.96732">
        <ele>1925.8</ele>
        <time>2026-07-14T11:00:12Z</time>
      </trkpt>
      <trkpt lat="45.19243" lon="5.96732">
        <ele>1925.8</ele>
        <time>2026-07-14T11:00:13Z</time>
      </trkpt>
      <trkpt lat="45.19243" lon="5.96732">
        <ele>1925.8</ele>
        <time>2026-07-14T11:00:14Z</time>
      </trkpt>
      <trkpt lat="45.19243" lon="5.96732">
        <ele>1925.8</ele>
        <time>2026-07-14T11:00:15Z</time>
      </trkpt>
      <trkpt lat="45.19243" lon="5.96732">
        <ele>1925.8</ele>
        <time>2026-07-14T11:00:16Z</time>
      </trkpt>
      <trkpt lat="45.19243" lon="5.96732">
        <ele>1925.8</ele>
        <time>2026-07-14T11:00:17Z</time>
      </trkpt>
      <trkpt lat="45.19243" lon="5.96732">
        <ele>1925.8</ele>
        <time>2026-07-14T11:00:18Z</time>
      </trkpt>
      <trkpt lat="45.19243" lon="5.96732">
        <ele>1925.8</ele>
        <time>2026-07-14T11:00:19Z</time>
      </trkpt>
      <trkpt lat="45.19243" lon="5.96732">
        <ele>1925.8</ele>
        <time>2026-07-14T11:00:20Z</time>
      </trkpt>
      <trkpt lat="45.19243" lon="5.96732">
        <ele>1925.8</ele>
        <time>2026-07-14T11:00:21Z</time>
      </trkpt>
      <trkpt lat="45.19243" lon="5.96732">
        <ele>1925.8</ele>
        <time>2026-07-14T11:00:22Z</time>
      </trkpt>
      <trkpt lat="45.19243" lon="5.96732">
        <ele>1925.8</ele>
        <time>2026-07-14T11:00:23Z</time>
      </trkpt>
      <trkpt lat="45.19243" lon="5.96732">
        <ele>1925.8</ele>
        <time>2026-07-14T11:00:24Z</time>
      </trkpt>
      <trkpt lat="45.19243" lon="5.96732">
        <ele>1925.8</ele>
        <time>2026-07-14T11:00:25Z</time>
      </trkpt>
      <trkpt lat="45.19243" lon="5.96732">
        <ele>1925.8</ele>
        <time>2026-07-14T11:00:26Z</time>
      </trkpt>
      <trkpt lat="45.19243" lon="5.96732">
        <ele>1925.8</ele>
        <time>2026-07-14T11:00:27Z</time>
      </trkpt>
      <trkpt lat="45.19243" lon="5.96732">
        <ele>1925.8</ele>
        <time>2026-07-14T11:00:28Z</time>
      </trkpt>
      <trkpt lat="45.19243" lon="5.96732">
        <ele>1925.8</ele>
        <time>2026-07-14T11:00:29Z</time>
      </trkpt>
      <trkpt lat="45.19243" lon="5.96732">
        <ele>1925.8</ele>
        <time>2026-07-14T11:00:30Z</time>
      </trkpt>
      <trkpt lat="45.19243" lon="5.96732">
        <ele>1925.8</ele>
        <time>2026-07-14T11:00:31Z</time>
      </trkpt>
      <trkpt lat="45.19243" lon="5.96732">
        <ele>1925.8</ele>
        <time>2026-07-14T11:00:32Z</time>
      </trkpt>
      <trkpt lat="45.19243" lon="5.96732">
        <ele>1925.8</ele>
        <time>2026-07-14T11:00:33Z</time>
      </trkpt>
      <trkpt lat="45.19243" lon="5.96732">
        <ele>1925.8</ele>
        <time>2026-07-14T11:00:34Z</time>
      </trkpt>
      <trkpt lat="45.19243" lon="5.96732">
        <ele>1925.8</ele>
        <time>2026-07-14T11:00:35Z</time>
      </trkpt>
      <trkpt lat="45.19243" lon="5.96732">
        <ele>1925.8</ele>
        <time>2026-07-14T11:00:36Z</time>
      </trkpt>
      <trkpt lat="45.19243" lon="5.96732">
        <ele>1925.8</ele>
        <time>2026-07-14T11:00:37Z</time>
      </trkpt>
      <trkpt lat="45.19243" lon="5.96732">
        <ele>1925.8</ele>
        <time>2026-07-14T11:00:38Z</time>
      </trkpt>
      <trkpt lat="45.19243" lon="5.96732">
        <ele>1925.8</ele>
        <time>2026-07-14T11:00:39Z</time>
      </trkpt>
      <trkpt lat="45.19243" lon="5.96732">
        <ele>1925.8</ele>
        <time>2026-07-14T11:00:40Z</time>
      </trkpt>
      <trkpt lat="45.19243" lon="5.96732">
        <ele>1925.8</ele>
        <time>2026-07-14T11:00:41Z</time>
      </trkpt>
      <trkpt lat="45.19243" lon="5.96732">
        <ele>1925.8</ele>
        <time>2026-07-14T11:00:42Z</time>
      </trkpt>
      <trkpt lat="45.19243" lon="5.96732">
        <ele>1925.8</ele>
        <time>2026-07-14T11:00:43Z</time>
      </trkpt>
      <trkpt lat="45.19243" lon="5.96732">
        <ele>1925.8</ele>
        <time>2026-07-14T11:00:44Z</time>
      </trkpt>
      <trkpt lat="45.19243" lon="5.96732">
        <ele>1925.8</ele>
        <time>2026-07-14T11:00:45Z</time>
      </trkpt>
      <trkpt lat="45.19243" lon="5.96732">
        <ele>1925.8</ele>
        <time>2026-07-14T11:00:46Z</time>
      </trkpt>
      <trkpt lat="45.19243" lon="5.96732">
        <ele>1925.8</ele>
        <time>2026-07-14T11:00:47Z</time>
      </trkpt>
      <trkpt lat="45.19243" lon="5.96732">
        <ele>1925.8</ele>
        <time>2026-07-14T11:00:48Z</time>
      </trkpt>
      <trkpt lat="45.19243" lon="5.96732">
        <ele>1925.8</ele>
        <time>2026-07-14T11:00:49Z</time>
      </trkpt>
      <trkpt lat="45.19243" lon="5.96732">
        <ele>1925.8</ele>
        <time>2026-07-14T11:00:50Z</time>
      </trkpt>
      <trkpt lat="45.19243" lon="5.96732">
        <ele>1925.8</ele>
        <time>2026-07-14T11:00:51Z</time>
      </trkpt>
      <trkpt lat="45.19243" lon="5.96732">
        <ele>1925.8</ele>
        <time>2026-07-14T11:00:52Z</time>
      </trkpt>
      <trkpt lat="45.19243" lon="5.96731">
        <ele>1925.8</ele>
        <time>2026-07-14T11:00:53Z</time>
      </trkpt>
      <trkpt lat="45.19243" lon="5.96731">
        <ele>1925.8</ele>
        <time>2026-07-14T11:00:54Z</time>
      </trkpt>
      <trkpt lat="45.19243" lon="5.96731">
        <ele>1925.8</ele>
        <time>2026-07-14T11:00:55Z</time>
      </trkpt>
      <trkpt lat="45.19243" lon="5.96731">
        <ele>1925.8</ele>
        <time>2026-07-14T11:00:56Z</time>
      </trkpt>
      <trkpt lat="45.19243" lon="5.96731">
        <ele>1925.8</ele>
        <time>2026-07-14T11:00:57Z</time>
      </trkpt>
      <trkpt lat="45.19243" lon="5.96731">
        <ele>1925.8</ele>
        <time>2026-07-14T11:00:58Z</time>
      </trkpt>
      <trkpt lat="45.19243" lon="5.96731">
        <ele>1925.8</ele>
        <time>2026-07-14T11:00:59Z</time>
      </trkpt>
      <trkpt lat="45.19243" lon="5.96731">
        <ele>1925.8</ele>
        <time>2026-07-14T11:01:00Z</time>
      </trkpt>
      <trkpt lat="45.19243" lon="5.96731">
        <ele>1925.8</ele>
        <time>2026-07-14T11:01:01Z</time>
      </trkpt>
      <trkpt lat="45.19243" lon="5.96731">
        <ele>1925.8</ele>
        <time>2026-07-14T11:01:02Z</time>
      </trkpt>
      <trkpt lat="45.19243" lon="5.96731">
        <ele>1925.8</ele>
        <time>2026-07-14T11:01:03Z</time>
      </trkpt>
      <trkpt lat="45.19243" lon="5.96731">
        <ele>1925.8</ele>
        <time>2026-07-14T11:01:04Z</time>
      </trkpt>
      <trkpt lat="45.19243" lon="5.96731">
        <ele>1925.8</ele>
        <time>2026-07-14T11:01:05Z</time>
      </trkpt>
      <trkpt lat="45.19243" lon="5.96731">
        <ele>1925.8</ele>
        <time>2026-07-14T11:01:06Z</time>
      </trkpt>
      <trkpt lat="45.19243" lon="5.96731">
        <ele>1925.8</ele>
        <time>2026-07-14T11:01:07Z</time>
      </trkpt>
      <trkpt lat="45.19243" lon="5.96731">
        <ele>1925.8</ele>
        <time>2026-07-14T11:01:08Z</time>
      </trkpt>
      <trkpt lat="45.19243" lon="5.96731">
        <ele>1925.8</ele>
        <time>2026-07-14T11:01:09Z</time>
      </trkpt>
      <trkpt lat="45.19243" lon="5.96731">
        <ele>1925.8</ele>
        <time>2026-07-14T11:01:10Z</time>
      </trkpt>
      <trkpt lat="45.19243" lon="5.96731">
        <ele>1925.8</ele>
        <time>2026-07-14T11:01:11Z</time>
      </trkpt>
      <trkpt lat="45.19243" lon="5.96731">
        <ele>1925.8</ele>
        <time>2026-07-14T11:01:12Z</time>
      </trkpt>
      <trkpt lat="45.19243" lon="5.96731">
        <ele>1925.8</ele>
        <time>2026-07-14T11:01:13Z</time>
      </trkpt>
      <trkpt lat="45.19243" lon="5.96731">
        <ele>1925.8</ele>
        <time>2026-07-14T11:01:14Z</time>
      </trkpt>
      <trkpt lat="45.19243" lon="5.96731">
        <ele>1925.8</ele>
        <time>2026-07-14T11:01:15Z</time>
      </trkpt>
      <trkpt lat="45.19243" lon="5.96731">
        <ele>1925.8</ele>
        <time>2026-07-14T11:01:16Z</time>
      </trkpt>
      <trkpt lat="45.19243" lon="5.96731">
        <ele>1925.8</ele>
        <time>2026-07-14T11:01:17Z</time>
      </trkpt>
      <trkpt lat="45.19243" lon="5.96731">
        <ele>1925.8</ele>
        <time>2026-07-14T11:01:18Z</time>
      </trkpt>
      <trkpt lat="45.19243" lon="5.96731">
        <ele>1925.8</ele>
        <time>2026-07-14T11:01:19Z</time>
      </trkpt>
      <trkpt lat="45.19243" lon="5.96731">
        <ele>1925.8</ele>
        <time>2026-07-14T11:01:20Z</time>
      </trkpt>
      <trkpt lat="45.19243" lon="5.96731">
        <ele>1925.8</ele>
        <time>2026-07-14T11:01:21Z</time>
      </trkpt>
      <trkpt lat="45.19243" lon="5.96731">
        <ele>1925.8</ele>
        <time>2026-07-14T11:01:22Z</time>
      </trkpt>
      <trkpt lat="45.19243" lon="5.96731">
        <ele>1925.8</ele>
        <time>2026-07-14T11:01:23Z</time>
      </trkpt>
      <trkpt lat="45.19243" lon="5.96731">
        <ele>1925.8</ele>
        <time>2026-07-14T11:01:24Z</time>
      </trkpt>
      <trkpt lat="45.19243" lon="5.96731">
        <ele>1925.8</ele>
        <time>2026-07-14T11:01:25Z</time>
      </trkpt>
      <trkpt lat="45.19243" lon="5.96731">
        <ele>1925.8</ele>
        <time>2026-07-14T11:01:26Z</time>
      </trkpt>
      <trkpt lat="45.19243" lon="5.96731">
        <ele>1925.8</ele>
        <time>2026-07-14T11:01:27Z</time>
      </trkpt>
      <trkpt lat="45.19243" lon="5.96731">
        <ele>1925.8</ele>
        <time>2026-07-14T11:01:28Z</time>
      </trkpt>
      <trkpt lat="45.19243" lon="5.96731">
        <ele>1925.8</ele>
        <time>2026-07-14T11:01:29Z</time>
      </trkpt>
      <trkpt lat="45.19243" lon="5.96731">
        <ele>1925.8</ele>
        <time>2026-07-14T11:01:30Z</time>
      </trkpt>
      <trkpt lat="45.19243" lon="5.96731">
        <ele>1925.8</ele>
        <time>2026-07-14T11:01:31Z</time>
      </trkpt>
      <trkpt lat="45.19243" lon="5.96731">
        <ele>1925.8</ele>
        <time>2026-07-14T11:01:32Z</time>
      </trkpt>
      <trkpt lat="45.19243" lon="5.96731">
        <ele>1925.8</ele>
        <time>2026-07-14T11:01:33Z</time>
      </trkpt>
      <trkpt lat="45.19243" lon="5.96731">
        <ele>1925.8</ele>
        <time>2026-07-14T11:01:34Z</time>
      </trkpt>
      <trkpt lat="45.19243" lon="5.96731">
        <ele>1925.8</ele>
        <time>2026-07-14T11:01:35Z</time>
      </trkpt>
      <trkpt lat="45.19243" lon="5.96731">
        <ele>1925.8</ele>
        <time>2026-07-14T11:01:36Z</time>
      </trkpt>
      <trkpt lat="45.19243" lon="5.96731">
        <ele>1925.8</ele>
        <time>2026-07-14T11:01:37Z</time>
      </trkpt>
      <trkpt lat="45.19243" lon="5.96731">
        <ele>1925.8</ele>
        <time>2026-07-14T11:01:38Z</time>
      </trkpt>
      <trkpt lat="45.19243" lon="5.96731">
        <ele>1925.8</ele>
        <time>2026-07-14T11:01:39Z</time>
      </trkpt>
      <trkpt lat="45.19243" lon="5.96731">
        <ele>1925.8</ele>
        <time>2026-07-14T11:01:40Z</time>
      </trkpt>
      <trkpt lat="45.19243" lon="5.96731">
        <ele>1925.8</ele>
        <time>2026-07-14T11:01:41Z</time>
      </trkpt>
      <trkpt lat="45.19243" lon="5.96731">
        <ele>1925.8</ele>
        <time>2026-07-14T11:01:42Z</time>
      </trkpt>
      <trkpt lat="45.19243" lon="5.96731">
        <ele>1925.8</ele>
        <time>2026-07-14T11:01:43Z</time>
      </trkpt>
      <trkpt lat="45.19243" lon="5.96731">
        <ele>1925.8</ele>
        <time>2026-07-14T11:01:44Z</time>
      </trkpt>
      <trkpt lat="45.19243" lon="5.96731">
        <ele>1925.8</ele>
        <time>2026-07-14T11:01:45Z</time>
      </trkpt>
      <trkpt lat="45.19243" lon="5.96731">
        <ele>1925.8</ele>
        <time>2026-07-14T11:01:46Z</time>
      </trkpt>
      <trkpt lat="45.19243" lon="5.96731">
        <ele>1925.8</ele>
        <time>2026-07-14T11:01:47Z</time>
      </trkpt>
      <trkpt lat="45.19243" lon="5.96731">
        <ele>1925.8</ele>
        <time>2026-07-14T11:01:48Z</time>
      </trkpt>
      <trkpt lat="45.19243" lon="5.96731">
        <ele>1925.8</ele>
        <time>2026-07-14T11:01:49Z</time>
      </trkpt>
      <trkpt lat="45.19243" lon="5.96731">
        <ele>1925.8</ele>
        <time>2026-07-14T11:01:50Z</time>
      </trkpt>
      <trkpt lat="45.19243" lon="5.96731">
        <ele>1925.8</ele>
        <time>2026-07-14T11:01:51Z</time>
      </trkpt>
      <trkpt lat="45.19243" lon="5.96731">
        <ele>1925.8</ele>
        <time>2026-07-14T11:01:52Z</time>
      </trkpt>
      <trkpt lat="45.19243" lon="5.96731">
        <ele>1925.8</ele>
        <time>2026-07-14T11:01:53Z</time>
      </trkpt>
      <trkpt lat="45.19243" lon="5.96731">
        <ele>1925.8</ele>
        <time>2026-07-14T11:01:54Z</time>
      </trkpt>
      <trkpt lat="45.19243" lon="5.96731">
        <ele>1925.8</ele>
        <time>2026-07-14T11:01:55Z</time>
      </trkpt>
      <trkpt lat="45.19243" lon="5.96731">
        <ele>1925.8</ele>
        <time>2026-07-14T11:01:56Z</time>
      </trkpt>
      <trkpt lat="45.19243" lon="5.96731">
        <ele>1925.8</ele>
        <time>2026-07-14T11:01:57Z</time>
      </trkpt>
      <trkpt lat="45.19243" lon="5.96731">
        <ele>1925.8</ele>
        <time>2026-07-14T11:01:58Z</time>
      </trkpt>
      <trkpt lat="45.19243" lon="5.96731">
        <ele>1925.8</ele>
        <time>2026-07-14T11:01:59Z</time>
      </trkpt>
      <trkpt lat="45.19243" lon="5.96731">
        <ele>1925.8</ele>
        <time>2026-07-14T11:02:00Z</time>
      </trkpt>
      <trkpt lat="45.19243" lon="5.96731">
        <ele>1925.8</ele>
        <time>2026-07-14T11:02:01Z</time>
      </trkpt>
      <trkpt lat="45.19243" lon="5.96731">
        <ele>1925.8</ele>
        <time>2026-07-14T11:02:02Z</time>
      </trkpt>
      <trkpt lat="45.19243" lon="5.96731">
        <ele>1925.8</ele>
        <time>2026-07-14T11:02:03Z</time>
      </trkpt>
      <trkpt lat="45.19243" lon="5.96731">
        <ele>1925.8</ele>
        <time>2026-07-14T11:02:04Z</time>
      </trkpt>
      <trkpt lat="45.19243" lon="5.96731">
        <ele>1925.8</ele>
        <time>2026-07-14T11:02:05Z</time>
      </trkpt>
      <trkpt lat="45.19243" lon="5.96731">
        <ele>1925.8</ele>
        <time>2026-07-14T11:02:06Z</time>
      </trkpt>
      <trkpt lat="45.19243" lon="5.96731">
        <ele>1925.8</ele>
        <time>2026-07-14T11:02:07Z</time>
      </trkpt>
      <trkpt lat="45.19243" lon="5.96731">
        <ele>1925.8</ele>
        <time>2026-07-14T11:02:08Z</time>
      </trkpt>
      <trkpt lat="45.19243" lon="5.96731">
        <ele>1925.8</ele>
        <time>2026-07-14T11:02:09Z</time>
      </trkpt>
      <trkpt lat="45.19243" lon="5.96732">
        <ele>1925.8</ele>
        <time>2026-07-14T11:02:10Z</time>
      </trkpt>
      <trkpt lat="45.19243" lon="5.96732">
        <ele>1925.8</ele>
        <time>2026-07-14T11:02:11Z</time>
      </trkpt>
      <trkpt lat="45.19243" lon="5.96731">
        <ele>1925.8</ele>
        <time>2026-07-14T11:02:12Z</time>
      </trkpt>
      <trkpt lat="45.19243" lon="5.96731">
        <ele>1925.8</ele>
        <time>2026-07-14T11:02:13Z</time>
      </trkpt>
      <trkpt lat="45.19243" lon="5.96731">
        <ele>1925.8</ele>
        <time>2026-07-14T11:02:14Z</time>
      </trkpt>
      <trkpt lat="45.19243" lon="5.96731">
        <ele>1925.8</ele>
        <time>2026-07-14T11:02:15Z</time>
      </trkpt>
      <trkpt lat="45.19243" lon="5.96731">
        <ele>1925.8</ele>
        <time>2026-07-14T11:02:16Z</time>
      </trkpt>
      <trkpt lat="45.19243" lon="5.96731">
        <ele>1925.8</ele>
        <time>2026-07-14T11:02:17Z</time>
      </trkpt>
      <trkpt lat="45.19243" lon="5.96731">
        <ele>1925.8</ele>
        <time>2026-07-14T11:02:18Z</time>
      </trkpt>
      <trkpt lat="45.19243" lon="5.96731">
        <ele>1925.8</ele>
        <time>2026-07-14T11:02:19Z</time>
      </trkpt>
      <trkpt lat="45.19243" lon="5.96731">
        <ele>1925.8</ele>
        <time>2026-07-14T11:02:20Z</time>
      </trkpt>
      <trkpt lat="45.19243" lon="5.96731">
        <ele>1925.8</ele>
        <time>2026-07-14T11:02:21Z</time>
      </trkpt>
      <trkpt lat="45.19243" lon="5.96731">
        <ele>1925.8</ele>
        <time>2026-07-14T11:02:22Z</time>
      </trkpt>
      <trkpt lat="45.19243" lon="5.96731">
        <ele>1925.8</ele>
        <time>2026-07-14T11:02:23Z</time>
      </trkpt>
      <trkpt lat="45.19243" lon="5.96731">
        <ele>1925.8</ele>
        <time>2026-07-14T11:02:24Z</time>
      </trkpt>
      <trkpt lat="45.19243" lon="5.96731">
        <ele>1925.8</ele>
        <time>2026-07-14T11:02:25Z</time>
      </trkpt>
      <trkpt lat="45.19243" lon="5.96732">
        <ele>1925.8</ele>
        <time>2026-07-14T11:02:26Z</time>
      </trkpt>
      <trkpt lat="45.19243" lon="5.96731">
        <ele>1925.8</ele>
        <time>2026-07-14T11:02:27Z</time>
      </trkpt>
      <trkpt lat="45.19243" lon="5.96732">
        <ele>1925.8</ele>
        <time>2026-07-14T11:02:28Z</time>
      </trkpt>
      <trkpt lat="45.19243" lon="5.96732">
        <ele>1925.8</ele>
        <time>2026-07-14T11:02:29Z</time>
      </trkpt>
      <trkpt lat="45.19243" lon="5.96732">
        <ele>1925.8</ele>
        <time>2026-07-14T11:02:30Z</time>
      </trkpt>
      <trkpt lat="45.19243" lon="5.96732">
        <ele>1925.8</ele>
        <time>2026-07-14T11:02:31Z</time>
      </trkpt>
      <trkpt lat="45.19243" lon="5.96732">
        <ele>1925.8</ele>
        <time>2026-07-14T11:02:32Z</time>
      </trkpt>
      <trkpt lat="45.19243" lon="5.96732">
        <ele>1925.8</ele>
        <time>2026-07-14T11:02:33Z</time>
      </trkpt>
      <trkpt lat="45.19243" lon="5.96732">
        <ele>1925.8</ele>
        <time>2026-07-14T11:02:34Z</time>
      </trkpt>
      <trkpt lat="45.19243" lon="5.96732">
        <ele>1925.8</ele>
        <time>2026-07-14T11:02:35Z</time>
      </trkpt>
      <trkpt lat="45.19243" lon="5.96732">
        <ele>1925.8</ele>
        <time>2026-07-14T11:02:36Z</time>
      </trkpt>
      <trkpt lat="45.19243" lon="5.96732">
        <ele>1925.8</ele>
        <time>2026-07-14T11:02:37Z</time>
      </trkpt>
      <trkpt lat="45.19243" lon="5.96732">
        <ele>1925.8</ele>
        <time>2026-07-14T11:02:38Z</time>
      </trkpt>
      <trkpt lat="45.19243" lon="5.96732">
        <ele>1925.8</ele>
        <time>2026-07-14T11:02:39Z</time>
      </trkpt>
      <trkpt lat="45.19243" lon="5.96732">
        <ele>1925.8</ele>
        <time>2026-07-14T11:02:40Z</time>
      </trkpt>
      <trkpt lat="45.19243" lon="5.96732">
        <ele>1925.8</ele>
        <time>2026-07-14T11:02:41Z</time>
      </trkpt>
      <trkpt lat="45.19243" lon="5.96732">
        <ele>1925.8</ele>
        <time>2026-07-14T11:02:42Z</time>
      </trkpt>
      <trkpt lat="45.19243" lon="5.96732">
        <ele>1925.8</ele>
        <time>2026-07-14T11:02:43Z</time>
      </trkpt>
      <trkpt lat="45.19243" lon="5.96732">
        <ele>1925.8</ele>
        <time>2026-07-14T11:02:44Z</time>
      </trkpt>
      <trkpt lat="45.19243" lon="5.96732">
        <ele>1925.8</ele>
        <time>2026-07-14T11:02:45Z</time>
      </trkpt>
      <trkpt lat="45.19243" lon="5.96732">
        <ele>1925.8</ele>
        <time>2026-07-14T11:02:46Z</time>
      </trkpt>
      <trkpt lat="45.19243" lon="5.96732">
        <ele>1925.7</ele>
        <time>2026-07-14T11:02:47Z</time>
      </trkpt>
      <trkpt lat="45.19243" lon="5.96732">
        <ele>1925.7</ele>
        <time>2026-07-14T11:02:48Z</time>
      </trkpt>
      <trkpt lat="45.19243" lon="5.96732">
        <ele>1925.7</ele>
        <time>2026-07-14T11:02:49Z</time>
      </trkpt>
      <trkpt lat="45.19243" lon="5.96732">
        <ele>1925.7</ele>
        <time>2026-07-14T11:02:50Z</time>
      </trkpt>
      <trkpt lat="45.19243" lon="5.96732">
        <ele>1925.7</ele>
        <time>2026-07-14T11:02:51Z</time>
      </trkpt>
      <trkpt lat="45.19243" lon="5.96732">
        <ele>1925.7</ele>
        <time>2026-07-14T11:02:52Z</time>
      </trkpt>
      <trkpt lat="45.19243" lon="5.96732">
        <ele>1925.7</ele>
        <time>2026-07-14T11:02:53Z</time>
      </trkpt>
      <trkpt lat="45.19243" lon="5.96732">
        <ele>1925.7</ele>
        <time>2026-07-14T11:02:54Z</time>
      </trkpt>
      <trkpt lat="45.19243" lon="5.96732">
        <ele>1925.7</ele>
        <time>2026-07-14T11:02:55Z</time>
      </trkpt>
      <trkpt lat="45.19243" lon="5.96732">
        <ele>1925.7</ele>
        <time>2026-07-14T11:02:56Z</time>
      </trkpt>
      <trkpt lat="45.19243" lon="5.96732">
        <ele>1925.7</ele>
        <time>2026-07-14T11:02:57Z</time>
      </trkpt>
      <trkpt lat="45.19243" lon="5.96732">
        <ele>1925.7</ele>
        <time>2026-07-14T11:02:58Z</time>
      </trkpt>
      <trkpt lat="45.19243" lon="5.96732">
        <ele>1925.7</ele>
        <time>2026-07-14T11:02:59Z</time>
      </trkpt>
      <trkpt lat="45.19243" lon="5.96732">
        <ele>1925.7</ele>
        <time>2026-07-14T11:03:00Z</time>
      </trkpt>
      <trkpt lat="45.19243" lon="5.96732">
        <ele>1925.7</ele>
        <time>2026-07-14T11:03:01Z</time>
      </trkpt>
      <trkpt lat="45.19243" lon="5.96732">
        <ele>1925.7</ele>
        <time>2026-07-14T11:03:02Z</time>
      </trkpt>
      <trkpt lat="45.19243" lon="5.96732">
        <ele>1925.7</ele>
        <time>2026-07-14T11:03:03Z</time>
      </trkpt>
      <trkpt lat="45.19243" lon="5.96732">
        <ele>1925.7</ele>
        <time>2026-07-14T11:03:04Z</time>
      </trkpt>
      <trkpt lat="45.19243" lon="5.96732">
        <ele>1925.7</ele>
        <time>2026-07-14T11:03:05Z</time>
      </trkpt>
      <trkpt lat="45.19243" lon="5.96732">
        <ele>1925.7</ele>
        <time>2026-07-14T11:03:06Z</time>
      </trkpt>
      <trkpt lat="45.19243" lon="5.96731">
        <ele>1925.7</ele>
        <time>2026-07-14T11:03:07Z</time>
      </trkpt>
      <trkpt lat="45.19243" lon="5.96731">
        <ele>1925.7</ele>
        <time>2026-07-14T11:03:08Z</time>
      </trkpt>
      <trkpt lat="45.19243" lon="5.96731">
        <ele>1925.7</ele>
        <time>2026-07-14T11:03:09Z</time>
      </trkpt>
      <trkpt lat="45.19243" lon="5.96731">
        <ele>1925.7</ele>
        <time>2026-07-14T11:03:10Z</time>
      </trkpt>
      <trkpt lat="45.19243" lon="5.96731">
        <ele>1925.7</ele>
        <time>2026-07-14T11:03:11Z</time>
      </trkpt>
      <trkpt lat="45.19243" lon="5.96731">
        <ele>1925.7</ele>
        <time>2026-07-14T11:03:12Z</time>
      </trkpt>
      <trkpt lat="45.19243" lon="5.96731">
        <ele>1925.7</ele>
        <time>2026-07-14T11:03:13Z</time>
      </trkpt>
      <trkpt lat="45.19243" lon="5.96731">
        <ele>1925.7</ele>
        <time>2026-07-14T11:03:14Z</time>
      </trkpt>
      <trkpt lat="45.19243" lon="5.96731">
        <ele>1925.7</ele>
        <time>2026-07-14T11:03:15Z</time>
      </trkpt>
      <trkpt lat="45.19243" lon="5.96731">
        <ele>1925.7</ele>
        <time>2026-07-14T11:03:16Z</time>
      </trkpt>
      <trkpt lat="45.19243" lon="5.96731">
        <ele>1925.7</ele>
        <time>2026-07-14T11:03:17Z</time>
      </trkpt>
      <trkpt lat="45.19243" lon="5.96731">
        <ele>1925.7</ele>
        <time>2026-07-14T11:03:18Z</time>
      </trkpt>
      <trkpt lat="45.19243" lon="5.96731">
        <ele>1925.7</ele>
        <time>2026-07-14T11:03:19Z</time>
      </trkpt>
      <trkpt lat="45.19243" lon="5.96731">
        <ele>1925.7</ele>
        <time>2026-07-14T11:03:20Z</time>
      </trkpt>
      <trkpt lat="45.19243" lon="5.96731">
        <ele>1925.7</ele>
        <time>2026-07-14T11:03:21Z</time>
      </trkpt>
      <trkpt lat="45.19243" lon="5.96731">
        <ele>1925.7</ele>
        <time>2026-07-14T11:03:22Z</time>
      </trkpt>
      <trkpt lat="45.19243" lon="5.96731">
        <ele>1925.7</ele>
        <time>2026-07-14T11:03:23Z</time>
      </trkpt>
      <trkpt lat="45.19243" lon="5.96731">
        <ele>1925.7</ele>
        <time>2026-07-14T11:03:24Z</time>
      </trkpt>
      <trkpt lat="45.19243" lon="5.96731">
        <ele>1925.7</ele>
        <time>2026-07-14T11:03:25Z</time>
      </trkpt>
      <trkpt lat="45.19243" lon="5.96731">
        <ele>1925.7</ele>
        <time>2026-07-14T11:03:26Z</time>
      </trkpt>
      <trkpt lat="45.19243" lon="5.96731">
        <ele>1925.7</ele>
        <time>2026-07-14T11:03:27Z</time>
      </trkpt>
      <trkpt lat="45.19243" lon="5.96731">
        <ele>1925.7</ele>
        <time>2026-07-14T11:03:28Z</time>
      </trkpt>
      <trkpt lat="45.19243" lon="5.96731">
        <ele>1925.7</ele>
        <time>2026-07-14T11:03:29Z</time>
      </trkpt>
      <trkpt lat="45.19243" lon="5.96731">
        <ele>1925.7</ele>
        <time>2026-07-14T11:03:30Z</time>
      </trkpt>
      <trkpt lat="45.19243" lon="5.96731">
        <ele>1925.7</ele>
        <time>2026-07-14T11:03:31Z</time>
      </trkpt>
      <trkpt lat="45.19243" lon="5.96731">
        <ele>1925.7</ele>
        <time>2026-07-14T11:03:32Z</time>
      </trkpt>
      <trkpt lat="45.19243" lon="5.96731">
        <ele>1925.7</ele>
        <time>2026-07-14T11:03:33Z</time>
      </trkpt>
      <trkpt lat="45.19243" lon="5.96731">
        <ele>1925.7</ele>
        <time>2026-07-14T11:03:34Z</time>
      </trkpt>
      <trkpt lat="45.19243" lon="5.96731">
        <ele>1925.7</ele>
        <time>2026-07-14T11:03:35Z</time>
      </trkpt>
      <trkpt lat="45.19243" lon="5.96731">
        <ele>1925.7</ele>
        <time>2026-07-14T11:03:36Z</time>
      </trkpt>
      <trkpt lat="45.19243" lon="5.96731">
        <ele>1925.7</ele>
        <time>2026-07-14T11:03:37Z</time>
      </trkpt>
      <trkpt lat="45.19243" lon="5.96731">
        <ele>1925.7</ele>
        <time>2026-07-14T11:03:38Z</time>
      </trkpt>
      <trkpt lat="45.19243" lon="5.96731">
        <ele>1925.7</ele>
        <time>2026-07-14T11:03:39Z</time>
      </trkpt>
      <trkpt lat="45.19243" lon="5.96731">
        <ele>1925.7</ele>
        <time>2026-07-14T11:03:40Z</time>
      </trkpt>
      <trkpt lat="45.19243" lon="5.96731">
        <ele>1925.7</ele>
        <time>2026-07-14T11:03:41Z</time>
      </trkpt>
      <trkpt lat="45.19243" lon="5.96731">
        <ele>1925.7</ele>
        <time>2026-07-14T11:03:42Z</time>
      </trkpt>
      <trkpt lat="45.19243" lon="5.96731">
        <ele>1925.7</ele>
        <time>2026-07-14T11:03:43Z</time>
      </trkpt>
      <trkpt lat="45.19243" lon="5.96731">
        <ele>1925.7</ele>
        <time>2026-07-14T11:03:44Z</time>
      </trkpt>
      <trkpt lat="45.19243" lon="5.96731">
        <ele>1925.7</ele>
        <time>2026-07-14T11:03:45Z</time>
      </trkpt>
      <trkpt lat="45.19243" lon="5.96731">
        <ele>1925.7</ele>
        <time>2026-07-14T11:03:46Z</time>
      </trkpt>
      <trkpt lat="45.19243" lon="5.96731">
        <ele>1925.7</ele>
        <time>2026-07-14T11:03:47Z</time>
      </trkpt>
      <trkpt lat="45.19243" lon="5.96731">
        <ele>1925.7</ele>
        <time>2026-07-14T11:03:48Z</time>
      </trkpt>
      <trkpt lat="45.19243" lon="5.96731">
        <ele>1925.7</ele>
        <time>2026-07-14T11:03:49Z</time>
      </trkpt>
      <trkpt lat="45.19243" lon="5.96731">
        <ele>1925.7</ele>
        <time>2026-07-14T11:03:50Z</time>
      </trkpt>
      <trkpt lat="45.19243" lon="5.96731">
        <ele>1925.7</ele>
        <time>2026-07-14T11:03:51Z</time>
      </trkpt>
      <trkpt lat="45.19243" lon="5.96731">
        <ele>1925.7</ele>
        <time>2026-07-14T11:03:52Z</time>
      </trkpt>
      <trkpt lat="45.19243" lon="5.96731">
        <ele>1925.7</ele>
        <time>2026-07-14T11:03:53Z</time>
      </trkpt>
      <trkpt lat="45.19243" lon="5.96731">
        <ele>1925.7</ele>
        <time>2026-07-14T11:03:54Z</time>
      </trkpt>
      <trkpt lat="45.19243" lon="5.96731">
        <ele>1925.7</ele>
        <time>2026-07-14T11:03:55Z</time>
      </trkpt>
      <trkpt lat="45.19243" lon="5.96731">
        <ele>1925.7</ele>
        <time>2026-07-14T11:03:56Z</time>
      </trkpt>
      <trkpt lat="45.19243" lon="5.96731">
        <ele>1925.7</ele>
        <time>2026-07-14T11:03:57Z</time>
      </trkpt>
      <trkpt lat="45.19243" lon="5.96731">
        <ele>1925.7</ele>
        <time>2026-07-14T11:03:58Z</time>
      </trkpt>
      <trkpt lat="45.19243" lon="5.96731">
        <ele>1925.7</ele>
        <time>2026-07-14T11:03:59Z</time>
      </trkpt>
      <trkpt lat="45.19243" lon="5.96731">
        <ele>1925.7</ele>
        <time>2026-07-14T11:04:00Z</time>
      </trkpt>
      <trkpt lat="45.19243" lon="5.96731">
        <ele>1925.7</ele>
        <time>2026-07-14T11:04:01Z</time>
      </trkpt>
      <trkpt lat="45.19243" lon="5.96731">
        <ele>1925.7</ele>
        <time>2026-07-14T11:04:02Z</time>
      </trkpt>
      <trkpt lat="45.19243" lon="5.96731">
        <ele>1925.7</ele>
        <time>2026-07-14T11:04:03Z</time>
      </trkpt>
      <trkpt lat="45.19243" lon="5.96731">
        <ele>1925.7</ele>
        <time>2026-07-14T11:04:04Z</time>
      </trkpt>
      <trkpt lat="45.19243" lon="5.96731">
        <ele>1925.7</ele>
        <time>2026-07-14T11:04:05Z</time>
      </trkpt>
      <trkpt lat="45.19243" lon="5.96731">
        <ele>1925.7</ele>
        <time>2026-07-14T11:04:06Z</time>
      </trkpt>
      <trkpt lat="45.19243" lon="5.96731">
        <ele>1925.7</ele>
        <time>2026-07-14T11:04:07Z</time>
      </trkpt>
      <trkpt lat="45.19243" lon="5.96731">
        <ele>1925.7</ele>
        <time>2026-07-14T11:04:08Z</time>
      </trkpt>
      <trkpt lat="45.19243" lon="5.96731">
        <ele>1925.7</ele>
        <time>2026-07-14T11:04:09Z</time>
      </trkpt>
      <trkpt lat="45.19243" lon="5.96731">
        <ele>1925.7</ele>
        <time>2026-07-14T11:04:10Z</time>
      </trkpt>
      <trkpt lat="45.19243" lon="5.96731">
        <ele>1925.7</ele>
        <time>2026-07-14T11:04:11Z</time>
      </trkpt>
      <trkpt lat="45.19243" lon="5.96731">
        <ele>1925.7</ele>
        <time>2026-07-14T11:04:12Z</time>
      </trkpt>
      <trkpt lat="45.19243" lon="5.96731">
        <ele>1925.7</ele>
        <time>2026-07-14T11:04:13Z</time>
      </trkpt>
      <trkpt lat="45.19243" lon="5.96731">
        <ele>1925.7</ele>
        <time>2026-07-14T11:04:14Z</time>
      </trkpt>
      <trkpt lat="45.19243" lon="5.96731">
        <ele>1925.7</ele>
        <time>2026-07-14T11:04:15Z</time>
      </trkpt>
      <trkpt lat="45.19243" lon="5.96731">
        <ele>1925.7</ele>
        <time>2026-07-14T11:04:16Z</time>
      </trkpt>
      <trkpt lat="45.19243" lon="5.96731">
        <ele>1925.7</ele>
        <time>2026-07-14T11:04:17Z</time>
      </trkpt>
      <trkpt lat="45.19243" lon="5.96731">
        <ele>1925.7</ele>
        <time>2026-07-14T11:04:18Z</time>
      </trkpt>
      <trkpt lat="45.19243" lon="5.96731">
        <ele>1925.7</ele>
        <time>2026-07-14T11:04:19Z</time>
      </trkpt>
      <trkpt lat="45.19243" lon="5.96731">
        <ele>1925.7</ele>
        <time>2026-07-14T11:04:20Z</time>
      </trkpt>
      <trkpt lat="45.19243" lon="5.96731">
        <ele>1925.7</ele>
        <time>2026-07-14T11:04:21Z</time>
      </trkpt>
      <trkpt lat="45.19243" lon="5.96731">
        <ele>1925.7</ele>
        <time>2026-07-14T11:04:22Z</time>
      </trkpt>
      <trkpt lat="45.19243" lon="5.96731">
        <ele>1925.7</ele>
        <time>2026-07-14T11:04:23Z</time>
      </trkpt>
      <trkpt lat="45.19243" lon="5.96731">
        <ele>1925.7</ele>
        <time>2026-07-14T11:04:24Z</time>
      </trkpt>
      <trkpt lat="45.19243" lon="5.96732">
        <ele>1925.7</ele>
        <time>2026-07-14T11:04:25Z</time>
      </trkpt>
      <trkpt lat="45.19243" lon="5.96731">
        <ele>1925.7</ele>
        <time>2026-07-14T11:04:26Z</time>
      </trkpt>
      <trkpt lat="45.19243" lon="5.96732">
        <ele>1925.7</ele>
        <time>2026-07-14T11:04:27Z</time>
      </trkpt>
      <trkpt lat="45.19243" lon="5.96732">
        <ele>1925.7</ele>
        <time>2026-07-14T11:04:28Z</time>
      </trkpt>
      <trkpt lat="45.19243" lon="5.96732">
        <ele>1925.7</ele>
        <time>2026-07-14T11:04:29Z</time>
      </trkpt>
      <trkpt lat="45.19243" lon="5.96732">
        <ele>1925.7</ele>
        <time>2026-07-14T11:04:30Z</time>
      </trkpt>
      <trkpt lat="45.19243" lon="5.96732">
        <ele>1925.7</ele>
        <time>2026-07-14T11:04:31Z</time>
      </trkpt>
      <trkpt lat="45.19243" lon="5.96732">
        <ele>1925.7</ele>
        <time>2026-07-14T11:04:32Z</time>
      </trkpt>
      <trkpt lat="45.19243" lon="5.96732">
        <ele>1925.7</ele>
        <time>2026-07-14T11:04:33Z</time>
      </trkpt>
      <trkpt lat="45.19243" lon="5.96732">
        <ele>1925.7</ele>
        <time>2026-07-14T11:04:34Z</time>
      </trkpt>
      <trkpt lat="45.19243" lon="5.96731">
        <ele>1925.7</ele>
        <time>2026-07-14T11:04:35Z</time>
      </trkpt>
      <trkpt lat="45.19243" lon="5.96731">
        <ele>1925.7</ele>
        <time>2026-07-14T11:04:36Z</time>
      </trkpt>
      <trkpt lat="45.19243" lon="5.96731">
        <ele>1925.7</ele>
        <time>2026-07-14T11:04:37Z</time>
      </trkpt>
      <trkpt lat="45.19243" lon="5.96731">
        <ele>1925.7</ele>
        <time>2026-07-14T11:04:38Z</time>
      </trkpt>
      <trkpt lat="45.19243" lon="5.96731">
        <ele>1925.7</ele>
        <time>2026-07-14T11:04:39Z</time>
      </trkpt>
      <trkpt lat="45.19243" lon="5.96731">
        <ele>1925.7</ele>
        <time>2026-07-14T11:04:40Z</time>
      </trkpt>
      <trkpt lat="45.19243" lon="5.96731">
        <ele>1925.7</ele>
        <time>2026-07-14T11:04:41Z</time>
      </trkpt>
      <trkpt lat="45.19243" lon="5.96731">
        <ele>1925.7</ele>
        <time>2026-07-14T11:04:42Z</time>
      </trkpt>
      <trkpt lat="45.19243" lon="5.96731">
        <ele>1925.7</ele>
        <time>2026-07-14T11:04:43Z</time>
      </trkpt>
      <trkpt lat="45.19243" lon="5.96731">
        <ele>1925.7</ele>
        <time>2026-07-14T11:04:44Z</time>
      </trkpt>
      <trkpt lat="45.19243" lon="5.96731">
        <ele>1925.7</ele>
        <time>2026-07-14T11:04:45Z</time>
      </trkpt>
      <trkpt lat="45.19243" lon="5.96731">
        <ele>1925.7</ele>
        <time>2026-07-14T11:04:46Z</time>
      </trkpt>
      <trkpt lat="45.19243" lon="5.96731">
        <ele>1925.7</ele>
        <time>2026-07-14T11:04:47Z</time>
      </trkpt>
      <trkpt lat="45.19243" lon="5.96731">
        <ele>1925.7</ele>
        <time>2026-07-14T11:04:48Z</time>
      </trkpt>
      <trkpt lat="45.19243" lon="5.96731">
        <ele>1925.7</ele>
        <time>2026-07-14T11:04:49Z</time>
      </trkpt>
      <trkpt lat="45.19243" lon="5.96731">
        <ele>1925.7</ele>
        <time>2026-07-14T11:04:50Z</time>
      </trkpt>
      <trkpt lat="45.19243" lon="5.96731">
        <ele>1925.7</ele>
        <time>2026-07-14T11:04:51Z</time>
      </trkpt>
      <trkpt lat="45.19243" lon="5.96731">
        <ele>1925.7</ele>
        <time>2026-07-14T11:04:52Z</time>
      </trkpt>
      <trkpt lat="45.19243" lon="5.96731">
        <ele>1925.7</ele>
        <time>2026-07-14T11:04:53Z</time>
      </trkpt>
      <trkpt lat="45.19243" lon="5.96731">
        <ele>1925.7</ele>
        <time>2026-07-14T11:04:54Z</time>
      </trkpt>
      <trkpt lat="45.19243" lon="5.96731">
        <ele>1925.7</ele>
        <time>2026-07-14T11:04:55Z</time>
      </trkpt>
      <trkpt lat="45.19243" lon="5.96731">
        <ele>1925.7</ele>
        <time>2026-07-14T11:04:56Z</time>
      </trkpt>
      <trkpt lat="45.19243" lon="5.96731">
        <ele>1925.7</ele>
        <time>2026-07-14T11:04:57Z</time>
      </trkpt>
      <trkpt lat="45.19243" lon="5.96731">
        <ele>1925.7</ele>
        <time>2026-07-14T11:04:58Z</time>
      </trkpt>
      <trkpt lat="45.19243" lon="5.96731">
        <ele>1925.7</ele>
        <time>2026-07-14T11:04:59Z</time>
      </trkpt>
      <trkpt lat="45.19243" lon="5.96731">
        <ele>1925.7</ele>
        <time>2026-07-14T11:05:00Z</time>
      </trkpt>
      <trkpt lat="45.19243" lon="5.96731">
        <ele>1925.7</ele>
        <time>2026-07-14T11:05:01Z</time>
      </trkpt>
      <trkpt lat="45.19243" lon="5.96731">
        <ele>1925.7</ele>
        <time>2026-07-14T11:05:02Z</time>
      </trkpt>
      <trkpt lat="45.19243" lon="5.96731">
        <ele>1925.7</ele>
        <time>2026-07-14T11:05:03Z</time>
      </trkpt>
      <trkpt lat="45.19243" lon="5.96731">
        <ele>1925.7</ele>
        <time>2026-07-14T11:05:04Z</time>
      </trkpt>
      <trkpt lat="45.19243" lon="5.96731">
        <ele>1925.7</ele>
        <time>2026-07-14T11:05:05Z</time>
      </trkpt>
      <trkpt lat="45.19243" lon="5.96731">
        <ele>1925.7</ele>
        <time>2026-07-14T11:05:06Z</time>
      </trkpt>
      <trkpt lat="45.19243" lon="5.96731">
        <ele>1925.7</ele>
        <time>2026-07-14T11:05:07Z</time>
      </trkpt>
      <trkpt lat="45.19243" lon="5.96731">
        <ele>1925.7</ele>
        <time>2026-07-14T11:05:08Z</time>
      </trkpt>
      <trkpt lat="45.19243" lon="5.96731">
        <ele>1925.7</ele>
        <time>2026-07-14T11:05:09Z</time>
      </trkpt>
      <trkpt lat="45.19243" lon="5.96731">
        <ele>1925.7</ele>
        <time>2026-07-14T11:05:10Z</time>
      </trkpt>
      <trkpt lat="45.19243" lon="5.96731">
        <ele>1925.7</ele>
        <time>2026-07-14T11:05:11Z</time>
      </trkpt>
      <trkpt lat="45.19243" lon="5.96731">
        <ele>1925.7</ele>
        <time>2026-07-14T11:05:12Z</time>
      </trkpt>
      <trkpt lat="45.19243" lon="5.96731">
        <ele>1925.7</ele>
        <time>2026-07-14T11:05:13Z</time>
      </trkpt>
      <trkpt lat="45.19243" lon="5.96731">
        <ele>1925.7</ele>
        <time>2026-07-14T11:05:14Z</time>
      </trkpt>
      <trkpt lat="45.19243" lon="5.96731">
        <ele>1925.7</ele>
        <time>2026-07-14T11:05:15Z</time>
      </trkpt>
      <trkpt lat="45.19243" lon="5.96731">
        <ele>1925.7</ele>
        <time>2026-07-14T11:05:16Z</time>
      </trkpt>
      <trkpt lat="45.19243" lon="5.96731">
        <ele>1925.7</ele>
        <time>2026-07-14T11:05:17Z</time>
      </trkpt>
      <trkpt lat="45.19243" lon="5.96731">
        <ele>1925.7</ele>
        <time>2026-07-14T11:05:18Z</time>
      </trkpt>
      <trkpt lat="45.19243" lon="5.96731">
        <ele>1925.7</ele>
        <time>2026-07-14T11:05:19Z</time>
      </trkpt>
      <trkpt lat="45.19243" lon="5.96731">
        <ele>1925.7</ele>
        <time>2026-07-14T11:05:20Z</time>
      </trkpt>
      <trkpt lat="45.19243" lon="5.96731">
        <ele>1925.7</ele>
        <time>2026-07-14T11:05:21Z</time>
      </trkpt>
      <trkpt lat="45.19243" lon="5.96731">
        <ele>1925.7</ele>
        <time>2026-07-14T11:05:22Z</time>
      </trkpt>
      <trkpt lat="45.19243" lon="5.96731">
        <ele>1925.7</ele>
        <time>2026-07-14T11:05:23Z</time>
      </trkpt>
      <trkpt lat="45.19243" lon="5.96731">
        <ele>1925.7</ele>
        <time>2026-07-14T11:05:24Z</time>
      </trkpt>
      <trkpt lat="45.19243" lon="5.96731">
        <ele>1925.7</ele>
        <time>2026-07-14T11:05:25Z</time>
      </trkpt>
      <trkpt lat="45.19243" lon="5.96731">
        <ele>1925.7</ele>
        <time>2026-07-14T11:05:26Z</time>
      </trkpt>
      <trkpt lat="45.19243" lon="5.96731">
        <ele>1925.7</ele>
        <time>2026-07-14T11:05:27Z</time>
      </trkpt>
      <trkpt lat="45.19243" lon="5.96731">
        <ele>1925.7</ele>
        <time>2026-07-14T11:05:28Z</time>
      </trkpt>
      <trkpt lat="45.19243" lon="5.96731">
        <ele>1925.7</ele>
        <time>2026-07-14T11:05:29Z</time>
      </trkpt>
      <trkpt lat="45.19243" lon="5.96731">
        <ele>1925.7</ele>
        <time>2026-07-14T11:05:30Z</time>
      </trkpt>
      <trkpt lat="45.19243" lon="5.96731">
        <ele>1925.7</ele>
        <time>2026-07-14T11:05:31Z</time>
      </trkpt>
      <trkpt lat="45.19243" lon="5.96731">
        <ele>1925.7</ele>
        <time>2026-07-14T11:05:32Z</time>
      </trkpt>
      <trkpt lat="45.19243" lon="5.96731">
        <ele>1925.7</ele>
        <time>2026-07-14T11:05:33Z</time>
      </trkpt>
      <trkpt lat="45.19243" lon="5.96731">
        <ele>1925.7</ele>
        <time>2026-07-14T11:05:34Z</time>
      </trkpt>
      <trkpt lat="45.19243" lon="5.96731">
        <ele>1925.7</ele>
        <time>2026-07-14T11:05:35Z</time>
      </trkpt>
      <trkpt lat="45.19243" lon="5.96731">
        <ele>1925.7</ele>
        <time>2026-07-14T11:05:36Z</time>
      </trkpt>
      <trkpt lat="45.19243" lon="5.96731">
        <ele>1925.7</ele>
        <time>2026-07-14T11:05:37Z</time>
      </trkpt>
      <trkpt lat="45.19243" lon="5.96731">
        <ele>1925.7</ele>
        <time>2026-07-14T11:05:38Z</time>
      </trkpt>
      <trkpt lat="45.19243" lon="5.96731">
        <ele>1925.7</ele>
        <time>2026-07-14T11:05:39Z</time>
      </trkpt>
      <trkpt lat="45.19243" lon="5.96731">
        <ele>1925.7</ele>
        <time>2026-07-14T11:05:40Z</time>
      </trkpt>
      <trkpt lat="45.19243" lon="5.96731">
        <ele>1925.7</ele>
        <time>2026-07-14T11:05:41Z</time>
      </trkpt>
      <trkpt lat="45.19243" lon="5.96731">
        <ele>1925.7</ele>
        <time>2026-07-14T11:05:42Z</time>
      </trkpt>
      <trkpt lat="45.19243" lon="5.96731">
        <ele>1925.7</ele>
        <time>2026-07-14T11:05:43Z</time>
      </trkpt>
      <trkpt lat="45.19243" lon="5.96731">
        <ele>1925.7</ele>
        <time>2026-07-14T11:05:44Z</time>
      </trkpt>
      <trkpt lat="45.19243" lon="5.96731">
        <ele>1925.7</ele>
        <time>2026-07-14T11:05:45Z</time>
      </trkpt>
      <trkpt lat="45.19243" lon="5.96731">
        <ele>1925.7</ele>
        <time>2026-07-14T11:05:46Z</time>
      </trkpt>
      <trkpt lat="45.19243" lon="5.96731">
        <ele>1925.7</ele>
        <time>2026-07-14T11:05:47Z</time>
      </trkpt>
      <trkpt lat="45.19243" lon="5.96731">
        <ele>1925.7</ele>
        <time>2026-07-14T11:05:48Z</time>
      </trkpt>
      <trkpt lat="45.19243" lon="5.96731">
        <ele>1925.7</ele>
        <time>2026-07-14T11:05:49Z</time>
      </trkpt>
      <trkpt lat="45.19243" lon="5.96731">
        <ele>1925.7</ele>
        <time>2026-07-14T11:05:50Z</time>
      </trkpt>
      <trkpt lat="45.19243" lon="5.96731">
        <ele>1925.7</ele>
        <time>2026-07-14T11:05:51Z</time>
      </trkpt>
      <trkpt lat="45.19243" lon="5.96731">
        <ele>1925.7</ele>
        <time>2026-07-14T11:05:52Z</time>
      </trkpt>
      <trkpt lat="45.19243" lon="5.96731">
        <ele>1925.7</ele>
        <time>2026-07-14T11:05:53Z</time>
      </trkpt>
      <trkpt lat="45.19243" lon="5.96731">
        <ele>1925.7</ele>
        <time>2026-07-14T11:05:54Z</time>
      </trkpt>
      <trkpt lat="45.19243" lon="5.96731">
        <ele>1925.7</ele>
        <time>2026-07-14T11:05:55Z</time>
      </trkpt>
      <trkpt lat="45.19243" lon="5.96731">
        <ele>1925.7</ele>
        <time>2026-07-14T11:05:56Z</time>
      </trkpt>
      <trkpt lat="45.19243" lon="5.96731">
        <ele>1925.7</ele>
        <time>2026-07-14T11:05:57Z</time>
      </trkpt>
      <trkpt lat="45.19243" lon="5.96731">
        <ele>1925.7</ele>
        <time>2026-07-14T11:05:58Z</time>
      </trkpt>
      <trkpt lat="45.19243" lon="5.96731">
        <ele>1925.7</ele>
        <time>2026-07-14T11:05:59Z</time>
      </trkpt>
      <trkpt lat="45.19243" lon="5.96731">
        <ele>1925.7</ele>
        <time>2026-07-14T11:06:00Z</time>
      </trkpt>
      <trkpt lat="45.19243" lon="5.96731">
        <ele>1925.7</ele>
        <time>2026-07-14T11:06:01Z</time>
      </trkpt>
      <trkpt lat="45.19243" lon="5.96731">
        <ele>1925.7</ele>
        <time>2026-07-14T11:06:02Z</time>
      </trkpt>
      <trkpt lat="45.19243" lon="5.96731">
        <ele>1925.7</ele>
        <time>2026-07-14T11:06:03Z</time>
      </trkpt>
      <trkpt lat="45.19243" lon="5.96731">
        <ele>1925.7</ele>
        <time>2026-07-14T11:06:04Z</time>
      </trkpt>
      <trkpt lat="45.19243" lon="5.96731">
        <ele>1925.7</ele>
        <time>2026-07-14T11:06:05Z</time>
      </trkpt>
      <trkpt lat="45.19243" lon="5.96731">
        <ele>1925.7</ele>
        <time>2026-07-14T11:06:06Z</time>
      </trkpt>
      <trkpt lat="45.19243" lon="5.96731">
        <ele>1925.7</ele>
        <time>2026-07-14T11:06:07Z</time>
      </trkpt>
      <trkpt lat="45.19243" lon="5.96731">
        <ele>1925.7</ele>
        <time>2026-07-14T11:06:08Z</time>
      </trkpt>
      <trkpt lat="45.19243" lon="5.96731">
        <ele>1925.7</ele>
        <time>2026-07-14T11:06:09Z</time>
      </trkpt>
      <trkpt lat="45.19243" lon="5.96731">
        <ele>1925.7</ele>
        <time>2026-07-14T11:06:10Z</time>
      </trkpt>
      <trkpt lat="45.19243" lon="5.96731">
        <ele>1925.7</ele>
        <time>2026-07-14T11:06:11Z</time>
      </trkpt>
      <trkpt lat="45.19243" lon="5.96731">
        <ele>1925.7</ele>
        <time>2026-07-14T11:06:12Z</time>
      </trkpt>
      <trkpt lat="45.19243" lon="5.96731">
        <ele>1925.7</ele>
        <time>2026-07-14T11:06:13Z</time>
      </trkpt>
      <trkpt lat="45.19243" lon="5.96731">
        <ele>1925.7</ele>
        <time>2026-07-14T11:06:14Z</time>
      </trkpt>
      <trkpt lat="45.19243" lon="5.96731">
        <ele>1925.7</ele>
        <time>2026-07-14T11:06:15Z</time>
      </trkpt>
      <trkpt lat="45.19243" lon="5.96731">
        <ele>1925.7</ele>
        <time>2026-07-14T11:06:16Z</time>
      </trkpt>
      <trkpt lat="45.19243" lon="5.96731">
        <ele>1925.7</ele>
        <time>2026-07-14T11:06:17Z</time>
      </trkpt>
      <trkpt lat="45.19243" lon="5.96731">
        <ele>1925.7</ele>
        <time>2026-07-14T11:06:18Z</time>
      </trkpt>
      <trkpt lat="45.19243" lon="5.96731">
        <ele>1925.7</ele>
        <time>2026-07-14T11:06:19Z</time>
      </trkpt>
      <trkpt lat="45.19243" lon="5.96731">
        <ele>1925.7</ele>
        <time>2026-07-14T11:06:20Z</time>
      </trkpt>
      <trkpt lat="45.19243" lon="5.96731">
        <ele>1925.7</ele>
        <time>2026-07-14T11:06:21Z</time>
      </trkpt>
      <trkpt lat="45.19243" lon="5.96731">
        <ele>1925.7</ele>
        <time>2026-07-14T11:06:22Z</time>
      </trkpt>
      <trkpt lat="45.19243" lon="5.96731">
        <ele>1925.7</ele>
        <time>2026-07-14T11:06:23Z</time>
      </trkpt>
      <trkpt lat="45.19243" lon="5.96731">
        <ele>1925.7</ele>
        <time>2026-07-14T11:06:24Z</time>
      </trkpt>
      <trkpt lat="45.19243" lon="5.96731">
        <ele>1925.7</ele>
        <time>2026-07-14T11:06:25Z</time>
      </trkpt>
      <trkpt lat="45.19243" lon="5.96731">
        <ele>1925.7</ele>
        <time>2026-07-14T11:06:26Z</time>
      </trkpt>
      <trkpt lat="45.19243" lon="5.96731">
        <ele>1925.7</ele>
        <time>2026-07-14T11:06:27Z</time>
      </trkpt>
      <trkpt lat="45.19243" lon="5.96731">
        <ele>1925.7</ele>
        <time>2026-07-14T11:06:28Z</time>
      </trkpt>
      <trkpt lat="45.19243" lon="5.96731">
        <ele>1925.7</ele>
        <time>2026-07-14T11:06:29Z</time>
      </trkpt>
      <trkpt lat="45.19243" lon="5.96731">
        <ele>1925.7</ele>
        <time>2026-07-14T11:06:30Z</time>
      </trkpt>
      <trkpt lat="45.19243" lon="5.96731">
        <ele>1925.7</ele>
        <time>2026-07-14T11:06:31Z</time>
      </trkpt>
      <trkpt lat="45.19243" lon="5.96731">
        <ele>1925.7</ele>
        <time>2026-07-14T11:06:32Z</time>
      </trkpt>
      <trkpt lat="45.19243" lon="5.96731">
        <ele>1925.7</ele>
        <time>2026-07-14T11:06:33Z</time>
      </trkpt>
      <trkpt lat="45.19243" lon="5.96731">
        <ele>1925.7</ele>
        <time>2026-07-14T11:06:34Z</time>
      </trkpt>
      <trkpt lat="45.19243" lon="5.96731">
        <ele>1925.7</ele>
        <time>2026-07-14T11:06:35Z</time>
      </trkpt>
      <trkpt lat="45.19243" lon="5.96731">
        <ele>1925.7</ele>
        <time>2026-07-14T11:06:36Z</time>
      </trkpt>
      <trkpt lat="45.19243" lon="5.96731">
        <ele>1925.7</ele>
        <time>2026-07-14T11:06:37Z</time>
      </trkpt>
      <trkpt lat="45.19243" lon="5.96731">
        <ele>1925.7</ele>
        <time>2026-07-14T11:06:38Z</time>
      </trkpt>
      <trkpt lat="45.19243" lon="5.96731">
        <ele>1925.7</ele>
        <time>2026-07-14T11:06:39Z</time>
      </trkpt>
      <trkpt lat="45.19243" lon="5.96731">
        <ele>1925.7</ele>
        <time>2026-07-14T11:06:40Z</time>
      </trkpt>
      <trkpt lat="45.19243" lon="5.96731">
        <ele>1925.7</ele>
        <time>2026-07-14T11:06:41Z</time>
      </trkpt>
      <trkpt lat="45.19243" lon="5.96731">
        <ele>1925.7</ele>
        <time>2026-07-14T11:06:42Z</time>
      </trkpt>
      <trkpt lat="45.19243" lon="5.96731">
        <ele>1925.7</ele>
        <time>2026-07-14T11:06:43Z</time>
      </trkpt>
      <trkpt lat="45.19243" lon="5.96731">
        <ele>1925.7</ele>
        <time>2026-07-14T11:06:44Z</time>
      </trkpt>
      <trkpt lat="45.19243" lon="5.96731">
        <ele>1925.7</ele>
        <time>2026-07-14T11:06:45Z</time>
      </trkpt>
      <trkpt lat="45.19243" lon="5.96731">
        <ele>1925.7</ele>
        <time>2026-07-14T11:06:46Z</time>
      </trkpt>
      <trkpt lat="45.19243" lon="5.96731">
        <ele>1925.7</ele>
        <time>2026-07-14T11:06:47Z</time>
      </trkpt>
      <trkpt lat="45.19243" lon="5.96731">
        <ele>1925.7</ele>
        <time>2026-07-14T11:06:48Z</time>
      </trkpt>
      <trkpt lat="45.19243" lon="5.96731">
        <ele>1925.7</ele>
        <time>2026-07-14T11:06:49Z</time>
      </trkpt>
      <trkpt lat="45.19243" lon="5.96731">
        <ele>1925.7</ele>
        <time>2026-07-14T11:06:50Z</time>
      </trkpt>
      <trkpt lat="45.19243" lon="5.96731">
        <ele>1925.7</ele>
        <time>2026-07-14T11:06:51Z</time>
      </trkpt>
      <trkpt lat="45.19243" lon="5.96731">
        <ele>1925.7</ele>
        <time>2026-07-14T11:06:52Z</time>
      </trkpt>
      <trkpt lat="45.19243" lon="5.96731">
        <ele>1925.7</ele>
        <time>2026-07-14T11:06:53Z</time>
      </trkpt>
      <trkpt lat="45.19243" lon="5.96731">
        <ele>1925.7</ele>
        <time>2026-07-14T11:06:54Z</time>
      </trkpt>
      <trkpt lat="45.19243" lon="5.96731">
        <ele>1925.7</ele>
        <time>2026-07-14T11:06:55Z</time>
      </trkpt>
      <trkpt lat="45.19243" lon="5.96731">
        <ele>1925.7</ele>
        <time>2026-07-14T11:06:56Z</time>
      </trkpt>
      <trkpt lat="45.19243" lon="5.96731">
        <ele>1925.7</ele>
        <time>2026-07-14T11:06:57Z</time>
      </trkpt>
      <trkpt lat="45.19243" lon="5.96731">
        <ele>1925.7</ele>
        <time>2026-07-14T11:06:58Z</time>
      </trkpt>
      <trkpt lat="45.19243" lon="5.96731">
        <ele>1925.7</ele>
        <time>2026-07-14T11:06:59Z</time>
      </trkpt>
      <trkpt lat="45.19243" lon="5.96731">
        <ele>1925.7</ele>
        <time>2026-07-14T11:07:00Z</time>
      </trkpt>
      <trkpt lat="45.19243" lon="5.96731">
        <ele>1925.7</ele>
        <time>2026-07-14T11:07:01Z</time>
      </trkpt>
      <trkpt lat="45.19243" lon="5.96731">
        <ele>1925.7</ele>
        <time>2026-07-14T11:07:02Z</time>
      </trkpt>
      <trkpt lat="45.19243" lon="5.96731">
        <ele>1925.7</ele>
        <time>2026-07-14T11:07:03Z</time>
      </trkpt>
      <trkpt lat="45.19243" lon="5.96731">
        <ele>1925.7</ele>
        <time>2026-07-14T11:07:04Z</time>
      </trkpt>
      <trkpt lat="45.19243" lon="5.96731">
        <ele>1925.7</ele>
        <time>2026-07-14T11:07:05Z</time>
      </trkpt>
      <trkpt lat="45.19243" lon="5.96731">
        <ele>1925.7</ele>
        <time>2026-07-14T11:07:06Z</time>
      </trkpt>
      <trkpt lat="45.19243" lon="5.96731">
        <ele>1925.7</ele>
        <time>2026-07-14T11:07:07Z</time>
      </trkpt>
      <trkpt lat="45.19243" lon="5.96731">
        <ele>1925.7</ele>
        <time>2026-07-14T11:07:08Z</time>
      </trkpt>
      <trkpt lat="45.19243" lon="5.96731">
        <ele>1925.7</ele>
        <time>2026-07-14T11:07:09Z</time>
      </trkpt>
      <trkpt lat="45.19243" lon="5.96731">
        <ele>1925.7</ele>
        <time>2026-07-14T11:07:10Z</time>
      </trkpt>
      <trkpt lat="45.19243" lon="5.96731">
        <ele>1925.7</ele>
        <time>2026-07-14T11:07:11Z</time>
      </trkpt>
      <trkpt lat="45.19243" lon="5.96731">
        <ele>1925.7</ele>
        <time>2026-07-14T11:07:12Z</time>
      </trkpt>
      <trkpt lat="45.19243" lon="5.96731">
        <ele>1925.7</ele>
        <time>2026-07-14T11:07:13Z</time>
      </trkpt>
      <trkpt lat="45.19243" lon="5.96731">
        <ele>1925.7</ele>
        <time>2026-07-14T11:07:14Z</time>
      </trkpt>
      <trkpt lat="45.19243" lon="5.96731">
        <ele>1925.7</ele>
        <time>2026-07-14T11:07:15Z</time>
      </trkpt>
      <trkpt lat="45.19243" lon="5.96731">
        <ele>1925.7</ele>
        <time>2026-07-14T11:07:16Z</time>
      </trkpt>
      <trkpt lat="45.19243" lon="5.96731">
        <ele>1925.7</ele>
        <time>2026-07-14T11:07:17Z</time>
      </trkpt>
      <trkpt lat="45.19243" lon="5.96731">
        <ele>1925.7</ele>
        <time>2026-07-14T11:07:18Z</time>
      </trkpt>
      <trkpt lat="45.19243" lon="5.96731">
        <ele>1925.7</ele>
        <time>2026-07-14T11:07:19Z</time>
      </trkpt>
      <trkpt lat="45.19243" lon="5.96731">
        <ele>1925.7</ele>
        <time>2026-07-14T11:07:20Z</time>
      </trkpt>
      <trkpt lat="45.19243" lon="5.96731">
        <ele>1925.7</ele>
        <time>2026-07-14T11:07:21Z</time>
      </trkpt>
      <trkpt lat="45.19243" lon="5.96731">
        <ele>1925.7</ele>
        <time>2026-07-14T11:07:22Z</time>
      </trkpt>
      <trkpt lat="45.19243" lon="5.96731">
        <ele>1925.7</ele>
        <time>2026-07-14T11:07:23Z</time>
      </trkpt>
      <trkpt lat="45.19243" lon="5.96731">
        <ele>1925.7</ele>
        <time>2026-07-14T11:07:24Z</time>
      </trkpt>
      <trkpt lat="45.19243" lon="5.96731">
        <ele>1925.7</ele>
        <time>2026-07-14T11:07:25Z</time>
      </trkpt>
      <trkpt lat="45.19243" lon="5.96731">
        <ele>1925.7</ele>
        <time>2026-07-14T11:07:26Z</time>
      </trkpt>
      <trkpt lat="45.19243" lon="5.96731">
        <ele>1925.7</ele>
        <time>2026-07-14T11:07:27Z</time>
      </trkpt>
      <trkpt lat="45.19243" lon="5.96731">
        <ele>1925.7</ele>
        <time>2026-07-14T11:07:28Z</time>
      </trkpt>
      <trkpt lat="45.19243" lon="5.96731">
        <ele>1925.7</ele>
        <time>2026-07-14T11:07:29Z</time>
      </trkpt>
      <trkpt lat="45.19243" lon="5.96731">
        <ele>1925.7</ele>
        <time>2026-07-14T11:07:30Z</time>
      </trkpt>
      <trkpt lat="45.19243" lon="5.96731">
        <ele>1925.7</ele>
        <time>2026-07-14T11:07:31Z</time>
      </trkpt>
      <trkpt lat="45.19243" lon="5.96731">
        <ele>1925.7</ele>
        <time>2026-07-14T11:07:32Z</time>
      </trkpt>
      <trkpt lat="45.19243" lon="5.96731">
        <ele>1925.7</ele>
        <time>2026-07-14T11:07:33Z</time>
      </trkpt>
      <trkpt lat="45.19243" lon="5.96731">
        <ele>1925.7</ele>
        <time>2026-07-14T11:07:34Z</time>
      </trkpt>
      <trkpt lat="45.19243" lon="5.96731">
        <ele>1925.7</ele>
        <time>2026-07-14T11:07:35Z</time>
      </trkpt>
      <trkpt lat="45.19243" lon="5.96731">
        <ele>1925.7</ele>
        <time>2026-07-14T11:07:36Z</time>
      </trkpt>
      <trkpt lat="45.19243" lon="5.96731">
        <ele>1925.7</ele>
        <time>2026-07-14T11:07:37Z</time>
      </trkpt>
      <trkpt lat="45.19243" lon="5.96731">
        <ele>1925.7</ele>
        <time>2026-07-14T11:07:38Z</time>
      </trkpt>
      <trkpt lat="45.19243" lon="5.96731">
        <ele>1925.7</ele>
        <time>2026-07-14T11:07:39Z</time>
      </trkpt>
      <trkpt lat="45.19243" lon="5.96731">
        <ele>1925.7</ele>
        <time>2026-07-14T11:07:40Z</time>
      </trkpt>
      <trkpt lat="45.19243" lon="5.96731">
        <ele>1925.7</ele>
        <time>2026-07-14T11:07:41Z</time>
      </trkpt>
      <trkpt lat="45.19243" lon="5.96731">
        <ele>1925.7</ele>
        <time>2026-07-14T11:07:42Z</time>
      </trkpt>
      <trkpt lat="45.19243" lon="5.96731">
        <ele>1925.7</ele>
        <time>2026-07-14T11:07:43Z</time>
      </trkpt>
      <trkpt lat="45.19243" lon="5.96731">
        <ele>1925.7</ele>
        <time>2026-07-14T11:07:44Z</time>
      </trkpt>
      <trkpt lat="45.19243" lon="5.96731">
        <ele>1925.7</ele>
        <time>2026-07-14T11:07:45Z</time>
      </trkpt>
      <trkpt lat="45.19243" lon="5.96731">
        <ele>1925.7</ele>
        <time>2026-07-14T11:07:46Z</time>
      </trkpt>
      <trkpt lat="45.19243" lon="5.96731">
        <ele>1925.7</ele>
        <time>2026-07-14T11:07:47Z</time>
      </trkpt>
      <trkpt lat="45.19243" lon="5.96731">
        <ele>1925.7</ele>
        <time>2026-07-14T11:07:48Z</time>
      </trkpt>
      <trkpt lat="45.19243" lon="5.96731">
        <ele>1925.7</ele>
        <time>2026-07-14T11:07:49Z</time>
      </trkpt>
      <trkpt lat="45.19243" lon="5.96731">
        <ele>1925.7</ele>
        <time>2026-07-14T11:07:50Z</time>
      </trkpt>
      <trkpt lat="45.19243" lon="5.96731">
        <ele>1925.7</ele>
        <time>2026-07-14T11:07:51Z</time>
      </trkpt>
      <trkpt lat="45.19243" lon="5.96731">
        <ele>1925.7</ele>
        <time>2026-07-14T11:07:52Z</time>
      </trkpt>
      <trkpt lat="45.19243" lon="5.96731">
        <ele>1925.7</ele>
        <time>2026-07-14T11:07:53Z</time>
      </trkpt>
      <trkpt lat="45.19243" lon="5.96731">
        <ele>1925.7</ele>
        <time>2026-07-14T11:07:54Z</time>
      </trkpt>
      <trkpt lat="45.19243" lon="5.96731">
        <ele>1925.7</ele>
        <time>2026-07-14T11:07:55Z</time>
      </trkpt>
      <trkpt lat="45.19243" lon="5.96731">
        <ele>1925.7</ele>
        <time>2026-07-14T11:07:56Z</time>
      </trkpt>
      <trkpt lat="45.19243" lon="5.96731">
        <ele>1925.7</ele>
        <time>2026-07-14T11:07:57Z</time>
      </trkpt>
      <trkpt lat="45.19243" lon="5.96731">
        <ele>1925.7</ele>
        <time>2026-07-14T11:07:58Z</time>
      </trkpt>
      <trkpt lat="45.19243" lon="5.96731">
        <ele>1925.7</ele>
        <time>2026-07-14T11:07:59Z</time>
      </trkpt>
      <trkpt lat="45.19243" lon="5.96731">
        <ele>1925.7</ele>
        <time>2026-07-14T11:08:00Z</time>
      </trkpt>
      <trkpt lat="45.19243" lon="5.96731">
        <ele>1925.7</ele>
        <time>2026-07-14T11:08:01Z</time>
      </trkpt>
      <trkpt lat="45.19243" lon="5.96731">
        <ele>1925.7</ele>
        <time>2026-07-14T11:08:02Z</time>
      </trkpt>
      <trkpt lat="45.19243" lon="5.96731">
        <ele>1925.7</ele>
        <time>2026-07-14T11:08:03Z</time>
      </trkpt>
      <trkpt lat="45.19243" lon="5.96731">
        <ele>1925.7</ele>
        <time>2026-07-14T11:08:04Z</time>
      </trkpt>
      <trkpt lat="45.19243" lon="5.96731">
        <ele>1925.7</ele>
        <time>2026-07-14T11:08:05Z</time>
      </trkpt>
      <trkpt lat="45.19243" lon="5.96731">
        <ele>1925.7</ele>
        <time>2026-07-14T11:08:06Z</time>
      </trkpt>
      <trkpt lat="45.19243" lon="5.96731">
        <ele>1925.7</ele>
        <time>2026-07-14T11:08:07Z</time>
      </trkpt>
      <trkpt lat="45.19243" lon="5.96731">
        <ele>1925.7</ele>
        <time>2026-07-14T11:08:08Z</time>
      </trkpt>
      <trkpt lat="45.19243" lon="5.96731">
        <ele>1925.7</ele>
        <time>2026-07-14T11:08:09Z</time>
      </trkpt>
      <trkpt lat="45.19243" lon="5.96731">
        <ele>1925.7</ele>
        <time>2026-07-14T11:08:10Z</time>
      </trkpt>
      <trkpt lat="45.19243" lon="5.96731">
        <ele>1925.7</ele>
        <time>2026-07-14T11:08:11Z</time>
      </trkpt>
      <trkpt lat="45.19243" lon="5.96731">
        <ele>1925.7</ele>
        <time>2026-07-14T11:08:12Z</time>
      </trkpt>
      <trkpt lat="45.19243" lon="5.96731">
        <ele>1925.7</ele>
        <time>2026-07-14T11:08:13Z</time>
      </trkpt>
      <trkpt lat="45.19243" lon="5.96731">
        <ele>1925.7</ele>
        <time>2026-07-14T11:08:14Z</time>
      </trkpt>
      <trkpt lat="45.19243" lon="5.96731">
        <ele>1925.7</ele>
        <time>2026-07-14T11:08:15Z</time>
      </trkpt>
      <trkpt lat="45.19243" lon="5.96731">
        <ele>1925.7</ele>
        <time>2026-07-14T11:08:16Z</time>
      </trkpt>
      <trkpt lat="45.19243" lon="5.96731">
        <ele>1925.7</ele>
        <time>2026-07-14T11:08:17Z</time>
      </trkpt>
      <trkpt lat="45.19243" lon="5.96731">
        <ele>1925.7</ele>
        <time>2026-07-14T11:08:18Z</time>
      </trkpt>
      <trkpt lat="45.19243" lon="5.96731">
        <ele>1925.7</ele>
        <time>2026-07-14T11:08:19Z</time>
      </trkpt>
      <trkpt lat="45.19243" lon="5.96731">
        <ele>1925.7</ele>
        <time>2026-07-14T11:08:20Z</time>
      </trkpt>
      <trkpt lat="45.19243" lon="5.96731">
        <ele>1925.7</ele>
        <time>2026-07-14T11:08:21Z</time>
      </trkpt>
      <trkpt lat="45.19243" lon="5.96731">
        <ele>1925.7</ele>
        <time>2026-07-14T11:08:22Z</time>
      </trkpt>
      <trkpt lat="45.19243" lon="5.96731">
        <ele>1925.7</ele>
        <time>2026-07-14T11:08:23Z</time>
      </trkpt>
      <trkpt lat="45.19243" lon="5.96731">
        <ele>1925.7</ele>
        <time>2026-07-14T11:08:24Z</time>
      </trkpt>
      <trkpt lat="45.19243" lon="5.96731">
        <ele>1925.7</ele>
        <time>2026-07-14T11:08:25Z</time>
      </trkpt>
      <trkpt lat="45.19243" lon="5.96731">
        <ele>1925.7</ele>
        <time>2026-07-14T11:08:26Z</time>
      </trkpt>
      <trkpt lat="45.19243" lon="5.96731">
        <ele>1925.7</ele>
        <time>2026-07-14T11:08:27Z</time>
      </trkpt>
      <trkpt lat="45.19243" lon="5.96731">
        <ele>1925.7</ele>
        <time>2026-07-14T11:08:28Z</time>
      </trkpt>
      <trkpt lat="45.19243" lon="5.96731">
        <ele>1925.7</ele>
        <time>2026-07-14T11:08:29Z</time>
      </trkpt>
      <trkpt lat="45.19243" lon="5.96731">
        <ele>1925.7</ele>
        <time>2026-07-14T11:08:30Z</time>
      </trkpt>
      <trkpt lat="45.19243" lon="5.96731">
        <ele>1925.7</ele>
        <time>2026-07-14T11:08:31Z</time>
      </trkpt>
      <trkpt lat="45.19243" lon="5.96731">
        <ele>1925.7</ele>
        <time>2026-07-14T11:08:32Z</time>
      </trkpt>
      <trkpt lat="45.19243" lon="5.96731">
        <ele>1925.7</ele>
        <time>2026-07-14T11:08:33Z</time>
      </trkpt>
      <trkpt lat="45.19243" lon="5.96731">
        <ele>1925.7</ele>
        <time>2026-07-14T11:08:34Z</time>
      </trkpt>
      <trkpt lat="45.19243" lon="5.96731">
        <ele>1925.7</ele>
        <time>2026-07-14T11:08:35Z</time>
      </trkpt>
      <trkpt lat="45.19243" lon="5.96731">
        <ele>1925.7</ele>
        <time>2026-07-14T11:08:36Z</time>
      </trkpt>
      <trkpt lat="45.19243" lon="5.96731">
        <ele>1925.7</ele>
        <time>2026-07-14T11:08:37Z</time>
      </trkpt>
      <trkpt lat="45.19243" lon="5.96731">
        <ele>1925.7</ele>
        <time>2026-07-14T11:08:38Z</time>
      </trkpt>
      <trkpt lat="45.19243" lon="5.96731">
        <ele>1925.7</ele>
        <time>2026-07-14T11:08:39Z</time>
      </trkpt>
      <trkpt lat="45.19243" lon="5.96731">
        <ele>1925.7</ele>
        <time>2026-07-14T11:08:40Z</time>
      </trkpt>
      <trkpt lat="45.19243" lon="5.96731">
        <ele>1925.7</ele>
        <time>2026-07-14T11:08:41Z</time>
      </trkpt>
      <trkpt lat="45.19243" lon="5.96731">
        <ele>1925.7</ele>
        <time>2026-07-14T11:08:42Z</time>
      </trkpt>
      <trkpt lat="45.19243" lon="5.96731">
        <ele>1925.7</ele>
        <time>2026-07-14T11:08:43Z</time>
      </trkpt>
      <trkpt lat="45.19243" lon="5.96731">
        <ele>1925.7</ele>
        <time>2026-07-14T11:08:44Z</time>
      </trkpt>
      <trkpt lat="45.19243" lon="5.96731">
        <ele>1925.7</ele>
        <time>2026-07-14T11:08:45Z</time>
      </trkpt>
      <trkpt lat="45.19243" lon="5.96731">
        <ele>1925.7</ele>
        <time>2026-07-14T11:08:46Z</time>
      </trkpt>
      <trkpt lat="45.19243" lon="5.96731">
        <ele>1925.7</ele>
        <time>2026-07-14T11:08:47Z</time>
      </trkpt>
      <trkpt lat="45.19243" lon="5.96731">
        <ele>1925.7</ele>
        <time>2026-07-14T11:08:48Z</time>
      </trkpt>
      <trkpt lat="45.19243" lon="5.96731">
        <ele>1925.7</ele>
        <time>2026-07-14T11:08:49Z</time>
      </trkpt>
      <trkpt lat="45.19243" lon="5.96731">
        <ele>1925.7</ele>
        <time>2026-07-14T11:08:50Z</time>
      </trkpt>
      <trkpt lat="45.19243" lon="5.96731">
        <ele>1925.7</ele>
        <time>2026-07-14T11:08:51Z</time>
      </trkpt>
      <trkpt lat="45.19243" lon="5.96731">
        <ele>1925.7</ele>
        <time>2026-07-14T11:08:52Z</time>
      </trkpt>
      <trkpt lat="45.19243" lon="5.96731">
        <ele>1925.7</ele>
        <time>2026-07-14T11:08:53Z</time>
      </trkpt>
      <trkpt lat="45.19243" lon="5.96731">
        <ele>1925.7</ele>
        <time>2026-07-14T11:08:54Z</time>
      </trkpt>
      <trkpt lat="45.19243" lon="5.96731">
        <ele>1925.7</ele>
        <time>2026-07-14T11:08:55Z</time>
      </trkpt>
      <trkpt lat="45.19243" lon="5.96731">
        <ele>1925.7</ele>
        <time>2026-07-14T11:08:56Z</time>
      </trkpt>
      <trkpt lat="45.19243" lon="5.96731">
        <ele>1925.7</ele>
        <time>2026-07-14T11:08:57Z</time>
      </trkpt>
      <trkpt lat="45.19243" lon="5.96731">
        <ele>1925.7</ele>
        <time>2026-07-14T11:08:58Z</time>
      </trkpt>
      <trkpt lat="45.19243" lon="5.96731">
        <ele>1925.7</ele>
        <time>2026-07-14T11:08:59Z</time>
      </trkpt>
      <trkpt lat="45.19243" lon="5.96731">
        <ele>1925.7</ele>
        <time>2026-07-14T11:09:00Z</time>
      </trkpt>
      <trkpt lat="45.19243" lon="5.96731">
        <ele>1925.7</ele>
        <time>2026-07-14T11:09:01Z</time>
      </trkpt>
      <trkpt lat="45.19243" lon="5.96731">
        <ele>1925.7</ele>
        <time>2026-07-14T11:09:02Z</time>
      </trkpt>
      <trkpt lat="45.19243" lon="5.96731">
        <ele>1925.7</ele>
        <time>2026-07-14T11:09:03Z</time>
      </trkpt>
      <trkpt lat="45.19243" lon="5.96731">
        <ele>1925.7</ele>
        <time>2026-07-14T11:09:04Z</time>
      </trkpt>
      <trkpt lat="45.19243" lon="5.96731">
        <ele>1925.7</ele>
        <time>2026-07-14T11:09:05Z</time>
      </trkpt>
      <trkpt lat="45.19243" lon="5.96731">
        <ele>1925.7</ele>
        <time>2026-07-14T11:09:06Z</time>
      </trkpt>
      <trkpt lat="45.19243" lon="5.96731">
        <ele>1925.7</ele>
        <time>2026-07-14T11:09:07Z</time>
      </trkpt>
      <trkpt lat="45.19243" lon="5.96731">
        <ele>1925.7</ele>
        <time>2026-07-14T11:09:08Z</time>
      </trkpt>
      <trkpt lat="45.19243" lon="5.96731">
        <ele>1925.7</ele>
        <time>2026-07-14T11:09:09Z</time>
      </trkpt>
      <trkpt lat="45.19243" lon="5.96731">
        <ele>1925.7</ele>
        <time>2026-07-14T11:09:10Z</time>
      </trkpt>
      <trkpt lat="45.19243" lon="5.96731">
        <ele>1925.7</ele>
        <time>2026-07-14T11:09:11Z</time>
      </trkpt>
      <trkpt lat="45.19243" lon="5.96731">
        <ele>1925.7</ele>
        <time>2026-07-14T11:09:12Z</time>
      </trkpt>
      <trkpt lat="45.19243" lon="5.96731">
        <ele>1925.7</ele>
        <time>2026-07-14T11:09:13Z</time>
      </trkpt>
      <trkpt lat="45.19243" lon="5.96731">
        <ele>1925.7</ele>
        <time>2026-07-14T11:09:14Z</time>
      </trkpt>
      <trkpt lat="45.19243" lon="5.96731">
        <ele>1925.7</ele>
        <time>2026-07-14T11:09:15Z</time>
      </trkpt>
      <trkpt lat="45.19243" lon="5.96732">
        <ele>1925.7</ele>
        <time>2026-07-14T11:09:16Z</time>
      </trkpt>
      <trkpt lat="45.19243" lon="5.96732">
        <ele>1925.7</ele>
        <time>2026-07-14T11:09:17Z</time>
      </trkpt>
      <trkpt lat="45.19243" lon="5.96732">
        <ele>1925.7</ele>
        <time>2026-07-14T11:09:18Z</time>
      </trkpt>
      <trkpt lat="45.19243" lon="5.96732">
        <ele>1925.7</ele>
        <time>2026-07-14T11:09:19Z</time>
      </trkpt>
      <trkpt lat="45.19243" lon="5.96732">
        <ele>1925.7</ele>
        <time>2026-07-14T11:09:20Z</time>
      </trkpt>
      <trkpt lat="45.19243" lon="5.96732">
        <ele>1925.7</ele>
        <time>2026-07-14T11:09:21Z</time>
      </trkpt>
      <trkpt lat="45.19243" lon="5.96732">
        <ele>1925.7</ele>
        <time>2026-07-14T11:09:22Z</time>
      </trkpt>
      <trkpt lat="45.19243" lon="5.96732">
        <ele>1925.7</ele>
        <time>2026-07-14T11:09:23Z</time>
      </trkpt>
      <trkpt lat="45.19243" lon="5.96732">
        <ele>1925.7</ele>
        <time>2026-07-14T11:09:24Z</time>
      </trkpt>
      <trkpt lat="45.19243" lon="5.96732">
        <ele>1925.7</ele>
        <time>2026-07-14T11:09:25Z</time>
      </trkpt>
      <trkpt lat="45.19243" lon="5.96732">
        <ele>1925.7</ele>
        <time>2026-07-14T11:09:26Z</time>
      </trkpt>
      <trkpt lat="45.19243" lon="5.96732">
        <ele>1925.7</ele>
        <time>2026-07-14T11:09:27Z</time>
      </trkpt>
      <trkpt lat="45.19243" lon="5.96732">
        <ele>1925.7</ele>
        <time>2026-07-14T11:09:28Z</time>
      </trkpt>
      <trkpt lat="45.19243" lon="5.96732">
        <ele>1925.7</ele>
        <time>2026-07-14T11:09:29Z</time>
      </trkpt>
      <trkpt lat="45.19243" lon="5.96732">
        <ele>1925.7</ele>
        <time>2026-07-14T11:09:30Z</time>
      </trkpt>
      <trkpt lat="45.19243" lon="5.96732">
        <ele>1925.7</ele>
        <time>2026-07-14T11:09:31Z</time>
      </trkpt>
      <trkpt lat="45.19243" lon="5.96732">
        <ele>1925.7</ele>
        <time>2026-07-14T11:09:32Z</time>
      </trkpt>
      <trkpt lat="45.19243" lon="5.96732">
        <ele>1925.7</ele>
        <time>2026-07-14T11:09:33Z</time>
      </trkpt>
      <trkpt lat="45.19243" lon="5.96732">
        <ele>1925.7</ele>
        <time>2026-07-14T11:09:34Z</time>
      </trkpt>
      <trkpt lat="45.19243" lon="5.96732">
        <ele>1925.7</ele>
        <time>2026-07-14T11:09:35Z</time>
      </trkpt>
      <trkpt lat="45.19243" lon="5.96732">
        <ele>1925.7</ele>
        <time>2026-07-14T11:09:36Z</time>
      </trkpt>
      <trkpt lat="45.19243" lon="5.96732">
        <ele>1925.7</ele>
        <time>2026-07-14T11:09:37Z</time>
      </trkpt>
      <trkpt lat="45.19243" lon="5.96732">
        <ele>1925.7</ele>
        <time>2026-07-14T11:09:38Z</time>
      </trkpt>
      <trkpt lat="45.19243" lon="5.96732">
        <ele>1925.7</ele>
        <time>2026-07-14T11:09:39Z</time>
      </trkpt>
      <trkpt lat="45.19243" lon="5.96732">
        <ele>1925.7</ele>
        <time>2026-07-14T11:09:40Z</time>
      </trkpt>
      <trkpt lat="45.19243" lon="5.96732">
        <ele>1925.7</ele>
        <time>2026-07-14T11:09:41Z</time>
      </trkpt>
      <trkpt lat="45.19243" lon="5.96732">
        <ele>1925.7</ele>
        <time>2026-07-14T11:09:42Z</time>
      </trkpt>
      <trkpt lat="45.19243" lon="5.96732">
        <ele>1925.7</ele>
        <time>2026-07-14T11:09:43Z</time>
      </trkpt>
      <trkpt lat="45.19243" lon="5.96732">
        <ele>1925.7</ele>
        <time>2026-07-14T11:09:44Z</time>
      </trkpt>
      <trkpt lat="45.19243" lon="5.96732">
        <ele>1925.7</ele>
        <time>2026-07-14T11:09:45Z</time>
      </trkpt>
      <trkpt lat="45.19243" lon="5.96732">
        <ele>1925.7</ele>
        <time>2026-07-14T11:09:46Z</time>
      </trkpt>
      <trkpt lat="45.19243" lon="5.96732">
        <ele>1925.7</ele>
        <time>2026-07-14T11:09:47Z</time>
      </trkpt>
      <trkpt lat="45.19243" lon="5.96732">
        <ele>1925.7</ele>
        <time>2026-07-14T11:09:48Z</time>
      </trkpt>
      <trkpt lat="45.19243" lon="5.96731">
        <ele>1925.7</ele>
        <time>2026-07-14T11:09:49Z</time>
      </trkpt>
      <trkpt lat="45.19243" lon="5.96731">
        <ele>1925.7</ele>
        <time>2026-07-14T11:09:50Z</time>
      </trkpt>
      <trkpt lat="45.19243" lon="5.96731">
        <ele>1925.7</ele>
        <time>2026-07-14T11:09:51Z</time>
      </trkpt>
      <trkpt lat="45.19243" lon="5.96731">
        <ele>1925.7</ele>
        <time>2026-07-14T11:09:52Z</time>
      </trkpt>
      <trkpt lat="45.19243" lon="5.96731">
        <ele>1925.7</ele>
        <time>2026-07-14T11:09:53Z</time>
      </trkpt>
      <trkpt lat="45.19243" lon="5.96731">
        <ele>1925.7</ele>
        <time>2026-07-14T11:09:54Z</time>
      </trkpt>
      <trkpt lat="45.19243" lon="5.96731">
        <ele>1925.7</ele>
        <time>2026-07-14T11:09:55Z</time>
      </trkpt>
      <trkpt lat="45.19243" lon="5.96731">
        <ele>1925.7</ele>
        <time>2026-07-14T11:09:56Z</time>
      </trkpt>
      <trkpt lat="45.19243" lon="5.96731">
        <ele>1925.7</ele>
        <time>2026-07-14T11:09:57Z</time>
      </trkpt>
      <trkpt lat="45.19243" lon="5.96731">
        <ele>1925.7</ele>
        <time>2026-07-14T11:09:58Z</time>
      </trkpt>
      <trkpt lat="45.19243" lon="5.96731">
        <ele>1925.7</ele>
        <time>2026-07-14T11:09:59Z</time>
      </trkpt>
      <trkpt lat="45.19243" lon="5.96731">
        <ele>1925.7</ele>
        <time>2026-07-14T11:10:00Z</time>
      </trkpt>
      <trkpt lat="45.19243" lon="5.96731">
        <ele>1925.7</ele>
        <time>2026-07-14T11:10:01Z</time>
      </trkpt>
      <trkpt lat="45.19243" lon="5.96731">
        <ele>1925.7</ele>
        <time>2026-07-14T11:10:02Z</time>
      </trkpt>
      <trkpt lat="45.19243" lon="5.96731">
        <ele>1925.7</ele>
        <time>2026-07-14T11:10:03Z</time>
      </trkpt>
      <trkpt lat="45.19243" lon="5.96731">
        <ele>1925.7</ele>
        <time>2026-07-14T11:10:04Z</time>
      </trkpt>
      <trkpt lat="45.19243" lon="5.96731">
        <ele>1925.7</ele>
        <time>2026-07-14T11:10:05Z</time>
      </trkpt>
      <trkpt lat="45.19243" lon="5.96731">
        <ele>1925.7</ele>
        <time>2026-07-14T11:10:06Z</time>
      </trkpt>
      <trkpt lat="45.19243" lon="5.96731">
        <ele>1925.7</ele>
        <time>2026-07-14T11:10:07Z</time>
      </trkpt>
      <trkpt lat="45.19243" lon="5.96731">
        <ele>1925.7</ele>
        <time>2026-07-14T11:10:08Z</time>
      </trkpt>
      <trkpt lat="45.19243" lon="5.96731">
        <ele>1925.7</ele>
        <time>2026-07-14T11:10:09Z</time>
      </trkpt>
      <trkpt lat="45.19243" lon="5.96731">
        <ele>1925.7</ele>
        <time>2026-07-14T11:10:10Z</time>
      </trkpt>
      <trkpt lat="45.19243" lon="5.96731">
        <ele>1925.7</ele>
        <time>2026-07-14T11:10:11Z</time>
      </trkpt>
      <trkpt lat="45.19243" lon="5.96731">
        <ele>1925.7</ele>
        <time>2026-07-14T11:10:12Z</time>
      </trkpt>
      <trkpt lat="45.19243" lon="5.96731">
        <ele>1925.7</ele>
        <time>2026-07-14T11:10:13Z</time>
      </trkpt>
      <trkpt lat="45.19243" lon="5.96731">
        <ele>1925.7</ele>
        <time>2026-07-14T11:10:14Z</time>
      </trkpt>
      <trkpt lat="45.19243" lon="5.96731">
        <ele>1925.7</ele>
        <time>2026-07-14T11:10:15Z</time>
      </trkpt>
      <trkpt lat="45.19243" lon="5.96731">
        <ele>1925.7</ele>
        <time>2026-07-14T11:10:16Z</time>
      </trkpt>
      <trkpt lat="45.19243" lon="5.96731">
        <ele>1925.7</ele>
        <time>2026-07-14T11:10:17Z</time>
      </trkpt>
      <trkpt lat="45.19243" lon="5.96731">
        <ele>1925.7</ele>
        <time>2026-07-14T11:10:18Z</time>
      </trkpt>
      <trkpt lat="45.19243" lon="5.96731">
        <ele>1925.7</ele>
        <time>2026-07-14T11:10:19Z</time>
      </trkpt>
      <trkpt lat="45.19243" lon="5.96731">
        <ele>1925.7</ele>
        <time>2026-07-14T11:10:20Z</time>
      </trkpt>
      <trkpt lat="45.19243" lon="5.96731">
        <ele>1925.7</ele>
        <time>2026-07-14T11:10:21Z</time>
      </trkpt>
      <trkpt lat="45.19243" lon="5.96731">
        <ele>1925.7</ele>
        <time>2026-07-14T11:10:22Z</time>
      </trkpt>
      <trkpt lat="45.19243" lon="5.96731">
        <ele>1925.7</ele>
        <time>2026-07-14T11:10:23Z</time>
      </trkpt>
      <trkpt lat="45.19243" lon="5.96731">
        <ele>1925.7</ele>
        <time>2026-07-14T11:10:24Z</time>
      </trkpt>
      <trkpt lat="45.19243" lon="5.96731">
        <ele>1925.7</ele>
        <time>2026-07-14T11:10:25Z</time>
      </trkpt>
      <trkpt lat="45.19243" lon="5.96731">
        <ele>1925.7</ele>
        <time>2026-07-14T11:10:26Z</time>
      </trkpt>
      <trkpt lat="45.19243" lon="5.96731">
        <ele>1925.7</ele>
        <time>2026-07-14T11:10:27Z</time>
      </trkpt>
      <trkpt lat="45.19243" lon="5.96731">
        <ele>1925.7</ele>
        <time>2026-07-14T11:10:28Z</time>
      </trkpt>
      <trkpt lat="45.19243" lon="5.96731">
        <ele>1925.7</ele>
        <time>2026-07-14T11:10:29Z</time>
      </trkpt>
      <trkpt lat="45.19243" lon="5.96731">
        <ele>1925.7</ele>
        <time>2026-07-14T11:10:30Z</time>
      </trkpt>
      <trkpt lat="45.19243" lon="5.96731">
        <ele>1925.7</ele>
        <time>2026-07-14T11:10:31Z</time>
      </trkpt>
      <trkpt lat="45.19243" lon="5.96731">
        <ele>1925.7</ele>
        <time>2026-07-14T11:10:32Z</time>
      </trkpt>
      <trkpt lat="45.19243" lon="5.96731">
        <ele>1925.7</ele>
        <time>2026-07-14T11:10:33Z</time>
      </trkpt>
      <trkpt lat="45.19243" lon="5.96731">
        <ele>1925.7</ele>
        <time>2026-07-14T11:10:34Z</time>
      </trkpt>
      <trkpt lat="45.19243" lon="5.96731">
        <ele>1925.7</ele>
        <time>2026-07-14T11:10:35Z</time>
      </trkpt>
      <trkpt lat="45.19243" lon="5.96731">
        <ele>1925.7</ele>
        <time>2026-07-14T11:10:36Z</time>
      </trkpt>
      <trkpt lat="45.19243" lon="5.96731">
        <ele>1925.7</ele>
        <time>2026-07-14T11:10:37Z</time>
      </trkpt>
      <trkpt lat="45.19243" lon="5.96731">
        <ele>1925.7</ele>
        <time>2026-07-14T11:10:38Z</time>
      </trkpt>
      <trkpt lat="45.19243" lon="5.96731">
        <ele>1925.7</ele>
        <time>2026-07-14T11:10:39Z</time>
      </trkpt>
      <trkpt lat="45.19243" lon="5.96731">
        <ele>1925.7</ele>
        <time>2026-07-14T11:10:40Z</time>
      </trkpt>
      <trkpt lat="45.19243" lon="5.96731">
        <ele>1925.7</ele>
        <time>2026-07-14T11:10:41Z</time>
      </trkpt>
      <trkpt lat="45.19243" lon="5.96731">
        <ele>1925.7</ele>
        <time>2026-07-14T11:10:42Z</time>
      </trkpt>
      <trkpt lat="45.19243" lon="5.96731">
        <ele>1925.7</ele>
        <time>2026-07-14T11:10:43Z</time>
      </trkpt>
      <trkpt lat="45.19243" lon="5.96731">
        <ele>1925.7</ele>
        <time>2026-07-14T11:10:44Z</time>
      </trkpt>
      <trkpt lat="45.19243" lon="5.96731">
        <ele>1925.7</ele>
        <time>2026-07-14T11:10:45Z</time>
      </trkpt>
      <trkpt lat="45.19243" lon="5.96731">
        <ele>1925.7</ele>
        <time>2026-07-14T11:10:46Z</time>
      </trkpt>
      <trkpt lat="45.19243" lon="5.96731">
        <ele>1925.7</ele>
        <time>2026-07-14T11:10:47Z</time>
      </trkpt>
      <trkpt lat="45.19243" lon="5.96731">
        <ele>1925.7</ele>
        <time>2026-07-14T11:10:48Z</time>
      </trkpt>
      <trkpt lat="45.19243" lon="5.96731">
        <ele>1925.7</ele>
        <time>2026-07-14T11:10:49Z</time>
      </trkpt>
      <trkpt lat="45.19243" lon="5.96731">
        <ele>1925.7</ele>
        <time>2026-07-14T11:10:50Z</time>
      </trkpt>
      <trkpt lat="45.19243" lon="5.96731">
        <ele>1925.7</ele>
        <time>2026-07-14T11:10:51Z</time>
      </trkpt>
      <trkpt lat="45.19243" lon="5.96731">
        <ele>1925.7</ele>
        <time>2026-07-14T11:10:52Z</time>
      </trkpt>
      <trkpt lat="45.19243" lon="5.96731">
        <ele>1925.7</ele>
        <time>2026-07-14T11:10:53Z</time>
      </trkpt>
      <trkpt lat="45.19243" lon="5.96731">
        <ele>1925.7</ele>
        <time>2026-07-14T11:10:54Z</time>
      </trkpt>
      <trkpt lat="45.19243" lon="5.96731">
        <ele>1925.7</ele>
        <time>2026-07-14T11:10:55Z</time>
      </trkpt>
      <trkpt lat="45.19243" lon="5.96731">
        <ele>1925.7</ele>
        <time>2026-07-14T11:10:56Z</time>
      </trkpt>
      <trkpt lat="45.19243" lon="5.96731">
        <ele>1925.7</ele>
        <time>2026-07-14T11:10:57Z</time>
      </trkpt>
      <trkpt lat="45.19243" lon="5.96731">
        <ele>1925.7</ele>
        <time>2026-07-14T11:10:58Z</time>
      </trkpt>
      <trkpt lat="45.19243" lon="5.96731">
        <ele>1925.7</ele>
        <time>2026-07-14T11:10:59Z</time>
      </trkpt>
      <trkpt lat="45.19243" lon="5.96731">
        <ele>1925.7</ele>
        <time>2026-07-14T11:11:00Z</time>
      </trkpt>
      <trkpt lat="45.19243" lon="5.96731">
        <ele>1925.7</ele>
        <time>2026-07-14T11:11:01Z</time>
      </trkpt>
      <trkpt lat="45.19243" lon="5.96731">
        <ele>1925.7</ele>
        <time>2026-07-14T11:11:02Z</time>
      </trkpt>
      <trkpt lat="45.19243" lon="5.96731">
        <ele>1925.7</ele>
        <time>2026-07-14T11:11:03Z</time>
      </trkpt>
      <trkpt lat="45.19243" lon="5.96731">
        <ele>1925.7</ele>
        <time>2026-07-14T11:11:04Z</time>
      </trkpt>
      <trkpt lat="45.19243" lon="5.96731">
        <ele>1925.7</ele>
        <time>2026-07-14T11:11:05Z</time>
      </trkpt>
      <trkpt lat="45.19243" lon="5.96731">
        <ele>1925.7</ele>
        <time>2026-07-14T11:11:06Z</time>
      </trkpt>
      <trkpt lat="45.19243" lon="5.96731">
        <ele>1925.7</ele>
        <time>2026-07-14T11:11:07Z</time>
      </trkpt>
      <trkpt lat="45.19243" lon="5.96731">
        <ele>1925.7</ele>
        <time>2026-07-14T11:11:08Z</time>
      </trkpt>
      <trkpt lat="45.19243" lon="5.96731">
        <ele>1925.7</ele>
        <time>2026-07-14T11:11:09Z</time>
      </trkpt>
      <trkpt lat="45.19243" lon="5.96731">
        <ele>1925.7</ele>
        <time>2026-07-14T11:11:10Z</time>
      </trkpt>
      <trkpt lat="45.19243" lon="5.96731">
        <ele>1925.7</ele>
        <time>2026-07-14T11:11:11Z</time>
      </trkpt>
      <trkpt lat="45.19243" lon="5.96731">
        <ele>1925.7</ele>
        <time>2026-07-14T11:11:12Z</time>
      </trkpt>
      <trkpt lat="45.19243" lon="5.96731">
        <ele>1925.7</ele>
        <time>2026-07-14T11:11:13Z</time>
      </trkpt>
      <trkpt lat="45.19243" lon="5.96731">
        <ele>1925.7</ele>
        <time>2026-07-14T11:11:14Z</time>
      </trkpt>
      <trkpt lat="45.19243" lon="5.96731">
        <ele>1925.7</ele>
        <time>2026-07-14T11:11:15Z</time>
      </trkpt>
      <trkpt lat="45.19243" lon="5.96731">
        <ele>1925.7</ele>
        <time>2026-07-14T11:11:16Z</time>
      </trkpt>
      <trkpt lat="45.19243" lon="5.96731">
        <ele>1925.7</ele>
        <time>2026-07-14T11:11:17Z</time>
      </trkpt>
      <trkpt lat="45.19243" lon="5.96731">
        <ele>1925.7</ele>
        <time>2026-07-14T11:11:18Z</time>
      </trkpt>
      <trkpt lat="45.19243" lon="5.96731">
        <ele>1925.7</ele>
        <time>2026-07-14T11:11:19Z</time>
      </trkpt>
      <trkpt lat="45.19243" lon="5.96731">
        <ele>1925.7</ele>
        <time>2026-07-14T11:11:20Z</time>
      </trkpt>
      <trkpt lat="45.19243" lon="5.96731">
        <ele>1925.7</ele>
        <time>2026-07-14T11:11:21Z</time>
      </trkpt>
      <trkpt lat="45.19243" lon="5.96731">
        <ele>1925.7</ele>
        <time>2026-07-14T11:11:22Z</time>
      </trkpt>
      <trkpt lat="45.19243" lon="5.96731">
        <ele>1925.7</ele>
        <time>2026-07-14T11:11:23Z</time>
      </trkpt>
      <trkpt lat="45.19243" lon="5.96731">
        <ele>1925.7</ele>
        <time>2026-07-14T11:11:24Z</time>
      </trkpt>
      <trkpt lat="45.19243" lon="5.96731">
        <ele>1925.7</ele>
        <time>2026-07-14T11:11:25Z</time>
      </trkpt>
      <trkpt lat="45.19243" lon="5.96731">
        <ele>1925.7</ele>
        <time>2026-07-14T11:11:26Z</time>
      </trkpt>
      <trkpt lat="45.19243" lon="5.96731">
        <ele>1925.7</ele>
        <time>2026-07-14T11:11:27Z</time>
      </trkpt>
      <trkpt lat="45.19243" lon="5.96731">
        <ele>1925.7</ele>
        <time>2026-07-14T11:11:28Z</time>
      </trkpt>
      <trkpt lat="45.19243" lon="5.96731">
        <ele>1925.7</ele>
        <time>2026-07-14T11:11:29Z</time>
      </trkpt>
      <trkpt lat="45.19243" lon="5.96731">
        <ele>1925.7</ele>
        <time>2026-07-14T11:11:30Z</time>
      </trkpt>
      <trkpt lat="45.19243" lon="5.96731">
        <ele>1925.7</ele>
        <time>2026-07-14T11:11:31Z</time>
      </trkpt>
      <trkpt lat="45.19243" lon="5.96731">
        <ele>1925.7</ele>
        <time>2026-07-14T11:11:32Z</time>
      </trkpt>
      <trkpt lat="45.19243" lon="5.96731">
        <ele>1925.7</ele>
        <time>2026-07-14T11:11:33Z</time>
      </trkpt>
      <trkpt lat="45.19243" lon="5.96731">
        <ele>1925.7</ele>
        <time>2026-07-14T11:11:34Z</time>
      </trkpt>
      <trkpt lat="45.19243" lon="5.96731">
        <ele>1925.7</ele>
        <time>2026-07-14T11:11:35Z</time>
      </trkpt>
      <trkpt lat="45.19243" lon="5.96731">
        <ele>1925.7</ele>
        <time>2026-07-14T11:11:36Z</time>
      </trkpt>
      <trkpt lat="45.19243" lon="5.96731">
        <ele>1925.7</ele>
        <time>2026-07-14T11:11:37Z</time>
      </trkpt>
      <trkpt lat="45.19243" lon="5.96731">
        <ele>1925.7</ele>
        <time>2026-07-14T11:11:38Z</time>
      </trkpt>
      <trkpt lat="45.19243" lon="5.96731">
        <ele>1925.7</ele>
        <time>2026-07-14T11:11:39Z</time>
      </trkpt>
      <trkpt lat="45.19243" lon="5.96731">
        <ele>1925.7</ele>
        <time>2026-07-14T11:11:40Z</time>
      </trkpt>
      <trkpt lat="45.19243" lon="5.96731">
        <ele>1925.7</ele>
        <time>2026-07-14T11:11:41Z</time>
      </trkpt>
      <trkpt lat="45.19243" lon="5.96731">
        <ele>1925.7</ele>
        <time>2026-07-14T11:11:42Z</time>
      </trkpt>
      <trkpt lat="45.19243" lon="5.96731">
        <ele>1925.7</ele>
        <time>2026-07-14T11:11:43Z</time>
      </trkpt>
      <trkpt lat="45.19243" lon="5.96731">
        <ele>1925.7</ele>
        <time>2026-07-14T11:11:44Z</time>
      </trkpt>
      <trkpt lat="45.19243" lon="5.96731">
        <ele>1925.7</ele>
        <time>2026-07-14T11:11:45Z</time>
      </trkpt>
      <trkpt lat="45.19243" lon="5.96731">
        <ele>1925.7</ele>
        <time>2026-07-14T11:11:46Z</time>
      </trkpt>
      <trkpt lat="45.19243" lon="5.96731">
        <ele>1925.7</ele>
        <time>2026-07-14T11:11:47Z</time>
      </trkpt>
      <trkpt lat="45.19243" lon="5.96731">
        <ele>1925.7</ele>
        <time>2026-07-14T11:11:48Z</time>
      </trkpt>
      <trkpt lat="45.19243" lon="5.96731">
        <ele>1925.7</ele>
        <time>2026-07-14T11:11:49Z</time>
      </trkpt>
      <trkpt lat="45.19243" lon="5.96731">
        <ele>1925.7</ele>
        <time>2026-07-14T11:11:50Z</time>
      </trkpt>
      <trkpt lat="45.19243" lon="5.96731">
        <ele>1925.7</ele>
        <time>2026-07-14T11:11:51Z</time>
      </trkpt>
      <trkpt lat="45.19243" lon="5.96731">
        <ele>1925.7</ele>
        <time>2026-07-14T11:11:52Z</time>
      </trkpt>
      <trkpt lat="45.19243" lon="5.96731">
        <ele>1925.7</ele>
        <time>2026-07-14T11:11:53Z</time>
      </trkpt>
      <trkpt lat="45.19243" lon="5.96731">
        <ele>1925.7</ele>
        <time>2026-07-14T11:11:54Z</time>
      </trkpt>
      <trkpt lat="45.19243" lon="5.96731">
        <ele>1925.7</ele>
        <time>2026-07-14T11:11:55Z</time>
      </trkpt>
      <trkpt lat="45.19243" lon="5.96731">
        <ele>1925.7</ele>
        <time>2026-07-14T11:11:56Z</time>
      </trkpt>
      <trkpt lat="45.19243" lon="5.96731">
        <ele>1925.7</ele>
        <time>2026-07-14T11:11:57Z</time>
      </trkpt>
      <trkpt lat="45.19243" lon="5.96731">
        <ele>1925.7</ele>
        <time>2026-07-14T11:11:58Z</time>
      </trkpt>
      <trkpt lat="45.19243" lon="5.96731">
        <ele>1925.7</ele>
        <time>2026-07-14T11:11:59Z</time>
      </trkpt>
      <trkpt lat="45.19243" lon="5.96731">
        <ele>1925.7</ele>
        <time>2026-07-14T11:12:00Z</time>
      </trkpt>
      <trkpt lat="45.19243" lon="5.96731">
        <ele>1925.7</ele>
        <time>2026-07-14T11:12:01Z</time>
      </trkpt>
      <trkpt lat="45.19243" lon="5.96731">
        <ele>1925.7</ele>
        <time>2026-07-14T11:12:02Z</time>
      </trkpt>
      <trkpt lat="45.19243" lon="5.96731">
        <ele>1925.7</ele>
        <time>2026-07-14T11:12:03Z</time>
      </trkpt>
      <trkpt lat="45.19243" lon="5.96731">
        <ele>1925.7</ele>
        <time>2026-07-14T11:12:04Z</time>
      </trkpt>
      <trkpt lat="45.19243" lon="5.96731">
        <ele>1925.7</ele>
        <time>2026-07-14T11:12:05Z</time>
      </trkpt>
      <trkpt lat="45.19243" lon="5.96731">
        <ele>1925.7</ele>
        <time>2026-07-14T11:12:06Z</time>
      </trkpt>
      <trkpt lat="45.19243" lon="5.96731">
        <ele>1925.7</ele>
        <time>2026-07-14T11:12:07Z</time>
      </trkpt>
      <trkpt lat="45.19243" lon="5.96731">
        <ele>1925.7</ele>
        <time>2026-07-14T11:12:08Z</time>
      </trkpt>
      <trkpt lat="45.19243" lon="5.96731">
        <ele>1925.7</ele>
        <time>2026-07-14T11:12:09Z</time>
      </trkpt>
      <trkpt lat="45.19243" lon="5.96731">
        <ele>1925.7</ele>
        <time>2026-07-14T11:12:10Z</time>
      </trkpt>
      <trkpt lat="45.19243" lon="5.96731">
        <ele>1925.7</ele>
        <time>2026-07-14T11:12:11Z</time>
      </trkpt>
      <trkpt lat="45.19243" lon="5.96731">
        <ele>1925.7</ele>
        <time>2026-07-14T11:12:12Z</time>
      </trkpt>
      <trkpt lat="45.19243" lon="5.96731">
        <ele>1925.7</ele>
        <time>2026-07-14T11:12:13Z</time>
      </trkpt>
      <trkpt lat="45.19243" lon="5.96731">
        <ele>1925.7</ele>
        <time>2026-07-14T11:12:14Z</time>
      </trkpt>
      <trkpt lat="45.19243" lon="5.96731">
        <ele>1925.7</ele>
        <time>2026-07-14T11:12:15Z</time>
      </trkpt>
      <trkpt lat="45.19243" lon="5.96731">
        <ele>1925.7</ele>
        <time>2026-07-14T11:12:16Z</time>
      </trkpt>
      <trkpt lat="45.19243" lon="5.96731">
        <ele>1925.7</ele>
        <time>2026-07-14T11:12:17Z</time>
      </trkpt>
      <trkpt lat="45.19243" lon="5.96731">
        <ele>1925.7</ele>
        <time>2026-07-14T11:12:18Z</time>
      </trkpt>
      <trkpt lat="45.19243" lon="5.96731">
        <ele>1925.7</ele>
        <time>2026-07-14T11:12:19Z</time>
      </trkpt>
      <trkpt lat="45.19243" lon="5.96731">
        <ele>1925.7</ele>
        <time>2026-07-14T11:12:20Z</time>
      </trkpt>
      <trkpt lat="45.19243" lon="5.96731">
        <ele>1925.7</ele>
        <time>2026-07-14T11:12:21Z</time>
      </trkpt>
      <trkpt lat="45.19243" lon="5.96731">
        <ele>1925.7</ele>
        <time>2026-07-14T11:12:22Z</time>
      </trkpt>
      <trkpt lat="45.19243" lon="5.96731">
        <ele>1925.7</ele>
        <time>2026-07-14T11:12:23Z</time>
      </trkpt>
      <trkpt lat="45.19243" lon="5.96731">
        <ele>1925.7</ele>
        <time>2026-07-14T11:12:24Z</time>
      </trkpt>
      <trkpt lat="45.19243" lon="5.96731">
        <ele>1925.7</ele>
        <time>2026-07-14T11:12:25Z</time>
      </trkpt>
      <trkpt lat="45.19243" lon="5.96731">
        <ele>1925.7</ele>
        <time>2026-07-14T11:12:26Z</time>
      </trkpt>
      <trkpt lat="45.19243" lon="5.96731">
        <ele>1925.7</ele>
        <time>2026-07-14T11:12:27Z</time>
      </trkpt>
      <trkpt lat="45.19243" lon="5.96731">
        <ele>1925.7</ele>
        <time>2026-07-14T11:12:28Z</time>
      </trkpt>
      <trkpt lat="45.19243" lon="5.96731">
        <ele>1925.7</ele>
        <time>2026-07-14T11:12:29Z</time>
      </trkpt>
      <trkpt lat="45.19243" lon="5.96731">
        <ele>1925.7</ele>
        <time>2026-07-14T11:12:30Z</time>
      </trkpt>
      <trkpt lat="45.19243" lon="5.96731">
        <ele>1925.7</ele>
        <time>2026-07-14T11:12:31Z</time>
      </trkpt>
      <trkpt lat="45.19243" lon="5.96731">
        <ele>1925.7</ele>
        <time>2026-07-14T11:12:32Z</time>
      </trkpt>
      <trkpt lat="45.19243" lon="5.96731">
        <ele>1925.7</ele>
        <time>2026-07-14T11:12:33Z</time>
      </trkpt>
      <trkpt lat="45.19243" lon="5.96731">
        <ele>1925.7</ele>
        <time>2026-07-14T11:12:34Z</time>
      </trkpt>
      <trkpt lat="45.19243" lon="5.96731">
        <ele>1925.7</ele>
        <time>2026-07-14T11:12:35Z</time>
      </trkpt>
      <trkpt lat="45.19243" lon="5.96731">
        <ele>1925.7</ele>
        <time>2026-07-14T11:12:36Z</time>
      </trkpt>
      <trkpt lat="45.19243" lon="5.96731">
        <ele>1925.7</ele>
        <time>2026-07-14T11:12:37Z</time>
      </trkpt>
      <trkpt lat="45.19243" lon="5.96731">
        <ele>1925.7</ele>
        <time>2026-07-14T11:12:38Z</time>
      </trkpt>
      <trkpt lat="45.19243" lon="5.96731">
        <ele>1925.7</ele>
        <time>2026-07-14T11:12:39Z</time>
      </trkpt>
      <trkpt lat="45.19243" lon="5.96731">
        <ele>1925.7</ele>
        <time>2026-07-14T11:12:40Z</time>
      </trkpt>
      <trkpt lat="45.19243" lon="5.96731">
        <ele>1925.7</ele>
        <time>2026-07-14T11:12:41Z</time>
      </trkpt>
      <trkpt lat="45.19243" lon="5.96731">
        <ele>1925.7</ele>
        <time>2026-07-14T11:12:42Z</time>
      </trkpt>
      <trkpt lat="45.19243" lon="5.96731">
        <ele>1925.7</ele>
        <time>2026-07-14T11:12:43Z</time>
      </trkpt>
      <trkpt lat="45.19243" lon="5.96731">
        <ele>1925.7</ele>
        <time>2026-07-14T11:12:44Z</time>
      </trkpt>
      <trkpt lat="45.19243" lon="5.96731">
        <ele>1925.7</ele>
        <time>2026-07-14T11:12:45Z</time>
      </trkpt>
      <trkpt lat="45.19243" lon="5.96731">
        <ele>1925.7</ele>
        <time>2026-07-14T11:12:46Z</time>
      </trkpt>
      <trkpt lat="45.19243" lon="5.96731">
        <ele>1925.7</ele>
        <time>2026-07-14T11:12:47Z</time>
      </trkpt>
      <trkpt lat="45.19243" lon="5.96731">
        <ele>1925.7</ele>
        <time>2026-07-14T11:12:48Z</time>
      </trkpt>
      <trkpt lat="45.19243" lon="5.96731">
        <ele>1925.7</ele>
        <time>2026-07-14T11:12:49Z</time>
      </trkpt>
      <trkpt lat="45.19243" lon="5.96731">
        <ele>1925.7</ele>
        <time>2026-07-14T11:12:50Z</time>
      </trkpt>
      <trkpt lat="45.19243" lon="5.96731">
        <ele>1925.7</ele>
        <time>2026-07-14T11:12:51Z</time>
      </trkpt>
      <trkpt lat="45.19243" lon="5.96731">
        <ele>1925.7</ele>
        <time>2026-07-14T11:12:52Z</time>
      </trkpt>
      <trkpt lat="45.19243" lon="5.96731">
        <ele>1925.7</ele>
        <time>2026-07-14T11:12:53Z</time>
      </trkpt>
      <trkpt lat="45.19243" lon="5.96731">
        <ele>1925.7</ele>
        <time>2026-07-14T11:12:54Z</time>
      </trkpt>
      <trkpt lat="45.19243" lon="5.96731">
        <ele>1925.7</ele>
        <time>2026-07-14T11:12:55Z</time>
      </trkpt>
      <trkpt lat="45.19243" lon="5.96731">
        <ele>1925.7</ele>
        <time>2026-07-14T11:12:56Z</time>
      </trkpt>
      <trkpt lat="45.19243" lon="5.96731">
        <ele>1925.7</ele>
        <time>2026-07-14T11:12:57Z</time>
      </trkpt>
      <trkpt lat="45.19243" lon="5.96731">
        <ele>1925.7</ele>
        <time>2026-07-14T11:12:58Z</time>
      </trkpt>
      <trkpt lat="45.19243" lon="5.96731">
        <ele>1925.7</ele>
        <time>2026-07-14T11:12:59Z</time>
      </trkpt>
      <trkpt lat="45.19243" lon="5.96731">
        <ele>1925.7</ele>
        <time>2026-07-14T11:13:00Z</time>
      </trkpt>
      <trkpt lat="45.19243" lon="5.96731">
        <ele>1925.7</ele>
        <time>2026-07-14T11:13:01Z</time>
      </trkpt>
      <trkpt lat="45.19243" lon="5.96731">
        <ele>1925.7</ele>
        <time>2026-07-14T11:13:02Z</time>
      </trkpt>
      <trkpt lat="45.19243" lon="5.96731">
        <ele>1925.7</ele>
        <time>2026-07-14T11:13:03Z</time>
      </trkpt>
      <trkpt lat="45.19243" lon="5.96731">
        <ele>1925.7</ele>
        <time>2026-07-14T11:13:04Z</time>
      </trkpt>
      <trkpt lat="45.19243" lon="5.96731">
        <ele>1925.7</ele>
        <time>2026-07-14T11:13:05Z</time>
      </trkpt>
      <trkpt lat="45.19243" lon="5.96731">
        <ele>1925.7</ele>
        <time>2026-07-14T11:13:06Z</time>
      </trkpt>
      <trkpt lat="45.19243" lon="5.96731">
        <ele>1925.7</ele>
        <time>2026-07-14T11:13:07Z</time>
      </trkpt>
      <trkpt lat="45.19243" lon="5.96731">
        <ele>1925.7</ele>
        <time>2026-07-14T11:13:08Z</time>
      </trkpt>
      <trkpt lat="45.19243" lon="5.96731">
        <ele>1925.7</ele>
        <time>2026-07-14T11:13:09Z</time>
      </trkpt>
      <trkpt lat="45.19243" lon="5.96731">
        <ele>1925.7</ele>
        <time>2026-07-14T11:13:10Z</time>
      </trkpt>
      <trkpt lat="45.19243" lon="5.96731">
        <ele>1925.7</ele>
        <time>2026-07-14T11:13:11Z</time>
      </trkpt>
      <trkpt lat="45.19243" lon="5.96731">
        <ele>1925.7</ele>
        <time>2026-07-14T11:13:12Z</time>
      </trkpt>
      <trkpt lat="45.19243" lon="5.96731">
        <ele>1925.7</ele>
        <time>2026-07-14T11:13:13Z</time>
      </trkpt>
      <trkpt lat="45.19243" lon="5.96731">
        <ele>1925.7</ele>
        <time>2026-07-14T11:13:14Z</time>
      </trkpt>
      <trkpt lat="45.19243" lon="5.96731">
        <ele>1925.7</ele>
        <time>2026-07-14T11:13:15Z</time>
      </trkpt>
      <trkpt lat="45.19243" lon="5.96731">
        <ele>1925.7</ele>
        <time>2026-07-14T11:13:16Z</time>
      </trkpt>
      <trkpt lat="45.19243" lon="5.96731">
        <ele>1925.7</ele>
        <time>2026-07-14T11:13:17Z</time>
      </trkpt>
      <trkpt lat="45.19243" lon="5.96731">
        <ele>1925.7</ele>
        <time>2026-07-14T11:13:18Z</time>
      </trkpt>
      <trkpt lat="45.19243" lon="5.96731">
        <ele>1925.7</ele>
        <time>2026-07-14T11:13:19Z</time>
      </trkpt>
      <trkpt lat="45.19243" lon="5.96731">
        <ele>1925.7</ele>
        <time>2026-07-14T11:13:20Z</time>
      </trkpt>
      <trkpt lat="45.19243" lon="5.96731">
        <ele>1925.7</ele>
        <time>2026-07-14T11:13:21Z</time>
      </trkpt>
      <trkpt lat="45.19243" lon="5.96731">
        <ele>1925.7</ele>
        <time>2026-07-14T11:13:22Z</time>
      </trkpt>
      <trkpt lat="45.19243" lon="5.96731">
        <ele>1925.7</ele>
        <time>2026-07-14T11:13:23Z</time>
      </trkpt>
      <trkpt lat="45.19243" lon="5.96731">
        <ele>1925.7</ele>
        <time>2026-07-14T11:13:24Z</time>
      </trkpt>
      <trkpt lat="45.19243" lon="5.96731">
        <ele>1925.7</ele>
        <time>2026-07-14T11:13:25Z</time>
      </trkpt>
      <trkpt lat="45.19243" lon="5.96731">
        <ele>1925.7</ele>
        <time>2026-07-14T11:13:26Z</time>
      </trkpt>
      <trkpt lat="45.19243" lon="5.96731">
        <ele>1925.7</ele>
        <time>2026-07-14T11:13:27Z</time>
      </trkpt>
      <trkpt lat="45.19243" lon="5.96731">
        <ele>1925.7</ele>
        <time>2026-07-14T11:13:28Z</time>
      </trkpt>
      <trkpt lat="45.19243" lon="5.96731">
        <ele>1925.7</ele>
        <time>2026-07-14T11:13:29Z</time>
      </trkpt>
      <trkpt lat="45.19243" lon="5.96731">
        <ele>1925.7</ele>
        <time>2026-07-14T11:13:30Z</time>
      </trkpt>
      <trkpt lat="45.19243" lon="5.96731">
        <ele>1925.7</ele>
        <time>2026-07-14T11:13:31Z</time>
      </trkpt>
      <trkpt lat="45.19243" lon="5.96731">
        <ele>1925.7</ele>
        <time>2026-07-14T11:13:32Z</time>
      </trkpt>
      <trkpt lat="45.19243" lon="5.96731">
        <ele>1925.7</ele>
        <time>2026-07-14T11:13:33Z</time>
      </trkpt>
      <trkpt lat="45.19243" lon="5.96731">
        <ele>1925.7</ele>
        <time>2026-07-14T11:13:34Z</time>
      </trkpt>
      <trkpt lat="45.19243" lon="5.96731">
        <ele>1925.7</ele>
        <time>2026-07-14T11:13:35Z</time>
      </trkpt>
      <trkpt lat="45.19243" lon="5.96731">
        <ele>1925.7</ele>
        <time>2026-07-14T11:13:36Z</time>
      </trkpt>
      <trkpt lat="45.19243" lon="5.96731">
        <ele>1925.7</ele>
        <time>2026-07-14T11:13:37Z</time>
      </trkpt>
      <trkpt lat="45.19243" lon="5.96731">
        <ele>1925.6</ele>
        <time>2026-07-14T11:13:38Z</time>
      </trkpt>
      <trkpt lat="45.19243" lon="5.96731">
        <ele>1925.6</ele>
        <time>2026-07-14T11:13:39Z</time>
      </trkpt>
      <trkpt lat="45.19243" lon="5.96731">
        <ele>1925.6</ele>
        <time>2026-07-14T11:13:40Z</time>
      </trkpt>
      <trkpt lat="45.19243" lon="5.96731">
        <ele>1925.6</ele>
        <time>2026-07-14T11:13:41Z</time>
      </trkpt>
      <trkpt lat="45.19243" lon="5.96731">
        <ele>1925.6</ele>
        <time>2026-07-14T11:13:42Z</time>
      </trkpt>
      <trkpt lat="45.19243" lon="5.96731">
        <ele>1925.6</ele>
        <time>2026-07-14T11:13:43Z</time>
      </trkpt>
      <trkpt lat="45.19243" lon="5.96731">
        <ele>1925.6</ele>
        <time>2026-07-14T11:13:44Z</time>
      </trkpt>
      <trkpt lat="45.19243" lon="5.96731">
        <ele>1925.6</ele>
        <time>2026-07-14T11:13:45Z</time>
      </trkpt>
      <trkpt lat="45.19243" lon="5.96731">
        <ele>1925.6</ele>
        <time>2026-07-14T11:13:46Z</time>
      </trkpt>
      <trkpt lat="45.19243" lon="5.96731">
        <ele>1925.6</ele>
        <time>2026-07-14T11:13:47Z</time>
      </trkpt>
      <trkpt lat="45.19243" lon="5.96731">
        <ele>1925.6</ele>
        <time>2026-07-14T11:13:48Z</time>
      </trkpt>
      <trkpt lat="45.19243" lon="5.96731">
        <ele>1925.6</ele>
        <time>2026-07-14T11:13:49Z</time>
      </trkpt>
      <trkpt lat="45.19243" lon="5.96731">
        <ele>1925.6</ele>
        <time>2026-07-14T11:13:50Z</time>
      </trkpt>
      <trkpt lat="45.19243" lon="5.96731">
        <ele>1925.6</ele>
        <time>2026-07-14T11:13:51Z</time>
      </trkpt>
      <trkpt lat="45.19243" lon="5.96731">
        <ele>1925.6</ele>
        <time>2026-07-14T11:13:52Z</time>
      </trkpt>
      <trkpt lat="45.19243" lon="5.96731">
        <ele>1925.6</ele>
        <time>2026-07-14T11:13:53Z</time>
      </trkpt>
      <trkpt lat="45.19243" lon="5.96731">
        <ele>1925.6</ele>
        <time>2026-07-14T11:13:54Z</time>
      </trkpt>
      <trkpt lat="45.19243" lon="5.96731">
        <ele>1925.6</ele>
        <time>2026-07-14T11:13:55Z</time>
      </trkpt>
      <trkpt lat="45.19243" lon="5.96731">
        <ele>1925.6</ele>
        <time>2026-07-14T11:13:56Z</time>
      </trkpt>
      <trkpt lat="45.19243" lon="5.96731">
        <ele>1925.6</ele>
        <time>2026-07-14T11:13:57Z</time>
      </trkpt>
      <trkpt lat="45.19243" lon="5.96731">
        <ele>1925.6</ele>
        <time>2026-07-14T11:13:58Z</time>
      </trkpt>
      <trkpt lat="45.19243" lon="5.96731">
        <ele>1925.6</ele>
        <time>2026-07-14T11:13:59Z</time>
      </trkpt>
      <trkpt lat="45.19243" lon="5.96731">
        <ele>1925.6</ele>
        <time>2026-07-14T11:14:00Z</time>
      </trkpt>
      <trkpt lat="45.19243" lon="5.96731">
        <ele>1925.6</ele>
        <time>2026-07-14T11:14:01Z</time>
      </trkpt>
      <trkpt lat="45.19243" lon="5.96731">
        <ele>1925.6</ele>
        <time>2026-07-14T11:14:02Z</time>
      </trkpt>
      <trkpt lat="45.19243" lon="5.96731">
        <ele>1925.6</ele>
        <time>2026-07-14T11:14:03Z</time>
      </trkpt>
      <trkpt lat="45.19243" lon="5.96731">
        <ele>1925.6</ele>
        <time>2026-07-14T11:14:04Z</time>
      </trkpt>
      <trkpt lat="45.19243" lon="5.96731">
        <ele>1925.6</ele>
        <time>2026-07-14T11:14:05Z</time>
      </trkpt>
      <trkpt lat="45.19243" lon="5.96731">
        <ele>1925.6</ele>
        <time>2026-07-14T11:14:06Z</time>
      </trkpt>
      <trkpt lat="45.19243" lon="5.96731">
        <ele>1925.6</ele>
        <time>2026-07-14T11:14:07Z</time>
      </trkpt>
      <trkpt lat="45.19243" lon="5.96731">
        <ele>1925.6</ele>
        <time>2026-07-14T11:14:08Z</time>
      </trkpt>
      <trkpt lat="45.19243" lon="5.96731">
        <ele>1925.6</ele>
        <time>2026-07-14T11:14:09Z</time>
      </trkpt>
      <trkpt lat="45.19243" lon="5.96731">
        <ele>1925.6</ele>
        <time>2026-07-14T11:14:10Z</time>
      </trkpt>
      <trkpt lat="45.19243" lon="5.96731">
        <ele>1925.6</ele>
        <time>2026-07-14T11:14:11Z</time>
      </trkpt>
      <trkpt lat="45.19243" lon="5.96731">
        <ele>1925.6</ele>
        <time>2026-07-14T11:14:12Z</time>
      </trkpt>
      <trkpt lat="45.19243" lon="5.96731">
        <ele>1925.6</ele>
        <time>2026-07-14T11:14:13Z</time>
      </trkpt>
      <trkpt lat="45.19243" lon="5.96731">
        <ele>1925.6</ele>
        <time>2026-07-14T11:14:14Z</time>
      </trkpt>
      <trkpt lat="45.19243" lon="5.96731">
        <ele>1925.6</ele>
        <time>2026-07-14T11:14:15Z</time>
      </trkpt>
      <trkpt lat="45.19243" lon="5.96731">
        <ele>1925.6</ele>
        <time>2026-07-14T11:14:16Z</time>
      </trkpt>
      <trkpt lat="45.19243" lon="5.96731">
        <ele>1925.6</ele>
        <time>2026-07-14T11:14:17Z</time>
      </trkpt>
      <trkpt lat="45.19243" lon="5.96731">
        <ele>1925.6</ele>
        <time>2026-07-14T11:14:18Z</time>
      </trkpt>
      <trkpt lat="45.19243" lon="5.96731">
        <ele>1925.6</ele>
        <time>2026-07-14T11:14:19Z</time>
      </trkpt>
      <trkpt lat="45.19243" lon="5.96731">
        <ele>1925.6</ele>
        <time>2026-07-14T11:14:20Z</time>
      </trkpt>
      <trkpt lat="45.19243" lon="5.96731">
        <ele>1925.6</ele>
        <time>2026-07-14T11:14:21Z</time>
      </trkpt>
      <trkpt lat="45.19243" lon="5.96731">
        <ele>1925.6</ele>
        <time>2026-07-14T11:14:22Z</time>
      </trkpt>
      <trkpt lat="45.19243" lon="5.96731">
        <ele>1925.6</ele>
        <time>2026-07-14T11:14:23Z</time>
      </trkpt>
      <trkpt lat="45.19243" lon="5.96731">
        <ele>1925.6</ele>
        <time>2026-07-14T11:14:24Z</time>
      </trkpt>
      <trkpt lat="45.19243" lon="5.96731">
        <ele>1925.6</ele>
        <time>2026-07-14T11:14:25Z</time>
      </trkpt>
      <trkpt lat="45.19243" lon="5.96731">
        <ele>1925.6</ele>
        <time>2026-07-14T11:14:26Z</time>
      </trkpt>
      <trkpt lat="45.19243" lon="5.96731">
        <ele>1925.6</ele>
        <time>2026-07-14T11:14:27Z</time>
      </trkpt>
      <trkpt lat="45.19243" lon="5.96731">
        <ele>1925.6</ele>
        <time>2026-07-14T11:14:28Z</time>
      </trkpt>
      <trkpt lat="45.19243" lon="5.96731">
        <ele>1925.6</ele>
        <time>2026-07-14T11:14:29Z</time>
      </trkpt>
      <trkpt lat="45.19243" lon="5.96731">
        <ele>1925.6</ele>
        <time>2026-07-14T11:14:30Z</time>
      </trkpt>
      <trkpt lat="45.19243" lon="5.96731">
        <ele>1925.6</ele>
        <time>2026-07-14T11:14:31Z</time>
      </trkpt>
      <trkpt lat="45.19243" lon="5.96731">
        <ele>1925.6</ele>
        <time>2026-07-14T11:14:32Z</time>
      </trkpt>
      <trkpt lat="45.19243" lon="5.96731">
        <ele>1925.6</ele>
        <time>2026-07-14T11:14:33Z</time>
      </trkpt>
      <trkpt lat="45.19243" lon="5.96731">
        <ele>1925.6</ele>
        <time>2026-07-14T11:14:34Z</time>
      </trkpt>
      <trkpt lat="45.19243" lon="5.96731">
        <ele>1925.6</ele>
        <time>2026-07-14T11:14:35Z</time>
      </trkpt>
      <trkpt lat="45.19243" lon="5.96731">
        <ele>1925.6</ele>
        <time>2026-07-14T11:14:36Z</time>
      </trkpt>
      <trkpt lat="45.19243" lon="5.96731">
        <ele>1925.6</ele>
        <time>2026-07-14T11:14:37Z</time>
      </trkpt>
      <trkpt lat="45.19243" lon="5.96731">
        <ele>1925.6</ele>
        <time>2026-07-14T11:14:38Z</time>
      </trkpt>
      <trkpt lat="45.19243" lon="5.96731">
        <ele>1925.6</ele>
        <time>2026-07-14T11:14:39Z</time>
      </trkpt>
      <trkpt lat="45.19243" lon="5.96731">
        <ele>1925.6</ele>
        <time>2026-07-14T11:14:40Z</time>
      </trkpt>
      <trkpt lat="45.19243" lon="5.96731">
        <ele>1925.6</ele>
        <time>2026-07-14T11:14:41Z</time>
      </trkpt>
      <trkpt lat="45.19243" lon="5.96731">
        <ele>1925.6</ele>
        <time>2026-07-14T11:14:42Z</time>
      </trkpt>
      <trkpt lat="45.19243" lon="5.96731">
        <ele>1925.6</ele>
        <time>2026-07-14T11:14:43Z</time>
      </trkpt>
      <trkpt lat="45.19243" lon="5.96731">
        <ele>1925.6</ele>
        <time>2026-07-14T11:14:44Z</time>
      </trkpt>
      <trkpt lat="45.19243" lon="5.96731">
        <ele>1925.6</ele>
        <time>2026-07-14T11:14:45Z</time>
      </trkpt>
      <trkpt lat="45.19243" lon="5.96731">
        <ele>1925.6</ele>
        <time>2026-07-14T11:14:46Z</time>
      </trkpt>
      <trkpt lat="45.19243" lon="5.96731">
        <ele>1925.6</ele>
        <time>2026-07-14T11:14:47Z</time>
      </trkpt>
      <trkpt lat="45.19243" lon="5.96731">
        <ele>1925.6</ele>
        <time>2026-07-14T11:14:48Z</time>
      </trkpt>
      <trkpt lat="45.19243" lon="5.96731">
        <ele>1925.6</ele>
        <time>2026-07-14T11:14:49Z</time>
      </trkpt>
      <trkpt lat="45.19243" lon="5.96731">
        <ele>1925.6</ele>
        <time>2026-07-14T11:14:50Z</time>
      </trkpt>
      <trkpt lat="45.19243" lon="5.96731">
        <ele>1925.6</ele>
        <time>2026-07-14T11:14:51Z</time>
      </trkpt>
      <trkpt lat="45.19243" lon="5.96731">
        <ele>1925.6</ele>
        <time>2026-07-14T11:14:52Z</time>
      </trkpt>
      <trkpt lat="45.19243" lon="5.96731">
        <ele>1925.6</ele>
        <time>2026-07-14T11:14:53Z</time>
      </trkpt>
      <trkpt lat="45.19243" lon="5.96731">
        <ele>1925.6</ele>
        <time>2026-07-14T11:14:54Z</time>
      </trkpt>
      <trkpt lat="45.19243" lon="5.96731">
        <ele>1925.6</ele>
        <time>2026-07-14T11:14:55Z</time>
      </trkpt>
      <trkpt lat="45.19243" lon="5.96731">
        <ele>1925.6</ele>
        <time>2026-07-14T11:14:56Z</time>
      </trkpt>
      <trkpt lat="45.19243" lon="5.96731">
        <ele>1925.6</ele>
        <time>2026-07-14T11:14:57Z</time>
      </trkpt>
      <trkpt lat="45.19243" lon="5.96731">
        <ele>1925.6</ele>
        <time>2026-07-14T11:14:58Z</time>
      </trkpt>
      <trkpt lat="45.19243" lon="5.96731">
        <ele>1925.6</ele>
        <time>2026-07-14T11:14:59Z</time>
      </trkpt>
      <trkpt lat="45.19243" lon="5.96731">
        <ele>1925.6</ele>
        <time>2026-07-14T11:15:00Z</time>
      </trkpt>
      <trkpt lat="45.19243" lon="5.96731">
        <ele>1925.6</ele>
        <time>2026-07-14T11:15:01Z</time>
      </trkpt>
      <trkpt lat="45.19243" lon="5.96731">
        <ele>1925.6</ele>
        <time>2026-07-14T11:15:02Z</time>
      </trkpt>
      <trkpt lat="45.19243" lon="5.96731">
        <ele>1925.6</ele>
        <time>2026-07-14T11:15:03Z</time>
      </trkpt>
      <trkpt lat="45.19243" lon="5.96731">
        <ele>1925.6</ele>
        <time>2026-07-14T11:15:04Z</time>
      </trkpt>
      <trkpt lat="45.19243" lon="5.96731">
        <ele>1925.6</ele>
        <time>2026-07-14T11:15:05Z</time>
      </trkpt>
      <trkpt lat="45.19243" lon="5.96731">
        <ele>1925.6</ele>
        <time>2026-07-14T11:15:06Z</time>
      </trkpt>
      <trkpt lat="45.19243" lon="5.96731">
        <ele>1925.6</ele>
        <time>2026-07-14T11:15:07Z</time>
      </trkpt>
      <trkpt lat="45.19243" lon="5.96731">
        <ele>1925.6</ele>
        <time>2026-07-14T11:15:08Z</time>
      </trkpt>
      <trkpt lat="45.19243" lon="5.96731">
        <ele>1925.6</ele>
        <time>2026-07-14T11:15:09Z</time>
      </trkpt>
      <trkpt lat="45.19243" lon="5.96731">
        <ele>1925.6</ele>
        <time>2026-07-14T11:15:10Z</time>
      </trkpt>
      <trkpt lat="45.19243" lon="5.96731">
        <ele>1925.6</ele>
        <time>2026-07-14T11:15:11Z</time>
      </trkpt>
      <trkpt lat="45.19243" lon="5.96731">
        <ele>1925.6</ele>
        <time>2026-07-14T11:15:12Z</time>
      </trkpt>
      <trkpt lat="45.19243" lon="5.96731">
        <ele>1925.6</ele>
        <time>2026-07-14T11:15:13Z</time>
      </trkpt>
      <trkpt lat="45.19243" lon="5.96731">
        <ele>1925.6</ele>
        <time>2026-07-14T11:15:14Z</time>
      </trkpt>
      <trkpt lat="45.19243" lon="5.96731">
        <ele>1925.6</ele>
        <time>2026-07-14T11:15:15Z</time>
      </trkpt>
      <trkpt lat="45.19243" lon="5.96731">
        <ele>1925.6</ele>
        <time>2026-07-14T11:15:16Z</time>
      </trkpt>
      <trkpt lat="45.19243" lon="5.96731">
        <ele>1925.6</ele>
        <time>2026-07-14T11:15:17Z</time>
      </trkpt>
      <trkpt lat="45.19243" lon="5.96731">
        <ele>1925.6</ele>
        <time>2026-07-14T11:15:18Z</time>
      </trkpt>
      <trkpt lat="45.19243" lon="5.96731">
        <ele>1925.6</ele>
        <time>2026-07-14T11:15:19Z</time>
      </trkpt>
      <trkpt lat="45.19243" lon="5.96731">
        <ele>1925.6</ele>
        <time>2026-07-14T11:15:20Z</time>
      </trkpt>
      <trkpt lat="45.19243" lon="5.96731">
        <ele>1925.6</ele>
        <time>2026-07-14T11:15:21Z</time>
      </trkpt>
      <trkpt lat="45.19243" lon="5.96731">
        <ele>1925.6</ele>
        <time>2026-07-14T11:15:22Z</time>
      </trkpt>
      <trkpt lat="45.19243" lon="5.96731">
        <ele>1925.6</ele>
        <time>2026-07-14T11:15:23Z</time>
      </trkpt>
      <trkpt lat="45.19243" lon="5.96731">
        <ele>1925.6</ele>
        <time>2026-07-14T11:15:24Z</time>
      </trkpt>
      <trkpt lat="45.19243" lon="5.96731">
        <ele>1925.6</ele>
        <time>2026-07-14T11:15:25Z</time>
      </trkpt>
      <trkpt lat="45.19243" lon="5.96731">
        <ele>1925.6</ele>
        <time>2026-07-14T11:15:26Z</time>
      </trkpt>
      <trkpt lat="45.19243" lon="5.96731">
        <ele>1925.6</ele>
        <time>2026-07-14T11:15:27Z</time>
      </trkpt>
      <trkpt lat="45.19243" lon="5.96731">
        <ele>1925.6</ele>
        <time>2026-07-14T11:15:28Z</time>
      </trkpt>
      <trkpt lat="45.19243" lon="5.96731">
        <ele>1925.6</ele>
        <time>2026-07-14T11:15:29Z</time>
      </trkpt>
      <trkpt lat="45.19243" lon="5.96731">
        <ele>1925.6</ele>
        <time>2026-07-14T11:15:30Z</time>
      </trkpt>
      <trkpt lat="45.19243" lon="5.96731">
        <ele>1925.6</ele>
        <time>2026-07-14T11:15:31Z</time>
      </trkpt>
      <trkpt lat="45.19243" lon="5.96731">
        <ele>1925.6</ele>
        <time>2026-07-14T11:15:32Z</time>
      </trkpt>
      <trkpt lat="45.19243" lon="5.96731">
        <ele>1925.6</ele>
        <time>2026-07-14T11:15:33Z</time>
      </trkpt>
      <trkpt lat="45.19243" lon="5.96731">
        <ele>1925.6</ele>
        <time>2026-07-14T11:15:34Z</time>
      </trkpt>
      <trkpt lat="45.19243" lon="5.96731">
        <ele>1925.6</ele>
        <time>2026-07-14T11:15:35Z</time>
      </trkpt>
      <trkpt lat="45.19243" lon="5.96731">
        <ele>1925.6</ele>
        <time>2026-07-14T11:15:36Z</time>
      </trkpt>
      <trkpt lat="45.19243" lon="5.96731">
        <ele>1925.6</ele>
        <time>2026-07-14T11:15:37Z</time>
      </trkpt>
      <trkpt lat="45.19243" lon="5.96731">
        <ele>1925.6</ele>
        <time>2026-07-14T11:15:38Z</time>
      </trkpt>
      <trkpt lat="45.19243" lon="5.96731">
        <ele>1925.6</ele>
        <time>2026-07-14T11:15:39Z</time>
      </trkpt>
      <trkpt lat="45.19243" lon="5.96731">
        <ele>1925.6</ele>
        <time>2026-07-14T11:15:40Z</time>
      </trkpt>
      <trkpt lat="45.19243" lon="5.96731">
        <ele>1925.6</ele>
        <time>2026-07-14T11:15:41Z</time>
      </trkpt>
      <trkpt lat="45.19243" lon="5.96731">
        <ele>1925.6</ele>
        <time>2026-07-14T11:15:42Z</time>
      </trkpt>
      <trkpt lat="45.19243" lon="5.96731">
        <ele>1925.6</ele>
        <time>2026-07-14T11:15:43Z</time>
      </trkpt>
      <trkpt lat="45.19243" lon="5.96731">
        <ele>1925.6</ele>
        <time>2026-07-14T11:15:44Z</time>
      </trkpt>
      <trkpt lat="45.19243" lon="5.96731">
        <ele>1925.6</ele>
        <time>2026-07-14T11:15:45Z</time>
      </trkpt>
      <trkpt lat="45.19243" lon="5.96731">
        <ele>1925.6</ele>
        <time>2026-07-14T11:15:46Z</time>
      </trkpt>
      <trkpt lat="45.19243" lon="5.96731">
        <ele>1925.6</ele>
        <time>2026-07-14T11:15:47Z</time>
      </trkpt>
      <trkpt lat="45.19243" lon="5.96731">
        <ele>1925.6</ele>
        <time>2026-07-14T11:15:48Z</time>
      </trkpt>
      <trkpt lat="45.19243" lon="5.96731">
        <ele>1925.6</ele>
        <time>2026-07-14T11:15:49Z</time>
      </trkpt>
      <trkpt lat="45.19243" lon="5.96731">
        <ele>1925.6</ele>
        <time>2026-07-14T11:15:50Z</time>
      </trkpt>
      <trkpt lat="45.19243" lon="5.96731">
        <ele>1925.6</ele>
        <time>2026-07-14T11:15:51Z</time>
      </trkpt>
      <trkpt lat="45.19243" lon="5.96731">
        <ele>1925.6</ele>
        <time>2026-07-14T11:15:52Z</time>
      </trkpt>
      <trkpt lat="45.19243" lon="5.96731">
        <ele>1925.6</ele>
        <time>2026-07-14T11:15:53Z</time>
      </trkpt>
      <trkpt lat="45.19243" lon="5.96731">
        <ele>1925.6</ele>
        <time>2026-07-14T11:15:54Z</time>
      </trkpt>
      <trkpt lat="45.19243" lon="5.96731">
        <ele>1925.6</ele>
        <time>2026-07-14T11:15:55Z</time>
      </trkpt>
      <trkpt lat="45.19243" lon="5.96731">
        <ele>1925.6</ele>
        <time>2026-07-14T11:15:56Z</time>
      </trkpt>
      <trkpt lat="45.19243" lon="5.96731">
        <ele>1925.6</ele>
        <time>2026-07-14T11:15:57Z</time>
      </trkpt>
      <trkpt lat="45.19243" lon="5.96731">
        <ele>1925.6</ele>
        <time>2026-07-14T11:15:58Z</time>
      </trkpt>
      <trkpt lat="45.19243" lon="5.96731">
        <ele>1925.6</ele>
        <time>2026-07-14T11:15:59Z</time>
      </trkpt>
      <trkpt lat="45.19243" lon="5.96731">
        <ele>1925.6</ele>
        <time>2026-07-14T11:16:00Z</time>
      </trkpt>
      <trkpt lat="45.19243" lon="5.96731">
        <ele>1925.6</ele>
        <time>2026-07-14T11:16:01Z</time>
      </trkpt>
      <trkpt lat="45.19243" lon="5.96731">
        <ele>1925.6</ele>
        <time>2026-07-14T11:16:02Z</time>
      </trkpt>
      <trkpt lat="45.19243" lon="5.96731">
        <ele>1925.6</ele>
        <time>2026-07-14T11:16:03Z</time>
      </trkpt>
      <trkpt lat="45.19243" lon="5.96731">
        <ele>1925.6</ele>
        <time>2026-07-14T11:16:04Z</time>
      </trkpt>
      <trkpt lat="45.19243" lon="5.96731">
        <ele>1925.6</ele>
        <time>2026-07-14T11:16:05Z</time>
      </trkpt>
      <trkpt lat="45.19243" lon="5.96731">
        <ele>1925.6</ele>
        <time>2026-07-14T11:16:06Z</time>
      </trkpt>
      <trkpt lat="45.19243" lon="5.96731">
        <ele>1925.6</ele>
        <time>2026-07-14T11:16:07Z</time>
      </trkpt>
      <trkpt lat="45.19243" lon="5.96731">
        <ele>1925.6</ele>
        <time>2026-07-14T11:16:08Z</time>
      </trkpt>
      <trkpt lat="45.19243" lon="5.96731">
        <ele>1925.6</ele>
        <time>2026-07-14T11:16:09Z</time>
      </trkpt>
      <trkpt lat="45.19243" lon="5.96731">
        <ele>1925.6</ele>
        <time>2026-07-14T11:16:10Z</time>
      </trkpt>
      <trkpt lat="45.19243" lon="5.96731">
        <ele>1925.6</ele>
        <time>2026-07-14T11:16:11Z</time>
      </trkpt>
      <trkpt lat="45.19243" lon="5.96731">
        <ele>1925.6</ele>
        <time>2026-07-14T11:16:12Z</time>
      </trkpt>
      <trkpt lat="45.19243" lon="5.96731">
        <ele>1925.6</ele>
        <time>2026-07-14T11:16:13Z</time>
      </trkpt>
      <trkpt lat="45.19243" lon="5.96731">
        <ele>1925.6</ele>
        <time>2026-07-14T11:16:14Z</time>
      </trkpt>
      <trkpt lat="45.19243" lon="5.96731">
        <ele>1925.6</ele>
        <time>2026-07-14T11:16:15Z</time>
      </trkpt>
      <trkpt lat="45.19243" lon="5.96731">
        <ele>1925.6</ele>
        <time>2026-07-14T11:16:16Z</time>
      </trkpt>
      <trkpt lat="45.19243" lon="5.96731">
        <ele>1925.6</ele>
        <time>2026-07-14T11:16:17Z</time>
      </trkpt>
      <trkpt lat="45.19243" lon="5.96731">
        <ele>1925.6</ele>
        <time>2026-07-14T11:16:18Z</time>
      </trkpt>
      <trkpt lat="45.19243" lon="5.96731">
        <ele>1925.6</ele>
        <time>2026-07-14T11:16:19Z</time>
      </trkpt>
      <trkpt lat="45.19243" lon="5.96731">
        <ele>1925.6</ele>
        <time>2026-07-14T11:16:20Z</time>
      </trkpt>
      <trkpt lat="45.19243" lon="5.96731">
        <ele>1925.6</ele>
        <time>2026-07-14T11:16:21Z</time>
      </trkpt>
      <trkpt lat="45.19243" lon="5.96731">
        <ele>1925.6</ele>
        <time>2026-07-14T11:16:22Z</time>
      </trkpt>
      <trkpt lat="45.19243" lon="5.96731">
        <ele>1925.6</ele>
        <time>2026-07-14T11:16:23Z</time>
      </trkpt>
      <trkpt lat="45.19243" lon="5.96731">
        <ele>1925.6</ele>
        <time>2026-07-14T11:16:24Z</time>
      </trkpt>
      <trkpt lat="45.19243" lon="5.96731">
        <ele>1925.6</ele>
        <time>2026-07-14T11:16:25Z</time>
      </trkpt>
      <trkpt lat="45.19243" lon="5.96731">
        <ele>1925.6</ele>
        <time>2026-07-14T11:16:26Z</time>
      </trkpt>
      <trkpt lat="45.19243" lon="5.96731">
        <ele>1925.6</ele>
        <time>2026-07-14T11:16:27Z</time>
      </trkpt>
      <trkpt lat="45.19243" lon="5.96731">
        <ele>1925.6</ele>
        <time>2026-07-14T11:16:28Z</time>
      </trkpt>
      <trkpt lat="45.19243" lon="5.96731">
        <ele>1925.6</ele>
        <time>2026-07-14T11:16:29Z</time>
      </trkpt>
      <trkpt lat="45.19243" lon="5.96731">
        <ele>1925.6</ele>
        <time>2026-07-14T11:16:30Z</time>
      </trkpt>
      <trkpt lat="45.19243" lon="5.96731">
        <ele>1925.6</ele>
        <time>2026-07-14T11:16:31Z</time>
      </trkpt>
      <trkpt lat="45.19243" lon="5.96731">
        <ele>1925.6</ele>
        <time>2026-07-14T11:16:32Z</time>
      </trkpt>
      <trkpt lat="45.19243" lon="5.96731">
        <ele>1925.6</ele>
        <time>2026-07-14T11:16:33Z</time>
      </trkpt>
      <trkpt lat="45.19243" lon="5.96731">
        <ele>1925.6</ele>
        <time>2026-07-14T11:16:34Z</time>
      </trkpt>
      <trkpt lat="45.19243" lon="5.96731">
        <ele>1925.6</ele>
        <time>2026-07-14T11:16:35Z</time>
      </trkpt>
      <trkpt lat="45.19243" lon="5.96731">
        <ele>1925.6</ele>
        <time>2026-07-14T11:16:36Z</time>
      </trkpt>
      <trkpt lat="45.19243" lon="5.96731">
        <ele>1925.6</ele>
        <time>2026-07-14T11:16:37Z</time>
      </trkpt>
      <trkpt lat="45.19243" lon="5.96731">
        <ele>1925.6</ele>
        <time>2026-07-14T11:16:38Z</time>
      </trkpt>
      <trkpt lat="45.19243" lon="5.96731">
        <ele>1925.6</ele>
        <time>2026-07-14T11:16:39Z</time>
      </trkpt>
      <trkpt lat="45.19243" lon="5.96731">
        <ele>1925.6</ele>
        <time>2026-07-14T11:16:40Z</time>
      </trkpt>
      <trkpt lat="45.19243" lon="5.96731">
        <ele>1925.6</ele>
        <time>2026-07-14T11:16:41Z</time>
      </trkpt>
      <trkpt lat="45.19243" lon="5.96731">
        <ele>1925.6</ele>
        <time>2026-07-14T11:16:42Z</time>
      </trkpt>
      <trkpt lat="45.19243" lon="5.96731">
        <ele>1925.6</ele>
        <time>2026-07-14T11:16:43Z</time>
      </trkpt>
      <trkpt lat="45.19243" lon="5.96731">
        <ele>1925.6</ele>
        <time>2026-07-14T11:16:44Z</time>
      </trkpt>
      <trkpt lat="45.19243" lon="5.96731">
        <ele>1925.6</ele>
        <time>2026-07-14T11:16:45Z</time>
      </trkpt>
      <trkpt lat="45.19243" lon="5.96731">
        <ele>1925.6</ele>
        <time>2026-07-14T11:16:46Z</time>
      </trkpt>
      <trkpt lat="45.19243" lon="5.96731">
        <ele>1925.6</ele>
        <time>2026-07-14T11:16:47Z</time>
      </trkpt>
      <trkpt lat="45.19243" lon="5.96731">
        <ele>1925.6</ele>
        <time>2026-07-14T11:16:48Z</time>
      </trkpt>
      <trkpt lat="45.19243" lon="5.96731">
        <ele>1925.6</ele>
        <time>2026-07-14T11:16:49Z</time>
      </trkpt>
      <trkpt lat="45.19243" lon="5.96731">
        <ele>1925.6</ele>
        <time>2026-07-14T11:16:50Z</time>
      </trkpt>
      <trkpt lat="45.19243" lon="5.96731">
        <ele>1925.6</ele>
        <time>2026-07-14T11:16:51Z</time>
      </trkpt>
      <trkpt lat="45.19243" lon="5.96731">
        <ele>1925.6</ele>
        <time>2026-07-14T11:16:52Z</time>
      </trkpt>
      <trkpt lat="45.19243" lon="5.96731">
        <ele>1925.6</ele>
        <time>2026-07-14T11:16:53Z</time>
      </trkpt>
      <trkpt lat="45.19243" lon="5.96731">
        <ele>1925.6</ele>
        <time>2026-07-14T11:16:54Z</time>
      </trkpt>
      <trkpt lat="45.19243" lon="5.96731">
        <ele>1925.6</ele>
        <time>2026-07-14T11:16:55Z</time>
      </trkpt>
      <trkpt lat="45.19243" lon="5.96731">
        <ele>1925.6</ele>
        <time>2026-07-14T11:16:56Z</time>
      </trkpt>
      <trkpt lat="45.19243" lon="5.96731">
        <ele>1925.6</ele>
        <time>2026-07-14T11:16:57Z</time>
      </trkpt>
      <trkpt lat="45.19243" lon="5.96731">
        <ele>1925.6</ele>
        <time>2026-07-14T11:16:58Z</time>
      </trkpt>
      <trkpt lat="45.19243" lon="5.96731">
        <ele>1925.6</ele>
        <time>2026-07-14T11:16:59Z</time>
      </trkpt>
      <trkpt lat="45.19243" lon="5.96731">
        <ele>1925.6</ele>
        <time>2026-07-14T11:17:00Z</time>
      </trkpt>
      <trkpt lat="45.19243" lon="5.96731">
        <ele>1925.6</ele>
        <time>2026-07-14T11:17:01Z</time>
      </trkpt>
      <trkpt lat="45.19243" lon="5.96731">
        <ele>1925.6</ele>
        <time>2026-07-14T11:17:02Z</time>
      </trkpt>
      <trkpt lat="45.19243" lon="5.96731">
        <ele>1925.6</ele>
        <time>2026-07-14T11:17:03Z</time>
      </trkpt>
      <trkpt lat="45.19243" lon="5.96731">
        <ele>1925.6</ele>
        <time>2026-07-14T11:17:04Z</time>
      </trkpt>
      <trkpt lat="45.19243" lon="5.96731">
        <ele>1925.6</ele>
        <time>2026-07-14T11:17:05Z</time>
      </trkpt>
      <trkpt lat="45.19243" lon="5.96731">
        <ele>1925.6</ele>
        <time>2026-07-14T11:17:06Z</time>
      </trkpt>
      <trkpt lat="45.19243" lon="5.96731">
        <ele>1925.6</ele>
        <time>2026-07-14T11:17:07Z</time>
      </trkpt>
      <trkpt lat="45.19243" lon="5.96731">
        <ele>1925.6</ele>
        <time>2026-07-14T11:17:08Z</time>
      </trkpt>
      <trkpt lat="45.19243" lon="5.96731">
        <ele>1925.6</ele>
        <time>2026-07-14T11:17:09Z</time>
      </trkpt>
      <trkpt lat="45.19243" lon="5.96731">
        <ele>1925.6</ele>
        <time>2026-07-14T11:17:10Z</time>
      </trkpt>
      <trkpt lat="45.19243" lon="5.96731">
        <ele>1925.6</ele>
        <time>2026-07-14T11:17:11Z</time>
      </trkpt>
      <trkpt lat="45.19243" lon="5.96731">
        <ele>1925.6</ele>
        <time>2026-07-14T11:17:12Z</time>
      </trkpt>
      <trkpt lat="45.19243" lon="5.96731">
        <ele>1925.6</ele>
        <time>2026-07-14T11:17:13Z</time>
      </trkpt>
      <trkpt lat="45.19243" lon="5.96731">
        <ele>1925.6</ele>
        <time>2026-07-14T11:17:14Z</time>
      </trkpt>
      <trkpt lat="45.19243" lon="5.96731">
        <ele>1925.6</ele>
        <time>2026-07-14T11:17:15Z</time>
      </trkpt>
      <trkpt lat="45.19243" lon="5.96731">
        <ele>1925.6</ele>
        <time>2026-07-14T11:17:16Z</time>
      </trkpt>
      <trkpt lat="45.19243" lon="5.96731">
        <ele>1925.6</ele>
        <time>2026-07-14T11:17:17Z</time>
      </trkpt>
      <trkpt lat="45.19243" lon="5.96731">
        <ele>1925.6</ele>
        <time>2026-07-14T11:17:18Z</time>
      </trkpt>
      <trkpt lat="45.19243" lon="5.96731">
        <ele>1925.6</ele>
        <time>2026-07-14T11:17:19Z</time>
      </trkpt>
      <trkpt lat="45.19243" lon="5.96731">
        <ele>1925.6</ele>
        <time>2026-07-14T11:17:20Z</time>
      </trkpt>
      <trkpt lat="45.19243" lon="5.96731">
        <ele>1925.6</ele>
        <time>2026-07-14T11:17:21Z</time>
      </trkpt>
      <trkpt lat="45.19243" lon="5.96731">
        <ele>1925.6</ele>
        <time>2026-07-14T11:17:22Z</time>
      </trkpt>
      <trkpt lat="45.19243" lon="5.96731">
        <ele>1925.6</ele>
        <time>2026-07-14T11:17:23Z</time>
      </trkpt>
      <trkpt lat="45.19243" lon="5.96731">
        <ele>1925.6</ele>
        <time>2026-07-14T11:17:24Z</time>
      </trkpt>
      <trkpt lat="45.19243" lon="5.96731">
        <ele>1925.6</ele>
        <time>2026-07-14T11:17:25Z</time>
      </trkpt>
      <trkpt lat="45.19243" lon="5.96731">
        <ele>1925.6</ele>
        <time>2026-07-14T11:17:26Z</time>
      </trkpt>
      <trkpt lat="45.19243" lon="5.96731">
        <ele>1925.6</ele>
        <time>2026-07-14T11:17:27Z</time>
      </trkpt>
      <trkpt lat="45.19243" lon="5.96731">
        <ele>1925.6</ele>
        <time>2026-07-14T11:17:28Z</time>
      </trkpt>
      <trkpt lat="45.19243" lon="5.96731">
        <ele>1925.6</ele>
        <time>2026-07-14T11:17:29Z</time>
      </trkpt>
      <trkpt lat="45.19243" lon="5.96731">
        <ele>1925.6</ele>
        <time>2026-07-14T11:17:30Z</time>
      </trkpt>
      <trkpt lat="45.19243" lon="5.96731">
        <ele>1925.6</ele>
        <time>2026-07-14T11:17:31Z</time>
      </trkpt>
      <trkpt lat="45.19243" lon="5.96731">
        <ele>1925.6</ele>
        <time>2026-07-14T11:17:32Z</time>
      </trkpt>
      <trkpt lat="45.19243" lon="5.96731">
        <ele>1925.6</ele>
        <time>2026-07-14T11:17:33Z</time>
      </trkpt>
      <trkpt lat="45.19243" lon="5.96731">
        <ele>1925.6</ele>
        <time>2026-07-14T11:17:34Z</time>
      </trkpt>
      <trkpt lat="45.19243" lon="5.96731">
        <ele>1925.6</ele>
        <time>2026-07-14T11:17:35Z</time>
      </trkpt>
      <trkpt lat="45.19243" lon="5.96731">
        <ele>1925.6</ele>
        <time>2026-07-14T11:17:36Z</time>
      </trkpt>
      <trkpt lat="45.19243" lon="5.96731">
        <ele>1925.6</ele>
        <time>2026-07-14T11:17:37Z</time>
      </trkpt>
      <trkpt lat="45.19243" lon="5.96731">
        <ele>1925.6</ele>
        <time>2026-07-14T11:17:38Z</time>
      </trkpt>
      <trkpt lat="45.19243" lon="5.96731">
        <ele>1925.6</ele>
        <time>2026-07-14T11:17:39Z</time>
      </trkpt>
      <trkpt lat="45.19243" lon="5.96731">
        <ele>1925.6</ele>
        <time>2026-07-14T11:17:40Z</time>
      </trkpt>
      <trkpt lat="45.19243" lon="5.96731">
        <ele>1925.6</ele>
        <time>2026-07-14T11:17:41Z</time>
      </trkpt>
      <trkpt lat="45.19243" lon="5.96731">
        <ele>1925.6</ele>
        <time>2026-07-14T11:17:42Z</time>
      </trkpt>
      <trkpt lat="45.19243" lon="5.96731">
        <ele>1925.6</ele>
        <time>2026-07-14T11:17:43Z</time>
      </trkpt>
      <trkpt lat="45.19243" lon="5.96731">
        <ele>1925.6</ele>
        <time>2026-07-14T11:17:44Z</time>
      </trkpt>
      <trkpt lat="45.19243" lon="5.96731">
        <ele>1925.6</ele>
        <time>2026-07-14T11:17:45Z</time>
      </trkpt>
      <trkpt lat="45.19243" lon="5.96731">
        <ele>1925.6</ele>
        <time>2026-07-14T11:17:46Z</time>
      </trkpt>
      <trkpt lat="45.19243" lon="5.96731">
        <ele>1925.6</ele>
        <time>2026-07-14T11:17:47Z</time>
      </trkpt>
      <trkpt lat="45.19243" lon="5.96731">
        <ele>1925.6</ele>
        <time>2026-07-14T11:17:48Z</time>
      </trkpt>
      <trkpt lat="45.19243" lon="5.96731">
        <ele>1925.6</ele>
        <time>2026-07-14T11:17:49Z</time>
      </trkpt>
      <trkpt lat="45.19243" lon="5.96731">
        <ele>1925.6</ele>
        <time>2026-07-14T11:17:50Z</time>
      </trkpt>
      <trkpt lat="45.19243" lon="5.96731">
        <ele>1925.6</ele>
        <time>2026-07-14T11:17:51Z</time>
      </trkpt>
      <trkpt lat="45.19243" lon="5.96731">
        <ele>1925.6</ele>
        <time>2026-07-14T11:17:52Z</time>
      </trkpt>
      <trkpt lat="45.19243" lon="5.96731">
        <ele>1925.6</ele>
        <time>2026-07-14T11:17:53Z</time>
      </trkpt>
      <trkpt lat="45.19243" lon="5.96731">
        <ele>1925.6</ele>
        <time>2026-07-14T11:17:54Z</time>
      </trkpt>
      <trkpt lat="45.19243" lon="5.96731">
        <ele>1925.6</ele>
        <time>2026-07-14T11:17:55Z</time>
      </trkpt>
      <trkpt lat="45.19243" lon="5.96731">
        <ele>1925.6</ele>
        <time>2026-07-14T11:17:56Z</time>
      </trkpt>
      <trkpt lat="45.19243" lon="5.96731">
        <ele>1925.6</ele>
        <time>2026-07-14T11:17:57Z</time>
      </trkpt>
      <trkpt lat="45.19243" lon="5.96731">
        <ele>1925.6</ele>
        <time>2026-07-14T11:17:58Z</time>
      </trkpt>
      <trkpt lat="45.19243" lon="5.96731">
        <ele>1925.6</ele>
        <time>2026-07-14T11:17:59Z</time>
      </trkpt>
      <trkpt lat="45.19243" lon="5.96731">
        <ele>1925.6</ele>
        <time>2026-07-14T11:18:00Z</time>
      </trkpt>
      <trkpt lat="45.19243" lon="5.96731">
        <ele>1925.6</ele>
        <time>2026-07-14T11:18:01Z</time>
      </trkpt>
      <trkpt lat="45.19243" lon="5.96731">
        <ele>1925.6</ele>
        <time>2026-07-14T11:18:02Z</time>
      </trkpt>
      <trkpt lat="45.19243" lon="5.96731">
        <ele>1925.6</ele>
        <time>2026-07-14T11:18:03Z</time>
      </trkpt>
      <trkpt lat="45.19243" lon="5.96731">
        <ele>1925.6</ele>
        <time>2026-07-14T11:18:04Z</time>
      </trkpt>
      <trkpt lat="45.19243" lon="5.96731">
        <ele>1925.6</ele>
        <time>2026-07-14T11:18:05Z</time>
      </trkpt>
      <trkpt lat="45.19243" lon="5.96731">
        <ele>1925.6</ele>
        <time>2026-07-14T11:18:06Z</time>
      </trkpt>
      <trkpt lat="45.19243" lon="5.96731">
        <ele>1925.6</ele>
        <time>2026-07-14T11:18:07Z</time>
      </trkpt>
      <trkpt lat="45.19243" lon="5.96731">
        <ele>1925.6</ele>
        <time>2026-07-14T11:18:08Z</time>
      </trkpt>
      <trkpt lat="45.19243" lon="5.96731">
        <ele>1925.6</ele>
        <time>2026-07-14T11:18:09Z</time>
      </trkpt>
      <trkpt lat="45.19243" lon="5.96731">
        <ele>1925.6</ele>
        <time>2026-07-14T11:18:10Z</time>
      </trkpt>
      <trkpt lat="45.19243" lon="5.96731">
        <ele>1925.6</ele>
        <time>2026-07-14T11:18:11Z</time>
      </trkpt>
      <trkpt lat="45.19243" lon="5.96731">
        <ele>1925.6</ele>
        <time>2026-07-14T11:18:12Z</time>
      </trkpt>
      <trkpt lat="45.19243" lon="5.96731">
        <ele>1925.6</ele>
        <time>2026-07-14T11:18:13Z</time>
      </trkpt>
      <trkpt lat="45.19243" lon="5.96731">
        <ele>1925.6</ele>
        <time>2026-07-14T11:18:14Z</time>
      </trkpt>
      <trkpt lat="45.19243" lon="5.96731">
        <ele>1925.6</ele>
        <time>2026-07-14T11:18:15Z</time>
      </trkpt>
      <trkpt lat="45.19243" lon="5.96731">
        <ele>1925.6</ele>
        <time>2026-07-14T11:18:16Z</time>
      </trkpt>
      <trkpt lat="45.19243" lon="5.96731">
        <ele>1925.6</ele>
        <time>2026-07-14T11:18:17Z</time>
      </trkpt>
      <trkpt lat="45.19243" lon="5.96731">
        <ele>1925.6</ele>
        <time>2026-07-14T11:18:18Z</time>
      </trkpt>
      <trkpt lat="45.19243" lon="5.96731">
        <ele>1925.6</ele>
        <time>2026-07-14T11:18:19Z</time>
      </trkpt>
      <trkpt lat="45.19243" lon="5.96731">
        <ele>1925.6</ele>
        <time>2026-07-14T11:18:20Z</time>
      </trkpt>
      <trkpt lat="45.19243" lon="5.96731">
        <ele>1925.6</ele>
        <time>2026-07-14T11:18:21Z</time>
      </trkpt>
      <trkpt lat="45.19243" lon="5.96731">
        <ele>1925.6</ele>
        <time>2026-07-14T11:18:22Z</time>
      </trkpt>
      <trkpt lat="45.19243" lon="5.96731">
        <ele>1925.6</ele>
        <time>2026-07-14T11:18:23Z</time>
      </trkpt>
      <trkpt lat="45.19243" lon="5.96731">
        <ele>1925.6</ele>
        <time>2026-07-14T11:18:24Z</time>
      </trkpt>
      <trkpt lat="45.19243" lon="5.96731">
        <ele>1925.6</ele>
        <time>2026-07-14T11:18:25Z</time>
      </trkpt>
      <trkpt lat="45.19243" lon="5.96731">
        <ele>1925.6</ele>
        <time>2026-07-14T11:18:26Z</time>
      </trkpt>
      <trkpt lat="45.19243" lon="5.96731">
        <ele>1925.6</ele>
        <time>2026-07-14T11:18:27Z</time>
      </trkpt>
      <trkpt lat="45.19243" lon="5.96731">
        <ele>1925.6</ele>
        <time>2026-07-14T11:18:28Z</time>
      </trkpt>
      <trkpt lat="45.19243" lon="5.96731">
        <ele>1925.6</ele>
        <time>2026-07-14T11:18:29Z</time>
      </trkpt>
      <trkpt lat="45.19243" lon="5.96731">
        <ele>1925.6</ele>
        <time>2026-07-14T11:18:30Z</time>
      </trkpt>
      <trkpt lat="45.19243" lon="5.96731">
        <ele>1925.6</ele>
        <time>2026-07-14T11:18:31Z</time>
      </trkpt>
      <trkpt lat="45.19243" lon="5.96731">
        <ele>1925.6</ele>
        <time>2026-07-14T11:18:32Z</time>
      </trkpt>
      <trkpt lat="45.19243" lon="5.96731">
        <ele>1925.6</ele>
        <time>2026-07-14T11:18:33Z</time>
      </trkpt>
      <trkpt lat="45.19243" lon="5.96731">
        <ele>1925.6</ele>
        <time>2026-07-14T11:18:34Z</time>
      </trkpt>
      <trkpt lat="45.19243" lon="5.96731">
        <ele>1925.6</ele>
        <time>2026-07-14T11:18:35Z</time>
      </trkpt>
      <trkpt lat="45.19243" lon="5.96731">
        <ele>1925.6</ele>
        <time>2026-07-14T11:18:36Z</time>
      </trkpt>
      <trkpt lat="45.19243" lon="5.96731">
        <ele>1925.6</ele>
        <time>2026-07-14T11:18:37Z</time>
      </trkpt>
      <trkpt lat="45.19243" lon="5.96731">
        <ele>1925.6</ele>
        <time>2026-07-14T11:18:38Z</time>
      </trkpt>
      <trkpt lat="45.19243" lon="5.96731">
        <ele>1925.6</ele>
        <time>2026-07-14T11:18:39Z</time>
      </trkpt>
      <trkpt lat="45.19243" lon="5.96731">
        <ele>1925.6</ele>
        <time>2026-07-14T11:18:40Z</time>
      </trkpt>
      <trkpt lat="45.19243" lon="5.96731">
        <ele>1925.6</ele>
        <time>2026-07-14T11:18:41Z</time>
      </trkpt>
      <trkpt lat="45.19243" lon="5.96731">
        <ele>1925.6</ele>
        <time>2026-07-14T11:18:42Z</time>
      </trkpt>
      <trkpt lat="45.19243" lon="5.96731">
        <ele>1925.6</ele>
        <time>2026-07-14T11:18:43Z</time>
      </trkpt>
      <trkpt lat="45.19243" lon="5.96731">
        <ele>1925.6</ele>
        <time>2026-07-14T11:18:44Z</time>
      </trkpt>
      <trkpt lat="45.19243" lon="5.96731">
        <ele>1925.6</ele>
        <time>2026-07-14T11:18:45Z</time>
      </trkpt>
      <trkpt lat="45.19243" lon="5.96731">
        <ele>1925.6</ele>
        <time>2026-07-14T11:18:46Z</time>
      </trkpt>
      <trkpt lat="45.19243" lon="5.96731">
        <ele>1925.6</ele>
        <time>2026-07-14T11:18:47Z</time>
      </trkpt>
      <trkpt lat="45.19243" lon="5.96731">
        <ele>1925.6</ele>
        <time>2026-07-14T11:18:48Z</time>
      </trkpt>
      <trkpt lat="45.19243" lon="5.96731">
        <ele>1925.6</ele>
        <time>2026-07-14T11:18:49Z</time>
      </trkpt>
      <trkpt lat="45.19243" lon="5.96731">
        <ele>1925.6</ele>
        <time>2026-07-14T11:18:50Z</time>
      </trkpt>
      <trkpt lat="45.19243" lon="5.96731">
        <ele>1925.6</ele>
        <time>2026-07-14T11:18:51Z</time>
      </trkpt>
      <trkpt lat="45.19243" lon="5.96731">
        <ele>1925.6</ele>
        <time>2026-07-14T11:18:52Z</time>
      </trkpt>
      <trkpt lat="45.19243" lon="5.96731">
        <ele>1925.6</ele>
        <time>2026-07-14T11:18:53Z</time>
      </trkpt>
      <trkpt lat="45.19243" lon="5.96731">
        <ele>1925.6</ele>
        <time>2026-07-14T11:18:54Z</time>
      </trkpt>
      <trkpt lat="45.19243" lon="5.96731">
        <ele>1925.6</ele>
        <time>2026-07-14T11:18:55Z</time>
      </trkpt>
      <trkpt lat="45.19243" lon="5.96731">
        <ele>1925.6</ele>
        <time>2026-07-14T11:18:56Z</time>
      </trkpt>
      <trkpt lat="45.19243" lon="5.96731">
        <ele>1925.6</ele>
        <time>2026-07-14T11:18:57Z</time>
      </trkpt>
      <trkpt lat="45.19243" lon="5.96731">
        <ele>1925.6</ele>
        <time>2026-07-14T11:18:58Z</time>
      </trkpt>
      <trkpt lat="45.19243" lon="5.96731">
        <ele>1925.6</ele>
        <time>2026-07-14T11:18:59Z</time>
      </trkpt>
      <trkpt lat="45.19243" lon="5.96731">
        <ele>1925.6</ele>
        <time>2026-07-14T11:19:00Z</time>
      </trkpt>
      <trkpt lat="45.19243" lon="5.96731">
        <ele>1925.6</ele>
        <time>2026-07-14T11:19:01Z</time>
      </trkpt>
      <trkpt lat="45.19243" lon="5.96731">
        <ele>1925.6</ele>
        <time>2026-07-14T11:19:02Z</time>
      </trkpt>
      <trkpt lat="45.19243" lon="5.96731">
        <ele>1925.6</ele>
        <time>2026-07-14T11:19:03Z</time>
      </trkpt>
      <trkpt lat="45.19243" lon="5.96731">
        <ele>1925.6</ele>
        <time>2026-07-14T11:19:04Z</time>
      </trkpt>
      <trkpt lat="45.19243" lon="5.96731">
        <ele>1925.6</ele>
        <time>2026-07-14T11:19:05Z</time>
      </trkpt>
      <trkpt lat="45.19243" lon="5.96731">
        <ele>1925.6</ele>
        <time>2026-07-14T11:19:06Z</time>
      </trkpt>
      <trkpt lat="45.19243" lon="5.96731">
        <ele>1925.6</ele>
        <time>2026-07-14T11:19:07Z</time>
      </trkpt>
      <trkpt lat="45.19243" lon="5.96731">
        <ele>1925.6</ele>
        <time>2026-07-14T11:19:08Z</time>
      </trkpt>
      <trkpt lat="45.19243" lon="5.96731">
        <ele>1925.6</ele>
        <time>2026-07-14T11:19:09Z</time>
      </trkpt>
      <trkpt lat="45.19243" lon="5.96731">
        <ele>1925.6</ele>
        <time>2026-07-14T11:19:10Z</time>
      </trkpt>
      <trkpt lat="45.19243" lon="5.96731">
        <ele>1925.6</ele>
        <time>2026-07-14T11:19:11Z</time>
      </trkpt>
      <trkpt lat="45.19243" lon="5.96731">
        <ele>1925.6</ele>
        <time>2026-07-14T11:19:12Z</time>
      </trkpt>
      <trkpt lat="45.19243" lon="5.96731">
        <ele>1925.6</ele>
        <time>2026-07-14T11:19:13Z</time>
      </trkpt>
      <trkpt lat="45.19243" lon="5.96731">
        <ele>1925.6</ele>
        <time>2026-07-14T11:19:14Z</time>
      </trkpt>
      <trkpt lat="45.19243" lon="5.96731">
        <ele>1925.6</ele>
        <time>2026-07-14T11:19:15Z</time>
      </trkpt>
      <trkpt lat="45.19243" lon="5.96731">
        <ele>1925.6</ele>
        <time>2026-07-14T11:19:16Z</time>
      </trkpt>
      <trkpt lat="45.19243" lon="5.96731">
        <ele>1925.6</ele>
        <time>2026-07-14T11:19:17Z</time>
      </trkpt>
      <trkpt lat="45.19243" lon="5.96731">
        <ele>1925.6</ele>
        <time>2026-07-14T11:19:18Z</time>
      </trkpt>
      <trkpt lat="45.19243" lon="5.96731">
        <ele>1925.6</ele>
        <time>2026-07-14T11:19:19Z</time>
      </trkpt>
      <trkpt lat="45.19243" lon="5.96731">
        <ele>1925.6</ele>
        <time>2026-07-14T11:19:20Z</time>
      </trkpt>
      <trkpt lat="45.19243" lon="5.96731">
        <ele>1925.6</ele>
        <time>2026-07-14T11:19:21Z</time>
      </trkpt>
      <trkpt lat="45.19243" lon="5.96731">
        <ele>1925.6</ele>
        <time>2026-07-14T11:19:22Z</time>
      </trkpt>
      <trkpt lat="45.19243" lon="5.96731">
        <ele>1925.6</ele>
        <time>2026-07-14T11:19:23Z</time>
      </trkpt>
      <trkpt lat="45.19243" lon="5.96731">
        <ele>1925.6</ele>
        <time>2026-07-14T11:19:24Z</time>
      </trkpt>
      <trkpt lat="45.19243" lon="5.96731">
        <ele>1925.6</ele>
        <time>2026-07-14T11:19:25Z</time>
      </trkpt>
      <trkpt lat="45.19243" lon="5.96731">
        <ele>1925.6</ele>
        <time>2026-07-14T11:19:26Z</time>
      </trkpt>
      <trkpt lat="45.19243" lon="5.96731">
        <ele>1925.6</ele>
        <time>2026-07-14T11:19:27Z</time>
      </trkpt>
      <trkpt lat="45.19243" lon="5.96731">
        <ele>1925.6</ele>
        <time>2026-07-14T11:19:28Z</time>
      </trkpt>
      <trkpt lat="45.19243" lon="5.96731">
        <ele>1925.6</ele>
        <time>2026-07-14T11:19:29Z</time>
      </trkpt>
      <trkpt lat="45.19243" lon="5.96731">
        <ele>1925.6</ele>
        <time>2026-07-14T11:19:30Z</time>
      </trkpt>
      <trkpt lat="45.19243" lon="5.96731">
        <ele>1925.6</ele>
        <time>2026-07-14T11:19:31Z</time>
      </trkpt>
      <trkpt lat="45.19243" lon="5.96731">
        <ele>1925.6</ele>
        <time>2026-07-14T11:19:32Z</time>
      </trkpt>
      <trkpt lat="45.19243" lon="5.96731">
        <ele>1925.6</ele>
        <time>2026-07-14T11:19:33Z</time>
      </trkpt>
      <trkpt lat="45.19243" lon="5.96731">
        <ele>1925.6</ele>
        <time>2026-07-14T11:19:34Z</time>
      </trkpt>
      <trkpt lat="45.19243" lon="5.96731">
        <ele>1925.6</ele>
        <time>2026-07-14T11:19:35Z</time>
      </trkpt>
      <trkpt lat="45.19243" lon="5.96731">
        <ele>1925.6</ele>
        <time>2026-07-14T11:19:36Z</time>
      </trkpt>
      <trkpt lat="45.19243" lon="5.96731">
        <ele>1925.6</ele>
        <time>2026-07-14T11:19:37Z</time>
      </trkpt>
      <trkpt lat="45.19243" lon="5.96731">
        <ele>1925.6</ele>
        <time>2026-07-14T11:19:38Z</time>
      </trkpt>
      <trkpt lat="45.19243" lon="5.96731">
        <ele>1925.6</ele>
        <time>2026-07-14T11:19:39Z</time>
      </trkpt>
      <trkpt lat="45.19243" lon="5.96731">
        <ele>1925.6</ele>
        <time>2026-07-14T11:19:40Z</time>
      </trkpt>
      <trkpt lat="45.19243" lon="5.96731">
        <ele>1925.6</ele>
        <time>2026-07-14T11:19:41Z</time>
      </trkpt>
      <trkpt lat="45.19243" lon="5.96731">
        <ele>1925.6</ele>
        <time>2026-07-14T11:19:42Z</time>
      </trkpt>
      <trkpt lat="45.19243" lon="5.96731">
        <ele>1925.6</ele>
        <time>2026-07-14T11:19:43Z</time>
      </trkpt>
      <trkpt lat="45.19243" lon="5.96731">
        <ele>1925.6</ele>
        <time>2026-07-14T11:19:44Z</time>
      </trkpt>
      <trkpt lat="45.19243" lon="5.96731">
        <ele>1925.6</ele>
        <time>2026-07-14T11:19:45Z</time>
      </trkpt>
      <trkpt lat="45.19243" lon="5.96731">
        <ele>1925.6</ele>
        <time>2026-07-14T11:19:46Z</time>
      </trkpt>
      <trkpt lat="45.19243" lon="5.96731">
        <ele>1925.6</ele>
        <time>2026-07-14T11:19:47Z</time>
      </trkpt>
      <trkpt lat="45.19243" lon="5.96731">
        <ele>1925.6</ele>
        <time>2026-07-14T11:19:48Z</time>
      </trkpt>
      <trkpt lat="45.19243" lon="5.96731">
        <ele>1925.6</ele>
        <time>2026-07-14T11:19:49Z</time>
      </trkpt>
      <trkpt lat="45.19243" lon="5.96731">
        <ele>1925.6</ele>
        <time>2026-07-14T11:19:50Z</time>
      </trkpt>
      <trkpt lat="45.19243" lon="5.96731">
        <ele>1925.6</ele>
        <time>2026-07-14T11:19:51Z</time>
      </trkpt>
      <trkpt lat="45.19243" lon="5.96731">
        <ele>1925.6</ele>
        <time>2026-07-14T11:19:52Z</time>
      </trkpt>
      <trkpt lat="45.19243" lon="5.96731">
        <ele>1925.6</ele>
        <time>2026-07-14T11:19:53Z</time>
      </trkpt>
      <trkpt lat="45.19243" lon="5.96731">
        <ele>1925.6</ele>
        <time>2026-07-14T11:19:54Z</time>
      </trkpt>
      <trkpt lat="45.19243" lon="5.96731">
        <ele>1925.6</ele>
        <time>2026-07-14T11:19:55Z</time>
      </trkpt>
      <trkpt lat="45.19243" lon="5.96731">
        <ele>1925.6</ele>
        <time>2026-07-14T11:19:56Z</time>
      </trkpt>
      <trkpt lat="45.19243" lon="5.96731">
        <ele>1925.6</ele>
        <time>2026-07-14T11:19:57Z</time>
      </trkpt>
      <trkpt lat="45.19243" lon="5.96731">
        <ele>1925.6</ele>
        <time>2026-07-14T11:19:58Z</time>
      </trkpt>
      <trkpt lat="45.19243" lon="5.96731">
        <ele>1925.6</ele>
        <time>2026-07-14T11:19:59Z</time>
      </trkpt>
      <trkpt lat="45.19243" lon="5.96731">
        <ele>1925.6</ele>
        <time>2026-07-14T11:20:00Z</time>
      </trkpt>
      <trkpt lat="45.19243" lon="5.96731">
        <ele>1925.6</ele>
        <time>2026-07-14T11:20:01Z</time>
      </trkpt>
      <trkpt lat="45.19243" lon="5.96731">
        <ele>1925.6</ele>
        <time>2026-07-14T11:20:02Z</time>
      </trkpt>
      <trkpt lat="45.19243" lon="5.96731">
        <ele>1925.6</ele>
        <time>2026-07-14T11:20:03Z</time>
      </trkpt>
      <trkpt lat="45.19243" lon="5.96731">
        <ele>1925.6</ele>
        <time>2026-07-14T11:20:04Z</time>
      </trkpt>
      <trkpt lat="45.19243" lon="5.96731">
        <ele>1925.6</ele>
        <time>2026-07-14T11:20:05Z</time>
      </trkpt>
      <trkpt lat="45.19243" lon="5.96731">
        <ele>1925.6</ele>
        <time>2026-07-14T11:20:06Z</time>
      </trkpt>
      <trkpt lat="45.19243" lon="5.96731">
        <ele>1925.6</ele>
        <time>2026-07-14T11:20:07Z</time>
      </trkpt>
      <trkpt lat="45.19243" lon="5.96731">
        <ele>1925.6</ele>
        <time>2026-07-14T11:20:08Z</time>
      </trkpt>
      <trkpt lat="45.19243" lon="5.96731">
        <ele>1925.6</ele>
        <time>2026-07-14T11:20:09Z</time>
      </trkpt>
      <trkpt lat="45.19243" lon="5.96731">
        <ele>1925.6</ele>
        <time>2026-07-14T11:20:10Z</time>
      </trkpt>
      <trkpt lat="45.19243" lon="5.96731">
        <ele>1925.6</ele>
        <time>2026-07-14T11:20:11Z</time>
      </trkpt>
      <trkpt lat="45.19243" lon="5.96731">
        <ele>1925.6</ele>
        <time>2026-07-14T11:20:12Z</time>
      </trkpt>
      <trkpt lat="45.19243" lon="5.96731">
        <ele>1925.6</ele>
        <time>2026-07-14T11:20:13Z</time>
      </trkpt>
      <trkpt lat="45.19243" lon="5.96731">
        <ele>1925.6</ele>
        <time>2026-07-14T11:20:14Z</time>
      </trkpt>
      <trkpt lat="45.19243" lon="5.96731">
        <ele>1925.6</ele>
        <time>2026-07-14T11:20:15Z</time>
      </trkpt>
      <trkpt lat="45.19243" lon="5.96731">
        <ele>1925.6</ele>
        <time>2026-07-14T11:20:16Z</time>
      </trkpt>
      <trkpt lat="45.19243" lon="5.96731">
        <ele>1925.6</ele>
        <time>2026-07-14T11:20:17Z</time>
      </trkpt>
      <trkpt lat="45.19243" lon="5.96731">
        <ele>1925.6</ele>
        <time>2026-07-14T11:20:18Z</time>
      </trkpt>
      <trkpt lat="45.19243" lon="5.96731">
        <ele>1925.6</ele>
        <time>2026-07-14T11:20:19Z</time>
      </trkpt>
      <trkpt lat="45.19243" lon="5.96731">
        <ele>1925.6</ele>
        <time>2026-07-14T11:20:20Z</time>
      </trkpt>
      <trkpt lat="45.19243" lon="5.96731">
        <ele>1925.6</ele>
        <time>2026-07-14T11:20:21Z</time>
      </trkpt>
      <trkpt lat="45.19243" lon="5.96731">
        <ele>1925.6</ele>
        <time>2026-07-14T11:20:22Z</time>
      </trkpt>
      <trkpt lat="45.19243" lon="5.96731">
        <ele>1925.6</ele>
        <time>2026-07-14T11:20:23Z</time>
      </trkpt>
      <trkpt lat="45.19243" lon="5.96731">
        <ele>1925.6</ele>
        <time>2026-07-14T11:20:24Z</time>
      </trkpt>
      <trkpt lat="45.19243" lon="5.96731">
        <ele>1925.6</ele>
        <time>2026-07-14T11:20:25Z</time>
      </trkpt>
      <trkpt lat="45.19243" lon="5.96731">
        <ele>1925.6</ele>
        <time>2026-07-14T11:20:26Z</time>
      </trkpt>
      <trkpt lat="45.19243" lon="5.96731">
        <ele>1925.6</ele>
        <time>2026-07-14T11:20:27Z</time>
      </trkpt>
      <trkpt lat="45.19243" lon="5.96731">
        <ele>1925.6</ele>
        <time>2026-07-14T11:20:28Z</time>
      </trkpt>
      <trkpt lat="45.19243" lon="5.96731">
        <ele>1925.6</ele>
        <time>2026-07-14T11:20:29Z</time>
      </trkpt>
      <trkpt lat="45.19243" lon="5.96731">
        <ele>1925.6</ele>
        <time>2026-07-14T11:20:30Z</time>
      </trkpt>
      <trkpt lat="45.19243" lon="5.96731">
        <ele>1925.6</ele>
        <time>2026-07-14T11:20:31Z</time>
      </trkpt>
      <trkpt lat="45.19243" lon="5.96731">
        <ele>1925.6</ele>
        <time>2026-07-14T11:20:32Z</time>
      </trkpt>
      <trkpt lat="45.19243" lon="5.96731">
        <ele>1925.6</ele>
        <time>2026-07-14T11:20:33Z</time>
      </trkpt>
      <trkpt lat="45.19243" lon="5.96731">
        <ele>1925.6</ele>
        <time>2026-07-14T11:20:34Z</time>
      </trkpt>
      <trkpt lat="45.19243" lon="5.96731">
        <ele>1925.6</ele>
        <time>2026-07-14T11:20:35Z</time>
      </trkpt>
      <trkpt lat="45.19243" lon="5.96731">
        <ele>1925.6</ele>
        <time>2026-07-14T11:20:36Z</time>
      </trkpt>
      <trkpt lat="45.19243" lon="5.96731">
        <ele>1925.6</ele>
        <time>2026-07-14T11:20:37Z</time>
      </trkpt>
      <trkpt lat="45.19243" lon="5.96731">
        <ele>1925.6</ele>
        <time>2026-07-14T11:20:38Z</time>
      </trkpt>
      <trkpt lat="45.19243" lon="5.96731">
        <ele>1925.6</ele>
        <time>2026-07-14T11:20:39Z</time>
      </trkpt>
      <trkpt lat="45.19243" lon="5.96731">
        <ele>1925.6</ele>
        <time>2026-07-14T11:20:40Z</time>
      </trkpt>
      <trkpt lat="45.19243" lon="5.96731">
        <ele>1925.6</ele>
        <time>2026-07-14T11:20:41Z</time>
      </trkpt>
      <trkpt lat="45.19243" lon="5.96731">
        <ele>1925.6</ele>
        <time>2026-07-14T11:20:42Z</time>
      </trkpt>
      <trkpt lat="45.19243" lon="5.96731">
        <ele>1925.6</ele>
        <time>2026-07-14T11:20:43Z</time>
      </trkpt>
      <trkpt lat="45.19243" lon="5.96731">
        <ele>1925.6</ele>
        <time>2026-07-14T11:20:44Z</time>
      </trkpt>
      <trkpt lat="45.19243" lon="5.96731">
        <ele>1925.6</ele>
        <time>2026-07-14T11:20:45Z</time>
      </trkpt>
      <trkpt lat="45.19243" lon="5.96731">
        <ele>1925.6</ele>
        <time>2026-07-14T11:20:46Z</time>
      </trkpt>
      <trkpt lat="45.19243" lon="5.96731">
        <ele>1925.6</ele>
        <time>2026-07-14T11:20:47Z</time>
      </trkpt>
      <trkpt lat="45.19243" lon="5.96731">
        <ele>1925.6</ele>
        <time>2026-07-14T11:20:48Z</time>
      </trkpt>
      <trkpt lat="45.19243" lon="5.96731">
        <ele>1925.6</ele>
        <time>2026-07-14T11:20:49Z</time>
      </trkpt>
      <trkpt lat="45.19243" lon="5.96731">
        <ele>1925.6</ele>
        <time>2026-07-14T11:20:50Z</time>
      </trkpt>
      <trkpt lat="45.19243" lon="5.96731">
        <ele>1925.6</ele>
        <time>2026-07-14T11:20:51Z</time>
      </trkpt>
      <trkpt lat="45.19243" lon="5.96731">
        <ele>1925.6</ele>
        <time>2026-07-14T11:20:52Z</time>
      </trkpt>
      <trkpt lat="45.19243" lon="5.96731">
        <ele>1925.6</ele>
        <time>2026-07-14T11:20:53Z</time>
      </trkpt>
      <trkpt lat="45.19243" lon="5.96731">
        <ele>1925.6</ele>
        <time>2026-07-14T11:20:54Z</time>
      </trkpt>
      <trkpt lat="45.19243" lon="5.96731">
        <ele>1925.6</ele>
        <time>2026-07-14T11:20:55Z</time>
      </trkpt>
      <trkpt lat="45.19243" lon="5.96731">
        <ele>1925.6</ele>
        <time>2026-07-14T11:20:56Z</time>
      </trkpt>
      <trkpt lat="45.19243" lon="5.96731">
        <ele>1925.6</ele>
        <time>2026-07-14T11:20:57Z</time>
      </trkpt>
      <trkpt lat="45.19243" lon="5.96731">
        <ele>1925.6</ele>
        <time>2026-07-14T11:20:58Z</time>
      </trkpt>
      <trkpt lat="45.19243" lon="5.96731">
        <ele>1925.6</ele>
        <time>2026-07-14T11:20:59Z</time>
      </trkpt>
      <trkpt lat="45.19243" lon="5.96731">
        <ele>1925.6</ele>
        <time>2026-07-14T11:21:00Z</time>
      </trkpt>
      <trkpt lat="45.19243" lon="5.96731">
        <ele>1925.6</ele>
        <time>2026-07-14T11:21:01Z</time>
      </trkpt>
      <trkpt lat="45.19243" lon="5.96731">
        <ele>1925.6</ele>
        <time>2026-07-14T11:21:02Z</time>
      </trkpt>
      <trkpt lat="45.19243" lon="5.96731">
        <ele>1925.6</ele>
        <time>2026-07-14T11:21:03Z</time>
      </trkpt>
      <trkpt lat="45.19243" lon="5.96731">
        <ele>1925.6</ele>
        <time>2026-07-14T11:21:04Z</time>
      </trkpt>
      <trkpt lat="45.19243" lon="5.96731">
        <ele>1925.6</ele>
        <time>2026-07-14T11:21:05Z</time>
      </trkpt>
      <trkpt lat="45.19243" lon="5.96731">
        <ele>1925.6</ele>
        <time>2026-07-14T11:21:06Z</time>
      </trkpt>
      <trkpt lat="45.19243" lon="5.96731">
        <ele>1925.6</ele>
        <time>2026-07-14T11:21:07Z</time>
      </trkpt>
      <trkpt lat="45.19243" lon="5.96731">
        <ele>1925.6</ele>
        <time>2026-07-14T11:21:08Z</time>
      </trkpt>
      <trkpt lat="45.19243" lon="5.96731">
        <ele>1925.6</ele>
        <time>2026-07-14T11:21:09Z</time>
      </trkpt>
      <trkpt lat="45.19243" lon="5.96731">
        <ele>1925.6</ele>
        <time>2026-07-14T11:21:10Z</time>
      </trkpt>
      <trkpt lat="45.19243" lon="5.96731">
        <ele>1925.6</ele>
        <time>2026-07-14T11:21:11Z</time>
      </trkpt>
      <trkpt lat="45.19243" lon="5.96731">
        <ele>1925.6</ele>
        <time>2026-07-14T11:21:12Z</time>
      </trkpt>
      <trkpt lat="45.19243" lon="5.96731">
        <ele>1925.6</ele>
        <time>2026-07-14T11:21:13Z</time>
      </trkpt>
      <trkpt lat="45.19243" lon="5.96731">
        <ele>1925.6</ele>
        <time>2026-07-14T11:21:14Z</time>
      </trkpt>
      <trkpt lat="45.19243" lon="5.96731">
        <ele>1925.6</ele>
        <time>2026-07-14T11:21:15Z</time>
      </trkpt>
      <trkpt lat="45.19243" lon="5.96731">
        <ele>1925.6</ele>
        <time>2026-07-14T11:21:16Z</time>
      </trkpt>
      <trkpt lat="45.19243" lon="5.96731">
        <ele>1925.6</ele>
        <time>2026-07-14T11:21:17Z</time>
      </trkpt>
      <trkpt lat="45.19243" lon="5.96731">
        <ele>1925.6</ele>
        <time>2026-07-14T11:21:18Z</time>
      </trkpt>
      <trkpt lat="45.19243" lon="5.96731">
        <ele>1925.6</ele>
        <time>2026-07-14T11:21:19Z</time>
      </trkpt>
      <trkpt lat="45.19243" lon="5.96731">
        <ele>1925.6</ele>
        <time>2026-07-14T11:21:20Z</time>
      </trkpt>
      <trkpt lat="45.19243" lon="5.96731">
        <ele>1925.6</ele>
        <time>2026-07-14T11:21:21Z</time>
      </trkpt>
      <trkpt lat="45.19243" lon="5.96731">
        <ele>1925.6</ele>
        <time>2026-07-14T11:21:22Z</time>
      </trkpt>
      <trkpt lat="45.19243" lon="5.96731">
        <ele>1925.6</ele>
        <time>2026-07-14T11:21:23Z</time>
      </trkpt>
      <trkpt lat="45.19243" lon="5.96731">
        <ele>1925.6</ele>
        <time>2026-07-14T11:21:24Z</time>
      </trkpt>
      <trkpt lat="45.19243" lon="5.96731">
        <ele>1925.6</ele>
        <time>2026-07-14T11:21:25Z</time>
      </trkpt>
      <trkpt lat="45.19243" lon="5.96731">
        <ele>1925.6</ele>
        <time>2026-07-14T11:21:26Z</time>
      </trkpt>
      <trkpt lat="45.19243" lon="5.96731">
        <ele>1925.6</ele>
        <time>2026-07-14T11:21:27Z</time>
      </trkpt>
      <trkpt lat="45.19243" lon="5.96731">
        <ele>1925.6</ele>
        <time>2026-07-14T11:21:28Z</time>
      </trkpt>
      <trkpt lat="45.19243" lon="5.96731">
        <ele>1925.6</ele>
        <time>2026-07-14T11:21:29Z</time>
      </trkpt>
      <trkpt lat="45.19243" lon="5.96731">
        <ele>1925.6</ele>
        <time>2026-07-14T11:21:30Z</time>
      </trkpt>
      <trkpt lat="45.19243" lon="5.96731">
        <ele>1925.6</ele>
        <time>2026-07-14T11:21:31Z</time>
      </trkpt>
      <trkpt lat="45.19243" lon="5.96731">
        <ele>1925.6</ele>
        <time>2026-07-14T11:21:32Z</time>
      </trkpt>
      <trkpt lat="45.19243" lon="5.96731">
        <ele>1925.6</ele>
        <time>2026-07-14T11:21:33Z</time>
      </trkpt>
      <trkpt lat="45.19243" lon="5.96731">
        <ele>1925.6</ele>
        <time>2026-07-14T11:21:34Z</time>
      </trkpt>
      <trkpt lat="45.19243" lon="5.96731">
        <ele>1925.6</ele>
        <time>2026-07-14T11:21:35Z</time>
      </trkpt>
      <trkpt lat="45.19243" lon="5.96731">
        <ele>1925.6</ele>
        <time>2026-07-14T11:21:36Z</time>
      </trkpt>
      <trkpt lat="45.19243" lon="5.96731">
        <ele>1925.6</ele>
        <time>2026-07-14T11:21:37Z</time>
      </trkpt>
      <trkpt lat="45.19243" lon="5.96731">
        <ele>1925.6</ele>
        <time>2026-07-14T11:21:38Z</time>
      </trkpt>
      <trkpt lat="45.19243" lon="5.96731">
        <ele>1925.6</ele>
        <time>2026-07-14T11:21:39Z</time>
      </trkpt>
      <trkpt lat="45.19243" lon="5.96731">
        <ele>1925.6</ele>
        <time>2026-07-14T11:21:40Z</time>
      </trkpt>
      <trkpt lat="45.19243" lon="5.96731">
        <ele>1925.6</ele>
        <time>2026-07-14T11:21:41Z</time>
      </trkpt>
      <trkpt lat="45.19243" lon="5.96731">
        <ele>1925.6</ele>
        <time>2026-07-14T11:21:42Z</time>
      </trkpt>
      <trkpt lat="45.19243" lon="5.96731">
        <ele>1925.6</ele>
        <time>2026-07-14T11:21:43Z</time>
      </trkpt>
      <trkpt lat="45.19243" lon="5.96731">
        <ele>1925.6</ele>
        <time>2026-07-14T11:21:44Z</time>
      </trkpt>
      <trkpt lat="45.19243" lon="5.96731">
        <ele>1925.6</ele>
        <time>2026-07-14T11:21:45Z</time>
      </trkpt>
      <trkpt lat="45.19243" lon="5.96731">
        <ele>1925.6</ele>
        <time>2026-07-14T11:21:46Z</time>
      </trkpt>
      <trkpt lat="45.19243" lon="5.96731">
        <ele>1925.6</ele>
        <time>2026-07-14T11:21:47Z</time>
      </trkpt>
      <trkpt lat="45.19243" lon="5.96731">
        <ele>1925.6</ele>
        <time>2026-07-14T11:21:48Z</time>
      </trkpt>
      <trkpt lat="45.19243" lon="5.96731">
        <ele>1925.6</ele>
        <time>2026-07-14T11:21:49Z</time>
      </trkpt>
      <trkpt lat="45.19243" lon="5.96731">
        <ele>1925.6</ele>
        <time>2026-07-14T11:21:50Z</time>
      </trkpt>
      <trkpt lat="45.19243" lon="5.96731">
        <ele>1925.6</ele>
        <time>2026-07-14T11:21:51Z</time>
      </trkpt>
      <trkpt lat="45.19243" lon="5.96731">
        <ele>1925.6</ele>
        <time>2026-07-14T11:21:52Z</time>
      </trkpt>
      <trkpt lat="45.19243" lon="5.96731">
        <ele>1925.6</ele>
        <time>2026-07-14T11:21:53Z</time>
      </trkpt>
      <trkpt lat="45.19243" lon="5.96731">
        <ele>1925.6</ele>
        <time>2026-07-14T11:21:54Z</time>
      </trkpt>
      <trkpt lat="45.19243" lon="5.96731">
        <ele>1925.6</ele>
        <time>2026-07-14T11:21:55Z</time>
      </trkpt>
      <trkpt lat="45.19243" lon="5.96731">
        <ele>1925.6</ele>
        <time>2026-07-14T11:21:56Z</time>
      </trkpt>
      <trkpt lat="45.19243" lon="5.96731">
        <ele>1925.6</ele>
        <time>2026-07-14T11:21:57Z</time>
      </trkpt>
      <trkpt lat="45.19243" lon="5.96731">
        <ele>1925.6</ele>
        <time>2026-07-14T11:21:58Z</time>
      </trkpt>
      <trkpt lat="45.19243" lon="5.96731">
        <ele>1925.6</ele>
        <time>2026-07-14T11:21:59Z</time>
      </trkpt>
      <trkpt lat="45.19243" lon="5.96731">
        <ele>1925.6</ele>
        <time>2026-07-14T11:22:00Z</time>
      </trkpt>
      <trkpt lat="45.19243" lon="5.96731">
        <ele>1925.6</ele>
        <time>2026-07-14T11:22:01Z</time>
      </trkpt>
      <trkpt lat="45.19243" lon="5.96731">
        <ele>1925.6</ele>
        <time>2026-07-14T11:22:02Z</time>
      </trkpt>
      <trkpt lat="45.19243" lon="5.96731">
        <ele>1925.6</ele>
        <time>2026-07-14T11:22:03Z</time>
      </trkpt>
      <trkpt lat="45.19243" lon="5.96731">
        <ele>1925.6</ele>
        <time>2026-07-14T11:22:04Z</time>
      </trkpt>
      <trkpt lat="45.19243" lon="5.96731">
        <ele>1925.6</ele>
        <time>2026-07-14T11:22:05Z</time>
      </trkpt>
      <trkpt lat="45.19243" lon="5.96731">
        <ele>1925.6</ele>
        <time>2026-07-14T11:22:06Z</time>
      </trkpt>
      <trkpt lat="45.19243" lon="5.96731">
        <ele>1925.6</ele>
        <time>2026-07-14T11:22:07Z</time>
      </trkpt>
      <trkpt lat="45.19243" lon="5.96731">
        <ele>1925.6</ele>
        <time>2026-07-14T11:22:08Z</time>
      </trkpt>
      <trkpt lat="45.19243" lon="5.96731">
        <ele>1925.6</ele>
        <time>2026-07-14T11:22:09Z</time>
      </trkpt>
      <trkpt lat="45.19243" lon="5.96731">
        <ele>1925.6</ele>
        <time>2026-07-14T11:22:10Z</time>
      </trkpt>
      <trkpt lat="45.19243" lon="5.96731">
        <ele>1925.6</ele>
        <time>2026-07-14T11:22:11Z</time>
      </trkpt>
      <trkpt lat="45.19243" lon="5.96731">
        <ele>1925.6</ele>
        <time>2026-07-14T11:22:12Z</time>
      </trkpt>
      <trkpt lat="45.19243" lon="5.96731">
        <ele>1925.6</ele>
        <time>2026-07-14T11:22:13Z</time>
      </trkpt>
      <trkpt lat="45.19243" lon="5.96731">
        <ele>1925.6</ele>
        <time>2026-07-14T11:22:14Z</time>
      </trkpt>
      <trkpt lat="45.19243" lon="5.96731">
        <ele>1925.6</ele>
        <time>2026-07-14T11:22:15Z</time>
      </trkpt>
      <trkpt lat="45.19243" lon="5.96731">
        <ele>1925.6</ele>
        <time>2026-07-14T11:22:16Z</time>
      </trkpt>
      <trkpt lat="45.19243" lon="5.96731">
        <ele>1925.6</ele>
        <time>2026-07-14T11:22:17Z</time>
      </trkpt>
      <trkpt lat="45.19243" lon="5.96731">
        <ele>1925.6</ele>
        <time>2026-07-14T11:22:18Z</time>
      </trkpt>
      <trkpt lat="45.19243" lon="5.96731">
        <ele>1925.6</ele>
        <time>2026-07-14T11:22:19Z</time>
      </trkpt>
      <trkpt lat="45.19243" lon="5.96731">
        <ele>1925.6</ele>
        <time>2026-07-14T11:22:20Z</time>
      </trkpt>
      <trkpt lat="45.19243" lon="5.96731">
        <ele>1925.6</ele>
        <time>2026-07-14T11:22:21Z</time>
      </trkpt>
      <trkpt lat="45.19243" lon="5.96731">
        <ele>1925.6</ele>
        <time>2026-07-14T11:22:22Z</time>
      </trkpt>
      <trkpt lat="45.19243" lon="5.96731">
        <ele>1925.6</ele>
        <time>2026-07-14T11:22:23Z</time>
      </trkpt>
      <trkpt lat="45.19243" lon="5.96731">
        <ele>1925.6</ele>
        <time>2026-07-14T11:22:24Z</time>
      </trkpt>
      <trkpt lat="45.19243" lon="5.96731">
        <ele>1925.6</ele>
        <time>2026-07-14T11:22:25Z</time>
      </trkpt>
      <trkpt lat="45.19243" lon="5.96731">
        <ele>1925.6</ele>
        <time>2026-07-14T11:22:26Z</time>
      </trkpt>
      <trkpt lat="45.19243" lon="5.96731">
        <ele>1925.6</ele>
        <time>2026-07-14T11:22:27Z</time>
      </trkpt>
      <trkpt lat="45.19243" lon="5.96731">
        <ele>1925.6</ele>
        <time>2026-07-14T11:22:28Z</time>
      </trkpt>
      <trkpt lat="45.19243" lon="5.96731">
        <ele>1925.6</ele>
        <time>2026-07-14T11:22:30Z</time>
      </trkpt>
      <trkpt lat="45.19243" lon="5.96731">
        <ele>1925.6</ele>
        <time>2026-07-14T11:22:31Z</time>
      </trkpt>
      <trkpt lat="45.19243" lon="5.96731">
        <ele>1925.6</ele>
        <time>2026-07-14T11:22:32Z</time>
      </trkpt>
      <trkpt lat="45.19243" lon="5.96731">
        <ele>1925.6</ele>
        <time>2026-07-14T11:22:33Z</time>
      </trkpt>
      <trkpt lat="45.19243" lon="5.96731">
        <ele>1925.6</ele>
        <time>2026-07-14T11:22:34Z</time>
      </trkpt>
      <trkpt lat="45.19243" lon="5.96731">
        <ele>1925.6</ele>
        <time>2026-07-14T11:22:35Z</time>
      </trkpt>
      <trkpt lat="45.19243" lon="5.96731">
        <ele>1925.6</ele>
        <time>2026-07-14T11:22:36Z</time>
      </trkpt>
      <trkpt lat="45.19243" lon="5.96731">
        <ele>1925.6</ele>
        <time>2026-07-14T11:22:37Z</time>
      </trkpt>
      <trkpt lat="45.19243" lon="5.96731">
        <ele>1925.6</ele>
        <time>2026-07-14T11:22:38Z</time>
      </trkpt>
      <trkpt lat="45.19243" lon="5.96731">
        <ele>1925.6</ele>
        <time>2026-07-14T11:22:39Z</time>
      </trkpt>
      <trkpt lat="45.19243" lon="5.96731">
        <ele>1925.6</ele>
        <time>2026-07-14T11:22:40Z</time>
      </trkpt>
      <trkpt lat="45.19243" lon="5.96731">
        <ele>1925.6</ele>
        <time>2026-07-14T11:22:41Z</time>
      </trkpt>
      <trkpt lat="45.19243" lon="5.96731">
        <ele>1925.6</ele>
        <time>2026-07-14T11:22:42Z</time>
      </trkpt>
      <trkpt lat="45.19243" lon="5.96731">
        <ele>1925.6</ele>
        <time>2026-07-14T11:22:43Z</time>
      </trkpt>
      <trkpt lat="45.19243" lon="5.96731">
        <ele>1925.6</ele>
        <time>2026-07-14T11:22:44Z</time>
      </trkpt>
      <trkpt lat="45.19243" lon="5.96731">
        <ele>1925.6</ele>
        <time>2026-07-14T11:22:45Z</time>
      </trkpt>
      <trkpt lat="45.19243" lon="5.96731">
        <ele>1925.6</ele>
        <time>2026-07-14T11:22:46Z</time>
      </trkpt>
      <trkpt lat="45.19243" lon="5.96731">
        <ele>1925.6</ele>
        <time>2026-07-14T11:22:47Z</time>
      </trkpt>
      <trkpt lat="45.19243" lon="5.9673">
        <ele>1925.6</ele>
        <time>2026-07-14T11:22:48Z</time>
      </trkpt>
      <trkpt lat="45.19243" lon="5.96729">
        <ele>1925.6</ele>
        <time>2026-07-14T11:22:50Z</time>
      </trkpt>
      <trkpt lat="45.19243" lon="5.96729">
        <ele>1925.6</ele>
        <time>2026-07-14T11:22:51Z</time>
      </trkpt>
      <trkpt lat="45.19244" lon="5.96728">
        <ele>1925.6</ele>
        <time>2026-07-14T11:22:52Z</time>
      </trkpt>
      <trkpt lat="45.19244" lon="5.96727">
        <ele>1925.6</ele>
        <time>2026-07-14T11:22:53Z</time>
      </trkpt>
      <trkpt lat="45.19244" lon="5.96726">
        <ele>1925.6</ele>
        <time>2026-07-14T11:22:55Z</time>
      </trkpt>
      <trkpt lat="45.19245" lon="5.96726">
        <ele>1925.6</ele>
        <time>2026-07-14T11:22:56Z</time>
      </trkpt>
      <trkpt lat="45.19246" lon="5.96725">
        <ele>1925.5</ele>
        <time>2026-07-14T11:22:57Z</time>
      </trkpt>
      <trkpt lat="45.19246" lon="5.96724">
        <ele>1925.5</ele>
        <time>2026-07-14T11:22:59Z</time>
      </trkpt>
      <trkpt lat="45.19247" lon="5.96723">
        <ele>1925.5</ele>
        <time>2026-07-14T11:23:00Z</time>
      </trkpt>
      <trkpt lat="45.19247" lon="5.96723">
        <ele>1925.5</ele>
        <time>2026-07-14T11:23:01Z</time>
      </trkpt>
      <trkpt lat="45.19248" lon="5.96723">
        <ele>1925.5</ele>
        <time>2026-07-14T11:23:02Z</time>
      </trkpt>
      <trkpt lat="45.19248" lon="5.96723">
        <ele>1925.5</ele>
        <time>2026-07-14T11:23:03Z</time>
      </trkpt>
      <trkpt lat="45.19249" lon="5.96723">
        <ele>1925.5</ele>
        <time>2026-07-14T11:23:04Z</time>
      </trkpt>
      <trkpt lat="45.19249" lon="5.96723">
        <ele>1925.5</ele>
        <time>2026-07-14T11:23:05Z</time>
      </trkpt>
      <trkpt lat="45.19248" lon="5.96723">
        <ele>1925.5</ele>
        <time>2026-07-14T11:23:06Z</time>
      </trkpt>
      <trkpt lat="45.19248" lon="5.96723">
        <ele>1925.5</ele>
        <time>2026-07-14T11:23:07Z</time>
      </trkpt>
      <trkpt lat="45.19249" lon="5.96723">
        <ele>1925.5</ele>
        <time>2026-07-14T11:23:08Z</time>
      </trkpt>
      <trkpt lat="45.19249" lon="5.96723">
        <ele>1925.5</ele>
        <time>2026-07-14T11:23:09Z</time>
      </trkpt>
      <trkpt lat="45.19249" lon="5.96723">
        <ele>1925.5</ele>
        <time>2026-07-14T11:23:10Z</time>
      </trkpt>
      <trkpt lat="45.19248" lon="5.96724">
        <ele>1925.5</ele>
        <time>2026-07-14T11:23:11Z</time>
      </trkpt>
      <trkpt lat="45.19248" lon="5.96724">
        <ele>1925.5</ele>
        <time>2026-07-14T11:23:12Z</time>
      </trkpt>
      <trkpt lat="45.19249" lon="5.96725">
        <ele>1925.5</ele>
        <time>2026-07-14T11:23:13Z</time>
      </trkpt>
      <trkpt lat="45.19249" lon="5.96725">
        <ele>1925.5</ele>
        <time>2026-07-14T11:23:14Z</time>
      </trkpt>
      <trkpt lat="45.19249" lon="5.96727">
        <ele>1925.5</ele>
        <time>2026-07-14T11:23:16Z</time>
      </trkpt>
      <trkpt lat="45.1925" lon="5.96727">
        <ele>1925.5</ele>
        <time>2026-07-14T11:23:17Z</time>
      </trkpt>
      <trkpt lat="45.19251" lon="5.96728">
        <ele>1925.5</ele>
        <time>2026-07-14T11:23:18Z</time>
      </trkpt>
      <trkpt lat="45.19252" lon="5.96729">
        <ele>1925.5</ele>
        <time>2026-07-14T11:23:19Z</time>
      </trkpt>
      <trkpt lat="45.19252" lon="5.96729">
        <ele>1925.5</ele>
        <time>2026-07-14T11:23:20Z</time>
      </trkpt>
      <trkpt lat="45.19253" lon="5.9673">
        <ele>1925.5</ele>
        <time>2026-07-14T11:23:21Z</time>
      </trkpt>
      <trkpt lat="45.19254" lon="5.96731">
        <ele>1925.5</ele>
        <time>2026-07-14T11:23:22Z</time>
      </trkpt>
      <trkpt lat="45.19254" lon="5.96732">
        <ele>1925.5</ele>
        <time>2026-07-14T11:23:23Z</time>
      </trkpt>
      <trkpt lat="45.19255" lon="5.96732">
        <ele>1925.5</ele>
        <time>2026-07-14T11:23:24Z</time>
      </trkpt>
      <trkpt lat="45.19256" lon="5.96733">
        <ele>1925.5</ele>
        <time>2026-07-14T11:23:25Z</time>
      </trkpt>
      <trkpt lat="45.19257" lon="5.96734">
        <ele>1925.6</ele>
        <time>2026-07-14T11:23:26Z</time>
      </trkpt>
      <trkpt lat="45.19257" lon="5.96735">
        <ele>1925.6</ele>
        <time>2026-07-14T11:23:27Z</time>
      </trkpt>
      <trkpt lat="45.19257" lon="5.96735">
        <ele>1925.6</ele>
        <time>2026-07-14T11:23:28Z</time>
      </trkpt>
      <trkpt lat="45.19258" lon="5.96736">
        <ele>1925.6</ele>
        <time>2026-07-14T11:23:29Z</time>
      </trkpt>
      <trkpt lat="45.19258" lon="5.96737">
        <ele>1925.6</ele>
        <time>2026-07-14T11:23:30Z</time>
      </trkpt>
      <trkpt lat="45.19259" lon="5.96737">
        <ele>1925.6</ele>
        <time>2026-07-14T11:23:31Z</time>
      </trkpt>
      <trkpt lat="45.1926" lon="5.96738">
        <ele>1925.6</ele>
        <time>2026-07-14T11:23:32Z</time>
      </trkpt>
      <trkpt lat="45.19261" lon="5.96738">
        <ele>1925.6</ele>
        <time>2026-07-14T11:23:33Z</time>
      </trkpt>
      <trkpt lat="45.19261" lon="5.96739">
        <ele>1925.6</ele>
        <time>2026-07-14T11:23:34Z</time>
      </trkpt>
      <trkpt lat="45.19262" lon="5.9674">
        <ele>1925.6</ele>
        <time>2026-07-14T11:23:35Z</time>
      </trkpt>
      <trkpt lat="45.19263" lon="5.96741">
        <ele>1925.6</ele>
        <time>2026-07-14T11:23:36Z</time>
      </trkpt>
      <trkpt lat="45.19264" lon="5.96742">
        <ele>1925.6</ele>
        <time>2026-07-14T11:23:37Z</time>
      </trkpt>
      <trkpt lat="45.19264" lon="5.96743">
        <ele>1925.6</ele>
        <time>2026-07-14T11:23:38Z</time>
      </trkpt>
      <trkpt lat="45.19265" lon="5.96743">
        <ele>1925.7</ele>
        <time>2026-07-14T11:23:39Z</time>
      </trkpt>
      <trkpt lat="45.19265" lon="5.96744">
        <ele>1925.7</ele>
        <time>2026-07-14T11:23:40Z</time>
      </trkpt>
      <trkpt lat="45.19266" lon="5.96745">
        <ele>1925.7</ele>
        <time>2026-07-14T11:23:41Z</time>
      </trkpt>
      <trkpt lat="45.19267" lon="5.96746">
        <ele>1925.7</ele>
        <time>2026-07-14T11:23:42Z</time>
      </trkpt>
      <trkpt lat="45.19268" lon="5.96747">
        <ele>1925.7</ele>
        <time>2026-07-14T11:23:43Z</time>
      </trkpt>
      <trkpt lat="45.19269" lon="5.96748">
        <ele>1925.7</ele>
        <time>2026-07-14T11:23:44Z</time>
      </trkpt>
      <trkpt lat="45.19269" lon="5.96748">
        <ele>1925.7</ele>
        <time>2026-07-14T11:23:45Z</time>
      </trkpt>
      <trkpt lat="45.19271" lon="5.96749">
        <ele>1925.7</ele>
        <time>2026-07-14T11:23:46Z</time>
      </trkpt>
      <trkpt lat="45.19272" lon="5.9675">
        <ele>1925.8</ele>
        <time>2026-07-14T11:23:47Z</time>
      </trkpt>
      <trkpt lat="45.19272" lon="5.96751">
        <ele>1925.8</ele>
        <time>2026-07-14T11:23:48Z</time>
      </trkpt>
      <trkpt lat="45.19273" lon="5.96751">
        <ele>1925.8</ele>
        <time>2026-07-14T11:23:49Z</time>
      </trkpt>
      <trkpt lat="45.19274" lon="5.96751">
        <ele>1925.8</ele>
        <time>2026-07-14T11:23:50Z</time>
      </trkpt>
      <trkpt lat="45.19274" lon="5.96751">
        <ele>1925.8</ele>
        <time>2026-07-14T11:23:51Z</time>
      </trkpt>
      <trkpt lat="45.19274" lon="5.96751">
        <ele>1925.8</ele>
        <time>2026-07-14T11:23:52Z</time>
      </trkpt>
      <trkpt lat="45.19274" lon="5.9675">
        <ele>1925.8</ele>
        <time>2026-07-14T11:23:53Z</time>
      </trkpt>
      <trkpt lat="45.19275" lon="5.9675">
        <ele>1925.8</ele>
        <time>2026-07-14T11:23:54Z</time>
      </trkpt>
      <trkpt lat="45.19276" lon="5.96751">
        <ele>1925.9</ele>
        <time>2026-07-14T11:23:55Z</time>
      </trkpt>
      <trkpt lat="45.19277" lon="5.96752">
        <ele>1925.9</ele>
        <time>2026-07-14T11:23:56Z</time>
      </trkpt>
      <trkpt lat="45.19278" lon="5.96752">
        <ele>1925.9</ele>
        <time>2026-07-14T11:23:57Z</time>
      </trkpt>
      <trkpt lat="45.19278" lon="5.96753">
        <ele>1925.9</ele>
        <time>2026-07-14T11:23:58Z</time>
      </trkpt>
      <trkpt lat="45.19278" lon="5.96754">
        <ele>1925.9</ele>
        <time>2026-07-14T11:23:59Z</time>
      </trkpt>
      <trkpt lat="45.19279" lon="5.96755">
        <ele>1925.9</ele>
        <time>2026-07-14T11:24:00Z</time>
      </trkpt>
      <trkpt lat="45.19279" lon="5.96756">
        <ele>1926</ele>
        <time>2026-07-14T11:24:01Z</time>
      </trkpt>
      <trkpt lat="45.1928" lon="5.96757">
        <ele>1926</ele>
        <time>2026-07-14T11:24:02Z</time>
      </trkpt>
      <trkpt lat="45.1928" lon="5.96758">
        <ele>1926</ele>
        <time>2026-07-14T11:24:03Z</time>
      </trkpt>
      <trkpt lat="45.1928" lon="5.96758">
        <ele>1926</ele>
        <time>2026-07-14T11:24:04Z</time>
      </trkpt>
      <trkpt lat="45.19281" lon="5.96759">
        <ele>1926</ele>
        <time>2026-07-14T11:24:05Z</time>
      </trkpt>
      <trkpt lat="45.19282" lon="5.9676">
        <ele>1926</ele>
        <time>2026-07-14T11:24:06Z</time>
      </trkpt>
      <trkpt lat="45.19282" lon="5.96761">
        <ele>1926.1</ele>
        <time>2026-07-14T11:24:07Z</time>
      </trkpt>
      <trkpt lat="45.19283" lon="5.96761">
        <ele>1926.1</ele>
        <time>2026-07-14T11:24:08Z</time>
      </trkpt>
      <trkpt lat="45.19283" lon="5.96762">
        <ele>1926.1</ele>
        <time>2026-07-14T11:24:09Z</time>
      </trkpt>
      <trkpt lat="45.19284" lon="5.96763">
        <ele>1926.1</ele>
        <time>2026-07-14T11:24:10Z</time>
      </trkpt>
      <trkpt lat="45.19285" lon="5.96763">
        <ele>1926.1</ele>
        <time>2026-07-14T11:24:11Z</time>
      </trkpt>
      <trkpt lat="45.19286" lon="5.96764">
        <ele>1926.2</ele>
        <time>2026-07-14T11:24:12Z</time>
      </trkpt>
      <trkpt lat="45.19286" lon="5.96765">
        <ele>1926.2</ele>
        <time>2026-07-14T11:24:13Z</time>
      </trkpt>
      <trkpt lat="45.19287" lon="5.96766">
        <ele>1926.2</ele>
        <time>2026-07-14T11:24:14Z</time>
      </trkpt>
      <trkpt lat="45.19287" lon="5.96766">
        <ele>1926.2</ele>
        <time>2026-07-14T11:24:15Z</time>
      </trkpt>
      <trkpt lat="45.19288" lon="5.96767">
        <ele>1926.2</ele>
        <time>2026-07-14T11:24:16Z</time>
      </trkpt>
      <trkpt lat="45.19289" lon="5.96767">
        <ele>1926.3</ele>
        <time>2026-07-14T11:24:17Z</time>
      </trkpt>
      <trkpt lat="45.19289" lon="5.96768">
        <ele>1926.3</ele>
        <time>2026-07-14T11:24:18Z</time>
      </trkpt>
      <trkpt lat="45.1929" lon="5.96768">
        <ele>1926.3</ele>
        <time>2026-07-14T11:24:19Z</time>
      </trkpt>
      <trkpt lat="45.19291" lon="5.96768">
        <ele>1926.3</ele>
        <time>2026-07-14T11:24:20Z</time>
      </trkpt>
      <trkpt lat="45.19292" lon="5.96769">
        <ele>1926.3</ele>
        <time>2026-07-14T11:24:21Z</time>
      </trkpt>
      <trkpt lat="45.19292" lon="5.96769">
        <ele>1926.4</ele>
        <time>2026-07-14T11:24:22Z</time>
      </trkpt>
      <trkpt lat="45.19293" lon="5.96769">
        <ele>1926.4</ele>
        <time>2026-07-14T11:24:23Z</time>
      </trkpt>
      <trkpt lat="45.19294" lon="5.96769">
        <ele>1926.4</ele>
        <time>2026-07-14T11:24:24Z</time>
      </trkpt>
      <trkpt lat="45.19295" lon="5.96769">
        <ele>1926.4</ele>
        <time>2026-07-14T11:24:25Z</time>
      </trkpt>
      <trkpt lat="45.19296" lon="5.96768">
        <ele>1926.5</ele>
        <time>2026-07-14T11:24:26Z</time>
      </trkpt>
      <trkpt lat="45.19296" lon="5.96768">
        <ele>1926.5</ele>
        <time>2026-07-14T11:24:27Z</time>
      </trkpt>
      <trkpt lat="45.19297" lon="5.96768">
        <ele>1926.5</ele>
        <time>2026-07-14T11:24:28Z</time>
      </trkpt>
      <trkpt lat="45.19298" lon="5.96767">
        <ele>1926.6</ele>
        <time>2026-07-14T11:24:29Z</time>
      </trkpt>
      <trkpt lat="45.19298" lon="5.96766">
        <ele>1926.6</ele>
        <time>2026-07-14T11:24:30Z</time>
      </trkpt>
      <trkpt lat="45.19299" lon="5.96766">
        <ele>1926.6</ele>
        <time>2026-07-14T11:24:31Z</time>
      </trkpt>
      <trkpt lat="45.193" lon="5.96766">
        <ele>1926.6</ele>
        <time>2026-07-14T11:24:32Z</time>
      </trkpt>
      <trkpt lat="45.193" lon="5.96765">
        <ele>1926.7</ele>
        <time>2026-07-14T11:24:33Z</time>
      </trkpt>
      <trkpt lat="45.19301" lon="5.96764">
        <ele>1926.7</ele>
        <time>2026-07-14T11:24:34Z</time>
      </trkpt>
      <trkpt lat="45.19302" lon="5.96764">
        <ele>1926.7</ele>
        <time>2026-07-14T11:24:35Z</time>
      </trkpt>
      <trkpt lat="45.19303" lon="5.96763">
        <ele>1926.8</ele>
        <time>2026-07-14T11:24:36Z</time>
      </trkpt>
      <trkpt lat="45.19304" lon="5.96762">
        <ele>1926.8</ele>
        <time>2026-07-14T11:24:37Z</time>
      </trkpt>
      <trkpt lat="45.19304" lon="5.96762">
        <ele>1926.8</ele>
        <time>2026-07-14T11:24:38Z</time>
      </trkpt>
      <trkpt lat="45.19305" lon="5.96761">
        <ele>1926.9</ele>
        <time>2026-07-14T11:24:39Z</time>
      </trkpt>
      <trkpt lat="45.19305" lon="5.9676">
        <ele>1926.9</ele>
        <time>2026-07-14T11:24:40Z</time>
      </trkpt>
      <trkpt lat="45.19306" lon="5.96759">
        <ele>1927</ele>
        <time>2026-07-14T11:24:41Z</time>
      </trkpt>
      <trkpt lat="45.19307" lon="5.96758">
        <ele>1927</ele>
        <time>2026-07-14T11:24:42Z</time>
      </trkpt>
      <trkpt lat="45.19307" lon="5.96757">
        <ele>1927</ele>
        <time>2026-07-14T11:24:43Z</time>
      </trkpt>
      <trkpt lat="45.19308" lon="5.96756">
        <ele>1927.1</ele>
        <time>2026-07-14T11:24:44Z</time>
      </trkpt>
      <trkpt lat="45.19309" lon="5.96756">
        <ele>1927.1</ele>
        <time>2026-07-14T11:24:45Z</time>
      </trkpt>
      <trkpt lat="45.1931" lon="5.96755">
        <ele>1927.2</ele>
        <time>2026-07-14T11:24:46Z</time>
      </trkpt>
      <trkpt lat="45.19311" lon="5.96754">
        <ele>1927.2</ele>
        <time>2026-07-14T11:24:47Z</time>
      </trkpt>
      <trkpt lat="45.19311" lon="5.96754">
        <ele>1927.2</ele>
        <time>2026-07-14T11:24:48Z</time>
      </trkpt>
      <trkpt lat="45.19312" lon="5.96753">
        <ele>1927.3</ele>
        <time>2026-07-14T11:24:49Z</time>
      </trkpt>
      <trkpt lat="45.19313" lon="5.96752">
        <ele>1927.3</ele>
        <time>2026-07-14T11:24:50Z</time>
      </trkpt>
      <trkpt lat="45.19313" lon="5.96752">
        <ele>1927.3</ele>
        <time>2026-07-14T11:24:51Z</time>
      </trkpt>
      <trkpt lat="45.19313" lon="5.96752">
        <ele>1927.4</ele>
        <time>2026-07-14T11:24:52Z</time>
      </trkpt>
      <trkpt lat="45.19313" lon="5.96752">
        <ele>1927.4</ele>
        <time>2026-07-14T11:24:53Z</time>
      </trkpt>
      <trkpt lat="45.19313" lon="5.96752">
        <ele>1927.4</ele>
        <time>2026-07-14T11:24:54Z</time>
      </trkpt>
      <trkpt lat="45.19314" lon="5.96752">
        <ele>1927.4</ele>
        <time>2026-07-14T11:24:55Z</time>
      </trkpt>
      <trkpt lat="45.19314" lon="5.96752">
        <ele>1927.4</ele>
        <time>2026-07-14T11:24:56Z</time>
      </trkpt>
      <trkpt lat="45.19314" lon="5.96752">
        <ele>1927.4</ele>
        <time>2026-07-14T11:24:57Z</time>
      </trkpt>
      <trkpt lat="45.19314" lon="5.96752">
        <ele>1927.4</ele>
        <time>2026-07-14T11:24:58Z</time>
      </trkpt>
      <trkpt lat="45.19315" lon="5.96752">
        <ele>1927.4</ele>
        <time>2026-07-14T11:24:59Z</time>
      </trkpt>
      <trkpt lat="45.19315" lon="5.96752">
        <ele>1927.4</ele>
        <time>2026-07-14T11:25:00Z</time>
      </trkpt>
      <trkpt lat="45.19315" lon="5.96752">
        <ele>1927.4</ele>
        <time>2026-07-14T11:25:01Z</time>
      </trkpt>
      <trkpt lat="45.19315" lon="5.96752">
        <ele>1927.4</ele>
        <time>2026-07-14T11:25:02Z</time>
      </trkpt>
      <trkpt lat="45.19315" lon="5.96752">
        <ele>1927.4</ele>
        <time>2026-07-14T11:25:03Z</time>
      </trkpt>
      <trkpt lat="45.19315" lon="5.96752">
        <ele>1927.4</ele>
        <time>2026-07-14T11:25:04Z</time>
      </trkpt>
      <trkpt lat="45.19315" lon="5.96752">
        <ele>1927.4</ele>
        <time>2026-07-14T11:25:05Z</time>
      </trkpt>
      <trkpt lat="45.19315" lon="5.96752">
        <ele>1927.4</ele>
        <time>2026-07-14T11:25:06Z</time>
      </trkpt>
      <trkpt lat="45.19316" lon="5.96752">
        <ele>1927.5</ele>
        <time>2026-07-14T11:25:07Z</time>
      </trkpt>
      <trkpt lat="45.19316" lon="5.96752">
        <ele>1927.5</ele>
        <time>2026-07-14T11:25:08Z</time>
      </trkpt>
      <trkpt lat="45.19316" lon="5.96752">
        <ele>1927.5</ele>
        <time>2026-07-14T11:25:09Z</time>
      </trkpt>
      <trkpt lat="45.19316" lon="5.96752">
        <ele>1927.5</ele>
        <time>2026-07-14T11:25:10Z</time>
      </trkpt>
      <trkpt lat="45.19316" lon="5.96752">
        <ele>1927.5</ele>
        <time>2026-07-14T11:25:11Z</time>
      </trkpt>
      <trkpt lat="45.19316" lon="5.96752">
        <ele>1927.5</ele>
        <time>2026-07-14T11:25:12Z</time>
      </trkpt>
      <trkpt lat="45.19316" lon="5.96752">
        <ele>1927.5</ele>
        <time>2026-07-14T11:25:13Z</time>
      </trkpt>
      <trkpt lat="45.19316" lon="5.96752">
        <ele>1927.5</ele>
        <time>2026-07-14T11:25:14Z</time>
      </trkpt>
      <trkpt lat="45.19316" lon="5.96752">
        <ele>1927.5</ele>
        <time>2026-07-14T11:25:15Z</time>
      </trkpt>
      <trkpt lat="45.19316" lon="5.96752">
        <ele>1927.5</ele>
        <time>2026-07-14T11:25:16Z</time>
      </trkpt>
      <trkpt lat="45.19316" lon="5.96752">
        <ele>1927.5</ele>
        <time>2026-07-14T11:25:17Z</time>
      </trkpt>
      <trkpt lat="45.19316" lon="5.96752">
        <ele>1927.5</ele>
        <time>2026-07-14T11:25:18Z</time>
      </trkpt>
      <trkpt lat="45.19316" lon="5.96752">
        <ele>1927.5</ele>
        <time>2026-07-14T11:25:19Z</time>
      </trkpt>
      <trkpt lat="45.19316" lon="5.96752">
        <ele>1927.5</ele>
        <time>2026-07-14T11:25:20Z</time>
      </trkpt>
      <trkpt lat="45.19317" lon="5.96751">
        <ele>1927.5</ele>
        <time>2026-07-14T11:25:21Z</time>
      </trkpt>
      <trkpt lat="45.19317" lon="5.96751">
        <ele>1927.5</ele>
        <time>2026-07-14T11:25:22Z</time>
      </trkpt>
      <trkpt lat="45.19317" lon="5.96751">
        <ele>1927.5</ele>
        <time>2026-07-14T11:25:23Z</time>
      </trkpt>
      <trkpt lat="45.19317" lon="5.96751">
        <ele>1927.5</ele>
        <time>2026-07-14T11:25:24Z</time>
      </trkpt>
      <trkpt lat="45.19317" lon="5.96751">
        <ele>1927.5</ele>
        <time>2026-07-14T11:25:25Z</time>
      </trkpt>
      <trkpt lat="45.19317" lon="5.96751">
        <ele>1927.5</ele>
        <time>2026-07-14T11:25:26Z</time>
      </trkpt>
      <trkpt lat="45.19317" lon="5.96751">
        <ele>1927.5</ele>
        <time>2026-07-14T11:25:27Z</time>
      </trkpt>
      <trkpt lat="45.19317" lon="5.96751">
        <ele>1927.5</ele>
        <time>2026-07-14T11:25:28Z</time>
      </trkpt>
      <trkpt lat="45.19317" lon="5.96751">
        <ele>1927.5</ele>
        <time>2026-07-14T11:25:29Z</time>
      </trkpt>
      <trkpt lat="45.19317" lon="5.96751">
        <ele>1927.5</ele>
        <time>2026-07-14T11:25:30Z</time>
      </trkpt>
      <trkpt lat="45.19318" lon="5.96751">
        <ele>1927.6</ele>
        <time>2026-07-14T11:25:31Z</time>
      </trkpt>
      <trkpt lat="45.19318" lon="5.96751">
        <ele>1927.6</ele>
        <time>2026-07-14T11:25:32Z</time>
      </trkpt>
      <trkpt lat="45.19318" lon="5.96751">
        <ele>1927.6</ele>
        <time>2026-07-14T11:25:33Z</time>
      </trkpt>
      <trkpt lat="45.19318" lon="5.96751">
        <ele>1927.6</ele>
        <time>2026-07-14T11:25:34Z</time>
      </trkpt>
      <trkpt lat="45.19318" lon="5.96751">
        <ele>1927.6</ele>
        <time>2026-07-14T11:25:35Z</time>
      </trkpt>
      <trkpt lat="45.19318" lon="5.96751">
        <ele>1927.6</ele>
        <time>2026-07-14T11:25:36Z</time>
      </trkpt>
      <trkpt lat="45.19318" lon="5.96751">
        <ele>1927.6</ele>
        <time>2026-07-14T11:25:37Z</time>
      </trkpt>
      <trkpt lat="45.19318" lon="5.96751">
        <ele>1927.6</ele>
        <time>2026-07-14T11:25:38Z</time>
      </trkpt>
      <trkpt lat="45.19318" lon="5.96751">
        <ele>1927.6</ele>
        <time>2026-07-14T11:25:39Z</time>
      </trkpt>
      <trkpt lat="45.19318" lon="5.96751">
        <ele>1927.6</ele>
        <time>2026-07-14T11:25:40Z</time>
      </trkpt>
      <trkpt lat="45.19318" lon="5.96751">
        <ele>1927.6</ele>
        <time>2026-07-14T11:25:41Z</time>
      </trkpt>
      <trkpt lat="45.19318" lon="5.96751">
        <ele>1927.6</ele>
        <time>2026-07-14T11:25:42Z</time>
      </trkpt>
      <trkpt lat="45.19318" lon="5.96751">
        <ele>1927.6</ele>
        <time>2026-07-14T11:25:43Z</time>
      </trkpt>
      <trkpt lat="45.19319" lon="5.96751">
        <ele>1927.6</ele>
        <time>2026-07-14T11:25:44Z</time>
      </trkpt>
      <trkpt lat="45.19319" lon="5.96751">
        <ele>1927.6</ele>
        <time>2026-07-14T11:25:45Z</time>
      </trkpt>
      <trkpt lat="45.19319" lon="5.96751">
        <ele>1927.6</ele>
        <time>2026-07-14T11:25:46Z</time>
      </trkpt>
      <trkpt lat="45.19319" lon="5.96751">
        <ele>1927.6</ele>
        <time>2026-07-14T11:25:47Z</time>
      </trkpt>
      <trkpt lat="45.19319" lon="5.96751">
        <ele>1927.6</ele>
        <time>2026-07-14T11:25:48Z</time>
      </trkpt>
      <trkpt lat="45.1932" lon="5.96751">
        <ele>1927.6</ele>
        <time>2026-07-14T11:25:49Z</time>
      </trkpt>
      <trkpt lat="45.1932" lon="5.96751">
        <ele>1927.6</ele>
        <time>2026-07-14T11:25:50Z</time>
      </trkpt>
      <trkpt lat="45.1932" lon="5.96751">
        <ele>1927.6</ele>
        <time>2026-07-14T11:25:51Z</time>
      </trkpt>
      <trkpt lat="45.1932" lon="5.96751">
        <ele>1927.6</ele>
        <time>2026-07-14T11:25:52Z</time>
      </trkpt>
      <trkpt lat="45.1932" lon="5.96751">
        <ele>1927.6</ele>
        <time>2026-07-14T11:25:53Z</time>
      </trkpt>
      <trkpt lat="45.1932" lon="5.96751">
        <ele>1927.7</ele>
        <time>2026-07-14T11:25:54Z</time>
      </trkpt>
      <trkpt lat="45.1932" lon="5.96751">
        <ele>1927.7</ele>
        <time>2026-07-14T11:25:55Z</time>
      </trkpt>
      <trkpt lat="45.1932" lon="5.96751">
        <ele>1927.7</ele>
        <time>2026-07-14T11:25:56Z</time>
      </trkpt>
      <trkpt lat="45.1932" lon="5.96751">
        <ele>1927.7</ele>
        <time>2026-07-14T11:25:57Z</time>
      </trkpt>
      <trkpt lat="45.1932" lon="5.96751">
        <ele>1927.7</ele>
        <time>2026-07-14T11:25:58Z</time>
      </trkpt>
      <trkpt lat="45.19321" lon="5.96751">
        <ele>1927.7</ele>
        <time>2026-07-14T11:25:59Z</time>
      </trkpt>
      <trkpt lat="45.19321" lon="5.96751">
        <ele>1927.7</ele>
        <time>2026-07-14T11:26:00Z</time>
      </trkpt>
      <trkpt lat="45.19321" lon="5.96751">
        <ele>1927.7</ele>
        <time>2026-07-14T11:26:01Z</time>
      </trkpt>
      <trkpt lat="45.19321" lon="5.96751">
        <ele>1927.7</ele>
        <time>2026-07-14T11:26:02Z</time>
      </trkpt>
      <trkpt lat="45.19321" lon="5.96751">
        <ele>1927.7</ele>
        <time>2026-07-14T11:26:03Z</time>
      </trkpt>
      <trkpt lat="45.19321" lon="5.96751">
        <ele>1927.7</ele>
        <time>2026-07-14T11:26:04Z</time>
      </trkpt>
      <trkpt lat="45.19321" lon="5.96751">
        <ele>1927.7</ele>
        <time>2026-07-14T11:26:05Z</time>
      </trkpt>
      <trkpt lat="45.19321" lon="5.96751">
        <ele>1927.7</ele>
        <time>2026-07-14T11:26:06Z</time>
      </trkpt>
      <trkpt lat="45.19321" lon="5.96751">
        <ele>1927.7</ele>
        <time>2026-07-14T11:26:07Z</time>
      </trkpt>
      <trkpt lat="45.19321" lon="5.96751">
        <ele>1927.7</ele>
        <time>2026-07-14T11:26:08Z</time>
      </trkpt>
      <trkpt lat="45.19321" lon="5.96751">
        <ele>1927.7</ele>
        <time>2026-07-14T11:26:09Z</time>
      </trkpt>
      <trkpt lat="45.19321" lon="5.96751">
        <ele>1927.7</ele>
        <time>2026-07-14T11:26:10Z</time>
      </trkpt>
      <trkpt lat="45.19321" lon="5.96751">
        <ele>1927.7</ele>
        <time>2026-07-14T11:26:11Z</time>
      </trkpt>
      <trkpt lat="45.19321" lon="5.96751">
        <ele>1927.7</ele>
        <time>2026-07-14T11:26:12Z</time>
      </trkpt>
      <trkpt lat="45.19321" lon="5.96751">
        <ele>1927.7</ele>
        <time>2026-07-14T11:26:13Z</time>
      </trkpt>
      <trkpt lat="45.19321" lon="5.96751">
        <ele>1927.7</ele>
        <time>2026-07-14T11:26:14Z</time>
      </trkpt>
      <trkpt lat="45.19321" lon="5.96751">
        <ele>1927.7</ele>
        <time>2026-07-14T11:26:15Z</time>
      </trkpt>
      <trkpt lat="45.19321" lon="5.96751">
        <ele>1927.7</ele>
        <time>2026-07-14T11:26:16Z</time>
      </trkpt>
      <trkpt lat="45.19321" lon="5.96751">
        <ele>1927.7</ele>
        <time>2026-07-14T11:26:17Z</time>
      </trkpt>
      <trkpt lat="45.19321" lon="5.96751">
        <ele>1927.7</ele>
        <time>2026-07-14T11:26:18Z</time>
      </trkpt>
      <trkpt lat="45.19321" lon="5.96751">
        <ele>1927.7</ele>
        <time>2026-07-14T11:26:19Z</time>
      </trkpt>
      <trkpt lat="45.19321" lon="5.96751">
        <ele>1927.7</ele>
        <time>2026-07-14T11:26:20Z</time>
      </trkpt>
      <trkpt lat="45.19321" lon="5.96751">
        <ele>1927.7</ele>
        <time>2026-07-14T11:26:21Z</time>
      </trkpt>
      <trkpt lat="45.19321" lon="5.96751">
        <ele>1927.7</ele>
        <time>2026-07-14T11:26:22Z</time>
      </trkpt>
      <trkpt lat="45.19321" lon="5.96751">
        <ele>1927.7</ele>
        <time>2026-07-14T11:26:23Z</time>
      </trkpt>
      <trkpt lat="45.19321" lon="5.96751">
        <ele>1927.7</ele>
        <time>2026-07-14T11:26:24Z</time>
      </trkpt>
      <trkpt lat="45.19321" lon="5.96751">
        <ele>1927.7</ele>
        <time>2026-07-14T11:26:25Z</time>
      </trkpt>
      <trkpt lat="45.19321" lon="5.96751">
        <ele>1927.7</ele>
        <time>2026-07-14T11:26:26Z</time>
      </trkpt>
      <trkpt lat="45.19321" lon="5.96751">
        <ele>1927.7</ele>
        <time>2026-07-14T11:26:27Z</time>
      </trkpt>
      <trkpt lat="45.19321" lon="5.96751">
        <ele>1927.7</ele>
        <time>2026-07-14T11:26:28Z</time>
      </trkpt>
      <trkpt lat="45.19321" lon="5.96751">
        <ele>1927.7</ele>
        <time>2026-07-14T11:26:29Z</time>
      </trkpt>
      <trkpt lat="45.19321" lon="5.96751">
        <ele>1927.7</ele>
        <time>2026-07-14T11:26:30Z</time>
      </trkpt>
      <trkpt lat="45.19321" lon="5.96751">
        <ele>1927.7</ele>
        <time>2026-07-14T11:26:31Z</time>
      </trkpt>
      <trkpt lat="45.19321" lon="5.96751">
        <ele>1927.7</ele>
        <time>2026-07-14T11:26:32Z</time>
      </trkpt>
      <trkpt lat="45.19322" lon="5.9675">
        <ele>1927.8</ele>
        <time>2026-07-14T11:26:33Z</time>
      </trkpt>
      <trkpt lat="45.19322" lon="5.9675">
        <ele>1927.8</ele>
        <time>2026-07-14T11:26:34Z</time>
      </trkpt>
      <trkpt lat="45.19322" lon="5.9675">
        <ele>1927.8</ele>
        <time>2026-07-14T11:26:35Z</time>
      </trkpt>
      <trkpt lat="45.19322" lon="5.9675">
        <ele>1927.8</ele>
        <time>2026-07-14T11:26:36Z</time>
      </trkpt>
      <trkpt lat="45.19322" lon="5.9675">
        <ele>1927.8</ele>
        <time>2026-07-14T11:26:37Z</time>
      </trkpt>
      <trkpt lat="45.19322" lon="5.9675">
        <ele>1927.8</ele>
        <time>2026-07-14T11:26:38Z</time>
      </trkpt>
      <trkpt lat="45.19322" lon="5.9675">
        <ele>1927.8</ele>
        <time>2026-07-14T11:26:39Z</time>
      </trkpt>
      <trkpt lat="45.19322" lon="5.9675">
        <ele>1927.8</ele>
        <time>2026-07-14T11:26:40Z</time>
      </trkpt>
      <trkpt lat="45.19322" lon="5.9675">
        <ele>1927.8</ele>
        <time>2026-07-14T11:26:41Z</time>
      </trkpt>
      <trkpt lat="45.19322" lon="5.9675">
        <ele>1927.8</ele>
        <time>2026-07-14T11:26:42Z</time>
      </trkpt>
      <trkpt lat="45.19322" lon="5.9675">
        <ele>1927.8</ele>
        <time>2026-07-14T11:26:43Z</time>
      </trkpt>
      <trkpt lat="45.19322" lon="5.9675">
        <ele>1927.8</ele>
        <time>2026-07-14T11:26:44Z</time>
      </trkpt>
      <trkpt lat="45.19322" lon="5.9675">
        <ele>1927.8</ele>
        <time>2026-07-14T11:26:45Z</time>
      </trkpt>
      <trkpt lat="45.19322" lon="5.9675">
        <ele>1927.8</ele>
        <time>2026-07-14T11:26:46Z</time>
      </trkpt>
      <trkpt lat="45.19322" lon="5.9675">
        <ele>1927.8</ele>
        <time>2026-07-14T11:26:47Z</time>
      </trkpt>
      <trkpt lat="45.19322" lon="5.9675">
        <ele>1927.8</ele>
        <time>2026-07-14T11:26:48Z</time>
      </trkpt>
      <trkpt lat="45.19323" lon="5.9675">
        <ele>1927.8</ele>
        <time>2026-07-14T11:26:49Z</time>
      </trkpt>
      <trkpt lat="45.19323" lon="5.9675">
        <ele>1927.8</ele>
        <time>2026-07-14T11:26:50Z</time>
      </trkpt>
      <trkpt lat="45.19323" lon="5.9675">
        <ele>1927.8</ele>
        <time>2026-07-14T11:26:51Z</time>
      </trkpt>
      <trkpt lat="45.19323" lon="5.9675">
        <ele>1927.8</ele>
        <time>2026-07-14T11:26:52Z</time>
      </trkpt>
      <trkpt lat="45.19323" lon="5.9675">
        <ele>1927.8</ele>
        <time>2026-07-14T11:26:53Z</time>
      </trkpt>
      <trkpt lat="45.19323" lon="5.9675">
        <ele>1927.8</ele>
        <time>2026-07-14T11:26:54Z</time>
      </trkpt>
      <trkpt lat="45.19323" lon="5.9675">
        <ele>1927.8</ele>
        <time>2026-07-14T11:26:55Z</time>
      </trkpt>
      <trkpt lat="45.19323" lon="5.9675">
        <ele>1927.8</ele>
        <time>2026-07-14T11:26:56Z</time>
      </trkpt>
      <trkpt lat="45.19323" lon="5.9675">
        <ele>1927.8</ele>
        <time>2026-07-14T11:26:57Z</time>
      </trkpt>
      <trkpt lat="45.19323" lon="5.9675">
        <ele>1927.8</ele>
        <time>2026-07-14T11:26:58Z</time>
      </trkpt>
      <trkpt lat="45.19323" lon="5.9675">
        <ele>1927.8</ele>
        <time>2026-07-14T11:26:59Z</time>
      </trkpt>
      <trkpt lat="45.19323" lon="5.9675">
        <ele>1927.8</ele>
        <time>2026-07-14T11:27:00Z</time>
      </trkpt>
      <trkpt lat="45.19323" lon="5.9675">
        <ele>1927.8</ele>
        <time>2026-07-14T11:27:01Z</time>
      </trkpt>
      <trkpt lat="45.19323" lon="5.9675">
        <ele>1927.8</ele>
        <time>2026-07-14T11:27:02Z</time>
      </trkpt>
      <trkpt lat="45.19323" lon="5.9675">
        <ele>1927.8</ele>
        <time>2026-07-14T11:27:03Z</time>
      </trkpt>
      <trkpt lat="45.19323" lon="5.9675">
        <ele>1927.8</ele>
        <time>2026-07-14T11:27:04Z</time>
      </trkpt>
      <trkpt lat="45.19323" lon="5.9675">
        <ele>1927.8</ele>
        <time>2026-07-14T11:27:05Z</time>
      </trkpt>
      <trkpt lat="45.19323" lon="5.9675">
        <ele>1927.8</ele>
        <time>2026-07-14T11:27:06Z</time>
      </trkpt>
      <trkpt lat="45.19323" lon="5.9675">
        <ele>1927.8</ele>
        <time>2026-07-14T11:27:07Z</time>
      </trkpt>
      <trkpt lat="45.19323" lon="5.9675">
        <ele>1927.8</ele>
        <time>2026-07-14T11:27:08Z</time>
      </trkpt>
      <trkpt lat="45.19323" lon="5.9675">
        <ele>1927.8</ele>
        <time>2026-07-14T11:27:09Z</time>
      </trkpt>
      <trkpt lat="45.19323" lon="5.9675">
        <ele>1927.8</ele>
        <time>2026-07-14T11:27:10Z</time>
      </trkpt>
      <trkpt lat="45.19323" lon="5.9675">
        <ele>1927.8</ele>
        <time>2026-07-14T11:27:11Z</time>
      </trkpt>
      <trkpt lat="45.19323" lon="5.9675">
        <ele>1927.8</ele>
        <time>2026-07-14T11:27:12Z</time>
      </trkpt>
      <trkpt lat="45.19323" lon="5.9675">
        <ele>1927.8</ele>
        <time>2026-07-14T11:27:13Z</time>
      </trkpt>
      <trkpt lat="45.19323" lon="5.9675">
        <ele>1927.8</ele>
        <time>2026-07-14T11:27:14Z</time>
      </trkpt>
      <trkpt lat="45.19324" lon="5.9675">
        <ele>1927.9</ele>
        <time>2026-07-14T11:27:15Z</time>
      </trkpt>
      <trkpt lat="45.19324" lon="5.9675">
        <ele>1927.9</ele>
        <time>2026-07-14T11:27:16Z</time>
      </trkpt>
      <trkpt lat="45.19324" lon="5.9675">
        <ele>1927.9</ele>
        <time>2026-07-14T11:27:17Z</time>
      </trkpt>
      <trkpt lat="45.19324" lon="5.9675">
        <ele>1927.9</ele>
        <time>2026-07-14T11:27:18Z</time>
      </trkpt>
      <trkpt lat="45.19324" lon="5.9675">
        <ele>1927.9</ele>
        <time>2026-07-14T11:27:19Z</time>
      </trkpt>
      <trkpt lat="45.19324" lon="5.9675">
        <ele>1927.9</ele>
        <time>2026-07-14T11:27:20Z</time>
      </trkpt>
      <trkpt lat="45.19324" lon="5.9675">
        <ele>1927.9</ele>
        <time>2026-07-14T11:27:21Z</time>
      </trkpt>
      <trkpt lat="45.19324" lon="5.9675">
        <ele>1927.9</ele>
        <time>2026-07-14T11:27:22Z</time>
      </trkpt>
      <trkpt lat="45.19324" lon="5.9675">
        <ele>1927.9</ele>
        <time>2026-07-14T11:27:23Z</time>
      </trkpt>
      <trkpt lat="45.19324" lon="5.9675">
        <ele>1927.9</ele>
        <time>2026-07-14T11:27:24Z</time>
      </trkpt>
      <trkpt lat="45.19324" lon="5.9675">
        <ele>1927.9</ele>
        <time>2026-07-14T11:27:25Z</time>
      </trkpt>
      <trkpt lat="45.19324" lon="5.9675">
        <ele>1927.9</ele>
        <time>2026-07-14T11:27:26Z</time>
      </trkpt>
      <trkpt lat="45.19324" lon="5.9675">
        <ele>1927.9</ele>
        <time>2026-07-14T11:27:27Z</time>
      </trkpt>
      <trkpt lat="45.19324" lon="5.9675">
        <ele>1927.9</ele>
        <time>2026-07-14T11:27:28Z</time>
      </trkpt>
      <trkpt lat="45.19324" lon="5.9675">
        <ele>1927.9</ele>
        <time>2026-07-14T11:27:29Z</time>
      </trkpt>
      <trkpt lat="45.19324" lon="5.9675">
        <ele>1927.9</ele>
        <time>2026-07-14T11:27:30Z</time>
      </trkpt>
      <trkpt lat="45.19324" lon="5.9675">
        <ele>1927.9</ele>
        <time>2026-07-14T11:27:31Z</time>
      </trkpt>
      <trkpt lat="45.19324" lon="5.9675">
        <ele>1927.9</ele>
        <time>2026-07-14T11:27:32Z</time>
      </trkpt>
      <trkpt lat="45.19325" lon="5.9675">
        <ele>1927.9</ele>
        <time>2026-07-14T11:27:33Z</time>
      </trkpt>
      <trkpt lat="45.19325" lon="5.9675">
        <ele>1927.9</ele>
        <time>2026-07-14T11:27:34Z</time>
      </trkpt>
      <trkpt lat="45.19325" lon="5.9675">
        <ele>1927.9</ele>
        <time>2026-07-14T11:27:35Z</time>
      </trkpt>
      <trkpt lat="45.19325" lon="5.9675">
        <ele>1927.9</ele>
        <time>2026-07-14T11:27:36Z</time>
      </trkpt>
      <trkpt lat="45.19325" lon="5.9675">
        <ele>1927.9</ele>
        <time>2026-07-14T11:27:37Z</time>
      </trkpt>
      <trkpt lat="45.19325" lon="5.9675">
        <ele>1927.9</ele>
        <time>2026-07-14T11:27:38Z</time>
      </trkpt>
      <trkpt lat="45.19326" lon="5.9675">
        <ele>1928</ele>
        <time>2026-07-14T11:27:39Z</time>
      </trkpt>
      <trkpt lat="45.19326" lon="5.9675">
        <ele>1928</ele>
        <time>2026-07-14T11:27:40Z</time>
      </trkpt>
      <trkpt lat="45.19326" lon="5.9675">
        <ele>1928</ele>
        <time>2026-07-14T11:27:41Z</time>
      </trkpt>
      <trkpt lat="45.19326" lon="5.9675">
        <ele>1928</ele>
        <time>2026-07-14T11:27:42Z</time>
      </trkpt>
      <trkpt lat="45.19326" lon="5.9675">
        <ele>1928</ele>
        <time>2026-07-14T11:27:43Z</time>
      </trkpt>
      <trkpt lat="45.19326" lon="5.96749">
        <ele>1928</ele>
        <time>2026-07-14T11:27:44Z</time>
      </trkpt>
      <trkpt lat="45.19326" lon="5.96749">
        <ele>1928</ele>
        <time>2026-07-14T11:27:45Z</time>
      </trkpt>
      <trkpt lat="45.19326" lon="5.96749">
        <ele>1928</ele>
        <time>2026-07-14T11:27:46Z</time>
      </trkpt>
      <trkpt lat="45.19326" lon="5.96749">
        <ele>1928</ele>
        <time>2026-07-14T11:27:48Z</time>
      </trkpt>
      <trkpt lat="45.19326" lon="5.96749">
        <ele>1928</ele>
        <time>2026-07-14T11:27:49Z</time>
      </trkpt>
      <trkpt lat="45.19326" lon="5.96749">
        <ele>1928</ele>
        <time>2026-07-14T11:27:50Z</time>
      </trkpt>
      <trkpt lat="45.19326" lon="5.96749">
        <ele>1928</ele>
        <time>2026-07-14T11:27:51Z</time>
      </trkpt>
      <trkpt lat="45.19326" lon="5.96749">
        <ele>1928</ele>
        <time>2026-07-14T11:27:52Z</time>
      </trkpt>
      <trkpt lat="45.19326" lon="5.96749">
        <ele>1928</ele>
        <time>2026-07-14T11:27:53Z</time>
      </trkpt>
      <trkpt lat="45.19326" lon="5.96749">
        <ele>1928</ele>
        <time>2026-07-14T11:27:54Z</time>
      </trkpt>
      <trkpt lat="45.19326" lon="5.96749">
        <ele>1928</ele>
        <time>2026-07-14T11:27:55Z</time>
      </trkpt>
      <trkpt lat="45.19326" lon="5.96749">
        <ele>1928</ele>
        <time>2026-07-14T11:27:56Z</time>
      </trkpt>
      <trkpt lat="45.19326" lon="5.96749">
        <ele>1928</ele>
        <time>2026-07-14T11:27:57Z</time>
      </trkpt>
      <trkpt lat="45.19326" lon="5.96749">
        <ele>1928</ele>
        <time>2026-07-14T11:27:58Z</time>
      </trkpt>
      <trkpt lat="45.19326" lon="5.96749">
        <ele>1928</ele>
        <time>2026-07-14T11:27:59Z</time>
      </trkpt>
      <trkpt lat="45.19327" lon="5.96749">
        <ele>1928</ele>
        <time>2026-07-14T11:28:00Z</time>
      </trkpt>
      <trkpt lat="45.19327" lon="5.96749">
        <ele>1928</ele>
        <time>2026-07-14T11:28:01Z</time>
      </trkpt>
      <trkpt lat="45.19327" lon="5.96749">
        <ele>1928</ele>
        <time>2026-07-14T11:28:02Z</time>
      </trkpt>
      <trkpt lat="45.19327" lon="5.96749">
        <ele>1928</ele>
        <time>2026-07-14T11:28:03Z</time>
      </trkpt>
      <trkpt lat="45.19327" lon="5.96749">
        <ele>1928</ele>
        <time>2026-07-14T11:28:04Z</time>
      </trkpt>
      <trkpt lat="45.19327" lon="5.96749">
        <ele>1928</ele>
        <time>2026-07-14T11:28:05Z</time>
      </trkpt>
      <trkpt lat="45.19327" lon="5.96749">
        <ele>1928</ele>
        <time>2026-07-14T11:28:06Z</time>
      </trkpt>
      <trkpt lat="45.19327" lon="5.96749">
        <ele>1928</ele>
        <time>2026-07-14T11:28:07Z</time>
      </trkpt>
      <trkpt lat="45.19327" lon="5.96749">
        <ele>1928</ele>
        <time>2026-07-14T11:28:08Z</time>
      </trkpt>
      <trkpt lat="45.19327" lon="5.96749">
        <ele>1928</ele>
        <time>2026-07-14T11:28:09Z</time>
      </trkpt>
      <trkpt lat="45.19327" lon="5.96749">
        <ele>1928</ele>
        <time>2026-07-14T11:28:10Z</time>
      </trkpt>
      <trkpt lat="45.19327" lon="5.96749">
        <ele>1928</ele>
        <time>2026-07-14T11:28:11Z</time>
      </trkpt>
      <trkpt lat="45.19327" lon="5.96749">
        <ele>1928</ele>
        <time>2026-07-14T11:28:12Z</time>
      </trkpt>
      <trkpt lat="45.19327" lon="5.96749">
        <ele>1928</ele>
        <time>2026-07-14T11:28:13Z</time>
      </trkpt>
      <trkpt lat="45.19327" lon="5.96749">
        <ele>1928</ele>
        <time>2026-07-14T11:28:14Z</time>
      </trkpt>
      <trkpt lat="45.19327" lon="5.96749">
        <ele>1928</ele>
        <time>2026-07-14T11:28:16Z</time>
      </trkpt>
      <trkpt lat="45.19327" lon="5.96749">
        <ele>1928</ele>
        <time>2026-07-14T11:28:17Z</time>
      </trkpt>
      <trkpt lat="45.19327" lon="5.96749">
        <ele>1928</ele>
        <time>2026-07-14T11:28:18Z</time>
      </trkpt>
      <trkpt lat="45.19327" lon="5.96749">
        <ele>1928</ele>
        <time>2026-07-14T11:28:19Z</time>
      </trkpt>
      <trkpt lat="45.19327" lon="5.96749">
        <ele>1928</ele>
        <time>2026-07-14T11:28:20Z</time>
      </trkpt>
      <trkpt lat="45.19327" lon="5.96749">
        <ele>1928</ele>
        <time>2026-07-14T11:28:21Z</time>
      </trkpt>
      <trkpt lat="45.19327" lon="5.96749">
        <ele>1928</ele>
        <time>2026-07-14T11:28:23Z</time>
      </trkpt>
      <trkpt lat="45.19327" lon="5.96749">
        <ele>1928</ele>
        <time>2026-07-14T11:28:24Z</time>
      </trkpt>
      <trkpt lat="45.19327" lon="5.96749">
        <ele>1928</ele>
        <time>2026-07-14T11:28:25Z</time>
      </trkpt>
      <trkpt lat="45.19327" lon="5.96749">
        <ele>1928</ele>
        <time>2026-07-14T11:28:26Z</time>
      </trkpt>
      <trkpt lat="45.19327" lon="5.96749">
        <ele>1928</ele>
        <time>2026-07-14T11:28:27Z</time>
      </trkpt>
      <trkpt lat="45.19327" lon="5.96749">
        <ele>1928</ele>
        <time>2026-07-14T11:28:28Z</time>
      </trkpt>
      <trkpt lat="45.19327" lon="5.96749">
        <ele>1928</ele>
        <time>2026-07-14T11:28:29Z</time>
      </trkpt>
      <trkpt lat="45.19327" lon="5.96749">
        <ele>1928</ele>
        <time>2026-07-14T11:28:30Z</time>
      </trkpt>
      <trkpt lat="45.19327" lon="5.96749">
        <ele>1928</ele>
        <time>2026-07-14T11:28:31Z</time>
      </trkpt>
      <trkpt lat="45.19327" lon="5.96749">
        <ele>1928</ele>
        <time>2026-07-14T11:28:32Z</time>
      </trkpt>
      <trkpt lat="45.19327" lon="5.96749">
        <ele>1928</ele>
        <time>2026-07-14T11:28:33Z</time>
      </trkpt>
      <trkpt lat="45.19327" lon="5.96749">
        <ele>1928</ele>
        <time>2026-07-14T11:28:34Z</time>
      </trkpt>
      <trkpt lat="45.19327" lon="5.96749">
        <ele>1928</ele>
        <time>2026-07-14T11:28:35Z</time>
      </trkpt>
      <trkpt lat="45.19327" lon="5.96749">
        <ele>1928</ele>
        <time>2026-07-14T11:28:36Z</time>
      </trkpt>
      <trkpt lat="45.19327" lon="5.96749">
        <ele>1928.1</ele>
        <time>2026-07-14T11:28:37Z</time>
      </trkpt>
      <trkpt lat="45.19327" lon="5.96749">
        <ele>1928.1</ele>
        <time>2026-07-14T11:28:38Z</time>
      </trkpt>
      <trkpt lat="45.19327" lon="5.96749">
        <ele>1928.1</ele>
        <time>2026-07-14T11:28:39Z</time>
      </trkpt>
      <trkpt lat="45.19327" lon="5.96749">
        <ele>1928.1</ele>
        <time>2026-07-14T11:28:40Z</time>
      </trkpt>
      <trkpt lat="45.19327" lon="5.96749">
        <ele>1928.1</ele>
        <time>2026-07-14T11:28:41Z</time>
      </trkpt>
      <trkpt lat="45.19327" lon="5.96749">
        <ele>1928.1</ele>
        <time>2026-07-14T11:28:42Z</time>
      </trkpt>
      <trkpt lat="45.19327" lon="5.96749">
        <ele>1928.1</ele>
        <time>2026-07-14T11:28:43Z</time>
      </trkpt>
      <trkpt lat="45.19327" lon="5.96749">
        <ele>1928.1</ele>
        <time>2026-07-14T11:28:44Z</time>
      </trkpt>
      <trkpt lat="45.19327" lon="5.96749">
        <ele>1928.1</ele>
        <time>2026-07-14T11:28:45Z</time>
      </trkpt>
      <trkpt lat="45.19327" lon="5.96749">
        <ele>1928.1</ele>
        <time>2026-07-14T11:28:46Z</time>
      </trkpt>
      <trkpt lat="45.19327" lon="5.96749">
        <ele>1928.1</ele>
        <time>2026-07-14T11:28:47Z</time>
      </trkpt>
      <trkpt lat="45.19327" lon="5.96749">
        <ele>1928.1</ele>
        <time>2026-07-14T11:28:48Z</time>
      </trkpt>
      <trkpt lat="45.19327" lon="5.96749">
        <ele>1928.1</ele>
        <time>2026-07-14T11:28:49Z</time>
      </trkpt>
      <trkpt lat="45.19327" lon="5.96749">
        <ele>1928.1</ele>
        <time>2026-07-14T11:28:50Z</time>
      </trkpt>
      <trkpt lat="45.19327" lon="5.96749">
        <ele>1928.1</ele>
        <time>2026-07-14T11:28:51Z</time>
      </trkpt>
      <trkpt lat="45.19327" lon="5.96749">
        <ele>1928.1</ele>
        <time>2026-07-14T11:28:52Z</time>
      </trkpt>
      <trkpt lat="45.19327" lon="5.96749">
        <ele>1928.1</ele>
        <time>2026-07-14T11:28:53Z</time>
      </trkpt>
      <trkpt lat="45.19327" lon="5.96749">
        <ele>1928.1</ele>
        <time>2026-07-14T11:28:54Z</time>
      </trkpt>
      <trkpt lat="45.19327" lon="5.96749">
        <ele>1928.1</ele>
        <time>2026-07-14T11:28:55Z</time>
      </trkpt>
      <trkpt lat="45.19327" lon="5.96749">
        <ele>1928.1</ele>
        <time>2026-07-14T11:28:56Z</time>
      </trkpt>
      <trkpt lat="45.19327" lon="5.96749">
        <ele>1928.1</ele>
        <time>2026-07-14T11:28:57Z</time>
      </trkpt>
      <trkpt lat="45.19327" lon="5.96749">
        <ele>1928.1</ele>
        <time>2026-07-14T11:28:58Z</time>
      </trkpt>
      <trkpt lat="45.19327" lon="5.96749">
        <ele>1928.1</ele>
        <time>2026-07-14T11:28:59Z</time>
      </trkpt>
      <trkpt lat="45.19327" lon="5.96749">
        <ele>1928.1</ele>
        <time>2026-07-14T11:29:00Z</time>
      </trkpt>
      <trkpt lat="45.19327" lon="5.96749">
        <ele>1928.1</ele>
        <time>2026-07-14T11:29:01Z</time>
      </trkpt>
      <trkpt lat="45.19327" lon="5.96749">
        <ele>1928.1</ele>
        <time>2026-07-14T11:29:02Z</time>
      </trkpt>
      <trkpt lat="45.19327" lon="5.96749">
        <ele>1928.1</ele>
        <time>2026-07-14T11:29:03Z</time>
      </trkpt>
      <trkpt lat="45.19327" lon="5.96749">
        <ele>1928.1</ele>
        <time>2026-07-14T11:29:04Z</time>
      </trkpt>
      <trkpt lat="45.19327" lon="5.96749">
        <ele>1928.1</ele>
        <time>2026-07-14T11:29:05Z</time>
      </trkpt>
      <trkpt lat="45.19327" lon="5.96749">
        <ele>1928.1</ele>
        <time>2026-07-14T11:29:06Z</time>
      </trkpt>
      <trkpt lat="45.19327" lon="5.96749">
        <ele>1928.1</ele>
        <time>2026-07-14T11:29:07Z</time>
      </trkpt>
      <trkpt lat="45.19327" lon="5.96749">
        <ele>1928.1</ele>
        <time>2026-07-14T11:29:08Z</time>
      </trkpt>
      <trkpt lat="45.19327" lon="5.96749">
        <ele>1928.1</ele>
        <time>2026-07-14T11:29:09Z</time>
      </trkpt>
      <trkpt lat="45.19327" lon="5.96749">
        <ele>1928.1</ele>
        <time>2026-07-14T11:29:10Z</time>
      </trkpt>
      <trkpt lat="45.19327" lon="5.96749">
        <ele>1928.1</ele>
        <time>2026-07-14T11:29:11Z</time>
      </trkpt>
      <trkpt lat="45.19327" lon="5.96749">
        <ele>1928.1</ele>
        <time>2026-07-14T11:29:12Z</time>
      </trkpt>
      <trkpt lat="45.19327" lon="5.96749">
        <ele>1928.1</ele>
        <time>2026-07-14T11:29:13Z</time>
      </trkpt>
      <trkpt lat="45.19327" lon="5.96749">
        <ele>1928.1</ele>
        <time>2026-07-14T11:29:14Z</time>
      </trkpt>
      <trkpt lat="45.19327" lon="5.96749">
        <ele>1928.1</ele>
        <time>2026-07-14T11:29:15Z</time>
      </trkpt>
      <trkpt lat="45.19327" lon="5.96749">
        <ele>1928.1</ele>
        <time>2026-07-14T11:29:16Z</time>
      </trkpt>
      <trkpt lat="45.19327" lon="5.96749">
        <ele>1928.1</ele>
        <time>2026-07-14T11:29:17Z</time>
      </trkpt>
      <trkpt lat="45.19327" lon="5.96749">
        <ele>1928.1</ele>
        <time>2026-07-14T11:29:18Z</time>
      </trkpt>
      <trkpt lat="45.19327" lon="5.96749">
        <ele>1928.1</ele>
        <time>2026-07-14T11:29:19Z</time>
      </trkpt>
      <trkpt lat="45.19327" lon="5.96749">
        <ele>1928.1</ele>
        <time>2026-07-14T11:29:20Z</time>
      </trkpt>
      <trkpt lat="45.19327" lon="5.96749">
        <ele>1928.1</ele>
        <time>2026-07-14T11:29:21Z</time>
      </trkpt>
      <trkpt lat="45.19327" lon="5.96749">
        <ele>1928.1</ele>
        <time>2026-07-14T11:29:22Z</time>
      </trkpt>
      <trkpt lat="45.19328" lon="5.96749">
        <ele>1928.1</ele>
        <time>2026-07-14T11:29:23Z</time>
      </trkpt>
      <trkpt lat="45.19328" lon="5.96749">
        <ele>1928.1</ele>
        <time>2026-07-14T11:29:24Z</time>
      </trkpt>
      <trkpt lat="45.19328" lon="5.96749">
        <ele>1928.1</ele>
        <time>2026-07-14T11:29:25Z</time>
      </trkpt>
      <trkpt lat="45.19328" lon="5.96749">
        <ele>1928.1</ele>
        <time>2026-07-14T11:29:26Z</time>
      </trkpt>
      <trkpt lat="45.19328" lon="5.96749">
        <ele>1928.1</ele>
        <time>2026-07-14T11:29:27Z</time>
      </trkpt>
      <trkpt lat="45.19328" lon="5.96749">
        <ele>1928.1</ele>
        <time>2026-07-14T11:29:28Z</time>
      </trkpt>
      <trkpt lat="45.19328" lon="5.96749">
        <ele>1928.1</ele>
        <time>2026-07-14T11:29:29Z</time>
      </trkpt>
      <trkpt lat="45.19328" lon="5.96749">
        <ele>1928.1</ele>
        <time>2026-07-14T11:29:30Z</time>
      </trkpt>
      <trkpt lat="45.19328" lon="5.96749">
        <ele>1928.1</ele>
        <time>2026-07-14T11:29:31Z</time>
      </trkpt>
      <trkpt lat="45.19328" lon="5.96749">
        <ele>1928.1</ele>
        <time>2026-07-14T11:29:32Z</time>
      </trkpt>
      <trkpt lat="45.19328" lon="5.96749">
        <ele>1928.1</ele>
        <time>2026-07-14T11:29:33Z</time>
      </trkpt>
      <trkpt lat="45.19328" lon="5.96749">
        <ele>1928.1</ele>
        <time>2026-07-14T11:29:34Z</time>
      </trkpt>
      <trkpt lat="45.19328" lon="5.96749">
        <ele>1928.1</ele>
        <time>2026-07-14T11:29:35Z</time>
      </trkpt>
      <trkpt lat="45.19328" lon="5.96749">
        <ele>1928.1</ele>
        <time>2026-07-14T11:29:36Z</time>
      </trkpt>
      <trkpt lat="45.19328" lon="5.96749">
        <ele>1928.1</ele>
        <time>2026-07-14T11:29:37Z</time>
      </trkpt>
      <trkpt lat="45.19328" lon="5.96749">
        <ele>1928.1</ele>
        <time>2026-07-14T11:29:38Z</time>
      </trkpt>
      <trkpt lat="45.19328" lon="5.96749">
        <ele>1928.1</ele>
        <time>2026-07-14T11:29:39Z</time>
      </trkpt>
      <trkpt lat="45.19328" lon="5.96749">
        <ele>1928.1</ele>
        <time>2026-07-14T11:29:40Z</time>
      </trkpt>
      <trkpt lat="45.19328" lon="5.96749">
        <ele>1928.1</ele>
        <time>2026-07-14T11:29:41Z</time>
      </trkpt>
      <trkpt lat="45.19328" lon="5.96749">
        <ele>1928.1</ele>
        <time>2026-07-14T11:29:42Z</time>
      </trkpt>
      <trkpt lat="45.19328" lon="5.96749">
        <ele>1928.1</ele>
        <time>2026-07-14T11:29:43Z</time>
      </trkpt>
      <trkpt lat="45.19328" lon="5.96749">
        <ele>1928.1</ele>
        <time>2026-07-14T11:29:44Z</time>
      </trkpt>
      <trkpt lat="45.19328" lon="5.96749">
        <ele>1928.1</ele>
        <time>2026-07-14T11:29:45Z</time>
      </trkpt>
      <trkpt lat="45.19328" lon="5.96749">
        <ele>1928.1</ele>
        <time>2026-07-14T11:29:46Z</time>
      </trkpt>
      <trkpt lat="45.19328" lon="5.96749">
        <ele>1928.1</ele>
        <time>2026-07-14T11:29:47Z</time>
      </trkpt>
      <trkpt lat="45.19328" lon="5.96749">
        <ele>1928.1</ele>
        <time>2026-07-14T11:29:48Z</time>
      </trkpt>
      <trkpt lat="45.19328" lon="5.96749">
        <ele>1928.1</ele>
        <time>2026-07-14T11:29:49Z</time>
      </trkpt>
      <trkpt lat="45.19328" lon="5.96749">
        <ele>1928.1</ele>
        <time>2026-07-14T11:29:51Z</time>
      </trkpt>
      <trkpt lat="45.19328" lon="5.96749">
        <ele>1928.1</ele>
        <time>2026-07-14T11:29:52Z</time>
      </trkpt>
      <trkpt lat="45.19328" lon="5.96749">
        <ele>1928.1</ele>
        <time>2026-07-14T11:29:53Z</time>
      </trkpt>
      <trkpt lat="45.19328" lon="5.96749">
        <ele>1928.1</ele>
        <time>2026-07-14T11:29:54Z</time>
      </trkpt>
      <trkpt lat="45.19328" lon="5.96749">
        <ele>1928.1</ele>
        <time>2026-07-14T11:29:55Z</time>
      </trkpt>
      <trkpt lat="45.19328" lon="5.96749">
        <ele>1928.1</ele>
        <time>2026-07-14T11:29:56Z</time>
      </trkpt>
      <trkpt lat="45.19328" lon="5.96749">
        <ele>1928.1</ele>
        <time>2026-07-14T11:29:57Z</time>
      </trkpt>
      <trkpt lat="45.19328" lon="5.96749">
        <ele>1928.1</ele>
        <time>2026-07-14T11:29:59Z</time>
      </trkpt>
      <trkpt lat="45.19328" lon="5.96749">
        <ele>1928.1</ele>
        <time>2026-07-14T11:30:00Z</time>
      </trkpt>
      <trkpt lat="45.19328" lon="5.96749">
        <ele>1928.1</ele>
        <time>2026-07-14T11:30:01Z</time>
      </trkpt>
      <trkpt lat="45.19328" lon="5.96749">
        <ele>1928.1</ele>
        <time>2026-07-14T11:30:02Z</time>
      </trkpt>
      <trkpt lat="45.19328" lon="5.96749">
        <ele>1928.1</ele>
        <time>2026-07-14T11:30:03Z</time>
      </trkpt>
      <trkpt lat="45.19328" lon="5.96749">
        <ele>1928.1</ele>
        <time>2026-07-14T11:30:04Z</time>
      </trkpt>
      <trkpt lat="45.19328" lon="5.96749">
        <ele>1928.1</ele>
        <time>2026-07-14T11:30:05Z</time>
      </trkpt>
      <trkpt lat="45.19328" lon="5.96749">
        <ele>1928.1</ele>
        <time>2026-07-14T11:30:06Z</time>
      </trkpt>
      <trkpt lat="45.19328" lon="5.96749">
        <ele>1928.1</ele>
        <time>2026-07-14T11:30:07Z</time>
      </trkpt>
      <trkpt lat="45.19328" lon="5.96749">
        <ele>1928.1</ele>
        <time>2026-07-14T11:30:08Z</time>
      </trkpt>
      <trkpt lat="45.19328" lon="5.96749">
        <ele>1928.1</ele>
        <time>2026-07-14T11:30:09Z</time>
      </trkpt>
      <trkpt lat="45.19328" lon="5.96749">
        <ele>1928.1</ele>
        <time>2026-07-14T11:30:10Z</time>
      </trkpt>
      <trkpt lat="45.19328" lon="5.96749">
        <ele>1928.1</ele>
        <time>2026-07-14T11:30:11Z</time>
      </trkpt>
      <trkpt lat="45.19328" lon="5.96749">
        <ele>1928.1</ele>
        <time>2026-07-14T11:30:12Z</time>
      </trkpt>
      <trkpt lat="45.19328" lon="5.96749">
        <ele>1928.1</ele>
        <time>2026-07-14T11:30:13Z</time>
      </trkpt>
      <trkpt lat="45.19328" lon="5.96749">
        <ele>1928.1</ele>
        <time>2026-07-14T11:30:15Z</time>
      </trkpt>
      <trkpt lat="45.19328" lon="5.96749">
        <ele>1928.1</ele>
        <time>2026-07-14T11:30:16Z</time>
      </trkpt>
      <trkpt lat="45.19328" lon="5.96749">
        <ele>1928.1</ele>
        <time>2026-07-14T11:30:17Z</time>
      </trkpt>
      <trkpt lat="45.19328" lon="5.96749">
        <ele>1928.1</ele>
        <time>2026-07-14T11:30:18Z</time>
      </trkpt>
      <trkpt lat="45.19328" lon="5.96749">
        <ele>1928.1</ele>
        <time>2026-07-14T11:30:19Z</time>
      </trkpt>
      <trkpt lat="45.19328" lon="5.96749">
        <ele>1928.1</ele>
        <time>2026-07-14T11:30:20Z</time>
      </trkpt>
      <trkpt lat="45.19328" lon="5.96749">
        <ele>1928.1</ele>
        <time>2026-07-14T11:30:21Z</time>
      </trkpt>
      <trkpt lat="45.19328" lon="5.96749">
        <ele>1928.1</ele>
        <time>2026-07-14T11:30:22Z</time>
      </trkpt>
      <trkpt lat="45.19328" lon="5.96749">
        <ele>1928.1</ele>
        <time>2026-07-14T11:30:23Z</time>
      </trkpt>
      <trkpt lat="45.19328" lon="5.96749">
        <ele>1928.1</ele>
        <time>2026-07-14T11:30:24Z</time>
      </trkpt>
      <trkpt lat="45.19328" lon="5.96749">
        <ele>1928.1</ele>
        <time>2026-07-14T11:30:25Z</time>
      </trkpt>
      <trkpt lat="45.19328" lon="5.96749">
        <ele>1928.1</ele>
        <time>2026-07-14T11:30:26Z</time>
      </trkpt>
      <trkpt lat="45.19328" lon="5.96749">
        <ele>1928.1</ele>
        <time>2026-07-14T11:30:27Z</time>
      </trkpt>
      <trkpt lat="45.19328" lon="5.96749">
        <ele>1928.1</ele>
        <time>2026-07-14T11:30:28Z</time>
      </trkpt>
      <trkpt lat="45.19328" lon="5.96749">
        <ele>1928.1</ele>
        <time>2026-07-14T11:30:29Z</time>
      </trkpt>
      <trkpt lat="45.19328" lon="5.96749">
        <ele>1928.1</ele>
        <time>2026-07-14T11:30:30Z</time>
      </trkpt>
      <trkpt lat="45.19329" lon="5.96749">
        <ele>1928.1</ele>
        <time>2026-07-14T11:30:31Z</time>
      </trkpt>
      <trkpt lat="45.19329" lon="5.96749">
        <ele>1928.1</ele>
        <time>2026-07-14T11:30:32Z</time>
      </trkpt>
      <trkpt lat="45.19329" lon="5.96749">
        <ele>1928.1</ele>
        <time>2026-07-14T11:30:33Z</time>
      </trkpt>
      <trkpt lat="45.19329" lon="5.96749">
        <ele>1928.1</ele>
        <time>2026-07-14T11:30:34Z</time>
      </trkpt>
      <trkpt lat="45.19329" lon="5.96749">
        <ele>1928.2</ele>
        <time>2026-07-14T11:30:36Z</time>
      </trkpt>
      <trkpt lat="45.19329" lon="5.96749">
        <ele>1928.2</ele>
        <time>2026-07-14T11:30:37Z</time>
      </trkpt>
      <trkpt lat="45.19329" lon="5.96749">
        <ele>1928.2</ele>
        <time>2026-07-14T11:30:38Z</time>
      </trkpt>
      <trkpt lat="45.19329" lon="5.96749">
        <ele>1928.2</ele>
        <time>2026-07-14T11:30:39Z</time>
      </trkpt>
      <trkpt lat="45.19329" lon="5.96749">
        <ele>1928.2</ele>
        <time>2026-07-14T11:30:40Z</time>
      </trkpt>
      <trkpt lat="45.19329" lon="5.96749">
        <ele>1928.2</ele>
        <time>2026-07-14T11:30:41Z</time>
      </trkpt>
      <trkpt lat="45.19329" lon="5.96749">
        <ele>1928.2</ele>
        <time>2026-07-14T11:30:42Z</time>
      </trkpt>
      <trkpt lat="45.19321" lon="5.96754">
        <ele>1927.5</ele>
        <time>2026-07-14T11:30:45Z</time>
      </trkpt>
      <trkpt lat="45.19321" lon="5.96754">
        <ele>1927.5</ele>
        <time>2026-07-14T11:30:46Z</time>
      </trkpt>
      <trkpt lat="45.19321" lon="5.96754">
        <ele>1927.5</ele>
        <time>2026-07-14T11:30:47Z</time>
      </trkpt>
      <trkpt lat="45.19321" lon="5.96754">
        <ele>1927.5</ele>
        <time>2026-07-14T11:30:48Z</time>
      </trkpt>
      <trkpt lat="45.19321" lon="5.96754">
        <ele>1927.5</ele>
        <time>2026-07-14T11:30:49Z</time>
      </trkpt>
      <trkpt lat="45.19321" lon="5.96754">
        <ele>1927.5</ele>
        <time>2026-07-14T11:30:50Z</time>
      </trkpt>
      <trkpt lat="45.19321" lon="5.96754">
        <ele>1927.5</ele>
        <time>2026-07-14T11:30:51Z</time>
      </trkpt>
      <trkpt lat="45.19321" lon="5.96754">
        <ele>1927.5</ele>
        <time>2026-07-14T11:30:52Z</time>
      </trkpt>
      <trkpt lat="45.19321" lon="5.96754">
        <ele>1927.5</ele>
        <time>2026-07-14T11:30:53Z</time>
      </trkpt>
      <trkpt lat="45.19321" lon="5.96754">
        <ele>1927.5</ele>
        <time>2026-07-14T11:30:54Z</time>
      </trkpt>
      <trkpt lat="45.19321" lon="5.96754">
        <ele>1927.5</ele>
        <time>2026-07-14T11:30:55Z</time>
      </trkpt>
      <trkpt lat="45.19321" lon="5.96754">
        <ele>1927.5</ele>
        <time>2026-07-14T11:30:56Z</time>
      </trkpt>
      <trkpt lat="45.19321" lon="5.96754">
        <ele>1927.5</ele>
        <time>2026-07-14T11:30:57Z</time>
      </trkpt>
      <trkpt lat="45.19321" lon="5.96754">
        <ele>1927.5</ele>
        <time>2026-07-14T11:30:58Z</time>
      </trkpt>
      <trkpt lat="45.19321" lon="5.96754">
        <ele>1927.5</ele>
        <time>2026-07-14T11:30:59Z</time>
      </trkpt>
      <trkpt lat="45.19321" lon="5.96754">
        <ele>1927.5</ele>
        <time>2026-07-14T11:31:00Z</time>
      </trkpt>
      <trkpt lat="45.19321" lon="5.96754">
        <ele>1927.5</ele>
        <time>2026-07-14T11:31:01Z</time>
      </trkpt>
      <trkpt lat="45.19321" lon="5.96754">
        <ele>1927.5</ele>
        <time>2026-07-14T11:31:02Z</time>
      </trkpt>
      <trkpt lat="45.19321" lon="5.96754">
        <ele>1927.5</ele>
        <time>2026-07-14T11:31:03Z</time>
      </trkpt>
      <trkpt lat="45.19321" lon="5.96754">
        <ele>1927.5</ele>
        <time>2026-07-14T11:31:04Z</time>
      </trkpt>
      <trkpt lat="45.19321" lon="5.96754">
        <ele>1927.5</ele>
        <time>2026-07-14T11:31:05Z</time>
      </trkpt>
      <trkpt lat="45.19321" lon="5.96754">
        <ele>1927.5</ele>
        <time>2026-07-14T11:31:06Z</time>
      </trkpt>
      <trkpt lat="45.19321" lon="5.96754">
        <ele>1927.5</ele>
        <time>2026-07-14T11:31:07Z</time>
      </trkpt>
      <trkpt lat="45.19321" lon="5.96754">
        <ele>1927.5</ele>
        <time>2026-07-14T11:31:08Z</time>
      </trkpt>
      <trkpt lat="45.19321" lon="5.96754">
        <ele>1927.5</ele>
        <time>2026-07-14T11:31:09Z</time>
      </trkpt>
      <trkpt lat="45.19321" lon="5.96754">
        <ele>1927.5</ele>
        <time>2026-07-14T11:31:10Z</time>
      </trkpt>
      <trkpt lat="45.19321" lon="5.96754">
        <ele>1927.5</ele>
        <time>2026-07-14T11:31:11Z</time>
      </trkpt>
      <trkpt lat="45.19321" lon="5.96754">
        <ele>1927.5</ele>
        <time>2026-07-14T11:31:12Z</time>
      </trkpt>
      <trkpt lat="45.19321" lon="5.96754">
        <ele>1927.5</ele>
        <time>2026-07-14T11:31:13Z</time>
      </trkpt>
      <trkpt lat="45.19321" lon="5.96754">
        <ele>1927.5</ele>
        <time>2026-07-14T11:31:14Z</time>
      </trkpt>
      <trkpt lat="45.19321" lon="5.96754">
        <ele>1927.5</ele>
        <time>2026-07-14T11:31:15Z</time>
      </trkpt>
      <trkpt lat="45.19321" lon="5.96754">
        <ele>1927.5</ele>
        <time>2026-07-14T11:31:16Z</time>
      </trkpt>
      <trkpt lat="45.19321" lon="5.96754">
        <ele>1927.5</ele>
        <time>2026-07-14T11:31:17Z</time>
      </trkpt>
      <trkpt lat="45.19321" lon="5.96754">
        <ele>1927.5</ele>
        <time>2026-07-14T11:31:20Z</time>
      </trkpt>
      <trkpt lat="45.19321" lon="5.96754">
        <ele>1927.5</ele>
        <time>2026-07-14T11:31:21Z</time>
      </trkpt>
      <trkpt lat="45.1932" lon="5.96739">
        <ele>1926.8</ele>
        <time>2026-07-14T12:03:56Z</time>
      </trkpt>
      <trkpt lat="45.1932" lon="5.96739">
        <ele>1926.8</ele>
        <time>2026-07-14T12:03:57Z</time>
      </trkpt>
      <trkpt lat="45.19322" lon="5.96741">
        <ele>1926.7</ele>
        <time>2026-07-14T12:03:58Z</time>
      </trkpt>
      <trkpt lat="45.19322" lon="5.96742">
        <ele>1926.6</ele>
        <time>2026-07-14T12:03:59Z</time>
      </trkpt>
      <trkpt lat="45.19322" lon="5.96743">
        <ele>1926.6</ele>
        <time>2026-07-14T12:04:00Z</time>
      </trkpt>
      <trkpt lat="45.19322" lon="5.96742">
        <ele>1926.6</ele>
        <time>2026-07-14T12:04:01Z</time>
      </trkpt>
      <trkpt lat="45.19321" lon="5.96742">
        <ele>1926.5</ele>
        <time>2026-07-14T12:04:02Z</time>
      </trkpt>
      <trkpt lat="45.19321" lon="5.96742">
        <ele>1926.5</ele>
        <time>2026-07-14T12:04:03Z</time>
      </trkpt>
      <trkpt lat="45.19321" lon="5.96742">
        <ele>1926.5</ele>
        <time>2026-07-14T12:04:04Z</time>
      </trkpt>
      <trkpt lat="45.19321" lon="5.96742">
        <ele>1926.5</ele>
        <time>2026-07-14T12:04:05Z</time>
      </trkpt>
      <trkpt lat="45.19321" lon="5.96742">
        <ele>1926.5</ele>
        <time>2026-07-14T12:04:06Z</time>
      </trkpt>
      <trkpt lat="45.19321" lon="5.96742">
        <ele>1926.5</ele>
        <time>2026-07-14T12:04:07Z</time>
      </trkpt>
      <trkpt lat="45.19321" lon="5.96742">
        <ele>1926.5</ele>
        <time>2026-07-14T12:04:08Z</time>
      </trkpt>
      <trkpt lat="45.19321" lon="5.96742">
        <ele>1926.5</ele>
        <time>2026-07-14T12:04:09Z</time>
      </trkpt>
      <trkpt lat="45.19321" lon="5.96742">
        <ele>1926.5</ele>
        <time>2026-07-14T12:04:10Z</time>
      </trkpt>
      <trkpt lat="45.19321" lon="5.96743">
        <ele>1926.5</ele>
        <time>2026-07-14T12:04:11Z</time>
      </trkpt>
      <trkpt lat="45.19321" lon="5.96743">
        <ele>1926.5</ele>
        <time>2026-07-14T12:04:12Z</time>
      </trkpt>
      <trkpt lat="45.19321" lon="5.96743">
        <ele>1926.5</ele>
        <time>2026-07-14T12:04:13Z</time>
      </trkpt>
      <trkpt lat="45.19321" lon="5.96743">
        <ele>1926.5</ele>
        <time>2026-07-14T12:04:14Z</time>
      </trkpt>
      <trkpt lat="45.19321" lon="5.96742">
        <ele>1926.5</ele>
        <time>2026-07-14T12:04:15Z</time>
      </trkpt>
      <trkpt lat="45.1932" lon="5.96742">
        <ele>1926.4</ele>
        <time>2026-07-14T12:04:16Z</time>
      </trkpt>
      <trkpt lat="45.1932" lon="5.96742">
        <ele>1926.4</ele>
        <time>2026-07-14T12:04:17Z</time>
      </trkpt>
      <trkpt lat="45.1932" lon="5.96742">
        <ele>1926.4</ele>
        <time>2026-07-14T12:04:18Z</time>
      </trkpt>
      <trkpt lat="45.19321" lon="5.96742">
        <ele>1926.4</ele>
        <time>2026-07-14T12:04:19Z</time>
      </trkpt>
      <trkpt lat="45.19321" lon="5.96742">
        <ele>1926.4</ele>
        <time>2026-07-14T12:04:20Z</time>
      </trkpt>
      <trkpt lat="45.19321" lon="5.96741">
        <ele>1926.4</ele>
        <time>2026-07-14T12:04:21Z</time>
      </trkpt>
      <trkpt lat="45.19321" lon="5.96741">
        <ele>1926.4</ele>
        <time>2026-07-14T12:04:22Z</time>
      </trkpt>
      <trkpt lat="45.19321" lon="5.96741">
        <ele>1926.4</ele>
        <time>2026-07-14T12:04:23Z</time>
      </trkpt>
      <trkpt lat="45.19321" lon="5.96741">
        <ele>1926.4</ele>
        <time>2026-07-14T12:04:24Z</time>
      </trkpt>
      <trkpt lat="45.19321" lon="5.96741">
        <ele>1926.4</ele>
        <time>2026-07-14T12:04:25Z</time>
      </trkpt>
      <trkpt lat="45.19322" lon="5.96742">
        <ele>1926.4</ele>
        <time>2026-07-14T12:04:26Z</time>
      </trkpt>
      <trkpt lat="45.19322" lon="5.96742">
        <ele>1926.4</ele>
        <time>2026-07-14T12:04:27Z</time>
      </trkpt>
      <trkpt lat="45.19322" lon="5.96742">
        <ele>1926.4</ele>
        <time>2026-07-14T12:04:28Z</time>
      </trkpt>
      <trkpt lat="45.19322" lon="5.96742">
        <ele>1926.4</ele>
        <time>2026-07-14T12:04:29Z</time>
      </trkpt>
      <trkpt lat="45.19322" lon="5.96742">
        <ele>1926.3</ele>
        <time>2026-07-14T12:04:30Z</time>
      </trkpt>
      <trkpt lat="45.19322" lon="5.96742">
        <ele>1926.3</ele>
        <time>2026-07-14T12:04:31Z</time>
      </trkpt>
      <trkpt lat="45.19322" lon="5.96742">
        <ele>1926.3</ele>
        <time>2026-07-14T12:04:32Z</time>
      </trkpt>
      <trkpt lat="45.19322" lon="5.96742">
        <ele>1926.3</ele>
        <time>2026-07-14T12:04:33Z</time>
      </trkpt>
      <trkpt lat="45.19322" lon="5.96742">
        <ele>1926.3</ele>
        <time>2026-07-14T12:04:34Z</time>
      </trkpt>
      <trkpt lat="45.19322" lon="5.96742">
        <ele>1926.3</ele>
        <time>2026-07-14T12:04:35Z</time>
      </trkpt>
      <trkpt lat="45.19322" lon="5.96742">
        <ele>1926.3</ele>
        <time>2026-07-14T12:04:36Z</time>
      </trkpt>
      <trkpt lat="45.19322" lon="5.96742">
        <ele>1926.3</ele>
        <time>2026-07-14T12:04:37Z</time>
      </trkpt>
      <trkpt lat="45.19322" lon="5.96742">
        <ele>1926.3</ele>
        <time>2026-07-14T12:04:38Z</time>
      </trkpt>
      <trkpt lat="45.19322" lon="5.96742">
        <ele>1926.3</ele>
        <time>2026-07-14T12:04:39Z</time>
      </trkpt>
      <trkpt lat="45.19322" lon="5.96742">
        <ele>1926.3</ele>
        <time>2026-07-14T12:04:40Z</time>
      </trkpt>
      <trkpt lat="45.19322" lon="5.96742">
        <ele>1926.3</ele>
        <time>2026-07-14T12:04:41Z</time>
      </trkpt>
      <trkpt lat="45.19322" lon="5.96742">
        <ele>1926.3</ele>
        <time>2026-07-14T12:04:42Z</time>
      </trkpt>
      <trkpt lat="45.19322" lon="5.96742">
        <ele>1926.3</ele>
        <time>2026-07-14T12:04:43Z</time>
      </trkpt>
      <trkpt lat="45.19322" lon="5.96742">
        <ele>1926.3</ele>
        <time>2026-07-14T12:04:44Z</time>
      </trkpt>
      <trkpt lat="45.19322" lon="5.96742">
        <ele>1926.3</ele>
        <time>2026-07-14T12:04:45Z</time>
      </trkpt>
      <trkpt lat="45.19322" lon="5.96742">
        <ele>1926.3</ele>
        <time>2026-07-14T12:04:46Z</time>
      </trkpt>
      <trkpt lat="45.19322" lon="5.96742">
        <ele>1926.3</ele>
        <time>2026-07-14T12:04:47Z</time>
      </trkpt>
      <trkpt lat="45.19322" lon="5.96742">
        <ele>1926.3</ele>
        <time>2026-07-14T12:04:48Z</time>
      </trkpt>
      <trkpt lat="45.19322" lon="5.96741">
        <ele>1926.3</ele>
        <time>2026-07-14T12:04:49Z</time>
      </trkpt>
      <trkpt lat="45.19322" lon="5.96741">
        <ele>1926.3</ele>
        <time>2026-07-14T12:04:50Z</time>
      </trkpt>
      <trkpt lat="45.19322" lon="5.96741">
        <ele>1926.3</ele>
        <time>2026-07-14T12:04:51Z</time>
      </trkpt>
      <trkpt lat="45.19322" lon="5.96741">
        <ele>1926.3</ele>
        <time>2026-07-14T12:04:52Z</time>
      </trkpt>
      <trkpt lat="45.19322" lon="5.96741">
        <ele>1926.3</ele>
        <time>2026-07-14T12:04:53Z</time>
      </trkpt>
      <trkpt lat="45.19322" lon="5.96741">
        <ele>1926.3</ele>
        <time>2026-07-14T12:04:54Z</time>
      </trkpt>
      <trkpt lat="45.19322" lon="5.96741">
        <ele>1926.3</ele>
        <time>2026-07-14T12:04:55Z</time>
      </trkpt>
      <trkpt lat="45.19322" lon="5.96741">
        <ele>1926.3</ele>
        <time>2026-07-14T12:04:56Z</time>
      </trkpt>
      <trkpt lat="45.19322" lon="5.96741">
        <ele>1926.2</ele>
        <time>2026-07-14T12:04:57Z</time>
      </trkpt>
      <trkpt lat="45.19322" lon="5.96741">
        <ele>1926.2</ele>
        <time>2026-07-14T12:04:58Z</time>
      </trkpt>
      <trkpt lat="45.19322" lon="5.96741">
        <ele>1926.2</ele>
        <time>2026-07-14T12:04:59Z</time>
      </trkpt>
      <trkpt lat="45.19322" lon="5.96741">
        <ele>1926.2</ele>
        <time>2026-07-14T12:05:00Z</time>
      </trkpt>
      <trkpt lat="45.19322" lon="5.96741">
        <ele>1926.2</ele>
        <time>2026-07-14T12:05:01Z</time>
      </trkpt>
      <trkpt lat="45.19322" lon="5.96741">
        <ele>1926.2</ele>
        <time>2026-07-14T12:05:02Z</time>
      </trkpt>
      <trkpt lat="45.19322" lon="5.96741">
        <ele>1926.2</ele>
        <time>2026-07-14T12:05:03Z</time>
      </trkpt>
      <trkpt lat="45.19322" lon="5.96741">
        <ele>1926.2</ele>
        <time>2026-07-14T12:05:04Z</time>
      </trkpt>
      <trkpt lat="45.19322" lon="5.96741">
        <ele>1926.2</ele>
        <time>2026-07-14T12:05:05Z</time>
      </trkpt>
      <trkpt lat="45.19322" lon="5.96741">
        <ele>1926.2</ele>
        <time>2026-07-14T12:05:06Z</time>
      </trkpt>
      <trkpt lat="45.19322" lon="5.96741">
        <ele>1926.2</ele>
        <time>2026-07-14T12:05:07Z</time>
      </trkpt>
      <trkpt lat="45.19322" lon="5.96741">
        <ele>1926.2</ele>
        <time>2026-07-14T12:05:08Z</time>
      </trkpt>
      <trkpt lat="45.19322" lon="5.96741">
        <ele>1926.2</ele>
        <time>2026-07-14T12:05:09Z</time>
      </trkpt>
      <trkpt lat="45.19322" lon="5.96741">
        <ele>1926.2</ele>
        <time>2026-07-14T12:05:10Z</time>
      </trkpt>
      <trkpt lat="45.19322" lon="5.96741">
        <ele>1926.2</ele>
        <time>2026-07-14T12:05:11Z</time>
      </trkpt>
      <trkpt lat="45.19322" lon="5.96741">
        <ele>1926.2</ele>
        <time>2026-07-14T12:05:12Z</time>
      </trkpt>
      <trkpt lat="45.19322" lon="5.96741">
        <ele>1926.2</ele>
        <time>2026-07-14T12:05:13Z</time>
      </trkpt>
      <trkpt lat="45.19322" lon="5.96741">
        <ele>1926.2</ele>
        <time>2026-07-14T12:05:14Z</time>
      </trkpt>
      <trkpt lat="45.19322" lon="5.96741">
        <ele>1926.2</ele>
        <time>2026-07-14T12:05:15Z</time>
      </trkpt>
      <trkpt lat="45.19322" lon="5.96741">
        <ele>1926.2</ele>
        <time>2026-07-14T12:05:16Z</time>
      </trkpt>
      <trkpt lat="45.19322" lon="5.96741">
        <ele>1926.2</ele>
        <time>2026-07-14T12:05:17Z</time>
      </trkpt>
      <trkpt lat="45.19322" lon="5.96741">
        <ele>1926.2</ele>
        <time>2026-07-14T12:05:18Z</time>
      </trkpt>
      <trkpt lat="45.19322" lon="5.96741">
        <ele>1926.2</ele>
        <time>2026-07-14T12:05:19Z</time>
      </trkpt>
      <trkpt lat="45.19322" lon="5.96741">
        <ele>1926.2</ele>
        <time>2026-07-14T12:05:20Z</time>
      </trkpt>
      <trkpt lat="45.19322" lon="5.96741">
        <ele>1926.2</ele>
        <time>2026-07-14T12:05:21Z</time>
      </trkpt>
      <trkpt lat="45.19322" lon="5.96741">
        <ele>1926.2</ele>
        <time>2026-07-14T12:05:22Z</time>
      </trkpt>
      <trkpt lat="45.19322" lon="5.96741">
        <ele>1926.2</ele>
        <time>2026-07-14T12:05:23Z</time>
      </trkpt>
      <trkpt lat="45.19322" lon="5.96742">
        <ele>1926.2</ele>
        <time>2026-07-14T12:05:24Z</time>
      </trkpt>
      <trkpt lat="45.19322" lon="5.96742">
        <ele>1926.2</ele>
        <time>2026-07-14T12:05:25Z</time>
      </trkpt>
      <trkpt lat="45.19322" lon="5.96742">
        <ele>1926.2</ele>
        <time>2026-07-14T12:05:26Z</time>
      </trkpt>
      <trkpt lat="45.19322" lon="5.96742">
        <ele>1926.2</ele>
        <time>2026-07-14T12:05:27Z</time>
      </trkpt>
      <trkpt lat="45.19322" lon="5.96742">
        <ele>1926.2</ele>
        <time>2026-07-14T12:05:28Z</time>
      </trkpt>
      <trkpt lat="45.19322" lon="5.96742">
        <ele>1926.2</ele>
        <time>2026-07-14T12:05:29Z</time>
      </trkpt>
      <trkpt lat="45.19322" lon="5.96742">
        <ele>1926.2</ele>
        <time>2026-07-14T12:05:30Z</time>
      </trkpt>
      <trkpt lat="45.19322" lon="5.96742">
        <ele>1926.2</ele>
        <time>2026-07-14T12:05:31Z</time>
      </trkpt>
      <trkpt lat="45.19322" lon="5.96742">
        <ele>1926.1</ele>
        <time>2026-07-14T12:05:32Z</time>
      </trkpt>
      <trkpt lat="45.19322" lon="5.96742">
        <ele>1926.1</ele>
        <time>2026-07-14T12:05:33Z</time>
      </trkpt>
      <trkpt lat="45.19322" lon="5.96742">
        <ele>1926.1</ele>
        <time>2026-07-14T12:05:34Z</time>
      </trkpt>
      <trkpt lat="45.19322" lon="5.96742">
        <ele>1926.1</ele>
        <time>2026-07-14T12:05:35Z</time>
      </trkpt>
      <trkpt lat="45.19322" lon="5.96742">
        <ele>1926.1</ele>
        <time>2026-07-14T12:05:36Z</time>
      </trkpt>
      <trkpt lat="45.19322" lon="5.96742">
        <ele>1926.1</ele>
        <time>2026-07-14T12:05:37Z</time>
      </trkpt>
      <trkpt lat="45.19322" lon="5.96742">
        <ele>1926.1</ele>
        <time>2026-07-14T12:05:38Z</time>
      </trkpt>
      <trkpt lat="45.19322" lon="5.96742">
        <ele>1926.1</ele>
        <time>2026-07-14T12:05:39Z</time>
      </trkpt>
      <trkpt lat="45.19322" lon="5.96742">
        <ele>1926.1</ele>
        <time>2026-07-14T12:05:40Z</time>
      </trkpt>
      <trkpt lat="45.19322" lon="5.96742">
        <ele>1926.1</ele>
        <time>2026-07-14T12:05:41Z</time>
      </trkpt>
      <trkpt lat="45.19322" lon="5.96742">
        <ele>1926.1</ele>
        <time>2026-07-14T12:05:42Z</time>
      </trkpt>
      <trkpt lat="45.19322" lon="5.96742">
        <ele>1926.1</ele>
        <time>2026-07-14T12:05:43Z</time>
      </trkpt>
      <trkpt lat="45.19322" lon="5.96742">
        <ele>1926.1</ele>
        <time>2026-07-14T12:05:44Z</time>
      </trkpt>
      <trkpt lat="45.19322" lon="5.96742">
        <ele>1926.1</ele>
        <time>2026-07-14T12:05:45Z</time>
      </trkpt>
      <trkpt lat="45.19322" lon="5.96742">
        <ele>1926.1</ele>
        <time>2026-07-14T12:05:46Z</time>
      </trkpt>
      <trkpt lat="45.19322" lon="5.96742">
        <ele>1926</ele>
        <time>2026-07-14T12:05:47Z</time>
      </trkpt>
      <trkpt lat="45.19322" lon="5.96742">
        <ele>1926</ele>
        <time>2026-07-14T12:05:48Z</time>
      </trkpt>
      <trkpt lat="45.19322" lon="5.96742">
        <ele>1926</ele>
        <time>2026-07-14T12:05:49Z</time>
      </trkpt>
      <trkpt lat="45.19322" lon="5.96742">
        <ele>1926</ele>
        <time>2026-07-14T12:05:50Z</time>
      </trkpt>
      <trkpt lat="45.19322" lon="5.96742">
        <ele>1926</ele>
        <time>2026-07-14T12:05:51Z</time>
      </trkpt>
      <trkpt lat="45.19322" lon="5.96742">
        <ele>1926</ele>
        <time>2026-07-14T12:05:52Z</time>
      </trkpt>
      <trkpt lat="45.19322" lon="5.96742">
        <ele>1926</ele>
        <time>2026-07-14T12:05:53Z</time>
      </trkpt>
      <trkpt lat="45.19322" lon="5.96743">
        <ele>1926</ele>
        <time>2026-07-14T12:05:54Z</time>
      </trkpt>
      <trkpt lat="45.19322" lon="5.96742">
        <ele>1926</ele>
        <time>2026-07-14T12:05:55Z</time>
      </trkpt>
      <trkpt lat="45.19321" lon="5.96743">
        <ele>1926</ele>
        <time>2026-07-14T12:05:56Z</time>
      </trkpt>
      <trkpt lat="45.19321" lon="5.96743">
        <ele>1926</ele>
        <time>2026-07-14T12:05:57Z</time>
      </trkpt>
      <trkpt lat="45.19321" lon="5.96744">
        <ele>1926</ele>
        <time>2026-07-14T12:05:58Z</time>
      </trkpt>
      <trkpt lat="45.19321" lon="5.96745">
        <ele>1925.9</ele>
        <time>2026-07-14T12:05:59Z</time>
      </trkpt>
      <trkpt lat="45.19321" lon="5.96745">
        <ele>1925.9</ele>
        <time>2026-07-14T12:06:00Z</time>
      </trkpt>
      <trkpt lat="45.19321" lon="5.96747">
        <ele>1925.9</ele>
        <time>2026-07-14T12:06:01Z</time>
      </trkpt>
      <trkpt lat="45.1932" lon="5.96748">
        <ele>1925.9</ele>
        <time>2026-07-14T12:06:02Z</time>
      </trkpt>
      <trkpt lat="45.1932" lon="5.9675">
        <ele>1925.8</ele>
        <time>2026-07-14T12:06:03Z</time>
      </trkpt>
      <trkpt lat="45.19319" lon="5.96751">
        <ele>1925.8</ele>
        <time>2026-07-14T12:06:04Z</time>
      </trkpt>
      <trkpt lat="45.19318" lon="5.96752">
        <ele>1925.8</ele>
        <time>2026-07-14T12:06:05Z</time>
      </trkpt>
      <trkpt lat="45.19317" lon="5.96752">
        <ele>1925.8</ele>
        <time>2026-07-14T12:06:06Z</time>
      </trkpt>
      <trkpt lat="45.19316" lon="5.96753">
        <ele>1925.7</ele>
        <time>2026-07-14T12:06:07Z</time>
      </trkpt>
      <trkpt lat="45.19316" lon="5.96753">
        <ele>1925.7</ele>
        <time>2026-07-14T12:06:08Z</time>
      </trkpt>
      <trkpt lat="45.19315" lon="5.96753">
        <ele>1925.7</ele>
        <time>2026-07-14T12:06:09Z</time>
      </trkpt>
      <trkpt lat="45.19315" lon="5.96754">
        <ele>1925.7</ele>
        <time>2026-07-14T12:06:10Z</time>
      </trkpt>
      <trkpt lat="45.19314" lon="5.96754">
        <ele>1925.7</ele>
        <time>2026-07-14T12:06:11Z</time>
      </trkpt>
      <trkpt lat="45.19313" lon="5.96754">
        <ele>1925.7</ele>
        <time>2026-07-14T12:06:12Z</time>
      </trkpt>
      <trkpt lat="45.19312" lon="5.96754">
        <ele>1925.6</ele>
        <time>2026-07-14T12:06:13Z</time>
      </trkpt>
      <trkpt lat="45.19311" lon="5.96755">
        <ele>1925.6</ele>
        <time>2026-07-14T12:06:15Z</time>
      </trkpt>
      <trkpt lat="45.19311" lon="5.96755">
        <ele>1925.6</ele>
        <time>2026-07-14T12:06:16Z</time>
      </trkpt>
      <trkpt lat="45.1931" lon="5.96756">
        <ele>1925.6</ele>
        <time>2026-07-14T12:06:17Z</time>
      </trkpt>
      <trkpt lat="45.19309" lon="5.96757">
        <ele>1925.6</ele>
        <time>2026-07-14T12:06:18Z</time>
      </trkpt>
      <trkpt lat="45.19308" lon="5.96758">
        <ele>1925.6</ele>
        <time>2026-07-14T12:06:19Z</time>
      </trkpt>
      <trkpt lat="45.19308" lon="5.96759">
        <ele>1925.6</ele>
        <time>2026-07-14T12:06:21Z</time>
      </trkpt>
      <trkpt lat="45.19308" lon="5.9676">
        <ele>1925.6</ele>
        <time>2026-07-14T12:06:22Z</time>
      </trkpt>
      <trkpt lat="45.19308" lon="5.96761">
        <ele>1925.6</ele>
        <time>2026-07-14T12:06:23Z</time>
      </trkpt>
      <trkpt lat="45.19309" lon="5.96761">
        <ele>1925.5</ele>
        <time>2026-07-14T12:06:24Z</time>
      </trkpt>
      <trkpt lat="45.1931" lon="5.96758">
        <ele>1925.5</ele>
        <time>2026-07-14T12:06:25Z</time>
      </trkpt>
      <trkpt lat="45.19309" lon="5.96757">
        <ele>1925.5</ele>
        <time>2026-07-14T12:06:26Z</time>
      </trkpt>
      <trkpt lat="45.19309" lon="5.96757">
        <ele>1925.5</ele>
        <time>2026-07-14T12:06:27Z</time>
      </trkpt>
      <trkpt lat="45.19309" lon="5.96758">
        <ele>1925.5</ele>
        <time>2026-07-14T12:06:28Z</time>
      </trkpt>
      <trkpt lat="45.19309" lon="5.96757">
        <ele>1925.5</ele>
        <time>2026-07-14T12:06:29Z</time>
      </trkpt>
      <trkpt lat="45.19307" lon="5.96757">
        <ele>1925.5</ele>
        <time>2026-07-14T12:06:30Z</time>
      </trkpt>
      <trkpt lat="45.19306" lon="5.96757">
        <ele>1925.5</ele>
        <time>2026-07-14T12:06:31Z</time>
      </trkpt>
      <trkpt lat="45.19305" lon="5.96758">
        <ele>1925.5</ele>
        <time>2026-07-14T12:06:32Z</time>
      </trkpt>
      <trkpt lat="45.19304" lon="5.96758">
        <ele>1925.5</ele>
        <time>2026-07-14T12:06:33Z</time>
      </trkpt>
      <trkpt lat="45.19302" lon="5.96759">
        <ele>1925.6</ele>
        <time>2026-07-14T12:06:34Z</time>
      </trkpt>
      <trkpt lat="45.19301" lon="5.96759">
        <ele>1925.6</ele>
        <time>2026-07-14T12:06:36Z</time>
      </trkpt>
      <trkpt lat="45.193" lon="5.9676">
        <ele>1925.6</ele>
        <time>2026-07-14T12:06:37Z</time>
      </trkpt>
      <trkpt lat="45.193" lon="5.96761">
        <ele>1925.6</ele>
        <time>2026-07-14T12:06:38Z</time>
      </trkpt>
      <trkpt lat="45.19299" lon="5.96762">
        <ele>1925.6</ele>
        <time>2026-07-14T12:06:39Z</time>
      </trkpt>
      <trkpt lat="45.19297" lon="5.96763">
        <ele>1925.6</ele>
        <time>2026-07-14T12:06:40Z</time>
      </trkpt>
      <trkpt lat="45.19296" lon="5.96764">
        <ele>1925.7</ele>
        <time>2026-07-14T12:06:42Z</time>
      </trkpt>
      <trkpt lat="45.19295" lon="5.96765">
        <ele>1925.7</ele>
        <time>2026-07-14T12:06:43Z</time>
      </trkpt>
      <trkpt lat="45.19294" lon="5.96765">
        <ele>1925.7</ele>
        <time>2026-07-14T12:06:44Z</time>
      </trkpt>
      <trkpt lat="45.19293" lon="5.96766">
        <ele>1925.7</ele>
        <time>2026-07-14T12:06:45Z</time>
      </trkpt>
      <trkpt lat="45.19292" lon="5.96766">
        <ele>1925.7</ele>
        <time>2026-07-14T12:06:46Z</time>
      </trkpt>
      <trkpt lat="45.1929" lon="5.96765">
        <ele>1925.8</ele>
        <time>2026-07-14T12:06:47Z</time>
      </trkpt>
      <trkpt lat="45.1929" lon="5.96766">
        <ele>1925.8</ele>
        <time>2026-07-14T12:06:49Z</time>
      </trkpt>
      <trkpt lat="45.19289" lon="5.96766">
        <ele>1925.8</ele>
        <time>2026-07-14T12:06:50Z</time>
      </trkpt>
      <trkpt lat="45.19288" lon="5.96766">
        <ele>1925.8</ele>
        <time>2026-07-14T12:06:51Z</time>
      </trkpt>
      <trkpt lat="45.19288" lon="5.96766">
        <ele>1925.8</ele>
        <time>2026-07-14T12:06:52Z</time>
      </trkpt>
      <trkpt lat="45.19287" lon="5.96766">
        <ele>1925.8</ele>
        <time>2026-07-14T12:06:53Z</time>
      </trkpt>
      <trkpt lat="45.19285" lon="5.96765">
        <ele>1925.9</ele>
        <time>2026-07-14T12:06:54Z</time>
      </trkpt>
      <trkpt lat="45.19284" lon="5.96764">
        <ele>1925.9</ele>
        <time>2026-07-14T12:06:56Z</time>
      </trkpt>
      <trkpt lat="45.19283" lon="5.96764">
        <ele>1925.9</ele>
        <time>2026-07-14T12:06:57Z</time>
      </trkpt>
      <trkpt lat="45.19281" lon="5.96762">
        <ele>1925.9</ele>
        <time>2026-07-14T12:06:58Z</time>
      </trkpt>
      <trkpt lat="45.1928" lon="5.9676">
        <ele>1926</ele>
        <time>2026-07-14T12:07:00Z</time>
      </trkpt>
      <trkpt lat="45.19279" lon="5.96759">
        <ele>1926</ele>
        <time>2026-07-14T12:07:02Z</time>
      </trkpt>
      <trkpt lat="45.19279" lon="5.96758">
        <ele>1926</ele>
        <time>2026-07-14T12:07:03Z</time>
      </trkpt>
      <trkpt lat="45.19278" lon="5.96757">
        <ele>1926</ele>
        <time>2026-07-14T12:07:04Z</time>
      </trkpt>
      <trkpt lat="45.19278" lon="5.96757">
        <ele>1926</ele>
        <time>2026-07-14T12:07:05Z</time>
      </trkpt>
      <trkpt lat="45.19277" lon="5.96756">
        <ele>1926</ele>
        <time>2026-07-14T12:07:06Z</time>
      </trkpt>
      <trkpt lat="45.19276" lon="5.96756">
        <ele>1926.1</ele>
        <time>2026-07-14T12:07:07Z</time>
      </trkpt>
      <trkpt lat="45.19276" lon="5.96755">
        <ele>1926.1</ele>
        <time>2026-07-14T12:07:08Z</time>
      </trkpt>
      <trkpt lat="45.19275" lon="5.96754">
        <ele>1926.1</ele>
        <time>2026-07-14T12:07:09Z</time>
      </trkpt>
      <trkpt lat="45.19275" lon="5.96754">
        <ele>1926.1</ele>
        <time>2026-07-14T12:07:10Z</time>
      </trkpt>
      <trkpt lat="45.19274" lon="5.96752">
        <ele>1926.2</ele>
        <time>2026-07-14T12:07:11Z</time>
      </trkpt>
      <trkpt lat="45.19273" lon="5.96751">
        <ele>1926.2</ele>
        <time>2026-07-14T12:07:13Z</time>
      </trkpt>
      <trkpt lat="45.19272" lon="5.96751">
        <ele>1926.2</ele>
        <time>2026-07-14T12:07:14Z</time>
      </trkpt>
      <trkpt lat="45.19271" lon="5.9675">
        <ele>1926.2</ele>
        <time>2026-07-14T12:07:15Z</time>
      </trkpt>
      <trkpt lat="45.1927" lon="5.96749">
        <ele>1926.3</ele>
        <time>2026-07-14T12:07:17Z</time>
      </trkpt>
      <trkpt lat="45.19269" lon="5.96749">
        <ele>1926.3</ele>
        <time>2026-07-14T12:07:18Z</time>
      </trkpt>
      <trkpt lat="45.19269" lon="5.96749">
        <ele>1926.3</ele>
        <time>2026-07-14T12:07:19Z</time>
      </trkpt>
      <trkpt lat="45.19268" lon="5.96748">
        <ele>1926.3</ele>
        <time>2026-07-14T12:07:20Z</time>
      </trkpt>
      <trkpt lat="45.19267" lon="5.96748">
        <ele>1926.4</ele>
        <time>2026-07-14T12:07:21Z</time>
      </trkpt>
      <trkpt lat="45.19266" lon="5.96746">
        <ele>1926.4</ele>
        <time>2026-07-14T12:07:22Z</time>
      </trkpt>
      <trkpt lat="45.19266" lon="5.96745">
        <ele>1926.4</ele>
        <time>2026-07-14T12:07:24Z</time>
      </trkpt>
      <trkpt lat="45.19265" lon="5.96744">
        <ele>1926.5</ele>
        <time>2026-07-14T12:07:25Z</time>
      </trkpt>
      <trkpt lat="45.19264" lon="5.96743">
        <ele>1926.5</ele>
        <time>2026-07-14T12:07:26Z</time>
      </trkpt>
      <trkpt lat="45.19264" lon="5.96743">
        <ele>1926.5</ele>
        <time>2026-07-14T12:07:27Z</time>
      </trkpt>
      <trkpt lat="45.19263" lon="5.96742">
        <ele>1926.6</ele>
        <time>2026-07-14T12:07:28Z</time>
      </trkpt>
      <trkpt lat="45.19262" lon="5.96741">
        <ele>1926.6</ele>
        <time>2026-07-14T12:07:29Z</time>
      </trkpt>
      <trkpt lat="45.19261" lon="5.96741">
        <ele>1926.6</ele>
        <time>2026-07-14T12:07:30Z</time>
      </trkpt>
      <trkpt lat="45.19261" lon="5.9674">
        <ele>1926.7</ele>
        <time>2026-07-14T12:07:31Z</time>
      </trkpt>
      <trkpt lat="45.1926" lon="5.96739">
        <ele>1926.7</ele>
        <time>2026-07-14T12:07:32Z</time>
      </trkpt>
      <trkpt lat="45.19259" lon="5.96739">
        <ele>1926.7</ele>
        <time>2026-07-14T12:07:33Z</time>
      </trkpt>
      <trkpt lat="45.19259" lon="5.96738">
        <ele>1926.8</ele>
        <time>2026-07-14T12:07:34Z</time>
      </trkpt>
      <trkpt lat="45.19258" lon="5.96737">
        <ele>1926.8</ele>
        <time>2026-07-14T12:07:35Z</time>
      </trkpt>
      <trkpt lat="45.19257" lon="5.96736">
        <ele>1926.9</ele>
        <time>2026-07-14T12:07:36Z</time>
      </trkpt>
      <trkpt lat="45.19257" lon="5.96735">
        <ele>1926.9</ele>
        <time>2026-07-14T12:07:37Z</time>
      </trkpt>
      <trkpt lat="45.19256" lon="5.96734">
        <ele>1926.9</ele>
        <time>2026-07-14T12:07:38Z</time>
      </trkpt>
      <trkpt lat="45.19255" lon="5.96732">
        <ele>1926.9</ele>
        <time>2026-07-14T12:07:39Z</time>
      </trkpt>
      <trkpt lat="45.19254" lon="5.96732">
        <ele>1927</ele>
        <time>2026-07-14T12:07:41Z</time>
      </trkpt>
      <trkpt lat="45.19254" lon="5.96731">
        <ele>1927</ele>
        <time>2026-07-14T12:07:42Z</time>
      </trkpt>
      <trkpt lat="45.19253" lon="5.9673">
        <ele>1927</ele>
        <time>2026-07-14T12:07:43Z</time>
      </trkpt>
      <trkpt lat="45.19252" lon="5.9673">
        <ele>1927</ele>
        <time>2026-07-14T12:07:44Z</time>
      </trkpt>
      <trkpt lat="45.19252" lon="5.9673">
        <ele>1927</ele>
        <time>2026-07-14T12:07:45Z</time>
      </trkpt>
      <trkpt lat="45.19251" lon="5.96729">
        <ele>1927</ele>
        <time>2026-07-14T12:07:46Z</time>
      </trkpt>
      <trkpt lat="45.19251" lon="5.96729">
        <ele>1927.1</ele>
        <time>2026-07-14T12:07:47Z</time>
      </trkpt>
      <trkpt lat="45.1925" lon="5.96729">
        <ele>1927.1</ele>
        <time>2026-07-14T12:07:48Z</time>
      </trkpt>
      <trkpt lat="45.1925" lon="5.96728">
        <ele>1927.1</ele>
        <time>2026-07-14T12:07:49Z</time>
      </trkpt>
      <trkpt lat="45.19249" lon="5.96727">
        <ele>1927</ele>
        <time>2026-07-14T12:07:50Z</time>
      </trkpt>
      <trkpt lat="45.19249" lon="5.96726">
        <ele>1927</ele>
        <time>2026-07-14T12:07:51Z</time>
      </trkpt>
      <trkpt lat="45.19247" lon="5.96727">
        <ele>1927</ele>
        <time>2026-07-14T12:07:52Z</time>
      </trkpt>
      <trkpt lat="45.19247" lon="5.96727">
        <ele>1927</ele>
        <time>2026-07-14T12:07:54Z</time>
      </trkpt>
      <trkpt lat="45.19246" lon="5.96728">
        <ele>1927</ele>
        <time>2026-07-14T12:07:55Z</time>
      </trkpt>
      <trkpt lat="45.19246" lon="5.96729">
        <ele>1927</ele>
        <time>2026-07-14T12:07:56Z</time>
      </trkpt>
      <trkpt lat="45.19245" lon="5.96729">
        <ele>1927</ele>
        <time>2026-07-14T12:07:57Z</time>
      </trkpt>
      <trkpt lat="45.19245" lon="5.96729">
        <ele>1927</ele>
        <time>2026-07-14T12:07:58Z</time>
      </trkpt>
      <trkpt lat="45.19245" lon="5.96729">
        <ele>1927</ele>
        <time>2026-07-14T12:07:59Z</time>
      </trkpt>
      <trkpt lat="45.19245" lon="5.96729">
        <ele>1927</ele>
        <time>2026-07-14T12:08:00Z</time>
      </trkpt>
      <trkpt lat="45.19246" lon="5.96729">
        <ele>1927</ele>
        <time>2026-07-14T12:08:01Z</time>
      </trkpt>
      <trkpt lat="45.19246" lon="5.96729">
        <ele>1927</ele>
        <time>2026-07-14T12:08:02Z</time>
      </trkpt>
      <trkpt lat="45.19246" lon="5.96729">
        <ele>1927</ele>
        <time>2026-07-14T12:08:03Z</time>
      </trkpt>
      <trkpt lat="45.19246" lon="5.96729">
        <ele>1927</ele>
        <time>2026-07-14T12:08:04Z</time>
      </trkpt>
      <trkpt lat="45.19245" lon="5.96729">
        <ele>1927</ele>
        <time>2026-07-14T12:08:05Z</time>
      </trkpt>
      <trkpt lat="45.19245" lon="5.9673">
        <ele>1927</ele>
        <time>2026-07-14T12:08:06Z</time>
      </trkpt>
      <trkpt lat="45.19245" lon="5.9673">
        <ele>1926.9</ele>
        <time>2026-07-14T12:08:07Z</time>
      </trkpt>
      <trkpt lat="45.19244" lon="5.9673">
        <ele>1926.9</ele>
        <time>2026-07-14T12:08:08Z</time>
      </trkpt>
      <trkpt lat="45.19244" lon="5.96731">
        <ele>1926.9</ele>
        <time>2026-07-14T12:08:09Z</time>
      </trkpt>
      <trkpt lat="45.19243" lon="5.96732">
        <ele>1926.9</ele>
        <time>2026-07-14T12:08:10Z</time>
      </trkpt>
      <trkpt lat="45.19243" lon="5.96732">
        <ele>1926.9</ele>
        <time>2026-07-14T12:08:11Z</time>
      </trkpt>
      <trkpt lat="45.19242" lon="5.96733">
        <ele>1926.8</ele>
        <time>2026-07-14T12:08:12Z</time>
      </trkpt>
      <trkpt lat="45.19241" lon="5.96733">
        <ele>1926.8</ele>
        <time>2026-07-14T12:08:14Z</time>
      </trkpt>
      <trkpt lat="45.19241" lon="5.96734">
        <ele>1926.8</ele>
        <time>2026-07-14T12:08:15Z</time>
      </trkpt>
      <trkpt lat="45.19241" lon="5.96735">
        <ele>1926.7</ele>
        <time>2026-07-14T12:08:16Z</time>
      </trkpt>
      <trkpt lat="45.19241" lon="5.96736">
        <ele>1926.7</ele>
        <time>2026-07-14T12:08:17Z</time>
      </trkpt>
      <trkpt lat="45.19241" lon="5.96736">
        <ele>1926.7</ele>
        <time>2026-07-14T12:08:18Z</time>
      </trkpt>
      <trkpt lat="45.19241" lon="5.96736">
        <ele>1926.7</ele>
        <time>2026-07-14T12:08:19Z</time>
      </trkpt>
      <trkpt lat="45.19241" lon="5.96737">
        <ele>1926.6</ele>
        <time>2026-07-14T12:08:20Z</time>
      </trkpt>
      <trkpt lat="45.19241" lon="5.96738">
        <ele>1926.6</ele>
        <time>2026-07-14T12:08:22Z</time>
      </trkpt>
      <trkpt lat="45.19241" lon="5.9674">
        <ele>1926.5</ele>
        <time>2026-07-14T12:08:24Z</time>
      </trkpt>
      <trkpt lat="45.19241" lon="5.96741">
        <ele>1926.5</ele>
        <time>2026-07-14T12:08:25Z</time>
      </trkpt>
      <trkpt lat="45.19241" lon="5.96742">
        <ele>1926.6</ele>
        <time>2026-07-14T12:08:27Z</time>
      </trkpt>
      <trkpt lat="45.19241" lon="5.96744">
        <ele>1926.8</ele>
        <time>2026-07-14T12:08:28Z</time>
      </trkpt>
      <trkpt lat="45.19241" lon="5.96746">
        <ele>1927</ele>
        <time>2026-07-14T12:08:30Z</time>
      </trkpt>
      <trkpt lat="45.19241" lon="5.96747">
        <ele>1927.1</ele>
        <time>2026-07-14T12:08:31Z</time>
      </trkpt>
      <trkpt lat="45.1924" lon="5.96749">
        <ele>1927.4</ele>
        <time>2026-07-14T12:08:32Z</time>
      </trkpt>
      <trkpt lat="45.1924" lon="5.9675">
        <ele>1927.5</ele>
        <time>2026-07-14T12:08:34Z</time>
      </trkpt>
      <trkpt lat="45.19239" lon="5.96751">
        <ele>1927.6</ele>
        <time>2026-07-14T12:08:35Z</time>
      </trkpt>
      <trkpt lat="45.1924" lon="5.96752">
        <ele>1927.7</ele>
        <time>2026-07-14T12:08:36Z</time>
      </trkpt>
      <trkpt lat="45.1924" lon="5.96752">
        <ele>1927.8</ele>
        <time>2026-07-14T12:08:37Z</time>
      </trkpt>
      <trkpt lat="45.1924" lon="5.96753">
        <ele>1927.8</ele>
        <time>2026-07-14T12:08:38Z</time>
      </trkpt>
      <trkpt lat="45.1924" lon="5.96753">
        <ele>1927.9</ele>
        <time>2026-07-14T12:08:39Z</time>
      </trkpt>
      <trkpt lat="45.1924" lon="5.96754">
        <ele>1928</ele>
        <time>2026-07-14T12:08:40Z</time>
      </trkpt>
      <trkpt lat="45.1924" lon="5.96755">
        <ele>1928.1</ele>
        <time>2026-07-14T12:08:41Z</time>
      </trkpt>
      <trkpt lat="45.19239" lon="5.96758">
        <ele>1928.4</ele>
        <time>2026-07-14T12:08:42Z</time>
      </trkpt>
      <trkpt lat="45.19238" lon="5.96759">
        <ele>1928.6</ele>
        <time>2026-07-14T12:08:44Z</time>
      </trkpt>
      <trkpt lat="45.19237" lon="5.96761">
        <ele>1928.9</ele>
        <time>2026-07-14T12:08:45Z</time>
      </trkpt>
      <trkpt lat="45.19236" lon="5.96762">
        <ele>1929</ele>
        <time>2026-07-14T12:08:47Z</time>
      </trkpt>
      <trkpt lat="45.19236" lon="5.96762">
        <ele>1929.1</ele>
        <time>2026-07-14T12:08:48Z</time>
      </trkpt>
      <trkpt lat="45.19236" lon="5.96764">
        <ele>1929.3</ele>
        <time>2026-07-14T12:08:49Z</time>
      </trkpt>
      <trkpt lat="45.19235" lon="5.96764">
        <ele>1929.4</ele>
        <time>2026-07-14T12:08:50Z</time>
      </trkpt>
      <trkpt lat="45.19234" lon="5.96765">
        <ele>1929.5</ele>
        <time>2026-07-14T12:08:51Z</time>
      </trkpt>
      <trkpt lat="45.19234" lon="5.96766">
        <ele>1929.7</ele>
        <time>2026-07-14T12:08:52Z</time>
      </trkpt>
      <trkpt lat="45.19233" lon="5.96767">
        <ele>1929.8</ele>
        <time>2026-07-14T12:08:53Z</time>
      </trkpt>
      <trkpt lat="45.19233" lon="5.96768">
        <ele>1930.1</ele>
        <time>2026-07-14T12:08:54Z</time>
      </trkpt>
      <trkpt lat="45.19233" lon="5.96769">
        <ele>1930.2</ele>
        <time>2026-07-14T12:08:55Z</time>
      </trkpt>
      <trkpt lat="45.19232" lon="5.9677">
        <ele>1930.3</ele>
        <time>2026-07-14T12:08:56Z</time>
      </trkpt>
      <trkpt lat="45.19233" lon="5.96771">
        <ele>1930.5</ele>
        <time>2026-07-14T12:08:57Z</time>
      </trkpt>
      <trkpt lat="45.19233" lon="5.96772">
        <ele>1930.6</ele>
        <time>2026-07-14T12:08:58Z</time>
      </trkpt>
      <trkpt lat="45.19234" lon="5.96773">
        <ele>1930.8</ele>
        <time>2026-07-14T12:08:59Z</time>
      </trkpt>
      <trkpt lat="45.19234" lon="5.96773">
        <ele>1930.9</ele>
        <time>2026-07-14T12:09:00Z</time>
      </trkpt>
      <trkpt lat="45.19234" lon="5.96774">
        <ele>1931.1</ele>
        <time>2026-07-14T12:09:01Z</time>
      </trkpt>
      <trkpt lat="45.19233" lon="5.96773">
        <ele>1931.3</ele>
        <time>2026-07-14T12:09:02Z</time>
      </trkpt>
      <trkpt lat="45.19232" lon="5.96772">
        <ele>1931.5</ele>
        <time>2026-07-14T12:09:03Z</time>
      </trkpt>
      <trkpt lat="45.19232" lon="5.96772">
        <ele>1931.5</ele>
        <time>2026-07-14T12:09:04Z</time>
      </trkpt>
      <trkpt lat="45.19233" lon="5.96772">
        <ele>1931.6</ele>
        <time>2026-07-14T12:09:05Z</time>
      </trkpt>
      <trkpt lat="45.19233" lon="5.96772">
        <ele>1931.6</ele>
        <time>2026-07-14T12:09:06Z</time>
      </trkpt>
      <trkpt lat="45.19233" lon="5.96772">
        <ele>1931.7</ele>
        <time>2026-07-14T12:09:07Z</time>
      </trkpt>
      <trkpt lat="45.19233" lon="5.96772">
        <ele>1931.7</ele>
        <time>2026-07-14T12:09:08Z</time>
      </trkpt>
      <trkpt lat="45.19233" lon="5.96773">
        <ele>1931.7</ele>
        <time>2026-07-14T12:09:09Z</time>
      </trkpt>
      <trkpt lat="45.19233" lon="5.96773">
        <ele>1931.7</ele>
        <time>2026-07-14T12:09:10Z</time>
      </trkpt>
      <trkpt lat="45.19233" lon="5.96773">
        <ele>1931.8</ele>
        <time>2026-07-14T12:09:11Z</time>
      </trkpt>
      <trkpt lat="45.19233" lon="5.96773">
        <ele>1931.8</ele>
        <time>2026-07-14T12:09:12Z</time>
      </trkpt>
      <trkpt lat="45.19233" lon="5.96773">
        <ele>1931.8</ele>
        <time>2026-07-14T12:09:13Z</time>
      </trkpt>
      <trkpt lat="45.19233" lon="5.96773">
        <ele>1931.8</ele>
        <time>2026-07-14T12:09:14Z</time>
      </trkpt>
      <trkpt lat="45.19233" lon="5.96773">
        <ele>1931.8</ele>
        <time>2026-07-14T12:09:15Z</time>
      </trkpt>
      <trkpt lat="45.19233" lon="5.96773">
        <ele>1931.8</ele>
        <time>2026-07-14T12:09:16Z</time>
      </trkpt>
      <trkpt lat="45.19233" lon="5.96773">
        <ele>1931.8</ele>
        <time>2026-07-14T12:09:17Z</time>
      </trkpt>
      <trkpt lat="45.19233" lon="5.96773">
        <ele>1931.8</ele>
        <time>2026-07-14T12:09:18Z</time>
      </trkpt>
      <trkpt lat="45.19233" lon="5.96773">
        <ele>1931.9</ele>
        <time>2026-07-14T12:09:19Z</time>
      </trkpt>
      <trkpt lat="45.19233" lon="5.96773">
        <ele>1931.9</ele>
        <time>2026-07-14T12:09:20Z</time>
      </trkpt>
      <trkpt lat="45.19233" lon="5.96773">
        <ele>1931.9</ele>
        <time>2026-07-14T12:09:21Z</time>
      </trkpt>
      <trkpt lat="45.19233" lon="5.96774">
        <ele>1931.9</ele>
        <time>2026-07-14T12:09:22Z</time>
      </trkpt>
      <trkpt lat="45.19233" lon="5.96774">
        <ele>1931.9</ele>
        <time>2026-07-14T12:09:23Z</time>
      </trkpt>
      <trkpt lat="45.19233" lon="5.96774">
        <ele>1931.9</ele>
        <time>2026-07-14T12:09:24Z</time>
      </trkpt>
      <trkpt lat="45.19233" lon="5.96774">
        <ele>1931.9</ele>
        <time>2026-07-14T12:09:25Z</time>
      </trkpt>
      <trkpt lat="45.19233" lon="5.96774">
        <ele>1931.9</ele>
        <time>2026-07-14T12:09:26Z</time>
      </trkpt>
      <trkpt lat="45.19233" lon="5.96774">
        <ele>1931.9</ele>
        <time>2026-07-14T12:09:27Z</time>
      </trkpt>
      <trkpt lat="45.19233" lon="5.96774">
        <ele>1931.9</ele>
        <time>2026-07-14T12:09:28Z</time>
      </trkpt>
      <trkpt lat="45.19233" lon="5.96774">
        <ele>1931.9</ele>
        <time>2026-07-14T12:09:29Z</time>
      </trkpt>
      <trkpt lat="45.19233" lon="5.96774">
        <ele>1931.9</ele>
        <time>2026-07-14T12:09:30Z</time>
      </trkpt>
      <trkpt lat="45.19233" lon="5.96774">
        <ele>1931.9</ele>
        <time>2026-07-14T12:09:31Z</time>
      </trkpt>
      <trkpt lat="45.19233" lon="5.96774">
        <ele>1932</ele>
        <time>2026-07-14T12:09:32Z</time>
      </trkpt>
      <trkpt lat="45.19233" lon="5.96774">
        <ele>1932</ele>
        <time>2026-07-14T12:09:33Z</time>
      </trkpt>
      <trkpt lat="45.19233" lon="5.96774">
        <ele>1932</ele>
        <time>2026-07-14T12:09:34Z</time>
      </trkpt>
      <trkpt lat="45.19233" lon="5.96774">
        <ele>1932</ele>
        <time>2026-07-14T12:09:35Z</time>
      </trkpt>
      <trkpt lat="45.19233" lon="5.96774">
        <ele>1932</ele>
        <time>2026-07-14T12:09:36Z</time>
      </trkpt>
      <trkpt lat="45.19233" lon="5.96774">
        <ele>1932</ele>
        <time>2026-07-14T12:09:37Z</time>
      </trkpt>
      <trkpt lat="45.19233" lon="5.96774">
        <ele>1932</ele>
        <time>2026-07-14T12:09:38Z</time>
      </trkpt>
      <trkpt lat="45.19233" lon="5.96774">
        <ele>1932</ele>
        <time>2026-07-14T12:09:39Z</time>
      </trkpt>
      <trkpt lat="45.19233" lon="5.96774">
        <ele>1932</ele>
        <time>2026-07-14T12:09:40Z</time>
      </trkpt>
      <trkpt lat="45.19233" lon="5.96774">
        <ele>1932</ele>
        <time>2026-07-14T12:09:41Z</time>
      </trkpt>
      <trkpt lat="45.19233" lon="5.96774">
        <ele>1932</ele>
        <time>2026-07-14T12:09:42Z</time>
      </trkpt>
      <trkpt lat="45.19233" lon="5.96774">
        <ele>1932</ele>
        <time>2026-07-14T12:09:43Z</time>
      </trkpt>
      <trkpt lat="45.19233" lon="5.96774">
        <ele>1932</ele>
        <time>2026-07-14T12:09:44Z</time>
      </trkpt>
      <trkpt lat="45.19233" lon="5.96774">
        <ele>1932.1</ele>
        <time>2026-07-14T12:09:45Z</time>
      </trkpt>
      <trkpt lat="45.19233" lon="5.96774">
        <ele>1932.1</ele>
        <time>2026-07-14T12:09:46Z</time>
      </trkpt>
      <trkpt lat="45.19233" lon="5.96774">
        <ele>1932.1</ele>
        <time>2026-07-14T12:09:47Z</time>
      </trkpt>
      <trkpt lat="45.19233" lon="5.96774">
        <ele>1932.1</ele>
        <time>2026-07-14T12:09:48Z</time>
      </trkpt>
      <trkpt lat="45.19233" lon="5.96774">
        <ele>1932.1</ele>
        <time>2026-07-14T12:09:49Z</time>
      </trkpt>
      <trkpt lat="45.19233" lon="5.96774">
        <ele>1932.1</ele>
        <time>2026-07-14T12:09:50Z</time>
      </trkpt>
      <trkpt lat="45.19233" lon="5.96774">
        <ele>1932.1</ele>
        <time>2026-07-14T12:09:51Z</time>
      </trkpt>
      <trkpt lat="45.19233" lon="5.96774">
        <ele>1932.1</ele>
        <time>2026-07-14T12:09:52Z</time>
      </trkpt>
      <trkpt lat="45.19233" lon="5.96774">
        <ele>1932.1</ele>
        <time>2026-07-14T12:09:53Z</time>
      </trkpt>
      <trkpt lat="45.19233" lon="5.96774">
        <ele>1932.1</ele>
        <time>2026-07-14T12:09:54Z</time>
      </trkpt>
      <trkpt lat="45.19233" lon="5.96774">
        <ele>1932.1</ele>
        <time>2026-07-14T12:09:55Z</time>
      </trkpt>
      <trkpt lat="45.19233" lon="5.96774">
        <ele>1932.1</ele>
        <time>2026-07-14T12:09:56Z</time>
      </trkpt>
      <trkpt lat="45.19233" lon="5.96774">
        <ele>1932.1</ele>
        <time>2026-07-14T12:09:57Z</time>
      </trkpt>
      <trkpt lat="45.19233" lon="5.96774">
        <ele>1932.1</ele>
        <time>2026-07-14T12:09:58Z</time>
      </trkpt>
      <trkpt lat="45.19233" lon="5.96774">
        <ele>1932.1</ele>
        <time>2026-07-14T12:09:59Z</time>
      </trkpt>
      <trkpt lat="45.19233" lon="5.96774">
        <ele>1932.1</ele>
        <time>2026-07-14T12:10:00Z</time>
      </trkpt>
      <trkpt lat="45.19233" lon="5.96774">
        <ele>1932.1</ele>
        <time>2026-07-14T12:10:01Z</time>
      </trkpt>
      <trkpt lat="45.19233" lon="5.96774">
        <ele>1932.1</ele>
        <time>2026-07-14T12:10:02Z</time>
      </trkpt>
      <trkpt lat="45.19233" lon="5.96774">
        <ele>1932.1</ele>
        <time>2026-07-14T12:10:03Z</time>
      </trkpt>
      <trkpt lat="45.19233" lon="5.96774">
        <ele>1932.1</ele>
        <time>2026-07-14T12:10:04Z</time>
      </trkpt>
      <trkpt lat="45.19233" lon="5.96774">
        <ele>1932.1</ele>
        <time>2026-07-14T12:10:05Z</time>
      </trkpt>
      <trkpt lat="45.19233" lon="5.96774">
        <ele>1932.1</ele>
        <time>2026-07-14T12:10:06Z</time>
      </trkpt>
      <trkpt lat="45.19233" lon="5.96774">
        <ele>1932.1</ele>
        <time>2026-07-14T12:10:07Z</time>
      </trkpt>
      <trkpt lat="45.19233" lon="5.96774">
        <ele>1932.1</ele>
        <time>2026-07-14T12:10:08Z</time>
      </trkpt>
      <trkpt lat="45.19233" lon="5.96774">
        <ele>1932.1</ele>
        <time>2026-07-14T12:10:09Z</time>
      </trkpt>
      <trkpt lat="45.19233" lon="5.96774">
        <ele>1932.1</ele>
        <time>2026-07-14T12:10:10Z</time>
      </trkpt>
      <trkpt lat="45.19233" lon="5.96774">
        <ele>1932.1</ele>
        <time>2026-07-14T12:10:11Z</time>
      </trkpt>
      <trkpt lat="45.19233" lon="5.96774">
        <ele>1932.1</ele>
        <time>2026-07-14T12:10:12Z</time>
      </trkpt>
      <trkpt lat="45.19233" lon="5.96774">
        <ele>1932.1</ele>
        <time>2026-07-14T12:10:13Z</time>
      </trkpt>
      <trkpt lat="45.19233" lon="5.96774">
        <ele>1932.1</ele>
        <time>2026-07-14T12:10:14Z</time>
      </trkpt>
      <trkpt lat="45.19233" lon="5.96774">
        <ele>1932.2</ele>
        <time>2026-07-14T12:10:15Z</time>
      </trkpt>
      <trkpt lat="45.19233" lon="5.96774">
        <ele>1932.2</ele>
        <time>2026-07-14T12:10:16Z</time>
      </trkpt>
      <trkpt lat="45.19233" lon="5.96774">
        <ele>1932.2</ele>
        <time>2026-07-14T12:10:17Z</time>
      </trkpt>
      <trkpt lat="45.19233" lon="5.96774">
        <ele>1932.2</ele>
        <time>2026-07-14T12:10:18Z</time>
      </trkpt>
      <trkpt lat="45.19233" lon="5.96774">
        <ele>1932.2</ele>
        <time>2026-07-14T12:10:19Z</time>
      </trkpt>
      <trkpt lat="45.19233" lon="5.96774">
        <ele>1932.2</ele>
        <time>2026-07-14T12:10:20Z</time>
      </trkpt>
      <trkpt lat="45.19233" lon="5.96774">
        <ele>1932.2</ele>
        <time>2026-07-14T12:10:21Z</time>
      </trkpt>
      <trkpt lat="45.19233" lon="5.96774">
        <ele>1932.2</ele>
        <time>2026-07-14T12:10:22Z</time>
      </trkpt>
      <trkpt lat="45.19233" lon="5.96774">
        <ele>1932.2</ele>
        <time>2026-07-14T12:10:23Z</time>
      </trkpt>
      <trkpt lat="45.19233" lon="5.96774">
        <ele>1932.3</ele>
        <time>2026-07-14T12:10:24Z</time>
      </trkpt>
      <trkpt lat="45.19233" lon="5.96774">
        <ele>1932.3</ele>
        <time>2026-07-14T12:10:25Z</time>
      </trkpt>
      <trkpt lat="45.19232" lon="5.96773">
        <ele>1932.4</ele>
        <time>2026-07-14T12:10:26Z</time>
      </trkpt>
      <trkpt lat="45.19232" lon="5.96773">
        <ele>1932.4</ele>
        <time>2026-07-14T12:10:27Z</time>
      </trkpt>
      <trkpt lat="45.19232" lon="5.96772">
        <ele>1932.5</ele>
        <time>2026-07-14T12:10:28Z</time>
      </trkpt>
      <trkpt lat="45.19232" lon="5.96772">
        <ele>1932.6</ele>
        <time>2026-07-14T12:10:29Z</time>
      </trkpt>
      <trkpt lat="45.19232" lon="5.96772">
        <ele>1932.6</ele>
        <time>2026-07-14T12:10:30Z</time>
      </trkpt>
      <trkpt lat="45.19232" lon="5.96771">
        <ele>1932.7</ele>
        <time>2026-07-14T12:10:31Z</time>
      </trkpt>
      <trkpt lat="45.19232" lon="5.96772">
        <ele>1932.7</ele>
        <time>2026-07-14T12:10:32Z</time>
      </trkpt>
      <trkpt lat="45.19232" lon="5.96772">
        <ele>1932.7</ele>
        <time>2026-07-14T12:10:33Z</time>
      </trkpt>
      <trkpt lat="45.19232" lon="5.96772">
        <ele>1932.7</ele>
        <time>2026-07-14T12:10:34Z</time>
      </trkpt>
      <trkpt lat="45.19232" lon="5.96772">
        <ele>1932.8</ele>
        <time>2026-07-14T12:10:35Z</time>
      </trkpt>
      <trkpt lat="45.19232" lon="5.96774">
        <ele>1933</ele>
        <time>2026-07-14T12:10:36Z</time>
      </trkpt>
      <trkpt lat="45.19232" lon="5.96776">
        <ele>1933.3</ele>
        <time>2026-07-14T12:10:37Z</time>
      </trkpt>
      <trkpt lat="45.19232" lon="5.96778">
        <ele>1933.5</ele>
        <time>2026-07-14T12:10:38Z</time>
      </trkpt>
      <trkpt lat="45.19232" lon="5.9678">
        <ele>1933.8</ele>
        <time>2026-07-14T12:10:39Z</time>
      </trkpt>
      <trkpt lat="45.19231" lon="5.96783">
        <ele>1934.1</ele>
        <time>2026-07-14T12:10:40Z</time>
      </trkpt>
      <trkpt lat="45.19231" lon="5.96784">
        <ele>1934.3</ele>
        <time>2026-07-14T12:10:41Z</time>
      </trkpt>
      <trkpt lat="45.1923" lon="5.96786">
        <ele>1934.5</ele>
        <time>2026-07-14T12:10:42Z</time>
      </trkpt>
      <trkpt lat="45.19229" lon="5.96789">
        <ele>1934.8</ele>
        <time>2026-07-14T12:10:43Z</time>
      </trkpt>
      <trkpt lat="45.19229" lon="5.9679">
        <ele>1935</ele>
        <time>2026-07-14T12:10:45Z</time>
      </trkpt>
      <trkpt lat="45.19229" lon="5.96793">
        <ele>1935.2</ele>
        <time>2026-07-14T12:10:46Z</time>
      </trkpt>
      <trkpt lat="45.19229" lon="5.96794">
        <ele>1935.4</ele>
        <time>2026-07-14T12:10:48Z</time>
      </trkpt>
      <trkpt lat="45.19229" lon="5.96796">
        <ele>1935.6</ele>
        <time>2026-07-14T12:10:49Z</time>
      </trkpt>
      <trkpt lat="45.19229" lon="5.96797">
        <ele>1935.6</ele>
        <time>2026-07-14T12:10:51Z</time>
      </trkpt>
      <trkpt lat="45.19229" lon="5.96798">
        <ele>1935.7</ele>
        <time>2026-07-14T12:10:52Z</time>
      </trkpt>
      <trkpt lat="45.19229" lon="5.968">
        <ele>1936</ele>
        <time>2026-07-14T12:10:53Z</time>
      </trkpt>
      <trkpt lat="45.19229" lon="5.96802">
        <ele>1936.1</ele>
        <time>2026-07-14T12:10:55Z</time>
      </trkpt>
      <trkpt lat="45.1923" lon="5.96803">
        <ele>1936.3</ele>
        <time>2026-07-14T12:10:56Z</time>
      </trkpt>
      <trkpt lat="45.1923" lon="5.96806">
        <ele>1936.6</ele>
        <time>2026-07-14T12:10:57Z</time>
      </trkpt>
      <trkpt lat="45.1923" lon="5.96807">
        <ele>1936.7</ele>
        <time>2026-07-14T12:10:59Z</time>
      </trkpt>
      <trkpt lat="45.19231" lon="5.96809">
        <ele>1936.8</ele>
        <time>2026-07-14T12:11:00Z</time>
      </trkpt>
      <trkpt lat="45.19231" lon="5.96811">
        <ele>1937.1</ele>
        <time>2026-07-14T12:11:01Z</time>
      </trkpt>
      <trkpt lat="45.19231" lon="5.96812">
        <ele>1937.2</ele>
        <time>2026-07-14T12:11:03Z</time>
      </trkpt>
      <trkpt lat="45.19231" lon="5.96814">
        <ele>1937.3</ele>
        <time>2026-07-14T12:11:04Z</time>
      </trkpt>
      <trkpt lat="45.19231" lon="5.96815">
        <ele>1937.4</ele>
        <time>2026-07-14T12:11:05Z</time>
      </trkpt>
      <trkpt lat="45.19231" lon="5.96816">
        <ele>1937.5</ele>
        <time>2026-07-14T12:11:06Z</time>
      </trkpt>
      <trkpt lat="45.19231" lon="5.96817">
        <ele>1937.6</ele>
        <time>2026-07-14T12:11:07Z</time>
      </trkpt>
      <trkpt lat="45.19231" lon="5.96819">
        <ele>1937.8</ele>
        <time>2026-07-14T12:11:08Z</time>
      </trkpt>
      <trkpt lat="45.19231" lon="5.9682">
        <ele>1937.9</ele>
        <time>2026-07-14T12:11:09Z</time>
      </trkpt>
      <trkpt lat="45.19231" lon="5.96822">
        <ele>1938.1</ele>
        <time>2026-07-14T12:11:10Z</time>
      </trkpt>
      <trkpt lat="45.19231" lon="5.96823">
        <ele>1938.2</ele>
        <time>2026-07-14T12:11:11Z</time>
      </trkpt>
      <trkpt lat="45.1923" lon="5.96826">
        <ele>1938.4</ele>
        <time>2026-07-14T12:11:12Z</time>
      </trkpt>
      <trkpt lat="45.19229" lon="5.96826">
        <ele>1938.5</ele>
        <time>2026-07-14T12:11:14Z</time>
      </trkpt>
      <trkpt lat="45.19229" lon="5.96828">
        <ele>1938.7</ele>
        <time>2026-07-14T12:11:15Z</time>
      </trkpt>
      <trkpt lat="45.19228" lon="5.96829">
        <ele>1938.8</ele>
        <time>2026-07-14T12:11:16Z</time>
      </trkpt>
      <trkpt lat="45.19227" lon="5.9683">
        <ele>1938.9</ele>
        <time>2026-07-14T12:11:17Z</time>
      </trkpt>
      <trkpt lat="45.19226" lon="5.9683">
        <ele>1939</ele>
        <time>2026-07-14T12:11:18Z</time>
      </trkpt>
      <trkpt lat="45.19225" lon="5.96831">
        <ele>1939.2</ele>
        <time>2026-07-14T12:11:19Z</time>
      </trkpt>
      <trkpt lat="45.19224" lon="5.96832">
        <ele>1939.4</ele>
        <time>2026-07-14T12:11:20Z</time>
      </trkpt>
      <trkpt lat="45.19224" lon="5.96832">
        <ele>1939.4</ele>
        <time>2026-07-14T12:11:22Z</time>
      </trkpt>
      <trkpt lat="45.19223" lon="5.96833">
        <ele>1939.5</ele>
        <time>2026-07-14T12:11:23Z</time>
      </trkpt>
      <trkpt lat="45.19222" lon="5.96834">
        <ele>1939.7</ele>
        <time>2026-07-14T12:11:24Z</time>
      </trkpt>
      <trkpt lat="45.19221" lon="5.96834">
        <ele>1939.8</ele>
        <time>2026-07-14T12:11:25Z</time>
      </trkpt>
      <trkpt lat="45.19221" lon="5.96835">
        <ele>1939.8</ele>
        <time>2026-07-14T12:11:26Z</time>
      </trkpt>
      <trkpt lat="45.19221" lon="5.96836">
        <ele>1939.9</ele>
        <time>2026-07-14T12:11:27Z</time>
      </trkpt>
      <trkpt lat="45.1922" lon="5.96836">
        <ele>1940</ele>
        <time>2026-07-14T12:11:28Z</time>
      </trkpt>
      <trkpt lat="45.19219" lon="5.96837">
        <ele>1940.1</ele>
        <time>2026-07-14T12:11:29Z</time>
      </trkpt>
      <trkpt lat="45.19219" lon="5.96838">
        <ele>1940.2</ele>
        <time>2026-07-14T12:11:30Z</time>
      </trkpt>
      <trkpt lat="45.19218" lon="5.96838">
        <ele>1940.3</ele>
        <time>2026-07-14T12:11:31Z</time>
      </trkpt>
      <trkpt lat="45.19218" lon="5.96838">
        <ele>1940.3</ele>
        <time>2026-07-14T12:11:32Z</time>
      </trkpt>
      <trkpt lat="45.19217" lon="5.96839">
        <ele>1940.4</ele>
        <time>2026-07-14T12:11:33Z</time>
      </trkpt>
      <trkpt lat="45.19216" lon="5.9684">
        <ele>1940.5</ele>
        <time>2026-07-14T12:11:34Z</time>
      </trkpt>
      <trkpt lat="45.19216" lon="5.96841">
        <ele>1940.4</ele>
        <time>2026-07-14T12:11:36Z</time>
      </trkpt>
      <trkpt lat="45.19215" lon="5.96841">
        <ele>1940.4</ele>
        <time>2026-07-14T12:11:37Z</time>
      </trkpt>
      <trkpt lat="45.19215" lon="5.9684">
        <ele>1940.4</ele>
        <time>2026-07-14T12:11:38Z</time>
      </trkpt>
      <trkpt lat="45.19215" lon="5.9684">
        <ele>1940.4</ele>
        <time>2026-07-14T12:11:39Z</time>
      </trkpt>
      <trkpt lat="45.19215" lon="5.9684">
        <ele>1940.4</ele>
        <time>2026-07-14T12:11:40Z</time>
      </trkpt>
      <trkpt lat="45.19216" lon="5.9684">
        <ele>1940.4</ele>
        <time>2026-07-14T12:11:41Z</time>
      </trkpt>
      <trkpt lat="45.19216" lon="5.9684">
        <ele>1940.4</ele>
        <time>2026-07-14T12:11:42Z</time>
      </trkpt>
      <trkpt lat="45.19216" lon="5.9684">
        <ele>1940.4</ele>
        <time>2026-07-14T12:11:43Z</time>
      </trkpt>
      <trkpt lat="45.19216" lon="5.9684">
        <ele>1940.4</ele>
        <time>2026-07-14T12:11:44Z</time>
      </trkpt>
      <trkpt lat="45.19215" lon="5.96839">
        <ele>1940.4</ele>
        <time>2026-07-14T12:11:45Z</time>
      </trkpt>
      <trkpt lat="45.19215" lon="5.96839">
        <ele>1940.3</ele>
        <time>2026-07-14T12:11:47Z</time>
      </trkpt>
      <trkpt lat="45.19214" lon="5.96838">
        <ele>1940.3</ele>
        <time>2026-07-14T12:11:48Z</time>
      </trkpt>
      <trkpt lat="45.19213" lon="5.96838">
        <ele>1940</ele>
        <time>2026-07-14T12:11:49Z</time>
      </trkpt>
      <trkpt lat="45.19212" lon="5.96838">
        <ele>1939.7</ele>
        <time>2026-07-14T12:11:50Z</time>
      </trkpt>
      <trkpt lat="45.19211" lon="5.96838">
        <ele>1939.6</ele>
        <time>2026-07-14T12:11:51Z</time>
      </trkpt>
      <trkpt lat="45.19211" lon="5.96838">
        <ele>1939.4</ele>
        <time>2026-07-14T12:11:52Z</time>
      </trkpt>
      <trkpt lat="45.19209" lon="5.96838">
        <ele>1938.9</ele>
        <time>2026-07-14T12:11:53Z</time>
      </trkpt>
      <trkpt lat="45.19208" lon="5.96838">
        <ele>1938.6</ele>
        <time>2026-07-14T12:11:55Z</time>
      </trkpt>
      <trkpt lat="45.19208" lon="5.96838">
        <ele>1938.5</ele>
        <time>2026-07-14T12:11:56Z</time>
      </trkpt>
      <trkpt lat="45.19207" lon="5.96838">
        <ele>1938.3</ele>
        <time>2026-07-14T12:11:57Z</time>
      </trkpt>
      <trkpt lat="45.19206" lon="5.96837">
        <ele>1938</ele>
        <time>2026-07-14T12:11:58Z</time>
      </trkpt>
      <trkpt lat="45.19206" lon="5.96836">
        <ele>1937.9</ele>
        <time>2026-07-14T12:11:59Z</time>
      </trkpt>
      <trkpt lat="45.19206" lon="5.96836">
        <ele>1937.7</ele>
        <time>2026-07-14T12:12:00Z</time>
      </trkpt>
      <trkpt lat="45.19205" lon="5.96836">
        <ele>1937.5</ele>
        <time>2026-07-14T12:12:01Z</time>
      </trkpt>
      <trkpt lat="45.19204" lon="5.96836">
        <ele>1937</ele>
        <time>2026-07-14T12:12:02Z</time>
      </trkpt>
      <trkpt lat="45.19203" lon="5.96835">
        <ele>1936.7</ele>
        <time>2026-07-14T12:12:03Z</time>
      </trkpt>
      <trkpt lat="45.19202" lon="5.96834">
        <ele>1936.4</ele>
        <time>2026-07-14T12:12:04Z</time>
      </trkpt>
      <trkpt lat="45.19202" lon="5.96834">
        <ele>1936.2</ele>
        <time>2026-07-14T12:12:06Z</time>
      </trkpt>
      <trkpt lat="45.19201" lon="5.96833">
        <ele>1935.9</ele>
        <time>2026-07-14T12:12:07Z</time>
      </trkpt>
      <trkpt lat="45.19199" lon="5.96832">
        <ele>1935.3</ele>
        <time>2026-07-14T12:12:08Z</time>
      </trkpt>
      <trkpt lat="45.19199" lon="5.96831">
        <ele>1935.1</ele>
        <time>2026-07-14T12:12:09Z</time>
      </trkpt>
      <trkpt lat="45.19198" lon="5.9683">
        <ele>1934.7</ele>
        <time>2026-07-14T12:12:10Z</time>
      </trkpt>
      <trkpt lat="45.19197" lon="5.96829">
        <ele>1934.3</ele>
        <time>2026-07-14T12:12:12Z</time>
      </trkpt>
      <trkpt lat="45.19196" lon="5.96829">
        <ele>1934</ele>
        <time>2026-07-14T12:12:14Z</time>
      </trkpt>
      <trkpt lat="45.19196" lon="5.96829">
        <ele>1933.9</ele>
        <time>2026-07-14T12:12:15Z</time>
      </trkpt>
      <trkpt lat="45.19195" lon="5.96829">
        <ele>1933.6</ele>
        <time>2026-07-14T12:12:16Z</time>
      </trkpt>
      <trkpt lat="45.19195" lon="5.96829">
        <ele>1933.5</ele>
        <time>2026-07-14T12:12:17Z</time>
      </trkpt>
      <trkpt lat="45.19195" lon="5.96829">
        <ele>1933.4</ele>
        <time>2026-07-14T12:12:18Z</time>
      </trkpt>
      <trkpt lat="45.19195" lon="5.9683">
        <ele>1933.3</ele>
        <time>2026-07-14T12:12:19Z</time>
      </trkpt>
      <trkpt lat="45.19195" lon="5.9683">
        <ele>1933.2</ele>
        <time>2026-07-14T12:12:20Z</time>
      </trkpt>
      <trkpt lat="45.19196" lon="5.9683">
        <ele>1933.1</ele>
        <time>2026-07-14T12:12:21Z</time>
      </trkpt>
      <trkpt lat="45.19196" lon="5.9683">
        <ele>1933</ele>
        <time>2026-07-14T12:12:22Z</time>
      </trkpt>
      <trkpt lat="45.19196" lon="5.9683">
        <ele>1933</ele>
        <time>2026-07-14T12:12:23Z</time>
      </trkpt>
      <trkpt lat="45.19196" lon="5.9683">
        <ele>1933</ele>
        <time>2026-07-14T12:12:24Z</time>
      </trkpt>
      <trkpt lat="45.19196" lon="5.9683">
        <ele>1932.9</ele>
        <time>2026-07-14T12:12:25Z</time>
      </trkpt>
      <trkpt lat="45.19196" lon="5.9683">
        <ele>1932.9</ele>
        <time>2026-07-14T12:12:26Z</time>
      </trkpt>
      <trkpt lat="45.19196" lon="5.9683">
        <ele>1932.8</ele>
        <time>2026-07-14T12:12:27Z</time>
      </trkpt>
      <trkpt lat="45.19195" lon="5.9683">
        <ele>1932.7</ele>
        <time>2026-07-14T12:12:28Z</time>
      </trkpt>
      <trkpt lat="45.19194" lon="5.9683">
        <ele>1932.3</ele>
        <time>2026-07-14T12:12:29Z</time>
      </trkpt>
      <trkpt lat="45.19193" lon="5.96829">
        <ele>1931.9</ele>
        <time>2026-07-14T12:12:30Z</time>
      </trkpt>
      <trkpt lat="45.19192" lon="5.96828">
        <ele>1931.6</ele>
        <time>2026-07-14T12:12:31Z</time>
      </trkpt>
      <trkpt lat="45.19192" lon="5.96828">
        <ele>1931.2</ele>
        <time>2026-07-14T12:12:32Z</time>
      </trkpt>
      <trkpt lat="45.1919" lon="5.96827">
        <ele>1930.8</ele>
        <time>2026-07-14T12:12:33Z</time>
      </trkpt>
      <trkpt lat="45.1919" lon="5.96826">
        <ele>1930.5</ele>
        <time>2026-07-14T12:12:34Z</time>
      </trkpt>
      <trkpt lat="45.19189" lon="5.96825">
        <ele>1930.1</ele>
        <time>2026-07-14T12:12:35Z</time>
      </trkpt>
      <trkpt lat="45.19189" lon="5.96824">
        <ele>1929.8</ele>
        <time>2026-07-14T12:12:36Z</time>
      </trkpt>
      <trkpt lat="45.19188" lon="5.96823">
        <ele>1929.4</ele>
        <time>2026-07-14T12:12:37Z</time>
      </trkpt>
      <trkpt lat="45.19187" lon="5.96821">
        <ele>1929</ele>
        <time>2026-07-14T12:12:38Z</time>
      </trkpt>
      <trkpt lat="45.19188" lon="5.9682">
        <ele>1928.7</ele>
        <time>2026-07-14T12:12:39Z</time>
      </trkpt>
      <trkpt lat="45.19187" lon="5.9682">
        <ele>1928.4</ele>
        <time>2026-07-14T12:12:40Z</time>
      </trkpt>
      <trkpt lat="45.19186" lon="5.9682">
        <ele>1928.2</ele>
        <time>2026-07-14T12:12:41Z</time>
      </trkpt>
      <trkpt lat="45.19185" lon="5.9682">
        <ele>1927.9</ele>
        <time>2026-07-14T12:12:42Z</time>
      </trkpt>
      <trkpt lat="45.19185" lon="5.96819">
        <ele>1927.6</ele>
        <time>2026-07-14T12:12:43Z</time>
      </trkpt>
      <trkpt lat="45.19184" lon="5.96818">
        <ele>1927.3</ele>
        <time>2026-07-14T12:12:44Z</time>
      </trkpt>
      <trkpt lat="45.19183" lon="5.96817">
        <ele>1926.8</ele>
        <time>2026-07-14T12:12:45Z</time>
      </trkpt>
      <trkpt lat="45.19183" lon="5.96817">
        <ele>1926.8</ele>
        <time>2026-07-14T12:12:47Z</time>
      </trkpt>
      <trkpt lat="45.19183" lon="5.96816">
        <ele>1926.7</ele>
        <time>2026-07-14T12:12:48Z</time>
      </trkpt>
      <trkpt lat="45.19182" lon="5.96816">
        <ele>1926.5</ele>
        <time>2026-07-14T12:12:49Z</time>
      </trkpt>
      <trkpt lat="45.19182" lon="5.96816">
        <ele>1926.2</ele>
        <time>2026-07-14T12:12:50Z</time>
      </trkpt>
      <trkpt lat="45.19181" lon="5.96816">
        <ele>1926.1</ele>
        <time>2026-07-14T12:12:51Z</time>
      </trkpt>
      <trkpt lat="45.19181" lon="5.96815">
        <ele>1925.8</ele>
        <time>2026-07-14T12:12:52Z</time>
      </trkpt>
      <trkpt lat="45.19181" lon="5.96816">
        <ele>1925.7</ele>
        <time>2026-07-14T12:12:53Z</time>
      </trkpt>
      <trkpt lat="45.1918" lon="5.96815">
        <ele>1925.5</ele>
        <time>2026-07-14T12:12:54Z</time>
      </trkpt>
      <trkpt lat="45.1918" lon="5.96815">
        <ele>1925.3</ele>
        <time>2026-07-14T12:12:55Z</time>
      </trkpt>
      <trkpt lat="45.19179" lon="5.96814">
        <ele>1925.1</ele>
        <time>2026-07-14T12:12:56Z</time>
      </trkpt>
      <trkpt lat="45.1918" lon="5.96812">
        <ele>1924.7</ele>
        <time>2026-07-14T12:12:57Z</time>
      </trkpt>
      <trkpt lat="45.19181" lon="5.96812">
        <ele>1924.3</ele>
        <time>2026-07-14T12:12:59Z</time>
      </trkpt>
      <trkpt lat="45.19183" lon="5.96812">
        <ele>1923.6</ele>
        <time>2026-07-14T12:13:00Z</time>
      </trkpt>
      <trkpt lat="45.19184" lon="5.96811">
        <ele>1923</ele>
        <time>2026-07-14T12:13:02Z</time>
      </trkpt>
      <trkpt lat="45.19185" lon="5.9681">
        <ele>1922.7</ele>
        <time>2026-07-14T12:13:04Z</time>
      </trkpt>
      <trkpt lat="45.19186" lon="5.96809">
        <ele>1922.3</ele>
        <time>2026-07-14T12:13:05Z</time>
      </trkpt>
      <trkpt lat="45.19187" lon="5.96809">
        <ele>1922.1</ele>
        <time>2026-07-14T12:13:07Z</time>
      </trkpt>
      <trkpt lat="45.19187" lon="5.96809">
        <ele>1921.8</ele>
        <time>2026-07-14T12:13:08Z</time>
      </trkpt>
      <trkpt lat="45.19188" lon="5.96808">
        <ele>1921.5</ele>
        <time>2026-07-14T12:13:09Z</time>
      </trkpt>
      <trkpt lat="45.19188" lon="5.96807">
        <ele>1921.2</ele>
        <time>2026-07-14T12:13:10Z</time>
      </trkpt>
      <trkpt lat="45.19189" lon="5.96806">
        <ele>1920.9</ele>
        <time>2026-07-14T12:13:11Z</time>
      </trkpt>
      <trkpt lat="45.19189" lon="5.96805">
        <ele>1920.7</ele>
        <time>2026-07-14T12:13:12Z</time>
      </trkpt>
      <trkpt lat="45.1919" lon="5.96805">
        <ele>1920.4</ele>
        <time>2026-07-14T12:13:13Z</time>
      </trkpt>
      <trkpt lat="45.1919" lon="5.96804">
        <ele>1920.1</ele>
        <time>2026-07-14T12:13:14Z</time>
      </trkpt>
      <trkpt lat="45.19191" lon="5.96803">
        <ele>1920</ele>
        <time>2026-07-14T12:13:15Z</time>
      </trkpt>
      <trkpt lat="45.19191" lon="5.96803">
        <ele>1919.7</ele>
        <time>2026-07-14T12:13:16Z</time>
      </trkpt>
      <trkpt lat="45.19192" lon="5.96803">
        <ele>1919.6</ele>
        <time>2026-07-14T12:13:17Z</time>
      </trkpt>
      <trkpt lat="45.19192" lon="5.96802">
        <ele>1919.4</ele>
        <time>2026-07-14T12:13:18Z</time>
      </trkpt>
      <trkpt lat="45.19192" lon="5.96802">
        <ele>1919.2</ele>
        <time>2026-07-14T12:13:19Z</time>
      </trkpt>
      <trkpt lat="45.19193" lon="5.96801">
        <ele>1918.9</ele>
        <time>2026-07-14T12:13:20Z</time>
      </trkpt>
      <trkpt lat="45.19193" lon="5.968">
        <ele>1918.7</ele>
        <time>2026-07-14T12:13:21Z</time>
      </trkpt>
      <trkpt lat="45.19192" lon="5.96799">
        <ele>1918.4</ele>
        <time>2026-07-14T12:13:22Z</time>
      </trkpt>
      <trkpt lat="45.19191" lon="5.96798">
        <ele>1917.8</ele>
        <time>2026-07-14T12:13:23Z</time>
      </trkpt>
      <trkpt lat="45.1919" lon="5.96799">
        <ele>1917.5</ele>
        <time>2026-07-14T12:13:25Z</time>
      </trkpt>
      <trkpt lat="45.19189" lon="5.96798">
        <ele>1917</ele>
        <time>2026-07-14T12:13:26Z</time>
      </trkpt>
      <trkpt lat="45.19188" lon="5.96798">
        <ele>1916.8</ele>
        <time>2026-07-14T12:13:27Z</time>
      </trkpt>
      <trkpt lat="45.19188" lon="5.96797">
        <ele>1916.6</ele>
        <time>2026-07-14T12:13:29Z</time>
      </trkpt>
      <trkpt lat="45.19187" lon="5.96797">
        <ele>1916.3</ele>
        <time>2026-07-14T12:13:30Z</time>
      </trkpt>
      <trkpt lat="45.19185" lon="5.96796">
        <ele>1915.7</ele>
        <time>2026-07-14T12:13:31Z</time>
      </trkpt>
      <trkpt lat="45.19185" lon="5.96796">
        <ele>1915.4</ele>
        <time>2026-07-14T12:13:33Z</time>
      </trkpt>
      <trkpt lat="45.19184" lon="5.96796">
        <ele>1915.2</ele>
        <time>2026-07-14T12:13:34Z</time>
      </trkpt>
      <trkpt lat="45.19183" lon="5.96797">
        <ele>1914.9</ele>
        <time>2026-07-14T12:13:35Z</time>
      </trkpt>
      <trkpt lat="45.19183" lon="5.96797">
        <ele>1914.8</ele>
        <time>2026-07-14T12:13:36Z</time>
      </trkpt>
      <trkpt lat="45.19182" lon="5.96797">
        <ele>1914.6</ele>
        <time>2026-07-14T12:13:37Z</time>
      </trkpt>
      <trkpt lat="45.19182" lon="5.96797">
        <ele>1914.4</ele>
        <time>2026-07-14T12:13:38Z</time>
      </trkpt>
      <trkpt lat="45.19181" lon="5.96798">
        <ele>1913.9</ele>
        <time>2026-07-14T12:13:39Z</time>
      </trkpt>
      <trkpt lat="45.1918" lon="5.96797">
        <ele>1913.6</ele>
        <time>2026-07-14T12:13:41Z</time>
      </trkpt>
      <trkpt lat="45.1918" lon="5.96796">
        <ele>1913.3</ele>
        <time>2026-07-14T12:13:42Z</time>
      </trkpt>
      <trkpt lat="45.19179" lon="5.96796">
        <ele>1913.1</ele>
        <time>2026-07-14T12:13:44Z</time>
      </trkpt>
      <trkpt lat="45.19179" lon="5.96796">
        <ele>1912.9</ele>
        <time>2026-07-14T12:13:45Z</time>
      </trkpt>
      <trkpt lat="45.19177" lon="5.96797">
        <ele>1912.3</ele>
        <time>2026-07-14T12:13:46Z</time>
      </trkpt>
      <trkpt lat="45.19177" lon="5.96798">
        <ele>1912.1</ele>
        <time>2026-07-14T12:13:48Z</time>
      </trkpt>
      <trkpt lat="45.19176" lon="5.96798">
        <ele>1911.8</ele>
        <time>2026-07-14T12:13:49Z</time>
      </trkpt>
      <trkpt lat="45.19176" lon="5.96797">
        <ele>1911.6</ele>
        <time>2026-07-14T12:13:50Z</time>
      </trkpt>
      <trkpt lat="45.19176" lon="5.96795">
        <ele>1911.3</ele>
        <time>2026-07-14T12:13:51Z</time>
      </trkpt>
      <trkpt lat="45.19177" lon="5.96794">
        <ele>1910.9</ele>
        <time>2026-07-14T12:13:52Z</time>
      </trkpt>
      <trkpt lat="45.19177" lon="5.96794">
        <ele>1910.7</ele>
        <time>2026-07-14T12:13:53Z</time>
      </trkpt>
      <trkpt lat="45.19177" lon="5.96794">
        <ele>1910.7</ele>
        <time>2026-07-14T12:13:54Z</time>
      </trkpt>
      <trkpt lat="45.19177" lon="5.96794">
        <ele>1910.7</ele>
        <time>2026-07-14T12:13:55Z</time>
      </trkpt>
      <trkpt lat="45.19177" lon="5.96794">
        <ele>1910.7</ele>
        <time>2026-07-14T12:13:56Z</time>
      </trkpt>
      <trkpt lat="45.19178" lon="5.96794">
        <ele>1910.6</ele>
        <time>2026-07-14T12:13:57Z</time>
      </trkpt>
      <trkpt lat="45.19178" lon="5.96794">
        <ele>1910.6</ele>
        <time>2026-07-14T12:13:58Z</time>
      </trkpt>
      <trkpt lat="45.19178" lon="5.96794">
        <ele>1910.6</ele>
        <time>2026-07-14T12:13:59Z</time>
      </trkpt>
      <trkpt lat="45.19178" lon="5.96794">
        <ele>1910.5</ele>
        <time>2026-07-14T12:14:00Z</time>
      </trkpt>
      <trkpt lat="45.19178" lon="5.96794">
        <ele>1910.5</ele>
        <time>2026-07-14T12:14:01Z</time>
      </trkpt>
      <trkpt lat="45.19178" lon="5.96794">
        <ele>1910.4</ele>
        <time>2026-07-14T12:14:02Z</time>
      </trkpt>
      <trkpt lat="45.19178" lon="5.96795">
        <ele>1910.4</ele>
        <time>2026-07-14T12:14:03Z</time>
      </trkpt>
      <trkpt lat="45.19178" lon="5.96794">
        <ele>1910.4</ele>
        <time>2026-07-14T12:14:04Z</time>
      </trkpt>
      <trkpt lat="45.19178" lon="5.96794">
        <ele>1910.3</ele>
        <time>2026-07-14T12:14:05Z</time>
      </trkpt>
      <trkpt lat="45.19178" lon="5.96794">
        <ele>1910.3</ele>
        <time>2026-07-14T12:14:07Z</time>
      </trkpt>
      <trkpt lat="45.19178" lon="5.96794">
        <ele>1910.1</ele>
        <time>2026-07-14T12:14:08Z</time>
      </trkpt>
      <trkpt lat="45.19177" lon="5.96793">
        <ele>1909.9</ele>
        <time>2026-07-14T12:14:09Z</time>
      </trkpt>
      <trkpt lat="45.19177" lon="5.96793">
        <ele>1909.7</ele>
        <time>2026-07-14T12:14:10Z</time>
      </trkpt>
      <trkpt lat="45.19176" lon="5.96792">
        <ele>1909.4</ele>
        <time>2026-07-14T12:14:11Z</time>
      </trkpt>
      <trkpt lat="45.19175" lon="5.96792">
        <ele>1909.1</ele>
        <time>2026-07-14T12:14:12Z</time>
      </trkpt>
      <trkpt lat="45.19174" lon="5.96791">
        <ele>1908.9</ele>
        <time>2026-07-14T12:14:13Z</time>
      </trkpt>
      <trkpt lat="45.19173" lon="5.96791">
        <ele>1908.6</ele>
        <time>2026-07-14T12:14:14Z</time>
      </trkpt>
      <trkpt lat="45.19173" lon="5.9679">
        <ele>1908.4</ele>
        <time>2026-07-14T12:14:15Z</time>
      </trkpt>
      <trkpt lat="45.19173" lon="5.9679">
        <ele>1908.4</ele>
        <time>2026-07-14T12:14:17Z</time>
      </trkpt>
      <trkpt lat="45.19173" lon="5.9679">
        <ele>1908.3</ele>
        <time>2026-07-14T12:14:18Z</time>
      </trkpt>
      <trkpt lat="45.19173" lon="5.9679">
        <ele>1908.2</ele>
        <time>2026-07-14T12:14:19Z</time>
      </trkpt>
      <trkpt lat="45.19172" lon="5.9679">
        <ele>1907.9</ele>
        <time>2026-07-14T12:14:20Z</time>
      </trkpt>
      <trkpt lat="45.19172" lon="5.9679">
        <ele>1907.8</ele>
        <time>2026-07-14T12:14:21Z</time>
      </trkpt>
      <trkpt lat="45.19172" lon="5.96791">
        <ele>1907.8</ele>
        <time>2026-07-14T12:14:23Z</time>
      </trkpt>
      <trkpt lat="45.19171" lon="5.96791">
        <ele>1907.7</ele>
        <time>2026-07-14T12:14:24Z</time>
      </trkpt>
      <trkpt lat="45.19171" lon="5.96791">
        <ele>1907.4</ele>
        <time>2026-07-14T12:14:25Z</time>
      </trkpt>
      <trkpt lat="45.1917" lon="5.96791">
        <ele>1907.3</ele>
        <time>2026-07-14T12:14:26Z</time>
      </trkpt>
      <trkpt lat="45.1917" lon="5.96792">
        <ele>1907.1</ele>
        <time>2026-07-14T12:14:27Z</time>
      </trkpt>
      <trkpt lat="45.1917" lon="5.96792">
        <ele>1907</ele>
        <time>2026-07-14T12:14:28Z</time>
      </trkpt>
      <trkpt lat="45.19169" lon="5.96792">
        <ele>1906.9</ele>
        <time>2026-07-14T12:14:29Z</time>
      </trkpt>
      <trkpt lat="45.19168" lon="5.96792">
        <ele>1906.5</ele>
        <time>2026-07-14T12:14:30Z</time>
      </trkpt>
      <trkpt lat="45.19167" lon="5.96792">
        <ele>1906.3</ele>
        <time>2026-07-14T12:14:32Z</time>
      </trkpt>
      <trkpt lat="45.19167" lon="5.96791">
        <ele>1906.1</ele>
        <time>2026-07-14T12:14:33Z</time>
      </trkpt>
      <trkpt lat="45.19167" lon="5.96791">
        <ele>1906.1</ele>
        <time>2026-07-14T12:14:35Z</time>
      </trkpt>
      <trkpt lat="45.19166" lon="5.96791">
        <ele>1906</ele>
        <time>2026-07-14T12:14:36Z</time>
      </trkpt>
      <trkpt lat="45.19166" lon="5.9679">
        <ele>1905.7</ele>
        <time>2026-07-14T12:14:37Z</time>
      </trkpt>
      <trkpt lat="45.19166" lon="5.9679">
        <ele>1905.6</ele>
        <time>2026-07-14T12:14:39Z</time>
      </trkpt>
      <trkpt lat="45.19166" lon="5.9679">
        <ele>1905.4</ele>
        <time>2026-07-14T12:14:40Z</time>
      </trkpt>
      <trkpt lat="45.19166" lon="5.96789">
        <ele>1905.3</ele>
        <time>2026-07-14T12:14:42Z</time>
      </trkpt>
      <trkpt lat="45.19165" lon="5.96788">
        <ele>1905</ele>
        <time>2026-07-14T12:14:43Z</time>
      </trkpt>
      <trkpt lat="45.19164" lon="5.96788">
        <ele>1904.9</ele>
        <time>2026-07-14T12:14:45Z</time>
      </trkpt>
      <trkpt lat="45.19164" lon="5.96787">
        <ele>1904.7</ele>
        <time>2026-07-14T12:14:46Z</time>
      </trkpt>
      <trkpt lat="45.19163" lon="5.96788">
        <ele>1904.3</ele>
        <time>2026-07-14T12:14:47Z</time>
      </trkpt>
      <trkpt lat="45.19161" lon="5.96787">
        <ele>1903.9</ele>
        <time>2026-07-14T12:14:49Z</time>
      </trkpt>
      <trkpt lat="45.19161" lon="5.96787">
        <ele>1903.8</ele>
        <time>2026-07-14T12:14:51Z</time>
      </trkpt>
      <trkpt lat="45.19161" lon="5.96787">
        <ele>1903.7</ele>
        <time>2026-07-14T12:14:52Z</time>
      </trkpt>
      <trkpt lat="45.1916" lon="5.96787">
        <ele>1903.5</ele>
        <time>2026-07-14T12:14:53Z</time>
      </trkpt>
      <trkpt lat="45.1916" lon="5.96787">
        <ele>1903.4</ele>
        <time>2026-07-14T12:14:54Z</time>
      </trkpt>
      <trkpt lat="45.19159" lon="5.96787">
        <ele>1903.3</ele>
        <time>2026-07-14T12:14:55Z</time>
      </trkpt>
      <trkpt lat="45.19158" lon="5.96788">
        <ele>1903</ele>
        <time>2026-07-14T12:14:56Z</time>
      </trkpt>
      <trkpt lat="45.19158" lon="5.96788">
        <ele>1902.8</ele>
        <time>2026-07-14T12:14:58Z</time>
      </trkpt>
      <trkpt lat="45.19157" lon="5.96788">
        <ele>1902.6</ele>
        <time>2026-07-14T12:15:00Z</time>
      </trkpt>
      <trkpt lat="45.19157" lon="5.96789">
        <ele>1902.4</ele>
        <time>2026-07-14T12:15:01Z</time>
      </trkpt>
      <trkpt lat="45.19156" lon="5.96789">
        <ele>1902.3</ele>
        <time>2026-07-14T12:15:02Z</time>
      </trkpt>
      <trkpt lat="45.19155" lon="5.96789">
        <ele>1901.9</ele>
        <time>2026-07-14T12:15:03Z</time>
      </trkpt>
      <trkpt lat="45.19154" lon="5.96789">
        <ele>1901.8</ele>
        <time>2026-07-14T12:15:05Z</time>
      </trkpt>
      <trkpt lat="45.19154" lon="5.96789">
        <ele>1901.7</ele>
        <time>2026-07-14T12:15:06Z</time>
      </trkpt>
      <trkpt lat="45.19153" lon="5.96788">
        <ele>1901.3</ele>
        <time>2026-07-14T12:15:07Z</time>
      </trkpt>
      <trkpt lat="45.19153" lon="5.96788">
        <ele>1901.3</ele>
        <time>2026-07-14T12:15:09Z</time>
      </trkpt>
      <trkpt lat="45.19153" lon="5.96788">
        <ele>1901.2</ele>
        <time>2026-07-14T12:15:10Z</time>
      </trkpt>
      <trkpt lat="45.19152" lon="5.96788">
        <ele>1901</ele>
        <time>2026-07-14T12:15:11Z</time>
      </trkpt>
      <trkpt lat="45.19151" lon="5.96789">
        <ele>1900.6</ele>
        <time>2026-07-14T12:15:12Z</time>
      </trkpt>
      <trkpt lat="45.19151" lon="5.9679">
        <ele>1900.4</ele>
        <time>2026-07-14T12:15:13Z</time>
      </trkpt>
      <trkpt lat="45.19151" lon="5.9679">
        <ele>1900.2</ele>
        <time>2026-07-14T12:15:15Z</time>
      </trkpt>
      <trkpt lat="45.19152" lon="5.9679">
        <ele>1899.8</ele>
        <time>2026-07-14T12:15:16Z</time>
      </trkpt>
      <trkpt lat="45.19152" lon="5.96789">
        <ele>1899.7</ele>
        <time>2026-07-14T12:15:17Z</time>
      </trkpt>
      <trkpt lat="45.19153" lon="5.96789">
        <ele>1899.7</ele>
        <time>2026-07-14T12:15:18Z</time>
      </trkpt>
      <trkpt lat="45.19152" lon="5.96789">
        <ele>1899.6</ele>
        <time>2026-07-14T12:15:19Z</time>
      </trkpt>
      <trkpt lat="45.19152" lon="5.96789">
        <ele>1899.6</ele>
        <time>2026-07-14T12:15:20Z</time>
      </trkpt>
      <trkpt lat="45.19152" lon="5.96789">
        <ele>1899.6</ele>
        <time>2026-07-14T12:15:21Z</time>
      </trkpt>
      <trkpt lat="45.19152" lon="5.96789">
        <ele>1899.6</ele>
        <time>2026-07-14T12:15:22Z</time>
      </trkpt>
      <trkpt lat="45.19152" lon="5.96789">
        <ele>1899.6</ele>
        <time>2026-07-14T12:15:23Z</time>
      </trkpt>
      <trkpt lat="45.19152" lon="5.96789">
        <ele>1899.5</ele>
        <time>2026-07-14T12:15:24Z</time>
      </trkpt>
      <trkpt lat="45.19152" lon="5.96789">
        <ele>1899.4</ele>
        <time>2026-07-14T12:15:25Z</time>
      </trkpt>
      <trkpt lat="45.19151" lon="5.9679">
        <ele>1898.9</ele>
        <time>2026-07-14T12:15:27Z</time>
      </trkpt>
      <trkpt lat="45.19149" lon="5.96791">
        <ele>1898.5</ele>
        <time>2026-07-14T12:15:28Z</time>
      </trkpt>
      <trkpt lat="45.19148" lon="5.96791">
        <ele>1898.2</ele>
        <time>2026-07-14T12:15:29Z</time>
      </trkpt>
      <trkpt lat="45.19148" lon="5.9679">
        <ele>1898.1</ele>
        <time>2026-07-14T12:15:30Z</time>
      </trkpt>
      <trkpt lat="45.19147" lon="5.9679">
        <ele>1897.9</ele>
        <time>2026-07-14T12:15:31Z</time>
      </trkpt>
      <trkpt lat="45.19147" lon="5.9679">
        <ele>1897.8</ele>
        <time>2026-07-14T12:15:32Z</time>
      </trkpt>
      <trkpt lat="45.19147" lon="5.9679">
        <ele>1897.7</ele>
        <time>2026-07-14T12:15:33Z</time>
      </trkpt>
      <trkpt lat="45.19146" lon="5.9679">
        <ele>1897.4</ele>
        <time>2026-07-14T12:15:34Z</time>
      </trkpt>
      <trkpt lat="45.19146" lon="5.96789">
        <ele>1897.3</ele>
        <time>2026-07-14T12:15:35Z</time>
      </trkpt>
      <trkpt lat="45.19144" lon="5.96789">
        <ele>1896.8</ele>
        <time>2026-07-14T12:15:36Z</time>
      </trkpt>
      <trkpt lat="45.19144" lon="5.96788">
        <ele>1896.7</ele>
        <time>2026-07-14T12:15:38Z</time>
      </trkpt>
      <trkpt lat="45.19143" lon="5.96788">
        <ele>1896.3</ele>
        <time>2026-07-14T12:15:39Z</time>
      </trkpt>
      <trkpt lat="45.19142" lon="5.96788">
        <ele>1896.2</ele>
        <time>2026-07-14T12:15:40Z</time>
      </trkpt>
      <trkpt lat="45.19141" lon="5.96788">
        <ele>1895.8</ele>
        <time>2026-07-14T12:15:41Z</time>
      </trkpt>
      <trkpt lat="45.19141" lon="5.96787">
        <ele>1895.6</ele>
        <time>2026-07-14T12:15:42Z</time>
      </trkpt>
      <trkpt lat="45.19139" lon="5.96787">
        <ele>1895.1</ele>
        <time>2026-07-14T12:15:43Z</time>
      </trkpt>
      <trkpt lat="45.19138" lon="5.96787">
        <ele>1894.8</ele>
        <time>2026-07-14T12:15:44Z</time>
      </trkpt>
      <trkpt lat="45.19138" lon="5.96787">
        <ele>1894.6</ele>
        <time>2026-07-14T12:15:46Z</time>
      </trkpt>
      <trkpt lat="45.19137" lon="5.96787">
        <ele>1894.5</ele>
        <time>2026-07-14T12:15:47Z</time>
      </trkpt>
      <trkpt lat="45.19137" lon="5.96787">
        <ele>1894.3</ele>
        <time>2026-07-14T12:15:48Z</time>
      </trkpt>
      <trkpt lat="45.19136" lon="5.96787">
        <ele>1893.9</ele>
        <time>2026-07-14T12:15:49Z</time>
      </trkpt>
      <trkpt lat="45.19135" lon="5.96788">
        <ele>1893.7</ele>
        <time>2026-07-14T12:15:51Z</time>
      </trkpt>
      <trkpt lat="45.19135" lon="5.96787">
        <ele>1893.5</ele>
        <time>2026-07-14T12:15:52Z</time>
      </trkpt>
      <trkpt lat="45.19135" lon="5.96786">
        <ele>1893.2</ele>
        <time>2026-07-14T12:15:53Z</time>
      </trkpt>
      <trkpt lat="45.19135" lon="5.96785">
        <ele>1893.1</ele>
        <time>2026-07-14T12:15:54Z</time>
      </trkpt>
      <trkpt lat="45.19135" lon="5.96785">
        <ele>1892.9</ele>
        <time>2026-07-14T12:15:55Z</time>
      </trkpt>
      <trkpt lat="45.19134" lon="5.96785">
        <ele>1892.7</ele>
        <time>2026-07-14T12:15:56Z</time>
      </trkpt>
      <trkpt lat="45.19133" lon="5.96784">
        <ele>1892.4</ele>
        <time>2026-07-14T12:15:57Z</time>
      </trkpt>
      <trkpt lat="45.19133" lon="5.96784">
        <ele>1892.2</ele>
        <time>2026-07-14T12:15:59Z</time>
      </trkpt>
      <trkpt lat="45.19133" lon="5.96783">
        <ele>1892.1</ele>
        <time>2026-07-14T12:16:00Z</time>
      </trkpt>
      <trkpt lat="45.19133" lon="5.96783">
        <ele>1892</ele>
        <time>2026-07-14T12:16:01Z</time>
      </trkpt>
      <trkpt lat="45.19134" lon="5.96782">
        <ele>1891.6</ele>
        <time>2026-07-14T12:16:02Z</time>
      </trkpt>
      <trkpt lat="45.19133" lon="5.96781">
        <ele>1891.2</ele>
        <time>2026-07-14T12:16:04Z</time>
      </trkpt>
      <trkpt lat="45.19133" lon="5.96781">
        <ele>1891.1</ele>
        <time>2026-07-14T12:16:06Z</time>
      </trkpt>
      <trkpt lat="45.19132" lon="5.96781">
        <ele>1891</ele>
        <time>2026-07-14T12:16:07Z</time>
      </trkpt>
      <trkpt lat="45.19132" lon="5.96781">
        <ele>1890.8</ele>
        <time>2026-07-14T12:16:08Z</time>
      </trkpt>
      <trkpt lat="45.19132" lon="5.96781">
        <ele>1890.7</ele>
        <time>2026-07-14T12:16:09Z</time>
      </trkpt>
      <trkpt lat="45.19131" lon="5.96781">
        <ele>1890.4</ele>
        <time>2026-07-14T12:16:10Z</time>
      </trkpt>
      <trkpt lat="45.19131" lon="5.96782">
        <ele>1890.3</ele>
        <time>2026-07-14T12:16:11Z</time>
      </trkpt>
      <trkpt lat="45.1913" lon="5.96781">
        <ele>1890.1</ele>
        <time>2026-07-14T12:16:12Z</time>
      </trkpt>
      <trkpt lat="45.1913" lon="5.96781">
        <ele>1890</ele>
        <time>2026-07-14T12:16:13Z</time>
      </trkpt>
      <trkpt lat="45.19129" lon="5.96781">
        <ele>1889.7</ele>
        <time>2026-07-14T12:16:14Z</time>
      </trkpt>
      <trkpt lat="45.19129" lon="5.96781">
        <ele>1889.5</ele>
        <time>2026-07-14T12:16:15Z</time>
      </trkpt>
      <trkpt lat="45.19128" lon="5.96781">
        <ele>1889.4</ele>
        <time>2026-07-14T12:16:16Z</time>
      </trkpt>
      <trkpt lat="45.19127" lon="5.9678">
        <ele>1888.9</ele>
        <time>2026-07-14T12:16:17Z</time>
      </trkpt>
      <trkpt lat="45.19127" lon="5.9678">
        <ele>1888.7</ele>
        <time>2026-07-14T12:16:19Z</time>
      </trkpt>
      <trkpt lat="45.19125" lon="5.96779">
        <ele>1888.2</ele>
        <time>2026-07-14T12:16:20Z</time>
      </trkpt>
      <trkpt lat="45.19125" lon="5.96779">
        <ele>1887.9</ele>
        <time>2026-07-14T12:16:22Z</time>
      </trkpt>
      <trkpt lat="45.19124" lon="5.96778">
        <ele>1887.8</ele>
        <time>2026-07-14T12:16:23Z</time>
      </trkpt>
      <trkpt lat="45.19124" lon="5.96778">
        <ele>1887.5</ele>
        <time>2026-07-14T12:16:24Z</time>
      </trkpt>
      <trkpt lat="45.19123" lon="5.96778">
        <ele>1887.2</ele>
        <time>2026-07-14T12:16:25Z</time>
      </trkpt>
      <trkpt lat="45.19123" lon="5.96777">
        <ele>1887.1</ele>
        <time>2026-07-14T12:16:27Z</time>
      </trkpt>
      <trkpt lat="45.19122" lon="5.96777">
        <ele>1886.9</ele>
        <time>2026-07-14T12:16:28Z</time>
      </trkpt>
      <trkpt lat="45.19121" lon="5.96776">
        <ele>1886.6</ele>
        <time>2026-07-14T12:16:29Z</time>
      </trkpt>
      <trkpt lat="45.19121" lon="5.96776">
        <ele>1886.5</ele>
        <time>2026-07-14T12:16:30Z</time>
      </trkpt>
      <trkpt lat="45.1912" lon="5.96776">
        <ele>1886.2</ele>
        <time>2026-07-14T12:16:31Z</time>
      </trkpt>
      <trkpt lat="45.1912" lon="5.96776">
        <ele>1886.1</ele>
        <time>2026-07-14T12:16:32Z</time>
      </trkpt>
      <trkpt lat="45.1912" lon="5.96776">
        <ele>1886</ele>
        <time>2026-07-14T12:16:33Z</time>
      </trkpt>
      <trkpt lat="45.1912" lon="5.96776">
        <ele>1885.9</ele>
        <time>2026-07-14T12:16:34Z</time>
      </trkpt>
      <trkpt lat="45.19119" lon="5.96775">
        <ele>1885.7</ele>
        <time>2026-07-14T12:16:35Z</time>
      </trkpt>
      <trkpt lat="45.19119" lon="5.96775">
        <ele>1885.5</ele>
        <time>2026-07-14T12:16:36Z</time>
      </trkpt>
      <trkpt lat="45.19118" lon="5.96775">
        <ele>1885.3</ele>
        <time>2026-07-14T12:16:37Z</time>
      </trkpt>
      <trkpt lat="45.19118" lon="5.96776">
        <ele>1885.1</ele>
        <time>2026-07-14T12:16:38Z</time>
      </trkpt>
      <trkpt lat="45.19117" lon="5.96776">
        <ele>1884.9</ele>
        <time>2026-07-14T12:16:39Z</time>
      </trkpt>
      <trkpt lat="45.19117" lon="5.96776">
        <ele>1884.7</ele>
        <time>2026-07-14T12:16:40Z</time>
      </trkpt>
      <trkpt lat="45.19116" lon="5.96776">
        <ele>1884.5</ele>
        <time>2026-07-14T12:16:41Z</time>
      </trkpt>
      <trkpt lat="45.19116" lon="5.96775">
        <ele>1884.4</ele>
        <time>2026-07-14T12:16:42Z</time>
      </trkpt>
      <trkpt lat="45.19115" lon="5.96775">
        <ele>1884.2</ele>
        <time>2026-07-14T12:16:43Z</time>
      </trkpt>
      <trkpt lat="45.19115" lon="5.96775">
        <ele>1884.2</ele>
        <time>2026-07-14T12:16:44Z</time>
      </trkpt>
      <trkpt lat="45.19114" lon="5.96775">
        <ele>1884.1</ele>
        <time>2026-07-14T12:16:45Z</time>
      </trkpt>
      <trkpt lat="45.19114" lon="5.96775">
        <ele>1884</ele>
        <time>2026-07-14T12:16:46Z</time>
      </trkpt>
      <trkpt lat="45.19113" lon="5.96776">
        <ele>1883.8</ele>
        <time>2026-07-14T12:16:47Z</time>
      </trkpt>
      <trkpt lat="45.19113" lon="5.96777">
        <ele>1883.7</ele>
        <time>2026-07-14T12:16:48Z</time>
      </trkpt>
      <trkpt lat="45.19112" lon="5.96777">
        <ele>1883.6</ele>
        <time>2026-07-14T12:16:49Z</time>
      </trkpt>
      <trkpt lat="45.19112" lon="5.96776">
        <ele>1883.5</ele>
        <time>2026-07-14T12:16:50Z</time>
      </trkpt>
      <trkpt lat="45.19113" lon="5.96776">
        <ele>1883.4</ele>
        <time>2026-07-14T12:16:51Z</time>
      </trkpt>
      <trkpt lat="45.19113" lon="5.96777">
        <ele>1883.3</ele>
        <time>2026-07-14T12:16:52Z</time>
      </trkpt>
      <trkpt lat="45.19113" lon="5.96777">
        <ele>1883.2</ele>
        <time>2026-07-14T12:16:53Z</time>
      </trkpt>
      <trkpt lat="45.19114" lon="5.96777">
        <ele>1883.2</ele>
        <time>2026-07-14T12:16:54Z</time>
      </trkpt>
      <trkpt lat="45.19114" lon="5.96777">
        <ele>1883.2</ele>
        <time>2026-07-14T12:16:55Z</time>
      </trkpt>
      <trkpt lat="45.19113" lon="5.96777">
        <ele>1883</ele>
        <time>2026-07-14T12:16:56Z</time>
      </trkpt>
      <trkpt lat="45.19111" lon="5.96778">
        <ele>1882.8</ele>
        <time>2026-07-14T12:16:57Z</time>
      </trkpt>
      <trkpt lat="45.1911" lon="5.96778">
        <ele>1882.6</ele>
        <time>2026-07-14T12:16:59Z</time>
      </trkpt>
      <trkpt lat="45.19109" lon="5.96779">
        <ele>1882.4</ele>
        <time>2026-07-14T12:17:00Z</time>
      </trkpt>
      <trkpt lat="45.19109" lon="5.96779">
        <ele>1882.4</ele>
        <time>2026-07-14T12:17:01Z</time>
      </trkpt>
      <trkpt lat="45.19108" lon="5.9678">
        <ele>1882.2</ele>
        <time>2026-07-14T12:17:02Z</time>
      </trkpt>
      <trkpt lat="45.19107" lon="5.96779">
        <ele>1882.1</ele>
        <time>2026-07-14T12:17:03Z</time>
      </trkpt>
      <trkpt lat="45.19105" lon="5.96779">
        <ele>1881.9</ele>
        <time>2026-07-14T12:17:04Z</time>
      </trkpt>
      <trkpt lat="45.19104" lon="5.96779">
        <ele>1881.8</ele>
        <time>2026-07-14T12:17:06Z</time>
      </trkpt>
      <trkpt lat="45.19103" lon="5.96779">
        <ele>1881.7</ele>
        <time>2026-07-14T12:17:07Z</time>
      </trkpt>
      <trkpt lat="45.19102" lon="5.96779">
        <ele>1881.7</ele>
        <time>2026-07-14T12:17:08Z</time>
      </trkpt>
      <trkpt lat="45.191" lon="5.96779">
        <ele>1881.5</ele>
        <time>2026-07-14T12:17:09Z</time>
      </trkpt>
      <trkpt lat="45.191" lon="5.96779">
        <ele>1881.5</ele>
        <time>2026-07-14T12:17:11Z</time>
      </trkpt>
      <trkpt lat="45.19099" lon="5.96779">
        <ele>1881.4</ele>
        <time>2026-07-14T12:17:12Z</time>
      </trkpt>
      <trkpt lat="45.19098" lon="5.96779">
        <ele>1881.4</ele>
        <time>2026-07-14T12:17:13Z</time>
      </trkpt>
      <trkpt lat="45.19098" lon="5.9678">
        <ele>1881.4</ele>
        <time>2026-07-14T12:17:14Z</time>
      </trkpt>
      <trkpt lat="45.19097" lon="5.9678">
        <ele>1881.3</ele>
        <time>2026-07-14T12:17:15Z</time>
      </trkpt>
      <trkpt lat="45.19096" lon="5.9678">
        <ele>1881.3</ele>
        <time>2026-07-14T12:17:16Z</time>
      </trkpt>
      <trkpt lat="45.19094" lon="5.96781">
        <ele>1881.2</ele>
        <time>2026-07-14T12:17:17Z</time>
      </trkpt>
      <trkpt lat="45.19093" lon="5.96782">
        <ele>1881.1</ele>
        <time>2026-07-14T12:17:19Z</time>
      </trkpt>
      <trkpt lat="45.19093" lon="5.96783">
        <ele>1881.1</ele>
        <time>2026-07-14T12:17:20Z</time>
      </trkpt>
      <trkpt lat="45.19092" lon="5.96783">
        <ele>1881</ele>
        <time>2026-07-14T12:17:21Z</time>
      </trkpt>
      <trkpt lat="45.19091" lon="5.96784">
        <ele>1880.9</ele>
        <time>2026-07-14T12:17:22Z</time>
      </trkpt>
      <trkpt lat="45.1909" lon="5.96786">
        <ele>1880.9</ele>
        <time>2026-07-14T12:17:24Z</time>
      </trkpt>
      <trkpt lat="45.19089" lon="5.96788">
        <ele>1880.7</ele>
        <time>2026-07-14T12:17:25Z</time>
      </trkpt>
      <trkpt lat="45.19088" lon="5.96789">
        <ele>1880.6</ele>
        <time>2026-07-14T12:17:26Z</time>
      </trkpt>
      <trkpt lat="45.19087" lon="5.96791">
        <ele>1880.5</ele>
        <time>2026-07-14T12:17:28Z</time>
      </trkpt>
      <trkpt lat="45.19086" lon="5.96792">
        <ele>1880.5</ele>
        <time>2026-07-14T12:17:29Z</time>
      </trkpt>
      <trkpt lat="45.19086" lon="5.96793">
        <ele>1880.4</ele>
        <time>2026-07-14T12:17:30Z</time>
      </trkpt>
      <trkpt lat="45.19084" lon="5.96795">
        <ele>1880.2</ele>
        <time>2026-07-14T12:17:31Z</time>
      </trkpt>
      <trkpt lat="45.19084" lon="5.96796">
        <ele>1880.1</ele>
        <time>2026-07-14T12:17:33Z</time>
      </trkpt>
      <trkpt lat="45.19083" lon="5.96796">
        <ele>1880.1</ele>
        <time>2026-07-14T12:17:34Z</time>
      </trkpt>
      <trkpt lat="45.19083" lon="5.96796">
        <ele>1880</ele>
        <time>2026-07-14T12:17:35Z</time>
      </trkpt>
      <trkpt lat="45.19082" lon="5.96796">
        <ele>1879.9</ele>
        <time>2026-07-14T12:17:36Z</time>
      </trkpt>
      <trkpt lat="45.19081" lon="5.96796">
        <ele>1879.8</ele>
        <time>2026-07-14T12:17:37Z</time>
      </trkpt>
      <trkpt lat="45.1908" lon="5.96795">
        <ele>1879.7</ele>
        <time>2026-07-14T12:17:38Z</time>
      </trkpt>
      <trkpt lat="45.1908" lon="5.96795">
        <ele>1879.6</ele>
        <time>2026-07-14T12:17:39Z</time>
      </trkpt>
      <trkpt lat="45.1908" lon="5.96794">
        <ele>1879.6</ele>
        <time>2026-07-14T12:17:40Z</time>
      </trkpt>
      <trkpt lat="45.19078" lon="5.96794">
        <ele>1879.3</ele>
        <time>2026-07-14T12:17:41Z</time>
      </trkpt>
      <trkpt lat="45.19077" lon="5.96794">
        <ele>1879.2</ele>
        <time>2026-07-14T12:17:42Z</time>
      </trkpt>
      <trkpt lat="45.19076" lon="5.96794">
        <ele>1879.1</ele>
        <time>2026-07-14T12:17:43Z</time>
      </trkpt>
      <trkpt lat="45.19076" lon="5.96794">
        <ele>1879</ele>
        <time>2026-07-14T12:17:45Z</time>
      </trkpt>
      <trkpt lat="45.19075" lon="5.96795">
        <ele>1878.9</ele>
        <time>2026-07-14T12:17:46Z</time>
      </trkpt>
      <trkpt lat="45.19075" lon="5.96795">
        <ele>1878.9</ele>
        <time>2026-07-14T12:17:47Z</time>
      </trkpt>
      <trkpt lat="45.19074" lon="5.96796">
        <ele>1878.8</ele>
        <time>2026-07-14T12:17:48Z</time>
      </trkpt>
      <trkpt lat="45.19073" lon="5.96796">
        <ele>1878.6</ele>
        <time>2026-07-14T12:17:49Z</time>
      </trkpt>
      <trkpt lat="45.19072" lon="5.96797">
        <ele>1878.5</ele>
        <time>2026-07-14T12:17:51Z</time>
      </trkpt>
      <trkpt lat="45.19071" lon="5.96797">
        <ele>1878.3</ele>
        <time>2026-07-14T12:17:52Z</time>
      </trkpt>
      <trkpt lat="45.19071" lon="5.96797">
        <ele>1878.2</ele>
        <time>2026-07-14T12:17:53Z</time>
      </trkpt>
      <trkpt lat="45.1907" lon="5.96797">
        <ele>1878.1</ele>
        <time>2026-07-14T12:17:54Z</time>
      </trkpt>
      <trkpt lat="45.19068" lon="5.96797">
        <ele>1877.9</ele>
        <time>2026-07-14T12:17:55Z</time>
      </trkpt>
      <trkpt lat="45.19067" lon="5.96796">
        <ele>1877.7</ele>
        <time>2026-07-14T12:17:57Z</time>
      </trkpt>
      <trkpt lat="45.19067" lon="5.96796">
        <ele>1877.7</ele>
        <time>2026-07-14T12:17:58Z</time>
      </trkpt>
      <trkpt lat="45.19066" lon="5.96795">
        <ele>1877.5</ele>
        <time>2026-07-14T12:17:59Z</time>
      </trkpt>
      <trkpt lat="45.19065" lon="5.96795">
        <ele>1877.5</ele>
        <time>2026-07-14T12:18:00Z</time>
      </trkpt>
      <trkpt lat="45.19064" lon="5.96795">
        <ele>1877.2</ele>
        <time>2026-07-14T12:18:01Z</time>
      </trkpt>
      <trkpt lat="45.19063" lon="5.96795">
        <ele>1877.1</ele>
        <time>2026-07-14T12:18:03Z</time>
      </trkpt>
      <trkpt lat="45.19061" lon="5.96796">
        <ele>1877</ele>
        <time>2026-07-14T12:18:04Z</time>
      </trkpt>
      <trkpt lat="45.19061" lon="5.96796">
        <ele>1876.9</ele>
        <time>2026-07-14T12:18:05Z</time>
      </trkpt>
      <trkpt lat="45.1906" lon="5.96796">
        <ele>1876.8</ele>
        <time>2026-07-14T12:18:06Z</time>
      </trkpt>
      <trkpt lat="45.19059" lon="5.96797">
        <ele>1876.7</ele>
        <time>2026-07-14T12:18:07Z</time>
      </trkpt>
      <trkpt lat="45.19058" lon="5.96798">
        <ele>1876.6</ele>
        <time>2026-07-14T12:18:08Z</time>
      </trkpt>
      <trkpt lat="45.19058" lon="5.96798">
        <ele>1876.5</ele>
        <time>2026-07-14T12:18:09Z</time>
      </trkpt>
      <trkpt lat="45.19057" lon="5.96798">
        <ele>1876.5</ele>
        <time>2026-07-14T12:18:10Z</time>
      </trkpt>
      <trkpt lat="45.19056" lon="5.96799">
        <ele>1876.4</ele>
        <time>2026-07-14T12:18:11Z</time>
      </trkpt>
      <trkpt lat="45.19056" lon="5.968">
        <ele>1876.3</ele>
        <time>2026-07-14T12:18:12Z</time>
      </trkpt>
      <trkpt lat="45.19055" lon="5.968">
        <ele>1876.2</ele>
        <time>2026-07-14T12:18:13Z</time>
      </trkpt>
      <trkpt lat="45.19054" lon="5.968">
        <ele>1876.2</ele>
        <time>2026-07-14T12:18:14Z</time>
      </trkpt>
      <trkpt lat="45.19054" lon="5.968">
        <ele>1876.1</ele>
        <time>2026-07-14T12:18:15Z</time>
      </trkpt>
      <trkpt lat="45.19053" lon="5.96799">
        <ele>1876</ele>
        <time>2026-07-14T12:18:16Z</time>
      </trkpt>
      <trkpt lat="45.19051" lon="5.96798">
        <ele>1875.8</ele>
        <time>2026-07-14T12:18:17Z</time>
      </trkpt>
      <trkpt lat="45.19051" lon="5.96797">
        <ele>1875.6</ele>
        <time>2026-07-14T12:18:19Z</time>
      </trkpt>
      <trkpt lat="45.1905" lon="5.96795">
        <ele>1875.5</ele>
        <time>2026-07-14T12:18:20Z</time>
      </trkpt>
      <trkpt lat="45.1905" lon="5.96794">
        <ele>1875.4</ele>
        <time>2026-07-14T12:18:22Z</time>
      </trkpt>
      <trkpt lat="45.1905" lon="5.96793">
        <ele>1875.3</ele>
        <time>2026-07-14T12:18:23Z</time>
      </trkpt>
      <trkpt lat="45.19049" lon="5.96793">
        <ele>1875.2</ele>
        <time>2026-07-14T12:18:24Z</time>
      </trkpt>
      <trkpt lat="45.19049" lon="5.96792">
        <ele>1875.1</ele>
        <time>2026-07-14T12:18:25Z</time>
      </trkpt>
      <trkpt lat="45.19048" lon="5.96792">
        <ele>1875</ele>
        <time>2026-07-14T12:18:26Z</time>
      </trkpt>
      <trkpt lat="45.19047" lon="5.96792">
        <ele>1874.9</ele>
        <time>2026-07-14T12:18:27Z</time>
      </trkpt>
      <trkpt lat="45.19046" lon="5.96791">
        <ele>1874.7</ele>
        <time>2026-07-14T12:18:28Z</time>
      </trkpt>
      <trkpt lat="45.19046" lon="5.96791">
        <ele>1874.6</ele>
        <time>2026-07-14T12:18:29Z</time>
      </trkpt>
      <trkpt lat="45.19046" lon="5.9679">
        <ele>1874.5</ele>
        <time>2026-07-14T12:18:30Z</time>
      </trkpt>
      <trkpt lat="45.19045" lon="5.96788">
        <ele>1874.2</ele>
        <time>2026-07-14T12:18:31Z</time>
      </trkpt>
      <trkpt lat="45.19045" lon="5.96787">
        <ele>1874.1</ele>
        <time>2026-07-14T12:18:33Z</time>
      </trkpt>
      <trkpt lat="45.19045" lon="5.96787">
        <ele>1874</ele>
        <time>2026-07-14T12:18:34Z</time>
      </trkpt>
      <trkpt lat="45.19044" lon="5.96786">
        <ele>1873.8</ele>
        <time>2026-07-14T12:18:35Z</time>
      </trkpt>
      <trkpt lat="45.19044" lon="5.96786">
        <ele>1873.7</ele>
        <time>2026-07-14T12:18:36Z</time>
      </trkpt>
      <trkpt lat="45.19044" lon="5.96784">
        <ele>1873.4</ele>
        <time>2026-07-14T12:18:37Z</time>
      </trkpt>
      <trkpt lat="45.19045" lon="5.96783">
        <ele>1873.1</ele>
        <time>2026-07-14T12:18:39Z</time>
      </trkpt>
      <trkpt lat="45.19046" lon="5.96783">
        <ele>1872.9</ele>
        <time>2026-07-14T12:18:40Z</time>
      </trkpt>
      <trkpt lat="45.19046" lon="5.96782">
        <ele>1872.7</ele>
        <time>2026-07-14T12:18:41Z</time>
      </trkpt>
      <trkpt lat="45.19048" lon="5.96783">
        <ele>1872.3</ele>
        <time>2026-07-14T12:18:42Z</time>
      </trkpt>
      <trkpt lat="45.19049" lon="5.96784">
        <ele>1871.9</ele>
        <time>2026-07-14T12:18:44Z</time>
      </trkpt>
      <trkpt lat="45.19049" lon="5.96783">
        <ele>1871.7</ele>
        <time>2026-07-14T12:18:46Z</time>
      </trkpt>
      <trkpt lat="45.19049" lon="5.96781">
        <ele>1871.3</ele>
        <time>2026-07-14T12:18:47Z</time>
      </trkpt>
      <trkpt lat="45.1905" lon="5.96778">
        <ele>1870.5</ele>
        <time>2026-07-14T12:18:48Z</time>
      </trkpt>
      <trkpt lat="45.1905" lon="5.96777">
        <ele>1870.3</ele>
        <time>2026-07-14T12:18:50Z</time>
      </trkpt>
      <trkpt lat="45.1905" lon="5.96774">
        <ele>1869.7</ele>
        <time>2026-07-14T12:18:51Z</time>
      </trkpt>
      <trkpt lat="45.1905" lon="5.96773">
        <ele>1869.3</ele>
        <time>2026-07-14T12:18:52Z</time>
      </trkpt>
      <trkpt lat="45.19049" lon="5.96772">
        <ele>1869</ele>
        <time>2026-07-14T12:18:54Z</time>
      </trkpt>
      <trkpt lat="45.19049" lon="5.9677">
        <ele>1868.4</ele>
        <time>2026-07-14T12:18:55Z</time>
      </trkpt>
      <trkpt lat="45.19049" lon="5.96769">
        <ele>1868.2</ele>
        <time>2026-07-14T12:18:57Z</time>
      </trkpt>
      <trkpt lat="45.19049" lon="5.96768">
        <ele>1867.9</ele>
        <time>2026-07-14T12:18:58Z</time>
      </trkpt>
      <trkpt lat="45.19049" lon="5.96766">
        <ele>1867.6</ele>
        <time>2026-07-14T12:18:59Z</time>
      </trkpt>
      <trkpt lat="45.19049" lon="5.96765">
        <ele>1867.3</ele>
        <time>2026-07-14T12:19:00Z</time>
      </trkpt>
      <trkpt lat="45.19049" lon="5.96764">
        <ele>1867</ele>
        <time>2026-07-14T12:19:01Z</time>
      </trkpt>
      <trkpt lat="45.19048" lon="5.96762">
        <ele>1866.4</ele>
        <time>2026-07-14T12:19:02Z</time>
      </trkpt>
      <trkpt lat="45.19047" lon="5.96761">
        <ele>1866</ele>
        <time>2026-07-14T12:19:04Z</time>
      </trkpt>
      <trkpt lat="45.19046" lon="5.96761">
        <ele>1865.9</ele>
        <time>2026-07-14T12:19:05Z</time>
      </trkpt>
      <trkpt lat="45.19045" lon="5.9676">
        <ele>1865.4</ele>
        <time>2026-07-14T12:19:06Z</time>
      </trkpt>
      <trkpt lat="45.19045" lon="5.9676">
        <ele>1865.1</ele>
        <time>2026-07-14T12:19:08Z</time>
      </trkpt>
      <trkpt lat="45.19045" lon="5.9676">
        <ele>1865.1</ele>
        <time>2026-07-14T12:19:09Z</time>
      </trkpt>
      <trkpt lat="45.19045" lon="5.96759">
        <ele>1864.8</ele>
        <time>2026-07-14T12:19:10Z</time>
      </trkpt>
      <trkpt lat="45.19045" lon="5.96758">
        <ele>1864.5</ele>
        <time>2026-07-14T12:19:11Z</time>
      </trkpt>
      <trkpt lat="45.19046" lon="5.96758">
        <ele>1864.2</ele>
        <time>2026-07-14T12:19:12Z</time>
      </trkpt>
      <trkpt lat="45.19046" lon="5.96757">
        <ele>1863.9</ele>
        <time>2026-07-14T12:19:13Z</time>
      </trkpt>
      <trkpt lat="45.19048" lon="5.96756">
        <ele>1863.4</ele>
        <time>2026-07-14T12:19:14Z</time>
      </trkpt>
      <trkpt lat="45.19048" lon="5.96756">
        <ele>1863.2</ele>
        <time>2026-07-14T12:19:16Z</time>
      </trkpt>
      <trkpt lat="45.19049" lon="5.96756">
        <ele>1863.1</ele>
        <time>2026-07-14T12:19:17Z</time>
      </trkpt>
      <trkpt lat="45.19049" lon="5.96755">
        <ele>1862.8</ele>
        <time>2026-07-14T12:19:18Z</time>
      </trkpt>
      <trkpt lat="45.19049" lon="5.96754">
        <ele>1862.6</ele>
        <time>2026-07-14T12:19:19Z</time>
      </trkpt>
      <trkpt lat="45.1905" lon="5.96754">
        <ele>1862.4</ele>
        <time>2026-07-14T12:19:20Z</time>
      </trkpt>
      <trkpt lat="45.19049" lon="5.96752">
        <ele>1862</ele>
        <time>2026-07-14T12:19:21Z</time>
      </trkpt>
      <trkpt lat="45.19048" lon="5.96751">
        <ele>1861.4</ele>
        <time>2026-07-14T12:19:23Z</time>
      </trkpt>
      <trkpt lat="45.19047" lon="5.96751">
        <ele>1861.1</ele>
        <time>2026-07-14T12:19:24Z</time>
      </trkpt>
      <trkpt lat="45.19046" lon="5.96751">
        <ele>1860.8</ele>
        <time>2026-07-14T12:19:25Z</time>
      </trkpt>
      <trkpt lat="45.19046" lon="5.96751">
        <ele>1860.5</ele>
        <time>2026-07-14T12:19:26Z</time>
      </trkpt>
      <trkpt lat="45.19045" lon="5.96751">
        <ele>1860.2</ele>
        <time>2026-07-14T12:19:27Z</time>
      </trkpt>
      <trkpt lat="45.19044" lon="5.9675">
        <ele>1860</ele>
        <time>2026-07-14T12:19:28Z</time>
      </trkpt>
      <trkpt lat="45.19044" lon="5.9675">
        <ele>1859.8</ele>
        <time>2026-07-14T12:19:29Z</time>
      </trkpt>
      <trkpt lat="45.19044" lon="5.96748">
        <ele>1859.4</ele>
        <time>2026-07-14T12:19:30Z</time>
      </trkpt>
      <trkpt lat="45.19044" lon="5.96748">
        <ele>1859.3</ele>
        <time>2026-07-14T12:19:31Z</time>
      </trkpt>
      <trkpt lat="45.19044" lon="5.96748">
        <ele>1859.2</ele>
        <time>2026-07-14T12:19:32Z</time>
      </trkpt>
      <trkpt lat="45.19044" lon="5.96747">
        <ele>1859</ele>
        <time>2026-07-14T12:19:33Z</time>
      </trkpt>
      <trkpt lat="45.19044" lon="5.96746">
        <ele>1858.8</ele>
        <time>2026-07-14T12:19:34Z</time>
      </trkpt>
      <trkpt lat="45.19044" lon="5.96745">
        <ele>1858.6</ele>
        <time>2026-07-14T12:19:35Z</time>
      </trkpt>
      <trkpt lat="45.19043" lon="5.96745">
        <ele>1858.3</ele>
        <time>2026-07-14T12:19:36Z</time>
      </trkpt>
      <trkpt lat="45.19043" lon="5.96744">
        <ele>1858.1</ele>
        <time>2026-07-14T12:19:37Z</time>
      </trkpt>
      <trkpt lat="45.19043" lon="5.96743">
        <ele>1858</ele>
        <time>2026-07-14T12:19:38Z</time>
      </trkpt>
      <trkpt lat="45.19042" lon="5.96743">
        <ele>1857.8</ele>
        <time>2026-07-14T12:19:39Z</time>
      </trkpt>
      <trkpt lat="45.19043" lon="5.96741">
        <ele>1857.4</ele>
        <time>2026-07-14T12:19:40Z</time>
      </trkpt>
      <trkpt lat="45.19042" lon="5.9674">
        <ele>1857.2</ele>
        <time>2026-07-14T12:19:42Z</time>
      </trkpt>
      <trkpt lat="45.19042" lon="5.9674">
        <ele>1857.1</ele>
        <time>2026-07-14T12:19:43Z</time>
      </trkpt>
      <trkpt lat="45.19042" lon="5.96739">
        <ele>1856.7</ele>
        <time>2026-07-14T12:19:44Z</time>
      </trkpt>
      <trkpt lat="45.19041" lon="5.96738">
        <ele>1856.5</ele>
        <time>2026-07-14T12:19:45Z</time>
      </trkpt>
      <trkpt lat="45.19041" lon="5.96738">
        <ele>1856.4</ele>
        <time>2026-07-14T12:19:47Z</time>
      </trkpt>
      <trkpt lat="45.19042" lon="5.96736">
        <ele>1855.9</ele>
        <time>2026-07-14T12:19:48Z</time>
      </trkpt>
      <trkpt lat="45.19043" lon="5.96737">
        <ele>1855.6</ele>
        <time>2026-07-14T12:19:50Z</time>
      </trkpt>
      <trkpt lat="45.19044" lon="5.96737">
        <ele>1855.3</ele>
        <time>2026-07-14T12:19:51Z</time>
      </trkpt>
      <trkpt lat="45.19045" lon="5.96738">
        <ele>1855</ele>
        <time>2026-07-14T12:19:52Z</time>
      </trkpt>
      <trkpt lat="45.19046" lon="5.96738">
        <ele>1854.7</ele>
        <time>2026-07-14T12:19:53Z</time>
      </trkpt>
      <trkpt lat="45.19046" lon="5.96738">
        <ele>1854.5</ele>
        <time>2026-07-14T12:19:54Z</time>
      </trkpt>
      <trkpt lat="45.19047" lon="5.96738">
        <ele>1854.3</ele>
        <time>2026-07-14T12:19:55Z</time>
      </trkpt>
      <trkpt lat="45.19047" lon="5.96738">
        <ele>1854</ele>
        <time>2026-07-14T12:19:56Z</time>
      </trkpt>
      <trkpt lat="45.19048" lon="5.96736">
        <ele>1853.7</ele>
        <time>2026-07-14T12:19:57Z</time>
      </trkpt>
      <trkpt lat="45.19048" lon="5.96736">
        <ele>1853.5</ele>
        <time>2026-07-14T12:19:59Z</time>
      </trkpt>
      <trkpt lat="45.19047" lon="5.96734">
        <ele>1853</ele>
        <time>2026-07-14T12:20:00Z</time>
      </trkpt>
      <trkpt lat="45.19045" lon="5.96733">
        <ele>1852.5</ele>
        <time>2026-07-14T12:20:02Z</time>
      </trkpt>
      <trkpt lat="45.19045" lon="5.96733">
        <ele>1852.3</ele>
        <time>2026-07-14T12:20:04Z</time>
      </trkpt>
      <trkpt lat="45.19044" lon="5.96733">
        <ele>1852.2</ele>
        <time>2026-07-14T12:20:05Z</time>
      </trkpt>
      <trkpt lat="45.19044" lon="5.96732">
        <ele>1852.1</ele>
        <time>2026-07-14T12:20:06Z</time>
      </trkpt>
      <trkpt lat="45.19045" lon="5.96731">
        <ele>1851.9</ele>
        <time>2026-07-14T12:20:07Z</time>
      </trkpt>
      <trkpt lat="45.19045" lon="5.9673">
        <ele>1851.6</ele>
        <time>2026-07-14T12:20:08Z</time>
      </trkpt>
      <trkpt lat="45.19045" lon="5.96729">
        <ele>1851.2</ele>
        <time>2026-07-14T12:20:09Z</time>
      </trkpt>
      <trkpt lat="45.19044" lon="5.96728">
        <ele>1851</ele>
        <time>2026-07-14T12:20:10Z</time>
      </trkpt>
      <trkpt lat="45.19044" lon="5.96728">
        <ele>1850.9</ele>
        <time>2026-07-14T12:20:12Z</time>
      </trkpt>
      <trkpt lat="45.19044" lon="5.96727">
        <ele>1850.6</ele>
        <time>2026-07-14T12:20:13Z</time>
      </trkpt>
      <trkpt lat="45.19044" lon="5.96726">
        <ele>1850.5</ele>
        <time>2026-07-14T12:20:14Z</time>
      </trkpt>
      <trkpt lat="45.19045" lon="5.96725">
        <ele>1850.2</ele>
        <time>2026-07-14T12:20:15Z</time>
      </trkpt>
      <trkpt lat="45.19045" lon="5.96724">
        <ele>1850</ele>
        <time>2026-07-14T12:20:16Z</time>
      </trkpt>
      <trkpt lat="45.19045" lon="5.96723">
        <ele>1849.7</ele>
        <time>2026-07-14T12:20:17Z</time>
      </trkpt>
      <trkpt lat="45.19044" lon="5.96722">
        <ele>1849.4</ele>
        <time>2026-07-14T12:20:18Z</time>
      </trkpt>
      <trkpt lat="45.19045" lon="5.96721">
        <ele>1849.2</ele>
        <time>2026-07-14T12:20:19Z</time>
      </trkpt>
      <trkpt lat="45.19045" lon="5.9672">
        <ele>1848.9</ele>
        <time>2026-07-14T12:20:20Z</time>
      </trkpt>
      <trkpt lat="45.19044" lon="5.96718">
        <ele>1848.4</ele>
        <time>2026-07-14T12:20:21Z</time>
      </trkpt>
      <trkpt lat="45.19044" lon="5.96717">
        <ele>1848.3</ele>
        <time>2026-07-14T12:20:23Z</time>
      </trkpt>
      <trkpt lat="45.19044" lon="5.96716">
        <ele>1848.1</ele>
        <time>2026-07-14T12:20:24Z</time>
      </trkpt>
      <trkpt lat="45.19044" lon="5.96715">
        <ele>1847.9</ele>
        <time>2026-07-14T12:20:25Z</time>
      </trkpt>
      <trkpt lat="45.19044" lon="5.96715">
        <ele>1847.7</ele>
        <time>2026-07-14T12:20:26Z</time>
      </trkpt>
      <trkpt lat="45.19043" lon="5.96714">
        <ele>1847.4</ele>
        <time>2026-07-14T12:20:27Z</time>
      </trkpt>
      <trkpt lat="45.19042" lon="5.96714">
        <ele>1847.2</ele>
        <time>2026-07-14T12:20:28Z</time>
      </trkpt>
      <trkpt lat="45.19042" lon="5.96713">
        <ele>1847</ele>
        <time>2026-07-14T12:20:29Z</time>
      </trkpt>
      <trkpt lat="45.19041" lon="5.96713">
        <ele>1846.9</ele>
        <time>2026-07-14T12:20:30Z</time>
      </trkpt>
      <trkpt lat="45.19041" lon="5.96712">
        <ele>1846.7</ele>
        <time>2026-07-14T12:20:31Z</time>
      </trkpt>
      <trkpt lat="45.1904" lon="5.96711">
        <ele>1846.5</ele>
        <time>2026-07-14T12:20:32Z</time>
      </trkpt>
      <trkpt lat="45.19041" lon="5.96711">
        <ele>1846.3</ele>
        <time>2026-07-14T12:20:33Z</time>
      </trkpt>
      <trkpt lat="45.19041" lon="5.96709">
        <ele>1846</ele>
        <time>2026-07-14T12:20:34Z</time>
      </trkpt>
      <trkpt lat="45.19042" lon="5.96709">
        <ele>1845.8</ele>
        <time>2026-07-14T12:20:35Z</time>
      </trkpt>
      <trkpt lat="45.19043" lon="5.9671">
        <ele>1845.5</ele>
        <time>2026-07-14T12:20:36Z</time>
      </trkpt>
      <trkpt lat="45.19043" lon="5.96711">
        <ele>1845.3</ele>
        <time>2026-07-14T12:20:37Z</time>
      </trkpt>
      <trkpt lat="45.19043" lon="5.96711">
        <ele>1845.2</ele>
        <time>2026-07-14T12:20:38Z</time>
      </trkpt>
      <trkpt lat="45.19043" lon="5.96711">
        <ele>1845.2</ele>
        <time>2026-07-14T12:20:39Z</time>
      </trkpt>
      <trkpt lat="45.19043" lon="5.96712">
        <ele>1845.1</ele>
        <time>2026-07-14T12:20:41Z</time>
      </trkpt>
      <trkpt lat="45.19043" lon="5.96712">
        <ele>1845.1</ele>
        <time>2026-07-14T12:20:42Z</time>
      </trkpt>
      <trkpt lat="45.19043" lon="5.96712">
        <ele>1845</ele>
        <time>2026-07-14T12:20:43Z</time>
      </trkpt>
      <trkpt lat="45.19043" lon="5.96712">
        <ele>1845</ele>
        <time>2026-07-14T12:20:44Z</time>
      </trkpt>
      <trkpt lat="45.19043" lon="5.96712">
        <ele>1845</ele>
        <time>2026-07-14T12:20:45Z</time>
      </trkpt>
      <trkpt lat="45.19043" lon="5.96712">
        <ele>1844.9</ele>
        <time>2026-07-14T12:20:46Z</time>
      </trkpt>
      <trkpt lat="45.19043" lon="5.96712">
        <ele>1844.9</ele>
        <time>2026-07-14T12:20:47Z</time>
      </trkpt>
      <trkpt lat="45.19043" lon="5.96712">
        <ele>1844.9</ele>
        <time>2026-07-14T12:20:48Z</time>
      </trkpt>
      <trkpt lat="45.19043" lon="5.96712">
        <ele>1844.9</ele>
        <time>2026-07-14T12:20:49Z</time>
      </trkpt>
      <trkpt lat="45.19043" lon="5.96713">
        <ele>1844.8</ele>
        <time>2026-07-14T12:20:50Z</time>
      </trkpt>
      <trkpt lat="45.19043" lon="5.96713">
        <ele>1844.8</ele>
        <time>2026-07-14T12:20:51Z</time>
      </trkpt>
      <trkpt lat="45.19043" lon="5.96713">
        <ele>1844.8</ele>
        <time>2026-07-14T12:20:52Z</time>
      </trkpt>
      <trkpt lat="45.19043" lon="5.96713">
        <ele>1844.8</ele>
        <time>2026-07-14T12:20:53Z</time>
      </trkpt>
      <trkpt lat="45.19043" lon="5.96713">
        <ele>1844.8</ele>
        <time>2026-07-14T12:20:54Z</time>
      </trkpt>
      <trkpt lat="45.19043" lon="5.96713">
        <ele>1844.8</ele>
        <time>2026-07-14T12:20:55Z</time>
      </trkpt>
      <trkpt lat="45.19043" lon="5.96713">
        <ele>1844.8</ele>
        <time>2026-07-14T12:20:56Z</time>
      </trkpt>
      <trkpt lat="45.19043" lon="5.96713">
        <ele>1844.8</ele>
        <time>2026-07-14T12:20:57Z</time>
      </trkpt>
      <trkpt lat="45.19043" lon="5.96713">
        <ele>1844.8</ele>
        <time>2026-07-14T12:20:58Z</time>
      </trkpt>
      <trkpt lat="45.19043" lon="5.96713">
        <ele>1844.8</ele>
        <time>2026-07-14T12:20:59Z</time>
      </trkpt>
      <trkpt lat="45.19043" lon="5.96713">
        <ele>1844.8</ele>
        <time>2026-07-14T12:21:00Z</time>
      </trkpt>
      <trkpt lat="45.19043" lon="5.96713">
        <ele>1844.7</ele>
        <time>2026-07-14T12:21:01Z</time>
      </trkpt>
      <trkpt lat="45.19043" lon="5.96713">
        <ele>1844.7</ele>
        <time>2026-07-14T12:21:02Z</time>
      </trkpt>
      <trkpt lat="45.19043" lon="5.96713">
        <ele>1844.7</ele>
        <time>2026-07-14T12:21:03Z</time>
      </trkpt>
      <trkpt lat="45.19043" lon="5.96713">
        <ele>1844.7</ele>
        <time>2026-07-14T12:21:04Z</time>
      </trkpt>
      <trkpt lat="45.19043" lon="5.96713">
        <ele>1844.7</ele>
        <time>2026-07-14T12:21:05Z</time>
      </trkpt>
      <trkpt lat="45.19043" lon="5.96713">
        <ele>1844.7</ele>
        <time>2026-07-14T12:21:06Z</time>
      </trkpt>
      <trkpt lat="45.19043" lon="5.96713">
        <ele>1844.7</ele>
        <time>2026-07-14T12:21:07Z</time>
      </trkpt>
      <trkpt lat="45.19043" lon="5.96713">
        <ele>1844.7</ele>
        <time>2026-07-14T12:21:08Z</time>
      </trkpt>
      <trkpt lat="45.19043" lon="5.96713">
        <ele>1844.7</ele>
        <time>2026-07-14T12:21:09Z</time>
      </trkpt>
      <trkpt lat="45.19043" lon="5.96713">
        <ele>1844.6</ele>
        <time>2026-07-14T12:21:10Z</time>
      </trkpt>
      <trkpt lat="45.19043" lon="5.96713">
        <ele>1844.6</ele>
        <time>2026-07-14T12:21:11Z</time>
      </trkpt>
      <trkpt lat="45.19043" lon="5.96713">
        <ele>1844.6</ele>
        <time>2026-07-14T12:21:12Z</time>
      </trkpt>
      <trkpt lat="45.19044" lon="5.96713">
        <ele>1844.5</ele>
        <time>2026-07-14T12:21:13Z</time>
      </trkpt>
      <trkpt lat="45.19045" lon="5.96713">
        <ele>1844.2</ele>
        <time>2026-07-14T12:21:15Z</time>
      </trkpt>
      <trkpt lat="45.19046" lon="5.96714">
        <ele>1843.9</ele>
        <time>2026-07-14T12:21:16Z</time>
      </trkpt>
      <trkpt lat="45.19047" lon="5.96714">
        <ele>1843.6</ele>
        <time>2026-07-14T12:21:17Z</time>
      </trkpt>
      <trkpt lat="45.19048" lon="5.96715">
        <ele>1843.4</ele>
        <time>2026-07-14T12:21:18Z</time>
      </trkpt>
      <trkpt lat="45.19048" lon="5.96715">
        <ele>1843.2</ele>
        <time>2026-07-14T12:21:19Z</time>
      </trkpt>
      <trkpt lat="45.19049" lon="5.96716">
        <ele>1843</ele>
        <time>2026-07-14T12:21:20Z</time>
      </trkpt>
      <trkpt lat="45.19049" lon="5.96716">
        <ele>1842.9</ele>
        <time>2026-07-14T12:21:21Z</time>
      </trkpt>
      <trkpt lat="45.19049" lon="5.96717">
        <ele>1842.7</ele>
        <time>2026-07-14T12:21:22Z</time>
      </trkpt>
      <trkpt lat="45.1905" lon="5.96718">
        <ele>1842.4</ele>
        <time>2026-07-14T12:21:23Z</time>
      </trkpt>
      <trkpt lat="45.19051" lon="5.96718">
        <ele>1842.2</ele>
        <time>2026-07-14T12:21:25Z</time>
      </trkpt>
      <trkpt lat="45.19051" lon="5.96717">
        <ele>1841.9</ele>
        <time>2026-07-14T12:21:26Z</time>
      </trkpt>
      <trkpt lat="45.19051" lon="5.96714">
        <ele>1841.4</ele>
        <time>2026-07-14T12:21:27Z</time>
      </trkpt>
      <trkpt lat="45.19051" lon="5.96713">
        <ele>1841.2</ele>
        <time>2026-07-14T12:21:28Z</time>
      </trkpt>
      <trkpt lat="45.19051" lon="5.96712">
        <ele>1840.9</ele>
        <time>2026-07-14T12:21:29Z</time>
      </trkpt>
      <trkpt lat="45.1905" lon="5.96711">
        <ele>1840.8</ele>
        <time>2026-07-14T12:21:30Z</time>
      </trkpt>
      <trkpt lat="45.1905" lon="5.96709">
        <ele>1840.3</ele>
        <time>2026-07-14T12:21:31Z</time>
      </trkpt>
      <trkpt lat="45.19049" lon="5.96709">
        <ele>1840.1</ele>
        <time>2026-07-14T12:21:33Z</time>
      </trkpt>
      <trkpt lat="45.19049" lon="5.96707">
        <ele>1839.7</ele>
        <time>2026-07-14T12:21:34Z</time>
      </trkpt>
      <trkpt lat="45.19048" lon="5.96706">
        <ele>1839.5</ele>
        <time>2026-07-14T12:21:35Z</time>
      </trkpt>
      <trkpt lat="45.19048" lon="5.96705">
        <ele>1839.3</ele>
        <time>2026-07-14T12:21:36Z</time>
      </trkpt>
      <trkpt lat="45.19047" lon="5.96704">
        <ele>1838.9</ele>
        <time>2026-07-14T12:21:37Z</time>
      </trkpt>
      <trkpt lat="45.19047" lon="5.96704">
        <ele>1838.8</ele>
        <time>2026-07-14T12:21:39Z</time>
      </trkpt>
      <trkpt lat="45.19046" lon="5.96703">
        <ele>1838.6</ele>
        <time>2026-07-14T12:21:40Z</time>
      </trkpt>
      <trkpt lat="45.19046" lon="5.96702">
        <ele>1838.3</ele>
        <time>2026-07-14T12:21:41Z</time>
      </trkpt>
      <trkpt lat="45.19046" lon="5.96702">
        <ele>1838.1</ele>
        <time>2026-07-14T12:21:42Z</time>
      </trkpt>
      <trkpt lat="45.19045" lon="5.96701">
        <ele>1837.9</ele>
        <time>2026-07-14T12:21:43Z</time>
      </trkpt>
      <trkpt lat="45.19045" lon="5.967">
        <ele>1837.7</ele>
        <time>2026-07-14T12:21:44Z</time>
      </trkpt>
      <trkpt lat="45.19044" lon="5.96698">
        <ele>1837.1</ele>
        <time>2026-07-14T12:21:45Z</time>
      </trkpt>
      <trkpt lat="45.19043" lon="5.96697">
        <ele>1836.8</ele>
        <time>2026-07-14T12:21:47Z</time>
      </trkpt>
      <trkpt lat="45.19042" lon="5.96697">
        <ele>1836.5</ele>
        <time>2026-07-14T12:21:48Z</time>
      </trkpt>
      <trkpt lat="45.1904" lon="5.96696">
        <ele>1836</ele>
        <time>2026-07-14T12:21:49Z</time>
      </trkpt>
      <trkpt lat="45.1904" lon="5.96696">
        <ele>1835.8</ele>
        <time>2026-07-14T12:21:51Z</time>
      </trkpt>
      <trkpt lat="45.19039" lon="5.96695">
        <ele>1835.6</ele>
        <time>2026-07-14T12:21:52Z</time>
      </trkpt>
      <trkpt lat="45.19039" lon="5.96694">
        <ele>1835.3</ele>
        <time>2026-07-14T12:21:53Z</time>
      </trkpt>
      <trkpt lat="45.19038" lon="5.96694">
        <ele>1835.1</ele>
        <time>2026-07-14T12:21:54Z</time>
      </trkpt>
      <trkpt lat="45.19036" lon="5.96693">
        <ele>1834.5</ele>
        <time>2026-07-14T12:21:55Z</time>
      </trkpt>
      <trkpt lat="45.19036" lon="5.96693">
        <ele>1834.3</ele>
        <time>2026-07-14T12:21:56Z</time>
      </trkpt>
      <trkpt lat="45.19036" lon="5.96693">
        <ele>1834.2</ele>
        <time>2026-07-14T12:21:58Z</time>
      </trkpt>
      <trkpt lat="45.19035" lon="5.96692">
        <ele>1834</ele>
        <time>2026-07-14T12:21:59Z</time>
      </trkpt>
      <trkpt lat="45.19034" lon="5.96692">
        <ele>1833.6</ele>
        <time>2026-07-14T12:22:00Z</time>
      </trkpt>
      <trkpt lat="45.19034" lon="5.96691">
        <ele>1833.5</ele>
        <time>2026-07-14T12:22:01Z</time>
      </trkpt>
      <trkpt lat="45.19033" lon="5.96692">
        <ele>1833.3</ele>
        <time>2026-07-14T12:22:02Z</time>
      </trkpt>
      <trkpt lat="45.19033" lon="5.96692">
        <ele>1833.1</ele>
        <time>2026-07-14T12:22:03Z</time>
      </trkpt>
      <trkpt lat="45.19032" lon="5.96692">
        <ele>1833</ele>
        <time>2026-07-14T12:22:04Z</time>
      </trkpt>
      <trkpt lat="45.19032" lon="5.96692">
        <ele>1832.8</ele>
        <time>2026-07-14T12:22:05Z</time>
      </trkpt>
      <trkpt lat="45.19031" lon="5.96691">
        <ele>1832.6</ele>
        <time>2026-07-14T12:22:06Z</time>
      </trkpt>
      <trkpt lat="45.19031" lon="5.9669">
        <ele>1832.3</ele>
        <time>2026-07-14T12:22:07Z</time>
      </trkpt>
      <trkpt lat="45.19031" lon="5.96688">
        <ele>1831.9</ele>
        <time>2026-07-14T12:22:08Z</time>
      </trkpt>
      <trkpt lat="45.1903" lon="5.96687">
        <ele>1831.5</ele>
        <time>2026-07-14T12:22:10Z</time>
      </trkpt>
      <trkpt lat="45.19029" lon="5.96687">
        <ele>1831.3</ele>
        <time>2026-07-14T12:22:12Z</time>
      </trkpt>
      <trkpt lat="45.19029" lon="5.96687">
        <ele>1831.2</ele>
        <time>2026-07-14T12:22:13Z</time>
      </trkpt>
      <trkpt lat="45.19028" lon="5.96686">
        <ele>1830.9</ele>
        <time>2026-07-14T12:22:14Z</time>
      </trkpt>
      <trkpt lat="45.19028" lon="5.96685">
        <ele>1830.8</ele>
        <time>2026-07-14T12:22:15Z</time>
      </trkpt>
      <trkpt lat="45.19028" lon="5.96684">
        <ele>1830.6</ele>
        <time>2026-07-14T12:22:16Z</time>
      </trkpt>
      <trkpt lat="45.19028" lon="5.96683">
        <ele>1830.3</ele>
        <time>2026-07-14T12:22:17Z</time>
      </trkpt>
      <trkpt lat="45.19029" lon="5.96682">
        <ele>1830.1</ele>
        <time>2026-07-14T12:22:18Z</time>
      </trkpt>
      <trkpt lat="45.19029" lon="5.96681">
        <ele>1829.7</ele>
        <time>2026-07-14T12:22:19Z</time>
      </trkpt>
      <trkpt lat="45.1903" lon="5.96682">
        <ele>1829.4</ele>
        <time>2026-07-14T12:22:20Z</time>
      </trkpt>
      <trkpt lat="45.19031" lon="5.96682">
        <ele>1829.2</ele>
        <time>2026-07-14T12:22:21Z</time>
      </trkpt>
      <trkpt lat="45.19032" lon="5.96683">
        <ele>1829</ele>
        <time>2026-07-14T12:22:22Z</time>
      </trkpt>
      <trkpt lat="45.19032" lon="5.96683">
        <ele>1828.8</ele>
        <time>2026-07-14T12:22:23Z</time>
      </trkpt>
      <trkpt lat="45.19032" lon="5.96683">
        <ele>1828.6</ele>
        <time>2026-07-14T12:22:24Z</time>
      </trkpt>
      <trkpt lat="45.19032" lon="5.96681">
        <ele>1828.3</ele>
        <time>2026-07-14T12:22:26Z</time>
      </trkpt>
      <trkpt lat="45.19031" lon="5.9668">
        <ele>1827.9</ele>
        <time>2026-07-14T12:22:27Z</time>
      </trkpt>
      <trkpt lat="45.19029" lon="5.9668">
        <ele>1827.2</ele>
        <time>2026-07-14T12:22:28Z</time>
      </trkpt>
      <trkpt lat="45.19028" lon="5.9668">
        <ele>1826.9</ele>
        <time>2026-07-14T12:22:30Z</time>
      </trkpt>
      <trkpt lat="45.19026" lon="5.96679">
        <ele>1826.3</ele>
        <time>2026-07-14T12:22:31Z</time>
      </trkpt>
      <trkpt lat="45.19026" lon="5.96678">
        <ele>1825.9</ele>
        <time>2026-07-14T12:22:33Z</time>
      </trkpt>
      <trkpt lat="45.19025" lon="5.96677">
        <ele>1825.7</ele>
        <time>2026-07-14T12:22:35Z</time>
      </trkpt>
      <trkpt lat="45.19025" lon="5.96677">
        <ele>1825.6</ele>
        <time>2026-07-14T12:22:36Z</time>
      </trkpt>
      <trkpt lat="45.19025" lon="5.96676">
        <ele>1825.4</ele>
        <time>2026-07-14T12:22:37Z</time>
      </trkpt>
      <trkpt lat="45.19024" lon="5.96675">
        <ele>1825</ele>
        <time>2026-07-14T12:22:38Z</time>
      </trkpt>
      <trkpt lat="45.19024" lon="5.96674">
        <ele>1824.9</ele>
        <time>2026-07-14T12:22:39Z</time>
      </trkpt>
      <trkpt lat="45.19024" lon="5.96672">
        <ele>1824.4</ele>
        <time>2026-07-14T12:22:40Z</time>
      </trkpt>
      <trkpt lat="45.19024" lon="5.96671">
        <ele>1824.2</ele>
        <time>2026-07-14T12:22:41Z</time>
      </trkpt>
      <trkpt lat="45.19023" lon="5.9667">
        <ele>1824</ele>
        <time>2026-07-14T12:22:42Z</time>
      </trkpt>
      <trkpt lat="45.19023" lon="5.9667">
        <ele>1823.9</ele>
        <time>2026-07-14T12:22:44Z</time>
      </trkpt>
      <trkpt lat="45.19022" lon="5.96669">
        <ele>1823.4</ele>
        <time>2026-07-14T12:22:45Z</time>
      </trkpt>
      <trkpt lat="45.19021" lon="5.96669">
        <ele>1823.2</ele>
        <time>2026-07-14T12:22:46Z</time>
      </trkpt>
      <trkpt lat="45.19021" lon="5.96668">
        <ele>1823.1</ele>
        <time>2026-07-14T12:22:48Z</time>
      </trkpt>
      <trkpt lat="45.19021" lon="5.96667">
        <ele>1822.8</ele>
        <time>2026-07-14T12:22:49Z</time>
      </trkpt>
      <trkpt lat="45.19021" lon="5.96666">
        <ele>1822.6</ele>
        <time>2026-07-14T12:22:50Z</time>
      </trkpt>
      <trkpt lat="45.19021" lon="5.96665">
        <ele>1822.4</ele>
        <time>2026-07-14T12:22:51Z</time>
      </trkpt>
      <trkpt lat="45.1902" lon="5.96664">
        <ele>1822</ele>
        <time>2026-07-14T12:22:52Z</time>
      </trkpt>
      <trkpt lat="45.1902" lon="5.96664">
        <ele>1821.9</ele>
        <time>2026-07-14T12:22:53Z</time>
      </trkpt>
      <trkpt lat="45.1902" lon="5.96664">
        <ele>1821.7</ele>
        <time>2026-07-14T12:22:54Z</time>
      </trkpt>
      <trkpt lat="45.19019" lon="5.96663">
        <ele>1821.5</ele>
        <time>2026-07-14T12:22:55Z</time>
      </trkpt>
      <trkpt lat="45.19019" lon="5.96663">
        <ele>1821.4</ele>
        <time>2026-07-14T12:22:56Z</time>
      </trkpt>
      <trkpt lat="45.19019" lon="5.96663">
        <ele>1821.2</ele>
        <time>2026-07-14T12:22:57Z</time>
      </trkpt>
      <trkpt lat="45.19018" lon="5.96663">
        <ele>1821</ele>
        <time>2026-07-14T12:22:58Z</time>
      </trkpt>
      <trkpt lat="45.19018" lon="5.96663">
        <ele>1820.9</ele>
        <time>2026-07-14T12:22:59Z</time>
      </trkpt>
      <trkpt lat="45.19018" lon="5.96662">
        <ele>1820.6</ele>
        <time>2026-07-14T12:23:00Z</time>
      </trkpt>
      <trkpt lat="45.1902" lon="5.9666">
        <ele>1820</ele>
        <time>2026-07-14T12:23:01Z</time>
      </trkpt>
      <trkpt lat="45.19021" lon="5.9666">
        <ele>1819.6</ele>
        <time>2026-07-14T12:23:03Z</time>
      </trkpt>
      <trkpt lat="45.19022" lon="5.9666">
        <ele>1819.1</ele>
        <time>2026-07-14T12:23:04Z</time>
      </trkpt>
      <trkpt lat="45.19023" lon="5.9666">
        <ele>1818.9</ele>
        <time>2026-07-14T12:23:06Z</time>
      </trkpt>
      <trkpt lat="45.19023" lon="5.96661">
        <ele>1818.7</ele>
        <time>2026-07-14T12:23:07Z</time>
      </trkpt>
      <trkpt lat="45.19024" lon="5.96661">
        <ele>1818.5</ele>
        <time>2026-07-14T12:23:08Z</time>
      </trkpt>
      <trkpt lat="45.19025" lon="5.96661">
        <ele>1818.2</ele>
        <time>2026-07-14T12:23:09Z</time>
      </trkpt>
      <trkpt lat="45.19025" lon="5.96662">
        <ele>1818.1</ele>
        <time>2026-07-14T12:23:10Z</time>
      </trkpt>
      <trkpt lat="45.19025" lon="5.96662">
        <ele>1818</ele>
        <time>2026-07-14T12:23:11Z</time>
      </trkpt>
      <trkpt lat="45.19026" lon="5.96662">
        <ele>1817.7</ele>
        <time>2026-07-14T12:23:12Z</time>
      </trkpt>
      <trkpt lat="45.19026" lon="5.96662">
        <ele>1817.6</ele>
        <time>2026-07-14T12:23:13Z</time>
      </trkpt>
      <trkpt lat="45.19027" lon="5.96663">
        <ele>1817.3</ele>
        <time>2026-07-14T12:23:14Z</time>
      </trkpt>
      <trkpt lat="45.19028" lon="5.96663">
        <ele>1817.1</ele>
        <time>2026-07-14T12:23:15Z</time>
      </trkpt>
      <trkpt lat="45.19028" lon="5.96662">
        <ele>1816.9</ele>
        <time>2026-07-14T12:23:16Z</time>
      </trkpt>
      <trkpt lat="45.19028" lon="5.96661">
        <ele>1816.7</ele>
        <time>2026-07-14T12:23:17Z</time>
      </trkpt>
      <trkpt lat="45.19028" lon="5.96659">
        <ele>1816.1</ele>
        <time>2026-07-14T12:23:18Z</time>
      </trkpt>
      <trkpt lat="45.19027" lon="5.96658">
        <ele>1815.8</ele>
        <time>2026-07-14T12:23:20Z</time>
      </trkpt>
      <trkpt lat="45.19026" lon="5.96657">
        <ele>1815.2</ele>
        <time>2026-07-14T12:23:21Z</time>
      </trkpt>
      <trkpt lat="45.19025" lon="5.96657">
        <ele>1814.8</ele>
        <time>2026-07-14T12:23:22Z</time>
      </trkpt>
      <trkpt lat="45.19024" lon="5.96656">
        <ele>1814.4</ele>
        <time>2026-07-14T12:23:23Z</time>
      </trkpt>
      <trkpt lat="45.19023" lon="5.96656">
        <ele>1814.1</ele>
        <time>2026-07-14T12:23:25Z</time>
      </trkpt>
      <trkpt lat="45.19021" lon="5.96656">
        <ele>1813.5</ele>
        <time>2026-07-14T12:23:26Z</time>
      </trkpt>
      <trkpt lat="45.19021" lon="5.96655">
        <ele>1813.3</ele>
        <time>2026-07-14T12:23:28Z</time>
      </trkpt>
      <trkpt lat="45.19021" lon="5.96655">
        <ele>1813.3</ele>
        <time>2026-07-14T12:23:29Z</time>
      </trkpt>
      <trkpt lat="45.19021" lon="5.96654">
        <ele>1813</ele>
        <time>2026-07-14T12:23:30Z</time>
      </trkpt>
      <trkpt lat="45.19021" lon="5.96654">
        <ele>1812.9</ele>
        <time>2026-07-14T12:23:31Z</time>
      </trkpt>
      <trkpt lat="45.19021" lon="5.96652">
        <ele>1812.5</ele>
        <time>2026-07-14T12:23:32Z</time>
      </trkpt>
      <trkpt lat="45.19021" lon="5.96652">
        <ele>1812.5</ele>
        <time>2026-07-14T12:23:34Z</time>
      </trkpt>
      <trkpt lat="45.1902" lon="5.96651">
        <ele>1812.2</ele>
        <time>2026-07-14T12:23:35Z</time>
      </trkpt>
      <trkpt lat="45.1902" lon="5.96649">
        <ele>1811.7</ele>
        <time>2026-07-14T12:23:36Z</time>
      </trkpt>
      <trkpt lat="45.1902" lon="5.96648">
        <ele>1811.5</ele>
        <time>2026-07-14T12:23:38Z</time>
      </trkpt>
      <trkpt lat="45.1902" lon="5.96647">
        <ele>1811.3</ele>
        <time>2026-07-14T12:23:39Z</time>
      </trkpt>
      <trkpt lat="45.1902" lon="5.96646">
        <ele>1810.8</ele>
        <time>2026-07-14T12:23:40Z</time>
      </trkpt>
      <trkpt lat="45.19019" lon="5.96645">
        <ele>1810.5</ele>
        <time>2026-07-14T12:23:41Z</time>
      </trkpt>
      <trkpt lat="45.19019" lon="5.96644">
        <ele>1810.4</ele>
        <time>2026-07-14T12:23:43Z</time>
      </trkpt>
      <trkpt lat="45.19018" lon="5.96644">
        <ele>1810.1</ele>
        <time>2026-07-14T12:23:44Z</time>
      </trkpt>
      <trkpt lat="45.19018" lon="5.96643">
        <ele>1810</ele>
        <time>2026-07-14T12:23:45Z</time>
      </trkpt>
      <trkpt lat="45.19018" lon="5.96641">
        <ele>1809.4</ele>
        <time>2026-07-14T12:23:46Z</time>
      </trkpt>
      <trkpt lat="45.19018" lon="5.9664">
        <ele>1809.2</ele>
        <time>2026-07-14T12:23:48Z</time>
      </trkpt>
      <trkpt lat="45.19018" lon="5.9664">
        <ele>1809</ele>
        <time>2026-07-14T12:23:49Z</time>
      </trkpt>
      <trkpt lat="45.19018" lon="5.96639">
        <ele>1808.9</ele>
        <time>2026-07-14T12:23:50Z</time>
      </trkpt>
      <trkpt lat="45.19017" lon="5.96639">
        <ele>1808.7</ele>
        <time>2026-07-14T12:23:51Z</time>
      </trkpt>
      <trkpt lat="45.19016" lon="5.96638">
        <ele>1808.3</ele>
        <time>2026-07-14T12:23:52Z</time>
      </trkpt>
      <trkpt lat="45.19016" lon="5.96638">
        <ele>1808.3</ele>
        <time>2026-07-14T12:23:53Z</time>
      </trkpt>
      <trkpt lat="45.19016" lon="5.96637">
        <ele>1808</ele>
        <time>2026-07-14T12:23:54Z</time>
      </trkpt>
      <trkpt lat="45.19015" lon="5.96637">
        <ele>1807.9</ele>
        <time>2026-07-14T12:23:55Z</time>
      </trkpt>
      <trkpt lat="45.19014" lon="5.96636">
        <ele>1807.4</ele>
        <time>2026-07-14T12:23:56Z</time>
      </trkpt>
      <trkpt lat="45.19014" lon="5.96637">
        <ele>1807.2</ele>
        <time>2026-07-14T12:23:58Z</time>
      </trkpt>
      <trkpt lat="45.19013" lon="5.96637">
        <ele>1806.9</ele>
        <time>2026-07-14T12:23:59Z</time>
      </trkpt>
      <trkpt lat="45.19013" lon="5.96637">
        <ele>1806.8</ele>
        <time>2026-07-14T12:24:00Z</time>
      </trkpt>
      <trkpt lat="45.19012" lon="5.96637">
        <ele>1806.4</ele>
        <time>2026-07-14T12:24:01Z</time>
      </trkpt>
      <trkpt lat="45.19012" lon="5.96637">
        <ele>1806.4</ele>
        <time>2026-07-14T12:24:03Z</time>
      </trkpt>
      <trkpt lat="45.19011" lon="5.96637">
        <ele>1806.3</ele>
        <time>2026-07-14T12:24:04Z</time>
      </trkpt>
      <trkpt lat="45.19011" lon="5.96637">
        <ele>1806.2</ele>
        <time>2026-07-14T12:24:05Z</time>
      </trkpt>
      <trkpt lat="45.19011" lon="5.96637">
        <ele>1806.1</ele>
        <time>2026-07-14T12:24:06Z</time>
      </trkpt>
      <trkpt lat="45.19011" lon="5.96636">
        <ele>1806</ele>
        <time>2026-07-14T12:24:07Z</time>
      </trkpt>
      <trkpt lat="45.19011" lon="5.96636">
        <ele>1805.9</ele>
        <time>2026-07-14T12:24:08Z</time>
      </trkpt>
      <trkpt lat="45.19011" lon="5.96636">
        <ele>1805.8</ele>
        <time>2026-07-14T12:24:09Z</time>
      </trkpt>
      <trkpt lat="45.19011" lon="5.96636">
        <ele>1805.8</ele>
        <time>2026-07-14T12:24:10Z</time>
      </trkpt>
      <trkpt lat="45.19011" lon="5.96636">
        <ele>1805.8</ele>
        <time>2026-07-14T12:24:11Z</time>
      </trkpt>
      <trkpt lat="45.19011" lon="5.96636">
        <ele>1805.7</ele>
        <time>2026-07-14T12:24:12Z</time>
      </trkpt>
      <trkpt lat="45.19011" lon="5.96636">
        <ele>1805.7</ele>
        <time>2026-07-14T12:24:13Z</time>
      </trkpt>
      <trkpt lat="45.19011" lon="5.96636">
        <ele>1805.7</ele>
        <time>2026-07-14T12:24:14Z</time>
      </trkpt>
      <trkpt lat="45.19011" lon="5.96636">
        <ele>1805.7</ele>
        <time>2026-07-14T12:24:15Z</time>
      </trkpt>
      <trkpt lat="45.19011" lon="5.96636">
        <ele>1805.7</ele>
        <time>2026-07-14T12:24:16Z</time>
      </trkpt>
      <trkpt lat="45.19011" lon="5.96636">
        <ele>1805.7</ele>
        <time>2026-07-14T12:24:17Z</time>
      </trkpt>
      <trkpt lat="45.19011" lon="5.96636">
        <ele>1805.6</ele>
        <time>2026-07-14T12:24:18Z</time>
      </trkpt>
      <trkpt lat="45.19011" lon="5.96636">
        <ele>1805.6</ele>
        <time>2026-07-14T12:24:19Z</time>
      </trkpt>
      <trkpt lat="45.19011" lon="5.96636">
        <ele>1805.6</ele>
        <time>2026-07-14T12:24:20Z</time>
      </trkpt>
      <trkpt lat="45.19011" lon="5.96636">
        <ele>1805.6</ele>
        <time>2026-07-14T12:24:21Z</time>
      </trkpt>
      <trkpt lat="45.19011" lon="5.96636">
        <ele>1805.6</ele>
        <time>2026-07-14T12:24:22Z</time>
      </trkpt>
      <trkpt lat="45.19011" lon="5.96636">
        <ele>1805.5</ele>
        <time>2026-07-14T12:24:23Z</time>
      </trkpt>
      <trkpt lat="45.19011" lon="5.96636">
        <ele>1805.5</ele>
        <time>2026-07-14T12:24:24Z</time>
      </trkpt>
      <trkpt lat="45.19011" lon="5.96636">
        <ele>1805.5</ele>
        <time>2026-07-14T12:24:25Z</time>
      </trkpt>
      <trkpt lat="45.19011" lon="5.96636">
        <ele>1805.5</ele>
        <time>2026-07-14T12:24:26Z</time>
      </trkpt>
      <trkpt lat="45.19011" lon="5.96636">
        <ele>1805.5</ele>
        <time>2026-07-14T12:24:27Z</time>
      </trkpt>
      <trkpt lat="45.19011" lon="5.96636">
        <ele>1805.4</ele>
        <time>2026-07-14T12:24:29Z</time>
      </trkpt>
      <trkpt lat="45.19012" lon="5.96635">
        <ele>1805.2</ele>
        <time>2026-07-14T12:24:30Z</time>
      </trkpt>
      <trkpt lat="45.19012" lon="5.96635">
        <ele>1805.2</ele>
        <time>2026-07-14T12:24:31Z</time>
      </trkpt>
      <trkpt lat="45.19012" lon="5.96636">
        <ele>1805.1</ele>
        <time>2026-07-14T12:24:32Z</time>
      </trkpt>
      <trkpt lat="45.19012" lon="5.96636">
        <ele>1805.1</ele>
        <time>2026-07-14T12:24:33Z</time>
      </trkpt>
      <trkpt lat="45.19012" lon="5.96636">
        <ele>1805.1</ele>
        <time>2026-07-14T12:24:34Z</time>
      </trkpt>
      <trkpt lat="45.19012" lon="5.96636">
        <ele>1805.1</ele>
        <time>2026-07-14T12:24:35Z</time>
      </trkpt>
      <trkpt lat="45.19012" lon="5.96636">
        <ele>1805.1</ele>
        <time>2026-07-14T12:24:36Z</time>
      </trkpt>
      <trkpt lat="45.19012" lon="5.96636">
        <ele>1805.1</ele>
        <time>2026-07-14T12:24:37Z</time>
      </trkpt>
      <trkpt lat="45.19012" lon="5.96635">
        <ele>1805</ele>
        <time>2026-07-14T12:24:38Z</time>
      </trkpt>
      <trkpt lat="45.19012" lon="5.96635">
        <ele>1804.9</ele>
        <time>2026-07-14T12:24:40Z</time>
      </trkpt>
      <trkpt lat="45.19012" lon="5.96635">
        <ele>1804.8</ele>
        <time>2026-07-14T12:24:41Z</time>
      </trkpt>
      <trkpt lat="45.19011" lon="5.96634">
        <ele>1804.6</ele>
        <time>2026-07-14T12:24:42Z</time>
      </trkpt>
      <trkpt lat="45.19011" lon="5.96634">
        <ele>1804.4</ele>
        <time>2026-07-14T12:24:43Z</time>
      </trkpt>
      <trkpt lat="45.1901" lon="5.96633">
        <ele>1804.1</ele>
        <time>2026-07-14T12:24:44Z</time>
      </trkpt>
      <trkpt lat="45.1901" lon="5.96632">
        <ele>1803.8</ele>
        <time>2026-07-14T12:24:45Z</time>
      </trkpt>
      <trkpt lat="45.1901" lon="5.9663">
        <ele>1803.4</ele>
        <time>2026-07-14T12:24:46Z</time>
      </trkpt>
      <trkpt lat="45.1901" lon="5.96629">
        <ele>1803.2</ele>
        <time>2026-07-14T12:24:48Z</time>
      </trkpt>
      <trkpt lat="45.1901" lon="5.96628">
        <ele>1803</ele>
        <time>2026-07-14T12:24:49Z</time>
      </trkpt>
      <trkpt lat="45.1901" lon="5.96628">
        <ele>1802.8</ele>
        <time>2026-07-14T12:24:50Z</time>
      </trkpt>
      <trkpt lat="45.1901" lon="5.96627">
        <ele>1802.7</ele>
        <time>2026-07-14T12:24:51Z</time>
      </trkpt>
      <trkpt lat="45.19009" lon="5.96626">
        <ele>1802.3</ele>
        <time>2026-07-14T12:24:52Z</time>
      </trkpt>
      <trkpt lat="45.19008" lon="5.96626">
        <ele>1802.2</ele>
        <time>2026-07-14T12:24:54Z</time>
      </trkpt>
      <trkpt lat="45.19008" lon="5.96626">
        <ele>1802</ele>
        <time>2026-07-14T12:24:55Z</time>
      </trkpt>
      <trkpt lat="45.19007" lon="5.96625">
        <ele>1801.7</ele>
        <time>2026-07-14T12:24:56Z</time>
      </trkpt>
      <trkpt lat="45.19007" lon="5.96625">
        <ele>1801.7</ele>
        <time>2026-07-14T12:24:57Z</time>
      </trkpt>
      <trkpt lat="45.19006" lon="5.96624">
        <ele>1801.4</ele>
        <time>2026-07-14T12:24:58Z</time>
      </trkpt>
      <trkpt lat="45.19006" lon="5.96625">
        <ele>1801.4</ele>
        <time>2026-07-14T12:24:59Z</time>
      </trkpt>
      <trkpt lat="45.19006" lon="5.96624">
        <ele>1801.3</ele>
        <time>2026-07-14T12:25:00Z</time>
      </trkpt>
      <trkpt lat="45.19006" lon="5.96624">
        <ele>1801</ele>
        <time>2026-07-14T12:25:01Z</time>
      </trkpt>
      <trkpt lat="45.19005" lon="5.96623">
        <ele>1800.9</ele>
        <time>2026-07-14T12:25:02Z</time>
      </trkpt>
      <trkpt lat="45.19005" lon="5.96622">
        <ele>1800.7</ele>
        <time>2026-07-14T12:25:03Z</time>
      </trkpt>
      <trkpt lat="45.19005" lon="5.96622">
        <ele>1800.6</ele>
        <time>2026-07-14T12:25:04Z</time>
      </trkpt>
      <trkpt lat="45.19005" lon="5.9662">
        <ele>1800.2</ele>
        <time>2026-07-14T12:25:05Z</time>
      </trkpt>
      <trkpt lat="45.19005" lon="5.96619">
        <ele>1799.8</ele>
        <time>2026-07-14T12:25:07Z</time>
      </trkpt>
      <trkpt lat="45.19004" lon="5.96618">
        <ele>1799.6</ele>
        <time>2026-07-14T12:25:09Z</time>
      </trkpt>
      <trkpt lat="45.19004" lon="5.96618">
        <ele>1799.4</ele>
        <time>2026-07-14T12:25:10Z</time>
      </trkpt>
      <trkpt lat="45.19003" lon="5.96618">
        <ele>1799.2</ele>
        <time>2026-07-14T12:25:11Z</time>
      </trkpt>
      <trkpt lat="45.19003" lon="5.96618">
        <ele>1799</ele>
        <time>2026-07-14T12:25:12Z</time>
      </trkpt>
      <trkpt lat="45.19002" lon="5.96619">
        <ele>1798.7</ele>
        <time>2026-07-14T12:25:13Z</time>
      </trkpt>
      <trkpt lat="45.19002" lon="5.9662">
        <ele>1798.5</ele>
        <time>2026-07-14T12:25:14Z</time>
      </trkpt>
      <trkpt lat="45.19001" lon="5.96619">
        <ele>1798.3</ele>
        <time>2026-07-14T12:25:15Z</time>
      </trkpt>
      <trkpt lat="45.19" lon="5.96617">
        <ele>1797.9</ele>
        <time>2026-07-14T12:25:16Z</time>
      </trkpt>
      <trkpt lat="45.19001" lon="5.96616">
        <ele>1797.6</ele>
        <time>2026-07-14T12:25:18Z</time>
      </trkpt>
      <trkpt lat="45.19" lon="5.96616">
        <ele>1797.2</ele>
        <time>2026-07-14T12:25:19Z</time>
      </trkpt>
      <trkpt lat="45.18999" lon="5.96616">
        <ele>1797.1</ele>
        <time>2026-07-14T12:25:21Z</time>
      </trkpt>
      <trkpt lat="45.18998" lon="5.96616">
        <ele>1796.8</ele>
        <time>2026-07-14T12:25:22Z</time>
      </trkpt>
      <trkpt lat="45.18998" lon="5.96616">
        <ele>1796.7</ele>
        <time>2026-07-14T12:25:23Z</time>
      </trkpt>
      <trkpt lat="45.18998" lon="5.96615">
        <ele>1796.6</ele>
        <time>2026-07-14T12:25:24Z</time>
      </trkpt>
      <trkpt lat="45.18998" lon="5.96615">
        <ele>1796.5</ele>
        <time>2026-07-14T12:25:25Z</time>
      </trkpt>
      <trkpt lat="45.18998" lon="5.96613">
        <ele>1796.2</ele>
        <time>2026-07-14T12:25:26Z</time>
      </trkpt>
      <trkpt lat="45.18998" lon="5.96611">
        <ele>1795.7</ele>
        <time>2026-07-14T12:25:28Z</time>
      </trkpt>
      <trkpt lat="45.18997" lon="5.96611">
        <ele>1795.6</ele>
        <time>2026-07-14T12:25:29Z</time>
      </trkpt>
      <trkpt lat="45.18997" lon="5.96611">
        <ele>1795.3</ele>
        <time>2026-07-14T12:25:31Z</time>
      </trkpt>
      <trkpt lat="45.18996" lon="5.96612">
        <ele>1795.1</ele>
        <time>2026-07-14T12:25:33Z</time>
      </trkpt>
      <trkpt lat="45.18996" lon="5.96613">
        <ele>1794.9</ele>
        <time>2026-07-14T12:25:34Z</time>
      </trkpt>
      <trkpt lat="45.18997" lon="5.96613">
        <ele>1794.8</ele>
        <time>2026-07-14T12:25:35Z</time>
      </trkpt>
      <trkpt lat="45.18997" lon="5.96613">
        <ele>1794.7</ele>
        <time>2026-07-14T12:25:36Z</time>
      </trkpt>
      <trkpt lat="45.18997" lon="5.96612">
        <ele>1794.6</ele>
        <time>2026-07-14T12:25:37Z</time>
      </trkpt>
      <trkpt lat="45.18997" lon="5.96612">
        <ele>1794.6</ele>
        <time>2026-07-14T12:25:38Z</time>
      </trkpt>
      <trkpt lat="45.18997" lon="5.96612">
        <ele>1794.4</ele>
        <time>2026-07-14T12:25:40Z</time>
      </trkpt>
      <trkpt lat="45.18995" lon="5.96613">
        <ele>1794</ele>
        <time>2026-07-14T12:25:41Z</time>
      </trkpt>
      <trkpt lat="45.18994" lon="5.96611">
        <ele>1793.5</ele>
        <time>2026-07-14T12:25:43Z</time>
      </trkpt>
      <trkpt lat="45.18995" lon="5.9661">
        <ele>1793.2</ele>
        <time>2026-07-14T12:25:45Z</time>
      </trkpt>
      <trkpt lat="45.18995" lon="5.96609">
        <ele>1793</ele>
        <time>2026-07-14T12:25:46Z</time>
      </trkpt>
      <trkpt lat="45.18996" lon="5.96609">
        <ele>1792.7</ele>
        <time>2026-07-14T12:25:47Z</time>
      </trkpt>
      <trkpt lat="45.18996" lon="5.96608">
        <ele>1792.6</ele>
        <time>2026-07-14T12:25:48Z</time>
      </trkpt>
      <trkpt lat="45.18997" lon="5.96608">
        <ele>1792.4</ele>
        <time>2026-07-14T12:25:49Z</time>
      </trkpt>
      <trkpt lat="45.18997" lon="5.96607">
        <ele>1792.2</ele>
        <time>2026-07-14T12:25:50Z</time>
      </trkpt>
      <trkpt lat="45.18998" lon="5.96606">
        <ele>1792</ele>
        <time>2026-07-14T12:25:51Z</time>
      </trkpt>
      <trkpt lat="45.18998" lon="5.96606">
        <ele>1791.9</ele>
        <time>2026-07-14T12:25:52Z</time>
      </trkpt>
      <trkpt lat="45.18998" lon="5.96605">
        <ele>1791.7</ele>
        <time>2026-07-14T12:25:53Z</time>
      </trkpt>
      <trkpt lat="45.18997" lon="5.96605">
        <ele>1791.6</ele>
        <time>2026-07-14T12:25:54Z</time>
      </trkpt>
      <trkpt lat="45.18997" lon="5.96604">
        <ele>1791.4</ele>
        <time>2026-07-14T12:25:55Z</time>
      </trkpt>
      <trkpt lat="45.18996" lon="5.96604">
        <ele>1791.2</ele>
        <time>2026-07-14T12:25:56Z</time>
      </trkpt>
      <trkpt lat="45.18996" lon="5.96604">
        <ele>1791</ele>
        <time>2026-07-14T12:25:57Z</time>
      </trkpt>
      <trkpt lat="45.18995" lon="5.96604">
        <ele>1790.8</ele>
        <time>2026-07-14T12:25:58Z</time>
      </trkpt>
      <trkpt lat="45.18995" lon="5.96604">
        <ele>1790.7</ele>
        <time>2026-07-14T12:25:59Z</time>
      </trkpt>
      <trkpt lat="45.18994" lon="5.96604">
        <ele>1790.5</ele>
        <time>2026-07-14T12:26:00Z</time>
      </trkpt>
      <trkpt lat="45.18994" lon="5.96604">
        <ele>1790.4</ele>
        <time>2026-07-14T12:26:01Z</time>
      </trkpt>
      <trkpt lat="45.18993" lon="5.96604">
        <ele>1790</ele>
        <time>2026-07-14T12:26:02Z</time>
      </trkpt>
      <trkpt lat="45.18992" lon="5.96603">
        <ele>1789.9</ele>
        <time>2026-07-14T12:26:04Z</time>
      </trkpt>
      <trkpt lat="45.18992" lon="5.96602">
        <ele>1789.6</ele>
        <time>2026-07-14T12:26:05Z</time>
      </trkpt>
      <trkpt lat="45.18992" lon="5.96602">
        <ele>1789.5</ele>
        <time>2026-07-14T12:26:06Z</time>
      </trkpt>
      <trkpt lat="45.18992" lon="5.96601">
        <ele>1789.4</ele>
        <time>2026-07-14T12:26:07Z</time>
      </trkpt>
      <trkpt lat="45.18992" lon="5.96601">
        <ele>1789.2</ele>
        <time>2026-07-14T12:26:08Z</time>
      </trkpt>
      <trkpt lat="45.18992" lon="5.966">
        <ele>1789.1</ele>
        <time>2026-07-14T12:26:09Z</time>
      </trkpt>
      <trkpt lat="45.18991" lon="5.96599">
        <ele>1788.9</ele>
        <time>2026-07-14T12:26:10Z</time>
      </trkpt>
      <trkpt lat="45.18991" lon="5.96598">
        <ele>1788.6</ele>
        <time>2026-07-14T12:26:11Z</time>
      </trkpt>
      <trkpt lat="45.18991" lon="5.96597">
        <ele>1788.4</ele>
        <time>2026-07-14T12:26:12Z</time>
      </trkpt>
      <trkpt lat="45.1899" lon="5.96596">
        <ele>1788.1</ele>
        <time>2026-07-14T12:26:14Z</time>
      </trkpt>
      <trkpt lat="45.18989" lon="5.96596">
        <ele>1787.9</ele>
        <time>2026-07-14T12:26:16Z</time>
      </trkpt>
      <trkpt lat="45.18989" lon="5.96595">
        <ele>1787.7</ele>
        <time>2026-07-14T12:26:18Z</time>
      </trkpt>
      <trkpt lat="45.18988" lon="5.96595">
        <ele>1787.5</ele>
        <time>2026-07-14T12:26:19Z</time>
      </trkpt>
      <trkpt lat="45.18987" lon="5.96593">
        <ele>1787</ele>
        <time>2026-07-14T12:26:20Z</time>
      </trkpt>
      <trkpt lat="45.18987" lon="5.96593">
        <ele>1786.8</ele>
        <time>2026-07-14T12:26:22Z</time>
      </trkpt>
      <trkpt lat="45.18986" lon="5.96593">
        <ele>1786.8</ele>
        <time>2026-07-14T12:26:23Z</time>
      </trkpt>
      <trkpt lat="45.18986" lon="5.96592">
        <ele>1786.6</ele>
        <time>2026-07-14T12:26:24Z</time>
      </trkpt>
      <trkpt lat="45.18986" lon="5.96592">
        <ele>1786.5</ele>
        <time>2026-07-14T12:26:25Z</time>
      </trkpt>
      <trkpt lat="45.18986" lon="5.96592">
        <ele>1786.5</ele>
        <time>2026-07-14T12:26:27Z</time>
      </trkpt>
      <trkpt lat="45.18986" lon="5.96591">
        <ele>1786.2</ele>
        <time>2026-07-14T12:26:28Z</time>
      </trkpt>
      <trkpt lat="45.18986" lon="5.9659">
        <ele>1786</ele>
        <time>2026-07-14T12:26:30Z</time>
      </trkpt>
      <trkpt lat="45.18985" lon="5.9659">
        <ele>1785.9</ele>
        <time>2026-07-14T12:26:31Z</time>
      </trkpt>
      <trkpt lat="45.18985" lon="5.96589">
        <ele>1785.7</ele>
        <time>2026-07-14T12:26:32Z</time>
      </trkpt>
      <trkpt lat="45.18984" lon="5.96588">
        <ele>1785.5</ele>
        <time>2026-07-14T12:26:33Z</time>
      </trkpt>
      <trkpt lat="45.18984" lon="5.96588">
        <ele>1785.3</ele>
        <time>2026-07-14T12:26:34Z</time>
      </trkpt>
      <trkpt lat="45.18984" lon="5.96587">
        <ele>1785.1</ele>
        <time>2026-07-14T12:26:35Z</time>
      </trkpt>
      <trkpt lat="45.18983" lon="5.96586">
        <ele>1784.8</ele>
        <time>2026-07-14T12:26:36Z</time>
      </trkpt>
      <trkpt lat="45.18983" lon="5.96585">
        <ele>1784.7</ele>
        <time>2026-07-14T12:26:37Z</time>
      </trkpt>
      <trkpt lat="45.18983" lon="5.96584">
        <ele>1784.5</ele>
        <time>2026-07-14T12:26:38Z</time>
      </trkpt>
      <trkpt lat="45.18983" lon="5.96583">
        <ele>1784.3</ele>
        <time>2026-07-14T12:26:39Z</time>
      </trkpt>
      <trkpt lat="45.18982" lon="5.96582">
        <ele>1784.1</ele>
        <time>2026-07-14T12:26:40Z</time>
      </trkpt>
      <trkpt lat="45.18982" lon="5.96581">
        <ele>1783.7</ele>
        <time>2026-07-14T12:26:41Z</time>
      </trkpt>
      <trkpt lat="45.18982" lon="5.9658">
        <ele>1783.7</ele>
        <time>2026-07-14T12:26:42Z</time>
      </trkpt>
      <trkpt lat="45.18981" lon="5.9658">
        <ele>1783.4</ele>
        <time>2026-07-14T12:26:43Z</time>
      </trkpt>
      <trkpt lat="45.18981" lon="5.96579">
        <ele>1783.3</ele>
        <time>2026-07-14T12:26:44Z</time>
      </trkpt>
      <trkpt lat="45.1898" lon="5.96579">
        <ele>1783.1</ele>
        <time>2026-07-14T12:26:45Z</time>
      </trkpt>
      <trkpt lat="45.18979" lon="5.96578">
        <ele>1782.8</ele>
        <time>2026-07-14T12:26:46Z</time>
      </trkpt>
      <trkpt lat="45.18979" lon="5.96578">
        <ele>1782.7</ele>
        <time>2026-07-14T12:26:47Z</time>
      </trkpt>
      <trkpt lat="45.18979" lon="5.96577">
        <ele>1782.5</ele>
        <time>2026-07-14T12:26:48Z</time>
      </trkpt>
      <trkpt lat="45.18978" lon="5.96577">
        <ele>1782.4</ele>
        <time>2026-07-14T12:26:49Z</time>
      </trkpt>
      <trkpt lat="45.18978" lon="5.96576">
        <ele>1782.3</ele>
        <time>2026-07-14T12:26:50Z</time>
      </trkpt>
      <trkpt lat="45.18978" lon="5.96576">
        <ele>1782.2</ele>
        <time>2026-07-14T12:26:51Z</time>
      </trkpt>
      <trkpt lat="45.18977" lon="5.96575">
        <ele>1782</ele>
        <time>2026-07-14T12:26:52Z</time>
      </trkpt>
      <trkpt lat="45.18976" lon="5.96575">
        <ele>1781.8</ele>
        <time>2026-07-14T12:26:53Z</time>
      </trkpt>
      <trkpt lat="45.18975" lon="5.96575">
        <ele>1781.6</ele>
        <time>2026-07-14T12:26:54Z</time>
      </trkpt>
      <trkpt lat="45.18975" lon="5.96575">
        <ele>1781.5</ele>
        <time>2026-07-14T12:26:56Z</time>
      </trkpt>
      <trkpt lat="45.18975" lon="5.96575">
        <ele>1781.3</ele>
        <time>2026-07-14T12:26:57Z</time>
      </trkpt>
      <trkpt lat="45.18974" lon="5.96575">
        <ele>1781.2</ele>
        <time>2026-07-14T12:26:58Z</time>
      </trkpt>
      <trkpt lat="45.18974" lon="5.96574">
        <ele>1781.2</ele>
        <time>2026-07-14T12:26:59Z</time>
      </trkpt>
      <trkpt lat="45.18974" lon="5.96574">
        <ele>1781</ele>
        <time>2026-07-14T12:27:00Z</time>
      </trkpt>
      <trkpt lat="45.18974" lon="5.96573">
        <ele>1781</ele>
        <time>2026-07-14T12:27:01Z</time>
      </trkpt>
      <trkpt lat="45.18974" lon="5.96573">
        <ele>1780.9</ele>
        <time>2026-07-14T12:27:02Z</time>
      </trkpt>
      <trkpt lat="45.18974" lon="5.96573">
        <ele>1780.8</ele>
        <time>2026-07-14T12:27:03Z</time>
      </trkpt>
      <trkpt lat="45.18974" lon="5.96572">
        <ele>1780.7</ele>
        <time>2026-07-14T12:27:04Z</time>
      </trkpt>
      <trkpt lat="45.18974" lon="5.96571">
        <ele>1780.5</ele>
        <time>2026-07-14T12:27:05Z</time>
      </trkpt>
      <trkpt lat="45.18973" lon="5.9657">
        <ele>1780.2</ele>
        <time>2026-07-14T12:27:06Z</time>
      </trkpt>
      <trkpt lat="45.18973" lon="5.96569">
        <ele>1780</ele>
        <time>2026-07-14T12:27:08Z</time>
      </trkpt>
      <trkpt lat="45.18973" lon="5.96569">
        <ele>1779.9</ele>
        <time>2026-07-14T12:27:09Z</time>
      </trkpt>
      <trkpt lat="45.18972" lon="5.96568">
        <ele>1779.7</ele>
        <time>2026-07-14T12:27:10Z</time>
      </trkpt>
      <trkpt lat="45.18972" lon="5.96567">
        <ele>1779.4</ele>
        <time>2026-07-14T12:27:11Z</time>
      </trkpt>
      <trkpt lat="45.18971" lon="5.96566">
        <ele>1779.2</ele>
        <time>2026-07-14T12:27:13Z</time>
      </trkpt>
      <trkpt lat="45.18971" lon="5.96565">
        <ele>1779</ele>
        <time>2026-07-14T12:27:14Z</time>
      </trkpt>
      <trkpt lat="45.18971" lon="5.96564">
        <ele>1778.9</ele>
        <time>2026-07-14T12:27:16Z</time>
      </trkpt>
      <trkpt lat="45.18971" lon="5.96564">
        <ele>1778.7</ele>
        <time>2026-07-14T12:27:17Z</time>
      </trkpt>
      <trkpt lat="45.1897" lon="5.96563">
        <ele>1778.6</ele>
        <time>2026-07-14T12:27:18Z</time>
      </trkpt>
      <trkpt lat="45.1897" lon="5.96562">
        <ele>1778.3</ele>
        <time>2026-07-14T12:27:19Z</time>
      </trkpt>
      <trkpt lat="45.18969" lon="5.96561">
        <ele>1778</ele>
        <time>2026-07-14T12:27:20Z</time>
      </trkpt>
      <trkpt lat="45.18968" lon="5.96559">
        <ele>1777.6</ele>
        <time>2026-07-14T12:27:22Z</time>
      </trkpt>
      <trkpt lat="45.18968" lon="5.96559">
        <ele>1777.6</ele>
        <time>2026-07-14T12:27:24Z</time>
      </trkpt>
      <trkpt lat="45.18968" lon="5.96559">
        <ele>1777.5</ele>
        <time>2026-07-14T12:27:25Z</time>
      </trkpt>
      <trkpt lat="45.18968" lon="5.96558">
        <ele>1777.4</ele>
        <time>2026-07-14T12:27:26Z</time>
      </trkpt>
      <trkpt lat="45.18968" lon="5.96558">
        <ele>1777.4</ele>
        <time>2026-07-14T12:27:27Z</time>
      </trkpt>
      <trkpt lat="45.18967" lon="5.96558">
        <ele>1777.3</ele>
        <time>2026-07-14T12:27:28Z</time>
      </trkpt>
      <trkpt lat="45.18967" lon="5.96557">
        <ele>1777.1</ele>
        <time>2026-07-14T12:27:29Z</time>
      </trkpt>
      <trkpt lat="45.18967" lon="5.96556">
        <ele>1776.8</ele>
        <time>2026-07-14T12:27:30Z</time>
      </trkpt>
      <trkpt lat="45.18967" lon="5.96555">
        <ele>1776.7</ele>
        <time>2026-07-14T12:27:31Z</time>
      </trkpt>
      <trkpt lat="45.18966" lon="5.96554">
        <ele>1776.3</ele>
        <time>2026-07-14T12:27:32Z</time>
      </trkpt>
      <trkpt lat="45.18965" lon="5.96554">
        <ele>1776.1</ele>
        <time>2026-07-14T12:27:34Z</time>
      </trkpt>
      <trkpt lat="45.18964" lon="5.96553">
        <ele>1775.9</ele>
        <time>2026-07-14T12:27:35Z</time>
      </trkpt>
      <trkpt lat="45.18963" lon="5.96552">
        <ele>1775.5</ele>
        <time>2026-07-14T12:27:36Z</time>
      </trkpt>
      <trkpt lat="45.18963" lon="5.96551">
        <ele>1775.3</ele>
        <time>2026-07-14T12:27:38Z</time>
      </trkpt>
      <trkpt lat="45.18963" lon="5.9655">
        <ele>1775.2</ele>
        <time>2026-07-14T12:27:39Z</time>
      </trkpt>
      <trkpt lat="45.18962" lon="5.9655">
        <ele>1775</ele>
        <time>2026-07-14T12:27:40Z</time>
      </trkpt>
      <trkpt lat="45.18962" lon="5.96549">
        <ele>1774.8</ele>
        <time>2026-07-14T12:27:41Z</time>
      </trkpt>
      <trkpt lat="45.18962" lon="5.96548">
        <ele>1774.8</ele>
        <time>2026-07-14T12:27:42Z</time>
      </trkpt>
      <trkpt lat="45.18962" lon="5.96549">
        <ele>1774.6</ele>
        <time>2026-07-14T12:27:43Z</time>
      </trkpt>
      <trkpt lat="45.18962" lon="5.96549">
        <ele>1774.5</ele>
        <time>2026-07-14T12:27:44Z</time>
      </trkpt>
      <trkpt lat="45.18962" lon="5.96549">
        <ele>1774.5</ele>
        <time>2026-07-14T12:27:45Z</time>
      </trkpt>
      <trkpt lat="45.18962" lon="5.96549">
        <ele>1774.4</ele>
        <time>2026-07-14T12:27:46Z</time>
      </trkpt>
      <trkpt lat="45.18962" lon="5.96549">
        <ele>1774.4</ele>
        <time>2026-07-14T12:27:47Z</time>
      </trkpt>
      <trkpt lat="45.18962" lon="5.96549">
        <ele>1774.3</ele>
        <time>2026-07-14T12:27:49Z</time>
      </trkpt>
      <trkpt lat="45.18961" lon="5.96548">
        <ele>1774.1</ele>
        <time>2026-07-14T12:27:50Z</time>
      </trkpt>
      <trkpt lat="45.1896" lon="5.96547">
        <ele>1773.8</ele>
        <time>2026-07-14T12:27:51Z</time>
      </trkpt>
      <trkpt lat="45.1896" lon="5.96546">
        <ele>1773.5</ele>
        <time>2026-07-14T12:27:52Z</time>
      </trkpt>
      <trkpt lat="45.18959" lon="5.96545">
        <ele>1773.1</ele>
        <time>2026-07-14T12:27:53Z</time>
      </trkpt>
      <trkpt lat="45.18959" lon="5.96545">
        <ele>1773</ele>
        <time>2026-07-14T12:27:55Z</time>
      </trkpt>
      <trkpt lat="45.18959" lon="5.96546">
        <ele>1772.8</ele>
        <time>2026-07-14T12:27:56Z</time>
      </trkpt>
      <trkpt lat="45.1896" lon="5.96546">
        <ele>1772.7</ele>
        <time>2026-07-14T12:27:57Z</time>
      </trkpt>
      <trkpt lat="45.1896" lon="5.96546">
        <ele>1772.7</ele>
        <time>2026-07-14T12:27:58Z</time>
      </trkpt>
      <trkpt lat="45.18959" lon="5.96547">
        <ele>1772.6</ele>
        <time>2026-07-14T12:27:59Z</time>
      </trkpt>
      <trkpt lat="45.18959" lon="5.96547">
        <ele>1772.6</ele>
        <time>2026-07-14T12:28:00Z</time>
      </trkpt>
      <trkpt lat="45.18959" lon="5.96547">
        <ele>1772.5</ele>
        <time>2026-07-14T12:28:01Z</time>
      </trkpt>
      <trkpt lat="45.18959" lon="5.96547">
        <ele>1772.5</ele>
        <time>2026-07-14T12:28:02Z</time>
      </trkpt>
      <trkpt lat="45.18959" lon="5.96546">
        <ele>1772.4</ele>
        <time>2026-07-14T12:28:03Z</time>
      </trkpt>
      <trkpt lat="45.18959" lon="5.96545">
        <ele>1772.3</ele>
        <time>2026-07-14T12:28:04Z</time>
      </trkpt>
      <trkpt lat="45.18959" lon="5.96544">
        <ele>1772.1</ele>
        <time>2026-07-14T12:28:05Z</time>
      </trkpt>
      <trkpt lat="45.18959" lon="5.96542">
        <ele>1771.6</ele>
        <time>2026-07-14T12:28:06Z</time>
      </trkpt>
      <trkpt lat="45.1896" lon="5.96541">
        <ele>1771.2</ele>
        <time>2026-07-14T12:28:07Z</time>
      </trkpt>
      <trkpt lat="45.18961" lon="5.96539">
        <ele>1770.9</ele>
        <time>2026-07-14T12:28:08Z</time>
      </trkpt>
      <trkpt lat="45.18961" lon="5.96539">
        <ele>1770.7</ele>
        <time>2026-07-14T12:28:09Z</time>
      </trkpt>
      <trkpt lat="45.18962" lon="5.9654">
        <ele>1770.5</ele>
        <time>2026-07-14T12:28:10Z</time>
      </trkpt>
      <trkpt lat="45.18963" lon="5.9654">
        <ele>1770.3</ele>
        <time>2026-07-14T12:28:11Z</time>
      </trkpt>
      <trkpt lat="45.18963" lon="5.9654">
        <ele>1770.1</ele>
        <time>2026-07-14T12:28:12Z</time>
      </trkpt>
      <trkpt lat="45.18964" lon="5.96541">
        <ele>1769.9</ele>
        <time>2026-07-14T12:28:13Z</time>
      </trkpt>
      <trkpt lat="45.18965" lon="5.96541">
        <ele>1769.5</ele>
        <time>2026-07-14T12:28:14Z</time>
      </trkpt>
      <trkpt lat="45.18965" lon="5.96541">
        <ele>1769.4</ele>
        <time>2026-07-14T12:28:16Z</time>
      </trkpt>
      <trkpt lat="45.18965" lon="5.96542">
        <ele>1769.3</ele>
        <time>2026-07-14T12:28:17Z</time>
      </trkpt>
      <trkpt lat="45.18966" lon="5.96542">
        <ele>1769.2</ele>
        <time>2026-07-14T12:28:18Z</time>
      </trkpt>
      <trkpt lat="45.18966" lon="5.96543">
        <ele>1769.1</ele>
        <time>2026-07-14T12:28:19Z</time>
      </trkpt>
      <trkpt lat="45.18966" lon="5.96543">
        <ele>1769</ele>
        <time>2026-07-14T12:28:20Z</time>
      </trkpt>
      <trkpt lat="45.18966" lon="5.96544">
        <ele>1768.8</ele>
        <time>2026-07-14T12:28:21Z</time>
      </trkpt>
      <trkpt lat="45.18966" lon="5.96544">
        <ele>1768.7</ele>
        <time>2026-07-14T12:28:22Z</time>
      </trkpt>
      <trkpt lat="45.18966" lon="5.96544">
        <ele>1768.6</ele>
        <time>2026-07-14T12:28:23Z</time>
      </trkpt>
      <trkpt lat="45.18967" lon="5.96546">
        <ele>1768.3</ele>
        <time>2026-07-14T12:28:24Z</time>
      </trkpt>
      <trkpt lat="45.18967" lon="5.96546">
        <ele>1768.2</ele>
        <time>2026-07-14T12:28:26Z</time>
      </trkpt>
      <trkpt lat="45.18968" lon="5.96546">
        <ele>1768</ele>
        <time>2026-07-14T12:28:27Z</time>
      </trkpt>
      <trkpt lat="45.18968" lon="5.96547">
        <ele>1767.9</ele>
        <time>2026-07-14T12:28:28Z</time>
      </trkpt>
      <trkpt lat="45.18968" lon="5.96547">
        <ele>1767.7</ele>
        <time>2026-07-14T12:28:29Z</time>
      </trkpt>
      <trkpt lat="45.18969" lon="5.96548">
        <ele>1767.5</ele>
        <time>2026-07-14T12:28:30Z</time>
      </trkpt>
      <trkpt lat="45.18969" lon="5.96548">
        <ele>1767.4</ele>
        <time>2026-07-14T12:28:31Z</time>
      </trkpt>
      <trkpt lat="45.1897" lon="5.96548">
        <ele>1767.3</ele>
        <time>2026-07-14T12:28:32Z</time>
      </trkpt>
      <trkpt lat="45.1897" lon="5.96548">
        <ele>1767.2</ele>
        <time>2026-07-14T12:28:33Z</time>
      </trkpt>
      <trkpt lat="45.1897" lon="5.96548">
        <ele>1767.2</ele>
        <time>2026-07-14T12:28:34Z</time>
      </trkpt>
      <trkpt lat="45.1897" lon="5.96548">
        <ele>1767.1</ele>
        <time>2026-07-14T12:28:35Z</time>
      </trkpt>
      <trkpt lat="45.1897" lon="5.96547">
        <ele>1767</ele>
        <time>2026-07-14T12:28:36Z</time>
      </trkpt>
      <trkpt lat="45.1897" lon="5.96547">
        <ele>1767</ele>
        <time>2026-07-14T12:28:37Z</time>
      </trkpt>
      <trkpt lat="45.18971" lon="5.96547">
        <ele>1766.9</ele>
        <time>2026-07-14T12:28:38Z</time>
      </trkpt>
      <trkpt lat="45.18971" lon="5.96547">
        <ele>1766.8</ele>
        <time>2026-07-14T12:28:39Z</time>
      </trkpt>
      <trkpt lat="45.18971" lon="5.96547">
        <ele>1766.6</ele>
        <time>2026-07-14T12:28:40Z</time>
      </trkpt>
      <trkpt lat="45.18972" lon="5.96547">
        <ele>1766.5</ele>
        <time>2026-07-14T12:28:41Z</time>
      </trkpt>
      <trkpt lat="45.18973" lon="5.96546">
        <ele>1766</ele>
        <time>2026-07-14T12:28:42Z</time>
      </trkpt>
      <trkpt lat="45.18974" lon="5.96547">
        <ele>1765.8</ele>
        <time>2026-07-14T12:28:44Z</time>
      </trkpt>
      <trkpt lat="45.18975" lon="5.96547">
        <ele>1765.5</ele>
        <time>2026-07-14T12:28:45Z</time>
      </trkpt>
      <trkpt lat="45.18976" lon="5.96547">
        <ele>1765.3</ele>
        <time>2026-07-14T12:28:46Z</time>
      </trkpt>
      <trkpt lat="45.18977" lon="5.96547">
        <ele>1765</ele>
        <time>2026-07-14T12:28:47Z</time>
      </trkpt>
      <trkpt lat="45.18977" lon="5.96547">
        <ele>1764.8</ele>
        <time>2026-07-14T12:28:48Z</time>
      </trkpt>
      <trkpt lat="45.18978" lon="5.96546">
        <ele>1764.6</ele>
        <time>2026-07-14T12:28:49Z</time>
      </trkpt>
      <trkpt lat="45.18978" lon="5.96546">
        <ele>1764.4</ele>
        <time>2026-07-14T12:28:50Z</time>
      </trkpt>
      <trkpt lat="45.18979" lon="5.96545">
        <ele>1764</ele>
        <time>2026-07-14T12:28:51Z</time>
      </trkpt>
      <trkpt lat="45.1898" lon="5.96545">
        <ele>1763.9</ele>
        <time>2026-07-14T12:28:52Z</time>
      </trkpt>
      <trkpt lat="45.1898" lon="5.96545">
        <ele>1763.8</ele>
        <time>2026-07-14T12:28:54Z</time>
      </trkpt>
      <trkpt lat="45.1898" lon="5.96546">
        <ele>1763.8</ele>
        <time>2026-07-14T12:28:55Z</time>
      </trkpt>
      <trkpt lat="45.1898" lon="5.96546">
        <ele>1763.7</ele>
        <time>2026-07-14T12:28:56Z</time>
      </trkpt>
      <trkpt lat="45.18981" lon="5.96546">
        <ele>1763.6</ele>
        <time>2026-07-14T12:28:57Z</time>
      </trkpt>
      <trkpt lat="45.18981" lon="5.96546">
        <ele>1763.5</ele>
        <time>2026-07-14T12:28:58Z</time>
      </trkpt>
      <trkpt lat="45.18982" lon="5.96546">
        <ele>1763.2</ele>
        <time>2026-07-14T12:28:59Z</time>
      </trkpt>
      <trkpt lat="45.18982" lon="5.96546">
        <ele>1763.1</ele>
        <time>2026-07-14T12:29:00Z</time>
      </trkpt>
      <trkpt lat="45.18983" lon="5.96546">
        <ele>1762.9</ele>
        <time>2026-07-14T12:29:01Z</time>
      </trkpt>
      <trkpt lat="45.18983" lon="5.96546">
        <ele>1762.7</ele>
        <time>2026-07-14T12:29:02Z</time>
      </trkpt>
      <trkpt lat="45.18984" lon="5.96546">
        <ele>1762.6</ele>
        <time>2026-07-14T12:29:03Z</time>
      </trkpt>
      <trkpt lat="45.18984" lon="5.96545">
        <ele>1762.4</ele>
        <time>2026-07-14T12:29:04Z</time>
      </trkpt>
      <trkpt lat="45.18985" lon="5.96545">
        <ele>1762.2</ele>
        <time>2026-07-14T12:29:05Z</time>
      </trkpt>
      <trkpt lat="45.18986" lon="5.96545">
        <ele>1761.9</ele>
        <time>2026-07-14T12:29:06Z</time>
      </trkpt>
      <trkpt lat="45.18987" lon="5.96545">
        <ele>1761.7</ele>
        <time>2026-07-14T12:29:07Z</time>
      </trkpt>
      <trkpt lat="45.18987" lon="5.96545">
        <ele>1761.4</ele>
        <time>2026-07-14T12:29:08Z</time>
      </trkpt>
      <trkpt lat="45.18988" lon="5.96545">
        <ele>1761.2</ele>
        <time>2026-07-14T12:29:09Z</time>
      </trkpt>
      <trkpt lat="45.18989" lon="5.96545">
        <ele>1761</ele>
        <time>2026-07-14T12:29:10Z</time>
      </trkpt>
      <trkpt lat="45.1899" lon="5.96545">
        <ele>1760.8</ele>
        <time>2026-07-14T12:29:11Z</time>
      </trkpt>
      <trkpt lat="45.1899" lon="5.96545">
        <ele>1760.6</ele>
        <time>2026-07-14T12:29:12Z</time>
      </trkpt>
      <trkpt lat="45.18991" lon="5.96544">
        <ele>1760.3</ele>
        <time>2026-07-14T12:29:13Z</time>
      </trkpt>
      <trkpt lat="45.18991" lon="5.96544">
        <ele>1760.2</ele>
        <time>2026-07-14T12:29:14Z</time>
      </trkpt>
      <trkpt lat="45.18992" lon="5.96544">
        <ele>1760.1</ele>
        <time>2026-07-14T12:29:15Z</time>
      </trkpt>
      <trkpt lat="45.18991" lon="5.96543">
        <ele>1759.9</ele>
        <time>2026-07-14T12:29:16Z</time>
      </trkpt>
      <trkpt lat="45.18991" lon="5.96542">
        <ele>1759.8</ele>
        <time>2026-07-14T12:29:17Z</time>
      </trkpt>
      <trkpt lat="45.18992" lon="5.96541">
        <ele>1759.6</ele>
        <time>2026-07-14T12:29:18Z</time>
      </trkpt>
      <trkpt lat="45.18992" lon="5.96542">
        <ele>1759.4</ele>
        <time>2026-07-14T12:29:19Z</time>
      </trkpt>
      <trkpt lat="45.18993" lon="5.96542">
        <ele>1759.2</ele>
        <time>2026-07-14T12:29:20Z</time>
      </trkpt>
      <trkpt lat="45.18994" lon="5.96543">
        <ele>1758.8</ele>
        <time>2026-07-14T12:29:21Z</time>
      </trkpt>
      <trkpt lat="45.18994" lon="5.96543">
        <ele>1758.8</ele>
        <time>2026-07-14T12:29:23Z</time>
      </trkpt>
      <trkpt lat="45.18994" lon="5.96543">
        <ele>1758.7</ele>
        <time>2026-07-14T12:29:24Z</time>
      </trkpt>
      <trkpt lat="45.18995" lon="5.96543">
        <ele>1758.6</ele>
        <time>2026-07-14T12:29:25Z</time>
      </trkpt>
      <trkpt lat="45.18995" lon="5.96543">
        <ele>1758.5</ele>
        <time>2026-07-14T12:29:26Z</time>
      </trkpt>
      <trkpt lat="45.18996" lon="5.96542">
        <ele>1758.3</ele>
        <time>2026-07-14T12:29:27Z</time>
      </trkpt>
      <trkpt lat="45.18996" lon="5.96542">
        <ele>1758.1</ele>
        <time>2026-07-14T12:29:28Z</time>
      </trkpt>
      <trkpt lat="45.18997" lon="5.96542">
        <ele>1757.9</ele>
        <time>2026-07-14T12:29:29Z</time>
      </trkpt>
      <trkpt lat="45.18998" lon="5.96541">
        <ele>1757.6</ele>
        <time>2026-07-14T12:29:30Z</time>
      </trkpt>
      <trkpt lat="45.18998" lon="5.96541">
        <ele>1757.4</ele>
        <time>2026-07-14T12:29:31Z</time>
      </trkpt>
      <trkpt lat="45.18999" lon="5.96541">
        <ele>1757.2</ele>
        <time>2026-07-14T12:29:32Z</time>
      </trkpt>
      <trkpt lat="45.19" lon="5.96541">
        <ele>1757.1</ele>
        <time>2026-07-14T12:29:33Z</time>
      </trkpt>
      <trkpt lat="45.19" lon="5.96541">
        <ele>1756.9</ele>
        <time>2026-07-14T12:29:34Z</time>
      </trkpt>
      <trkpt lat="45.19001" lon="5.9654">
        <ele>1756.7</ele>
        <time>2026-07-14T12:29:35Z</time>
      </trkpt>
      <trkpt lat="45.19001" lon="5.9654">
        <ele>1756.6</ele>
        <time>2026-07-14T12:29:36Z</time>
      </trkpt>
      <trkpt lat="45.19001" lon="5.9654">
        <ele>1756.4</ele>
        <time>2026-07-14T12:29:37Z</time>
      </trkpt>
      <trkpt lat="45.19002" lon="5.9654">
        <ele>1756.4</ele>
        <time>2026-07-14T12:29:38Z</time>
      </trkpt>
      <trkpt lat="45.19002" lon="5.96539">
        <ele>1756.2</ele>
        <time>2026-07-14T12:29:39Z</time>
      </trkpt>
      <trkpt lat="45.19002" lon="5.96539">
        <ele>1756.2</ele>
        <time>2026-07-14T12:29:40Z</time>
      </trkpt>
      <trkpt lat="45.19002" lon="5.96539">
        <ele>1756.1</ele>
        <time>2026-07-14T12:29:41Z</time>
      </trkpt>
      <trkpt lat="45.19004" lon="5.96538">
        <ele>1755.7</ele>
        <time>2026-07-14T12:29:42Z</time>
      </trkpt>
      <trkpt lat="45.19004" lon="5.96538">
        <ele>1755.6</ele>
        <time>2026-07-14T12:29:44Z</time>
      </trkpt>
      <trkpt lat="45.19004" lon="5.96538">
        <ele>1755.5</ele>
        <time>2026-07-14T12:29:45Z</time>
      </trkpt>
      <trkpt lat="45.19004" lon="5.96538">
        <ele>1755.4</ele>
        <time>2026-07-14T12:29:46Z</time>
      </trkpt>
      <trkpt lat="45.19005" lon="5.96537">
        <ele>1755.3</ele>
        <time>2026-07-14T12:29:47Z</time>
      </trkpt>
      <trkpt lat="45.19005" lon="5.96537">
        <ele>1755.1</ele>
        <time>2026-07-14T12:29:48Z</time>
      </trkpt>
      <trkpt lat="45.19006" lon="5.96537">
        <ele>1754.8</ele>
        <time>2026-07-14T12:29:49Z</time>
      </trkpt>
      <trkpt lat="45.19006" lon="5.96537">
        <ele>1754.7</ele>
        <time>2026-07-14T12:29:50Z</time>
      </trkpt>
      <trkpt lat="45.19007" lon="5.96536">
        <ele>1754.5</ele>
        <time>2026-07-14T12:29:51Z</time>
      </trkpt>
      <trkpt lat="45.19007" lon="5.96536">
        <ele>1754.4</ele>
        <time>2026-07-14T12:29:52Z</time>
      </trkpt>
      <trkpt lat="45.19008" lon="5.96536">
        <ele>1754.3</ele>
        <time>2026-07-14T12:29:53Z</time>
      </trkpt>
      <trkpt lat="45.19009" lon="5.96534">
        <ele>1753.8</ele>
        <time>2026-07-14T12:29:54Z</time>
      </trkpt>
      <trkpt lat="45.1901" lon="5.96534">
        <ele>1753.6</ele>
        <time>2026-07-14T12:29:56Z</time>
      </trkpt>
      <trkpt lat="45.19011" lon="5.96533">
        <ele>1753.1</ele>
        <time>2026-07-14T12:29:57Z</time>
      </trkpt>
      <trkpt lat="45.19012" lon="5.96533">
        <ele>1752.7</ele>
        <time>2026-07-14T12:29:59Z</time>
      </trkpt>
      <trkpt lat="45.19013" lon="5.96533">
        <ele>1752.5</ele>
        <time>2026-07-14T12:30:00Z</time>
      </trkpt>
      <trkpt lat="45.19013" lon="5.96533">
        <ele>1752.3</ele>
        <time>2026-07-14T12:30:01Z</time>
      </trkpt>
      <trkpt lat="45.19014" lon="5.96532">
        <ele>1752.1</ele>
        <time>2026-07-14T12:30:02Z</time>
      </trkpt>
      <trkpt lat="45.19016" lon="5.96532">
        <ele>1751.6</ele>
        <time>2026-07-14T12:30:03Z</time>
      </trkpt>
      <trkpt lat="45.19016" lon="5.96533">
        <ele>1751.4</ele>
        <time>2026-07-14T12:30:05Z</time>
      </trkpt>
      <trkpt lat="45.19017" lon="5.96533">
        <ele>1751.1</ele>
        <time>2026-07-14T12:30:06Z</time>
      </trkpt>
      <trkpt lat="45.19018" lon="5.96533">
        <ele>1750.9</ele>
        <time>2026-07-14T12:30:07Z</time>
      </trkpt>
      <trkpt lat="45.19019" lon="5.96533">
        <ele>1750.6</ele>
        <time>2026-07-14T12:30:08Z</time>
      </trkpt>
      <trkpt lat="45.19019" lon="5.96533">
        <ele>1750.5</ele>
        <time>2026-07-14T12:30:09Z</time>
      </trkpt>
      <trkpt lat="45.19019" lon="5.96532">
        <ele>1750.4</ele>
        <time>2026-07-14T12:30:10Z</time>
      </trkpt>
      <trkpt lat="45.19019" lon="5.96532">
        <ele>1750.3</ele>
        <time>2026-07-14T12:30:11Z</time>
      </trkpt>
      <trkpt lat="45.19019" lon="5.96532">
        <ele>1750.3</ele>
        <time>2026-07-14T12:30:12Z</time>
      </trkpt>
      <trkpt lat="45.19019" lon="5.96532">
        <ele>1750.3</ele>
        <time>2026-07-14T12:30:13Z</time>
      </trkpt>
      <trkpt lat="45.19019" lon="5.96532">
        <ele>1750.2</ele>
        <time>2026-07-14T12:30:14Z</time>
      </trkpt>
      <trkpt lat="45.1902" lon="5.96531">
        <ele>1750</ele>
        <time>2026-07-14T12:30:15Z</time>
      </trkpt>
      <trkpt lat="45.1902" lon="5.9653">
        <ele>1749.7</ele>
        <time>2026-07-14T12:30:16Z</time>
      </trkpt>
      <trkpt lat="45.19022" lon="5.96529">
        <ele>1749.2</ele>
        <time>2026-07-14T12:30:18Z</time>
      </trkpt>
      <trkpt lat="45.19023" lon="5.96529">
        <ele>1748.9</ele>
        <time>2026-07-14T12:30:20Z</time>
      </trkpt>
      <trkpt lat="45.19023" lon="5.96528">
        <ele>1748.7</ele>
        <time>2026-07-14T12:30:21Z</time>
      </trkpt>
      <trkpt lat="45.19024" lon="5.96528">
        <ele>1748.4</ele>
        <time>2026-07-14T12:30:22Z</time>
      </trkpt>
      <trkpt lat="45.19026" lon="5.96527">
        <ele>1747.8</ele>
        <time>2026-07-14T12:30:23Z</time>
      </trkpt>
      <trkpt lat="45.19026" lon="5.96527">
        <ele>1747.6</ele>
        <time>2026-07-14T12:30:25Z</time>
      </trkpt>
      <trkpt lat="45.19027" lon="5.96526">
        <ele>1747.4</ele>
        <time>2026-07-14T12:30:26Z</time>
      </trkpt>
      <trkpt lat="45.19028" lon="5.96525">
        <ele>1747.1</ele>
        <time>2026-07-14T12:30:27Z</time>
      </trkpt>
      <trkpt lat="45.19028" lon="5.96525">
        <ele>1746.9</ele>
        <time>2026-07-14T12:30:28Z</time>
      </trkpt>
      <trkpt lat="45.19029" lon="5.96525">
        <ele>1746.6</ele>
        <time>2026-07-14T12:30:29Z</time>
      </trkpt>
      <trkpt lat="45.19029" lon="5.96525">
        <ele>1746.5</ele>
        <time>2026-07-14T12:30:30Z</time>
      </trkpt>
      <trkpt lat="45.1903" lon="5.96525">
        <ele>1746.4</ele>
        <time>2026-07-14T12:30:31Z</time>
      </trkpt>
      <trkpt lat="45.1903" lon="5.96525">
        <ele>1746.1</ele>
        <time>2026-07-14T12:30:32Z</time>
      </trkpt>
      <trkpt lat="45.19031" lon="5.96524">
        <ele>1746</ele>
        <time>2026-07-14T12:30:33Z</time>
      </trkpt>
      <trkpt lat="45.19032" lon="5.96524">
        <ele>1745.7</ele>
        <time>2026-07-14T12:30:34Z</time>
      </trkpt>
      <trkpt lat="45.19032" lon="5.96524">
        <ele>1745.6</ele>
        <time>2026-07-14T12:30:35Z</time>
      </trkpt>
      <trkpt lat="45.19033" lon="5.96524">
        <ele>1745.3</ele>
        <time>2026-07-14T12:30:36Z</time>
      </trkpt>
      <trkpt lat="45.19033" lon="5.96524">
        <ele>1745.2</ele>
        <time>2026-07-14T12:30:37Z</time>
      </trkpt>
      <trkpt lat="45.19034" lon="5.96523">
        <ele>1745</ele>
        <time>2026-07-14T12:30:38Z</time>
      </trkpt>
      <trkpt lat="45.19034" lon="5.96523">
        <ele>1744.7</ele>
        <time>2026-07-14T12:30:39Z</time>
      </trkpt>
      <trkpt lat="45.19035" lon="5.96523">
        <ele>1744.6</ele>
        <time>2026-07-14T12:30:40Z</time>
      </trkpt>
      <trkpt lat="45.19036" lon="5.96523">
        <ele>1744.1</ele>
        <time>2026-07-14T12:30:41Z</time>
      </trkpt>
      <trkpt lat="45.19037" lon="5.96523">
        <ele>1744</ele>
        <time>2026-07-14T12:30:43Z</time>
      </trkpt>
      <trkpt lat="45.19037" lon="5.96522">
        <ele>1743.7</ele>
        <time>2026-07-14T12:30:44Z</time>
      </trkpt>
      <trkpt lat="45.19038" lon="5.96522">
        <ele>1743.5</ele>
        <time>2026-07-14T12:30:45Z</time>
      </trkpt>
      <trkpt lat="45.19039" lon="5.96521">
        <ele>1743</ele>
        <time>2026-07-14T12:30:46Z</time>
      </trkpt>
      <trkpt lat="45.19039" lon="5.9652">
        <ele>1742.7</ele>
        <time>2026-07-14T12:30:48Z</time>
      </trkpt>
      <trkpt lat="45.19038" lon="5.96519">
        <ele>1742.4</ele>
        <time>2026-07-14T12:30:49Z</time>
      </trkpt>
      <trkpt lat="45.19037" lon="5.96518">
        <ele>1742.1</ele>
        <time>2026-07-14T12:30:50Z</time>
      </trkpt>
      <trkpt lat="45.19037" lon="5.96519">
        <ele>1741.9</ele>
        <time>2026-07-14T12:30:51Z</time>
      </trkpt>
      <trkpt lat="45.19037" lon="5.96519">
        <ele>1741.8</ele>
        <time>2026-07-14T12:30:52Z</time>
      </trkpt>
      <trkpt lat="45.19037" lon="5.96519">
        <ele>1741.8</ele>
        <time>2026-07-14T12:30:53Z</time>
      </trkpt>
      <trkpt lat="45.19037" lon="5.96519">
        <ele>1741.7</ele>
        <time>2026-07-14T12:30:54Z</time>
      </trkpt>
      <trkpt lat="45.19037" lon="5.96519">
        <ele>1741.7</ele>
        <time>2026-07-14T12:30:55Z</time>
      </trkpt>
      <trkpt lat="45.19037" lon="5.96519">
        <ele>1741.7</ele>
        <time>2026-07-14T12:30:56Z</time>
      </trkpt>
      <trkpt lat="45.19037" lon="5.96519">
        <ele>1741.6</ele>
        <time>2026-07-14T12:30:57Z</time>
      </trkpt>
      <trkpt lat="45.19036" lon="5.96518">
        <ele>1741.3</ele>
        <time>2026-07-14T12:30:58Z</time>
      </trkpt>
      <trkpt lat="45.19036" lon="5.96516">
        <ele>1740.8</ele>
        <time>2026-07-14T12:30:59Z</time>
      </trkpt>
      <trkpt lat="45.19035" lon="5.96515">
        <ele>1740.5</ele>
        <time>2026-07-14T12:31:00Z</time>
      </trkpt>
      <trkpt lat="45.19034" lon="5.96514">
        <ele>1740.3</ele>
        <time>2026-07-14T12:31:01Z</time>
      </trkpt>
      <trkpt lat="45.19034" lon="5.96515">
        <ele>1740.1</ele>
        <time>2026-07-14T12:31:03Z</time>
      </trkpt>
      <trkpt lat="45.19034" lon="5.96514">
        <ele>1740</ele>
        <time>2026-07-14T12:31:04Z</time>
      </trkpt>
      <trkpt lat="45.19033" lon="5.96512">
        <ele>1739.6</ele>
        <time>2026-07-14T12:31:05Z</time>
      </trkpt>
      <trkpt lat="45.19034" lon="5.96512">
        <ele>1739.4</ele>
        <time>2026-07-14T12:31:07Z</time>
      </trkpt>
      <trkpt lat="45.19033" lon="5.96511">
        <ele>1739.3</ele>
        <time>2026-07-14T12:31:08Z</time>
      </trkpt>
      <trkpt lat="45.19033" lon="5.96511">
        <ele>1739.1</ele>
        <time>2026-07-14T12:31:09Z</time>
      </trkpt>
      <trkpt lat="45.19033" lon="5.9651">
        <ele>1738.9</ele>
        <time>2026-07-14T12:31:10Z</time>
      </trkpt>
      <trkpt lat="45.19032" lon="5.9651">
        <ele>1738.7</ele>
        <time>2026-07-14T12:31:11Z</time>
      </trkpt>
      <trkpt lat="45.19031" lon="5.96509">
        <ele>1738.4</ele>
        <time>2026-07-14T12:31:12Z</time>
      </trkpt>
      <trkpt lat="45.19031" lon="5.96509">
        <ele>1738.3</ele>
        <time>2026-07-14T12:31:13Z</time>
      </trkpt>
      <trkpt lat="45.1903" lon="5.96509">
        <ele>1738.1</ele>
        <time>2026-07-14T12:31:14Z</time>
      </trkpt>
      <trkpt lat="45.1903" lon="5.96508">
        <ele>1737.8</ele>
        <time>2026-07-14T12:31:15Z</time>
      </trkpt>
      <trkpt lat="45.19029" lon="5.96508">
        <ele>1737.6</ele>
        <time>2026-07-14T12:31:17Z</time>
      </trkpt>
      <trkpt lat="45.19029" lon="5.96507">
        <ele>1737.5</ele>
        <time>2026-07-14T12:31:18Z</time>
      </trkpt>
      <trkpt lat="45.19029" lon="5.96506">
        <ele>1737.3</ele>
        <time>2026-07-14T12:31:19Z</time>
      </trkpt>
      <trkpt lat="45.1903" lon="5.96505">
        <ele>1737</ele>
        <time>2026-07-14T12:31:20Z</time>
      </trkpt>
      <trkpt lat="45.1903" lon="5.96505">
        <ele>1736.9</ele>
        <time>2026-07-14T12:31:22Z</time>
      </trkpt>
      <trkpt lat="45.19029" lon="5.96505">
        <ele>1736.6</ele>
        <time>2026-07-14T12:31:23Z</time>
      </trkpt>
      <trkpt lat="45.19029" lon="5.96504">
        <ele>1736.5</ele>
        <time>2026-07-14T12:31:25Z</time>
      </trkpt>
      <trkpt lat="45.19028" lon="5.96504">
        <ele>1736.4</ele>
        <time>2026-07-14T12:31:26Z</time>
      </trkpt>
      <trkpt lat="45.19028" lon="5.96503">
        <ele>1736.3</ele>
        <time>2026-07-14T12:31:27Z</time>
      </trkpt>
      <trkpt lat="45.19028" lon="5.96503">
        <ele>1736.1</ele>
        <time>2026-07-14T12:31:28Z</time>
      </trkpt>
      <trkpt lat="45.19028" lon="5.96502">
        <ele>1735.9</ele>
        <time>2026-07-14T12:31:29Z</time>
      </trkpt>
      <trkpt lat="45.19028" lon="5.96501">
        <ele>1735.7</ele>
        <time>2026-07-14T12:31:30Z</time>
      </trkpt>
      <trkpt lat="45.19027" lon="5.965">
        <ele>1735.6</ele>
        <time>2026-07-14T12:31:31Z</time>
      </trkpt>
      <trkpt lat="45.19027" lon="5.965">
        <ele>1735.5</ele>
        <time>2026-07-14T12:31:33Z</time>
      </trkpt>
      <trkpt lat="45.19026" lon="5.965">
        <ele>1735.3</ele>
        <time>2026-07-14T12:31:34Z</time>
      </trkpt>
      <trkpt lat="45.19026" lon="5.965">
        <ele>1735.1</ele>
        <time>2026-07-14T12:31:35Z</time>
      </trkpt>
      <trkpt lat="45.19025" lon="5.965">
        <ele>1734.8</ele>
        <time>2026-07-14T12:31:36Z</time>
      </trkpt>
      <trkpt lat="45.19024" lon="5.965">
        <ele>1734.5</ele>
        <time>2026-07-14T12:31:37Z</time>
      </trkpt>
      <trkpt lat="45.19023" lon="5.965">
        <ele>1734.4</ele>
        <time>2026-07-14T12:31:39Z</time>
      </trkpt>
      <trkpt lat="45.19023" lon="5.965">
        <ele>1734.3</ele>
        <time>2026-07-14T12:31:40Z</time>
      </trkpt>
      <trkpt lat="45.19022" lon="5.96499">
        <ele>1734</ele>
        <time>2026-07-14T12:31:41Z</time>
      </trkpt>
      <trkpt lat="45.19022" lon="5.96498">
        <ele>1733.9</ele>
        <time>2026-07-14T12:31:42Z</time>
      </trkpt>
      <trkpt lat="45.19022" lon="5.96498">
        <ele>1733.8</ele>
        <time>2026-07-14T12:31:44Z</time>
      </trkpt>
      <trkpt lat="45.19022" lon="5.96498">
        <ele>1733.7</ele>
        <time>2026-07-14T12:31:45Z</time>
      </trkpt>
      <trkpt lat="45.19021" lon="5.96498">
        <ele>1733.6</ele>
        <time>2026-07-14T12:31:46Z</time>
      </trkpt>
      <trkpt lat="45.19021" lon="5.96497">
        <ele>1733.5</ele>
        <time>2026-07-14T12:31:47Z</time>
      </trkpt>
      <trkpt lat="45.19021" lon="5.96496">
        <ele>1733.4</ele>
        <time>2026-07-14T12:31:48Z</time>
      </trkpt>
      <trkpt lat="45.19021" lon="5.96495">
        <ele>1733.1</ele>
        <time>2026-07-14T12:31:49Z</time>
      </trkpt>
      <trkpt lat="45.19021" lon="5.96495">
        <ele>1733</ele>
        <time>2026-07-14T12:31:51Z</time>
      </trkpt>
      <trkpt lat="45.1902" lon="5.96494">
        <ele>1732.8</ele>
        <time>2026-07-14T12:31:52Z</time>
      </trkpt>
      <trkpt lat="45.1902" lon="5.96494">
        <ele>1732.7</ele>
        <time>2026-07-14T12:31:53Z</time>
      </trkpt>
      <trkpt lat="45.1902" lon="5.96493">
        <ele>1732.6</ele>
        <time>2026-07-14T12:31:54Z</time>
      </trkpt>
      <trkpt lat="45.19019" lon="5.96492">
        <ele>1732.4</ele>
        <time>2026-07-14T12:31:55Z</time>
      </trkpt>
      <trkpt lat="45.19019" lon="5.96492">
        <ele>1732.3</ele>
        <time>2026-07-14T12:31:56Z</time>
      </trkpt>
      <trkpt lat="45.19018" lon="5.96491">
        <ele>1731.9</ele>
        <time>2026-07-14T12:31:57Z</time>
      </trkpt>
      <trkpt lat="45.19017" lon="5.9649">
        <ele>1731.8</ele>
        <time>2026-07-14T12:31:59Z</time>
      </trkpt>
      <trkpt lat="45.19017" lon="5.96489">
        <ele>1731.6</ele>
        <time>2026-07-14T12:32:00Z</time>
      </trkpt>
      <trkpt lat="45.19017" lon="5.96487">
        <ele>1731.3</ele>
        <time>2026-07-14T12:32:01Z</time>
      </trkpt>
      <trkpt lat="45.19017" lon="5.96486">
        <ele>1731.1</ele>
        <time>2026-07-14T12:32:02Z</time>
      </trkpt>
      <trkpt lat="45.19016" lon="5.96486">
        <ele>1731</ele>
        <time>2026-07-14T12:32:03Z</time>
      </trkpt>
      <trkpt lat="45.19015" lon="5.96485">
        <ele>1730.8</ele>
        <time>2026-07-14T12:32:05Z</time>
      </trkpt>
      <trkpt lat="45.19015" lon="5.96486">
        <ele>1730.7</ele>
        <time>2026-07-14T12:32:06Z</time>
      </trkpt>
      <trkpt lat="45.19014" lon="5.96486">
        <ele>1730.5</ele>
        <time>2026-07-14T12:32:07Z</time>
      </trkpt>
      <trkpt lat="45.19014" lon="5.96486">
        <ele>1730.4</ele>
        <time>2026-07-14T12:32:08Z</time>
      </trkpt>
      <trkpt lat="45.19014" lon="5.96486">
        <ele>1730.3</ele>
        <time>2026-07-14T12:32:09Z</time>
      </trkpt>
      <trkpt lat="45.19014" lon="5.96485">
        <ele>1730.2</ele>
        <time>2026-07-14T12:32:10Z</time>
      </trkpt>
      <trkpt lat="45.19015" lon="5.96484">
        <ele>1730</ele>
        <time>2026-07-14T12:32:11Z</time>
      </trkpt>
      <trkpt lat="45.19015" lon="5.96481">
        <ele>1729.6</ele>
        <time>2026-07-14T12:32:12Z</time>
      </trkpt>
      <trkpt lat="45.19014" lon="5.96479">
        <ele>1729.2</ele>
        <time>2026-07-14T12:32:13Z</time>
      </trkpt>
      <trkpt lat="45.19013" lon="5.96477">
        <ele>1728.9</ele>
        <time>2026-07-14T12:32:14Z</time>
      </trkpt>
      <trkpt lat="45.19012" lon="5.96478">
        <ele>1728.8</ele>
        <time>2026-07-14T12:32:15Z</time>
      </trkpt>
      <trkpt lat="45.19011" lon="5.96478">
        <ele>1728.6</ele>
        <time>2026-07-14T12:32:16Z</time>
      </trkpt>
      <trkpt lat="45.19011" lon="5.96478">
        <ele>1728.5</ele>
        <time>2026-07-14T12:32:17Z</time>
      </trkpt>
      <trkpt lat="45.1901" lon="5.96477">
        <ele>1728.3</ele>
        <time>2026-07-14T12:32:18Z</time>
      </trkpt>
      <trkpt lat="45.19009" lon="5.96476">
        <ele>1728.1</ele>
        <time>2026-07-14T12:32:19Z</time>
      </trkpt>
      <trkpt lat="45.19008" lon="5.96475">
        <ele>1727.9</ele>
        <time>2026-07-14T12:32:21Z</time>
      </trkpt>
      <trkpt lat="45.19007" lon="5.96476">
        <ele>1727.8</ele>
        <time>2026-07-14T12:32:22Z</time>
      </trkpt>
      <trkpt lat="45.19006" lon="5.96477">
        <ele>1727.6</ele>
        <time>2026-07-14T12:32:23Z</time>
      </trkpt>
      <trkpt lat="45.19006" lon="5.96477">
        <ele>1727.5</ele>
        <time>2026-07-14T12:32:24Z</time>
      </trkpt>
      <trkpt lat="45.19005" lon="5.96478">
        <ele>1727.4</ele>
        <time>2026-07-14T12:32:25Z</time>
      </trkpt>
      <trkpt lat="45.19005" lon="5.96477">
        <ele>1727.3</ele>
        <time>2026-07-14T12:32:26Z</time>
      </trkpt>
      <trkpt lat="45.19005" lon="5.96476">
        <ele>1727.2</ele>
        <time>2026-07-14T12:32:27Z</time>
      </trkpt>
      <trkpt lat="45.19004" lon="5.96476">
        <ele>1727.1</ele>
        <time>2026-07-14T12:32:28Z</time>
      </trkpt>
      <trkpt lat="45.19004" lon="5.96476">
        <ele>1727.1</ele>
        <time>2026-07-14T12:32:29Z</time>
      </trkpt>
      <trkpt lat="45.19003" lon="5.96475">
        <ele>1727</ele>
        <time>2026-07-14T12:32:30Z</time>
      </trkpt>
      <trkpt lat="45.19003" lon="5.96475">
        <ele>1726.9</ele>
        <time>2026-07-14T12:32:31Z</time>
      </trkpt>
      <trkpt lat="45.19002" lon="5.96473">
        <ele>1726.8</ele>
        <time>2026-07-14T12:32:33Z</time>
      </trkpt>
      <trkpt lat="45.19002" lon="5.96473">
        <ele>1726.7</ele>
        <time>2026-07-14T12:32:34Z</time>
      </trkpt>
      <trkpt lat="45.19002" lon="5.96472">
        <ele>1726.6</ele>
        <time>2026-07-14T12:32:36Z</time>
      </trkpt>
      <trkpt lat="45.19002" lon="5.96471">
        <ele>1726.5</ele>
        <time>2026-07-14T12:32:37Z</time>
      </trkpt>
      <trkpt lat="45.19001" lon="5.9647">
        <ele>1726.4</ele>
        <time>2026-07-14T12:32:38Z</time>
      </trkpt>
      <trkpt lat="45.19001" lon="5.9647">
        <ele>1726.3</ele>
        <time>2026-07-14T12:32:39Z</time>
      </trkpt>
      <trkpt lat="45.19001" lon="5.96469">
        <ele>1726.2</ele>
        <time>2026-07-14T12:32:40Z</time>
      </trkpt>
      <trkpt lat="45.19001" lon="5.96469">
        <ele>1726.2</ele>
        <time>2026-07-14T12:32:41Z</time>
      </trkpt>
      <trkpt lat="45.19" lon="5.96469">
        <ele>1726.2</ele>
        <time>2026-07-14T12:32:42Z</time>
      </trkpt>
      <trkpt lat="45.19" lon="5.96469">
        <ele>1726.1</ele>
        <time>2026-07-14T12:32:43Z</time>
      </trkpt>
      <trkpt lat="45.18999" lon="5.96468">
        <ele>1726</ele>
        <time>2026-07-14T12:32:44Z</time>
      </trkpt>
      <trkpt lat="45.18998" lon="5.96468">
        <ele>1725.9</ele>
        <time>2026-07-14T12:32:45Z</time>
      </trkpt>
      <trkpt lat="45.18998" lon="5.96467">
        <ele>1725.8</ele>
        <time>2026-07-14T12:32:46Z</time>
      </trkpt>
      <trkpt lat="45.18997" lon="5.96467">
        <ele>1725.7</ele>
        <time>2026-07-14T12:32:47Z</time>
      </trkpt>
      <trkpt lat="45.18997" lon="5.96467">
        <ele>1725.7</ele>
        <time>2026-07-14T12:32:48Z</time>
      </trkpt>
      <trkpt lat="45.18996" lon="5.96466">
        <ele>1725.6</ele>
        <time>2026-07-14T12:32:49Z</time>
      </trkpt>
      <trkpt lat="45.18996" lon="5.96465">
        <ele>1725.5</ele>
        <time>2026-07-14T12:32:50Z</time>
      </trkpt>
      <trkpt lat="45.18995" lon="5.96465">
        <ele>1725.4</ele>
        <time>2026-07-14T12:32:52Z</time>
      </trkpt>
      <trkpt lat="45.18994" lon="5.96464">
        <ele>1725.2</ele>
        <time>2026-07-14T12:32:53Z</time>
      </trkpt>
      <trkpt lat="45.18993" lon="5.96463">
        <ele>1725</ele>
        <time>2026-07-14T12:32:55Z</time>
      </trkpt>
      <trkpt lat="45.18992" lon="5.96463">
        <ele>1724.9</ele>
        <time>2026-07-14T12:32:57Z</time>
      </trkpt>
      <trkpt lat="45.18992" lon="5.96462">
        <ele>1724.9</ele>
        <time>2026-07-14T12:32:58Z</time>
      </trkpt>
      <trkpt lat="45.18992" lon="5.96461">
        <ele>1724.7</ele>
        <time>2026-07-14T12:32:59Z</time>
      </trkpt>
      <trkpt lat="45.18991" lon="5.96461">
        <ele>1724.7</ele>
        <time>2026-07-14T12:33:00Z</time>
      </trkpt>
      <trkpt lat="45.18991" lon="5.9646">
        <ele>1724.6</ele>
        <time>2026-07-14T12:33:01Z</time>
      </trkpt>
      <trkpt lat="45.1899" lon="5.9646">
        <ele>1724.4</ele>
        <time>2026-07-14T12:33:02Z</time>
      </trkpt>
      <trkpt lat="45.1899" lon="5.9646">
        <ele>1724.4</ele>
        <time>2026-07-14T12:33:03Z</time>
      </trkpt>
      <trkpt lat="45.18989" lon="5.96459">
        <ele>1724.2</ele>
        <time>2026-07-14T12:33:04Z</time>
      </trkpt>
      <trkpt lat="45.18988" lon="5.96458">
        <ele>1724.1</ele>
        <time>2026-07-14T12:33:05Z</time>
      </trkpt>
      <trkpt lat="45.18988" lon="5.96457">
        <ele>1723.9</ele>
        <time>2026-07-14T12:33:07Z</time>
      </trkpt>
      <trkpt lat="45.18987" lon="5.96457">
        <ele>1723.9</ele>
        <time>2026-07-14T12:33:08Z</time>
      </trkpt>
      <trkpt lat="45.18987" lon="5.96457">
        <ele>1723.8</ele>
        <time>2026-07-14T12:33:09Z</time>
      </trkpt>
      <trkpt lat="45.18986" lon="5.96456">
        <ele>1723.6</ele>
        <time>2026-07-14T12:33:10Z</time>
      </trkpt>
      <trkpt lat="45.18985" lon="5.96455">
        <ele>1723.5</ele>
        <time>2026-07-14T12:33:11Z</time>
      </trkpt>
      <trkpt lat="45.18985" lon="5.96455">
        <ele>1723.4</ele>
        <time>2026-07-14T12:33:13Z</time>
      </trkpt>
      <trkpt lat="45.18985" lon="5.96455">
        <ele>1723.3</ele>
        <time>2026-07-14T12:33:14Z</time>
      </trkpt>
      <trkpt lat="45.18984" lon="5.96455">
        <ele>1723.2</ele>
        <time>2026-07-14T12:33:15Z</time>
      </trkpt>
      <trkpt lat="45.18983" lon="5.96454">
        <ele>1723.1</ele>
        <time>2026-07-14T12:33:16Z</time>
      </trkpt>
      <trkpt lat="45.18983" lon="5.96454">
        <ele>1723</ele>
        <time>2026-07-14T12:33:17Z</time>
      </trkpt>
      <trkpt lat="45.18982" lon="5.96454">
        <ele>1722.8</ele>
        <time>2026-07-14T12:33:18Z</time>
      </trkpt>
      <trkpt lat="45.18981" lon="5.96454">
        <ele>1722.6</ele>
        <time>2026-07-14T12:33:19Z</time>
      </trkpt>
      <trkpt lat="45.1898" lon="5.96455">
        <ele>1722.5</ele>
        <time>2026-07-14T12:33:20Z</time>
      </trkpt>
      <trkpt lat="45.1898" lon="5.96456">
        <ele>1722.4</ele>
        <time>2026-07-14T12:33:21Z</time>
      </trkpt>
      <trkpt lat="45.18979" lon="5.96457">
        <ele>1722.2</ele>
        <time>2026-07-14T12:33:22Z</time>
      </trkpt>
      <trkpt lat="45.18979" lon="5.96457">
        <ele>1722.1</ele>
        <time>2026-07-14T12:33:23Z</time>
      </trkpt>
      <trkpt lat="45.18978" lon="5.96457">
        <ele>1722</ele>
        <time>2026-07-14T12:33:24Z</time>
      </trkpt>
      <trkpt lat="45.18978" lon="5.96457">
        <ele>1721.9</ele>
        <time>2026-07-14T12:33:25Z</time>
      </trkpt>
      <trkpt lat="45.18977" lon="5.96456">
        <ele>1721.8</ele>
        <time>2026-07-14T12:33:26Z</time>
      </trkpt>
      <trkpt lat="45.18977" lon="5.96456">
        <ele>1721.7</ele>
        <time>2026-07-14T12:33:27Z</time>
      </trkpt>
      <trkpt lat="45.18976" lon="5.96455">
        <ele>1721.6</ele>
        <time>2026-07-14T12:33:28Z</time>
      </trkpt>
      <trkpt lat="45.18976" lon="5.96455">
        <ele>1721.5</ele>
        <time>2026-07-14T12:33:29Z</time>
      </trkpt>
      <trkpt lat="45.18976" lon="5.96454">
        <ele>1721.3</ele>
        <time>2026-07-14T12:33:30Z</time>
      </trkpt>
      <trkpt lat="45.18976" lon="5.96453">
        <ele>1721.2</ele>
        <time>2026-07-14T12:33:31Z</time>
      </trkpt>
      <trkpt lat="45.18975" lon="5.96451">
        <ele>1721</ele>
        <time>2026-07-14T12:33:32Z</time>
      </trkpt>
      <trkpt lat="45.18975" lon="5.9645">
        <ele>1720.9</ele>
        <time>2026-07-14T12:33:33Z</time>
      </trkpt>
      <trkpt lat="45.18975" lon="5.9645">
        <ele>1720.8</ele>
        <time>2026-07-14T12:33:34Z</time>
      </trkpt>
      <trkpt lat="45.18975" lon="5.96449">
        <ele>1720.7</ele>
        <time>2026-07-14T12:33:35Z</time>
      </trkpt>
      <trkpt lat="45.18976" lon="5.96448">
        <ele>1720.6</ele>
        <time>2026-07-14T12:33:36Z</time>
      </trkpt>
      <trkpt lat="45.18975" lon="5.96446">
        <ele>1720.3</ele>
        <time>2026-07-14T12:33:37Z</time>
      </trkpt>
      <trkpt lat="45.18974" lon="5.96445">
        <ele>1720.2</ele>
        <time>2026-07-14T12:33:39Z</time>
      </trkpt>
      <trkpt lat="45.18974" lon="5.96443">
        <ele>1719.9</ele>
        <time>2026-07-14T12:33:40Z</time>
      </trkpt>
      <trkpt lat="45.18974" lon="5.96442">
        <ele>1719.8</ele>
        <time>2026-07-14T12:33:42Z</time>
      </trkpt>
      <trkpt lat="45.18973" lon="5.96441">
        <ele>1719.6</ele>
        <time>2026-07-14T12:33:43Z</time>
      </trkpt>
      <trkpt lat="45.18973" lon="5.9644">
        <ele>1719.5</ele>
        <time>2026-07-14T12:33:44Z</time>
      </trkpt>
      <trkpt lat="45.18972" lon="5.96439">
        <ele>1719.3</ele>
        <time>2026-07-14T12:33:45Z</time>
      </trkpt>
      <trkpt lat="45.18972" lon="5.96438">
        <ele>1719.2</ele>
        <time>2026-07-14T12:33:46Z</time>
      </trkpt>
      <trkpt lat="45.18971" lon="5.96437">
        <ele>1719</ele>
        <time>2026-07-14T12:33:47Z</time>
      </trkpt>
      <trkpt lat="45.18971" lon="5.96436">
        <ele>1718.9</ele>
        <time>2026-07-14T12:33:48Z</time>
      </trkpt>
      <trkpt lat="45.1897" lon="5.96435">
        <ele>1718.7</ele>
        <time>2026-07-14T12:33:49Z</time>
      </trkpt>
      <trkpt lat="45.1897" lon="5.96432">
        <ele>1718.5</ele>
        <time>2026-07-14T12:33:50Z</time>
      </trkpt>
      <trkpt lat="45.18969" lon="5.96432">
        <ele>1718.4</ele>
        <time>2026-07-14T12:33:52Z</time>
      </trkpt>
      <trkpt lat="45.18968" lon="5.96432">
        <ele>1718.2</ele>
        <time>2026-07-14T12:33:53Z</time>
      </trkpt>
      <trkpt lat="45.18967" lon="5.96431">
        <ele>1718.1</ele>
        <time>2026-07-14T12:33:54Z</time>
      </trkpt>
      <trkpt lat="45.18967" lon="5.96431">
        <ele>1718.1</ele>
        <time>2026-07-14T12:33:55Z</time>
      </trkpt>
      <trkpt lat="45.18967" lon="5.96431">
        <ele>1718</ele>
        <time>2026-07-14T12:33:56Z</time>
      </trkpt>
      <trkpt lat="45.18966" lon="5.96431">
        <ele>1718</ele>
        <time>2026-07-14T12:33:57Z</time>
      </trkpt>
      <trkpt lat="45.18966" lon="5.9643">
        <ele>1717.9</ele>
        <time>2026-07-14T12:33:58Z</time>
      </trkpt>
      <trkpt lat="45.18965" lon="5.9643">
        <ele>1717.8</ele>
        <time>2026-07-14T12:33:59Z</time>
      </trkpt>
      <trkpt lat="45.18965" lon="5.9643">
        <ele>1717.7</ele>
        <time>2026-07-14T12:34:00Z</time>
      </trkpt>
      <trkpt lat="45.18964" lon="5.9643">
        <ele>1717.6</ele>
        <time>2026-07-14T12:34:01Z</time>
      </trkpt>
      <trkpt lat="45.18963" lon="5.9643">
        <ele>1717.6</ele>
        <time>2026-07-14T12:34:02Z</time>
      </trkpt>
      <trkpt lat="45.18963" lon="5.9643">
        <ele>1717.4</ele>
        <time>2026-07-14T12:34:03Z</time>
      </trkpt>
      <trkpt lat="45.18962" lon="5.96431">
        <ele>1717.4</ele>
        <time>2026-07-14T12:34:04Z</time>
      </trkpt>
      <trkpt lat="45.18961" lon="5.9643">
        <ele>1717.3</ele>
        <time>2026-07-14T12:34:05Z</time>
      </trkpt>
      <trkpt lat="45.1896" lon="5.96429">
        <ele>1717.1</ele>
        <time>2026-07-14T12:34:06Z</time>
      </trkpt>
      <trkpt lat="45.1896" lon="5.96429">
        <ele>1717.1</ele>
        <time>2026-07-14T12:34:07Z</time>
      </trkpt>
      <trkpt lat="45.18958" lon="5.96429">
        <ele>1716.9</ele>
        <time>2026-07-14T12:34:08Z</time>
      </trkpt>
      <trkpt lat="45.18957" lon="5.96429">
        <ele>1716.8</ele>
        <time>2026-07-14T12:34:10Z</time>
      </trkpt>
      <trkpt lat="45.18956" lon="5.96428">
        <ele>1716.6</ele>
        <time>2026-07-14T12:34:11Z</time>
      </trkpt>
      <trkpt lat="45.18955" lon="5.96429">
        <ele>1716.5</ele>
        <time>2026-07-14T12:34:13Z</time>
      </trkpt>
      <trkpt lat="45.18954" lon="5.96429">
        <ele>1716.4</ele>
        <time>2026-07-14T12:34:15Z</time>
      </trkpt>
      <trkpt lat="45.18954" lon="5.96429">
        <ele>1716.4</ele>
        <time>2026-07-14T12:34:16Z</time>
      </trkpt>
      <trkpt lat="45.18954" lon="5.96429">
        <ele>1716.4</ele>
        <time>2026-07-14T12:34:17Z</time>
      </trkpt>
      <trkpt lat="45.18954" lon="5.96429">
        <ele>1716.4</ele>
        <time>2026-07-14T12:34:18Z</time>
      </trkpt>
      <trkpt lat="45.18954" lon="5.96429">
        <ele>1716.4</ele>
        <time>2026-07-14T12:34:19Z</time>
      </trkpt>
      <trkpt lat="45.18954" lon="5.96429">
        <ele>1716.3</ele>
        <time>2026-07-14T12:34:20Z</time>
      </trkpt>
      <trkpt lat="45.18954" lon="5.96429">
        <ele>1716.3</ele>
        <time>2026-07-14T12:34:21Z</time>
      </trkpt>
      <trkpt lat="45.18954" lon="5.96429">
        <ele>1716.3</ele>
        <time>2026-07-14T12:34:22Z</time>
      </trkpt>
      <trkpt lat="45.18954" lon="5.96429">
        <ele>1716.2</ele>
        <time>2026-07-14T12:34:24Z</time>
      </trkpt>
      <trkpt lat="45.18954" lon="5.9643">
        <ele>1716.2</ele>
        <time>2026-07-14T12:34:25Z</time>
      </trkpt>
      <trkpt lat="45.18954" lon="5.9643">
        <ele>1716.2</ele>
        <time>2026-07-14T12:34:26Z</time>
      </trkpt>
      <trkpt lat="45.18954" lon="5.9643">
        <ele>1716.2</ele>
        <time>2026-07-14T12:34:27Z</time>
      </trkpt>
      <trkpt lat="45.18954" lon="5.9643">
        <ele>1716.2</ele>
        <time>2026-07-14T12:34:28Z</time>
      </trkpt>
      <trkpt lat="45.18954" lon="5.9643">
        <ele>1716.2</ele>
        <time>2026-07-14T12:34:29Z</time>
      </trkpt>
      <trkpt lat="45.18954" lon="5.9643">
        <ele>1716.2</ele>
        <time>2026-07-14T12:34:30Z</time>
      </trkpt>
      <trkpt lat="45.18954" lon="5.9643">
        <ele>1716.1</ele>
        <time>2026-07-14T12:34:31Z</time>
      </trkpt>
      <trkpt lat="45.18954" lon="5.9643">
        <ele>1716.1</ele>
        <time>2026-07-14T12:34:32Z</time>
      </trkpt>
      <trkpt lat="45.18954" lon="5.9643">
        <ele>1716.1</ele>
        <time>2026-07-14T12:34:33Z</time>
      </trkpt>
      <trkpt lat="45.18954" lon="5.9643">
        <ele>1716.1</ele>
        <time>2026-07-14T12:34:34Z</time>
      </trkpt>
      <trkpt lat="45.18954" lon="5.9643">
        <ele>1716.1</ele>
        <time>2026-07-14T12:34:35Z</time>
      </trkpt>
      <trkpt lat="45.18954" lon="5.9643">
        <ele>1716.1</ele>
        <time>2026-07-14T12:34:36Z</time>
      </trkpt>
      <trkpt lat="45.18954" lon="5.9643">
        <ele>1716.1</ele>
        <time>2026-07-14T12:34:37Z</time>
      </trkpt>
      <trkpt lat="45.18954" lon="5.9643">
        <ele>1716.1</ele>
        <time>2026-07-14T12:34:38Z</time>
      </trkpt>
      <trkpt lat="45.18954" lon="5.9643">
        <ele>1716.1</ele>
        <time>2026-07-14T12:34:40Z</time>
      </trkpt>
      <trkpt lat="45.18954" lon="5.9643">
        <ele>1716.1</ele>
        <time>2026-07-14T12:34:41Z</time>
      </trkpt>
      <trkpt lat="45.18954" lon="5.96429">
        <ele>1716.1</ele>
        <time>2026-07-14T12:34:42Z</time>
      </trkpt>
      <trkpt lat="45.18954" lon="5.96429">
        <ele>1716</ele>
        <time>2026-07-14T12:34:43Z</time>
      </trkpt>
      <trkpt lat="45.18953" lon="5.96429">
        <ele>1716</ele>
        <time>2026-07-14T12:34:44Z</time>
      </trkpt>
      <trkpt lat="45.18953" lon="5.96429">
        <ele>1716</ele>
        <time>2026-07-14T12:34:45Z</time>
      </trkpt>
      <trkpt lat="45.18953" lon="5.9643">
        <ele>1716</ele>
        <time>2026-07-14T12:34:46Z</time>
      </trkpt>
      <trkpt lat="45.18953" lon="5.9643">
        <ele>1715.9</ele>
        <time>2026-07-14T12:34:47Z</time>
      </trkpt>
      <trkpt lat="45.18953" lon="5.9643">
        <ele>1715.9</ele>
        <time>2026-07-14T12:34:48Z</time>
      </trkpt>
      <trkpt lat="45.18952" lon="5.96429">
        <ele>1715.9</ele>
        <time>2026-07-14T12:34:49Z</time>
      </trkpt>
      <trkpt lat="45.18952" lon="5.96429">
        <ele>1715.8</ele>
        <time>2026-07-14T12:34:50Z</time>
      </trkpt>
      <trkpt lat="45.18952" lon="5.96429">
        <ele>1715.8</ele>
        <time>2026-07-14T12:34:51Z</time>
      </trkpt>
      <trkpt lat="45.18951" lon="5.96429">
        <ele>1715.8</ele>
        <time>2026-07-14T12:34:52Z</time>
      </trkpt>
      <trkpt lat="45.18951" lon="5.96429">
        <ele>1715.7</ele>
        <time>2026-07-14T12:34:53Z</time>
      </trkpt>
      <trkpt lat="45.1895" lon="5.96429">
        <ele>1715.6</ele>
        <time>2026-07-14T12:34:54Z</time>
      </trkpt>
      <trkpt lat="45.18949" lon="5.96429">
        <ele>1715.5</ele>
        <time>2026-07-14T12:34:55Z</time>
      </trkpt>
      <trkpt lat="45.18948" lon="5.96428">
        <ele>1715.4</ele>
        <time>2026-07-14T12:34:56Z</time>
      </trkpt>
      <trkpt lat="45.18948" lon="5.96428">
        <ele>1715.3</ele>
        <time>2026-07-14T12:34:57Z</time>
      </trkpt>
      <trkpt lat="45.18948" lon="5.96428">
        <ele>1715.3</ele>
        <time>2026-07-14T12:34:58Z</time>
      </trkpt>
      <trkpt lat="45.18947" lon="5.96427">
        <ele>1715.2</ele>
        <time>2026-07-14T12:34:59Z</time>
      </trkpt>
      <trkpt lat="45.18947" lon="5.96426">
        <ele>1715.1</ele>
        <time>2026-07-14T12:35:00Z</time>
      </trkpt>
      <trkpt lat="45.18947" lon="5.96424">
        <ele>1714.9</ele>
        <time>2026-07-14T12:35:01Z</time>
      </trkpt>
      <trkpt lat="45.18946" lon="5.96423">
        <ele>1714.8</ele>
        <time>2026-07-14T12:35:03Z</time>
      </trkpt>
      <trkpt lat="45.18946" lon="5.96423">
        <ele>1714.7</ele>
        <time>2026-07-14T12:35:04Z</time>
      </trkpt>
      <trkpt lat="45.18945" lon="5.96423">
        <ele>1714.6</ele>
        <time>2026-07-14T12:35:05Z</time>
      </trkpt>
      <trkpt lat="45.18945" lon="5.96423">
        <ele>1714.5</ele>
        <time>2026-07-14T12:35:06Z</time>
      </trkpt>
      <trkpt lat="45.18944" lon="5.96423">
        <ele>1714.5</ele>
        <time>2026-07-14T12:35:07Z</time>
      </trkpt>
      <trkpt lat="45.18944" lon="5.96423">
        <ele>1714.4</ele>
        <time>2026-07-14T12:35:08Z</time>
      </trkpt>
      <trkpt lat="45.18943" lon="5.96422">
        <ele>1714.3</ele>
        <time>2026-07-14T12:35:09Z</time>
      </trkpt>
      <trkpt lat="45.18943" lon="5.96421">
        <ele>1714.1</ele>
        <time>2026-07-14T12:35:10Z</time>
      </trkpt>
      <trkpt lat="45.18943" lon="5.96421">
        <ele>1714.1</ele>
        <time>2026-07-14T12:35:12Z</time>
      </trkpt>
      <trkpt lat="45.18943" lon="5.96421">
        <ele>1714.1</ele>
        <time>2026-07-14T12:35:13Z</time>
      </trkpt>
      <trkpt lat="45.18942" lon="5.96421">
        <ele>1714</ele>
        <time>2026-07-14T12:35:14Z</time>
      </trkpt>
      <trkpt lat="45.18942" lon="5.9642">
        <ele>1713.9</ele>
        <time>2026-07-14T12:35:15Z</time>
      </trkpt>
      <trkpt lat="45.18942" lon="5.9642">
        <ele>1713.9</ele>
        <time>2026-07-14T12:35:16Z</time>
      </trkpt>
      <trkpt lat="45.18943" lon="5.9642">
        <ele>1713.8</ele>
        <time>2026-07-14T12:35:17Z</time>
      </trkpt>
      <trkpt lat="45.18943" lon="5.9642">
        <ele>1713.8</ele>
        <time>2026-07-14T12:35:18Z</time>
      </trkpt>
      <trkpt lat="45.18942" lon="5.9642">
        <ele>1713.8</ele>
        <time>2026-07-14T12:35:19Z</time>
      </trkpt>
      <trkpt lat="45.18942" lon="5.9642">
        <ele>1713.8</ele>
        <time>2026-07-14T12:35:20Z</time>
      </trkpt>
      <trkpt lat="45.18942" lon="5.9642">
        <ele>1713.8</ele>
        <time>2026-07-14T12:35:21Z</time>
      </trkpt>
      <trkpt lat="45.18942" lon="5.9642">
        <ele>1713.8</ele>
        <time>2026-07-14T12:35:22Z</time>
      </trkpt>
      <trkpt lat="45.18942" lon="5.9642">
        <ele>1713.8</ele>
        <time>2026-07-14T12:35:23Z</time>
      </trkpt>
      <trkpt lat="45.18942" lon="5.9642">
        <ele>1713.7</ele>
        <time>2026-07-14T12:35:25Z</time>
      </trkpt>
      <trkpt lat="45.18942" lon="5.96419">
        <ele>1713.7</ele>
        <time>2026-07-14T12:35:26Z</time>
      </trkpt>
      <trkpt lat="45.18942" lon="5.96419">
        <ele>1713.6</ele>
        <time>2026-07-14T12:35:27Z</time>
      </trkpt>
      <trkpt lat="45.18942" lon="5.96418">
        <ele>1713.5</ele>
        <time>2026-07-14T12:35:28Z</time>
      </trkpt>
      <trkpt lat="45.18941" lon="5.96416">
        <ele>1713.2</ele>
        <time>2026-07-14T12:35:29Z</time>
      </trkpt>
      <trkpt lat="45.1894" lon="5.96415">
        <ele>1713.1</ele>
        <time>2026-07-14T12:35:30Z</time>
      </trkpt>
      <trkpt lat="45.18939" lon="5.96413">
        <ele>1712.8</ele>
        <time>2026-07-14T12:35:31Z</time>
      </trkpt>
      <trkpt lat="45.18938" lon="5.96412">
        <ele>1712.5</ele>
        <time>2026-07-14T12:35:33Z</time>
      </trkpt>
      <trkpt lat="45.18937" lon="5.96411">
        <ele>1712.3</ele>
        <time>2026-07-14T12:35:35Z</time>
      </trkpt>
      <trkpt lat="45.18936" lon="5.9641">
        <ele>1712.1</ele>
        <time>2026-07-14T12:35:36Z</time>
      </trkpt>
      <trkpt lat="45.18936" lon="5.96408">
        <ele>1711.9</ele>
        <time>2026-07-14T12:35:37Z</time>
      </trkpt>
      <trkpt lat="45.18935" lon="5.96407">
        <ele>1711.6</ele>
        <time>2026-07-14T12:35:38Z</time>
      </trkpt>
      <trkpt lat="45.18935" lon="5.96405">
        <ele>1711.4</ele>
        <time>2026-07-14T12:35:39Z</time>
      </trkpt>
      <trkpt lat="45.18935" lon="5.96403">
        <ele>1711.2</ele>
        <time>2026-07-14T12:35:40Z</time>
      </trkpt>
      <trkpt lat="45.18935" lon="5.96402">
        <ele>1711</ele>
        <time>2026-07-14T12:35:41Z</time>
      </trkpt>
      <trkpt lat="45.18934" lon="5.96399">
        <ele>1710.6</ele>
        <time>2026-07-14T12:35:42Z</time>
      </trkpt>
      <trkpt lat="45.18934" lon="5.96398">
        <ele>1710.5</ele>
        <time>2026-07-14T12:35:44Z</time>
      </trkpt>
      <trkpt lat="45.18934" lon="5.96396">
        <ele>1710.3</ele>
        <time>2026-07-14T12:35:45Z</time>
      </trkpt>
      <trkpt lat="45.18933" lon="5.96395">
        <ele>1710.1</ele>
        <time>2026-07-14T12:35:46Z</time>
      </trkpt>
      <trkpt lat="45.18933" lon="5.96394">
        <ele>1710</ele>
        <time>2026-07-14T12:35:47Z</time>
      </trkpt>
      <trkpt lat="45.18932" lon="5.96393">
        <ele>1709.9</ele>
        <time>2026-07-14T12:35:48Z</time>
      </trkpt>
      <trkpt lat="45.18932" lon="5.96393">
        <ele>1709.8</ele>
        <time>2026-07-14T12:35:49Z</time>
      </trkpt>
      <trkpt lat="45.18932" lon="5.96392">
        <ele>1709.7</ele>
        <time>2026-07-14T12:35:50Z</time>
      </trkpt>
      <trkpt lat="45.18931" lon="5.9639">
        <ele>1709.4</ele>
        <time>2026-07-14T12:35:51Z</time>
      </trkpt>
      <trkpt lat="45.18931" lon="5.96389">
        <ele>1709.3</ele>
        <time>2026-07-14T12:35:53Z</time>
      </trkpt>
      <trkpt lat="45.18931" lon="5.96388">
        <ele>1709.2</ele>
        <time>2026-07-14T12:35:54Z</time>
      </trkpt>
      <trkpt lat="45.18931" lon="5.96387">
        <ele>1709</ele>
        <time>2026-07-14T12:35:55Z</time>
      </trkpt>
      <trkpt lat="45.1893" lon="5.96386">
        <ele>1708.9</ele>
        <time>2026-07-14T12:35:56Z</time>
      </trkpt>
      <trkpt lat="45.1893" lon="5.96385">
        <ele>1708.8</ele>
        <time>2026-07-14T12:35:57Z</time>
      </trkpt>
      <trkpt lat="45.18929" lon="5.96384">
        <ele>1708.6</ele>
        <time>2026-07-14T12:35:58Z</time>
      </trkpt>
      <trkpt lat="45.18929" lon="5.96383">
        <ele>1708.5</ele>
        <time>2026-07-14T12:35:59Z</time>
      </trkpt>
      <trkpt lat="45.18928" lon="5.96382">
        <ele>1708.4</ele>
        <time>2026-07-14T12:36:00Z</time>
      </trkpt>
      <trkpt lat="45.18928" lon="5.96382">
        <ele>1708.2</ele>
        <time>2026-07-14T12:36:01Z</time>
      </trkpt>
      <trkpt lat="45.18927" lon="5.9638">
        <ele>1708</ele>
        <time>2026-07-14T12:36:02Z</time>
      </trkpt>
      <trkpt lat="45.18927" lon="5.9638">
        <ele>1707.9</ele>
        <time>2026-07-14T12:36:03Z</time>
      </trkpt>
      <trkpt lat="45.18926" lon="5.96379">
        <ele>1707.7</ele>
        <time>2026-07-14T12:36:04Z</time>
      </trkpt>
      <trkpt lat="45.18925" lon="5.96378">
        <ele>1707.5</ele>
        <time>2026-07-14T12:36:05Z</time>
      </trkpt>
      <trkpt lat="45.18925" lon="5.96377">
        <ele>1707.4</ele>
        <time>2026-07-14T12:36:06Z</time>
      </trkpt>
      <trkpt lat="45.18925" lon="5.96376">
        <ele>1707.2</ele>
        <time>2026-07-14T12:36:07Z</time>
      </trkpt>
      <trkpt lat="45.18925" lon="5.96374">
        <ele>1706.9</ele>
        <time>2026-07-14T12:36:08Z</time>
      </trkpt>
      <trkpt lat="45.18925" lon="5.96373">
        <ele>1706.7</ele>
        <time>2026-07-14T12:36:09Z</time>
      </trkpt>
      <trkpt lat="45.18924" lon="5.96372">
        <ele>1706.6</ele>
        <time>2026-07-14T12:36:11Z</time>
      </trkpt>
      <trkpt lat="45.18924" lon="5.96371">
        <ele>1706.4</ele>
        <time>2026-07-14T12:36:12Z</time>
      </trkpt>
      <trkpt lat="45.18923" lon="5.96369">
        <ele>1706.2</ele>
        <time>2026-07-14T12:36:13Z</time>
      </trkpt>
      <trkpt lat="45.18924" lon="5.96368">
        <ele>1706.1</ele>
        <time>2026-07-14T12:36:14Z</time>
      </trkpt>
      <trkpt lat="45.18924" lon="5.96367">
        <ele>1705.9</ele>
        <time>2026-07-14T12:36:15Z</time>
      </trkpt>
      <trkpt lat="45.18924" lon="5.96365">
        <ele>1705.6</ele>
        <time>2026-07-14T12:36:16Z</time>
      </trkpt>
      <trkpt lat="45.18925" lon="5.96364">
        <ele>1705.3</ele>
        <time>2026-07-14T12:36:18Z</time>
      </trkpt>
      <trkpt lat="45.18925" lon="5.96363">
        <ele>1705.2</ele>
        <time>2026-07-14T12:36:20Z</time>
      </trkpt>
      <trkpt lat="45.18924" lon="5.96362">
        <ele>1705.1</ele>
        <time>2026-07-14T12:36:21Z</time>
      </trkpt>
      <trkpt lat="45.18923" lon="5.9636">
        <ele>1704.7</ele>
        <time>2026-07-14T12:36:22Z</time>
      </trkpt>
      <trkpt lat="45.18922" lon="5.96359">
        <ele>1704.5</ele>
        <time>2026-07-14T12:36:23Z</time>
      </trkpt>
      <trkpt lat="45.18922" lon="5.96358">
        <ele>1704.3</ele>
        <time>2026-07-14T12:36:25Z</time>
      </trkpt>
      <trkpt lat="45.18921" lon="5.96358">
        <ele>1704.1</ele>
        <time>2026-07-14T12:36:26Z</time>
      </trkpt>
      <trkpt lat="45.18921" lon="5.96357">
        <ele>1704</ele>
        <time>2026-07-14T12:36:27Z</time>
      </trkpt>
      <trkpt lat="45.1892" lon="5.96356">
        <ele>1703.8</ele>
        <time>2026-07-14T12:36:28Z</time>
      </trkpt>
      <trkpt lat="45.1892" lon="5.96355">
        <ele>1703.6</ele>
        <time>2026-07-14T12:36:29Z</time>
      </trkpt>
      <trkpt lat="45.1892" lon="5.96354">
        <ele>1703.4</ele>
        <time>2026-07-14T12:36:30Z</time>
      </trkpt>
      <trkpt lat="45.18919" lon="5.96352">
        <ele>1703.2</ele>
        <time>2026-07-14T12:36:31Z</time>
      </trkpt>
      <trkpt lat="45.18919" lon="5.96351">
        <ele>1703</ele>
        <time>2026-07-14T12:36:32Z</time>
      </trkpt>
      <trkpt lat="45.18919" lon="5.96349">
        <ele>1702.8</ele>
        <time>2026-07-14T12:36:33Z</time>
      </trkpt>
      <trkpt lat="45.18918" lon="5.96348">
        <ele>1702.6</ele>
        <time>2026-07-14T12:36:34Z</time>
      </trkpt>
      <trkpt lat="45.18917" lon="5.96345">
        <ele>1702.2</ele>
        <time>2026-07-14T12:36:35Z</time>
      </trkpt>
      <trkpt lat="45.18917" lon="5.96345">
        <ele>1702</ele>
        <time>2026-07-14T12:36:37Z</time>
      </trkpt>
      <trkpt lat="45.18916" lon="5.96343">
        <ele>1701.8</ele>
        <time>2026-07-14T12:36:38Z</time>
      </trkpt>
      <trkpt lat="45.18915" lon="5.96341">
        <ele>1701.5</ele>
        <time>2026-07-14T12:36:39Z</time>
      </trkpt>
      <trkpt lat="45.18915" lon="5.9634">
        <ele>1701.3</ele>
        <time>2026-07-14T12:36:40Z</time>
      </trkpt>
      <trkpt lat="45.18914" lon="5.96339">
        <ele>1701.1</ele>
        <time>2026-07-14T12:36:42Z</time>
      </trkpt>
      <trkpt lat="45.18913" lon="5.96338">
        <ele>1700.9</ele>
        <time>2026-07-14T12:36:43Z</time>
      </trkpt>
      <trkpt lat="45.18913" lon="5.96337">
        <ele>1700.8</ele>
        <time>2026-07-14T12:36:44Z</time>
      </trkpt>
      <trkpt lat="45.18912" lon="5.96334">
        <ele>1700.5</ele>
        <time>2026-07-14T12:36:45Z</time>
      </trkpt>
      <trkpt lat="45.18913" lon="5.96333">
        <ele>1700.3</ele>
        <time>2026-07-14T12:36:46Z</time>
      </trkpt>
      <trkpt lat="45.18913" lon="5.96331">
        <ele>1700.1</ele>
        <time>2026-07-14T12:36:48Z</time>
      </trkpt>
      <trkpt lat="45.18914" lon="5.9633">
        <ele>1699.9</ele>
        <time>2026-07-14T12:36:50Z</time>
      </trkpt>
      <trkpt lat="45.18914" lon="5.96329">
        <ele>1699.8</ele>
        <time>2026-07-14T12:36:51Z</time>
      </trkpt>
      <trkpt lat="45.18913" lon="5.96328">
        <ele>1699.7</ele>
        <time>2026-07-14T12:36:52Z</time>
      </trkpt>
      <trkpt lat="45.18913" lon="5.96327">
        <ele>1699.6</ele>
        <time>2026-07-14T12:36:53Z</time>
      </trkpt>
      <trkpt lat="45.18912" lon="5.96326">
        <ele>1699.4</ele>
        <time>2026-07-14T12:36:54Z</time>
      </trkpt>
      <trkpt lat="45.18912" lon="5.96325">
        <ele>1699.2</ele>
        <time>2026-07-14T12:36:55Z</time>
      </trkpt>
      <trkpt lat="45.18911" lon="5.96323">
        <ele>1699</ele>
        <time>2026-07-14T12:36:56Z</time>
      </trkpt>
      <trkpt lat="45.18911" lon="5.96322">
        <ele>1698.9</ele>
        <time>2026-07-14T12:36:58Z</time>
      </trkpt>
      <trkpt lat="45.1891" lon="5.96321">
        <ele>1698.7</ele>
        <time>2026-07-14T12:36:59Z</time>
      </trkpt>
      <trkpt lat="45.1891" lon="5.96321">
        <ele>1698.6</ele>
        <time>2026-07-14T12:37:00Z</time>
      </trkpt>
      <trkpt lat="45.18909" lon="5.9632">
        <ele>1698.5</ele>
        <time>2026-07-14T12:37:01Z</time>
      </trkpt>
      <trkpt lat="45.18909" lon="5.96319">
        <ele>1698.4</ele>
        <time>2026-07-14T12:37:02Z</time>
      </trkpt>
      <trkpt lat="45.18908" lon="5.96319">
        <ele>1698.3</ele>
        <time>2026-07-14T12:37:03Z</time>
      </trkpt>
      <trkpt lat="45.18908" lon="5.96318">
        <ele>1698.2</ele>
        <time>2026-07-14T12:37:04Z</time>
      </trkpt>
      <trkpt lat="45.18907" lon="5.96318">
        <ele>1698.1</ele>
        <time>2026-07-14T12:37:05Z</time>
      </trkpt>
      <trkpt lat="45.18907" lon="5.96318">
        <ele>1698</ele>
        <time>2026-07-14T12:37:06Z</time>
      </trkpt>
      <trkpt lat="45.18906" lon="5.96317">
        <ele>1697.9</ele>
        <time>2026-07-14T12:37:07Z</time>
      </trkpt>
      <trkpt lat="45.18906" lon="5.96316">
        <ele>1697.7</ele>
        <time>2026-07-14T12:37:08Z</time>
      </trkpt>
      <trkpt lat="45.18906" lon="5.96315">
        <ele>1697.6</ele>
        <time>2026-07-14T12:37:09Z</time>
      </trkpt>
      <trkpt lat="45.18905" lon="5.96314">
        <ele>1697.5</ele>
        <time>2026-07-14T12:37:10Z</time>
      </trkpt>
      <trkpt lat="45.18904" lon="5.96314">
        <ele>1697.4</ele>
        <time>2026-07-14T12:37:11Z</time>
      </trkpt>
      <trkpt lat="45.18904" lon="5.96313">
        <ele>1697.3</ele>
        <time>2026-07-14T12:37:12Z</time>
      </trkpt>
      <trkpt lat="45.18903" lon="5.96313">
        <ele>1697.2</ele>
        <time>2026-07-14T12:37:13Z</time>
      </trkpt>
      <trkpt lat="45.18903" lon="5.96312">
        <ele>1697</ele>
        <time>2026-07-14T12:37:14Z</time>
      </trkpt>
      <trkpt lat="45.18902" lon="5.96312">
        <ele>1696.9</ele>
        <time>2026-07-14T12:37:15Z</time>
      </trkpt>
      <trkpt lat="45.18902" lon="5.96311">
        <ele>1696.8</ele>
        <time>2026-07-14T12:37:16Z</time>
      </trkpt>
      <trkpt lat="45.18901" lon="5.9631">
        <ele>1696.7</ele>
        <time>2026-07-14T12:37:17Z</time>
      </trkpt>
      <trkpt lat="45.18901" lon="5.96309">
        <ele>1696.6</ele>
        <time>2026-07-14T12:37:18Z</time>
      </trkpt>
      <trkpt lat="45.189" lon="5.96308">
        <ele>1696.5</ele>
        <time>2026-07-14T12:37:19Z</time>
      </trkpt>
      <trkpt lat="45.189" lon="5.96308">
        <ele>1696.4</ele>
        <time>2026-07-14T12:37:20Z</time>
      </trkpt>
      <trkpt lat="45.18899" lon="5.96307">
        <ele>1696.3</ele>
        <time>2026-07-14T12:37:21Z</time>
      </trkpt>
      <trkpt lat="45.18899" lon="5.96306">
        <ele>1696.2</ele>
        <time>2026-07-14T12:37:22Z</time>
      </trkpt>
      <trkpt lat="45.18899" lon="5.96305">
        <ele>1696</ele>
        <time>2026-07-14T12:37:23Z</time>
      </trkpt>
      <trkpt lat="45.18898" lon="5.96304">
        <ele>1695.9</ele>
        <time>2026-07-14T12:37:24Z</time>
      </trkpt>
      <trkpt lat="45.18897" lon="5.96303">
        <ele>1695.8</ele>
        <time>2026-07-14T12:37:26Z</time>
      </trkpt>
      <trkpt lat="45.18897" lon="5.96303">
        <ele>1695.7</ele>
        <time>2026-07-14T12:37:27Z</time>
      </trkpt>
      <trkpt lat="45.18896" lon="5.96302">
        <ele>1695.5</ele>
        <time>2026-07-14T12:37:28Z</time>
      </trkpt>
      <trkpt lat="45.18895" lon="5.96302">
        <ele>1695.4</ele>
        <time>2026-07-14T12:37:29Z</time>
      </trkpt>
      <trkpt lat="45.18895" lon="5.96301">
        <ele>1695.3</ele>
        <time>2026-07-14T12:37:30Z</time>
      </trkpt>
      <trkpt lat="45.18894" lon="5.96301">
        <ele>1695.2</ele>
        <time>2026-07-14T12:37:31Z</time>
      </trkpt>
      <trkpt lat="45.18894" lon="5.96301">
        <ele>1695.2</ele>
        <time>2026-07-14T12:37:32Z</time>
      </trkpt>
      <trkpt lat="45.18893" lon="5.963">
        <ele>1695</ele>
        <time>2026-07-14T12:37:33Z</time>
      </trkpt>
      <trkpt lat="45.18892" lon="5.963">
        <ele>1694.9</ele>
        <time>2026-07-14T12:37:34Z</time>
      </trkpt>
      <trkpt lat="45.18892" lon="5.96299">
        <ele>1694.8</ele>
        <time>2026-07-14T12:37:35Z</time>
      </trkpt>
      <trkpt lat="45.18892" lon="5.96299">
        <ele>1694.7</ele>
        <time>2026-07-14T12:37:36Z</time>
      </trkpt>
      <trkpt lat="45.18891" lon="5.96297">
        <ele>1694.6</ele>
        <time>2026-07-14T12:37:37Z</time>
      </trkpt>
      <trkpt lat="45.1889" lon="5.96297">
        <ele>1694.5</ele>
        <time>2026-07-14T12:37:39Z</time>
      </trkpt>
      <trkpt lat="45.18889" lon="5.96296">
        <ele>1694.3</ele>
        <time>2026-07-14T12:37:40Z</time>
      </trkpt>
      <trkpt lat="45.18889" lon="5.96296">
        <ele>1694.3</ele>
        <time>2026-07-14T12:37:42Z</time>
      </trkpt>
      <trkpt lat="45.18888" lon="5.96295">
        <ele>1694.2</ele>
        <time>2026-07-14T12:37:43Z</time>
      </trkpt>
      <trkpt lat="45.18888" lon="5.96295">
        <ele>1694.1</ele>
        <time>2026-07-14T12:37:44Z</time>
      </trkpt>
      <trkpt lat="45.18887" lon="5.96293">
        <ele>1693.9</ele>
        <time>2026-07-14T12:37:45Z</time>
      </trkpt>
      <trkpt lat="45.18886" lon="5.96292">
        <ele>1693.7</ele>
        <time>2026-07-14T12:37:47Z</time>
      </trkpt>
      <trkpt lat="45.18884" lon="5.96291">
        <ele>1693.5</ele>
        <time>2026-07-14T12:37:48Z</time>
      </trkpt>
      <trkpt lat="45.18884" lon="5.9629">
        <ele>1693.4</ele>
        <time>2026-07-14T12:37:50Z</time>
      </trkpt>
      <trkpt lat="45.18882" lon="5.96288">
        <ele>1693.1</ele>
        <time>2026-07-14T12:37:51Z</time>
      </trkpt>
      <trkpt lat="45.18882" lon="5.96288">
        <ele>1693</ele>
        <time>2026-07-14T12:37:53Z</time>
      </trkpt>
      <trkpt lat="45.18881" lon="5.96287">
        <ele>1692.9</ele>
        <time>2026-07-14T12:37:54Z</time>
      </trkpt>
      <trkpt lat="45.18881" lon="5.96287">
        <ele>1692.9</ele>
        <time>2026-07-14T12:37:55Z</time>
      </trkpt>
      <trkpt lat="45.1888" lon="5.96287">
        <ele>1692.8</ele>
        <time>2026-07-14T12:37:56Z</time>
      </trkpt>
      <trkpt lat="45.1888" lon="5.96285">
        <ele>1692.6</ele>
        <time>2026-07-14T12:37:57Z</time>
      </trkpt>
      <trkpt lat="45.18879" lon="5.96284">
        <ele>1692.5</ele>
        <time>2026-07-14T12:37:59Z</time>
      </trkpt>
      <trkpt lat="45.18879" lon="5.96282">
        <ele>1692.3</ele>
        <time>2026-07-14T12:38:00Z</time>
      </trkpt>
      <trkpt lat="45.18879" lon="5.96281">
        <ele>1692.2</ele>
        <time>2026-07-14T12:38:02Z</time>
      </trkpt>
      <trkpt lat="45.18879" lon="5.9628">
        <ele>1692.1</ele>
        <time>2026-07-14T12:38:03Z</time>
      </trkpt>
      <trkpt lat="45.18879" lon="5.96279">
        <ele>1692.1</ele>
        <time>2026-07-14T12:38:04Z</time>
      </trkpt>
      <trkpt lat="45.18878" lon="5.96279">
        <ele>1692</ele>
        <time>2026-07-14T12:38:05Z</time>
      </trkpt>
      <trkpt lat="45.18878" lon="5.96278">
        <ele>1691.9</ele>
        <time>2026-07-14T12:38:06Z</time>
      </trkpt>
      <trkpt lat="45.18877" lon="5.96277">
        <ele>1691.8</ele>
        <time>2026-07-14T12:38:07Z</time>
      </trkpt>
      <trkpt lat="45.18877" lon="5.96277">
        <ele>1691.8</ele>
        <time>2026-07-14T12:38:08Z</time>
      </trkpt>
      <trkpt lat="45.18877" lon="5.96276">
        <ele>1691.7</ele>
        <time>2026-07-14T12:38:09Z</time>
      </trkpt>
      <trkpt lat="45.18877" lon="5.96276">
        <ele>1691.6</ele>
        <time>2026-07-14T12:38:10Z</time>
      </trkpt>
      <trkpt lat="45.18876" lon="5.96273">
        <ele>1691.4</ele>
        <time>2026-07-14T12:38:11Z</time>
      </trkpt>
      <trkpt lat="45.18875" lon="5.96272">
        <ele>1691.2</ele>
        <time>2026-07-14T12:38:13Z</time>
      </trkpt>
      <trkpt lat="45.18874" lon="5.96271">
        <ele>1691.2</ele>
        <time>2026-07-14T12:38:15Z</time>
      </trkpt>
      <trkpt lat="45.18874" lon="5.96271">
        <ele>1691.1</ele>
        <time>2026-07-14T12:38:16Z</time>
      </trkpt>
      <trkpt lat="45.18874" lon="5.9627">
        <ele>1691</ele>
        <time>2026-07-14T12:38:17Z</time>
      </trkpt>
      <trkpt lat="45.18873" lon="5.96269">
        <ele>1691</ele>
        <time>2026-07-14T12:38:18Z</time>
      </trkpt>
      <trkpt lat="45.18873" lon="5.96269">
        <ele>1690.9</ele>
        <time>2026-07-14T12:38:19Z</time>
      </trkpt>
      <trkpt lat="45.18872" lon="5.96267">
        <ele>1690.7</ele>
        <time>2026-07-14T12:38:20Z</time>
      </trkpt>
      <trkpt lat="45.18872" lon="5.96265">
        <ele>1690.6</ele>
        <time>2026-07-14T12:38:22Z</time>
      </trkpt>
      <trkpt lat="45.18872" lon="5.96264">
        <ele>1690.5</ele>
        <time>2026-07-14T12:38:24Z</time>
      </trkpt>
      <trkpt lat="45.18871" lon="5.96261">
        <ele>1690.4</ele>
        <time>2026-07-14T12:38:25Z</time>
      </trkpt>
      <trkpt lat="45.18871" lon="5.9626">
        <ele>1690.3</ele>
        <time>2026-07-14T12:38:27Z</time>
      </trkpt>
      <trkpt lat="45.18871" lon="5.96259">
        <ele>1690.2</ele>
        <time>2026-07-14T12:38:28Z</time>
      </trkpt>
      <trkpt lat="45.1887" lon="5.96258">
        <ele>1690.2</ele>
        <time>2026-07-14T12:38:29Z</time>
      </trkpt>
      <trkpt lat="45.1887" lon="5.96257">
        <ele>1690.1</ele>
        <time>2026-07-14T12:38:30Z</time>
      </trkpt>
      <trkpt lat="45.18869" lon="5.96256">
        <ele>1690.1</ele>
        <time>2026-07-14T12:38:31Z</time>
      </trkpt>
      <trkpt lat="45.18869" lon="5.96256">
        <ele>1690</ele>
        <time>2026-07-14T12:38:32Z</time>
      </trkpt>
      <trkpt lat="45.18868" lon="5.96256">
        <ele>1690</ele>
        <time>2026-07-14T12:38:33Z</time>
      </trkpt>
      <trkpt lat="45.18868" lon="5.96255">
        <ele>1690</ele>
        <time>2026-07-14T12:38:34Z</time>
      </trkpt>
      <trkpt lat="45.18867" lon="5.96255">
        <ele>1689.9</ele>
        <time>2026-07-14T12:38:35Z</time>
      </trkpt>
      <trkpt lat="45.18867" lon="5.96254">
        <ele>1689.8</ele>
        <time>2026-07-14T12:38:36Z</time>
      </trkpt>
      <trkpt lat="45.18866" lon="5.96253">
        <ele>1689.8</ele>
        <time>2026-07-14T12:38:37Z</time>
      </trkpt>
      <trkpt lat="45.18865" lon="5.96253">
        <ele>1689.8</ele>
        <time>2026-07-14T12:38:38Z</time>
      </trkpt>
      <trkpt lat="45.18864" lon="5.96252">
        <ele>1689.7</ele>
        <time>2026-07-14T12:38:39Z</time>
      </trkpt>
      <trkpt lat="45.18864" lon="5.96251">
        <ele>1689.7</ele>
        <time>2026-07-14T12:38:41Z</time>
      </trkpt>
      <trkpt lat="45.18863" lon="5.9625">
        <ele>1689.6</ele>
        <time>2026-07-14T12:38:42Z</time>
      </trkpt>
      <trkpt lat="45.18863" lon="5.96249">
        <ele>1689.6</ele>
        <time>2026-07-14T12:38:43Z</time>
      </trkpt>
      <trkpt lat="45.18862" lon="5.96248">
        <ele>1689.6</ele>
        <time>2026-07-14T12:38:44Z</time>
      </trkpt>
      <trkpt lat="45.18862" lon="5.96247">
        <ele>1689.5</ele>
        <time>2026-07-14T12:38:45Z</time>
      </trkpt>
      <trkpt lat="45.18862" lon="5.96247">
        <ele>1689.5</ele>
        <time>2026-07-14T12:38:46Z</time>
      </trkpt>
      <trkpt lat="45.18861" lon="5.96246">
        <ele>1689.5</ele>
        <time>2026-07-14T12:38:47Z</time>
      </trkpt>
      <trkpt lat="45.18861" lon="5.96244">
        <ele>1689.5</ele>
        <time>2026-07-14T12:38:48Z</time>
      </trkpt>
      <trkpt lat="45.18861" lon="5.96243">
        <ele>1689.4</ele>
        <time>2026-07-14T12:38:49Z</time>
      </trkpt>
      <trkpt lat="45.1886" lon="5.96242">
        <ele>1689.4</ele>
        <time>2026-07-14T12:38:50Z</time>
      </trkpt>
      <trkpt lat="45.18859" lon="5.96241">
        <ele>1689.4</ele>
        <time>2026-07-14T12:38:51Z</time>
      </trkpt>
      <trkpt lat="45.18858" lon="5.96241">
        <ele>1689.4</ele>
        <time>2026-07-14T12:38:52Z</time>
      </trkpt>
      <trkpt lat="45.18858" lon="5.96238">
        <ele>1689.3</ele>
        <time>2026-07-14T12:38:54Z</time>
      </trkpt>
      <trkpt lat="45.18858" lon="5.96237">
        <ele>1689.3</ele>
        <time>2026-07-14T12:38:56Z</time>
      </trkpt>
      <trkpt lat="45.18857" lon="5.96234">
        <ele>1689.3</ele>
        <time>2026-07-14T12:38:57Z</time>
      </trkpt>
      <trkpt lat="45.18857" lon="5.96232">
        <ele>1689.3</ele>
        <time>2026-07-14T12:38:59Z</time>
      </trkpt>
      <trkpt lat="45.18856" lon="5.9623">
        <ele>1689.3</ele>
        <time>2026-07-14T12:39:00Z</time>
      </trkpt>
      <trkpt lat="45.18855" lon="5.96229">
        <ele>1689.3</ele>
        <time>2026-07-14T12:39:02Z</time>
      </trkpt>
      <trkpt lat="45.18854" lon="5.96228">
        <ele>1689.3</ele>
        <time>2026-07-14T12:39:03Z</time>
      </trkpt>
      <trkpt lat="45.18854" lon="5.96228">
        <ele>1689.3</ele>
        <time>2026-07-14T12:39:04Z</time>
      </trkpt>
      <trkpt lat="45.18853" lon="5.96227">
        <ele>1689.3</ele>
        <time>2026-07-14T12:39:05Z</time>
      </trkpt>
      <trkpt lat="45.18853" lon="5.96226">
        <ele>1689.3</ele>
        <time>2026-07-14T12:39:06Z</time>
      </trkpt>
      <trkpt lat="45.18853" lon="5.96225">
        <ele>1689.3</ele>
        <time>2026-07-14T12:39:07Z</time>
      </trkpt>
      <trkpt lat="45.18852" lon="5.96224">
        <ele>1689.3</ele>
        <time>2026-07-14T12:39:08Z</time>
      </trkpt>
      <trkpt lat="45.18852" lon="5.96223">
        <ele>1689.3</ele>
        <time>2026-07-14T12:39:09Z</time>
      </trkpt>
      <trkpt lat="45.18852" lon="5.96222">
        <ele>1689.3</ele>
        <time>2026-07-14T12:39:10Z</time>
      </trkpt>
      <trkpt lat="45.18851" lon="5.96221">
        <ele>1689.3</ele>
        <time>2026-07-14T12:39:11Z</time>
      </trkpt>
      <trkpt lat="45.1885" lon="5.9622">
        <ele>1689.3</ele>
        <time>2026-07-14T12:39:12Z</time>
      </trkpt>
      <trkpt lat="45.18849" lon="5.96218">
        <ele>1689.4</ele>
        <time>2026-07-14T12:39:13Z</time>
      </trkpt>
      <trkpt lat="45.18848" lon="5.96217">
        <ele>1689.4</ele>
        <time>2026-07-14T12:39:15Z</time>
      </trkpt>
      <trkpt lat="45.18848" lon="5.96216">
        <ele>1689.4</ele>
        <time>2026-07-14T12:39:16Z</time>
      </trkpt>
      <trkpt lat="45.18847" lon="5.96215">
        <ele>1689.5</ele>
        <time>2026-07-14T12:39:17Z</time>
      </trkpt>
      <trkpt lat="45.18847" lon="5.96214">
        <ele>1689.5</ele>
        <time>2026-07-14T12:39:18Z</time>
      </trkpt>
      <trkpt lat="45.18845" lon="5.96212">
        <ele>1689.5</ele>
        <time>2026-07-14T12:39:19Z</time>
      </trkpt>
      <trkpt lat="45.18845" lon="5.96211">
        <ele>1689.6</ele>
        <time>2026-07-14T12:39:21Z</time>
      </trkpt>
      <trkpt lat="45.18844" lon="5.9621">
        <ele>1689.6</ele>
        <time>2026-07-14T12:39:22Z</time>
      </trkpt>
      <trkpt lat="45.18844" lon="5.96209">
        <ele>1689.6</ele>
        <time>2026-07-14T12:39:23Z</time>
      </trkpt>
      <trkpt lat="45.18843" lon="5.96207">
        <ele>1689.6</ele>
        <time>2026-07-14T12:39:24Z</time>
      </trkpt>
      <trkpt lat="45.18842" lon="5.96206">
        <ele>1689.6</ele>
        <time>2026-07-14T12:39:26Z</time>
      </trkpt>
      <trkpt lat="45.18841" lon="5.96205">
        <ele>1689.7</ele>
        <time>2026-07-14T12:39:27Z</time>
      </trkpt>
      <trkpt lat="45.18841" lon="5.96204">
        <ele>1689.7</ele>
        <time>2026-07-14T12:39:28Z</time>
      </trkpt>
      <trkpt lat="45.1884" lon="5.96203">
        <ele>1689.7</ele>
        <time>2026-07-14T12:39:29Z</time>
      </trkpt>
      <trkpt lat="45.1884" lon="5.96202">
        <ele>1689.7</ele>
        <time>2026-07-14T12:39:30Z</time>
      </trkpt>
      <trkpt lat="45.18839" lon="5.96201">
        <ele>1689.7</ele>
        <time>2026-07-14T12:39:31Z</time>
      </trkpt>
      <trkpt lat="45.18839" lon="5.96199">
        <ele>1689.7</ele>
        <time>2026-07-14T12:39:32Z</time>
      </trkpt>
      <trkpt lat="45.18839" lon="5.96198">
        <ele>1689.6</ele>
        <time>2026-07-14T12:39:33Z</time>
      </trkpt>
      <trkpt lat="45.18838" lon="5.96197">
        <ele>1689.6</ele>
        <time>2026-07-14T12:39:34Z</time>
      </trkpt>
      <trkpt lat="45.18838" lon="5.96196">
        <ele>1689.6</ele>
        <time>2026-07-14T12:39:35Z</time>
      </trkpt>
      <trkpt lat="45.18837" lon="5.96195">
        <ele>1689.6</ele>
        <time>2026-07-14T12:39:36Z</time>
      </trkpt>
      <trkpt lat="45.18837" lon="5.96195">
        <ele>1689.6</ele>
        <time>2026-07-14T12:39:37Z</time>
      </trkpt>
      <trkpt lat="45.18836" lon="5.96194">
        <ele>1689.5</ele>
        <time>2026-07-14T12:39:38Z</time>
      </trkpt>
      <trkpt lat="45.18836" lon="5.96193">
        <ele>1689.5</ele>
        <time>2026-07-14T12:39:39Z</time>
      </trkpt>
      <trkpt lat="45.18836" lon="5.96192">
        <ele>1689.5</ele>
        <time>2026-07-14T12:39:40Z</time>
      </trkpt>
      <trkpt lat="45.18835" lon="5.96192">
        <ele>1689.5</ele>
        <time>2026-07-14T12:39:41Z</time>
      </trkpt>
      <trkpt lat="45.18834" lon="5.96191">
        <ele>1689.4</ele>
        <time>2026-07-14T12:39:42Z</time>
      </trkpt>
      <trkpt lat="45.18833" lon="5.96191">
        <ele>1689.4</ele>
        <time>2026-07-14T12:39:43Z</time>
      </trkpt>
      <trkpt lat="45.18832" lon="5.96191">
        <ele>1689.3</ele>
        <time>2026-07-14T12:39:45Z</time>
      </trkpt>
      <trkpt lat="45.18831" lon="5.96191">
        <ele>1689.3</ele>
        <time>2026-07-14T12:39:46Z</time>
      </trkpt>
      <trkpt lat="45.18829" lon="5.96191">
        <ele>1689.2</ele>
        <time>2026-07-14T12:39:47Z</time>
      </trkpt>
      <trkpt lat="45.18828" lon="5.96191">
        <ele>1689.1</ele>
        <time>2026-07-14T12:39:49Z</time>
      </trkpt>
      <trkpt lat="45.18828" lon="5.9619">
        <ele>1689</ele>
        <time>2026-07-14T12:39:50Z</time>
      </trkpt>
      <trkpt lat="45.18826" lon="5.9619">
        <ele>1688.9</ele>
        <time>2026-07-14T12:39:51Z</time>
      </trkpt>
      <trkpt lat="45.18826" lon="5.9619">
        <ele>1688.9</ele>
        <time>2026-07-14T12:39:52Z</time>
      </trkpt>
      <trkpt lat="45.18825" lon="5.9619">
        <ele>1688.8</ele>
        <time>2026-07-14T12:39:53Z</time>
      </trkpt>
      <trkpt lat="45.18824" lon="5.96191">
        <ele>1688.8</ele>
        <time>2026-07-14T12:39:54Z</time>
      </trkpt>
      <trkpt lat="45.18823" lon="5.96191">
        <ele>1688.7</ele>
        <time>2026-07-14T12:39:55Z</time>
      </trkpt>
      <trkpt lat="45.18822" lon="5.96191">
        <ele>1688.6</ele>
        <time>2026-07-14T12:39:56Z</time>
      </trkpt>
      <trkpt lat="45.18821" lon="5.96191">
        <ele>1688.5</ele>
        <time>2026-07-14T12:39:57Z</time>
      </trkpt>
      <trkpt lat="45.18821" lon="5.96191">
        <ele>1688.5</ele>
        <time>2026-07-14T12:39:58Z</time>
      </trkpt>
      <trkpt lat="45.18819" lon="5.96192">
        <ele>1688.3</ele>
        <time>2026-07-14T12:39:59Z</time>
      </trkpt>
      <trkpt lat="45.18818" lon="5.96192">
        <ele>1688.2</ele>
        <time>2026-07-14T12:40:01Z</time>
      </trkpt>
      <trkpt lat="45.18818" lon="5.96193">
        <ele>1688.2</ele>
        <time>2026-07-14T12:40:02Z</time>
      </trkpt>
      <trkpt lat="45.18817" lon="5.96193">
        <ele>1688.1</ele>
        <time>2026-07-14T12:40:03Z</time>
      </trkpt>
      <trkpt lat="45.18816" lon="5.96194">
        <ele>1688</ele>
        <time>2026-07-14T12:40:04Z</time>
      </trkpt>
      <trkpt lat="45.18815" lon="5.96194">
        <ele>1687.9</ele>
        <time>2026-07-14T12:40:05Z</time>
      </trkpt>
      <trkpt lat="45.18815" lon="5.96195">
        <ele>1687.8</ele>
        <time>2026-07-14T12:40:06Z</time>
      </trkpt>
      <trkpt lat="45.18813" lon="5.96195">
        <ele>1687.6</ele>
        <time>2026-07-14T12:40:07Z</time>
      </trkpt>
      <trkpt lat="45.18812" lon="5.96195">
        <ele>1687.5</ele>
        <time>2026-07-14T12:40:09Z</time>
      </trkpt>
      <trkpt lat="45.18811" lon="5.96195">
        <ele>1687.3</ele>
        <time>2026-07-14T12:40:10Z</time>
      </trkpt>
      <trkpt lat="45.1881" lon="5.96196">
        <ele>1687.2</ele>
        <time>2026-07-14T12:40:11Z</time>
      </trkpt>
      <trkpt lat="45.18809" lon="5.96196">
        <ele>1687.1</ele>
        <time>2026-07-14T12:40:12Z</time>
      </trkpt>
      <trkpt lat="45.18809" lon="5.96196">
        <ele>1687</ele>
        <time>2026-07-14T12:40:13Z</time>
      </trkpt>
      <trkpt lat="45.18808" lon="5.96196">
        <ele>1686.8</ele>
        <time>2026-07-14T12:40:14Z</time>
      </trkpt>
      <trkpt lat="45.18806" lon="5.96196">
        <ele>1686.6</ele>
        <time>2026-07-14T12:40:15Z</time>
      </trkpt>
      <trkpt lat="45.18805" lon="5.96196">
        <ele>1686.4</ele>
        <time>2026-07-14T12:40:17Z</time>
      </trkpt>
      <trkpt lat="45.18804" lon="5.96196">
        <ele>1686.3</ele>
        <time>2026-07-14T12:40:18Z</time>
      </trkpt>
      <trkpt lat="45.18803" lon="5.96196">
        <ele>1686.2</ele>
        <time>2026-07-14T12:40:19Z</time>
      </trkpt>
      <trkpt lat="45.18802" lon="5.96196">
        <ele>1686.1</ele>
        <time>2026-07-14T12:40:20Z</time>
      </trkpt>
      <trkpt lat="45.18802" lon="5.96196">
        <ele>1686</ele>
        <time>2026-07-14T12:40:21Z</time>
      </trkpt>
      <trkpt lat="45.18801" lon="5.96196">
        <ele>1685.9</ele>
        <time>2026-07-14T12:40:22Z</time>
      </trkpt>
      <trkpt lat="45.188" lon="5.96196">
        <ele>1685.7</ele>
        <time>2026-07-14T12:40:23Z</time>
      </trkpt>
      <trkpt lat="45.188" lon="5.96197">
        <ele>1685.6</ele>
        <time>2026-07-14T12:40:24Z</time>
      </trkpt>
      <trkpt lat="45.18798" lon="5.96196">
        <ele>1685.4</ele>
        <time>2026-07-14T12:40:25Z</time>
      </trkpt>
      <trkpt lat="45.18798" lon="5.96196">
        <ele>1685.3</ele>
        <time>2026-07-14T12:40:26Z</time>
      </trkpt>
      <trkpt lat="45.18797" lon="5.96194">
        <ele>1685.1</ele>
        <time>2026-07-14T12:40:28Z</time>
      </trkpt>
      <trkpt lat="45.18796" lon="5.96194">
        <ele>1685</ele>
        <time>2026-07-14T12:40:30Z</time>
      </trkpt>
      <trkpt lat="45.18795" lon="5.96193">
        <ele>1684.9</ele>
        <time>2026-07-14T12:40:31Z</time>
      </trkpt>
      <trkpt lat="45.18794" lon="5.96193">
        <ele>1684.8</ele>
        <time>2026-07-14T12:40:32Z</time>
      </trkpt>
      <trkpt lat="45.18792" lon="5.96192">
        <ele>1684.5</ele>
        <time>2026-07-14T12:40:33Z</time>
      </trkpt>
      <trkpt lat="45.18792" lon="5.96192">
        <ele>1684.4</ele>
        <time>2026-07-14T12:40:35Z</time>
      </trkpt>
      <trkpt lat="45.18791" lon="5.96191">
        <ele>1684.3</ele>
        <time>2026-07-14T12:40:36Z</time>
      </trkpt>
      <trkpt lat="45.1879" lon="5.9619">
        <ele>1684.2</ele>
        <time>2026-07-14T12:40:37Z</time>
      </trkpt>
      <trkpt lat="45.18789" lon="5.96189">
        <ele>1684</ele>
        <time>2026-07-14T12:40:38Z</time>
      </trkpt>
      <trkpt lat="45.18789" lon="5.96188">
        <ele>1684</ele>
        <time>2026-07-14T12:40:39Z</time>
      </trkpt>
      <trkpt lat="45.18788" lon="5.96188">
        <ele>1683.9</ele>
        <time>2026-07-14T12:40:40Z</time>
      </trkpt>
      <trkpt lat="45.18787" lon="5.96187">
        <ele>1683.7</ele>
        <time>2026-07-14T12:40:41Z</time>
      </trkpt>
      <trkpt lat="45.18786" lon="5.96186">
        <ele>1683.7</ele>
        <time>2026-07-14T12:40:43Z</time>
      </trkpt>
      <trkpt lat="45.18786" lon="5.96186">
        <ele>1683.6</ele>
        <time>2026-07-14T12:40:44Z</time>
      </trkpt>
      <trkpt lat="45.18785" lon="5.96186">
        <ele>1683.5</ele>
        <time>2026-07-14T12:40:45Z</time>
      </trkpt>
      <trkpt lat="45.18784" lon="5.96186">
        <ele>1683.4</ele>
        <time>2026-07-14T12:40:46Z</time>
      </trkpt>
      <trkpt lat="45.18782" lon="5.96185">
        <ele>1683.3</ele>
        <time>2026-07-14T12:40:47Z</time>
      </trkpt>
      <trkpt lat="45.18781" lon="5.96185">
        <ele>1683.2</ele>
        <time>2026-07-14T12:40:49Z</time>
      </trkpt>
      <trkpt lat="45.1878" lon="5.96185">
        <ele>1683.1</ele>
        <time>2026-07-14T12:40:50Z</time>
      </trkpt>
      <trkpt lat="45.18779" lon="5.96185">
        <ele>1683.1</ele>
        <time>2026-07-14T12:40:51Z</time>
      </trkpt>
      <trkpt lat="45.18777" lon="5.96184">
        <ele>1683</ele>
        <time>2026-07-14T12:40:52Z</time>
      </trkpt>
      <trkpt lat="45.18777" lon="5.96184">
        <ele>1682.9</ele>
        <time>2026-07-14T12:40:54Z</time>
      </trkpt>
      <trkpt lat="45.18775" lon="5.96184">
        <ele>1682.9</ele>
        <time>2026-07-14T12:40:55Z</time>
      </trkpt>
      <trkpt lat="45.18775" lon="5.96183">
        <ele>1682.8</ele>
        <time>2026-07-14T12:40:56Z</time>
      </trkpt>
      <trkpt lat="45.18774" lon="5.96182">
        <ele>1682.8</ele>
        <time>2026-07-14T12:40:57Z</time>
      </trkpt>
      <trkpt lat="45.18773" lon="5.9618">
        <ele>1682.7</ele>
        <time>2026-07-14T12:40:58Z</time>
      </trkpt>
      <trkpt lat="45.18773" lon="5.96179">
        <ele>1682.7</ele>
        <time>2026-07-14T12:41:00Z</time>
      </trkpt>
      <trkpt lat="45.18773" lon="5.96177">
        <ele>1682.6</ele>
        <time>2026-07-14T12:41:01Z</time>
      </trkpt>
      <trkpt lat="45.18772" lon="5.96176">
        <ele>1682.6</ele>
        <time>2026-07-14T12:41:03Z</time>
      </trkpt>
      <trkpt lat="45.18772" lon="5.96175">
        <ele>1682.6</ele>
        <time>2026-07-14T12:41:04Z</time>
      </trkpt>
      <trkpt lat="45.18771" lon="5.96175">
        <ele>1682.5</ele>
        <time>2026-07-14T12:41:05Z</time>
      </trkpt>
      <trkpt lat="45.1877" lon="5.96174">
        <ele>1682.5</ele>
        <time>2026-07-14T12:41:06Z</time>
      </trkpt>
      <trkpt lat="45.1877" lon="5.96173">
        <ele>1682.5</ele>
        <time>2026-07-14T12:41:07Z</time>
      </trkpt>
      <trkpt lat="45.18769" lon="5.96172">
        <ele>1682.4</ele>
        <time>2026-07-14T12:41:08Z</time>
      </trkpt>
      <trkpt lat="45.18768" lon="5.96172">
        <ele>1682.4</ele>
        <time>2026-07-14T12:41:09Z</time>
      </trkpt>
      <trkpt lat="45.18767" lon="5.96172">
        <ele>1682.3</ele>
        <time>2026-07-14T12:41:10Z</time>
      </trkpt>
      <trkpt lat="45.18766" lon="5.96172">
        <ele>1682.2</ele>
        <time>2026-07-14T12:41:12Z</time>
      </trkpt>
      <trkpt lat="45.18766" lon="5.96171">
        <ele>1682.2</ele>
        <time>2026-07-14T12:41:13Z</time>
      </trkpt>
      <trkpt lat="45.18765" lon="5.96171">
        <ele>1682.1</ele>
        <time>2026-07-14T12:41:14Z</time>
      </trkpt>
      <trkpt lat="45.18765" lon="5.9617">
        <ele>1682.1</ele>
        <time>2026-07-14T12:41:15Z</time>
      </trkpt>
      <trkpt lat="45.18764" lon="5.9617">
        <ele>1682.1</ele>
        <time>2026-07-14T12:41:16Z</time>
      </trkpt>
      <trkpt lat="45.18764" lon="5.9617">
        <ele>1682</ele>
        <time>2026-07-14T12:41:17Z</time>
      </trkpt>
      <trkpt lat="45.18763" lon="5.96169">
        <ele>1681.9</ele>
        <time>2026-07-14T12:41:18Z</time>
      </trkpt>
      <trkpt lat="45.18763" lon="5.96169">
        <ele>1681.9</ele>
        <time>2026-07-14T12:41:19Z</time>
      </trkpt>
      <trkpt lat="45.18762" lon="5.96168">
        <ele>1681.8</ele>
        <time>2026-07-14T12:41:20Z</time>
      </trkpt>
      <trkpt lat="45.18762" lon="5.96168">
        <ele>1681.8</ele>
        <time>2026-07-14T12:41:21Z</time>
      </trkpt>
      <trkpt lat="45.18761" lon="5.96168">
        <ele>1681.7</ele>
        <time>2026-07-14T12:41:22Z</time>
      </trkpt>
      <trkpt lat="45.18761" lon="5.96168">
        <ele>1681.7</ele>
        <time>2026-07-14T12:41:23Z</time>
      </trkpt>
      <trkpt lat="45.18761" lon="5.96168">
        <ele>1681.7</ele>
        <time>2026-07-14T12:41:24Z</time>
      </trkpt>
      <trkpt lat="45.18761" lon="5.96167">
        <ele>1681.7</ele>
        <time>2026-07-14T12:41:25Z</time>
      </trkpt>
      <trkpt lat="45.18761" lon="5.96167">
        <ele>1681.6</ele>
        <time>2026-07-14T12:41:26Z</time>
      </trkpt>
      <trkpt lat="45.18761" lon="5.96167">
        <ele>1681.6</ele>
        <time>2026-07-14T12:41:27Z</time>
      </trkpt>
      <trkpt lat="45.1876" lon="5.96166">
        <ele>1681.5</ele>
        <time>2026-07-14T12:41:28Z</time>
      </trkpt>
      <trkpt lat="45.1876" lon="5.96165">
        <ele>1681.4</ele>
        <time>2026-07-14T12:41:29Z</time>
      </trkpt>
      <trkpt lat="45.18759" lon="5.96164">
        <ele>1681.3</ele>
        <time>2026-07-14T12:41:30Z</time>
      </trkpt>
      <trkpt lat="45.18758" lon="5.96164">
        <ele>1681.1</ele>
        <time>2026-07-14T12:41:31Z</time>
      </trkpt>
      <trkpt lat="45.18757" lon="5.96164">
        <ele>1681</ele>
        <time>2026-07-14T12:41:33Z</time>
      </trkpt>
      <trkpt lat="45.18757" lon="5.96163">
        <ele>1680.9</ele>
        <time>2026-07-14T12:41:34Z</time>
      </trkpt>
      <trkpt lat="45.18756" lon="5.96163">
        <ele>1680.8</ele>
        <time>2026-07-14T12:41:35Z</time>
      </trkpt>
      <trkpt lat="45.18755" lon="5.96162">
        <ele>1680.6</ele>
        <time>2026-07-14T12:41:36Z</time>
      </trkpt>
      <trkpt lat="45.18754" lon="5.96161">
        <ele>1680.4</ele>
        <time>2026-07-14T12:41:38Z</time>
      </trkpt>
      <trkpt lat="45.18754" lon="5.9616">
        <ele>1680.4</ele>
        <time>2026-07-14T12:41:39Z</time>
      </trkpt>
      <trkpt lat="45.18753" lon="5.96159">
        <ele>1680.1</ele>
        <time>2026-07-14T12:41:40Z</time>
      </trkpt>
      <trkpt lat="45.18752" lon="5.96158">
        <ele>1680</ele>
        <time>2026-07-14T12:41:42Z</time>
      </trkpt>
      <trkpt lat="45.18751" lon="5.96158">
        <ele>1679.7</ele>
        <time>2026-07-14T12:41:43Z</time>
      </trkpt>
      <trkpt lat="45.18749" lon="5.96159">
        <ele>1679.4</ele>
        <time>2026-07-14T12:41:45Z</time>
      </trkpt>
      <trkpt lat="45.18748" lon="5.96159">
        <ele>1679.2</ele>
        <time>2026-07-14T12:41:47Z</time>
      </trkpt>
      <trkpt lat="45.18747" lon="5.96159">
        <ele>1679.1</ele>
        <time>2026-07-14T12:41:48Z</time>
      </trkpt>
      <trkpt lat="45.18746" lon="5.96159">
        <ele>1678.9</ele>
        <time>2026-07-14T12:41:49Z</time>
      </trkpt>
      <trkpt lat="45.18745" lon="5.9616">
        <ele>1678.7</ele>
        <time>2026-07-14T12:41:50Z</time>
      </trkpt>
      <trkpt lat="45.18745" lon="5.9616">
        <ele>1678.6</ele>
        <time>2026-07-14T12:41:51Z</time>
      </trkpt>
      <trkpt lat="45.18744" lon="5.96159">
        <ele>1678.5</ele>
        <time>2026-07-14T12:41:52Z</time>
      </trkpt>
      <trkpt lat="45.18743" lon="5.96159">
        <ele>1678.4</ele>
        <time>2026-07-14T12:41:53Z</time>
      </trkpt>
      <trkpt lat="45.18742" lon="5.96159">
        <ele>1678.2</ele>
        <time>2026-07-14T12:41:54Z</time>
      </trkpt>
      <trkpt lat="45.18742" lon="5.96158">
        <ele>1678.1</ele>
        <time>2026-07-14T12:41:55Z</time>
      </trkpt>
      <trkpt lat="45.18741" lon="5.96158">
        <ele>1678</ele>
        <time>2026-07-14T12:41:56Z</time>
      </trkpt>
      <trkpt lat="45.18739" lon="5.96157">
        <ele>1677.7</ele>
        <time>2026-07-14T12:41:57Z</time>
      </trkpt>
      <trkpt lat="45.18739" lon="5.96156">
        <ele>1677.5</ele>
        <time>2026-07-14T12:41:59Z</time>
      </trkpt>
      <trkpt lat="45.18738" lon="5.96156">
        <ele>1677.4</ele>
        <time>2026-07-14T12:42:00Z</time>
      </trkpt>
      <trkpt lat="45.18737" lon="5.96156">
        <ele>1677.2</ele>
        <time>2026-07-14T12:42:01Z</time>
      </trkpt>
      <trkpt lat="45.18736" lon="5.96156">
        <ele>1677.1</ele>
        <time>2026-07-14T12:42:02Z</time>
      </trkpt>
      <trkpt lat="45.18735" lon="5.96156">
        <ele>1676.9</ele>
        <time>2026-07-14T12:42:03Z</time>
      </trkpt>
      <trkpt lat="45.18734" lon="5.96155">
        <ele>1676.8</ele>
        <time>2026-07-14T12:42:04Z</time>
      </trkpt>
      <trkpt lat="45.18733" lon="5.96155">
        <ele>1676.7</ele>
        <time>2026-07-14T12:42:05Z</time>
      </trkpt>
      <trkpt lat="45.18731" lon="5.96155">
        <ele>1676.6</ele>
        <time>2026-07-14T12:42:06Z</time>
      </trkpt>
      <trkpt lat="45.18731" lon="5.96155">
        <ele>1676.5</ele>
        <time>2026-07-14T12:42:07Z</time>
      </trkpt>
      <trkpt lat="45.1873" lon="5.96154">
        <ele>1676.4</ele>
        <time>2026-07-14T12:42:08Z</time>
      </trkpt>
      <trkpt lat="45.18729" lon="5.96153">
        <ele>1676.3</ele>
        <time>2026-07-14T12:42:09Z</time>
      </trkpt>
      <trkpt lat="45.18728" lon="5.96152">
        <ele>1676.2</ele>
        <time>2026-07-14T12:42:10Z</time>
      </trkpt>
      <trkpt lat="45.18727" lon="5.96152">
        <ele>1676.1</ele>
        <time>2026-07-14T12:42:11Z</time>
      </trkpt>
      <trkpt lat="45.18726" lon="5.96153">
        <ele>1676.1</ele>
        <time>2026-07-14T12:42:12Z</time>
      </trkpt>
      <trkpt lat="45.18726" lon="5.96153">
        <ele>1676</ele>
        <time>2026-07-14T12:42:13Z</time>
      </trkpt>
      <trkpt lat="45.18725" lon="5.96153">
        <ele>1676</ele>
        <time>2026-07-14T12:42:14Z</time>
      </trkpt>
      <trkpt lat="45.18723" lon="5.96153">
        <ele>1675.9</ele>
        <time>2026-07-14T12:42:15Z</time>
      </trkpt>
      <trkpt lat="45.18723" lon="5.96152">
        <ele>1675.9</ele>
        <time>2026-07-14T12:42:17Z</time>
      </trkpt>
      <trkpt lat="45.18723" lon="5.9615">
        <ele>1675.9</ele>
        <time>2026-07-14T12:42:18Z</time>
      </trkpt>
      <trkpt lat="45.18721" lon="5.96151">
        <ele>1675.8</ele>
        <time>2026-07-14T12:42:19Z</time>
      </trkpt>
      <trkpt lat="45.18721" lon="5.96152">
        <ele>1675.8</ele>
        <time>2026-07-14T12:42:20Z</time>
      </trkpt>
      <trkpt lat="45.18721" lon="5.96153">
        <ele>1675.8</ele>
        <time>2026-07-14T12:42:21Z</time>
      </trkpt>
      <trkpt lat="45.18721" lon="5.96154">
        <ele>1675.8</ele>
        <time>2026-07-14T12:42:22Z</time>
      </trkpt>
      <trkpt lat="45.1872" lon="5.96155">
        <ele>1675.8</ele>
        <time>2026-07-14T12:42:23Z</time>
      </trkpt>
      <trkpt lat="45.18719" lon="5.96156">
        <ele>1675.8</ele>
        <time>2026-07-14T12:42:24Z</time>
      </trkpt>
      <trkpt lat="45.18718" lon="5.96157">
        <ele>1675.9</ele>
        <time>2026-07-14T12:42:25Z</time>
      </trkpt>
      <trkpt lat="45.18717" lon="5.96157">
        <ele>1675.9</ele>
        <time>2026-07-14T12:42:26Z</time>
      </trkpt>
      <trkpt lat="45.18716" lon="5.96157">
        <ele>1675.9</ele>
        <time>2026-07-14T12:42:27Z</time>
      </trkpt>
      <trkpt lat="45.18715" lon="5.96158">
        <ele>1675.9</ele>
        <time>2026-07-14T12:42:28Z</time>
      </trkpt>
      <trkpt lat="45.18714" lon="5.96158">
        <ele>1676</ele>
        <time>2026-07-14T12:42:29Z</time>
      </trkpt>
      <trkpt lat="45.18715" lon="5.96159">
        <ele>1676</ele>
        <time>2026-07-14T12:42:30Z</time>
      </trkpt>
      <trkpt lat="45.18715" lon="5.96158">
        <ele>1676</ele>
        <time>2026-07-14T12:42:31Z</time>
      </trkpt>
      <trkpt lat="45.18714" lon="5.96158">
        <ele>1676</ele>
        <time>2026-07-14T12:42:32Z</time>
      </trkpt>
      <trkpt lat="45.18714" lon="5.96158">
        <ele>1676</ele>
        <time>2026-07-14T12:42:33Z</time>
      </trkpt>
      <trkpt lat="45.18712" lon="5.96159">
        <ele>1676.1</ele>
        <time>2026-07-14T12:42:35Z</time>
      </trkpt>
      <trkpt lat="45.18711" lon="5.96161">
        <ele>1676.1</ele>
        <time>2026-07-14T12:42:36Z</time>
      </trkpt>
      <trkpt lat="45.18709" lon="5.96161">
        <ele>1676.2</ele>
        <time>2026-07-14T12:42:37Z</time>
      </trkpt>
      <trkpt lat="45.18708" lon="5.96161">
        <ele>1676.2</ele>
        <time>2026-07-14T12:42:38Z</time>
      </trkpt>
      <trkpt lat="45.18707" lon="5.96162">
        <ele>1676.2</ele>
        <time>2026-07-14T12:42:39Z</time>
      </trkpt>
      <trkpt lat="45.18706" lon="5.96162">
        <ele>1676.3</ele>
        <time>2026-07-14T12:42:40Z</time>
      </trkpt>
      <trkpt lat="45.18706" lon="5.96162">
        <ele>1676.3</ele>
        <time>2026-07-14T12:42:41Z</time>
      </trkpt>
      <trkpt lat="45.18705" lon="5.96162">
        <ele>1676.3</ele>
        <time>2026-07-14T12:42:42Z</time>
      </trkpt>
      <trkpt lat="45.18704" lon="5.96162">
        <ele>1676.3</ele>
        <time>2026-07-14T12:42:43Z</time>
      </trkpt>
      <trkpt lat="45.18703" lon="5.96162">
        <ele>1676.4</ele>
        <time>2026-07-14T12:42:44Z</time>
      </trkpt>
      <trkpt lat="45.18702" lon="5.96162">
        <ele>1676.4</ele>
        <time>2026-07-14T12:42:45Z</time>
      </trkpt>
      <trkpt lat="45.18701" lon="5.96163">
        <ele>1676.4</ele>
        <time>2026-07-14T12:42:46Z</time>
      </trkpt>
      <trkpt lat="45.18701" lon="5.96164">
        <ele>1676.4</ele>
        <time>2026-07-14T12:42:47Z</time>
      </trkpt>
      <trkpt lat="45.187" lon="5.96164">
        <ele>1676.4</ele>
        <time>2026-07-14T12:42:48Z</time>
      </trkpt>
      <trkpt lat="45.18699" lon="5.96165">
        <ele>1676.5</ele>
        <time>2026-07-14T12:42:49Z</time>
      </trkpt>
      <trkpt lat="45.18699" lon="5.96165">
        <ele>1676.5</ele>
        <time>2026-07-14T12:42:50Z</time>
      </trkpt>
      <trkpt lat="45.18698" lon="5.96163">
        <ele>1676.5</ele>
        <time>2026-07-14T12:42:51Z</time>
      </trkpt>
      <trkpt lat="45.18699" lon="5.96162">
        <ele>1676.5</ele>
        <time>2026-07-14T12:42:52Z</time>
      </trkpt>
      <trkpt lat="45.18698" lon="5.96161">
        <ele>1676.4</ele>
        <time>2026-07-14T12:42:53Z</time>
      </trkpt>
      <trkpt lat="45.18697" lon="5.96161">
        <ele>1676.4</ele>
        <time>2026-07-14T12:42:54Z</time>
      </trkpt>
      <trkpt lat="45.18696" lon="5.96161">
        <ele>1676.4</ele>
        <time>2026-07-14T12:42:55Z</time>
      </trkpt>
      <trkpt lat="45.18695" lon="5.9616">
        <ele>1676.4</ele>
        <time>2026-07-14T12:42:56Z</time>
      </trkpt>
      <trkpt lat="45.18694" lon="5.96161">
        <ele>1676.4</ele>
        <time>2026-07-14T12:42:57Z</time>
      </trkpt>
      <trkpt lat="45.18693" lon="5.96161">
        <ele>1676.4</ele>
        <time>2026-07-14T12:42:58Z</time>
      </trkpt>
      <trkpt lat="45.18692" lon="5.96161">
        <ele>1676.4</ele>
        <time>2026-07-14T12:42:59Z</time>
      </trkpt>
      <trkpt lat="45.18691" lon="5.96161">
        <ele>1676.4</ele>
        <time>2026-07-14T12:43:00Z</time>
      </trkpt>
      <trkpt lat="45.18689" lon="5.96162">
        <ele>1676.3</ele>
        <time>2026-07-14T12:43:01Z</time>
      </trkpt>
      <trkpt lat="45.18688" lon="5.96162">
        <ele>1676.3</ele>
        <time>2026-07-14T12:43:03Z</time>
      </trkpt>
      <trkpt lat="45.18687" lon="5.96162">
        <ele>1676.2</ele>
        <time>2026-07-14T12:43:05Z</time>
      </trkpt>
      <trkpt lat="45.18686" lon="5.96163">
        <ele>1676.2</ele>
        <time>2026-07-14T12:43:06Z</time>
      </trkpt>
      <trkpt lat="45.18685" lon="5.96163">
        <ele>1676.2</ele>
        <time>2026-07-14T12:43:08Z</time>
      </trkpt>
      <trkpt lat="45.18684" lon="5.96163">
        <ele>1676.1</ele>
        <time>2026-07-14T12:43:09Z</time>
      </trkpt>
      <trkpt lat="45.18684" lon="5.96163">
        <ele>1676.1</ele>
        <time>2026-07-14T12:43:10Z</time>
      </trkpt>
      <trkpt lat="45.18683" lon="5.96162">
        <ele>1676.1</ele>
        <time>2026-07-14T12:43:11Z</time>
      </trkpt>
      <trkpt lat="45.18683" lon="5.96161">
        <ele>1676.1</ele>
        <time>2026-07-14T12:43:12Z</time>
      </trkpt>
      <trkpt lat="45.18682" lon="5.96161">
        <ele>1676</ele>
        <time>2026-07-14T12:43:13Z</time>
      </trkpt>
      <trkpt lat="45.18682" lon="5.96161">
        <ele>1676</ele>
        <time>2026-07-14T12:43:15Z</time>
      </trkpt>
      <trkpt lat="45.18682" lon="5.9616">
        <ele>1676</ele>
        <time>2026-07-14T12:43:16Z</time>
      </trkpt>
      <trkpt lat="45.18682" lon="5.96159">
        <ele>1676</ele>
        <time>2026-07-14T12:43:17Z</time>
      </trkpt>
      <trkpt lat="45.18682" lon="5.96157">
        <ele>1675.9</ele>
        <time>2026-07-14T12:43:18Z</time>
      </trkpt>
      <trkpt lat="45.18682" lon="5.96157">
        <ele>1675.9</ele>
        <time>2026-07-14T12:43:19Z</time>
      </trkpt>
      <trkpt lat="45.18681" lon="5.96157">
        <ele>1675.9</ele>
        <time>2026-07-14T12:43:20Z</time>
      </trkpt>
      <trkpt lat="45.18681" lon="5.96157">
        <ele>1675.9</ele>
        <time>2026-07-14T12:43:21Z</time>
      </trkpt>
      <trkpt lat="45.18679" lon="5.96157">
        <ele>1675.8</ele>
        <time>2026-07-14T12:43:22Z</time>
      </trkpt>
      <trkpt lat="45.18678" lon="5.96157">
        <ele>1675.8</ele>
        <time>2026-07-14T12:43:24Z</time>
      </trkpt>
      <trkpt lat="45.18678" lon="5.96158">
        <ele>1675.8</ele>
        <time>2026-07-14T12:43:25Z</time>
      </trkpt>
      <trkpt lat="45.18677" lon="5.96158">
        <ele>1675.8</ele>
        <time>2026-07-14T12:43:26Z</time>
      </trkpt>
      <trkpt lat="45.18676" lon="5.96158">
        <ele>1675.7</ele>
        <time>2026-07-14T12:43:27Z</time>
      </trkpt>
      <trkpt lat="45.18676" lon="5.96157">
        <ele>1675.7</ele>
        <time>2026-07-14T12:43:28Z</time>
      </trkpt>
      <trkpt lat="45.18676" lon="5.96157">
        <ele>1675.7</ele>
        <time>2026-07-14T12:43:29Z</time>
      </trkpt>
      <trkpt lat="45.18676" lon="5.96156">
        <ele>1675.7</ele>
        <time>2026-07-14T12:43:30Z</time>
      </trkpt>
      <trkpt lat="45.18676" lon="5.96155">
        <ele>1675.6</ele>
        <time>2026-07-14T12:43:31Z</time>
      </trkpt>
      <trkpt lat="45.18675" lon="5.96154">
        <ele>1675.6</ele>
        <time>2026-07-14T12:43:33Z</time>
      </trkpt>
      <trkpt lat="45.18675" lon="5.96154">
        <ele>1675.6</ele>
        <time>2026-07-14T12:43:34Z</time>
      </trkpt>
      <trkpt lat="45.18674" lon="5.96153">
        <ele>1675.6</ele>
        <time>2026-07-14T12:43:35Z</time>
      </trkpt>
      <trkpt lat="45.18674" lon="5.96153">
        <ele>1675.6</ele>
        <time>2026-07-14T12:43:36Z</time>
      </trkpt>
      <trkpt lat="45.18674" lon="5.96152">
        <ele>1675.5</ele>
        <time>2026-07-14T12:43:37Z</time>
      </trkpt>
      <trkpt lat="45.18674" lon="5.96152">
        <ele>1675.5</ele>
        <time>2026-07-14T12:43:38Z</time>
      </trkpt>
      <trkpt lat="45.18673" lon="5.96151">
        <ele>1675.5</ele>
        <time>2026-07-14T12:43:39Z</time>
      </trkpt>
      <trkpt lat="45.18673" lon="5.96151">
        <ele>1675.5</ele>
        <time>2026-07-14T12:43:40Z</time>
      </trkpt>
      <trkpt lat="45.18673" lon="5.9615">
        <ele>1675.5</ele>
        <time>2026-07-14T12:43:41Z</time>
      </trkpt>
      <trkpt lat="45.18672" lon="5.96149">
        <ele>1675.4</ele>
        <time>2026-07-14T12:43:42Z</time>
      </trkpt>
      <trkpt lat="45.18672" lon="5.96148">
        <ele>1675.4</ele>
        <time>2026-07-14T12:43:43Z</time>
      </trkpt>
      <trkpt lat="45.18672" lon="5.96147">
        <ele>1675.4</ele>
        <time>2026-07-14T12:43:44Z</time>
      </trkpt>
      <trkpt lat="45.18672" lon="5.96147">
        <ele>1675.4</ele>
        <time>2026-07-14T12:43:45Z</time>
      </trkpt>
      <trkpt lat="45.18671" lon="5.96146">
        <ele>1675.3</ele>
        <time>2026-07-14T12:43:46Z</time>
      </trkpt>
      <trkpt lat="45.18671" lon="5.96145">
        <ele>1675.3</ele>
        <time>2026-07-14T12:43:48Z</time>
      </trkpt>
      <trkpt lat="45.18672" lon="5.96143">
        <ele>1675.3</ele>
        <time>2026-07-14T12:43:49Z</time>
      </trkpt>
      <trkpt lat="45.18673" lon="5.96142">
        <ele>1675.2</ele>
        <time>2026-07-14T12:43:51Z</time>
      </trkpt>
      <trkpt lat="45.18674" lon="5.96142">
        <ele>1675</ele>
        <time>2026-07-14T12:43:53Z</time>
      </trkpt>
      <trkpt lat="45.18675" lon="5.9614">
        <ele>1674.8</ele>
        <time>2026-07-14T12:43:54Z</time>
      </trkpt>
      <trkpt lat="45.18676" lon="5.9614">
        <ele>1674.8</ele>
        <time>2026-07-14T12:43:56Z</time>
      </trkpt>
      <trkpt lat="45.18676" lon="5.9614">
        <ele>1674.8</ele>
        <time>2026-07-14T12:43:57Z</time>
      </trkpt>
      <trkpt lat="45.18676" lon="5.96139">
        <ele>1674.7</ele>
        <time>2026-07-14T12:43:58Z</time>
      </trkpt>
      <trkpt lat="45.18675" lon="5.96137">
        <ele>1674.5</ele>
        <time>2026-07-14T12:43:59Z</time>
      </trkpt>
      <trkpt lat="45.18676" lon="5.96137">
        <ele>1674.3</ele>
        <time>2026-07-14T12:44:01Z</time>
      </trkpt>
      <trkpt lat="45.18677" lon="5.96136">
        <ele>1674.2</ele>
        <time>2026-07-14T12:44:02Z</time>
      </trkpt>
      <trkpt lat="45.18678" lon="5.96136">
        <ele>1674.1</ele>
        <time>2026-07-14T12:44:03Z</time>
      </trkpt>
      <trkpt lat="45.18679" lon="5.96136">
        <ele>1674</ele>
        <time>2026-07-14T12:44:04Z</time>
      </trkpt>
      <trkpt lat="45.1868" lon="5.96135">
        <ele>1673.9</ele>
        <time>2026-07-14T12:44:05Z</time>
      </trkpt>
      <trkpt lat="45.1868" lon="5.96135">
        <ele>1673.8</ele>
        <time>2026-07-14T12:44:06Z</time>
      </trkpt>
      <trkpt lat="45.18681" lon="5.96135">
        <ele>1673.8</ele>
        <time>2026-07-14T12:44:07Z</time>
      </trkpt>
      <trkpt lat="45.18681" lon="5.96134">
        <ele>1673.7</ele>
        <time>2026-07-14T12:44:08Z</time>
      </trkpt>
      <trkpt lat="45.18681" lon="5.96134">
        <ele>1673.6</ele>
        <time>2026-07-14T12:44:09Z</time>
      </trkpt>
      <trkpt lat="45.18682" lon="5.96132">
        <ele>1673.4</ele>
        <time>2026-07-14T12:44:10Z</time>
      </trkpt>
      <trkpt lat="45.18682" lon="5.9613">
        <ele>1673.3</ele>
        <time>2026-07-14T12:44:12Z</time>
      </trkpt>
      <trkpt lat="45.18683" lon="5.9613">
        <ele>1673.2</ele>
        <time>2026-07-14T12:44:13Z</time>
      </trkpt>
      <trkpt lat="45.18684" lon="5.96129">
        <ele>1673</ele>
        <time>2026-07-14T12:44:15Z</time>
      </trkpt>
      <trkpt lat="45.18684" lon="5.96129">
        <ele>1673</ele>
        <time>2026-07-14T12:44:16Z</time>
      </trkpt>
      <trkpt lat="45.18685" lon="5.96127">
        <ele>1672.8</ele>
        <time>2026-07-14T12:44:17Z</time>
      </trkpt>
      <trkpt lat="45.18685" lon="5.96125">
        <ele>1672.6</ele>
        <time>2026-07-14T12:44:18Z</time>
      </trkpt>
      <trkpt lat="45.18685" lon="5.96125">
        <ele>1672.5</ele>
        <time>2026-07-14T12:44:20Z</time>
      </trkpt>
      <trkpt lat="45.18685" lon="5.96124">
        <ele>1672.4</ele>
        <time>2026-07-14T12:44:21Z</time>
      </trkpt>
      <trkpt lat="45.18686" lon="5.96122">
        <ele>1672.3</ele>
        <time>2026-07-14T12:44:22Z</time>
      </trkpt>
      <trkpt lat="45.18686" lon="5.96121">
        <ele>1672.2</ele>
        <time>2026-07-14T12:44:23Z</time>
      </trkpt>
      <trkpt lat="45.18686" lon="5.96119">
        <ele>1672</ele>
        <time>2026-07-14T12:44:24Z</time>
      </trkpt>
      <trkpt lat="45.18685" lon="5.96119">
        <ele>1671.9</ele>
        <time>2026-07-14T12:44:26Z</time>
      </trkpt>
      <trkpt lat="45.18685" lon="5.96117">
        <ele>1671.8</ele>
        <time>2026-07-14T12:44:27Z</time>
      </trkpt>
      <trkpt lat="45.18685" lon="5.96116">
        <ele>1671.6</ele>
        <time>2026-07-14T12:44:28Z</time>
      </trkpt>
      <trkpt lat="45.18686" lon="5.96114">
        <ele>1671.4</ele>
        <time>2026-07-14T12:44:29Z</time>
      </trkpt>
      <trkpt lat="45.18686" lon="5.96113">
        <ele>1671.3</ele>
        <time>2026-07-14T12:44:31Z</time>
      </trkpt>
      <trkpt lat="45.18685" lon="5.96112">
        <ele>1671.2</ele>
        <time>2026-07-14T12:44:32Z</time>
      </trkpt>
      <trkpt lat="45.18685" lon="5.96112">
        <ele>1671.1</ele>
        <time>2026-07-14T12:44:33Z</time>
      </trkpt>
      <trkpt lat="45.18685" lon="5.96111">
        <ele>1671</ele>
        <time>2026-07-14T12:44:34Z</time>
      </trkpt>
      <trkpt lat="45.18686" lon="5.9611">
        <ele>1670.9</ele>
        <time>2026-07-14T12:44:35Z</time>
      </trkpt>
      <trkpt lat="45.18686" lon="5.96109">
        <ele>1670.8</ele>
        <time>2026-07-14T12:44:36Z</time>
      </trkpt>
      <trkpt lat="45.18687" lon="5.96108">
        <ele>1670.6</ele>
        <time>2026-07-14T12:44:37Z</time>
      </trkpt>
      <trkpt lat="45.18688" lon="5.96108">
        <ele>1670.4</ele>
        <time>2026-07-14T12:44:38Z</time>
      </trkpt>
      <trkpt lat="45.18689" lon="5.96109">
        <ele>1670.3</ele>
        <time>2026-07-14T12:44:39Z</time>
      </trkpt>
      <trkpt lat="45.18688" lon="5.96109">
        <ele>1670.2</ele>
        <time>2026-07-14T12:44:40Z</time>
      </trkpt>
      <trkpt lat="45.18688" lon="5.96109">
        <ele>1670.2</ele>
        <time>2026-07-14T12:44:41Z</time>
      </trkpt>
      <trkpt lat="45.1869" lon="5.96109">
        <ele>1670</ele>
        <time>2026-07-14T12:44:42Z</time>
      </trkpt>
      <trkpt lat="45.1869" lon="5.96108">
        <ele>1669.8</ele>
        <time>2026-07-14T12:44:43Z</time>
      </trkpt>
      <trkpt lat="45.18691" lon="5.96106">
        <ele>1669.7</ele>
        <time>2026-07-14T12:44:44Z</time>
      </trkpt>
      <trkpt lat="45.18692" lon="5.96103">
        <ele>1669.3</ele>
        <time>2026-07-14T12:44:45Z</time>
      </trkpt>
      <trkpt lat="45.18693" lon="5.96102">
        <ele>1669.2</ele>
        <time>2026-07-14T12:44:47Z</time>
      </trkpt>
      <trkpt lat="45.18693" lon="5.96101">
        <ele>1669</ele>
        <time>2026-07-14T12:44:48Z</time>
      </trkpt>
      <trkpt lat="45.18694" lon="5.96101">
        <ele>1668.9</ele>
        <time>2026-07-14T12:44:49Z</time>
      </trkpt>
      <trkpt lat="45.18695" lon="5.96101">
        <ele>1668.7</ele>
        <time>2026-07-14T12:44:50Z</time>
      </trkpt>
      <trkpt lat="45.18696" lon="5.96101">
        <ele>1668.7</ele>
        <time>2026-07-14T12:44:51Z</time>
      </trkpt>
      <trkpt lat="45.18696" lon="5.96101">
        <ele>1668.5</ele>
        <time>2026-07-14T12:44:52Z</time>
      </trkpt>
      <trkpt lat="45.18697" lon="5.96101">
        <ele>1668.4</ele>
        <time>2026-07-14T12:44:53Z</time>
      </trkpt>
      <trkpt lat="45.18698" lon="5.96101">
        <ele>1668.3</ele>
        <time>2026-07-14T12:44:54Z</time>
      </trkpt>
      <trkpt lat="45.18699" lon="5.96101">
        <ele>1668.2</ele>
        <time>2026-07-14T12:44:55Z</time>
      </trkpt>
      <trkpt lat="45.18699" lon="5.96101">
        <ele>1668.1</ele>
        <time>2026-07-14T12:44:56Z</time>
      </trkpt>
      <trkpt lat="45.187" lon="5.961">
        <ele>1667.9</ele>
        <time>2026-07-14T12:44:57Z</time>
      </trkpt>
      <trkpt lat="45.187" lon="5.96099">
        <ele>1667.8</ele>
        <time>2026-07-14T12:44:58Z</time>
      </trkpt>
      <trkpt lat="45.187" lon="5.96098">
        <ele>1667.6</ele>
        <time>2026-07-14T12:44:59Z</time>
      </trkpt>
      <trkpt lat="45.18701" lon="5.96096">
        <ele>1667.5</ele>
        <time>2026-07-14T12:45:00Z</time>
      </trkpt>
      <trkpt lat="45.18702" lon="5.96095">
        <ele>1667.3</ele>
        <time>2026-07-14T12:45:01Z</time>
      </trkpt>
      <trkpt lat="45.18702" lon="5.96094">
        <ele>1667.1</ele>
        <time>2026-07-14T12:45:03Z</time>
      </trkpt>
      <trkpt lat="45.18702" lon="5.96093">
        <ele>1667</ele>
        <time>2026-07-14T12:45:04Z</time>
      </trkpt>
      <trkpt lat="45.18701" lon="5.96092">
        <ele>1666.9</ele>
        <time>2026-07-14T12:45:05Z</time>
      </trkpt>
      <trkpt lat="45.18701" lon="5.96092">
        <ele>1666.8</ele>
        <time>2026-07-14T12:45:06Z</time>
      </trkpt>
      <trkpt lat="45.18701" lon="5.96093">
        <ele>1666.7</ele>
        <time>2026-07-14T12:45:07Z</time>
      </trkpt>
      <trkpt lat="45.18701" lon="5.96093">
        <ele>1666.7</ele>
        <time>2026-07-14T12:45:08Z</time>
      </trkpt>
      <trkpt lat="45.18701" lon="5.96093">
        <ele>1666.7</ele>
        <time>2026-07-14T12:45:09Z</time>
      </trkpt>
      <trkpt lat="45.18701" lon="5.96093">
        <ele>1666.7</ele>
        <time>2026-07-14T12:45:10Z</time>
      </trkpt>
      <trkpt lat="45.18701" lon="5.96093">
        <ele>1666.6</ele>
        <time>2026-07-14T12:45:11Z</time>
      </trkpt>
      <trkpt lat="45.18701" lon="5.9609">
        <ele>1666.3</ele>
        <time>2026-07-14T12:45:12Z</time>
      </trkpt>
      <trkpt lat="45.18702" lon="5.96087">
        <ele>1666</ele>
        <time>2026-07-14T12:45:14Z</time>
      </trkpt>
      <trkpt lat="45.18702" lon="5.96087">
        <ele>1665.8</ele>
        <time>2026-07-14T12:45:16Z</time>
      </trkpt>
      <trkpt lat="45.18703" lon="5.96086">
        <ele>1665.7</ele>
        <time>2026-07-14T12:45:17Z</time>
      </trkpt>
      <trkpt lat="45.18703" lon="5.96085">
        <ele>1665.6</ele>
        <time>2026-07-14T12:45:18Z</time>
      </trkpt>
      <trkpt lat="45.18703" lon="5.96084">
        <ele>1665.4</ele>
        <time>2026-07-14T12:45:19Z</time>
      </trkpt>
      <trkpt lat="45.18703" lon="5.96083">
        <ele>1665.4</ele>
        <time>2026-07-14T12:45:20Z</time>
      </trkpt>
      <trkpt lat="45.18704" lon="5.96082">
        <ele>1665.1</ele>
        <time>2026-07-14T12:45:21Z</time>
      </trkpt>
      <trkpt lat="45.18705" lon="5.96081">
        <ele>1664.9</ele>
        <time>2026-07-14T12:45:23Z</time>
      </trkpt>
      <trkpt lat="45.18707" lon="5.96079">
        <ele>1664.6</ele>
        <time>2026-07-14T12:45:24Z</time>
      </trkpt>
      <trkpt lat="45.18707" lon="5.96078">
        <ele>1664.5</ele>
        <time>2026-07-14T12:45:26Z</time>
      </trkpt>
      <trkpt lat="45.18706" lon="5.96077">
        <ele>1664.3</ele>
        <time>2026-07-14T12:45:27Z</time>
      </trkpt>
      <trkpt lat="45.18706" lon="5.96077">
        <ele>1664.2</ele>
        <time>2026-07-14T12:45:28Z</time>
      </trkpt>
      <trkpt lat="45.18706" lon="5.96075">
        <ele>1664.1</ele>
        <time>2026-07-14T12:45:29Z</time>
      </trkpt>
      <trkpt lat="45.18706" lon="5.96073">
        <ele>1663.8</ele>
        <time>2026-07-14T12:45:30Z</time>
      </trkpt>
      <trkpt lat="45.18706" lon="5.96072">
        <ele>1663.6</ele>
        <time>2026-07-14T12:45:32Z</time>
      </trkpt>
      <trkpt lat="45.18706" lon="5.96071">
        <ele>1663.5</ele>
        <time>2026-07-14T12:45:33Z</time>
      </trkpt>
      <trkpt lat="45.18707" lon="5.9607">
        <ele>1663.3</ele>
        <time>2026-07-14T12:45:34Z</time>
      </trkpt>
      <trkpt lat="45.18707" lon="5.96069">
        <ele>1663.2</ele>
        <time>2026-07-14T12:45:35Z</time>
      </trkpt>
      <trkpt lat="45.18708" lon="5.96068">
        <ele>1663</ele>
        <time>2026-07-14T12:45:36Z</time>
      </trkpt>
      <trkpt lat="45.18708" lon="5.96067">
        <ele>1662.9</ele>
        <time>2026-07-14T12:45:37Z</time>
      </trkpt>
      <trkpt lat="45.18708" lon="5.96065">
        <ele>1662.7</ele>
        <time>2026-07-14T12:45:38Z</time>
      </trkpt>
      <trkpt lat="45.18708" lon="5.96063">
        <ele>1662.4</ele>
        <time>2026-07-14T12:45:39Z</time>
      </trkpt>
      <trkpt lat="45.18709" lon="5.96062">
        <ele>1662.2</ele>
        <time>2026-07-14T12:45:41Z</time>
      </trkpt>
      <trkpt lat="45.18709" lon="5.96061">
        <ele>1662.1</ele>
        <time>2026-07-14T12:45:43Z</time>
      </trkpt>
      <trkpt lat="45.1871" lon="5.9606">
        <ele>1661.8</ele>
        <time>2026-07-14T12:45:44Z</time>
      </trkpt>
      <trkpt lat="45.18711" lon="5.9606">
        <ele>1661.7</ele>
        <time>2026-07-14T12:45:46Z</time>
      </trkpt>
      <trkpt lat="45.18711" lon="5.96059">
        <ele>1661.7</ele>
        <time>2026-07-14T12:45:47Z</time>
      </trkpt>
      <trkpt lat="45.18711" lon="5.96059">
        <ele>1661.6</ele>
        <time>2026-07-14T12:45:48Z</time>
      </trkpt>
      <trkpt lat="45.18712" lon="5.96058">
        <ele>1661.5</ele>
        <time>2026-07-14T12:45:49Z</time>
      </trkpt>
      <trkpt lat="45.18712" lon="5.96057">
        <ele>1661.3</ele>
        <time>2026-07-14T12:45:50Z</time>
      </trkpt>
      <trkpt lat="45.18713" lon="5.96057">
        <ele>1661.2</ele>
        <time>2026-07-14T12:45:51Z</time>
      </trkpt>
      <trkpt lat="45.18713" lon="5.96057">
        <ele>1661.1</ele>
        <time>2026-07-14T12:45:52Z</time>
      </trkpt>
      <trkpt lat="45.18714" lon="5.96057">
        <ele>1661</ele>
        <time>2026-07-14T12:45:53Z</time>
      </trkpt>
      <trkpt lat="45.18714" lon="5.96056">
        <ele>1660.8</ele>
        <time>2026-07-14T12:45:54Z</time>
      </trkpt>
      <trkpt lat="45.18715" lon="5.96055">
        <ele>1660.7</ele>
        <time>2026-07-14T12:45:55Z</time>
      </trkpt>
      <trkpt lat="45.18715" lon="5.96054">
        <ele>1660.6</ele>
        <time>2026-07-14T12:45:56Z</time>
      </trkpt>
      <trkpt lat="45.18716" lon="5.96053">
        <ele>1660.4</ele>
        <time>2026-07-14T12:45:57Z</time>
      </trkpt>
      <trkpt lat="45.18716" lon="5.96053">
        <ele>1660.3</ele>
        <time>2026-07-14T12:45:58Z</time>
      </trkpt>
      <trkpt lat="45.18716" lon="5.96052">
        <ele>1660.2</ele>
        <time>2026-07-14T12:45:59Z</time>
      </trkpt>
      <trkpt lat="45.18717" lon="5.9605">
        <ele>1659.9</ele>
        <time>2026-07-14T12:46:00Z</time>
      </trkpt>
      <trkpt lat="45.18717" lon="5.96049">
        <ele>1659.8</ele>
        <time>2026-07-14T12:46:02Z</time>
      </trkpt>
      <trkpt lat="45.18717" lon="5.96048">
        <ele>1659.7</ele>
        <time>2026-07-14T12:46:03Z</time>
      </trkpt>
      <trkpt lat="45.18717" lon="5.96048">
        <ele>1659.6</ele>
        <time>2026-07-14T12:46:04Z</time>
      </trkpt>
      <trkpt lat="45.18717" lon="5.96047">
        <ele>1659.5</ele>
        <time>2026-07-14T12:46:05Z</time>
      </trkpt>
      <trkpt lat="45.18718" lon="5.96047">
        <ele>1659.4</ele>
        <time>2026-07-14T12:46:06Z</time>
      </trkpt>
      <trkpt lat="45.18718" lon="5.96047">
        <ele>1659.4</ele>
        <time>2026-07-14T12:46:07Z</time>
      </trkpt>
      <trkpt lat="45.18719" lon="5.96046">
        <ele>1659.1</ele>
        <time>2026-07-14T12:46:08Z</time>
      </trkpt>
      <trkpt lat="45.18719" lon="5.96045">
        <ele>1659</ele>
        <time>2026-07-14T12:46:10Z</time>
      </trkpt>
      <trkpt lat="45.18719" lon="5.96045">
        <ele>1659</ele>
        <time>2026-07-14T12:46:11Z</time>
      </trkpt>
      <trkpt lat="45.18719" lon="5.96043">
        <ele>1658.7</ele>
        <time>2026-07-14T12:46:12Z</time>
      </trkpt>
      <trkpt lat="45.18719" lon="5.96042">
        <ele>1658.5</ele>
        <time>2026-07-14T12:46:14Z</time>
      </trkpt>
      <trkpt lat="45.18719" lon="5.96041">
        <ele>1658.4</ele>
        <time>2026-07-14T12:46:15Z</time>
      </trkpt>
      <trkpt lat="45.18719" lon="5.9604">
        <ele>1658.2</ele>
        <time>2026-07-14T12:46:16Z</time>
      </trkpt>
      <trkpt lat="45.1872" lon="5.96039">
        <ele>1658</ele>
        <time>2026-07-14T12:46:17Z</time>
      </trkpt>
      <trkpt lat="45.1872" lon="5.96039">
        <ele>1657.9</ele>
        <time>2026-07-14T12:46:18Z</time>
      </trkpt>
      <trkpt lat="45.18721" lon="5.96038">
        <ele>1657.7</ele>
        <time>2026-07-14T12:46:19Z</time>
      </trkpt>
      <trkpt lat="45.18722" lon="5.96038">
        <ele>1657.6</ele>
        <time>2026-07-14T12:46:20Z</time>
      </trkpt>
      <trkpt lat="45.18722" lon="5.96036">
        <ele>1657.4</ele>
        <time>2026-07-14T12:46:21Z</time>
      </trkpt>
      <trkpt lat="45.18722" lon="5.96036">
        <ele>1657.3</ele>
        <time>2026-07-14T12:46:22Z</time>
      </trkpt>
      <trkpt lat="45.18722" lon="5.96033">
        <ele>1656.8</ele>
        <time>2026-07-14T12:46:23Z</time>
      </trkpt>
      <trkpt lat="45.18722" lon="5.96032">
        <ele>1656.6</ele>
        <time>2026-07-14T12:46:25Z</time>
      </trkpt>
      <trkpt lat="45.18721" lon="5.96031">
        <ele>1656.4</ele>
        <time>2026-07-14T12:46:26Z</time>
      </trkpt>
      <trkpt lat="45.1872" lon="5.96029">
        <ele>1655.9</ele>
        <time>2026-07-14T12:46:27Z</time>
      </trkpt>
      <trkpt lat="45.1872" lon="5.96027">
        <ele>1655.7</ele>
        <time>2026-07-14T12:46:28Z</time>
      </trkpt>
      <trkpt lat="45.1872" lon="5.96027">
        <ele>1655.6</ele>
        <time>2026-07-14T12:46:30Z</time>
      </trkpt>
      <trkpt lat="45.18721" lon="5.96026">
        <ele>1655.4</ele>
        <time>2026-07-14T12:46:31Z</time>
      </trkpt>
      <trkpt lat="45.18722" lon="5.96025">
        <ele>1655</ele>
        <time>2026-07-14T12:46:32Z</time>
      </trkpt>
      <trkpt lat="45.18723" lon="5.96024">
        <ele>1654.7</ele>
        <time>2026-07-14T12:46:34Z</time>
      </trkpt>
      <trkpt lat="45.18724" lon="5.96023">
        <ele>1654.5</ele>
        <time>2026-07-14T12:46:35Z</time>
      </trkpt>
      <trkpt lat="45.18724" lon="5.96021">
        <ele>1654.3</ele>
        <time>2026-07-14T12:46:36Z</time>
      </trkpt>
      <trkpt lat="45.18722" lon="5.9602">
        <ele>1653.9</ele>
        <time>2026-07-14T12:46:37Z</time>
      </trkpt>
      <trkpt lat="45.18721" lon="5.96021">
        <ele>1653.6</ele>
        <time>2026-07-14T12:46:38Z</time>
      </trkpt>
      <trkpt lat="45.18721" lon="5.96021">
        <ele>1653.5</ele>
        <time>2026-07-14T12:46:39Z</time>
      </trkpt>
      <trkpt lat="45.1872" lon="5.9602">
        <ele>1653.3</ele>
        <time>2026-07-14T12:46:40Z</time>
      </trkpt>
      <trkpt lat="45.1872" lon="5.96019">
        <ele>1653.2</ele>
        <time>2026-07-14T12:46:41Z</time>
      </trkpt>
      <trkpt lat="45.1872" lon="5.96018">
        <ele>1653.1</ele>
        <time>2026-07-14T12:46:42Z</time>
      </trkpt>
      <trkpt lat="45.1872" lon="5.96016">
        <ele>1652.8</ele>
        <time>2026-07-14T12:46:43Z</time>
      </trkpt>
      <trkpt lat="45.18721" lon="5.96016">
        <ele>1652.6</ele>
        <time>2026-07-14T12:46:45Z</time>
      </trkpt>
      <trkpt lat="45.18722" lon="5.96013">
        <ele>1652.1</ele>
        <time>2026-07-14T12:46:46Z</time>
      </trkpt>
      <trkpt lat="45.18723" lon="5.96012">
        <ele>1651.9</ele>
        <time>2026-07-14T12:46:48Z</time>
      </trkpt>
      <trkpt lat="45.18723" lon="5.96011">
        <ele>1651.8</ele>
        <time>2026-07-14T12:46:49Z</time>
      </trkpt>
      <trkpt lat="45.18724" lon="5.96009">
        <ele>1651.4</ele>
        <time>2026-07-14T12:46:50Z</time>
      </trkpt>
      <trkpt lat="45.18724" lon="5.96007">
        <ele>1651.2</ele>
        <time>2026-07-14T12:46:52Z</time>
      </trkpt>
      <trkpt lat="45.18724" lon="5.96007">
        <ele>1651.1</ele>
        <time>2026-07-14T12:46:53Z</time>
      </trkpt>
      <trkpt lat="45.18724" lon="5.96006">
        <ele>1650.9</ele>
        <time>2026-07-14T12:46:54Z</time>
      </trkpt>
      <trkpt lat="45.18725" lon="5.96005">
        <ele>1650.8</ele>
        <time>2026-07-14T12:46:55Z</time>
      </trkpt>
      <trkpt lat="45.18725" lon="5.96005">
        <ele>1650.8</ele>
        <time>2026-07-14T12:46:56Z</time>
      </trkpt>
      <trkpt lat="45.18725" lon="5.96004">
        <ele>1650.7</ele>
        <time>2026-07-14T12:46:57Z</time>
      </trkpt>
      <trkpt lat="45.18725" lon="5.96003">
        <ele>1650.5</ele>
        <time>2026-07-14T12:46:58Z</time>
      </trkpt>
      <trkpt lat="45.18725" lon="5.96001">
        <ele>1650.3</ele>
        <time>2026-07-14T12:46:59Z</time>
      </trkpt>
      <trkpt lat="45.18725" lon="5.96001">
        <ele>1650.2</ele>
        <time>2026-07-14T12:47:00Z</time>
      </trkpt>
      <trkpt lat="45.18725" lon="5.96">
        <ele>1650.1</ele>
        <time>2026-07-14T12:47:01Z</time>
      </trkpt>
      <trkpt lat="45.18725" lon="5.95999">
        <ele>1649.9</ele>
        <time>2026-07-14T12:47:02Z</time>
      </trkpt>
      <trkpt lat="45.18725" lon="5.95998">
        <ele>1649.8</ele>
        <time>2026-07-14T12:47:03Z</time>
      </trkpt>
      <trkpt lat="45.18725" lon="5.95996">
        <ele>1649.7</ele>
        <time>2026-07-14T12:47:04Z</time>
      </trkpt>
      <trkpt lat="45.18725" lon="5.95995">
        <ele>1649.5</ele>
        <time>2026-07-14T12:47:05Z</time>
      </trkpt>
      <trkpt lat="45.18725" lon="5.95994">
        <ele>1649.3</ele>
        <time>2026-07-14T12:47:06Z</time>
      </trkpt>
      <trkpt lat="45.18725" lon="5.95993">
        <ele>1649.2</ele>
        <time>2026-07-14T12:47:07Z</time>
      </trkpt>
      <trkpt lat="45.18725" lon="5.9599">
        <ele>1648.9</ele>
        <time>2026-07-14T12:47:08Z</time>
      </trkpt>
      <trkpt lat="45.18725" lon="5.95989">
        <ele>1648.8</ele>
        <time>2026-07-14T12:47:10Z</time>
      </trkpt>
      <trkpt lat="45.18724" lon="5.95988">
        <ele>1648.5</ele>
        <time>2026-07-14T12:47:11Z</time>
      </trkpt>
      <trkpt lat="45.18723" lon="5.95986">
        <ele>1648.2</ele>
        <time>2026-07-14T12:47:12Z</time>
      </trkpt>
      <trkpt lat="45.18723" lon="5.95985">
        <ele>1648.1</ele>
        <time>2026-07-14T12:47:13Z</time>
      </trkpt>
      <trkpt lat="45.18722" lon="5.95983">
        <ele>1647.9</ele>
        <time>2026-07-14T12:47:15Z</time>
      </trkpt>
      <trkpt lat="45.18722" lon="5.95982">
        <ele>1647.7</ele>
        <time>2026-07-14T12:47:16Z</time>
      </trkpt>
      <trkpt lat="45.18721" lon="5.95981">
        <ele>1647.6</ele>
        <time>2026-07-14T12:47:18Z</time>
      </trkpt>
      <trkpt lat="45.18721" lon="5.9598">
        <ele>1647.5</ele>
        <time>2026-07-14T12:47:19Z</time>
      </trkpt>
      <trkpt lat="45.18721" lon="5.95978">
        <ele>1647.3</ele>
        <time>2026-07-14T12:47:20Z</time>
      </trkpt>
      <trkpt lat="45.18722" lon="5.95977">
        <ele>1647.2</ele>
        <time>2026-07-14T12:47:21Z</time>
      </trkpt>
      <trkpt lat="45.18722" lon="5.95975">
        <ele>1647</ele>
        <time>2026-07-14T12:47:22Z</time>
      </trkpt>
      <trkpt lat="45.18721" lon="5.95974">
        <ele>1646.8</ele>
        <time>2026-07-14T12:47:23Z</time>
      </trkpt>
      <trkpt lat="45.18722" lon="5.95973">
        <ele>1646.6</ele>
        <time>2026-07-14T12:47:24Z</time>
      </trkpt>
      <trkpt lat="45.18723" lon="5.95971">
        <ele>1646.4</ele>
        <time>2026-07-14T12:47:25Z</time>
      </trkpt>
      <trkpt lat="45.18723" lon="5.95971">
        <ele>1646.3</ele>
        <time>2026-07-14T12:47:26Z</time>
      </trkpt>
      <trkpt lat="45.18724" lon="5.9597">
        <ele>1646.2</ele>
        <time>2026-07-14T12:47:27Z</time>
      </trkpt>
      <trkpt lat="45.18724" lon="5.95969">
        <ele>1646.1</ele>
        <time>2026-07-14T12:47:28Z</time>
      </trkpt>
      <trkpt lat="45.18724" lon="5.95968">
        <ele>1646</ele>
        <time>2026-07-14T12:47:29Z</time>
      </trkpt>
      <trkpt lat="45.18725" lon="5.95967">
        <ele>1645.8</ele>
        <time>2026-07-14T12:47:30Z</time>
      </trkpt>
      <trkpt lat="45.18726" lon="5.95967">
        <ele>1645.7</ele>
        <time>2026-07-14T12:47:31Z</time>
      </trkpt>
      <trkpt lat="45.18727" lon="5.95966">
        <ele>1645.5</ele>
        <time>2026-07-14T12:47:32Z</time>
      </trkpt>
      <trkpt lat="45.18728" lon="5.95963">
        <ele>1645.2</ele>
        <time>2026-07-14T12:47:33Z</time>
      </trkpt>
      <trkpt lat="45.18728" lon="5.95962">
        <ele>1645</ele>
        <time>2026-07-14T12:47:35Z</time>
      </trkpt>
      <trkpt lat="45.18728" lon="5.95959">
        <ele>1644.8</ele>
        <time>2026-07-14T12:47:36Z</time>
      </trkpt>
      <trkpt lat="45.18728" lon="5.95959">
        <ele>1644.7</ele>
        <time>2026-07-14T12:47:38Z</time>
      </trkpt>
      <trkpt lat="45.18729" lon="5.95958">
        <ele>1644.6</ele>
        <time>2026-07-14T12:47:39Z</time>
      </trkpt>
      <trkpt lat="45.1873" lon="5.95958">
        <ele>1644.4</ele>
        <time>2026-07-14T12:47:40Z</time>
      </trkpt>
      <trkpt lat="45.18731" lon="5.95956">
        <ele>1644.3</ele>
        <time>2026-07-14T12:47:41Z</time>
      </trkpt>
      <trkpt lat="45.18731" lon="5.95955">
        <ele>1644.2</ele>
        <time>2026-07-14T12:47:42Z</time>
      </trkpt>
      <trkpt lat="45.18731" lon="5.95954">
        <ele>1644.1</ele>
        <time>2026-07-14T12:47:43Z</time>
      </trkpt>
      <trkpt lat="45.18731" lon="5.95953">
        <ele>1644</ele>
        <time>2026-07-14T12:47:44Z</time>
      </trkpt>
      <trkpt lat="45.18732" lon="5.95953">
        <ele>1643.9</ele>
        <time>2026-07-14T12:47:45Z</time>
      </trkpt>
      <trkpt lat="45.18732" lon="5.95952">
        <ele>1643.8</ele>
        <time>2026-07-14T12:47:46Z</time>
      </trkpt>
      <trkpt lat="45.18732" lon="5.95951">
        <ele>1643.7</ele>
        <time>2026-07-14T12:47:47Z</time>
      </trkpt>
      <trkpt lat="45.18732" lon="5.9595">
        <ele>1643.6</ele>
        <time>2026-07-14T12:47:48Z</time>
      </trkpt>
      <trkpt lat="45.18733" lon="5.95949">
        <ele>1643.5</ele>
        <time>2026-07-14T12:47:49Z</time>
      </trkpt>
      <trkpt lat="45.18733" lon="5.95948">
        <ele>1643.4</ele>
        <time>2026-07-14T12:47:50Z</time>
      </trkpt>
      <trkpt lat="45.18734" lon="5.95947">
        <ele>1643.2</ele>
        <time>2026-07-14T12:47:51Z</time>
      </trkpt>
      <trkpt lat="45.18734" lon="5.95946">
        <ele>1643.2</ele>
        <time>2026-07-14T12:47:52Z</time>
      </trkpt>
      <trkpt lat="45.18734" lon="5.95945">
        <ele>1643</ele>
        <time>2026-07-14T12:47:53Z</time>
      </trkpt>
      <trkpt lat="45.18735" lon="5.95944">
        <ele>1643</ele>
        <time>2026-07-14T12:47:54Z</time>
      </trkpt>
      <trkpt lat="45.18735" lon="5.95943">
        <ele>1642.8</ele>
        <time>2026-07-14T12:47:55Z</time>
      </trkpt>
      <trkpt lat="45.18736" lon="5.95943">
        <ele>1642.7</ele>
        <time>2026-07-14T12:47:56Z</time>
      </trkpt>
      <trkpt lat="45.18736" lon="5.95942">
        <ele>1642.6</ele>
        <time>2026-07-14T12:47:57Z</time>
      </trkpt>
      <trkpt lat="45.18737" lon="5.95941">
        <ele>1642.5</ele>
        <time>2026-07-14T12:47:58Z</time>
      </trkpt>
      <trkpt lat="45.18738" lon="5.95941">
        <ele>1642.3</ele>
        <time>2026-07-14T12:47:59Z</time>
      </trkpt>
      <trkpt lat="45.18739" lon="5.9594">
        <ele>1642.2</ele>
        <time>2026-07-14T12:48:00Z</time>
      </trkpt>
      <trkpt lat="45.1874" lon="5.9594">
        <ele>1642</ele>
        <time>2026-07-14T12:48:01Z</time>
      </trkpt>
      <trkpt lat="45.18741" lon="5.9594">
        <ele>1641.9</ele>
        <time>2026-07-14T12:48:02Z</time>
      </trkpt>
      <trkpt lat="45.18742" lon="5.95938">
        <ele>1641.7</ele>
        <time>2026-07-14T12:48:03Z</time>
      </trkpt>
      <trkpt lat="45.18743" lon="5.95938">
        <ele>1641.6</ele>
        <time>2026-07-14T12:48:05Z</time>
      </trkpt>
      <trkpt lat="45.18743" lon="5.95937">
        <ele>1641.5</ele>
        <time>2026-07-14T12:48:06Z</time>
      </trkpt>
      <trkpt lat="45.18743" lon="5.95936">
        <ele>1641.4</ele>
        <time>2026-07-14T12:48:07Z</time>
      </trkpt>
      <trkpt lat="45.18744" lon="5.95934">
        <ele>1641.2</ele>
        <time>2026-07-14T12:48:08Z</time>
      </trkpt>
      <trkpt lat="45.18744" lon="5.95935">
        <ele>1641.2</ele>
        <time>2026-07-14T12:48:09Z</time>
      </trkpt>
      <trkpt lat="45.18744" lon="5.95934">
        <ele>1641.1</ele>
        <time>2026-07-14T12:48:10Z</time>
      </trkpt>
      <trkpt lat="45.18745" lon="5.95935">
        <ele>1641</ele>
        <time>2026-07-14T12:48:12Z</time>
      </trkpt>
      <trkpt lat="45.18745" lon="5.95934">
        <ele>1640.9</ele>
        <time>2026-07-14T12:48:13Z</time>
      </trkpt>
      <trkpt lat="45.18746" lon="5.95933">
        <ele>1640.8</ele>
        <time>2026-07-14T12:48:14Z</time>
      </trkpt>
      <trkpt lat="45.18746" lon="5.95932">
        <ele>1640.7</ele>
        <time>2026-07-14T12:48:15Z</time>
      </trkpt>
      <trkpt lat="45.18747" lon="5.95932">
        <ele>1640.6</ele>
        <time>2026-07-14T12:48:16Z</time>
      </trkpt>
      <trkpt lat="45.18747" lon="5.95931">
        <ele>1640.5</ele>
        <time>2026-07-14T12:48:17Z</time>
      </trkpt>
      <trkpt lat="45.18748" lon="5.95929">
        <ele>1640.3</ele>
        <time>2026-07-14T12:48:18Z</time>
      </trkpt>
      <trkpt lat="45.18748" lon="5.95929">
        <ele>1640.2</ele>
        <time>2026-07-14T12:48:19Z</time>
      </trkpt>
      <trkpt lat="45.18749" lon="5.95928">
        <ele>1640.1</ele>
        <time>2026-07-14T12:48:20Z</time>
      </trkpt>
      <trkpt lat="45.1875" lon="5.95928">
        <ele>1639.9</ele>
        <time>2026-07-14T12:48:21Z</time>
      </trkpt>
      <trkpt lat="45.18751" lon="5.95928">
        <ele>1639.8</ele>
        <time>2026-07-14T12:48:22Z</time>
      </trkpt>
      <trkpt lat="45.18752" lon="5.95926">
        <ele>1639.5</ele>
        <time>2026-07-14T12:48:23Z</time>
      </trkpt>
      <trkpt lat="45.18752" lon="5.95924">
        <ele>1639.4</ele>
        <time>2026-07-14T12:48:25Z</time>
      </trkpt>
      <trkpt lat="45.18752" lon="5.95922">
        <ele>1639.1</ele>
        <time>2026-07-14T12:48:26Z</time>
      </trkpt>
      <trkpt lat="45.18753" lon="5.9592">
        <ele>1638.9</ele>
        <time>2026-07-14T12:48:27Z</time>
      </trkpt>
      <trkpt lat="45.18753" lon="5.95919">
        <ele>1638.8</ele>
        <time>2026-07-14T12:48:28Z</time>
      </trkpt>
      <trkpt lat="45.18753" lon="5.95918">
        <ele>1638.7</ele>
        <time>2026-07-14T12:48:30Z</time>
      </trkpt>
      <trkpt lat="45.18753" lon="5.95917">
        <ele>1638.6</ele>
        <time>2026-07-14T12:48:31Z</time>
      </trkpt>
      <trkpt lat="45.18753" lon="5.95914">
        <ele>1638.2</ele>
        <time>2026-07-14T12:48:32Z</time>
      </trkpt>
      <trkpt lat="45.18753" lon="5.95913">
        <ele>1638.1</ele>
        <time>2026-07-14T12:48:34Z</time>
      </trkpt>
      <trkpt lat="45.18754" lon="5.95912">
        <ele>1638</ele>
        <time>2026-07-14T12:48:35Z</time>
      </trkpt>
      <trkpt lat="45.18754" lon="5.95911">
        <ele>1637.8</ele>
        <time>2026-07-14T12:48:36Z</time>
      </trkpt>
      <trkpt lat="45.18755" lon="5.95909">
        <ele>1637.6</ele>
        <time>2026-07-14T12:48:37Z</time>
      </trkpt>
      <trkpt lat="45.18755" lon="5.95908">
        <ele>1637.4</ele>
        <time>2026-07-14T12:48:38Z</time>
      </trkpt>
      <trkpt lat="45.18756" lon="5.95905">
        <ele>1637.1</ele>
        <time>2026-07-14T12:48:39Z</time>
      </trkpt>
      <trkpt lat="45.18757" lon="5.95904">
        <ele>1636.9</ele>
        <time>2026-07-14T12:48:41Z</time>
      </trkpt>
      <trkpt lat="45.18757" lon="5.95903">
        <ele>1636.8</ele>
        <time>2026-07-14T12:48:42Z</time>
      </trkpt>
      <trkpt lat="45.18757" lon="5.959">
        <ele>1636.6</ele>
        <time>2026-07-14T12:48:43Z</time>
      </trkpt>
      <trkpt lat="45.18757" lon="5.95898">
        <ele>1636.3</ele>
        <time>2026-07-14T12:48:45Z</time>
      </trkpt>
      <trkpt lat="45.18757" lon="5.95898">
        <ele>1636.2</ele>
        <time>2026-07-14T12:48:47Z</time>
      </trkpt>
      <trkpt lat="45.18758" lon="5.95897">
        <ele>1636.1</ele>
        <time>2026-07-14T12:48:48Z</time>
      </trkpt>
      <trkpt lat="45.18758" lon="5.95897">
        <ele>1636.1</ele>
        <time>2026-07-14T12:48:49Z</time>
      </trkpt>
      <trkpt lat="45.18759" lon="5.95897">
        <ele>1636</ele>
        <time>2026-07-14T12:48:50Z</time>
      </trkpt>
      <trkpt lat="45.18759" lon="5.95897">
        <ele>1635.9</ele>
        <time>2026-07-14T12:48:51Z</time>
      </trkpt>
      <trkpt lat="45.18758" lon="5.95898">
        <ele>1635.9</ele>
        <time>2026-07-14T12:48:52Z</time>
      </trkpt>
      <trkpt lat="45.18758" lon="5.95897">
        <ele>1635.9</ele>
        <time>2026-07-14T12:48:53Z</time>
      </trkpt>
      <trkpt lat="45.18758" lon="5.95897">
        <ele>1635.8</ele>
        <time>2026-07-14T12:48:54Z</time>
      </trkpt>
      <trkpt lat="45.18759" lon="5.95897">
        <ele>1635.7</ele>
        <time>2026-07-14T12:48:55Z</time>
      </trkpt>
      <trkpt lat="45.1876" lon="5.95896">
        <ele>1635.5</ele>
        <time>2026-07-14T12:48:57Z</time>
      </trkpt>
      <trkpt lat="45.1876" lon="5.95895">
        <ele>1635.4</ele>
        <time>2026-07-14T12:48:58Z</time>
      </trkpt>
      <trkpt lat="45.1876" lon="5.95893">
        <ele>1635.1</ele>
        <time>2026-07-14T12:48:59Z</time>
      </trkpt>
      <trkpt lat="45.1876" lon="5.95891">
        <ele>1635</ele>
        <time>2026-07-14T12:49:00Z</time>
      </trkpt>
      <trkpt lat="45.18761" lon="5.9589">
        <ele>1634.8</ele>
        <time>2026-07-14T12:49:01Z</time>
      </trkpt>
      <trkpt lat="45.18762" lon="5.95889">
        <ele>1634.6</ele>
        <time>2026-07-14T12:49:02Z</time>
      </trkpt>
      <trkpt lat="45.18763" lon="5.95889">
        <ele>1634.4</ele>
        <time>2026-07-14T12:49:03Z</time>
      </trkpt>
      <trkpt lat="45.18764" lon="5.95888">
        <ele>1634.3</ele>
        <time>2026-07-14T12:49:04Z</time>
      </trkpt>
      <trkpt lat="45.18764" lon="5.95888">
        <ele>1634.2</ele>
        <time>2026-07-14T12:49:05Z</time>
      </trkpt>
      <trkpt lat="45.18765" lon="5.95888">
        <ele>1634.1</ele>
        <time>2026-07-14T12:49:06Z</time>
      </trkpt>
      <trkpt lat="45.18765" lon="5.95887">
        <ele>1634</ele>
        <time>2026-07-14T12:49:07Z</time>
      </trkpt>
      <trkpt lat="45.18766" lon="5.95886">
        <ele>1633.8</ele>
        <time>2026-07-14T12:49:08Z</time>
      </trkpt>
      <trkpt lat="45.18766" lon="5.95885">
        <ele>1633.7</ele>
        <time>2026-07-14T12:49:09Z</time>
      </trkpt>
      <trkpt lat="45.18767" lon="5.95884">
        <ele>1633.5</ele>
        <time>2026-07-14T12:49:10Z</time>
      </trkpt>
      <trkpt lat="45.18767" lon="5.95883">
        <ele>1633.4</ele>
        <time>2026-07-14T12:49:11Z</time>
      </trkpt>
      <trkpt lat="45.18766" lon="5.95881">
        <ele>1633.3</ele>
        <time>2026-07-14T12:49:12Z</time>
      </trkpt>
      <trkpt lat="45.18766" lon="5.95881">
        <ele>1633.2</ele>
        <time>2026-07-14T12:49:13Z</time>
      </trkpt>
      <trkpt lat="45.18766" lon="5.9588">
        <ele>1633.1</ele>
        <time>2026-07-14T12:49:14Z</time>
      </trkpt>
      <trkpt lat="45.18767" lon="5.95879">
        <ele>1633</ele>
        <time>2026-07-14T12:49:15Z</time>
      </trkpt>
      <trkpt lat="45.18767" lon="5.95877">
        <ele>1632.8</ele>
        <time>2026-07-14T12:49:16Z</time>
      </trkpt>
      <trkpt lat="45.18767" lon="5.95876">
        <ele>1632.6</ele>
        <time>2026-07-14T12:49:17Z</time>
      </trkpt>
      <trkpt lat="45.18767" lon="5.95875">
        <ele>1632.5</ele>
        <time>2026-07-14T12:49:19Z</time>
      </trkpt>
      <trkpt lat="45.18767" lon="5.95874">
        <ele>1632.4</ele>
        <time>2026-07-14T12:49:20Z</time>
      </trkpt>
      <trkpt lat="45.18767" lon="5.95873">
        <ele>1632.3</ele>
        <time>2026-07-14T12:49:21Z</time>
      </trkpt>
      <trkpt lat="45.18767" lon="5.95873">
        <ele>1632.2</ele>
        <time>2026-07-14T12:49:22Z</time>
      </trkpt>
      <trkpt lat="45.18767" lon="5.95872">
        <ele>1632.1</ele>
        <time>2026-07-14T12:49:23Z</time>
      </trkpt>
      <trkpt lat="45.18767" lon="5.95871">
        <ele>1632</ele>
        <time>2026-07-14T12:49:25Z</time>
      </trkpt>
      <trkpt lat="45.18768" lon="5.95871">
        <ele>1631.9</ele>
        <time>2026-07-14T12:49:26Z</time>
      </trkpt>
      <trkpt lat="45.18768" lon="5.9587">
        <ele>1631.9</ele>
        <time>2026-07-14T12:49:27Z</time>
      </trkpt>
      <trkpt lat="45.18769" lon="5.9587">
        <ele>1631.8</ele>
        <time>2026-07-14T12:49:28Z</time>
      </trkpt>
      <trkpt lat="45.18769" lon="5.9587">
        <ele>1631.6</ele>
        <time>2026-07-14T12:49:29Z</time>
      </trkpt>
      <trkpt lat="45.1877" lon="5.9587">
        <ele>1631.5</ele>
        <time>2026-07-14T12:49:30Z</time>
      </trkpt>
      <trkpt lat="45.18771" lon="5.95871">
        <ele>1631.3</ele>
        <time>2026-07-14T12:49:31Z</time>
      </trkpt>
      <trkpt lat="45.18773" lon="5.95872">
        <ele>1631.1</ele>
        <time>2026-07-14T12:49:32Z</time>
      </trkpt>
      <trkpt lat="45.18773" lon="5.95872">
        <ele>1630.9</ele>
        <time>2026-07-14T12:49:34Z</time>
      </trkpt>
      <trkpt lat="45.18774" lon="5.95871">
        <ele>1630.7</ele>
        <time>2026-07-14T12:49:35Z</time>
      </trkpt>
      <trkpt lat="45.18775" lon="5.95869">
        <ele>1630.5</ele>
        <time>2026-07-14T12:49:37Z</time>
      </trkpt>
      <trkpt lat="45.18775" lon="5.95868">
        <ele>1630.4</ele>
        <time>2026-07-14T12:49:38Z</time>
      </trkpt>
      <trkpt lat="45.18776" lon="5.95867">
        <ele>1630.2</ele>
        <time>2026-07-14T12:49:39Z</time>
      </trkpt>
      <trkpt lat="45.18776" lon="5.95866">
        <ele>1630.1</ele>
        <time>2026-07-14T12:49:40Z</time>
      </trkpt>
      <trkpt lat="45.18776" lon="5.95865">
        <ele>1630</ele>
        <time>2026-07-14T12:49:41Z</time>
      </trkpt>
      <trkpt lat="45.18776" lon="5.95864">
        <ele>1629.8</ele>
        <time>2026-07-14T12:49:42Z</time>
      </trkpt>
      <trkpt lat="45.18776" lon="5.95863">
        <ele>1629.7</ele>
        <time>2026-07-14T12:49:43Z</time>
      </trkpt>
      <trkpt lat="45.18775" lon="5.95862">
        <ele>1629.5</ele>
        <time>2026-07-14T12:49:44Z</time>
      </trkpt>
      <trkpt lat="45.18775" lon="5.95861">
        <ele>1629.3</ele>
        <time>2026-07-14T12:49:45Z</time>
      </trkpt>
      <trkpt lat="45.18774" lon="5.9586">
        <ele>1629.2</ele>
        <time>2026-07-14T12:49:46Z</time>
      </trkpt>
      <trkpt lat="45.18775" lon="5.95859">
        <ele>1629</ele>
        <time>2026-07-14T12:49:47Z</time>
      </trkpt>
      <trkpt lat="45.18775" lon="5.95858">
        <ele>1628.8</ele>
        <time>2026-07-14T12:49:48Z</time>
      </trkpt>
      <trkpt lat="45.18777" lon="5.95857">
        <ele>1628.5</ele>
        <time>2026-07-14T12:49:49Z</time>
      </trkpt>
      <trkpt lat="45.18778" lon="5.95858">
        <ele>1628.3</ele>
        <time>2026-07-14T12:49:51Z</time>
      </trkpt>
      <trkpt lat="45.18778" lon="5.95858">
        <ele>1628.1</ele>
        <time>2026-07-14T12:49:52Z</time>
      </trkpt>
      <trkpt lat="45.18779" lon="5.95857">
        <ele>1627.9</ele>
        <time>2026-07-14T12:49:53Z</time>
      </trkpt>
      <trkpt lat="45.1878" lon="5.95857">
        <ele>1627.8</ele>
        <time>2026-07-14T12:49:54Z</time>
      </trkpt>
      <trkpt lat="45.18781" lon="5.95857">
        <ele>1627.6</ele>
        <time>2026-07-14T12:49:55Z</time>
      </trkpt>
      <trkpt lat="45.18782" lon="5.95857">
        <ele>1627.4</ele>
        <time>2026-07-14T12:49:56Z</time>
      </trkpt>
      <trkpt lat="45.18783" lon="5.95858">
        <ele>1627.2</ele>
        <time>2026-07-14T12:49:57Z</time>
      </trkpt>
      <trkpt lat="45.18784" lon="5.95858">
        <ele>1627</ele>
        <time>2026-07-14T12:49:58Z</time>
      </trkpt>
      <trkpt lat="45.18784" lon="5.95857">
        <ele>1626.9</ele>
        <time>2026-07-14T12:49:59Z</time>
      </trkpt>
      <trkpt lat="45.18785" lon="5.95855">
        <ele>1626.5</ele>
        <time>2026-07-14T12:50:00Z</time>
      </trkpt>
      <trkpt lat="45.18785" lon="5.95854">
        <ele>1626.3</ele>
        <time>2026-07-14T12:50:01Z</time>
      </trkpt>
      <trkpt lat="45.18784" lon="5.95853">
        <ele>1626.2</ele>
        <time>2026-07-14T12:50:03Z</time>
      </trkpt>
      <trkpt lat="45.18784" lon="5.95852">
        <ele>1626</ele>
        <time>2026-07-14T12:50:04Z</time>
      </trkpt>
      <trkpt lat="45.18784" lon="5.95851">
        <ele>1625.9</ele>
        <time>2026-07-14T12:50:05Z</time>
      </trkpt>
      <trkpt lat="45.18784" lon="5.95851">
        <ele>1625.8</ele>
        <time>2026-07-14T12:50:06Z</time>
      </trkpt>
      <trkpt lat="45.18785" lon="5.9585">
        <ele>1625.7</ele>
        <time>2026-07-14T12:50:07Z</time>
      </trkpt>
      <trkpt lat="45.18785" lon="5.9585">
        <ele>1625.5</ele>
        <time>2026-07-14T12:50:08Z</time>
      </trkpt>
      <trkpt lat="45.18786" lon="5.9585">
        <ele>1625.3</ele>
        <time>2026-07-14T12:50:09Z</time>
      </trkpt>
      <trkpt lat="45.18787" lon="5.9585">
        <ele>1625.1</ele>
        <time>2026-07-14T12:50:10Z</time>
      </trkpt>
      <trkpt lat="45.18788" lon="5.95851">
        <ele>1624.8</ele>
        <time>2026-07-14T12:50:11Z</time>
      </trkpt>
      <trkpt lat="45.18788" lon="5.95851">
        <ele>1624.7</ele>
        <time>2026-07-14T12:50:13Z</time>
      </trkpt>
      <trkpt lat="45.18789" lon="5.95851">
        <ele>1624.6</ele>
        <time>2026-07-14T12:50:14Z</time>
      </trkpt>
      <trkpt lat="45.1879" lon="5.95851">
        <ele>1624.4</ele>
        <time>2026-07-14T12:50:15Z</time>
      </trkpt>
      <trkpt lat="45.1879" lon="5.95852">
        <ele>1624.3</ele>
        <time>2026-07-14T12:50:16Z</time>
      </trkpt>
      <trkpt lat="45.1879" lon="5.95852">
        <ele>1624.2</ele>
        <time>2026-07-14T12:50:17Z</time>
      </trkpt>
      <trkpt lat="45.18791" lon="5.95852">
        <ele>1624</ele>
        <time>2026-07-14T12:50:18Z</time>
      </trkpt>
      <trkpt lat="45.18791" lon="5.95853">
        <ele>1623.9</ele>
        <time>2026-07-14T12:50:19Z</time>
      </trkpt>
      <trkpt lat="45.18791" lon="5.95854">
        <ele>1623.8</ele>
        <time>2026-07-14T12:50:20Z</time>
      </trkpt>
      <trkpt lat="45.18792" lon="5.95854">
        <ele>1623.6</ele>
        <time>2026-07-14T12:50:21Z</time>
      </trkpt>
      <trkpt lat="45.18792" lon="5.95854">
        <ele>1623.6</ele>
        <time>2026-07-14T12:50:23Z</time>
      </trkpt>
      <trkpt lat="45.18792" lon="5.95854">
        <ele>1623.5</ele>
        <time>2026-07-14T12:50:24Z</time>
      </trkpt>
      <trkpt lat="45.18792" lon="5.95855">
        <ele>1623.3</ele>
        <time>2026-07-14T12:50:25Z</time>
      </trkpt>
      <trkpt lat="45.18793" lon="5.95855">
        <ele>1623.2</ele>
        <time>2026-07-14T12:50:26Z</time>
      </trkpt>
      <trkpt lat="45.18793" lon="5.95855">
        <ele>1623.1</ele>
        <time>2026-07-14T12:50:27Z</time>
      </trkpt>
      <trkpt lat="45.18793" lon="5.95855">
        <ele>1623.1</ele>
        <time>2026-07-14T12:50:28Z</time>
      </trkpt>
      <trkpt lat="45.18793" lon="5.95855">
        <ele>1623</ele>
        <time>2026-07-14T12:50:29Z</time>
      </trkpt>
      <trkpt lat="45.18793" lon="5.95855">
        <ele>1623</ele>
        <time>2026-07-14T12:50:30Z</time>
      </trkpt>
      <trkpt lat="45.18793" lon="5.95855">
        <ele>1623</ele>
        <time>2026-07-14T12:50:31Z</time>
      </trkpt>
      <trkpt lat="45.18793" lon="5.95855">
        <ele>1623</ele>
        <time>2026-07-14T12:50:32Z</time>
      </trkpt>
      <trkpt lat="45.18793" lon="5.95855">
        <ele>1622.9</ele>
        <time>2026-07-14T12:50:33Z</time>
      </trkpt>
      <trkpt lat="45.18793" lon="5.95855">
        <ele>1622.8</ele>
        <time>2026-07-14T12:50:34Z</time>
      </trkpt>
      <trkpt lat="45.18793" lon="5.95855">
        <ele>1622.8</ele>
        <time>2026-07-14T12:50:35Z</time>
      </trkpt>
      <trkpt lat="45.18792" lon="5.95855">
        <ele>1622.7</ele>
        <time>2026-07-14T12:50:36Z</time>
      </trkpt>
      <trkpt lat="45.18792" lon="5.95855">
        <ele>1622.6</ele>
        <time>2026-07-14T12:50:37Z</time>
      </trkpt>
      <trkpt lat="45.18792" lon="5.95855">
        <ele>1622.5</ele>
        <time>2026-07-14T12:50:38Z</time>
      </trkpt>
      <trkpt lat="45.18791" lon="5.95855">
        <ele>1622.4</ele>
        <time>2026-07-14T12:50:39Z</time>
      </trkpt>
      <trkpt lat="45.18792" lon="5.95855">
        <ele>1622.4</ele>
        <time>2026-07-14T12:50:40Z</time>
      </trkpt>
      <trkpt lat="45.18791" lon="5.95856">
        <ele>1622.3</ele>
        <time>2026-07-14T12:50:41Z</time>
      </trkpt>
      <trkpt lat="45.18791" lon="5.95856">
        <ele>1622.2</ele>
        <time>2026-07-14T12:50:42Z</time>
      </trkpt>
      <trkpt lat="45.18791" lon="5.95856">
        <ele>1622.2</ele>
        <time>2026-07-14T12:50:44Z</time>
      </trkpt>
      <trkpt lat="45.18791" lon="5.95856">
        <ele>1622.1</ele>
        <time>2026-07-14T12:50:45Z</time>
      </trkpt>
      <trkpt lat="45.18791" lon="5.95856">
        <ele>1622.1</ele>
        <time>2026-07-14T12:50:46Z</time>
      </trkpt>
      <trkpt lat="45.18791" lon="5.95856">
        <ele>1622</ele>
        <time>2026-07-14T12:50:47Z</time>
      </trkpt>
      <trkpt lat="45.18791" lon="5.95856">
        <ele>1622</ele>
        <time>2026-07-14T12:50:48Z</time>
      </trkpt>
      <trkpt lat="45.18791" lon="5.95857">
        <ele>1621.9</ele>
        <time>2026-07-14T12:50:49Z</time>
      </trkpt>
      <trkpt lat="45.18791" lon="5.95857">
        <ele>1621.8</ele>
        <time>2026-07-14T12:50:50Z</time>
      </trkpt>
      <trkpt lat="45.18791" lon="5.95857">
        <ele>1621.8</ele>
        <time>2026-07-14T12:50:51Z</time>
      </trkpt>
      <trkpt lat="45.18791" lon="5.95857">
        <ele>1621.8</ele>
        <time>2026-07-14T12:50:52Z</time>
      </trkpt>
      <trkpt lat="45.1879" lon="5.95857">
        <ele>1621.8</ele>
        <time>2026-07-14T12:50:53Z</time>
      </trkpt>
      <trkpt lat="45.1879" lon="5.95857">
        <ele>1621.8</ele>
        <time>2026-07-14T12:50:54Z</time>
      </trkpt>
      <trkpt lat="45.18791" lon="5.95857">
        <ele>1621.7</ele>
        <time>2026-07-14T12:50:55Z</time>
      </trkpt>
      <trkpt lat="45.18791" lon="5.95857">
        <ele>1621.7</ele>
        <time>2026-07-14T12:50:56Z</time>
      </trkpt>
      <trkpt lat="45.18791" lon="5.95857">
        <ele>1621.6</ele>
        <time>2026-07-14T12:50:57Z</time>
      </trkpt>
      <trkpt lat="45.18791" lon="5.95857">
        <ele>1621.6</ele>
        <time>2026-07-14T12:50:58Z</time>
      </trkpt>
      <trkpt lat="45.18791" lon="5.95857">
        <ele>1621.6</ele>
        <time>2026-07-14T12:50:59Z</time>
      </trkpt>
      <trkpt lat="45.18791" lon="5.95857">
        <ele>1621.6</ele>
        <time>2026-07-14T12:51:00Z</time>
      </trkpt>
      <trkpt lat="45.18791" lon="5.95857">
        <ele>1621.6</ele>
        <time>2026-07-14T12:51:01Z</time>
      </trkpt>
      <trkpt lat="45.18791" lon="5.95857">
        <ele>1621.5</ele>
        <time>2026-07-14T12:51:02Z</time>
      </trkpt>
      <trkpt lat="45.18791" lon="5.95857">
        <ele>1621.5</ele>
        <time>2026-07-14T12:51:03Z</time>
      </trkpt>
      <trkpt lat="45.18791" lon="5.95856">
        <ele>1621.5</ele>
        <time>2026-07-14T12:51:04Z</time>
      </trkpt>
      <trkpt lat="45.18791" lon="5.95856">
        <ele>1621.4</ele>
        <time>2026-07-14T12:51:05Z</time>
      </trkpt>
      <trkpt lat="45.18791" lon="5.95856">
        <ele>1621.4</ele>
        <time>2026-07-14T12:51:06Z</time>
      </trkpt>
      <trkpt lat="45.18791" lon="5.95856">
        <ele>1621.3</ele>
        <time>2026-07-14T12:51:07Z</time>
      </trkpt>
      <trkpt lat="45.18792" lon="5.95856">
        <ele>1621.3</ele>
        <time>2026-07-14T12:51:08Z</time>
      </trkpt>
      <trkpt lat="45.18792" lon="5.95856">
        <ele>1621.2</ele>
        <time>2026-07-14T12:51:09Z</time>
      </trkpt>
      <trkpt lat="45.18792" lon="5.95856">
        <ele>1621.1</ele>
        <time>2026-07-14T12:51:10Z</time>
      </trkpt>
      <trkpt lat="45.18792" lon="5.95856">
        <ele>1621.1</ele>
        <time>2026-07-14T12:51:11Z</time>
      </trkpt>
      <trkpt lat="45.18793" lon="5.95855">
        <ele>1621</ele>
        <time>2026-07-14T12:51:12Z</time>
      </trkpt>
      <trkpt lat="45.18793" lon="5.95855">
        <ele>1620.9</ele>
        <time>2026-07-14T12:51:13Z</time>
      </trkpt>
      <trkpt lat="45.18793" lon="5.95855">
        <ele>1620.8</ele>
        <time>2026-07-14T12:51:14Z</time>
      </trkpt>
      <trkpt lat="45.18793" lon="5.95854">
        <ele>1620.7</ele>
        <time>2026-07-14T12:51:15Z</time>
      </trkpt>
      <trkpt lat="45.18793" lon="5.95852">
        <ele>1620.3</ele>
        <time>2026-07-14T12:51:16Z</time>
      </trkpt>
      <trkpt lat="45.18794" lon="5.95851">
        <ele>1619.9</ele>
        <time>2026-07-14T12:51:17Z</time>
      </trkpt>
      <trkpt lat="45.18795" lon="5.95849">
        <ele>1619.5</ele>
        <time>2026-07-14T12:51:18Z</time>
      </trkpt>
      <trkpt lat="45.18796" lon="5.95848">
        <ele>1619.2</ele>
        <time>2026-07-14T12:51:19Z</time>
      </trkpt>
      <trkpt lat="45.18796" lon="5.95848">
        <ele>1619</ele>
        <time>2026-07-14T12:51:20Z</time>
      </trkpt>
      <trkpt lat="45.18797" lon="5.95848">
        <ele>1618.7</ele>
        <time>2026-07-14T12:51:21Z</time>
      </trkpt>
      <trkpt lat="45.18798" lon="5.95848">
        <ele>1618.5</ele>
        <time>2026-07-14T12:51:22Z</time>
      </trkpt>
      <trkpt lat="45.18798" lon="5.95849">
        <ele>1618.2</ele>
        <time>2026-07-14T12:51:23Z</time>
      </trkpt>
      <trkpt lat="45.18799" lon="5.95849">
        <ele>1617.9</ele>
        <time>2026-07-14T12:51:24Z</time>
      </trkpt>
      <trkpt lat="45.188" lon="5.95848">
        <ele>1617.6</ele>
        <time>2026-07-14T12:51:26Z</time>
      </trkpt>
      <trkpt lat="45.188" lon="5.95847">
        <ele>1617.2</ele>
        <time>2026-07-14T12:51:27Z</time>
      </trkpt>
      <trkpt lat="45.188" lon="5.95845">
        <ele>1616.9</ele>
        <time>2026-07-14T12:51:28Z</time>
      </trkpt>
      <trkpt lat="45.18799" lon="5.95844">
        <ele>1616.6</ele>
        <time>2026-07-14T12:51:29Z</time>
      </trkpt>
      <trkpt lat="45.18799" lon="5.95843">
        <ele>1616.3</ele>
        <time>2026-07-14T12:51:30Z</time>
      </trkpt>
      <trkpt lat="45.18798" lon="5.95842">
        <ele>1616</ele>
        <time>2026-07-14T12:51:31Z</time>
      </trkpt>
      <trkpt lat="45.18798" lon="5.95841">
        <ele>1615.8</ele>
        <time>2026-07-14T12:51:32Z</time>
      </trkpt>
      <trkpt lat="45.18798" lon="5.95839">
        <ele>1615.3</ele>
        <time>2026-07-14T12:51:33Z</time>
      </trkpt>
      <trkpt lat="45.18799" lon="5.95839">
        <ele>1615.1</ele>
        <time>2026-07-14T12:51:35Z</time>
      </trkpt>
      <trkpt lat="45.18798" lon="5.95838">
        <ele>1614.9</ele>
        <time>2026-07-14T12:51:36Z</time>
      </trkpt>
      <trkpt lat="45.18798" lon="5.95837">
        <ele>1614.6</ele>
        <time>2026-07-14T12:51:37Z</time>
      </trkpt>
      <trkpt lat="45.18798" lon="5.95836">
        <ele>1614.4</ele>
        <time>2026-07-14T12:51:38Z</time>
      </trkpt>
      <trkpt lat="45.18797" lon="5.95835">
        <ele>1614.2</ele>
        <time>2026-07-14T12:51:39Z</time>
      </trkpt>
      <trkpt lat="45.18798" lon="5.95834">
        <ele>1614</ele>
        <time>2026-07-14T12:51:40Z</time>
      </trkpt>
      <trkpt lat="45.18798" lon="5.95834">
        <ele>1613.9</ele>
        <time>2026-07-14T12:51:41Z</time>
      </trkpt>
      <trkpt lat="45.18799" lon="5.95834">
        <ele>1613.6</ele>
        <time>2026-07-14T12:51:42Z</time>
      </trkpt>
      <trkpt lat="45.188" lon="5.95835">
        <ele>1613.3</ele>
        <time>2026-07-14T12:51:43Z</time>
      </trkpt>
      <trkpt lat="45.188" lon="5.95835">
        <ele>1613</ele>
        <time>2026-07-14T12:51:44Z</time>
      </trkpt>
      <trkpt lat="45.18801" lon="5.95836">
        <ele>1612.8</ele>
        <time>2026-07-14T12:51:45Z</time>
      </trkpt>
      <trkpt lat="45.18801" lon="5.95836">
        <ele>1612.6</ele>
        <time>2026-07-14T12:51:46Z</time>
      </trkpt>
      <trkpt lat="45.18802" lon="5.95837">
        <ele>1612.4</ele>
        <time>2026-07-14T12:51:47Z</time>
      </trkpt>
      <trkpt lat="45.18803" lon="5.95838">
        <ele>1612.1</ele>
        <time>2026-07-14T12:51:48Z</time>
      </trkpt>
      <trkpt lat="45.18803" lon="5.95838">
        <ele>1611.9</ele>
        <time>2026-07-14T12:51:49Z</time>
      </trkpt>
      <trkpt lat="45.18803" lon="5.95839">
        <ele>1611.6</ele>
        <time>2026-07-14T12:51:50Z</time>
      </trkpt>
      <trkpt lat="45.18803" lon="5.95841">
        <ele>1611.3</ele>
        <time>2026-07-14T12:51:51Z</time>
      </trkpt>
      <trkpt lat="45.18803" lon="5.95842">
        <ele>1611.1</ele>
        <time>2026-07-14T12:51:52Z</time>
      </trkpt>
      <trkpt lat="45.18803" lon="5.95843">
        <ele>1610.8</ele>
        <time>2026-07-14T12:51:53Z</time>
      </trkpt>
      <trkpt lat="45.18804" lon="5.95843">
        <ele>1610.6</ele>
        <time>2026-07-14T12:51:54Z</time>
      </trkpt>
      <trkpt lat="45.18804" lon="5.95844">
        <ele>1610.5</ele>
        <time>2026-07-14T12:51:55Z</time>
      </trkpt>
      <trkpt lat="45.18804" lon="5.95844">
        <ele>1610.3</ele>
        <time>2026-07-14T12:51:56Z</time>
      </trkpt>
      <trkpt lat="45.18805" lon="5.95844">
        <ele>1610.2</ele>
        <time>2026-07-14T12:51:57Z</time>
      </trkpt>
      <trkpt lat="45.18805" lon="5.95843">
        <ele>1610</ele>
        <time>2026-07-14T12:51:58Z</time>
      </trkpt>
      <trkpt lat="45.18806" lon="5.95843">
        <ele>1609.8</ele>
        <time>2026-07-14T12:51:59Z</time>
      </trkpt>
      <trkpt lat="45.18807" lon="5.95843">
        <ele>1609.6</ele>
        <time>2026-07-14T12:52:00Z</time>
      </trkpt>
      <trkpt lat="45.18807" lon="5.95842">
        <ele>1609.3</ele>
        <time>2026-07-14T12:52:01Z</time>
      </trkpt>
      <trkpt lat="45.18808" lon="5.95842">
        <ele>1609.2</ele>
        <time>2026-07-14T12:52:02Z</time>
      </trkpt>
      <trkpt lat="45.18808" lon="5.95841">
        <ele>1609.1</ele>
        <time>2026-07-14T12:52:03Z</time>
      </trkpt>
      <trkpt lat="45.18808" lon="5.95841">
        <ele>1609</ele>
        <time>2026-07-14T12:52:05Z</time>
      </trkpt>
      <trkpt lat="45.18808" lon="5.95841">
        <ele>1609</ele>
        <time>2026-07-14T12:52:06Z</time>
      </trkpt>
      <trkpt lat="45.18808" lon="5.95841">
        <ele>1608.9</ele>
        <time>2026-07-14T12:52:07Z</time>
      </trkpt>
      <trkpt lat="45.18808" lon="5.95841">
        <ele>1608.9</ele>
        <time>2026-07-14T12:52:08Z</time>
      </trkpt>
      <trkpt lat="45.18808" lon="5.9584">
        <ele>1608.7</ele>
        <time>2026-07-14T12:52:09Z</time>
      </trkpt>
      <trkpt lat="45.18808" lon="5.95839">
        <ele>1608.6</ele>
        <time>2026-07-14T12:52:10Z</time>
      </trkpt>
      <trkpt lat="45.18809" lon="5.95838">
        <ele>1608.2</ele>
        <time>2026-07-14T12:52:11Z</time>
      </trkpt>
      <trkpt lat="45.18809" lon="5.95836">
        <ele>1607.8</ele>
        <time>2026-07-14T12:52:13Z</time>
      </trkpt>
      <trkpt lat="45.18808" lon="5.95834">
        <ele>1607.4</ele>
        <time>2026-07-14T12:52:14Z</time>
      </trkpt>
      <trkpt lat="45.18808" lon="5.95833">
        <ele>1607.2</ele>
        <time>2026-07-14T12:52:16Z</time>
      </trkpt>
      <trkpt lat="45.18809" lon="5.95833">
        <ele>1607.1</ele>
        <time>2026-07-14T12:52:17Z</time>
      </trkpt>
      <trkpt lat="45.18809" lon="5.95833">
        <ele>1607</ele>
        <time>2026-07-14T12:52:18Z</time>
      </trkpt>
      <trkpt lat="45.1881" lon="5.95834">
        <ele>1606.8</ele>
        <time>2026-07-14T12:52:19Z</time>
      </trkpt>
      <trkpt lat="45.1881" lon="5.95834">
        <ele>1606.6</ele>
        <time>2026-07-14T12:52:20Z</time>
      </trkpt>
      <trkpt lat="45.1881" lon="5.95835">
        <ele>1606.4</ele>
        <time>2026-07-14T12:52:21Z</time>
      </trkpt>
      <trkpt lat="45.18811" lon="5.95835">
        <ele>1606.3</ele>
        <time>2026-07-14T12:52:22Z</time>
      </trkpt>
      <trkpt lat="45.18811" lon="5.95836">
        <ele>1606.1</ele>
        <time>2026-07-14T12:52:23Z</time>
      </trkpt>
      <trkpt lat="45.18812" lon="5.95836">
        <ele>1605.9</ele>
        <time>2026-07-14T12:52:24Z</time>
      </trkpt>
      <trkpt lat="45.18812" lon="5.95837">
        <ele>1605.6</ele>
        <time>2026-07-14T12:52:25Z</time>
      </trkpt>
      <trkpt lat="45.18813" lon="5.95838">
        <ele>1605.4</ele>
        <time>2026-07-14T12:52:26Z</time>
      </trkpt>
      <trkpt lat="45.18813" lon="5.95839">
        <ele>1605.2</ele>
        <time>2026-07-14T12:52:28Z</time>
      </trkpt>
      <trkpt lat="45.18813" lon="5.95839">
        <ele>1605.1</ele>
        <time>2026-07-14T12:52:29Z</time>
      </trkpt>
      <trkpt lat="45.18814" lon="5.9584">
        <ele>1604.9</ele>
        <time>2026-07-14T12:52:30Z</time>
      </trkpt>
      <trkpt lat="45.18814" lon="5.9584">
        <ele>1604.8</ele>
        <time>2026-07-14T12:52:31Z</time>
      </trkpt>
      <trkpt lat="45.18815" lon="5.9584">
        <ele>1604.6</ele>
        <time>2026-07-14T12:52:32Z</time>
      </trkpt>
      <trkpt lat="45.18815" lon="5.9584">
        <ele>1604.5</ele>
        <time>2026-07-14T12:52:33Z</time>
      </trkpt>
      <trkpt lat="45.18816" lon="5.9584">
        <ele>1604.2</ele>
        <time>2026-07-14T12:52:34Z</time>
      </trkpt>
      <trkpt lat="45.18816" lon="5.9584">
        <ele>1604</ele>
        <time>2026-07-14T12:52:35Z</time>
      </trkpt>
      <trkpt lat="45.18817" lon="5.9584">
        <ele>1603.9</ele>
        <time>2026-07-14T12:52:36Z</time>
      </trkpt>
      <trkpt lat="45.18817" lon="5.95839">
        <ele>1603.6</ele>
        <time>2026-07-14T12:52:37Z</time>
      </trkpt>
      <trkpt lat="45.18817" lon="5.95838">
        <ele>1603.4</ele>
        <time>2026-07-14T12:52:38Z</time>
      </trkpt>
      <trkpt lat="45.18818" lon="5.95837">
        <ele>1603.1</ele>
        <time>2026-07-14T12:52:39Z</time>
      </trkpt>
      <trkpt lat="45.18818" lon="5.95836">
        <ele>1603</ele>
        <time>2026-07-14T12:52:40Z</time>
      </trkpt>
      <trkpt lat="45.18818" lon="5.95835">
        <ele>1602.8</ele>
        <time>2026-07-14T12:52:41Z</time>
      </trkpt>
      <trkpt lat="45.18818" lon="5.95834">
        <ele>1602.6</ele>
        <time>2026-07-14T12:52:42Z</time>
      </trkpt>
      <trkpt lat="45.18817" lon="5.95833">
        <ele>1602.3</ele>
        <time>2026-07-14T12:52:43Z</time>
      </trkpt>
      <trkpt lat="45.18817" lon="5.95832">
        <ele>1602</ele>
        <time>2026-07-14T12:52:44Z</time>
      </trkpt>
      <trkpt lat="45.18818" lon="5.95832">
        <ele>1601.9</ele>
        <time>2026-07-14T12:52:45Z</time>
      </trkpt>
      <trkpt lat="45.18818" lon="5.95832">
        <ele>1601.7</ele>
        <time>2026-07-14T12:52:46Z</time>
      </trkpt>
      <trkpt lat="45.18819" lon="5.95832">
        <ele>1601.5</ele>
        <time>2026-07-14T12:52:47Z</time>
      </trkpt>
      <trkpt lat="45.1882" lon="5.95832">
        <ele>1601.3</ele>
        <time>2026-07-14T12:52:48Z</time>
      </trkpt>
      <trkpt lat="45.1882" lon="5.95832">
        <ele>1601.2</ele>
        <time>2026-07-14T12:52:49Z</time>
      </trkpt>
      <trkpt lat="45.18821" lon="5.95832">
        <ele>1601</ele>
        <time>2026-07-14T12:52:50Z</time>
      </trkpt>
      <trkpt lat="45.18821" lon="5.95832">
        <ele>1600.7</ele>
        <time>2026-07-14T12:52:51Z</time>
      </trkpt>
      <trkpt lat="45.18821" lon="5.95832">
        <ele>1600.7</ele>
        <time>2026-07-14T12:52:52Z</time>
      </trkpt>
      <trkpt lat="45.18821" lon="5.95831">
        <ele>1600.5</ele>
        <time>2026-07-14T12:52:53Z</time>
      </trkpt>
      <trkpt lat="45.18822" lon="5.95831">
        <ele>1600.4</ele>
        <time>2026-07-14T12:52:54Z</time>
      </trkpt>
      <trkpt lat="45.18822" lon="5.9583">
        <ele>1600.1</ele>
        <time>2026-07-14T12:52:55Z</time>
      </trkpt>
      <trkpt lat="45.18822" lon="5.9583">
        <ele>1600.1</ele>
        <time>2026-07-14T12:52:56Z</time>
      </trkpt>
      <trkpt lat="45.18822" lon="5.95829">
        <ele>1599.8</ele>
        <time>2026-07-14T12:52:57Z</time>
      </trkpt>
      <trkpt lat="45.18821" lon="5.95828">
        <ele>1599.6</ele>
        <time>2026-07-14T12:52:58Z</time>
      </trkpt>
      <trkpt lat="45.1882" lon="5.95828">
        <ele>1599.2</ele>
        <time>2026-07-14T12:52:59Z</time>
      </trkpt>
      <trkpt lat="45.18819" lon="5.95827">
        <ele>1598.9</ele>
        <time>2026-07-14T12:53:00Z</time>
      </trkpt>
      <trkpt lat="45.18819" lon="5.95826">
        <ele>1598.7</ele>
        <time>2026-07-14T12:53:02Z</time>
      </trkpt>
      <trkpt lat="45.18818" lon="5.95825">
        <ele>1598.4</ele>
        <time>2026-07-14T12:53:03Z</time>
      </trkpt>
      <trkpt lat="45.18818" lon="5.95824">
        <ele>1598.1</ele>
        <time>2026-07-14T12:53:04Z</time>
      </trkpt>
      <trkpt lat="45.18817" lon="5.95823">
        <ele>1597.9</ele>
        <time>2026-07-14T12:53:05Z</time>
      </trkpt>
      <trkpt lat="45.18817" lon="5.95823">
        <ele>1597.7</ele>
        <time>2026-07-14T12:53:06Z</time>
      </trkpt>
      <trkpt lat="45.18816" lon="5.95821">
        <ele>1597.3</ele>
        <time>2026-07-14T12:53:07Z</time>
      </trkpt>
      <trkpt lat="45.18815" lon="5.95819">
        <ele>1596.8</ele>
        <time>2026-07-14T12:53:09Z</time>
      </trkpt>
      <trkpt lat="45.18816" lon="5.95818">
        <ele>1596.5</ele>
        <time>2026-07-14T12:53:11Z</time>
      </trkpt>
      <trkpt lat="45.18816" lon="5.95817">
        <ele>1596.2</ele>
        <time>2026-07-14T12:53:12Z</time>
      </trkpt>
      <trkpt lat="45.18816" lon="5.95817">
        <ele>1596.1</ele>
        <time>2026-07-14T12:53:14Z</time>
      </trkpt>
      <trkpt lat="45.18815" lon="5.95816">
        <ele>1595.8</ele>
        <time>2026-07-14T12:53:15Z</time>
      </trkpt>
      <trkpt lat="45.18815" lon="5.95815">
        <ele>1595.7</ele>
        <time>2026-07-14T12:53:16Z</time>
      </trkpt>
      <trkpt lat="45.18815" lon="5.95815">
        <ele>1595.6</ele>
        <time>2026-07-14T12:53:17Z</time>
      </trkpt>
      <trkpt lat="45.18816" lon="5.95815">
        <ele>1595.5</ele>
        <time>2026-07-14T12:53:19Z</time>
      </trkpt>
      <trkpt lat="45.18816" lon="5.95815">
        <ele>1595.5</ele>
        <time>2026-07-14T12:53:20Z</time>
      </trkpt>
      <trkpt lat="45.18816" lon="5.95815">
        <ele>1595.4</ele>
        <time>2026-07-14T12:53:21Z</time>
      </trkpt>
      <trkpt lat="45.18816" lon="5.95815">
        <ele>1595.3</ele>
        <time>2026-07-14T12:53:22Z</time>
      </trkpt>
      <trkpt lat="45.18816" lon="5.95815">
        <ele>1595.1</ele>
        <time>2026-07-14T12:53:23Z</time>
      </trkpt>
      <trkpt lat="45.18817" lon="5.95816">
        <ele>1595</ele>
        <time>2026-07-14T12:53:24Z</time>
      </trkpt>
      <trkpt lat="45.18817" lon="5.95816">
        <ele>1594.8</ele>
        <time>2026-07-14T12:53:25Z</time>
      </trkpt>
      <trkpt lat="45.18818" lon="5.95817">
        <ele>1594.5</ele>
        <time>2026-07-14T12:53:26Z</time>
      </trkpt>
      <trkpt lat="45.18819" lon="5.95818">
        <ele>1594.2</ele>
        <time>2026-07-14T12:53:27Z</time>
      </trkpt>
      <trkpt lat="45.1882" lon="5.95818">
        <ele>1593.9</ele>
        <time>2026-07-14T12:53:28Z</time>
      </trkpt>
      <trkpt lat="45.18821" lon="5.95818">
        <ele>1593.6</ele>
        <time>2026-07-14T12:53:29Z</time>
      </trkpt>
      <trkpt lat="45.18822" lon="5.95818">
        <ele>1593.3</ele>
        <time>2026-07-14T12:53:30Z</time>
      </trkpt>
      <trkpt lat="45.18822" lon="5.95818">
        <ele>1593</ele>
        <time>2026-07-14T12:53:31Z</time>
      </trkpt>
      <trkpt lat="45.18822" lon="5.95817">
        <ele>1592.8</ele>
        <time>2026-07-14T12:53:32Z</time>
      </trkpt>
      <trkpt lat="45.18822" lon="5.95816">
        <ele>1592.6</ele>
        <time>2026-07-14T12:53:33Z</time>
      </trkpt>
      <trkpt lat="45.18821" lon="5.95816">
        <ele>1592.4</ele>
        <time>2026-07-14T12:53:34Z</time>
      </trkpt>
      <trkpt lat="45.18821" lon="5.95817">
        <ele>1592.3</ele>
        <time>2026-07-14T12:53:35Z</time>
      </trkpt>
      <trkpt lat="45.18821" lon="5.95817">
        <ele>1592.2</ele>
        <time>2026-07-14T12:53:36Z</time>
      </trkpt>
      <trkpt lat="45.18821" lon="5.95816">
        <ele>1592.2</ele>
        <time>2026-07-14T12:53:37Z</time>
      </trkpt>
      <trkpt lat="45.18821" lon="5.95816">
        <ele>1592.2</ele>
        <time>2026-07-14T12:53:38Z</time>
      </trkpt>
      <trkpt lat="45.18822" lon="5.95816">
        <ele>1592</ele>
        <time>2026-07-14T12:53:39Z</time>
      </trkpt>
      <trkpt lat="45.18822" lon="5.95815">
        <ele>1591.7</ele>
        <time>2026-07-14T12:53:40Z</time>
      </trkpt>
      <trkpt lat="45.18823" lon="5.95815">
        <ele>1591.4</ele>
        <time>2026-07-14T12:53:41Z</time>
      </trkpt>
      <trkpt lat="45.18824" lon="5.95814">
        <ele>1591.1</ele>
        <time>2026-07-14T12:53:42Z</time>
      </trkpt>
      <trkpt lat="45.18825" lon="5.95813">
        <ele>1590.8</ele>
        <time>2026-07-14T12:53:43Z</time>
      </trkpt>
      <trkpt lat="45.18825" lon="5.95813">
        <ele>1590.6</ele>
        <time>2026-07-14T12:53:44Z</time>
      </trkpt>
      <trkpt lat="45.18825" lon="5.95812">
        <ele>1590.5</ele>
        <time>2026-07-14T12:53:45Z</time>
      </trkpt>
      <trkpt lat="45.18825" lon="5.95811">
        <ele>1590.3</ele>
        <time>2026-07-14T12:53:46Z</time>
      </trkpt>
      <trkpt lat="45.18824" lon="5.95811">
        <ele>1590.2</ele>
        <time>2026-07-14T12:53:47Z</time>
      </trkpt>
      <trkpt lat="45.18824" lon="5.9581">
        <ele>1590</ele>
        <time>2026-07-14T12:53:48Z</time>
      </trkpt>
      <trkpt lat="45.18824" lon="5.9581">
        <ele>1589.9</ele>
        <time>2026-07-14T12:53:49Z</time>
      </trkpt>
      <trkpt lat="45.18823" lon="5.95809">
        <ele>1589.7</ele>
        <time>2026-07-14T12:53:50Z</time>
      </trkpt>
      <trkpt lat="45.18823" lon="5.95807">
        <ele>1589.2</ele>
        <time>2026-07-14T12:53:51Z</time>
      </trkpt>
      <trkpt lat="45.18823" lon="5.95806">
        <ele>1589.1</ele>
        <time>2026-07-14T12:53:53Z</time>
      </trkpt>
      <trkpt lat="45.18824" lon="5.95806">
        <ele>1588.6</ele>
        <time>2026-07-14T12:53:54Z</time>
      </trkpt>
      <trkpt lat="45.18825" lon="5.95806">
        <ele>1588.4</ele>
        <time>2026-07-14T12:53:56Z</time>
      </trkpt>
      <trkpt lat="45.18826" lon="5.95806">
        <ele>1588.2</ele>
        <time>2026-07-14T12:53:57Z</time>
      </trkpt>
      <trkpt lat="45.18826" lon="5.95806">
        <ele>1587.9</ele>
        <time>2026-07-14T12:53:58Z</time>
      </trkpt>
      <trkpt lat="45.18827" lon="5.95805">
        <ele>1587.7</ele>
        <time>2026-07-14T12:53:59Z</time>
      </trkpt>
      <trkpt lat="45.18827" lon="5.95804">
        <ele>1587.5</ele>
        <time>2026-07-14T12:54:00Z</time>
      </trkpt>
      <trkpt lat="45.18826" lon="5.95803">
        <ele>1587.2</ele>
        <time>2026-07-14T12:54:01Z</time>
      </trkpt>
      <trkpt lat="45.18826" lon="5.95803">
        <ele>1587.1</ele>
        <time>2026-07-14T12:54:03Z</time>
      </trkpt>
      <trkpt lat="45.18826" lon="5.95803">
        <ele>1587.1</ele>
        <time>2026-07-14T12:54:04Z</time>
      </trkpt>
      <trkpt lat="45.18826" lon="5.95803">
        <ele>1587</ele>
        <time>2026-07-14T12:54:05Z</time>
      </trkpt>
      <trkpt lat="45.18825" lon="5.95801">
        <ele>1586.6</ele>
        <time>2026-07-14T12:54:06Z</time>
      </trkpt>
      <trkpt lat="45.18825" lon="5.958">
        <ele>1586.4</ele>
        <time>2026-07-14T12:54:07Z</time>
      </trkpt>
      <trkpt lat="45.18825" lon="5.958">
        <ele>1586.2</ele>
        <time>2026-07-14T12:54:09Z</time>
      </trkpt>
      <trkpt lat="45.18825" lon="5.958">
        <ele>1586.2</ele>
        <time>2026-07-14T12:54:10Z</time>
      </trkpt>
      <trkpt lat="45.18825" lon="5.95799">
        <ele>1586.2</ele>
        <time>2026-07-14T12:54:11Z</time>
      </trkpt>
      <trkpt lat="45.18825" lon="5.95799">
        <ele>1586.1</ele>
        <time>2026-07-14T12:54:12Z</time>
      </trkpt>
      <trkpt lat="45.18825" lon="5.95799">
        <ele>1586</ele>
        <time>2026-07-14T12:54:13Z</time>
      </trkpt>
      <trkpt lat="45.18826" lon="5.95798">
        <ele>1585.8</ele>
        <time>2026-07-14T12:54:14Z</time>
      </trkpt>
      <trkpt lat="45.18826" lon="5.95798">
        <ele>1585.8</ele>
        <time>2026-07-14T12:54:15Z</time>
      </trkpt>
      <trkpt lat="45.18827" lon="5.95797">
        <ele>1585.3</ele>
        <time>2026-07-14T12:54:16Z</time>
      </trkpt>
      <trkpt lat="45.18827" lon="5.95796">
        <ele>1585.2</ele>
        <time>2026-07-14T12:54:18Z</time>
      </trkpt>
      <trkpt lat="45.18827" lon="5.95795">
        <ele>1584.9</ele>
        <time>2026-07-14T12:54:19Z</time>
      </trkpt>
      <trkpt lat="45.18827" lon="5.95794">
        <ele>1584.7</ele>
        <time>2026-07-14T12:54:20Z</time>
      </trkpt>
      <trkpt lat="45.18828" lon="5.95793">
        <ele>1584.5</ele>
        <time>2026-07-14T12:54:21Z</time>
      </trkpt>
      <trkpt lat="45.18828" lon="5.95793">
        <ele>1584.4</ele>
        <time>2026-07-14T12:54:22Z</time>
      </trkpt>
      <trkpt lat="45.18828" lon="5.95793">
        <ele>1584.3</ele>
        <time>2026-07-14T12:54:23Z</time>
      </trkpt>
      <trkpt lat="45.18828" lon="5.95792">
        <ele>1584.1</ele>
        <time>2026-07-14T12:54:24Z</time>
      </trkpt>
      <trkpt lat="45.18829" lon="5.95791">
        <ele>1584</ele>
        <time>2026-07-14T12:54:25Z</time>
      </trkpt>
      <trkpt lat="45.18829" lon="5.95789">
        <ele>1583.5</ele>
        <time>2026-07-14T12:54:26Z</time>
      </trkpt>
      <trkpt lat="45.18828" lon="5.95788">
        <ele>1583.2</ele>
        <time>2026-07-14T12:54:28Z</time>
      </trkpt>
      <trkpt lat="45.18826" lon="5.95785">
        <ele>1582.6</ele>
        <time>2026-07-14T12:54:29Z</time>
      </trkpt>
      <trkpt lat="45.18826" lon="5.95784">
        <ele>1582.3</ele>
        <time>2026-07-14T12:54:31Z</time>
      </trkpt>
      <trkpt lat="45.18825" lon="5.95783">
        <ele>1582.1</ele>
        <time>2026-07-14T12:54:32Z</time>
      </trkpt>
      <trkpt lat="45.18825" lon="5.95781">
        <ele>1581.8</ele>
        <time>2026-07-14T12:54:33Z</time>
      </trkpt>
      <trkpt lat="45.18825" lon="5.9578">
        <ele>1581.6</ele>
        <time>2026-07-14T12:54:34Z</time>
      </trkpt>
      <trkpt lat="45.18825" lon="5.95779">
        <ele>1581.5</ele>
        <time>2026-07-14T12:54:35Z</time>
      </trkpt>
      <trkpt lat="45.18825" lon="5.95778">
        <ele>1581.3</ele>
        <time>2026-07-14T12:54:36Z</time>
      </trkpt>
      <trkpt lat="45.18826" lon="5.95777">
        <ele>1581.1</ele>
        <time>2026-07-14T12:54:37Z</time>
      </trkpt>
      <trkpt lat="45.18827" lon="5.95775">
        <ele>1580.9</ele>
        <time>2026-07-14T12:54:38Z</time>
      </trkpt>
      <trkpt lat="45.18827" lon="5.95773">
        <ele>1580.6</ele>
        <time>2026-07-14T12:54:39Z</time>
      </trkpt>
      <trkpt lat="45.18827" lon="5.95772">
        <ele>1580.5</ele>
        <time>2026-07-14T12:54:41Z</time>
      </trkpt>
      <trkpt lat="45.18827" lon="5.95771">
        <ele>1580.4</ele>
        <time>2026-07-14T12:54:42Z</time>
      </trkpt>
      <trkpt lat="45.18827" lon="5.9577">
        <ele>1580.3</ele>
        <time>2026-07-14T12:54:43Z</time>
      </trkpt>
      <trkpt lat="45.18827" lon="5.95769">
        <ele>1580.2</ele>
        <time>2026-07-14T12:54:44Z</time>
      </trkpt>
      <trkpt lat="45.18828" lon="5.95768">
        <ele>1580</ele>
        <time>2026-07-14T12:54:45Z</time>
      </trkpt>
      <trkpt lat="45.18828" lon="5.95767">
        <ele>1580</ele>
        <time>2026-07-14T12:54:46Z</time>
      </trkpt>
      <trkpt lat="45.18828" lon="5.95766">
        <ele>1579.9</ele>
        <time>2026-07-14T12:54:47Z</time>
      </trkpt>
      <trkpt lat="45.18829" lon="5.95765">
        <ele>1579.8</ele>
        <time>2026-07-14T12:54:48Z</time>
      </trkpt>
      <trkpt lat="45.1883" lon="5.95763">
        <ele>1579.6</ele>
        <time>2026-07-14T12:54:49Z</time>
      </trkpt>
      <trkpt lat="45.1883" lon="5.95761">
        <ele>1579.4</ele>
        <time>2026-07-14T12:54:51Z</time>
      </trkpt>
      <trkpt lat="45.18831" lon="5.9576">
        <ele>1579.4</ele>
        <time>2026-07-14T12:54:53Z</time>
      </trkpt>
      <trkpt lat="45.18831" lon="5.95759">
        <ele>1579.3</ele>
        <time>2026-07-14T12:54:54Z</time>
      </trkpt>
      <trkpt lat="45.18831" lon="5.95758">
        <ele>1579.2</ele>
        <time>2026-07-14T12:54:55Z</time>
      </trkpt>
      <trkpt lat="45.1883" lon="5.95757">
        <ele>1579.2</ele>
        <time>2026-07-14T12:54:56Z</time>
      </trkpt>
      <trkpt lat="45.18829" lon="5.95757">
        <ele>1579.1</ele>
        <time>2026-07-14T12:54:57Z</time>
      </trkpt>
      <trkpt lat="45.18828" lon="5.95757">
        <ele>1579</ele>
        <time>2026-07-14T12:54:58Z</time>
      </trkpt>
      <trkpt lat="45.18827" lon="5.95756">
        <ele>1578.9</ele>
        <time>2026-07-14T12:54:59Z</time>
      </trkpt>
      <trkpt lat="45.18827" lon="5.95756">
        <ele>1578.9</ele>
        <time>2026-07-14T12:55:00Z</time>
      </trkpt>
      <trkpt lat="45.18828" lon="5.95755">
        <ele>1578.9</ele>
        <time>2026-07-14T12:55:01Z</time>
      </trkpt>
      <trkpt lat="45.18828" lon="5.95754">
        <ele>1578.8</ele>
        <time>2026-07-14T12:55:02Z</time>
      </trkpt>
      <trkpt lat="45.18829" lon="5.95753">
        <ele>1578.8</ele>
        <time>2026-07-14T12:55:04Z</time>
      </trkpt>
      <trkpt lat="45.18829" lon="5.95752">
        <ele>1578.8</ele>
        <time>2026-07-14T12:55:05Z</time>
      </trkpt>
      <trkpt lat="45.1883" lon="5.95751">
        <ele>1578.7</ele>
        <time>2026-07-14T12:55:06Z</time>
      </trkpt>
      <trkpt lat="45.1883" lon="5.9575">
        <ele>1578.7</ele>
        <time>2026-07-14T12:55:07Z</time>
      </trkpt>
      <trkpt lat="45.18832" lon="5.95748">
        <ele>1578.6</ele>
        <time>2026-07-14T12:55:08Z</time>
      </trkpt>
      <trkpt lat="45.18832" lon="5.95747">
        <ele>1578.6</ele>
        <time>2026-07-14T12:55:10Z</time>
      </trkpt>
      <trkpt lat="45.18833" lon="5.95744">
        <ele>1578.5</ele>
        <time>2026-07-14T12:55:11Z</time>
      </trkpt>
      <trkpt lat="45.18833" lon="5.95743">
        <ele>1578.5</ele>
        <time>2026-07-14T12:55:13Z</time>
      </trkpt>
      <trkpt lat="45.18833" lon="5.95742">
        <ele>1578.5</ele>
        <time>2026-07-14T12:55:14Z</time>
      </trkpt>
      <trkpt lat="45.18833" lon="5.95741">
        <ele>1578.5</ele>
        <time>2026-07-14T12:55:15Z</time>
      </trkpt>
      <trkpt lat="45.18833" lon="5.95738">
        <ele>1578.4</ele>
        <time>2026-07-14T12:55:16Z</time>
      </trkpt>
      <trkpt lat="45.18834" lon="5.95737">
        <ele>1578.4</ele>
        <time>2026-07-14T12:55:18Z</time>
      </trkpt>
      <trkpt lat="45.18835" lon="5.95736">
        <ele>1578.3</ele>
        <time>2026-07-14T12:55:19Z</time>
      </trkpt>
      <trkpt lat="45.18836" lon="5.95735">
        <ele>1578.3</ele>
        <time>2026-07-14T12:55:21Z</time>
      </trkpt>
      <trkpt lat="45.18837" lon="5.95733">
        <ele>1578.2</ele>
        <time>2026-07-14T12:55:22Z</time>
      </trkpt>
      <trkpt lat="45.18837" lon="5.95732">
        <ele>1578.2</ele>
        <time>2026-07-14T12:55:24Z</time>
      </trkpt>
      <trkpt lat="45.18838" lon="5.95731">
        <ele>1578.2</ele>
        <time>2026-07-14T12:55:25Z</time>
      </trkpt>
      <trkpt lat="45.18838" lon="5.95729">
        <ele>1578.1</ele>
        <time>2026-07-14T12:55:26Z</time>
      </trkpt>
      <trkpt lat="45.18838" lon="5.95728">
        <ele>1578.1</ele>
        <time>2026-07-14T12:55:27Z</time>
      </trkpt>
      <trkpt lat="45.18839" lon="5.95726">
        <ele>1577.9</ele>
        <time>2026-07-14T12:55:28Z</time>
      </trkpt>
      <trkpt lat="45.1884" lon="5.95725">
        <ele>1577.9</ele>
        <time>2026-07-14T12:55:29Z</time>
      </trkpt>
      <trkpt lat="45.1884" lon="5.95724">
        <ele>1577.8</ele>
        <time>2026-07-14T12:55:31Z</time>
      </trkpt>
      <trkpt lat="45.18841" lon="5.95724">
        <ele>1577.8</ele>
        <time>2026-07-14T12:55:32Z</time>
      </trkpt>
      <trkpt lat="45.18842" lon="5.95724">
        <ele>1577.7</ele>
        <time>2026-07-14T12:55:33Z</time>
      </trkpt>
      <trkpt lat="45.18843" lon="5.95725">
        <ele>1577.6</ele>
        <time>2026-07-14T12:55:34Z</time>
      </trkpt>
      <trkpt lat="45.18844" lon="5.95725">
        <ele>1577.5</ele>
        <time>2026-07-14T12:55:35Z</time>
      </trkpt>
      <trkpt lat="45.18844" lon="5.95726">
        <ele>1577.5</ele>
        <time>2026-07-14T12:55:36Z</time>
      </trkpt>
      <trkpt lat="45.18845" lon="5.95726">
        <ele>1577.4</ele>
        <time>2026-07-14T12:55:37Z</time>
      </trkpt>
      <trkpt lat="45.18846" lon="5.95727">
        <ele>1577.3</ele>
        <time>2026-07-14T12:55:38Z</time>
      </trkpt>
      <trkpt lat="45.18847" lon="5.95726">
        <ele>1577.2</ele>
        <time>2026-07-14T12:55:39Z</time>
      </trkpt>
      <trkpt lat="45.18847" lon="5.95726">
        <ele>1577.1</ele>
        <time>2026-07-14T12:55:40Z</time>
      </trkpt>
      <trkpt lat="45.18849" lon="5.95724">
        <ele>1576.8</ele>
        <time>2026-07-14T12:55:41Z</time>
      </trkpt>
      <trkpt lat="45.1885" lon="5.95722">
        <ele>1576.6</ele>
        <time>2026-07-14T12:55:43Z</time>
      </trkpt>
      <trkpt lat="45.18851" lon="5.9572">
        <ele>1576.2</ele>
        <time>2026-07-14T12:55:45Z</time>
      </trkpt>
      <trkpt lat="45.18852" lon="5.9572">
        <ele>1576.1</ele>
        <time>2026-07-14T12:55:47Z</time>
      </trkpt>
      <trkpt lat="45.18852" lon="5.95718">
        <ele>1575.8</ele>
        <time>2026-07-14T12:55:48Z</time>
      </trkpt>
      <trkpt lat="45.18853" lon="5.95717">
        <ele>1575.8</ele>
        <time>2026-07-14T12:55:50Z</time>
      </trkpt>
      <trkpt lat="45.18853" lon="5.95717">
        <ele>1575.6</ele>
        <time>2026-07-14T12:55:51Z</time>
      </trkpt>
      <trkpt lat="45.18854" lon="5.95716">
        <ele>1575.5</ele>
        <time>2026-07-14T12:55:52Z</time>
      </trkpt>
      <trkpt lat="45.18854" lon="5.95715">
        <ele>1575.3</ele>
        <time>2026-07-14T12:55:53Z</time>
      </trkpt>
      <trkpt lat="45.18855" lon="5.95714">
        <ele>1575.1</ele>
        <time>2026-07-14T12:55:54Z</time>
      </trkpt>
      <trkpt lat="45.18855" lon="5.95713">
        <ele>1575</ele>
        <time>2026-07-14T12:55:55Z</time>
      </trkpt>
      <trkpt lat="45.18855" lon="5.95711">
        <ele>1574.7</ele>
        <time>2026-07-14T12:55:56Z</time>
      </trkpt>
      <trkpt lat="45.18856" lon="5.95711">
        <ele>1574.6</ele>
        <time>2026-07-14T12:55:58Z</time>
      </trkpt>
      <trkpt lat="45.18857" lon="5.95711">
        <ele>1574.4</ele>
        <time>2026-07-14T12:55:59Z</time>
      </trkpt>
      <trkpt lat="45.18857" lon="5.9571">
        <ele>1574.2</ele>
        <time>2026-07-14T12:56:01Z</time>
      </trkpt>
      <trkpt lat="45.18858" lon="5.95709">
        <ele>1573.9</ele>
        <time>2026-07-14T12:56:02Z</time>
      </trkpt>
      <trkpt lat="45.18858" lon="5.95708">
        <ele>1573.7</ele>
        <time>2026-07-14T12:56:04Z</time>
      </trkpt>
      <trkpt lat="45.18859" lon="5.95706">
        <ele>1573.4</ele>
        <time>2026-07-14T12:56:05Z</time>
      </trkpt>
      <trkpt lat="45.18859" lon="5.95705">
        <ele>1573.2</ele>
        <time>2026-07-14T12:56:07Z</time>
      </trkpt>
      <trkpt lat="45.1886" lon="5.95704">
        <ele>1573</ele>
        <time>2026-07-14T12:56:08Z</time>
      </trkpt>
      <trkpt lat="45.18861" lon="5.95704">
        <ele>1572.8</ele>
        <time>2026-07-14T12:56:09Z</time>
      </trkpt>
      <trkpt lat="45.18861" lon="5.95704">
        <ele>1572.6</ele>
        <time>2026-07-14T12:56:10Z</time>
      </trkpt>
      <trkpt lat="45.18862" lon="5.95704">
        <ele>1572.6</ele>
        <time>2026-07-14T12:56:11Z</time>
      </trkpt>
      <trkpt lat="45.18862" lon="5.95704">
        <ele>1572.5</ele>
        <time>2026-07-14T12:56:12Z</time>
      </trkpt>
      <trkpt lat="45.18862" lon="5.95703">
        <ele>1572.3</ele>
        <time>2026-07-14T12:56:13Z</time>
      </trkpt>
      <trkpt lat="45.18863" lon="5.95703">
        <ele>1572.3</ele>
        <time>2026-07-14T12:56:14Z</time>
      </trkpt>
      <trkpt lat="45.18863" lon="5.95701">
        <ele>1572</ele>
        <time>2026-07-14T12:56:15Z</time>
      </trkpt>
      <trkpt lat="45.18863" lon="5.957">
        <ele>1571.8</ele>
        <time>2026-07-14T12:56:16Z</time>
      </trkpt>
      <trkpt lat="45.18864" lon="5.95699">
        <ele>1571.6</ele>
        <time>2026-07-14T12:56:17Z</time>
      </trkpt>
      <trkpt lat="45.18864" lon="5.95698">
        <ele>1571.4</ele>
        <time>2026-07-14T12:56:19Z</time>
      </trkpt>
      <trkpt lat="45.18865" lon="5.95698">
        <ele>1571.2</ele>
        <time>2026-07-14T12:56:20Z</time>
      </trkpt>
      <trkpt lat="45.18865" lon="5.95698">
        <ele>1571.1</ele>
        <time>2026-07-14T12:56:21Z</time>
      </trkpt>
      <trkpt lat="45.18866" lon="5.95698">
        <ele>1570.8</ele>
        <time>2026-07-14T12:56:22Z</time>
      </trkpt>
      <trkpt lat="45.18868" lon="5.95698">
        <ele>1570.4</ele>
        <time>2026-07-14T12:56:23Z</time>
      </trkpt>
      <trkpt lat="45.18869" lon="5.95697">
        <ele>1570.3</ele>
        <time>2026-07-14T12:56:25Z</time>
      </trkpt>
      <trkpt lat="45.18869" lon="5.95696">
        <ele>1570.1</ele>
        <time>2026-07-14T12:56:26Z</time>
      </trkpt>
      <trkpt lat="45.18869" lon="5.95695">
        <ele>1569.9</ele>
        <time>2026-07-14T12:56:27Z</time>
      </trkpt>
      <trkpt lat="45.18869" lon="5.95694">
        <ele>1569.7</ele>
        <time>2026-07-14T12:56:28Z</time>
      </trkpt>
      <trkpt lat="45.1887" lon="5.95693">
        <ele>1569.5</ele>
        <time>2026-07-14T12:56:29Z</time>
      </trkpt>
      <trkpt lat="45.1887" lon="5.95692">
        <ele>1569.3</ele>
        <time>2026-07-14T12:56:30Z</time>
      </trkpt>
      <trkpt lat="45.18871" lon="5.95691">
        <ele>1569</ele>
        <time>2026-07-14T12:56:31Z</time>
      </trkpt>
      <trkpt lat="45.18873" lon="5.95689">
        <ele>1568.5</ele>
        <time>2026-07-14T12:56:32Z</time>
      </trkpt>
      <trkpt lat="45.18873" lon="5.95688">
        <ele>1568.3</ele>
        <time>2026-07-14T12:56:34Z</time>
      </trkpt>
      <trkpt lat="45.18873" lon="5.95688">
        <ele>1568.2</ele>
        <time>2026-07-14T12:56:35Z</time>
      </trkpt>
      <trkpt lat="45.18875" lon="5.95686">
        <ele>1567.8</ele>
        <time>2026-07-14T12:56:36Z</time>
      </trkpt>
      <trkpt lat="45.18875" lon="5.95685">
        <ele>1567.6</ele>
        <time>2026-07-14T12:56:37Z</time>
      </trkpt>
      <trkpt lat="45.18876" lon="5.95684">
        <ele>1567.3</ele>
        <time>2026-07-14T12:56:39Z</time>
      </trkpt>
      <trkpt lat="45.18876" lon="5.95684">
        <ele>1567.3</ele>
        <time>2026-07-14T12:56:40Z</time>
      </trkpt>
      <trkpt lat="45.18877" lon="5.95683">
        <ele>1566.9</ele>
        <time>2026-07-14T12:56:41Z</time>
      </trkpt>
      <trkpt lat="45.18878" lon="5.95682">
        <ele>1566.7</ele>
        <time>2026-07-14T12:56:43Z</time>
      </trkpt>
      <trkpt lat="45.18879" lon="5.95682">
        <ele>1566.4</ele>
        <time>2026-07-14T12:56:44Z</time>
      </trkpt>
      <trkpt lat="45.1888" lon="5.95682">
        <ele>1566.3</ele>
        <time>2026-07-14T12:56:45Z</time>
      </trkpt>
      <trkpt lat="45.18882" lon="5.9568">
        <ele>1565.6</ele>
        <time>2026-07-14T12:56:46Z</time>
      </trkpt>
      <trkpt lat="45.18883" lon="5.9568">
        <ele>1565.4</ele>
        <time>2026-07-14T12:56:48Z</time>
      </trkpt>
      <trkpt lat="45.18883" lon="5.9568">
        <ele>1565.3</ele>
        <time>2026-07-14T12:56:49Z</time>
      </trkpt>
      <trkpt lat="45.18884" lon="5.9568">
        <ele>1565.1</ele>
        <time>2026-07-14T12:56:50Z</time>
      </trkpt>
      <trkpt lat="45.18885" lon="5.95679">
        <ele>1564.8</ele>
        <time>2026-07-14T12:56:51Z</time>
      </trkpt>
      <trkpt lat="45.18887" lon="5.95679">
        <ele>1564.4</ele>
        <time>2026-07-14T12:56:52Z</time>
      </trkpt>
      <trkpt lat="45.18888" lon="5.95679">
        <ele>1564.1</ele>
        <time>2026-07-14T12:56:54Z</time>
      </trkpt>
      <trkpt lat="45.18889" lon="5.95679">
        <ele>1563.9</ele>
        <time>2026-07-14T12:56:55Z</time>
      </trkpt>
      <trkpt lat="45.1889" lon="5.95679">
        <ele>1563.7</ele>
        <time>2026-07-14T12:56:56Z</time>
      </trkpt>
      <trkpt lat="45.18891" lon="5.95678">
        <ele>1563.4</ele>
        <time>2026-07-14T12:56:57Z</time>
      </trkpt>
      <trkpt lat="45.18893" lon="5.95676">
        <ele>1562.9</ele>
        <time>2026-07-14T12:56:58Z</time>
      </trkpt>
      <trkpt lat="45.18894" lon="5.95674">
        <ele>1562.6</ele>
        <time>2026-07-14T12:57:00Z</time>
      </trkpt>
      <trkpt lat="45.18893" lon="5.95673">
        <ele>1562.4</ele>
        <time>2026-07-14T12:57:01Z</time>
      </trkpt>
      <trkpt lat="45.18891" lon="5.95672">
        <ele>1562</ele>
        <time>2026-07-14T12:57:02Z</time>
      </trkpt>
      <trkpt lat="45.18891" lon="5.95671">
        <ele>1561.8</ele>
        <time>2026-07-14T12:57:03Z</time>
      </trkpt>
      <trkpt lat="45.18891" lon="5.95671">
        <ele>1561.7</ele>
        <time>2026-07-14T12:57:04Z</time>
      </trkpt>
      <trkpt lat="45.18891" lon="5.9567">
        <ele>1561.6</ele>
        <time>2026-07-14T12:57:05Z</time>
      </trkpt>
      <trkpt lat="45.18891" lon="5.9567">
        <ele>1561.6</ele>
        <time>2026-07-14T12:57:06Z</time>
      </trkpt>
      <trkpt lat="45.18891" lon="5.95671">
        <ele>1561.5</ele>
        <time>2026-07-14T12:57:07Z</time>
      </trkpt>
      <trkpt lat="45.18891" lon="5.9567">
        <ele>1561.4</ele>
        <time>2026-07-14T12:57:08Z</time>
      </trkpt>
      <trkpt lat="45.18892" lon="5.9567">
        <ele>1561.4</ele>
        <time>2026-07-14T12:57:09Z</time>
      </trkpt>
      <trkpt lat="45.18892" lon="5.95671">
        <ele>1561.2</ele>
        <time>2026-07-14T12:57:10Z</time>
      </trkpt>
      <trkpt lat="45.18892" lon="5.95672">
        <ele>1561.1</ele>
        <time>2026-07-14T12:57:11Z</time>
      </trkpt>
      <trkpt lat="45.18893" lon="5.95672">
        <ele>1561</ele>
        <time>2026-07-14T12:57:12Z</time>
      </trkpt>
      <trkpt lat="45.18893" lon="5.95672">
        <ele>1561</ele>
        <time>2026-07-14T12:57:13Z</time>
      </trkpt>
      <trkpt lat="45.18893" lon="5.95671">
        <ele>1560.9</ele>
        <time>2026-07-14T12:57:14Z</time>
      </trkpt>
      <trkpt lat="45.18894" lon="5.9567">
        <ele>1560.7</ele>
        <time>2026-07-14T12:57:15Z</time>
      </trkpt>
      <trkpt lat="45.18894" lon="5.9567">
        <ele>1560.7</ele>
        <time>2026-07-14T12:57:16Z</time>
      </trkpt>
      <trkpt lat="45.18895" lon="5.9567">
        <ele>1560.5</ele>
        <time>2026-07-14T12:57:17Z</time>
      </trkpt>
      <trkpt lat="45.18895" lon="5.9567">
        <ele>1560.5</ele>
        <time>2026-07-14T12:57:18Z</time>
      </trkpt>
      <trkpt lat="45.18895" lon="5.9567">
        <ele>1560.4</ele>
        <time>2026-07-14T12:57:19Z</time>
      </trkpt>
      <trkpt lat="45.18896" lon="5.95669">
        <ele>1560.2</ele>
        <time>2026-07-14T12:57:20Z</time>
      </trkpt>
      <trkpt lat="45.18896" lon="5.95668">
        <ele>1560.1</ele>
        <time>2026-07-14T12:57:21Z</time>
      </trkpt>
      <trkpt lat="45.18896" lon="5.95667">
        <ele>1560</ele>
        <time>2026-07-14T12:57:22Z</time>
      </trkpt>
      <trkpt lat="45.18897" lon="5.95667">
        <ele>1559.8</ele>
        <time>2026-07-14T12:57:23Z</time>
      </trkpt>
      <trkpt lat="45.18897" lon="5.95667">
        <ele>1559.7</ele>
        <time>2026-07-14T12:57:25Z</time>
      </trkpt>
      <trkpt lat="45.18898" lon="5.95667">
        <ele>1559.6</ele>
        <time>2026-07-14T12:57:26Z</time>
      </trkpt>
      <trkpt lat="45.18899" lon="5.95666">
        <ele>1559.5</ele>
        <time>2026-07-14T12:57:27Z</time>
      </trkpt>
      <trkpt lat="45.189" lon="5.95666">
        <ele>1559.2</ele>
        <time>2026-07-14T12:57:28Z</time>
      </trkpt>
      <trkpt lat="45.18901" lon="5.95665">
        <ele>1559.1</ele>
        <time>2026-07-14T12:57:29Z</time>
      </trkpt>
      <trkpt lat="45.18902" lon="5.95665">
        <ele>1558.9</ele>
        <time>2026-07-14T12:57:31Z</time>
      </trkpt>
      <trkpt lat="45.18902" lon="5.95664">
        <ele>1558.8</ele>
        <time>2026-07-14T12:57:32Z</time>
      </trkpt>
      <trkpt lat="45.18903" lon="5.95664">
        <ele>1558.7</ele>
        <time>2026-07-14T12:57:33Z</time>
      </trkpt>
      <trkpt lat="45.18903" lon="5.95664">
        <ele>1558.5</ele>
        <time>2026-07-14T12:57:34Z</time>
      </trkpt>
      <trkpt lat="45.18904" lon="5.95663">
        <ele>1558.4</ele>
        <time>2026-07-14T12:57:35Z</time>
      </trkpt>
      <trkpt lat="45.18905" lon="5.95663">
        <ele>1558.2</ele>
        <time>2026-07-14T12:57:36Z</time>
      </trkpt>
      <trkpt lat="45.18905" lon="5.95662">
        <ele>1558</ele>
        <time>2026-07-14T12:57:37Z</time>
      </trkpt>
      <trkpt lat="45.18906" lon="5.95661">
        <ele>1557.8</ele>
        <time>2026-07-14T12:57:38Z</time>
      </trkpt>
      <trkpt lat="45.18907" lon="5.95659">
        <ele>1557.4</ele>
        <time>2026-07-14T12:57:39Z</time>
      </trkpt>
      <trkpt lat="45.18908" lon="5.95658">
        <ele>1557.2</ele>
        <time>2026-07-14T12:57:41Z</time>
      </trkpt>
      <trkpt lat="45.18908" lon="5.95657">
        <ele>1557</ele>
        <time>2026-07-14T12:57:42Z</time>
      </trkpt>
      <trkpt lat="45.18909" lon="5.95657">
        <ele>1556.8</ele>
        <time>2026-07-14T12:57:43Z</time>
      </trkpt>
      <trkpt lat="45.1891" lon="5.95657">
        <ele>1556.6</ele>
        <time>2026-07-14T12:57:44Z</time>
      </trkpt>
      <trkpt lat="45.18912" lon="5.95657">
        <ele>1556.2</ele>
        <time>2026-07-14T12:57:45Z</time>
      </trkpt>
      <trkpt lat="45.18912" lon="5.95657">
        <ele>1556.1</ele>
        <time>2026-07-14T12:57:47Z</time>
      </trkpt>
      <trkpt lat="45.18913" lon="5.95656">
        <ele>1555.9</ele>
        <time>2026-07-14T12:57:48Z</time>
      </trkpt>
      <trkpt lat="45.18913" lon="5.95655">
        <ele>1555.7</ele>
        <time>2026-07-14T12:57:49Z</time>
      </trkpt>
      <trkpt lat="45.18913" lon="5.95654">
        <ele>1555.5</ele>
        <time>2026-07-14T12:57:50Z</time>
      </trkpt>
      <trkpt lat="45.18914" lon="5.95653">
        <ele>1555.3</ele>
        <time>2026-07-14T12:57:51Z</time>
      </trkpt>
      <trkpt lat="45.18914" lon="5.95653">
        <ele>1555.2</ele>
        <time>2026-07-14T12:57:52Z</time>
      </trkpt>
      <trkpt lat="45.18915" lon="5.95653">
        <ele>1555</ele>
        <time>2026-07-14T12:57:53Z</time>
      </trkpt>
      <trkpt lat="45.18915" lon="5.95654">
        <ele>1555</ele>
        <time>2026-07-14T12:57:54Z</time>
      </trkpt>
      <trkpt lat="45.18916" lon="5.95654">
        <ele>1554.7</ele>
        <time>2026-07-14T12:57:55Z</time>
      </trkpt>
      <trkpt lat="45.18917" lon="5.95653">
        <ele>1554.4</ele>
        <time>2026-07-14T12:57:57Z</time>
      </trkpt>
      <trkpt lat="45.18918" lon="5.95653">
        <ele>1554.2</ele>
        <time>2026-07-14T12:57:58Z</time>
      </trkpt>
      <trkpt lat="45.18918" lon="5.95653">
        <ele>1554</ele>
        <time>2026-07-14T12:57:59Z</time>
      </trkpt>
      <trkpt lat="45.18919" lon="5.95652">
        <ele>1553.8</ele>
        <time>2026-07-14T12:58:00Z</time>
      </trkpt>
      <trkpt lat="45.1892" lon="5.95652">
        <ele>1553.6</ele>
        <time>2026-07-14T12:58:01Z</time>
      </trkpt>
      <trkpt lat="45.1892" lon="5.95651">
        <ele>1553.4</ele>
        <time>2026-07-14T12:58:02Z</time>
      </trkpt>
      <trkpt lat="45.18921" lon="5.9565">
        <ele>1553.2</ele>
        <time>2026-07-14T12:58:03Z</time>
      </trkpt>
      <trkpt lat="45.18921" lon="5.95649">
        <ele>1552.9</ele>
        <time>2026-07-14T12:58:04Z</time>
      </trkpt>
      <trkpt lat="45.18922" lon="5.95649">
        <ele>1552.7</ele>
        <time>2026-07-14T12:58:05Z</time>
      </trkpt>
      <trkpt lat="45.18923" lon="5.95649">
        <ele>1552.5</ele>
        <time>2026-07-14T12:58:06Z</time>
      </trkpt>
      <trkpt lat="45.18924" lon="5.95649">
        <ele>1552.1</ele>
        <time>2026-07-14T12:58:07Z</time>
      </trkpt>
      <trkpt lat="45.18925" lon="5.95649">
        <ele>1551.9</ele>
        <time>2026-07-14T12:58:08Z</time>
      </trkpt>
      <trkpt lat="45.18926" lon="5.95648">
        <ele>1551.4</ele>
        <time>2026-07-14T12:58:09Z</time>
      </trkpt>
      <trkpt lat="45.18927" lon="5.95648">
        <ele>1551.2</ele>
        <time>2026-07-14T12:58:11Z</time>
      </trkpt>
      <trkpt lat="45.18927" lon="5.95647">
        <ele>1551</ele>
        <time>2026-07-14T12:58:12Z</time>
      </trkpt>
      <trkpt lat="45.18928" lon="5.95646">
        <ele>1550.6</ele>
        <time>2026-07-14T12:58:13Z</time>
      </trkpt>
      <trkpt lat="45.1893" lon="5.95646">
        <ele>1550</ele>
        <time>2026-07-14T12:58:15Z</time>
      </trkpt>
      <trkpt lat="45.1893" lon="5.95646">
        <ele>1549.9</ele>
        <time>2026-07-14T12:58:17Z</time>
      </trkpt>
      <trkpt lat="45.1893" lon="5.95646">
        <ele>1549.8</ele>
        <time>2026-07-14T12:58:18Z</time>
      </trkpt>
      <trkpt lat="45.18931" lon="5.95645">
        <ele>1549.6</ele>
        <time>2026-07-14T12:58:19Z</time>
      </trkpt>
      <trkpt lat="45.18931" lon="5.95645">
        <ele>1549.4</ele>
        <time>2026-07-14T12:58:20Z</time>
      </trkpt>
      <trkpt lat="45.18931" lon="5.95643">
        <ele>1549.1</ele>
        <time>2026-07-14T12:58:21Z</time>
      </trkpt>
      <trkpt lat="45.18931" lon="5.95643">
        <ele>1549</ele>
        <time>2026-07-14T12:58:22Z</time>
      </trkpt>
      <trkpt lat="45.18932" lon="5.95643">
        <ele>1548.8</ele>
        <time>2026-07-14T12:58:23Z</time>
      </trkpt>
      <trkpt lat="45.18932" lon="5.95643">
        <ele>1548.7</ele>
        <time>2026-07-14T12:58:24Z</time>
      </trkpt>
      <trkpt lat="45.18933" lon="5.95643">
        <ele>1548.5</ele>
        <time>2026-07-14T12:58:25Z</time>
      </trkpt>
      <trkpt lat="45.18934" lon="5.95643">
        <ele>1548.2</ele>
        <time>2026-07-14T12:58:26Z</time>
      </trkpt>
      <trkpt lat="45.18935" lon="5.95643">
        <ele>1547.9</ele>
        <time>2026-07-14T12:58:27Z</time>
      </trkpt>
      <trkpt lat="45.18935" lon="5.95643">
        <ele>1547.8</ele>
        <time>2026-07-14T12:58:28Z</time>
      </trkpt>
      <trkpt lat="45.18936" lon="5.95642">
        <ele>1547.6</ele>
        <time>2026-07-14T12:58:29Z</time>
      </trkpt>
      <trkpt lat="45.18936" lon="5.95642">
        <ele>1547.4</ele>
        <time>2026-07-14T12:58:30Z</time>
      </trkpt>
      <trkpt lat="45.18937" lon="5.95641">
        <ele>1547</ele>
        <time>2026-07-14T12:58:31Z</time>
      </trkpt>
      <trkpt lat="45.18937" lon="5.9564">
        <ele>1546.9</ele>
        <time>2026-07-14T12:58:32Z</time>
      </trkpt>
      <trkpt lat="45.18938" lon="5.9564">
        <ele>1546.7</ele>
        <time>2026-07-14T12:58:33Z</time>
      </trkpt>
      <trkpt lat="45.18938" lon="5.95639">
        <ele>1546.6</ele>
        <time>2026-07-14T12:58:34Z</time>
      </trkpt>
      <trkpt lat="45.18939" lon="5.95638">
        <ele>1546.3</ele>
        <time>2026-07-14T12:58:35Z</time>
      </trkpt>
      <trkpt lat="45.18939" lon="5.95636">
        <ele>1545.8</ele>
        <time>2026-07-14T12:58:36Z</time>
      </trkpt>
      <trkpt lat="45.1894" lon="5.95635">
        <ele>1545.6</ele>
        <time>2026-07-14T12:58:38Z</time>
      </trkpt>
      <trkpt lat="45.1894" lon="5.95635">
        <ele>1545.4</ele>
        <time>2026-07-14T12:58:39Z</time>
      </trkpt>
      <trkpt lat="45.1894" lon="5.95634">
        <ele>1545.2</ele>
        <time>2026-07-14T12:58:40Z</time>
      </trkpt>
      <trkpt lat="45.18942" lon="5.95632">
        <ele>1544.6</ele>
        <time>2026-07-14T12:58:41Z</time>
      </trkpt>
      <trkpt lat="45.18943" lon="5.95632">
        <ele>1544.4</ele>
        <time>2026-07-14T12:58:43Z</time>
      </trkpt>
      <trkpt lat="45.18944" lon="5.9563">
        <ele>1543.9</ele>
        <time>2026-07-14T12:58:44Z</time>
      </trkpt>
      <trkpt lat="45.18944" lon="5.9563">
        <ele>1543.8</ele>
        <time>2026-07-14T12:58:46Z</time>
      </trkpt>
      <trkpt lat="45.18945" lon="5.9563">
        <ele>1543.6</ele>
        <time>2026-07-14T12:58:47Z</time>
      </trkpt>
      <trkpt lat="45.18946" lon="5.95631">
        <ele>1543.3</ele>
        <time>2026-07-14T12:58:48Z</time>
      </trkpt>
      <trkpt lat="45.18946" lon="5.95631">
        <ele>1543.1</ele>
        <time>2026-07-14T12:58:49Z</time>
      </trkpt>
      <trkpt lat="45.18947" lon="5.95631">
        <ele>1542.9</ele>
        <time>2026-07-14T12:58:50Z</time>
      </trkpt>
      <trkpt lat="45.18948" lon="5.9563">
        <ele>1542.7</ele>
        <time>2026-07-14T12:58:51Z</time>
      </trkpt>
      <trkpt lat="45.18948" lon="5.9563">
        <ele>1542.7</ele>
        <time>2026-07-14T12:58:53Z</time>
      </trkpt>
      <trkpt lat="45.18949" lon="5.95629">
        <ele>1542.4</ele>
        <time>2026-07-14T12:58:54Z</time>
      </trkpt>
      <trkpt lat="45.1895" lon="5.95628">
        <ele>1542.1</ele>
        <time>2026-07-14T12:58:55Z</time>
      </trkpt>
      <trkpt lat="45.18949" lon="5.95627">
        <ele>1541.9</ele>
        <time>2026-07-14T12:58:56Z</time>
      </trkpt>
      <trkpt lat="45.18949" lon="5.95626">
        <ele>1541.6</ele>
        <time>2026-07-14T12:58:57Z</time>
      </trkpt>
      <trkpt lat="45.18949" lon="5.95625">
        <ele>1541.5</ele>
        <time>2026-07-14T12:58:58Z</time>
      </trkpt>
      <trkpt lat="45.1895" lon="5.95625">
        <ele>1541.4</ele>
        <time>2026-07-14T12:58:59Z</time>
      </trkpt>
      <trkpt lat="45.1895" lon="5.95625">
        <ele>1541.2</ele>
        <time>2026-07-14T12:59:00Z</time>
      </trkpt>
      <trkpt lat="45.18951" lon="5.95624">
        <ele>1540.9</ele>
        <time>2026-07-14T12:59:01Z</time>
      </trkpt>
      <trkpt lat="45.18952" lon="5.95624">
        <ele>1540.7</ele>
        <time>2026-07-14T12:59:02Z</time>
      </trkpt>
      <trkpt lat="45.18953" lon="5.95624">
        <ele>1540.6</ele>
        <time>2026-07-14T12:59:03Z</time>
      </trkpt>
      <trkpt lat="45.18953" lon="5.95623">
        <ele>1540.3</ele>
        <time>2026-07-14T12:59:04Z</time>
      </trkpt>
      <trkpt lat="45.18953" lon="5.95622">
        <ele>1540.2</ele>
        <time>2026-07-14T12:59:05Z</time>
      </trkpt>
      <trkpt lat="45.18954" lon="5.95622">
        <ele>1540.1</ele>
        <time>2026-07-14T12:59:06Z</time>
      </trkpt>
      <trkpt lat="45.18955" lon="5.95621">
        <ele>1539.8</ele>
        <time>2026-07-14T12:59:07Z</time>
      </trkpt>
      <trkpt lat="45.18955" lon="5.95621">
        <ele>1539.7</ele>
        <time>2026-07-14T12:59:08Z</time>
      </trkpt>
      <trkpt lat="45.18957" lon="5.95621">
        <ele>1539.3</ele>
        <time>2026-07-14T12:59:09Z</time>
      </trkpt>
      <trkpt lat="45.18957" lon="5.9562">
        <ele>1539.2</ele>
        <time>2026-07-14T12:59:11Z</time>
      </trkpt>
      <trkpt lat="45.18958" lon="5.9562">
        <ele>1539.1</ele>
        <time>2026-07-14T12:59:13Z</time>
      </trkpt>
      <trkpt lat="45.18959" lon="5.9562">
        <ele>1538.6</ele>
        <time>2026-07-14T12:59:15Z</time>
      </trkpt>
      <trkpt lat="45.18959" lon="5.95619">
        <ele>1538.6</ele>
        <time>2026-07-14T12:59:17Z</time>
      </trkpt>
      <trkpt lat="45.18959" lon="5.95619">
        <ele>1538.5</ele>
        <time>2026-07-14T12:59:18Z</time>
      </trkpt>
      <trkpt lat="45.18959" lon="5.95618">
        <ele>1538.4</ele>
        <time>2026-07-14T12:59:19Z</time>
      </trkpt>
      <trkpt lat="45.1896" lon="5.95618">
        <ele>1538.3</ele>
        <time>2026-07-14T12:59:20Z</time>
      </trkpt>
      <trkpt lat="45.18961" lon="5.95616">
        <ele>1537.9</ele>
        <time>2026-07-14T12:59:21Z</time>
      </trkpt>
      <trkpt lat="45.1896" lon="5.95615">
        <ele>1537.7</ele>
        <time>2026-07-14T12:59:22Z</time>
      </trkpt>
      <trkpt lat="45.1896" lon="5.95614">
        <ele>1537.5</ele>
        <time>2026-07-14T12:59:24Z</time>
      </trkpt>
      <trkpt lat="45.18959" lon="5.95614">
        <ele>1537.2</ele>
        <time>2026-07-14T12:59:25Z</time>
      </trkpt>
      <trkpt lat="45.18958" lon="5.95614">
        <ele>1537</ele>
        <time>2026-07-14T12:59:26Z</time>
      </trkpt>
      <trkpt lat="45.18958" lon="5.95615">
        <ele>1536.9</ele>
        <time>2026-07-14T12:59:27Z</time>
      </trkpt>
      <trkpt lat="45.18959" lon="5.95615">
        <ele>1536.8</ele>
        <time>2026-07-14T12:59:28Z</time>
      </trkpt>
      <trkpt lat="45.18959" lon="5.95615">
        <ele>1536.8</ele>
        <time>2026-07-14T12:59:29Z</time>
      </trkpt>
      <trkpt lat="45.18959" lon="5.95615">
        <ele>1536.8</ele>
        <time>2026-07-14T12:59:30Z</time>
      </trkpt>
      <trkpt lat="45.18958" lon="5.95615">
        <ele>1536.6</ele>
        <time>2026-07-14T12:59:31Z</time>
      </trkpt>
      <trkpt lat="45.18959" lon="5.95615">
        <ele>1536.5</ele>
        <time>2026-07-14T12:59:32Z</time>
      </trkpt>
      <trkpt lat="45.18959" lon="5.95615">
        <ele>1536.3</ele>
        <time>2026-07-14T12:59:34Z</time>
      </trkpt>
      <trkpt lat="45.18959" lon="5.95616">
        <ele>1536.2</ele>
        <time>2026-07-14T12:59:36Z</time>
      </trkpt>
      <trkpt lat="45.1896" lon="5.95616">
        <ele>1536.1</ele>
        <time>2026-07-14T12:59:37Z</time>
      </trkpt>
      <trkpt lat="45.18959" lon="5.95615">
        <ele>1535.9</ele>
        <time>2026-07-14T12:59:39Z</time>
      </trkpt>
      <trkpt lat="45.18959" lon="5.95615">
        <ele>1535.9</ele>
        <time>2026-07-14T12:59:40Z</time>
      </trkpt>
      <trkpt lat="45.18959" lon="5.95615">
        <ele>1535.8</ele>
        <time>2026-07-14T12:59:41Z</time>
      </trkpt>
      <trkpt lat="45.18959" lon="5.95615">
        <ele>1535.8</ele>
        <time>2026-07-14T12:59:42Z</time>
      </trkpt>
      <trkpt lat="45.18958" lon="5.95615">
        <ele>1535.7</ele>
        <time>2026-07-14T12:59:43Z</time>
      </trkpt>
      <trkpt lat="45.18958" lon="5.95615">
        <ele>1535.6</ele>
        <time>2026-07-14T12:59:44Z</time>
      </trkpt>
      <trkpt lat="45.18958" lon="5.95615">
        <ele>1535.6</ele>
        <time>2026-07-14T12:59:45Z</time>
      </trkpt>
      <trkpt lat="45.18958" lon="5.95615">
        <ele>1535.5</ele>
        <time>2026-07-14T12:59:46Z</time>
      </trkpt>
      <trkpt lat="45.18958" lon="5.95615">
        <ele>1535.5</ele>
        <time>2026-07-14T12:59:47Z</time>
      </trkpt>
      <trkpt lat="45.18958" lon="5.95615">
        <ele>1535.5</ele>
        <time>2026-07-14T12:59:48Z</time>
      </trkpt>
      <trkpt lat="45.18958" lon="5.95615">
        <ele>1535.5</ele>
        <time>2026-07-14T12:59:49Z</time>
      </trkpt>
      <trkpt lat="45.18958" lon="5.95615">
        <ele>1535.4</ele>
        <time>2026-07-14T12:59:50Z</time>
      </trkpt>
      <trkpt lat="45.18958" lon="5.95615">
        <ele>1535.4</ele>
        <time>2026-07-14T12:59:51Z</time>
      </trkpt>
      <trkpt lat="45.18958" lon="5.95615">
        <ele>1535.4</ele>
        <time>2026-07-14T12:59:52Z</time>
      </trkpt>
      <trkpt lat="45.18958" lon="5.95615">
        <ele>1535.4</ele>
        <time>2026-07-14T12:59:53Z</time>
      </trkpt>
      <trkpt lat="45.18958" lon="5.95615">
        <ele>1535.4</ele>
        <time>2026-07-14T12:59:54Z</time>
      </trkpt>
      <trkpt lat="45.18958" lon="5.95615">
        <ele>1535.3</ele>
        <time>2026-07-14T12:59:55Z</time>
      </trkpt>
      <trkpt lat="45.18958" lon="5.95615">
        <ele>1535.3</ele>
        <time>2026-07-14T12:59:56Z</time>
      </trkpt>
      <trkpt lat="45.18958" lon="5.95614">
        <ele>1535.3</ele>
        <time>2026-07-14T12:59:57Z</time>
      </trkpt>
      <trkpt lat="45.18958" lon="5.95614">
        <ele>1535.2</ele>
        <time>2026-07-14T12:59:58Z</time>
      </trkpt>
      <trkpt lat="45.18958" lon="5.95614">
        <ele>1535.2</ele>
        <time>2026-07-14T12:59:59Z</time>
      </trkpt>
      <trkpt lat="45.18958" lon="5.95614">
        <ele>1535.2</ele>
        <time>2026-07-14T13:00:00Z</time>
      </trkpt>
      <trkpt lat="45.18958" lon="5.95614">
        <ele>1535.2</ele>
        <time>2026-07-14T13:00:01Z</time>
      </trkpt>
      <trkpt lat="45.18958" lon="5.95614">
        <ele>1535.2</ele>
        <time>2026-07-14T13:00:02Z</time>
      </trkpt>
      <trkpt lat="45.18958" lon="5.95614">
        <ele>1535.2</ele>
        <time>2026-07-14T13:00:03Z</time>
      </trkpt>
      <trkpt lat="45.18958" lon="5.95614">
        <ele>1535.2</ele>
        <time>2026-07-14T13:00:04Z</time>
      </trkpt>
      <trkpt lat="45.18958" lon="5.95614">
        <ele>1535.2</ele>
        <time>2026-07-14T13:00:05Z</time>
      </trkpt>
      <trkpt lat="45.18958" lon="5.95614">
        <ele>1535.2</ele>
        <time>2026-07-14T13:00:06Z</time>
      </trkpt>
      <trkpt lat="45.18958" lon="5.95614">
        <ele>1535.2</ele>
        <time>2026-07-14T13:00:07Z</time>
      </trkpt>
      <trkpt lat="45.18958" lon="5.95614">
        <ele>1535.1</ele>
        <time>2026-07-14T13:00:08Z</time>
      </trkpt>
      <trkpt lat="45.18958" lon="5.95614">
        <ele>1535.1</ele>
        <time>2026-07-14T13:00:09Z</time>
      </trkpt>
      <trkpt lat="45.18958" lon="5.95615">
        <ele>1535.1</ele>
        <time>2026-07-14T13:00:10Z</time>
      </trkpt>
      <trkpt lat="45.18958" lon="5.95615">
        <ele>1535.1</ele>
        <time>2026-07-14T13:00:11Z</time>
      </trkpt>
      <trkpt lat="45.18958" lon="5.95615">
        <ele>1535.1</ele>
        <time>2026-07-14T13:00:12Z</time>
      </trkpt>
      <trkpt lat="45.18958" lon="5.95615">
        <ele>1535.1</ele>
        <time>2026-07-14T13:00:13Z</time>
      </trkpt>
      <trkpt lat="45.18958" lon="5.95615">
        <ele>1535.1</ele>
        <time>2026-07-14T13:00:14Z</time>
      </trkpt>
      <trkpt lat="45.18958" lon="5.95615">
        <ele>1535.1</ele>
        <time>2026-07-14T13:00:15Z</time>
      </trkpt>
      <trkpt lat="45.18958" lon="5.95615">
        <ele>1535.1</ele>
        <time>2026-07-14T13:00:16Z</time>
      </trkpt>
      <trkpt lat="45.18958" lon="5.95615">
        <ele>1535</ele>
        <time>2026-07-14T13:00:17Z</time>
      </trkpt>
      <trkpt lat="45.18958" lon="5.95615">
        <ele>1535</ele>
        <time>2026-07-14T13:00:18Z</time>
      </trkpt>
      <trkpt lat="45.18958" lon="5.95615">
        <ele>1535</ele>
        <time>2026-07-14T13:00:19Z</time>
      </trkpt>
      <trkpt lat="45.18958" lon="5.95615">
        <ele>1535</ele>
        <time>2026-07-14T13:00:20Z</time>
      </trkpt>
      <trkpt lat="45.18958" lon="5.95615">
        <ele>1535</ele>
        <time>2026-07-14T13:00:21Z</time>
      </trkpt>
      <trkpt lat="45.18958" lon="5.95615">
        <ele>1535</ele>
        <time>2026-07-14T13:00:22Z</time>
      </trkpt>
      <trkpt lat="45.18958" lon="5.95615">
        <ele>1534.9</ele>
        <time>2026-07-14T13:00:24Z</time>
      </trkpt>
      <trkpt lat="45.18958" lon="5.95615">
        <ele>1534.9</ele>
        <time>2026-07-14T13:00:25Z</time>
      </trkpt>
      <trkpt lat="45.18958" lon="5.95615">
        <ele>1534.9</ele>
        <time>2026-07-14T13:00:26Z</time>
      </trkpt>
      <trkpt lat="45.18958" lon="5.95615">
        <ele>1534.9</ele>
        <time>2026-07-14T13:00:27Z</time>
      </trkpt>
      <trkpt lat="45.18958" lon="5.95615">
        <ele>1534.7</ele>
        <time>2026-07-14T13:00:28Z</time>
      </trkpt>
      <trkpt lat="45.1896" lon="5.95615">
        <ele>1534.4</ele>
        <time>2026-07-14T13:00:30Z</time>
      </trkpt>
      <trkpt lat="45.18961" lon="5.95614">
        <ele>1534</ele>
        <time>2026-07-14T13:00:31Z</time>
      </trkpt>
      <trkpt lat="45.18962" lon="5.95613">
        <ele>1533.7</ele>
        <time>2026-07-14T13:00:32Z</time>
      </trkpt>
      <trkpt lat="45.18963" lon="5.95612">
        <ele>1533.3</ele>
        <time>2026-07-14T13:00:33Z</time>
      </trkpt>
      <trkpt lat="45.18964" lon="5.95611">
        <ele>1533</ele>
        <time>2026-07-14T13:00:34Z</time>
      </trkpt>
      <trkpt lat="45.18966" lon="5.9561">
        <ele>1532.5</ele>
        <time>2026-07-14T13:00:35Z</time>
      </trkpt>
      <trkpt lat="45.18967" lon="5.95609">
        <ele>1532.2</ele>
        <time>2026-07-14T13:00:36Z</time>
      </trkpt>
      <trkpt lat="45.18967" lon="5.95609">
        <ele>1531.9</ele>
        <time>2026-07-14T13:00:37Z</time>
      </trkpt>
      <trkpt lat="45.18968" lon="5.9561">
        <ele>1531.6</ele>
        <time>2026-07-14T13:00:39Z</time>
      </trkpt>
      <trkpt lat="45.18969" lon="5.95612">
        <ele>1531.1</ele>
        <time>2026-07-14T13:00:40Z</time>
      </trkpt>
      <trkpt lat="45.18971" lon="5.95613">
        <ele>1530.7</ele>
        <time>2026-07-14T13:00:41Z</time>
      </trkpt>
      <trkpt lat="45.18972" lon="5.95613">
        <ele>1530.3</ele>
        <time>2026-07-14T13:00:42Z</time>
      </trkpt>
      <trkpt lat="45.18973" lon="5.95614">
        <ele>1530</ele>
        <time>2026-07-14T13:00:43Z</time>
      </trkpt>
      <trkpt lat="45.18974" lon="5.95615">
        <ele>1529.5</ele>
        <time>2026-07-14T13:00:44Z</time>
      </trkpt>
      <trkpt lat="45.18974" lon="5.95616">
        <ele>1529.1</ele>
        <time>2026-07-14T13:00:45Z</time>
      </trkpt>
      <trkpt lat="45.18976" lon="5.95618">
        <ele>1528.5</ele>
        <time>2026-07-14T13:00:46Z</time>
      </trkpt>
      <trkpt lat="45.18976" lon="5.95618">
        <ele>1528.3</ele>
        <time>2026-07-14T13:00:47Z</time>
      </trkpt>
      <trkpt lat="45.18977" lon="5.95619">
        <ele>1528</ele>
        <time>2026-07-14T13:00:48Z</time>
      </trkpt>
      <trkpt lat="45.18978" lon="5.95618">
        <ele>1527.8</ele>
        <time>2026-07-14T13:00:50Z</time>
      </trkpt>
      <trkpt lat="45.1898" lon="5.95618">
        <ele>1527.4</ele>
        <time>2026-07-14T13:00:51Z</time>
      </trkpt>
      <trkpt lat="45.1898" lon="5.95617">
        <ele>1527</ele>
        <time>2026-07-14T13:00:52Z</time>
      </trkpt>
      <trkpt lat="45.18981" lon="5.95617">
        <ele>1526.7</ele>
        <time>2026-07-14T13:00:53Z</time>
      </trkpt>
      <trkpt lat="45.18982" lon="5.95616">
        <ele>1526.5</ele>
        <time>2026-07-14T13:00:54Z</time>
      </trkpt>
      <trkpt lat="45.18982" lon="5.95615">
        <ele>1526.2</ele>
        <time>2026-07-14T13:00:55Z</time>
      </trkpt>
      <trkpt lat="45.18983" lon="5.95615">
        <ele>1525.9</ele>
        <time>2026-07-14T13:00:56Z</time>
      </trkpt>
      <trkpt lat="45.18984" lon="5.95614">
        <ele>1525.7</ele>
        <time>2026-07-14T13:00:57Z</time>
      </trkpt>
      <trkpt lat="45.18984" lon="5.95612">
        <ele>1525.3</ele>
        <time>2026-07-14T13:00:58Z</time>
      </trkpt>
      <trkpt lat="45.18985" lon="5.95611">
        <ele>1525</ele>
        <time>2026-07-14T13:00:59Z</time>
      </trkpt>
      <trkpt lat="45.18986" lon="5.9561">
        <ele>1524.7</ele>
        <time>2026-07-14T13:01:00Z</time>
      </trkpt>
      <trkpt lat="45.18987" lon="5.95609">
        <ele>1524.4</ele>
        <time>2026-07-14T13:01:01Z</time>
      </trkpt>
      <trkpt lat="45.18988" lon="5.95609">
        <ele>1523.9</ele>
        <time>2026-07-14T13:01:02Z</time>
      </trkpt>
      <trkpt lat="45.18988" lon="5.95609">
        <ele>1523.8</ele>
        <time>2026-07-14T13:01:04Z</time>
      </trkpt>
      <trkpt lat="45.18989" lon="5.95608">
        <ele>1523.6</ele>
        <time>2026-07-14T13:01:05Z</time>
      </trkpt>
      <trkpt lat="45.18989" lon="5.95607">
        <ele>1523.3</ele>
        <time>2026-07-14T13:01:06Z</time>
      </trkpt>
      <trkpt lat="45.18989" lon="5.95605">
        <ele>1522.9</ele>
        <time>2026-07-14T13:01:07Z</time>
      </trkpt>
      <trkpt lat="45.18989" lon="5.95603">
        <ele>1522.6</ele>
        <time>2026-07-14T13:01:09Z</time>
      </trkpt>
      <trkpt lat="45.18989" lon="5.95602">
        <ele>1522.3</ele>
        <time>2026-07-14T13:01:10Z</time>
      </trkpt>
      <trkpt lat="45.18989" lon="5.95601">
        <ele>1522.1</ele>
        <time>2026-07-14T13:01:11Z</time>
      </trkpt>
      <trkpt lat="45.18988" lon="5.956">
        <ele>1521.9</ele>
        <time>2026-07-14T13:01:12Z</time>
      </trkpt>
      <trkpt lat="45.18988" lon="5.95599">
        <ele>1521.8</ele>
        <time>2026-07-14T13:01:13Z</time>
      </trkpt>
      <trkpt lat="45.18989" lon="5.95599">
        <ele>1521.6</ele>
        <time>2026-07-14T13:01:14Z</time>
      </trkpt>
      <trkpt lat="45.18988" lon="5.95599">
        <ele>1521.4</ele>
        <time>2026-07-14T13:01:16Z</time>
      </trkpt>
      <trkpt lat="45.18988" lon="5.95599">
        <ele>1521.2</ele>
        <time>2026-07-14T13:01:18Z</time>
      </trkpt>
      <trkpt lat="45.18988" lon="5.956">
        <ele>1521.1</ele>
        <time>2026-07-14T13:01:19Z</time>
      </trkpt>
      <trkpt lat="45.18988" lon="5.95601">
        <ele>1520.9</ele>
        <time>2026-07-14T13:01:20Z</time>
      </trkpt>
      <trkpt lat="45.18987" lon="5.95604">
        <ele>1520.2</ele>
        <time>2026-07-14T13:01:21Z</time>
      </trkpt>
      <trkpt lat="45.18986" lon="5.95605">
        <ele>1519.9</ele>
        <time>2026-07-14T13:01:22Z</time>
      </trkpt>
      <trkpt lat="45.18986" lon="5.95604">
        <ele>1519.8</ele>
        <time>2026-07-14T13:01:24Z</time>
      </trkpt>
      <trkpt lat="45.18986" lon="5.95604">
        <ele>1519.7</ele>
        <time>2026-07-14T13:01:25Z</time>
      </trkpt>
      <trkpt lat="45.18986" lon="5.95604">
        <ele>1519.6</ele>
        <time>2026-07-14T13:01:26Z</time>
      </trkpt>
      <trkpt lat="45.18987" lon="5.95604">
        <ele>1519.5</ele>
        <time>2026-07-14T13:01:27Z</time>
      </trkpt>
      <trkpt lat="45.18987" lon="5.95604">
        <ele>1519.4</ele>
        <time>2026-07-14T13:01:28Z</time>
      </trkpt>
      <trkpt lat="45.18987" lon="5.95604">
        <ele>1519.4</ele>
        <time>2026-07-14T13:01:29Z</time>
      </trkpt>
      <trkpt lat="45.18987" lon="5.95604">
        <ele>1519.4</ele>
        <time>2026-07-14T13:01:30Z</time>
      </trkpt>
      <trkpt lat="45.18987" lon="5.95604">
        <ele>1519.3</ele>
        <time>2026-07-14T13:01:31Z</time>
      </trkpt>
      <trkpt lat="45.18987" lon="5.95604">
        <ele>1519.3</ele>
        <time>2026-07-14T13:01:32Z</time>
      </trkpt>
      <trkpt lat="45.18987" lon="5.95604">
        <ele>1519.3</ele>
        <time>2026-07-14T13:01:33Z</time>
      </trkpt>
      <trkpt lat="45.18987" lon="5.95604">
        <ele>1519.3</ele>
        <time>2026-07-14T13:01:34Z</time>
      </trkpt>
      <trkpt lat="45.18987" lon="5.95605">
        <ele>1519.1</ele>
        <time>2026-07-14T13:01:35Z</time>
      </trkpt>
      <trkpt lat="45.18987" lon="5.95605">
        <ele>1519</ele>
        <time>2026-07-14T13:01:36Z</time>
      </trkpt>
      <trkpt lat="45.18987" lon="5.95606">
        <ele>1518.8</ele>
        <time>2026-07-14T13:01:37Z</time>
      </trkpt>
      <trkpt lat="45.18987" lon="5.95607">
        <ele>1518.7</ele>
        <time>2026-07-14T13:01:38Z</time>
      </trkpt>
      <trkpt lat="45.18987" lon="5.95607">
        <ele>1518.7</ele>
        <time>2026-07-14T13:01:39Z</time>
      </trkpt>
      <trkpt lat="45.18987" lon="5.95607">
        <ele>1518.7</ele>
        <time>2026-07-14T13:01:40Z</time>
      </trkpt>
      <trkpt lat="45.18987" lon="5.95607">
        <ele>1518.7</ele>
        <time>2026-07-14T13:01:41Z</time>
      </trkpt>
      <trkpt lat="45.18987" lon="5.95607">
        <ele>1518.6</ele>
        <time>2026-07-14T13:01:42Z</time>
      </trkpt>
      <trkpt lat="45.18987" lon="5.95606">
        <ele>1518.6</ele>
        <time>2026-07-14T13:01:43Z</time>
      </trkpt>
      <trkpt lat="45.18987" lon="5.95606">
        <ele>1518.6</ele>
        <time>2026-07-14T13:01:44Z</time>
      </trkpt>
      <trkpt lat="45.18987" lon="5.95606">
        <ele>1518.5</ele>
        <time>2026-07-14T13:01:45Z</time>
      </trkpt>
      <trkpt lat="45.18987" lon="5.95606">
        <ele>1518.5</ele>
        <time>2026-07-14T13:01:46Z</time>
      </trkpt>
      <trkpt lat="45.18987" lon="5.95606">
        <ele>1518.5</ele>
        <time>2026-07-14T13:01:47Z</time>
      </trkpt>
      <trkpt lat="45.18987" lon="5.95607">
        <ele>1518.5</ele>
        <time>2026-07-14T13:01:48Z</time>
      </trkpt>
      <trkpt lat="45.18987" lon="5.95606">
        <ele>1518.5</ele>
        <time>2026-07-14T13:01:49Z</time>
      </trkpt>
      <trkpt lat="45.18987" lon="5.95607">
        <ele>1518.4</ele>
        <time>2026-07-14T13:01:50Z</time>
      </trkpt>
      <trkpt lat="45.18987" lon="5.95607">
        <ele>1518.4</ele>
        <time>2026-07-14T13:01:51Z</time>
      </trkpt>
      <trkpt lat="45.18987" lon="5.95607">
        <ele>1518.4</ele>
        <time>2026-07-14T13:01:52Z</time>
      </trkpt>
      <trkpt lat="45.18987" lon="5.95607">
        <ele>1518.4</ele>
        <time>2026-07-14T13:01:53Z</time>
      </trkpt>
      <trkpt lat="45.18986" lon="5.95608">
        <ele>1518</ele>
        <time>2026-07-14T13:01:54Z</time>
      </trkpt>
      <trkpt lat="45.18986" lon="5.95609">
        <ele>1517.8</ele>
        <time>2026-07-14T13:01:55Z</time>
      </trkpt>
      <trkpt lat="45.18986" lon="5.95609">
        <ele>1517.8</ele>
        <time>2026-07-14T13:01:56Z</time>
      </trkpt>
      <trkpt lat="45.18986" lon="5.95609">
        <ele>1517.7</ele>
        <time>2026-07-14T13:01:57Z</time>
      </trkpt>
      <trkpt lat="45.18986" lon="5.95609">
        <ele>1517.7</ele>
        <time>2026-07-14T13:01:58Z</time>
      </trkpt>
      <trkpt lat="45.18986" lon="5.95609">
        <ele>1517.7</ele>
        <time>2026-07-14T13:01:59Z</time>
      </trkpt>
      <trkpt lat="45.18986" lon="5.95609">
        <ele>1517.6</ele>
        <time>2026-07-14T13:02:00Z</time>
      </trkpt>
      <trkpt lat="45.18986" lon="5.95609">
        <ele>1517.6</ele>
        <time>2026-07-14T13:02:01Z</time>
      </trkpt>
      <trkpt lat="45.18986" lon="5.95609">
        <ele>1517.5</ele>
        <time>2026-07-14T13:02:02Z</time>
      </trkpt>
      <trkpt lat="45.18986" lon="5.95609">
        <ele>1517.5</ele>
        <time>2026-07-14T13:02:03Z</time>
      </trkpt>
      <trkpt lat="45.18986" lon="5.95609">
        <ele>1517.5</ele>
        <time>2026-07-14T13:02:04Z</time>
      </trkpt>
      <trkpt lat="45.18986" lon="5.95609">
        <ele>1517.5</ele>
        <time>2026-07-14T13:02:05Z</time>
      </trkpt>
      <trkpt lat="45.18986" lon="5.9561">
        <ele>1517.5</ele>
        <time>2026-07-14T13:02:06Z</time>
      </trkpt>
      <trkpt lat="45.18986" lon="5.9561">
        <ele>1517.4</ele>
        <time>2026-07-14T13:02:07Z</time>
      </trkpt>
      <trkpt lat="45.18986" lon="5.9561">
        <ele>1517.4</ele>
        <time>2026-07-14T13:02:08Z</time>
      </trkpt>
      <trkpt lat="45.18986" lon="5.9561">
        <ele>1517.4</ele>
        <time>2026-07-14T13:02:09Z</time>
      </trkpt>
      <trkpt lat="45.18986" lon="5.9561">
        <ele>1517.4</ele>
        <time>2026-07-14T13:02:10Z</time>
      </trkpt>
      <trkpt lat="45.18986" lon="5.9561">
        <ele>1517.4</ele>
        <time>2026-07-14T13:02:11Z</time>
      </trkpt>
      <trkpt lat="45.18986" lon="5.9561">
        <ele>1517.4</ele>
        <time>2026-07-14T13:02:12Z</time>
      </trkpt>
      <trkpt lat="45.18986" lon="5.9561">
        <ele>1517.4</ele>
        <time>2026-07-14T13:02:13Z</time>
      </trkpt>
      <trkpt lat="45.18986" lon="5.9561">
        <ele>1517.4</ele>
        <time>2026-07-14T13:02:14Z</time>
      </trkpt>
      <trkpt lat="45.18986" lon="5.9561">
        <ele>1517.4</ele>
        <time>2026-07-14T13:02:15Z</time>
      </trkpt>
      <trkpt lat="45.18986" lon="5.9561">
        <ele>1517.3</ele>
        <time>2026-07-14T13:02:16Z</time>
      </trkpt>
      <trkpt lat="45.18986" lon="5.9561">
        <ele>1517.3</ele>
        <time>2026-07-14T13:02:17Z</time>
      </trkpt>
      <trkpt lat="45.18986" lon="5.9561">
        <ele>1517.3</ele>
        <time>2026-07-14T13:02:18Z</time>
      </trkpt>
      <trkpt lat="45.18986" lon="5.9561">
        <ele>1517.3</ele>
        <time>2026-07-14T13:02:19Z</time>
      </trkpt>
      <trkpt lat="45.18986" lon="5.95609">
        <ele>1517.3</ele>
        <time>2026-07-14T13:02:20Z</time>
      </trkpt>
      <trkpt lat="45.18986" lon="5.95609">
        <ele>1517.3</ele>
        <time>2026-07-14T13:02:21Z</time>
      </trkpt>
      <trkpt lat="45.18986" lon="5.95609">
        <ele>1517.3</ele>
        <time>2026-07-14T13:02:22Z</time>
      </trkpt>
      <trkpt lat="45.18986" lon="5.95609">
        <ele>1517.3</ele>
        <time>2026-07-14T13:02:23Z</time>
      </trkpt>
      <trkpt lat="45.18986" lon="5.95609">
        <ele>1517.3</ele>
        <time>2026-07-14T13:02:24Z</time>
      </trkpt>
      <trkpt lat="45.18986" lon="5.95609">
        <ele>1517.3</ele>
        <time>2026-07-14T13:02:25Z</time>
      </trkpt>
      <trkpt lat="45.18986" lon="5.95609">
        <ele>1517.3</ele>
        <time>2026-07-14T13:02:26Z</time>
      </trkpt>
      <trkpt lat="45.18986" lon="5.95609">
        <ele>1517.3</ele>
        <time>2026-07-14T13:02:27Z</time>
      </trkpt>
      <trkpt lat="45.18986" lon="5.95609">
        <ele>1517.3</ele>
        <time>2026-07-14T13:02:28Z</time>
      </trkpt>
      <trkpt lat="45.18986" lon="5.95609">
        <ele>1517.3</ele>
        <time>2026-07-14T13:02:29Z</time>
      </trkpt>
      <trkpt lat="45.18986" lon="5.95609">
        <ele>1517.3</ele>
        <time>2026-07-14T13:02:30Z</time>
      </trkpt>
      <trkpt lat="45.18986" lon="5.95609">
        <ele>1517.3</ele>
        <time>2026-07-14T13:02:31Z</time>
      </trkpt>
      <trkpt lat="45.18986" lon="5.95609">
        <ele>1517.3</ele>
        <time>2026-07-14T13:02:32Z</time>
      </trkpt>
      <trkpt lat="45.18986" lon="5.95609">
        <ele>1517.3</ele>
        <time>2026-07-14T13:02:33Z</time>
      </trkpt>
      <trkpt lat="45.18986" lon="5.95609">
        <ele>1517.3</ele>
        <time>2026-07-14T13:02:34Z</time>
      </trkpt>
      <trkpt lat="45.18986" lon="5.95609">
        <ele>1517.2</ele>
        <time>2026-07-14T13:02:35Z</time>
      </trkpt>
      <trkpt lat="45.18986" lon="5.95609">
        <ele>1517.2</ele>
        <time>2026-07-14T13:02:36Z</time>
      </trkpt>
      <trkpt lat="45.18986" lon="5.95609">
        <ele>1517.2</ele>
        <time>2026-07-14T13:02:37Z</time>
      </trkpt>
      <trkpt lat="45.18986" lon="5.95609">
        <ele>1517.2</ele>
        <time>2026-07-14T13:02:38Z</time>
      </trkpt>
      <trkpt lat="45.18986" lon="5.95609">
        <ele>1517.1</ele>
        <time>2026-07-14T13:02:39Z</time>
      </trkpt>
      <trkpt lat="45.18986" lon="5.95609">
        <ele>1517.1</ele>
        <time>2026-07-14T13:02:40Z</time>
      </trkpt>
      <trkpt lat="45.18986" lon="5.95609">
        <ele>1517.1</ele>
        <time>2026-07-14T13:02:41Z</time>
      </trkpt>
      <trkpt lat="45.18986" lon="5.95609">
        <ele>1517.1</ele>
        <time>2026-07-14T13:02:42Z</time>
      </trkpt>
      <trkpt lat="45.18986" lon="5.95609">
        <ele>1517.1</ele>
        <time>2026-07-14T13:02:43Z</time>
      </trkpt>
      <trkpt lat="45.18986" lon="5.95609">
        <ele>1517.1</ele>
        <time>2026-07-14T13:02:44Z</time>
      </trkpt>
      <trkpt lat="45.18986" lon="5.95609">
        <ele>1517.1</ele>
        <time>2026-07-14T13:02:45Z</time>
      </trkpt>
      <trkpt lat="45.18986" lon="5.95609">
        <ele>1517.1</ele>
        <time>2026-07-14T13:02:46Z</time>
      </trkpt>
      <trkpt lat="45.18986" lon="5.95609">
        <ele>1517</ele>
        <time>2026-07-14T13:02:47Z</time>
      </trkpt>
      <trkpt lat="45.18986" lon="5.95609">
        <ele>1517</ele>
        <time>2026-07-14T13:02:48Z</time>
      </trkpt>
      <trkpt lat="45.18986" lon="5.95609">
        <ele>1517</ele>
        <time>2026-07-14T13:02:49Z</time>
      </trkpt>
      <trkpt lat="45.18986" lon="5.95608">
        <ele>1517</ele>
        <time>2026-07-14T13:02:50Z</time>
      </trkpt>
      <trkpt lat="45.18986" lon="5.95608">
        <ele>1517</ele>
        <time>2026-07-14T13:02:51Z</time>
      </trkpt>
      <trkpt lat="45.18986" lon="5.95608">
        <ele>1517</ele>
        <time>2026-07-14T13:02:52Z</time>
      </trkpt>
      <trkpt lat="45.18986" lon="5.95608">
        <ele>1517</ele>
        <time>2026-07-14T13:02:53Z</time>
      </trkpt>
      <trkpt lat="45.18986" lon="5.95608">
        <ele>1517</ele>
        <time>2026-07-14T13:02:54Z</time>
      </trkpt>
      <trkpt lat="45.18986" lon="5.95608">
        <ele>1517</ele>
        <time>2026-07-14T13:02:55Z</time>
      </trkpt>
      <trkpt lat="45.18986" lon="5.95608">
        <ele>1516.9</ele>
        <time>2026-07-14T13:02:56Z</time>
      </trkpt>
      <trkpt lat="45.18986" lon="5.95608">
        <ele>1516.9</ele>
        <time>2026-07-14T13:02:57Z</time>
      </trkpt>
      <trkpt lat="45.18986" lon="5.95608">
        <ele>1516.9</ele>
        <time>2026-07-14T13:02:58Z</time>
      </trkpt>
      <trkpt lat="45.18987" lon="5.95608">
        <ele>1516.9</ele>
        <time>2026-07-14T13:02:59Z</time>
      </trkpt>
      <trkpt lat="45.18987" lon="5.95608">
        <ele>1516.9</ele>
        <time>2026-07-14T13:03:00Z</time>
      </trkpt>
      <trkpt lat="45.18987" lon="5.95608">
        <ele>1516.9</ele>
        <time>2026-07-14T13:03:01Z</time>
      </trkpt>
      <trkpt lat="45.18987" lon="5.95608">
        <ele>1516.9</ele>
        <time>2026-07-14T13:03:02Z</time>
      </trkpt>
      <trkpt lat="45.18987" lon="5.95608">
        <ele>1516.9</ele>
        <time>2026-07-14T13:03:03Z</time>
      </trkpt>
      <trkpt lat="45.18987" lon="5.95608">
        <ele>1516.9</ele>
        <time>2026-07-14T13:03:04Z</time>
      </trkpt>
      <trkpt lat="45.18987" lon="5.95608">
        <ele>1516.9</ele>
        <time>2026-07-14T13:03:05Z</time>
      </trkpt>
      <trkpt lat="45.18987" lon="5.95608">
        <ele>1516.9</ele>
        <time>2026-07-14T13:03:06Z</time>
      </trkpt>
      <trkpt lat="45.18987" lon="5.95608">
        <ele>1516.8</ele>
        <time>2026-07-14T13:03:07Z</time>
      </trkpt>
      <trkpt lat="45.18987" lon="5.95608">
        <ele>1516.8</ele>
        <time>2026-07-14T13:03:08Z</time>
      </trkpt>
      <trkpt lat="45.18987" lon="5.95608">
        <ele>1516.8</ele>
        <time>2026-07-14T13:03:09Z</time>
      </trkpt>
      <trkpt lat="45.18987" lon="5.95608">
        <ele>1516.8</ele>
        <time>2026-07-14T13:03:10Z</time>
      </trkpt>
      <trkpt lat="45.18987" lon="5.95608">
        <ele>1516.8</ele>
        <time>2026-07-14T13:03:11Z</time>
      </trkpt>
      <trkpt lat="45.18987" lon="5.95608">
        <ele>1516.8</ele>
        <time>2026-07-14T13:03:12Z</time>
      </trkpt>
      <trkpt lat="45.18987" lon="5.95608">
        <ele>1516.8</ele>
        <time>2026-07-14T13:03:13Z</time>
      </trkpt>
      <trkpt lat="45.18987" lon="5.95608">
        <ele>1516.8</ele>
        <time>2026-07-14T13:03:14Z</time>
      </trkpt>
      <trkpt lat="45.18987" lon="5.95608">
        <ele>1516.8</ele>
        <time>2026-07-14T13:03:15Z</time>
      </trkpt>
      <trkpt lat="45.18987" lon="5.95608">
        <ele>1516.8</ele>
        <time>2026-07-14T13:03:16Z</time>
      </trkpt>
      <trkpt lat="45.18987" lon="5.95608">
        <ele>1516.8</ele>
        <time>2026-07-14T13:03:17Z</time>
      </trkpt>
      <trkpt lat="45.18987" lon="5.95608">
        <ele>1516.8</ele>
        <time>2026-07-14T13:03:18Z</time>
      </trkpt>
      <trkpt lat="45.18987" lon="5.95607">
        <ele>1516.7</ele>
        <time>2026-07-14T13:03:19Z</time>
      </trkpt>
      <trkpt lat="45.18987" lon="5.95607">
        <ele>1516.7</ele>
        <time>2026-07-14T13:03:20Z</time>
      </trkpt>
      <trkpt lat="45.18987" lon="5.95607">
        <ele>1516.7</ele>
        <time>2026-07-14T13:03:21Z</time>
      </trkpt>
      <trkpt lat="45.18987" lon="5.95607">
        <ele>1516.7</ele>
        <time>2026-07-14T13:03:22Z</time>
      </trkpt>
      <trkpt lat="45.18987" lon="5.95607">
        <ele>1516.7</ele>
        <time>2026-07-14T13:03:23Z</time>
      </trkpt>
      <trkpt lat="45.18987" lon="5.95607">
        <ele>1516.7</ele>
        <time>2026-07-14T13:03:24Z</time>
      </trkpt>
      <trkpt lat="45.18987" lon="5.95607">
        <ele>1516.7</ele>
        <time>2026-07-14T13:03:25Z</time>
      </trkpt>
      <trkpt lat="45.18987" lon="5.95607">
        <ele>1516.7</ele>
        <time>2026-07-14T13:03:26Z</time>
      </trkpt>
      <trkpt lat="45.18987" lon="5.95607">
        <ele>1516.7</ele>
        <time>2026-07-14T13:03:27Z</time>
      </trkpt>
      <trkpt lat="45.18987" lon="5.95607">
        <ele>1516.7</ele>
        <time>2026-07-14T13:03:28Z</time>
      </trkpt>
      <trkpt lat="45.18987" lon="5.95607">
        <ele>1516.7</ele>
        <time>2026-07-14T13:03:29Z</time>
      </trkpt>
      <trkpt lat="45.18987" lon="5.95607">
        <ele>1516.7</ele>
        <time>2026-07-14T13:03:30Z</time>
      </trkpt>
      <trkpt lat="45.18987" lon="5.95607">
        <ele>1516.7</ele>
        <time>2026-07-14T13:03:31Z</time>
      </trkpt>
      <trkpt lat="45.18987" lon="5.95607">
        <ele>1516.7</ele>
        <time>2026-07-14T13:03:32Z</time>
      </trkpt>
      <trkpt lat="45.18987" lon="5.95607">
        <ele>1516.7</ele>
        <time>2026-07-14T13:03:33Z</time>
      </trkpt>
      <trkpt lat="45.18987" lon="5.95607">
        <ele>1516.7</ele>
        <time>2026-07-14T13:03:34Z</time>
      </trkpt>
      <trkpt lat="45.18987" lon="5.95607">
        <ele>1516.7</ele>
        <time>2026-07-14T13:03:35Z</time>
      </trkpt>
      <trkpt lat="45.18987" lon="5.95607">
        <ele>1516.7</ele>
        <time>2026-07-14T13:03:36Z</time>
      </trkpt>
      <trkpt lat="45.18987" lon="5.95607">
        <ele>1516.7</ele>
        <time>2026-07-14T13:03:37Z</time>
      </trkpt>
      <trkpt lat="45.18987" lon="5.95607">
        <ele>1516.7</ele>
        <time>2026-07-14T13:03:38Z</time>
      </trkpt>
      <trkpt lat="45.18987" lon="5.95607">
        <ele>1516.7</ele>
        <time>2026-07-14T13:03:39Z</time>
      </trkpt>
      <trkpt lat="45.18987" lon="5.95607">
        <ele>1516.7</ele>
        <time>2026-07-14T13:03:40Z</time>
      </trkpt>
      <trkpt lat="45.18987" lon="5.95607">
        <ele>1516.7</ele>
        <time>2026-07-14T13:03:41Z</time>
      </trkpt>
      <trkpt lat="45.18987" lon="5.95607">
        <ele>1516.6</ele>
        <time>2026-07-14T13:03:42Z</time>
      </trkpt>
      <trkpt lat="45.18987" lon="5.95607">
        <ele>1516.6</ele>
        <time>2026-07-14T13:03:43Z</time>
      </trkpt>
      <trkpt lat="45.18987" lon="5.95607">
        <ele>1516.6</ele>
        <time>2026-07-14T13:03:44Z</time>
      </trkpt>
      <trkpt lat="45.18987" lon="5.95607">
        <ele>1516.6</ele>
        <time>2026-07-14T13:03:45Z</time>
      </trkpt>
      <trkpt lat="45.18987" lon="5.95607">
        <ele>1516.6</ele>
        <time>2026-07-14T13:03:46Z</time>
      </trkpt>
      <trkpt lat="45.18987" lon="5.95607">
        <ele>1516.6</ele>
        <time>2026-07-14T13:03:47Z</time>
      </trkpt>
      <trkpt lat="45.18987" lon="5.95607">
        <ele>1516.6</ele>
        <time>2026-07-14T13:03:48Z</time>
      </trkpt>
      <trkpt lat="45.18987" lon="5.95607">
        <ele>1516.6</ele>
        <time>2026-07-14T13:03:49Z</time>
      </trkpt>
      <trkpt lat="45.18987" lon="5.95607">
        <ele>1516.6</ele>
        <time>2026-07-14T13:03:50Z</time>
      </trkpt>
      <trkpt lat="45.18987" lon="5.95607">
        <ele>1516.6</ele>
        <time>2026-07-14T13:03:51Z</time>
      </trkpt>
      <trkpt lat="45.18987" lon="5.95607">
        <ele>1516.6</ele>
        <time>2026-07-14T13:03:52Z</time>
      </trkpt>
      <trkpt lat="45.18987" lon="5.95607">
        <ele>1516.6</ele>
        <time>2026-07-14T13:03:53Z</time>
      </trkpt>
      <trkpt lat="45.18987" lon="5.95607">
        <ele>1516.6</ele>
        <time>2026-07-14T13:03:54Z</time>
      </trkpt>
      <trkpt lat="45.18987" lon="5.95607">
        <ele>1516.6</ele>
        <time>2026-07-14T13:03:55Z</time>
      </trkpt>
      <trkpt lat="45.18987" lon="5.95607">
        <ele>1516.6</ele>
        <time>2026-07-14T13:03:56Z</time>
      </trkpt>
      <trkpt lat="45.18987" lon="5.95607">
        <ele>1516.6</ele>
        <time>2026-07-14T13:03:57Z</time>
      </trkpt>
      <trkpt lat="45.18987" lon="5.95607">
        <ele>1516.6</ele>
        <time>2026-07-14T13:03:58Z</time>
      </trkpt>
      <trkpt lat="45.18987" lon="5.95607">
        <ele>1516.6</ele>
        <time>2026-07-14T13:03:59Z</time>
      </trkpt>
      <trkpt lat="45.18987" lon="5.95607">
        <ele>1516.6</ele>
        <time>2026-07-14T13:04:00Z</time>
      </trkpt>
      <trkpt lat="45.18987" lon="5.95607">
        <ele>1516.6</ele>
        <time>2026-07-14T13:04:01Z</time>
      </trkpt>
      <trkpt lat="45.18987" lon="5.95607">
        <ele>1516.6</ele>
        <time>2026-07-14T13:04:02Z</time>
      </trkpt>
      <trkpt lat="45.18987" lon="5.95607">
        <ele>1516.5</ele>
        <time>2026-07-14T13:04:03Z</time>
      </trkpt>
      <trkpt lat="45.18987" lon="5.95607">
        <ele>1516.5</ele>
        <time>2026-07-14T13:04:04Z</time>
      </trkpt>
      <trkpt lat="45.18987" lon="5.95607">
        <ele>1516.5</ele>
        <time>2026-07-14T13:04:05Z</time>
      </trkpt>
      <trkpt lat="45.18987" lon="5.95607">
        <ele>1516.5</ele>
        <time>2026-07-14T13:04:06Z</time>
      </trkpt>
      <trkpt lat="45.18987" lon="5.95607">
        <ele>1516.5</ele>
        <time>2026-07-14T13:04:07Z</time>
      </trkpt>
      <trkpt lat="45.18987" lon="5.95607">
        <ele>1516.5</ele>
        <time>2026-07-14T13:04:08Z</time>
      </trkpt>
      <trkpt lat="45.18987" lon="5.95607">
        <ele>1516.5</ele>
        <time>2026-07-14T13:04:09Z</time>
      </trkpt>
      <trkpt lat="45.18986" lon="5.95607">
        <ele>1516.5</ele>
        <time>2026-07-14T13:04:10Z</time>
      </trkpt>
      <trkpt lat="45.18986" lon="5.95607">
        <ele>1516.5</ele>
        <time>2026-07-14T13:04:11Z</time>
      </trkpt>
      <trkpt lat="45.18986" lon="5.95607">
        <ele>1516.5</ele>
        <time>2026-07-14T13:04:12Z</time>
      </trkpt>
      <trkpt lat="45.18986" lon="5.95607">
        <ele>1516.5</ele>
        <time>2026-07-14T13:04:13Z</time>
      </trkpt>
      <trkpt lat="45.18986" lon="5.95607">
        <ele>1516.4</ele>
        <time>2026-07-14T13:04:14Z</time>
      </trkpt>
      <trkpt lat="45.18986" lon="5.95607">
        <ele>1516.4</ele>
        <time>2026-07-14T13:04:15Z</time>
      </trkpt>
      <trkpt lat="45.18986" lon="5.95607">
        <ele>1516.4</ele>
        <time>2026-07-14T13:04:16Z</time>
      </trkpt>
      <trkpt lat="45.18986" lon="5.95607">
        <ele>1516.4</ele>
        <time>2026-07-14T13:04:17Z</time>
      </trkpt>
      <trkpt lat="45.18986" lon="5.95607">
        <ele>1516.4</ele>
        <time>2026-07-14T13:04:18Z</time>
      </trkpt>
      <trkpt lat="45.18986" lon="5.95607">
        <ele>1516.4</ele>
        <time>2026-07-14T13:04:19Z</time>
      </trkpt>
      <trkpt lat="45.18987" lon="5.95607">
        <ele>1516.4</ele>
        <time>2026-07-14T13:04:20Z</time>
      </trkpt>
      <trkpt lat="45.18987" lon="5.95607">
        <ele>1516.4</ele>
        <time>2026-07-14T13:04:21Z</time>
      </trkpt>
      <trkpt lat="45.18987" lon="5.95607">
        <ele>1516.4</ele>
        <time>2026-07-14T13:04:22Z</time>
      </trkpt>
      <trkpt lat="45.18987" lon="5.95607">
        <ele>1516.3</ele>
        <time>2026-07-14T13:04:23Z</time>
      </trkpt>
      <trkpt lat="45.18987" lon="5.95607">
        <ele>1516.3</ele>
        <time>2026-07-14T13:04:24Z</time>
      </trkpt>
      <trkpt lat="45.18987" lon="5.95607">
        <ele>1516.3</ele>
        <time>2026-07-14T13:04:25Z</time>
      </trkpt>
      <trkpt lat="45.18987" lon="5.95607">
        <ele>1516.3</ele>
        <time>2026-07-14T13:04:26Z</time>
      </trkpt>
      <trkpt lat="45.18987" lon="5.95607">
        <ele>1516.3</ele>
        <time>2026-07-14T13:04:27Z</time>
      </trkpt>
      <trkpt lat="45.18987" lon="5.95607">
        <ele>1516.2</ele>
        <time>2026-07-14T13:04:28Z</time>
      </trkpt>
      <trkpt lat="45.18987" lon="5.95607">
        <ele>1516.2</ele>
        <time>2026-07-14T13:04:29Z</time>
      </trkpt>
      <trkpt lat="45.18987" lon="5.95607">
        <ele>1516.2</ele>
        <time>2026-07-14T13:04:30Z</time>
      </trkpt>
      <trkpt lat="45.18987" lon="5.95607">
        <ele>1516.2</ele>
        <time>2026-07-14T13:04:31Z</time>
      </trkpt>
      <trkpt lat="45.18987" lon="5.95607">
        <ele>1516.1</ele>
        <time>2026-07-14T13:04:32Z</time>
      </trkpt>
      <trkpt lat="45.18987" lon="5.95607">
        <ele>1516.1</ele>
        <time>2026-07-14T13:04:33Z</time>
      </trkpt>
      <trkpt lat="45.18987" lon="5.95607">
        <ele>1516.1</ele>
        <time>2026-07-14T13:04:34Z</time>
      </trkpt>
      <trkpt lat="45.18987" lon="5.95607">
        <ele>1516.1</ele>
        <time>2026-07-14T13:04:35Z</time>
      </trkpt>
      <trkpt lat="45.18987" lon="5.95607">
        <ele>1516.1</ele>
        <time>2026-07-14T13:04:36Z</time>
      </trkpt>
      <trkpt lat="45.18987" lon="5.95607">
        <ele>1516</ele>
        <time>2026-07-14T13:04:37Z</time>
      </trkpt>
      <trkpt lat="45.18987" lon="5.95607">
        <ele>1516</ele>
        <time>2026-07-14T13:04:38Z</time>
      </trkpt>
      <trkpt lat="45.18987" lon="5.95607">
        <ele>1516</ele>
        <time>2026-07-14T13:04:39Z</time>
      </trkpt>
      <trkpt lat="45.18987" lon="5.95607">
        <ele>1515.9</ele>
        <time>2026-07-14T13:04:40Z</time>
      </trkpt>
      <trkpt lat="45.18987" lon="5.95607">
        <ele>1515.9</ele>
        <time>2026-07-14T13:04:41Z</time>
      </trkpt>
      <trkpt lat="45.18987" lon="5.95607">
        <ele>1515.9</ele>
        <time>2026-07-14T13:04:42Z</time>
      </trkpt>
      <trkpt lat="45.18987" lon="5.95607">
        <ele>1515.8</ele>
        <time>2026-07-14T13:04:43Z</time>
      </trkpt>
      <trkpt lat="45.18987" lon="5.95607">
        <ele>1515.8</ele>
        <time>2026-07-14T13:04:44Z</time>
      </trkpt>
      <trkpt lat="45.18987" lon="5.95607">
        <ele>1515.7</ele>
        <time>2026-07-14T13:04:45Z</time>
      </trkpt>
      <trkpt lat="45.18987" lon="5.95607">
        <ele>1515.7</ele>
        <time>2026-07-14T13:04:47Z</time>
      </trkpt>
      <trkpt lat="45.18987" lon="5.95607">
        <ele>1515.6</ele>
        <time>2026-07-14T13:04:48Z</time>
      </trkpt>
      <trkpt lat="45.18987" lon="5.95607">
        <ele>1515.6</ele>
        <time>2026-07-14T13:04:50Z</time>
      </trkpt>
      <trkpt lat="45.18987" lon="5.95606">
        <ele>1515.6</ele>
        <time>2026-07-14T13:04:51Z</time>
      </trkpt>
      <trkpt lat="45.18987" lon="5.95606">
        <ele>1515.6</ele>
        <time>2026-07-14T13:04:52Z</time>
      </trkpt>
      <trkpt lat="45.18987" lon="5.95607">
        <ele>1515.5</ele>
        <time>2026-07-14T13:04:53Z</time>
      </trkpt>
      <trkpt lat="45.18987" lon="5.95607">
        <ele>1515.5</ele>
        <time>2026-07-14T13:04:54Z</time>
      </trkpt>
      <trkpt lat="45.18987" lon="5.95607">
        <ele>1515.4</ele>
        <time>2026-07-14T13:04:55Z</time>
      </trkpt>
      <trkpt lat="45.18987" lon="5.95607">
        <ele>1515.4</ele>
        <time>2026-07-14T13:04:56Z</time>
      </trkpt>
      <trkpt lat="45.18987" lon="5.95606">
        <ele>1515.3</ele>
        <time>2026-07-14T13:04:57Z</time>
      </trkpt>
      <trkpt lat="45.18987" lon="5.95606">
        <ele>1515.3</ele>
        <time>2026-07-14T13:04:58Z</time>
      </trkpt>
      <trkpt lat="45.18987" lon="5.95606">
        <ele>1515.3</ele>
        <time>2026-07-14T13:04:59Z</time>
      </trkpt>
      <trkpt lat="45.18987" lon="5.95606">
        <ele>1515.2</ele>
        <time>2026-07-14T13:05:00Z</time>
      </trkpt>
      <trkpt lat="45.18988" lon="5.95606">
        <ele>1515.2</ele>
        <time>2026-07-14T13:05:01Z</time>
      </trkpt>
      <trkpt lat="45.18988" lon="5.95606">
        <ele>1515.2</ele>
        <time>2026-07-14T13:05:02Z</time>
      </trkpt>
      <trkpt lat="45.18988" lon="5.95606">
        <ele>1515.1</ele>
        <time>2026-07-14T13:05:03Z</time>
      </trkpt>
      <trkpt lat="45.18988" lon="5.95606">
        <ele>1515.1</ele>
        <time>2026-07-14T13:05:04Z</time>
      </trkpt>
      <trkpt lat="45.18988" lon="5.95606">
        <ele>1515.1</ele>
        <time>2026-07-14T13:05:05Z</time>
      </trkpt>
      <trkpt lat="45.18988" lon="5.95606">
        <ele>1515</ele>
        <time>2026-07-14T13:05:06Z</time>
      </trkpt>
      <trkpt lat="45.18988" lon="5.95606">
        <ele>1515</ele>
        <time>2026-07-14T13:05:07Z</time>
      </trkpt>
      <trkpt lat="45.18988" lon="5.95606">
        <ele>1515</ele>
        <time>2026-07-14T13:05:08Z</time>
      </trkpt>
      <trkpt lat="45.18989" lon="5.95606">
        <ele>1514.8</ele>
        <time>2026-07-14T13:05:10Z</time>
      </trkpt>
      <trkpt lat="45.18989" lon="5.95606">
        <ele>1514.7</ele>
        <time>2026-07-14T13:05:11Z</time>
      </trkpt>
      <trkpt lat="45.18989" lon="5.95606">
        <ele>1514.6</ele>
        <time>2026-07-14T13:05:13Z</time>
      </trkpt>
      <trkpt lat="45.1899" lon="5.95607">
        <ele>1514.6</ele>
        <time>2026-07-14T13:05:14Z</time>
      </trkpt>
      <trkpt lat="45.1899" lon="5.95607">
        <ele>1514.6</ele>
        <time>2026-07-14T13:05:15Z</time>
      </trkpt>
      <trkpt lat="45.18989" lon="5.95606">
        <ele>1514.5</ele>
        <time>2026-07-14T13:05:16Z</time>
      </trkpt>
      <trkpt lat="45.1899" lon="5.95606">
        <ele>1514.4</ele>
        <time>2026-07-14T13:05:18Z</time>
      </trkpt>
      <trkpt lat="45.1899" lon="5.95606">
        <ele>1514.4</ele>
        <time>2026-07-14T13:05:19Z</time>
      </trkpt>
      <trkpt lat="45.1899" lon="5.95606">
        <ele>1514.4</ele>
        <time>2026-07-14T13:05:20Z</time>
      </trkpt>
      <trkpt lat="45.1899" lon="5.95606">
        <ele>1514.3</ele>
        <time>2026-07-14T13:05:21Z</time>
      </trkpt>
      <trkpt lat="45.1899" lon="5.95606">
        <ele>1514.3</ele>
        <time>2026-07-14T13:05:22Z</time>
      </trkpt>
      <trkpt lat="45.1899" lon="5.95606">
        <ele>1514.3</ele>
        <time>2026-07-14T13:05:23Z</time>
      </trkpt>
      <trkpt lat="45.1899" lon="5.95606">
        <ele>1514.2</ele>
        <time>2026-07-14T13:05:24Z</time>
      </trkpt>
      <trkpt lat="45.1899" lon="5.95606">
        <ele>1514.2</ele>
        <time>2026-07-14T13:05:25Z</time>
      </trkpt>
      <trkpt lat="45.1899" lon="5.95606">
        <ele>1514.2</ele>
        <time>2026-07-14T13:05:26Z</time>
      </trkpt>
      <trkpt lat="45.1899" lon="5.95606">
        <ele>1514.2</ele>
        <time>2026-07-14T13:05:27Z</time>
      </trkpt>
      <trkpt lat="45.1899" lon="5.95606">
        <ele>1514.2</ele>
        <time>2026-07-14T13:05:28Z</time>
      </trkpt>
      <trkpt lat="45.18991" lon="5.95606">
        <ele>1514.1</ele>
        <time>2026-07-14T13:05:29Z</time>
      </trkpt>
      <trkpt lat="45.18991" lon="5.95606">
        <ele>1514.1</ele>
        <time>2026-07-14T13:05:30Z</time>
      </trkpt>
      <trkpt lat="45.18991" lon="5.95606">
        <ele>1514.1</ele>
        <time>2026-07-14T13:05:31Z</time>
      </trkpt>
      <trkpt lat="45.18991" lon="5.95606">
        <ele>1514.1</ele>
        <time>2026-07-14T13:05:32Z</time>
      </trkpt>
      <trkpt lat="45.18991" lon="5.95606">
        <ele>1514.1</ele>
        <time>2026-07-14T13:05:33Z</time>
      </trkpt>
      <trkpt lat="45.18991" lon="5.95606">
        <ele>1514</ele>
        <time>2026-07-14T13:05:34Z</time>
      </trkpt>
      <trkpt lat="45.18991" lon="5.95605">
        <ele>1514</ele>
        <time>2026-07-14T13:05:35Z</time>
      </trkpt>
      <trkpt lat="45.18991" lon="5.95606">
        <ele>1514</ele>
        <time>2026-07-14T13:05:36Z</time>
      </trkpt>
      <trkpt lat="45.18991" lon="5.95606">
        <ele>1513.9</ele>
        <time>2026-07-14T13:05:37Z</time>
      </trkpt>
      <trkpt lat="45.18991" lon="5.95606">
        <ele>1513.9</ele>
        <time>2026-07-14T13:05:38Z</time>
      </trkpt>
      <trkpt lat="45.18991" lon="5.95606">
        <ele>1513.9</ele>
        <time>2026-07-14T13:05:39Z</time>
      </trkpt>
      <trkpt lat="45.18991" lon="5.95605">
        <ele>1513.8</ele>
        <time>2026-07-14T13:05:40Z</time>
      </trkpt>
      <trkpt lat="45.18991" lon="5.95605">
        <ele>1513.8</ele>
        <time>2026-07-14T13:05:41Z</time>
      </trkpt>
      <trkpt lat="45.18992" lon="5.95605">
        <ele>1513.8</ele>
        <time>2026-07-14T13:05:42Z</time>
      </trkpt>
      <trkpt lat="45.18992" lon="5.95605">
        <ele>1513.7</ele>
        <time>2026-07-14T13:05:43Z</time>
      </trkpt>
      <trkpt lat="45.18992" lon="5.95605">
        <ele>1513.6</ele>
        <time>2026-07-14T13:05:44Z</time>
      </trkpt>
      <trkpt lat="45.18992" lon="5.95605">
        <ele>1513.6</ele>
        <time>2026-07-14T13:05:45Z</time>
      </trkpt>
      <trkpt lat="45.18992" lon="5.95605">
        <ele>1513.5</ele>
        <time>2026-07-14T13:05:46Z</time>
      </trkpt>
      <trkpt lat="45.18992" lon="5.95604">
        <ele>1513.4</ele>
        <time>2026-07-14T13:05:47Z</time>
      </trkpt>
      <trkpt lat="45.18993" lon="5.95603">
        <ele>1513.1</ele>
        <time>2026-07-14T13:05:48Z</time>
      </trkpt>
      <trkpt lat="45.18994" lon="5.95603">
        <ele>1512.8</ele>
        <time>2026-07-14T13:05:49Z</time>
      </trkpt>
      <trkpt lat="45.18995" lon="5.95603">
        <ele>1512.7</ele>
        <time>2026-07-14T13:05:50Z</time>
      </trkpt>
      <trkpt lat="45.18994" lon="5.95603">
        <ele>1512.6</ele>
        <time>2026-07-14T13:05:51Z</time>
      </trkpt>
      <trkpt lat="45.18994" lon="5.95603">
        <ele>1512.6</ele>
        <time>2026-07-14T13:05:52Z</time>
      </trkpt>
      <trkpt lat="45.18994" lon="5.95603">
        <ele>1512.6</ele>
        <time>2026-07-14T13:05:53Z</time>
      </trkpt>
      <trkpt lat="45.18994" lon="5.95603">
        <ele>1512.5</ele>
        <time>2026-07-14T13:05:54Z</time>
      </trkpt>
      <trkpt lat="45.18995" lon="5.95603">
        <ele>1512.3</ele>
        <time>2026-07-14T13:05:55Z</time>
      </trkpt>
      <trkpt lat="45.18996" lon="5.95603">
        <ele>1512.1</ele>
        <time>2026-07-14T13:05:57Z</time>
      </trkpt>
      <trkpt lat="45.18996" lon="5.95603">
        <ele>1512</ele>
        <time>2026-07-14T13:05:59Z</time>
      </trkpt>
      <trkpt lat="45.18997" lon="5.95603">
        <ele>1511.8</ele>
        <time>2026-07-14T13:06:00Z</time>
      </trkpt>
      <trkpt lat="45.18998" lon="5.95603">
        <ele>1511.6</ele>
        <time>2026-07-14T13:06:01Z</time>
      </trkpt>
      <trkpt lat="45.18998" lon="5.95604">
        <ele>1511.5</ele>
        <time>2026-07-14T13:06:02Z</time>
      </trkpt>
      <trkpt lat="45.18999" lon="5.95605">
        <ele>1511.3</ele>
        <time>2026-07-14T13:06:03Z</time>
      </trkpt>
      <trkpt lat="45.18999" lon="5.95606">
        <ele>1511.1</ele>
        <time>2026-07-14T13:06:04Z</time>
      </trkpt>
      <trkpt lat="45.19" lon="5.95606">
        <ele>1511</ele>
        <time>2026-07-14T13:06:05Z</time>
      </trkpt>
      <trkpt lat="45.19" lon="5.95605">
        <ele>1510.9</ele>
        <time>2026-07-14T13:06:06Z</time>
      </trkpt>
      <trkpt lat="45.18999" lon="5.95605">
        <ele>1510.7</ele>
        <time>2026-07-14T13:06:07Z</time>
      </trkpt>
      <trkpt lat="45.18999" lon="5.95604">
        <ele>1510.6</ele>
        <time>2026-07-14T13:06:08Z</time>
      </trkpt>
      <trkpt lat="45.18999" lon="5.95604">
        <ele>1510.5</ele>
        <time>2026-07-14T13:06:09Z</time>
      </trkpt>
      <trkpt lat="45.18999" lon="5.95603">
        <ele>1510.4</ele>
        <time>2026-07-14T13:06:10Z</time>
      </trkpt>
      <trkpt lat="45.18998" lon="5.95603">
        <ele>1510.2</ele>
        <time>2026-07-14T13:06:11Z</time>
      </trkpt>
      <trkpt lat="45.18998" lon="5.95603">
        <ele>1510.2</ele>
        <time>2026-07-14T13:06:12Z</time>
      </trkpt>
      <trkpt lat="45.18997" lon="5.95606">
        <ele>1509.6</ele>
        <time>2026-07-14T13:06:13Z</time>
      </trkpt>
      <trkpt lat="45.18997" lon="5.95607">
        <ele>1509.4</ele>
        <time>2026-07-14T13:06:14Z</time>
      </trkpt>
      <trkpt lat="45.18998" lon="5.95607">
        <ele>1509.3</ele>
        <time>2026-07-14T13:06:15Z</time>
      </trkpt>
      <trkpt lat="45.18999" lon="5.95606">
        <ele>1509</ele>
        <time>2026-07-14T13:06:16Z</time>
      </trkpt>
      <trkpt lat="45.18999" lon="5.95606">
        <ele>1508.9</ele>
        <time>2026-07-14T13:06:18Z</time>
      </trkpt>
      <trkpt lat="45.19" lon="5.95606">
        <ele>1508.8</ele>
        <time>2026-07-14T13:06:19Z</time>
      </trkpt>
      <trkpt lat="45.19" lon="5.95606">
        <ele>1508.7</ele>
        <time>2026-07-14T13:06:20Z</time>
      </trkpt>
      <trkpt lat="45.19" lon="5.95607">
        <ele>1508.6</ele>
        <time>2026-07-14T13:06:21Z</time>
      </trkpt>
      <trkpt lat="45.19001" lon="5.95607">
        <ele>1508.3</ele>
        <time>2026-07-14T13:06:22Z</time>
      </trkpt>
      <trkpt lat="45.19002" lon="5.95608">
        <ele>1508.2</ele>
        <time>2026-07-14T13:06:24Z</time>
      </trkpt>
      <trkpt lat="45.19002" lon="5.95608">
        <ele>1508.1</ele>
        <time>2026-07-14T13:06:25Z</time>
      </trkpt>
      <trkpt lat="45.19003" lon="5.95607">
        <ele>1507.8</ele>
        <time>2026-07-14T13:06:26Z</time>
      </trkpt>
      <trkpt lat="45.19004" lon="5.95606">
        <ele>1507.6</ele>
        <time>2026-07-14T13:06:28Z</time>
      </trkpt>
      <trkpt lat="45.19004" lon="5.95606">
        <ele>1507.5</ele>
        <time>2026-07-14T13:06:29Z</time>
      </trkpt>
      <trkpt lat="45.19005" lon="5.95606">
        <ele>1507.3</ele>
        <time>2026-07-14T13:06:30Z</time>
      </trkpt>
      <trkpt lat="45.19006" lon="5.95606">
        <ele>1507.1</ele>
        <time>2026-07-14T13:06:31Z</time>
      </trkpt>
      <trkpt lat="45.19007" lon="5.95606">
        <ele>1506.9</ele>
        <time>2026-07-14T13:06:32Z</time>
      </trkpt>
      <trkpt lat="45.19007" lon="5.95606">
        <ele>1506.8</ele>
        <time>2026-07-14T13:06:33Z</time>
      </trkpt>
      <trkpt lat="45.19008" lon="5.95606">
        <ele>1506.6</ele>
        <time>2026-07-14T13:06:34Z</time>
      </trkpt>
      <trkpt lat="45.19007" lon="5.95608">
        <ele>1506.2</ele>
        <time>2026-07-14T13:06:35Z</time>
      </trkpt>
      <trkpt lat="45.19007" lon="5.95608">
        <ele>1506.1</ele>
        <time>2026-07-14T13:06:36Z</time>
      </trkpt>
      <trkpt lat="45.19008" lon="5.95608">
        <ele>1505.8</ele>
        <time>2026-07-14T13:06:37Z</time>
      </trkpt>
      <trkpt lat="45.19009" lon="5.95609">
        <ele>1505.7</ele>
        <time>2026-07-14T13:06:39Z</time>
      </trkpt>
      <trkpt lat="45.19009" lon="5.95609">
        <ele>1505.6</ele>
        <time>2026-07-14T13:06:40Z</time>
      </trkpt>
      <trkpt lat="45.1901" lon="5.95609">
        <ele>1505.4</ele>
        <time>2026-07-14T13:06:41Z</time>
      </trkpt>
      <trkpt lat="45.1901" lon="5.95609">
        <ele>1505.3</ele>
        <time>2026-07-14T13:06:42Z</time>
      </trkpt>
      <trkpt lat="45.19012" lon="5.95608">
        <ele>1505</ele>
        <time>2026-07-14T13:06:43Z</time>
      </trkpt>
      <trkpt lat="45.19011" lon="5.95608">
        <ele>1505</ele>
        <time>2026-07-14T13:06:44Z</time>
      </trkpt>
      <trkpt lat="45.19011" lon="5.95608">
        <ele>1504.9</ele>
        <time>2026-07-14T13:06:45Z</time>
      </trkpt>
      <trkpt lat="45.19011" lon="5.95609">
        <ele>1504.9</ele>
        <time>2026-07-14T13:06:46Z</time>
      </trkpt>
      <trkpt lat="45.19011" lon="5.95609">
        <ele>1504.8</ele>
        <time>2026-07-14T13:06:47Z</time>
      </trkpt>
      <trkpt lat="45.19011" lon="5.95609">
        <ele>1504.8</ele>
        <time>2026-07-14T13:06:48Z</time>
      </trkpt>
      <trkpt lat="45.19011" lon="5.9561">
        <ele>1504.6</ele>
        <time>2026-07-14T13:06:49Z</time>
      </trkpt>
      <trkpt lat="45.19011" lon="5.9561">
        <ele>1504.5</ele>
        <time>2026-07-14T13:06:50Z</time>
      </trkpt>
      <trkpt lat="45.19012" lon="5.9561">
        <ele>1504.4</ele>
        <time>2026-07-14T13:06:52Z</time>
      </trkpt>
      <trkpt lat="45.19013" lon="5.9561">
        <ele>1504.2</ele>
        <time>2026-07-14T13:06:53Z</time>
      </trkpt>
      <trkpt lat="45.19013" lon="5.95609">
        <ele>1503.9</ele>
        <time>2026-07-14T13:06:54Z</time>
      </trkpt>
      <trkpt lat="45.19014" lon="5.95609">
        <ele>1503.7</ele>
        <time>2026-07-14T13:06:55Z</time>
      </trkpt>
      <trkpt lat="45.19015" lon="5.95609">
        <ele>1503.5</ele>
        <time>2026-07-14T13:06:56Z</time>
      </trkpt>
      <trkpt lat="45.19015" lon="5.95611">
        <ele>1503.2</ele>
        <time>2026-07-14T13:06:57Z</time>
      </trkpt>
      <trkpt lat="45.19014" lon="5.95612">
        <ele>1502.9</ele>
        <time>2026-07-14T13:06:58Z</time>
      </trkpt>
      <trkpt lat="45.19013" lon="5.95613">
        <ele>1502.6</ele>
        <time>2026-07-14T13:06:59Z</time>
      </trkpt>
      <trkpt lat="45.19013" lon="5.95613">
        <ele>1502.6</ele>
        <time>2026-07-14T13:07:00Z</time>
      </trkpt>
      <trkpt lat="45.19013" lon="5.95613">
        <ele>1502.5</ele>
        <time>2026-07-14T13:07:01Z</time>
      </trkpt>
      <trkpt lat="45.19013" lon="5.95613">
        <ele>1502.5</ele>
        <time>2026-07-14T13:07:02Z</time>
      </trkpt>
      <trkpt lat="45.19012" lon="5.95613">
        <ele>1502.3</ele>
        <time>2026-07-14T13:07:03Z</time>
      </trkpt>
      <trkpt lat="45.19012" lon="5.95613">
        <ele>1502.2</ele>
        <time>2026-07-14T13:07:05Z</time>
      </trkpt>
      <trkpt lat="45.19012" lon="5.95613">
        <ele>1502.2</ele>
        <time>2026-07-14T13:07:06Z</time>
      </trkpt>
      <trkpt lat="45.19014" lon="5.95613">
        <ele>1501.9</ele>
        <time>2026-07-14T13:07:07Z</time>
      </trkpt>
      <trkpt lat="45.19016" lon="5.95612">
        <ele>1501.4</ele>
        <time>2026-07-14T13:07:09Z</time>
      </trkpt>
      <trkpt lat="45.19018" lon="5.95611">
        <ele>1500.8</ele>
        <time>2026-07-14T13:07:10Z</time>
      </trkpt>
      <trkpt lat="45.19019" lon="5.95612">
        <ele>1500.4</ele>
        <time>2026-07-14T13:07:11Z</time>
      </trkpt>
      <trkpt lat="45.1902" lon="5.95613">
        <ele>1500.1</ele>
        <time>2026-07-14T13:07:12Z</time>
      </trkpt>
      <trkpt lat="45.1902" lon="5.95615">
        <ele>1499.8</ele>
        <time>2026-07-14T13:07:14Z</time>
      </trkpt>
      <trkpt lat="45.1902" lon="5.95616">
        <ele>1499.6</ele>
        <time>2026-07-14T13:07:15Z</time>
      </trkpt>
      <trkpt lat="45.19021" lon="5.95618">
        <ele>1499.2</ele>
        <time>2026-07-14T13:07:16Z</time>
      </trkpt>
      <trkpt lat="45.1902" lon="5.95619">
        <ele>1499</ele>
        <time>2026-07-14T13:07:18Z</time>
      </trkpt>
      <trkpt lat="45.1902" lon="5.9562">
        <ele>1498.8</ele>
        <time>2026-07-14T13:07:19Z</time>
      </trkpt>
      <trkpt lat="45.19019" lon="5.95621">
        <ele>1498.5</ele>
        <time>2026-07-14T13:07:20Z</time>
      </trkpt>
      <trkpt lat="45.19019" lon="5.95622">
        <ele>1498.3</ele>
        <time>2026-07-14T13:07:22Z</time>
      </trkpt>
      <trkpt lat="45.19019" lon="5.95622">
        <ele>1498.1</ele>
        <time>2026-07-14T13:07:23Z</time>
      </trkpt>
      <trkpt lat="45.1902" lon="5.95622">
        <ele>1497.9</ele>
        <time>2026-07-14T13:07:24Z</time>
      </trkpt>
      <trkpt lat="45.19021" lon="5.95623">
        <ele>1497.7</ele>
        <time>2026-07-14T13:07:25Z</time>
      </trkpt>
      <trkpt lat="45.19021" lon="5.95623">
        <ele>1497.5</ele>
        <time>2026-07-14T13:07:26Z</time>
      </trkpt>
      <trkpt lat="45.19023" lon="5.95622">
        <ele>1497.1</ele>
        <time>2026-07-14T13:07:27Z</time>
      </trkpt>
      <trkpt lat="45.19024" lon="5.95622">
        <ele>1496.8</ele>
        <time>2026-07-14T13:07:28Z</time>
      </trkpt>
      <trkpt lat="45.19025" lon="5.95621">
        <ele>1496.5</ele>
        <time>2026-07-14T13:07:29Z</time>
      </trkpt>
      <trkpt lat="45.19025" lon="5.95622">
        <ele>1496.4</ele>
        <time>2026-07-14T13:07:30Z</time>
      </trkpt>
      <trkpt lat="45.19025" lon="5.95622">
        <ele>1496.3</ele>
        <time>2026-07-14T13:07:31Z</time>
      </trkpt>
      <trkpt lat="45.19025" lon="5.95623">
        <ele>1496.1</ele>
        <time>2026-07-14T13:07:32Z</time>
      </trkpt>
      <trkpt lat="45.19025" lon="5.95624">
        <ele>1495.9</ele>
        <time>2026-07-14T13:07:33Z</time>
      </trkpt>
      <trkpt lat="45.19025" lon="5.95624">
        <ele>1495.9</ele>
        <time>2026-07-14T13:07:35Z</time>
      </trkpt>
      <trkpt lat="45.19025" lon="5.95624">
        <ele>1495.7</ele>
        <time>2026-07-14T13:07:36Z</time>
      </trkpt>
      <trkpt lat="45.19027" lon="5.95625">
        <ele>1495.3</ele>
        <time>2026-07-14T13:07:37Z</time>
      </trkpt>
      <trkpt lat="45.19028" lon="5.95625">
        <ele>1495</ele>
        <time>2026-07-14T13:07:39Z</time>
      </trkpt>
      <trkpt lat="45.19029" lon="5.95625">
        <ele>1494.8</ele>
        <time>2026-07-14T13:07:40Z</time>
      </trkpt>
      <trkpt lat="45.1903" lon="5.95625">
        <ele>1494.5</ele>
        <time>2026-07-14T13:07:41Z</time>
      </trkpt>
      <trkpt lat="45.1903" lon="5.95626">
        <ele>1494.3</ele>
        <time>2026-07-14T13:07:42Z</time>
      </trkpt>
      <trkpt lat="45.19031" lon="5.95627">
        <ele>1494</ele>
        <time>2026-07-14T13:07:43Z</time>
      </trkpt>
      <trkpt lat="45.19031" lon="5.95629">
        <ele>1493.7</ele>
        <time>2026-07-14T13:07:44Z</time>
      </trkpt>
      <trkpt lat="45.19031" lon="5.9563">
        <ele>1493.5</ele>
        <time>2026-07-14T13:07:45Z</time>
      </trkpt>
      <trkpt lat="45.19032" lon="5.95631">
        <ele>1493.3</ele>
        <time>2026-07-14T13:07:46Z</time>
      </trkpt>
      <trkpt lat="45.19032" lon="5.95632">
        <ele>1493.2</ele>
        <time>2026-07-14T13:07:47Z</time>
      </trkpt>
      <trkpt lat="45.19032" lon="5.95632">
        <ele>1493</ele>
        <time>2026-07-14T13:07:48Z</time>
      </trkpt>
      <trkpt lat="45.19032" lon="5.95634">
        <ele>1492.7</ele>
        <time>2026-07-14T13:07:49Z</time>
      </trkpt>
      <trkpt lat="45.19032" lon="5.95635">
        <ele>1492.6</ele>
        <time>2026-07-14T13:07:50Z</time>
      </trkpt>
      <trkpt lat="45.19031" lon="5.95636">
        <ele>1492.2</ele>
        <time>2026-07-14T13:07:51Z</time>
      </trkpt>
      <trkpt lat="45.1903" lon="5.95638">
        <ele>1491.7</ele>
        <time>2026-07-14T13:07:53Z</time>
      </trkpt>
      <trkpt lat="45.19029" lon="5.95639">
        <ele>1491.4</ele>
        <time>2026-07-14T13:07:55Z</time>
      </trkpt>
      <trkpt lat="45.19028" lon="5.9564">
        <ele>1491.1</ele>
        <time>2026-07-14T13:07:56Z</time>
      </trkpt>
      <trkpt lat="45.19027" lon="5.9564">
        <ele>1490.9</ele>
        <time>2026-07-14T13:07:57Z</time>
      </trkpt>
      <trkpt lat="45.19027" lon="5.95642">
        <ele>1490.6</ele>
        <time>2026-07-14T13:07:58Z</time>
      </trkpt>
      <trkpt lat="45.19027" lon="5.95642">
        <ele>1490.6</ele>
        <time>2026-07-14T13:08:00Z</time>
      </trkpt>
      <trkpt lat="45.19027" lon="5.95642">
        <ele>1490.5</ele>
        <time>2026-07-14T13:08:01Z</time>
      </trkpt>
      <trkpt lat="45.19027" lon="5.95642">
        <ele>1490.4</ele>
        <time>2026-07-14T13:08:02Z</time>
      </trkpt>
      <trkpt lat="45.19027" lon="5.95642">
        <ele>1490.3</ele>
        <time>2026-07-14T13:08:03Z</time>
      </trkpt>
      <trkpt lat="45.19028" lon="5.95642">
        <ele>1490.2</ele>
        <time>2026-07-14T13:08:04Z</time>
      </trkpt>
      <trkpt lat="45.19027" lon="5.95641">
        <ele>1490</ele>
        <time>2026-07-14T13:08:05Z</time>
      </trkpt>
      <trkpt lat="45.19027" lon="5.95641">
        <ele>1489.9</ele>
        <time>2026-07-14T13:08:06Z</time>
      </trkpt>
      <trkpt lat="45.19027" lon="5.95641">
        <ele>1489.9</ele>
        <time>2026-07-14T13:08:07Z</time>
      </trkpt>
      <trkpt lat="45.19027" lon="5.95641">
        <ele>1489.8</ele>
        <time>2026-07-14T13:08:08Z</time>
      </trkpt>
      <trkpt lat="45.19026" lon="5.95642">
        <ele>1489.6</ele>
        <time>2026-07-14T13:08:09Z</time>
      </trkpt>
      <trkpt lat="45.19025" lon="5.95642">
        <ele>1489.3</ele>
        <time>2026-07-14T13:08:10Z</time>
      </trkpt>
      <trkpt lat="45.19025" lon="5.95643">
        <ele>1489.2</ele>
        <time>2026-07-14T13:08:12Z</time>
      </trkpt>
      <trkpt lat="45.19026" lon="5.95642">
        <ele>1489</ele>
        <time>2026-07-14T13:08:14Z</time>
      </trkpt>
      <trkpt lat="45.19027" lon="5.95642">
        <ele>1488.7</ele>
        <time>2026-07-14T13:08:15Z</time>
      </trkpt>
      <trkpt lat="45.19028" lon="5.95641">
        <ele>1488.4</ele>
        <time>2026-07-14T13:08:16Z</time>
      </trkpt>
      <trkpt lat="45.19029" lon="5.9564">
        <ele>1488.2</ele>
        <time>2026-07-14T13:08:17Z</time>
      </trkpt>
      <trkpt lat="45.19029" lon="5.95639">
        <ele>1487.9</ele>
        <time>2026-07-14T13:08:18Z</time>
      </trkpt>
      <trkpt lat="45.1903" lon="5.95638">
        <ele>1487.8</ele>
        <time>2026-07-14T13:08:19Z</time>
      </trkpt>
      <trkpt lat="45.19031" lon="5.95638">
        <ele>1487.5</ele>
        <time>2026-07-14T13:08:20Z</time>
      </trkpt>
      <trkpt lat="45.19031" lon="5.95638">
        <ele>1487.4</ele>
        <time>2026-07-14T13:08:22Z</time>
      </trkpt>
      <trkpt lat="45.19032" lon="5.95638">
        <ele>1487.1</ele>
        <time>2026-07-14T13:08:23Z</time>
      </trkpt>
      <trkpt lat="45.19033" lon="5.95638">
        <ele>1487</ele>
        <time>2026-07-14T13:08:24Z</time>
      </trkpt>
      <trkpt lat="45.19033" lon="5.95638">
        <ele>1486.9</ele>
        <time>2026-07-14T13:08:25Z</time>
      </trkpt>
      <trkpt lat="45.19035" lon="5.95637">
        <ele>1486.4</ele>
        <time>2026-07-14T13:08:26Z</time>
      </trkpt>
      <trkpt lat="45.19036" lon="5.95636">
        <ele>1486.1</ele>
        <time>2026-07-14T13:08:27Z</time>
      </trkpt>
      <trkpt lat="45.19036" lon="5.95635">
        <ele>1486</ele>
        <time>2026-07-14T13:08:29Z</time>
      </trkpt>
      <trkpt lat="45.19037" lon="5.95635">
        <ele>1485.7</ele>
        <time>2026-07-14T13:08:30Z</time>
      </trkpt>
      <trkpt lat="45.19037" lon="5.95634">
        <ele>1485.5</ele>
        <time>2026-07-14T13:08:31Z</time>
      </trkpt>
      <trkpt lat="45.19038" lon="5.95633">
        <ele>1485.4</ele>
        <time>2026-07-14T13:08:32Z</time>
      </trkpt>
      <trkpt lat="45.19038" lon="5.95632">
        <ele>1485.2</ele>
        <time>2026-07-14T13:08:33Z</time>
      </trkpt>
      <trkpt lat="45.19038" lon="5.95631">
        <ele>1485</ele>
        <time>2026-07-14T13:08:34Z</time>
      </trkpt>
      <trkpt lat="45.19038" lon="5.95629">
        <ele>1484.6</ele>
        <time>2026-07-14T13:08:35Z</time>
      </trkpt>
      <trkpt lat="45.19038" lon="5.95629">
        <ele>1484.6</ele>
        <time>2026-07-14T13:08:37Z</time>
      </trkpt>
      <trkpt lat="45.19039" lon="5.95628">
        <ele>1484.4</ele>
        <time>2026-07-14T13:08:38Z</time>
      </trkpt>
      <trkpt lat="45.1904" lon="5.95629">
        <ele>1484</ele>
        <time>2026-07-14T13:08:39Z</time>
      </trkpt>
      <trkpt lat="45.19042" lon="5.95632">
        <ele>1483.4</ele>
        <time>2026-07-14T13:08:41Z</time>
      </trkpt>
      <trkpt lat="45.19042" lon="5.95635">
        <ele>1483</ele>
        <time>2026-07-14T13:08:43Z</time>
      </trkpt>
      <trkpt lat="45.19042" lon="5.95638">
        <ele>1482.5</ele>
        <time>2026-07-14T13:08:44Z</time>
      </trkpt>
      <trkpt lat="45.19041" lon="5.95639">
        <ele>1482.2</ele>
        <time>2026-07-14T13:08:46Z</time>
      </trkpt>
      <trkpt lat="45.19041" lon="5.95641">
        <ele>1482</ele>
        <time>2026-07-14T13:08:47Z</time>
      </trkpt>
      <trkpt lat="45.19041" lon="5.95642">
        <ele>1481.8</ele>
        <time>2026-07-14T13:08:48Z</time>
      </trkpt>
      <trkpt lat="45.19041" lon="5.95643">
        <ele>1481.5</ele>
        <time>2026-07-14T13:08:49Z</time>
      </trkpt>
      <trkpt lat="45.19041" lon="5.95644">
        <ele>1481.3</ele>
        <time>2026-07-14T13:08:50Z</time>
      </trkpt>
      <trkpt lat="45.1904" lon="5.95647">
        <ele>1480.9</ele>
        <time>2026-07-14T13:08:51Z</time>
      </trkpt>
      <trkpt lat="45.1904" lon="5.95647">
        <ele>1480.8</ele>
        <time>2026-07-14T13:08:53Z</time>
      </trkpt>
      <trkpt lat="45.1904" lon="5.95648">
        <ele>1480.6</ele>
        <time>2026-07-14T13:08:54Z</time>
      </trkpt>
      <trkpt lat="45.19039" lon="5.95649">
        <ele>1480.4</ele>
        <time>2026-07-14T13:08:55Z</time>
      </trkpt>
      <trkpt lat="45.19039" lon="5.9565">
        <ele>1480.2</ele>
        <time>2026-07-14T13:08:56Z</time>
      </trkpt>
      <trkpt lat="45.19038" lon="5.95651">
        <ele>1480</ele>
        <time>2026-07-14T13:08:57Z</time>
      </trkpt>
      <trkpt lat="45.19038" lon="5.95653">
        <ele>1479.8</ele>
        <time>2026-07-14T13:08:58Z</time>
      </trkpt>
      <trkpt lat="45.19038" lon="5.95654">
        <ele>1479.6</ele>
        <time>2026-07-14T13:08:59Z</time>
      </trkpt>
      <trkpt lat="45.19038" lon="5.95655">
        <ele>1479.4</ele>
        <time>2026-07-14T13:09:00Z</time>
      </trkpt>
      <trkpt lat="45.19037" lon="5.95656">
        <ele>1479.1</ele>
        <time>2026-07-14T13:09:01Z</time>
      </trkpt>
      <trkpt lat="45.19036" lon="5.95657">
        <ele>1479</ele>
        <time>2026-07-14T13:09:03Z</time>
      </trkpt>
      <trkpt lat="45.19036" lon="5.95657">
        <ele>1478.9</ele>
        <time>2026-07-14T13:09:04Z</time>
      </trkpt>
      <trkpt lat="45.19036" lon="5.95658">
        <ele>1478.7</ele>
        <time>2026-07-14T13:09:05Z</time>
      </trkpt>
      <trkpt lat="45.19036" lon="5.95659">
        <ele>1478.6</ele>
        <time>2026-07-14T13:09:06Z</time>
      </trkpt>
      <trkpt lat="45.19037" lon="5.95659">
        <ele>1478.4</ele>
        <time>2026-07-14T13:09:07Z</time>
      </trkpt>
      <trkpt lat="45.19037" lon="5.95659">
        <ele>1478.4</ele>
        <time>2026-07-14T13:09:08Z</time>
      </trkpt>
      <trkpt lat="45.19038" lon="5.95659">
        <ele>1478.3</ele>
        <time>2026-07-14T13:09:09Z</time>
      </trkpt>
      <trkpt lat="45.19038" lon="5.95659">
        <ele>1478.2</ele>
        <time>2026-07-14T13:09:10Z</time>
      </trkpt>
      <trkpt lat="45.19037" lon="5.9566">
        <ele>1478.1</ele>
        <time>2026-07-14T13:09:11Z</time>
      </trkpt>
      <trkpt lat="45.19037" lon="5.95662">
        <ele>1477.8</ele>
        <time>2026-07-14T13:09:13Z</time>
      </trkpt>
      <trkpt lat="45.19036" lon="5.95662">
        <ele>1477.6</ele>
        <time>2026-07-14T13:09:14Z</time>
      </trkpt>
      <trkpt lat="45.19036" lon="5.95663">
        <ele>1477.5</ele>
        <time>2026-07-14T13:09:15Z</time>
      </trkpt>
      <trkpt lat="45.19035" lon="5.95664">
        <ele>1477.3</ele>
        <time>2026-07-14T13:09:16Z</time>
      </trkpt>
      <trkpt lat="45.19035" lon="5.95664">
        <ele>1477.2</ele>
        <time>2026-07-14T13:09:17Z</time>
      </trkpt>
      <trkpt lat="45.19035" lon="5.95665">
        <ele>1477</ele>
        <time>2026-07-14T13:09:18Z</time>
      </trkpt>
      <trkpt lat="45.19035" lon="5.95666">
        <ele>1476.9</ele>
        <time>2026-07-14T13:09:19Z</time>
      </trkpt>
      <trkpt lat="45.19037" lon="5.95667">
        <ele>1476.5</ele>
        <time>2026-07-14T13:09:20Z</time>
      </trkpt>
      <trkpt lat="45.19038" lon="5.95667">
        <ele>1476.2</ele>
        <time>2026-07-14T13:09:21Z</time>
      </trkpt>
      <trkpt lat="45.19039" lon="5.95666">
        <ele>1476</ele>
        <time>2026-07-14T13:09:23Z</time>
      </trkpt>
      <trkpt lat="45.1904" lon="5.95665">
        <ele>1475.7</ele>
        <time>2026-07-14T13:09:24Z</time>
      </trkpt>
      <trkpt lat="45.19041" lon="5.95663">
        <ele>1475.3</ele>
        <time>2026-07-14T13:09:25Z</time>
      </trkpt>
      <trkpt lat="45.19042" lon="5.95661">
        <ele>1475.1</ele>
        <time>2026-07-14T13:09:27Z</time>
      </trkpt>
      <trkpt lat="45.19043" lon="5.95661">
        <ele>1474.9</ele>
        <time>2026-07-14T13:09:28Z</time>
      </trkpt>
      <trkpt lat="45.19043" lon="5.95661">
        <ele>1474.8</ele>
        <time>2026-07-14T13:09:29Z</time>
      </trkpt>
      <trkpt lat="45.19043" lon="5.95661">
        <ele>1474.7</ele>
        <time>2026-07-14T13:09:30Z</time>
      </trkpt>
      <trkpt lat="45.19043" lon="5.95661">
        <ele>1474.6</ele>
        <time>2026-07-14T13:09:31Z</time>
      </trkpt>
      <trkpt lat="45.19043" lon="5.95661">
        <ele>1474.6</ele>
        <time>2026-07-14T13:09:33Z</time>
      </trkpt>
      <trkpt lat="45.19042" lon="5.95661">
        <ele>1474.5</ele>
        <time>2026-07-14T13:09:34Z</time>
      </trkpt>
      <trkpt lat="45.19042" lon="5.95661">
        <ele>1474.5</ele>
        <time>2026-07-14T13:09:35Z</time>
      </trkpt>
      <trkpt lat="45.19042" lon="5.95661">
        <ele>1474.5</ele>
        <time>2026-07-14T13:09:36Z</time>
      </trkpt>
      <trkpt lat="45.19042" lon="5.95661">
        <ele>1474.4</ele>
        <time>2026-07-14T13:09:37Z</time>
      </trkpt>
      <trkpt lat="45.19043" lon="5.9566">
        <ele>1474.3</ele>
        <time>2026-07-14T13:09:38Z</time>
      </trkpt>
      <trkpt lat="45.19043" lon="5.95659">
        <ele>1474</ele>
        <time>2026-07-14T13:09:39Z</time>
      </trkpt>
      <trkpt lat="45.19045" lon="5.95656">
        <ele>1473.5</ele>
        <time>2026-07-14T13:09:40Z</time>
      </trkpt>
      <trkpt lat="45.19046" lon="5.95654">
        <ele>1473.1</ele>
        <time>2026-07-14T13:09:41Z</time>
      </trkpt>
      <trkpt lat="45.19047" lon="5.95651">
        <ele>1472.5</ele>
        <time>2026-07-14T13:09:42Z</time>
      </trkpt>
      <trkpt lat="45.19048" lon="5.9565">
        <ele>1472.2</ele>
        <time>2026-07-14T13:09:44Z</time>
      </trkpt>
      <trkpt lat="45.19049" lon="5.95649">
        <ele>1472</ele>
        <time>2026-07-14T13:09:45Z</time>
      </trkpt>
      <trkpt lat="45.1905" lon="5.95648">
        <ele>1471.8</ele>
        <time>2026-07-14T13:09:46Z</time>
      </trkpt>
      <trkpt lat="45.19051" lon="5.95647">
        <ele>1471.6</ele>
        <time>2026-07-14T13:09:47Z</time>
      </trkpt>
      <trkpt lat="45.19051" lon="5.95647">
        <ele>1471.5</ele>
        <time>2026-07-14T13:09:48Z</time>
      </trkpt>
      <trkpt lat="45.19051" lon="5.95647">
        <ele>1471.5</ele>
        <time>2026-07-14T13:09:49Z</time>
      </trkpt>
      <trkpt lat="45.19051" lon="5.95648">
        <ele>1471.4</ele>
        <time>2026-07-14T13:09:50Z</time>
      </trkpt>
      <trkpt lat="45.19051" lon="5.95649">
        <ele>1471.2</ele>
        <time>2026-07-14T13:09:51Z</time>
      </trkpt>
      <trkpt lat="45.19051" lon="5.9565">
        <ele>1471</ele>
        <time>2026-07-14T13:09:52Z</time>
      </trkpt>
      <trkpt lat="45.19051" lon="5.95653">
        <ele>1470.4</ele>
        <time>2026-07-14T13:09:53Z</time>
      </trkpt>
      <trkpt lat="45.19051" lon="5.95656">
        <ele>1470</ele>
        <time>2026-07-14T13:09:54Z</time>
      </trkpt>
      <trkpt lat="45.19051" lon="5.95658">
        <ele>1469.7</ele>
        <time>2026-07-14T13:09:56Z</time>
      </trkpt>
      <trkpt lat="45.19051" lon="5.95659">
        <ele>1469.5</ele>
        <time>2026-07-14T13:09:57Z</time>
      </trkpt>
      <trkpt lat="45.19051" lon="5.9566">
        <ele>1469.3</ele>
        <time>2026-07-14T13:09:58Z</time>
      </trkpt>
      <trkpt lat="45.19051" lon="5.95662">
        <ele>1469</ele>
        <time>2026-07-14T13:09:59Z</time>
      </trkpt>
      <trkpt lat="45.19051" lon="5.95664">
        <ele>1468.8</ele>
        <time>2026-07-14T13:10:00Z</time>
      </trkpt>
      <trkpt lat="45.19051" lon="5.95665">
        <ele>1468.5</ele>
        <time>2026-07-14T13:10:01Z</time>
      </trkpt>
      <trkpt lat="45.19051" lon="5.95667">
        <ele>1468.2</ele>
        <time>2026-07-14T13:10:02Z</time>
      </trkpt>
      <trkpt lat="45.19051" lon="5.95668">
        <ele>1468</ele>
        <time>2026-07-14T13:10:03Z</time>
      </trkpt>
      <trkpt lat="45.19051" lon="5.95671">
        <ele>1467.6</ele>
        <time>2026-07-14T13:10:04Z</time>
      </trkpt>
      <trkpt lat="45.19051" lon="5.95672">
        <ele>1467.3</ele>
        <time>2026-07-14T13:10:05Z</time>
      </trkpt>
      <trkpt lat="45.1905" lon="5.95673">
        <ele>1467.1</ele>
        <time>2026-07-14T13:10:07Z</time>
      </trkpt>
      <trkpt lat="45.19049" lon="5.95674">
        <ele>1466.9</ele>
        <time>2026-07-14T13:10:08Z</time>
      </trkpt>
      <trkpt lat="45.19048" lon="5.95674">
        <ele>1466.6</ele>
        <time>2026-07-14T13:10:09Z</time>
      </trkpt>
      <trkpt lat="45.19048" lon="5.95675">
        <ele>1466.4</ele>
        <time>2026-07-14T13:10:10Z</time>
      </trkpt>
      <trkpt lat="45.19047" lon="5.95676">
        <ele>1466.3</ele>
        <time>2026-07-14T13:10:11Z</time>
      </trkpt>
      <trkpt lat="45.19047" lon="5.95678">
        <ele>1465.8</ele>
        <time>2026-07-14T13:10:12Z</time>
      </trkpt>
      <trkpt lat="45.19046" lon="5.95679">
        <ele>1465.6</ele>
        <time>2026-07-14T13:10:14Z</time>
      </trkpt>
      <trkpt lat="45.19045" lon="5.95682">
        <ele>1465.1</ele>
        <time>2026-07-14T13:10:15Z</time>
      </trkpt>
      <trkpt lat="45.19044" lon="5.95683">
        <ele>1464.8</ele>
        <time>2026-07-14T13:10:17Z</time>
      </trkpt>
      <trkpt lat="45.19043" lon="5.95683">
        <ele>1464.6</ele>
        <time>2026-07-14T13:10:18Z</time>
      </trkpt>
      <trkpt lat="45.19042" lon="5.95683">
        <ele>1464.4</ele>
        <time>2026-07-14T13:10:19Z</time>
      </trkpt>
      <trkpt lat="45.19041" lon="5.95684">
        <ele>1464.2</ele>
        <time>2026-07-14T13:10:20Z</time>
      </trkpt>
      <trkpt lat="45.1904" lon="5.95683">
        <ele>1464</ele>
        <time>2026-07-14T13:10:21Z</time>
      </trkpt>
      <trkpt lat="45.1904" lon="5.95684">
        <ele>1463.8</ele>
        <time>2026-07-14T13:10:22Z</time>
      </trkpt>
      <trkpt lat="45.19041" lon="5.95684">
        <ele>1463.7</ele>
        <time>2026-07-14T13:10:23Z</time>
      </trkpt>
      <trkpt lat="45.19042" lon="5.95685">
        <ele>1463.4</ele>
        <time>2026-07-14T13:10:24Z</time>
      </trkpt>
      <trkpt lat="45.19043" lon="5.95686">
        <ele>1463.1</ele>
        <time>2026-07-14T13:10:25Z</time>
      </trkpt>
      <trkpt lat="45.19045" lon="5.95686">
        <ele>1462.6</ele>
        <time>2026-07-14T13:10:26Z</time>
      </trkpt>
      <trkpt lat="45.19047" lon="5.95687">
        <ele>1462.2</ele>
        <time>2026-07-14T13:10:28Z</time>
      </trkpt>
      <trkpt lat="45.19048" lon="5.95686">
        <ele>1461.9</ele>
        <time>2026-07-14T13:10:29Z</time>
      </trkpt>
      <trkpt lat="45.19049" lon="5.95686">
        <ele>1461.6</ele>
        <time>2026-07-14T13:10:30Z</time>
      </trkpt>
      <trkpt lat="45.19051" lon="5.95685">
        <ele>1461.3</ele>
        <time>2026-07-14T13:10:31Z</time>
      </trkpt>
      <trkpt lat="45.19053" lon="5.95685">
        <ele>1460.8</ele>
        <time>2026-07-14T13:10:32Z</time>
      </trkpt>
      <trkpt lat="45.19054" lon="5.95685">
        <ele>1460.6</ele>
        <time>2026-07-14T13:10:33Z</time>
      </trkpt>
      <trkpt lat="45.19055" lon="5.95684">
        <ele>1460.3</ele>
        <time>2026-07-14T13:10:35Z</time>
      </trkpt>
      <trkpt lat="45.19056" lon="5.95683">
        <ele>1460</ele>
        <time>2026-07-14T13:10:36Z</time>
      </trkpt>
      <trkpt lat="45.19058" lon="5.9568">
        <ele>1459.5</ele>
        <time>2026-07-14T13:10:37Z</time>
      </trkpt>
      <trkpt lat="45.19058" lon="5.95679">
        <ele>1459.2</ele>
        <time>2026-07-14T13:10:39Z</time>
      </trkpt>
      <trkpt lat="45.19059" lon="5.95676">
        <ele>1458.8</ele>
        <time>2026-07-14T13:10:40Z</time>
      </trkpt>
      <trkpt lat="45.1906" lon="5.95674">
        <ele>1458.3</ele>
        <time>2026-07-14T13:10:41Z</time>
      </trkpt>
      <trkpt lat="45.19061" lon="5.95673">
        <ele>1458.1</ele>
        <time>2026-07-14T13:10:43Z</time>
      </trkpt>
      <trkpt lat="45.19062" lon="5.95673">
        <ele>1457.9</ele>
        <time>2026-07-14T13:10:44Z</time>
      </trkpt>
      <trkpt lat="45.19063" lon="5.95673">
        <ele>1457.7</ele>
        <time>2026-07-14T13:10:45Z</time>
      </trkpt>
      <trkpt lat="45.19064" lon="5.95672">
        <ele>1457.4</ele>
        <time>2026-07-14T13:10:46Z</time>
      </trkpt>
      <trkpt lat="45.19065" lon="5.95672">
        <ele>1457.3</ele>
        <time>2026-07-14T13:10:47Z</time>
      </trkpt>
      <trkpt lat="45.19065" lon="5.9567">
        <ele>1457.1</ele>
        <time>2026-07-14T13:10:48Z</time>
      </trkpt>
      <trkpt lat="45.19066" lon="5.95668">
        <ele>1456.6</ele>
        <time>2026-07-14T13:10:49Z</time>
      </trkpt>
      <trkpt lat="45.19067" lon="5.95668">
        <ele>1456.5</ele>
        <time>2026-07-14T13:10:51Z</time>
      </trkpt>
      <trkpt lat="45.19068" lon="5.95667">
        <ele>1456.2</ele>
        <time>2026-07-14T13:10:52Z</time>
      </trkpt>
      <trkpt lat="45.19069" lon="5.95667">
        <ele>1456</ele>
        <time>2026-07-14T13:10:53Z</time>
      </trkpt>
      <trkpt lat="45.1907" lon="5.9567">
        <ele>1455.3</ele>
        <time>2026-07-14T13:10:54Z</time>
      </trkpt>
      <trkpt lat="45.1907" lon="5.95672">
        <ele>1454.9</ele>
        <time>2026-07-14T13:10:56Z</time>
      </trkpt>
      <trkpt lat="45.1907" lon="5.95675">
        <ele>1454.5</ele>
        <time>2026-07-14T13:10:57Z</time>
      </trkpt>
      <trkpt lat="45.1907" lon="5.95677">
        <ele>1454.2</ele>
        <time>2026-07-14T13:10:58Z</time>
      </trkpt>
      <trkpt lat="45.1907" lon="5.95679">
        <ele>1453.8</ele>
        <time>2026-07-14T13:10:59Z</time>
      </trkpt>
      <trkpt lat="45.1907" lon="5.95681">
        <ele>1453.5</ele>
        <time>2026-07-14T13:11:00Z</time>
      </trkpt>
      <trkpt lat="45.19069" lon="5.95682">
        <ele>1453.2</ele>
        <time>2026-07-14T13:11:01Z</time>
      </trkpt>
      <trkpt lat="45.19068" lon="5.95684">
        <ele>1452.9</ele>
        <time>2026-07-14T13:11:02Z</time>
      </trkpt>
      <trkpt lat="45.19068" lon="5.95685">
        <ele>1452.6</ele>
        <time>2026-07-14T13:11:03Z</time>
      </trkpt>
      <trkpt lat="45.19067" lon="5.95687">
        <ele>1452.4</ele>
        <time>2026-07-14T13:11:04Z</time>
      </trkpt>
      <trkpt lat="45.19067" lon="5.95688">
        <ele>1452.1</ele>
        <time>2026-07-14T13:11:05Z</time>
      </trkpt>
      <trkpt lat="45.19067" lon="5.95689">
        <ele>1451.9</ele>
        <time>2026-07-14T13:11:06Z</time>
      </trkpt>
      <trkpt lat="45.19066" lon="5.95691">
        <ele>1451.5</ele>
        <time>2026-07-14T13:11:07Z</time>
      </trkpt>
      <trkpt lat="45.19065" lon="5.95692">
        <ele>1451.3</ele>
        <time>2026-07-14T13:11:08Z</time>
      </trkpt>
      <trkpt lat="45.19065" lon="5.95693">
        <ele>1451.2</ele>
        <time>2026-07-14T13:11:10Z</time>
      </trkpt>
      <trkpt lat="45.19065" lon="5.95693">
        <ele>1451.1</ele>
        <time>2026-07-14T13:11:11Z</time>
      </trkpt>
      <trkpt lat="45.19065" lon="5.95694">
        <ele>1451</ele>
        <time>2026-07-14T13:11:12Z</time>
      </trkpt>
      <trkpt lat="45.19065" lon="5.95694">
        <ele>1451</ele>
        <time>2026-07-14T13:11:13Z</time>
      </trkpt>
      <trkpt lat="45.19065" lon="5.95694">
        <ele>1450.9</ele>
        <time>2026-07-14T13:11:14Z</time>
      </trkpt>
      <trkpt lat="45.19065" lon="5.95695">
        <ele>1450.7</ele>
        <time>2026-07-14T13:11:15Z</time>
      </trkpt>
      <trkpt lat="45.19065" lon="5.95696">
        <ele>1450.4</ele>
        <time>2026-07-14T13:11:16Z</time>
      </trkpt>
      <trkpt lat="45.19066" lon="5.95696">
        <ele>1450.2</ele>
        <time>2026-07-14T13:11:17Z</time>
      </trkpt>
      <trkpt lat="45.19067" lon="5.95694">
        <ele>1449.8</ele>
        <time>2026-07-14T13:11:18Z</time>
      </trkpt>
      <trkpt lat="45.19068" lon="5.95693">
        <ele>1449.5</ele>
        <time>2026-07-14T13:11:19Z</time>
      </trkpt>
      <trkpt lat="45.19068" lon="5.95692">
        <ele>1449.4</ele>
        <time>2026-07-14T13:11:20Z</time>
      </trkpt>
      <trkpt lat="45.19068" lon="5.95692">
        <ele>1449.4</ele>
        <time>2026-07-14T13:11:21Z</time>
      </trkpt>
      <trkpt lat="45.19068" lon="5.95692">
        <ele>1449.3</ele>
        <time>2026-07-14T13:11:22Z</time>
      </trkpt>
      <trkpt lat="45.19067" lon="5.95691">
        <ele>1449.2</ele>
        <time>2026-07-14T13:11:23Z</time>
      </trkpt>
      <trkpt lat="45.19067" lon="5.95691">
        <ele>1449.1</ele>
        <time>2026-07-14T13:11:24Z</time>
      </trkpt>
      <trkpt lat="45.19067" lon="5.95691">
        <ele>1449.1</ele>
        <time>2026-07-14T13:11:25Z</time>
      </trkpt>
      <trkpt lat="45.19067" lon="5.95691">
        <ele>1449.1</ele>
        <time>2026-07-14T13:11:26Z</time>
      </trkpt>
      <trkpt lat="45.19067" lon="5.95691">
        <ele>1449.1</ele>
        <time>2026-07-14T13:11:27Z</time>
      </trkpt>
      <trkpt lat="45.19067" lon="5.95691">
        <ele>1449</ele>
        <time>2026-07-14T13:11:28Z</time>
      </trkpt>
      <trkpt lat="45.19067" lon="5.95691">
        <ele>1449</ele>
        <time>2026-07-14T13:11:29Z</time>
      </trkpt>
      <trkpt lat="45.19067" lon="5.95691">
        <ele>1448.9</ele>
        <time>2026-07-14T13:11:30Z</time>
      </trkpt>
      <trkpt lat="45.19067" lon="5.95691">
        <ele>1448.9</ele>
        <time>2026-07-14T13:11:31Z</time>
      </trkpt>
      <trkpt lat="45.19067" lon="5.95691">
        <ele>1448.9</ele>
        <time>2026-07-14T13:11:32Z</time>
      </trkpt>
      <trkpt lat="45.19067" lon="5.95691">
        <ele>1448.8</ele>
        <time>2026-07-14T13:11:33Z</time>
      </trkpt>
      <trkpt lat="45.19067" lon="5.95691">
        <ele>1448.8</ele>
        <time>2026-07-14T13:11:34Z</time>
      </trkpt>
      <trkpt lat="45.19067" lon="5.95691">
        <ele>1448.8</ele>
        <time>2026-07-14T13:11:35Z</time>
      </trkpt>
      <trkpt lat="45.19067" lon="5.95691">
        <ele>1448.7</ele>
        <time>2026-07-14T13:11:36Z</time>
      </trkpt>
      <trkpt lat="45.19067" lon="5.95691">
        <ele>1448.7</ele>
        <time>2026-07-14T13:11:37Z</time>
      </trkpt>
      <trkpt lat="45.19067" lon="5.95691">
        <ele>1448.7</ele>
        <time>2026-07-14T13:11:38Z</time>
      </trkpt>
      <trkpt lat="45.19067" lon="5.95691">
        <ele>1448.6</ele>
        <time>2026-07-14T13:11:39Z</time>
      </trkpt>
      <trkpt lat="45.19067" lon="5.95692">
        <ele>1448.6</ele>
        <time>2026-07-14T13:11:40Z</time>
      </trkpt>
      <trkpt lat="45.19067" lon="5.95692">
        <ele>1448.5</ele>
        <time>2026-07-14T13:11:41Z</time>
      </trkpt>
      <trkpt lat="45.19067" lon="5.95692">
        <ele>1448.5</ele>
        <time>2026-07-14T13:11:42Z</time>
      </trkpt>
      <trkpt lat="45.19068" lon="5.95692">
        <ele>1448.5</ele>
        <time>2026-07-14T13:11:43Z</time>
      </trkpt>
      <trkpt lat="45.19067" lon="5.95692">
        <ele>1448.4</ele>
        <time>2026-07-14T13:11:44Z</time>
      </trkpt>
      <trkpt lat="45.19067" lon="5.95692">
        <ele>1448.4</ele>
        <time>2026-07-14T13:11:45Z</time>
      </trkpt>
      <trkpt lat="45.19067" lon="5.95692">
        <ele>1448.4</ele>
        <time>2026-07-14T13:11:46Z</time>
      </trkpt>
      <trkpt lat="45.19067" lon="5.95693">
        <ele>1448.3</ele>
        <time>2026-07-14T13:11:47Z</time>
      </trkpt>
      <trkpt lat="45.19067" lon="5.95693">
        <ele>1448.3</ele>
        <time>2026-07-14T13:11:48Z</time>
      </trkpt>
      <trkpt lat="45.19067" lon="5.95693">
        <ele>1448.3</ele>
        <time>2026-07-14T13:11:50Z</time>
      </trkpt>
      <trkpt lat="45.19067" lon="5.95693">
        <ele>1448.2</ele>
        <time>2026-07-14T13:11:51Z</time>
      </trkpt>
      <trkpt lat="45.19067" lon="5.95693">
        <ele>1448.2</ele>
        <time>2026-07-14T13:11:52Z</time>
      </trkpt>
      <trkpt lat="45.19067" lon="5.95693">
        <ele>1448.2</ele>
        <time>2026-07-14T13:11:53Z</time>
      </trkpt>
      <trkpt lat="45.19067" lon="5.95694">
        <ele>1448.2</ele>
        <time>2026-07-14T13:11:54Z</time>
      </trkpt>
      <trkpt lat="45.19067" lon="5.95694">
        <ele>1448.1</ele>
        <time>2026-07-14T13:11:55Z</time>
      </trkpt>
      <trkpt lat="45.19067" lon="5.95694">
        <ele>1448.1</ele>
        <time>2026-07-14T13:11:56Z</time>
      </trkpt>
      <trkpt lat="45.19067" lon="5.95694">
        <ele>1448.1</ele>
        <time>2026-07-14T13:11:57Z</time>
      </trkpt>
      <trkpt lat="45.19067" lon="5.95694">
        <ele>1448</ele>
        <time>2026-07-14T13:11:58Z</time>
      </trkpt>
      <trkpt lat="45.19068" lon="5.95693">
        <ele>1447.9</ele>
        <time>2026-07-14T13:11:59Z</time>
      </trkpt>
      <trkpt lat="45.19068" lon="5.95693">
        <ele>1447.8</ele>
        <time>2026-07-14T13:12:00Z</time>
      </trkpt>
      <trkpt lat="45.19068" lon="5.95692">
        <ele>1447.7</ele>
        <time>2026-07-14T13:12:01Z</time>
      </trkpt>
      <trkpt lat="45.19068" lon="5.95692">
        <ele>1447.7</ele>
        <time>2026-07-14T13:12:02Z</time>
      </trkpt>
      <trkpt lat="45.19068" lon="5.95691">
        <ele>1447.6</ele>
        <time>2026-07-14T13:12:03Z</time>
      </trkpt>
      <trkpt lat="45.19068" lon="5.95691">
        <ele>1447.5</ele>
        <time>2026-07-14T13:12:04Z</time>
      </trkpt>
      <trkpt lat="45.19068" lon="5.95691">
        <ele>1447.5</ele>
        <time>2026-07-14T13:12:05Z</time>
      </trkpt>
      <trkpt lat="45.19068" lon="5.95691">
        <ele>1447.4</ele>
        <time>2026-07-14T13:12:06Z</time>
      </trkpt>
      <trkpt lat="45.19068" lon="5.9569">
        <ele>1447.4</ele>
        <time>2026-07-14T13:12:07Z</time>
      </trkpt>
      <trkpt lat="45.19068" lon="5.9569">
        <ele>1447.4</ele>
        <time>2026-07-14T13:12:08Z</time>
      </trkpt>
      <trkpt lat="45.19069" lon="5.95691">
        <ele>1447.3</ele>
        <time>2026-07-14T13:12:09Z</time>
      </trkpt>
      <trkpt lat="45.19069" lon="5.95691">
        <ele>1447.2</ele>
        <time>2026-07-14T13:12:10Z</time>
      </trkpt>
      <trkpt lat="45.19069" lon="5.95691">
        <ele>1447.2</ele>
        <time>2026-07-14T13:12:11Z</time>
      </trkpt>
      <trkpt lat="45.19069" lon="5.95691">
        <ele>1447.1</ele>
        <time>2026-07-14T13:12:12Z</time>
      </trkpt>
      <trkpt lat="45.19069" lon="5.95692">
        <ele>1446.9</ele>
        <time>2026-07-14T13:12:13Z</time>
      </trkpt>
      <trkpt lat="45.19069" lon="5.95692">
        <ele>1446.9</ele>
        <time>2026-07-14T13:12:15Z</time>
      </trkpt>
      <trkpt lat="45.19069" lon="5.95692">
        <ele>1446.8</ele>
        <time>2026-07-14T13:12:16Z</time>
      </trkpt>
      <trkpt lat="45.19069" lon="5.95691">
        <ele>1446.8</ele>
        <time>2026-07-14T13:12:17Z</time>
      </trkpt>
      <trkpt lat="45.19069" lon="5.95691">
        <ele>1446.8</ele>
        <time>2026-07-14T13:12:18Z</time>
      </trkpt>
      <trkpt lat="45.19069" lon="5.95691">
        <ele>1446.7</ele>
        <time>2026-07-14T13:12:19Z</time>
      </trkpt>
      <trkpt lat="45.19069" lon="5.95691">
        <ele>1446.7</ele>
        <time>2026-07-14T13:12:20Z</time>
      </trkpt>
      <trkpt lat="45.1907" lon="5.95691">
        <ele>1446.5</ele>
        <time>2026-07-14T13:12:22Z</time>
      </trkpt>
      <trkpt lat="45.19072" lon="5.95691">
        <ele>1445.9</ele>
        <time>2026-07-14T13:12:23Z</time>
      </trkpt>
      <trkpt lat="45.19074" lon="5.9569">
        <ele>1445.5</ele>
        <time>2026-07-14T13:12:25Z</time>
      </trkpt>
      <trkpt lat="45.19075" lon="5.95691">
        <ele>1445.2</ele>
        <time>2026-07-14T13:12:26Z</time>
      </trkpt>
      <trkpt lat="45.19076" lon="5.95691">
        <ele>1444.9</ele>
        <time>2026-07-14T13:12:27Z</time>
      </trkpt>
      <trkpt lat="45.19077" lon="5.95693">
        <ele>1444.7</ele>
        <time>2026-07-14T13:12:28Z</time>
      </trkpt>
      <trkpt lat="45.19077" lon="5.95693">
        <ele>1444.6</ele>
        <time>2026-07-14T13:12:29Z</time>
      </trkpt>
      <trkpt lat="45.19078" lon="5.95694">
        <ele>1444.4</ele>
        <time>2026-07-14T13:12:30Z</time>
      </trkpt>
      <trkpt lat="45.19078" lon="5.95695">
        <ele>1444.2</ele>
        <time>2026-07-14T13:12:32Z</time>
      </trkpt>
      <trkpt lat="45.19079" lon="5.95696">
        <ele>1444.1</ele>
        <time>2026-07-14T13:12:33Z</time>
      </trkpt>
      <trkpt lat="45.19079" lon="5.95698">
        <ele>1443.7</ele>
        <time>2026-07-14T13:12:34Z</time>
      </trkpt>
      <trkpt lat="45.19079" lon="5.95699">
        <ele>1443.5</ele>
        <time>2026-07-14T13:12:35Z</time>
      </trkpt>
      <trkpt lat="45.1908" lon="5.95701">
        <ele>1443.2</ele>
        <time>2026-07-14T13:12:37Z</time>
      </trkpt>
      <trkpt lat="45.1908" lon="5.95702">
        <ele>1443.1</ele>
        <time>2026-07-14T13:12:38Z</time>
      </trkpt>
      <trkpt lat="45.19079" lon="5.95703">
        <ele>1442.9</ele>
        <time>2026-07-14T13:12:39Z</time>
      </trkpt>
      <trkpt lat="45.1908" lon="5.95704">
        <ele>1442.6</ele>
        <time>2026-07-14T13:12:40Z</time>
      </trkpt>
      <trkpt lat="45.1908" lon="5.95705">
        <ele>1442.5</ele>
        <time>2026-07-14T13:12:41Z</time>
      </trkpt>
      <trkpt lat="45.1908" lon="5.95706">
        <ele>1442.3</ele>
        <time>2026-07-14T13:12:42Z</time>
      </trkpt>
      <trkpt lat="45.1908" lon="5.95707">
        <ele>1442.1</ele>
        <time>2026-07-14T13:12:43Z</time>
      </trkpt>
      <trkpt lat="45.19081" lon="5.95709">
        <ele>1441.9</ele>
        <time>2026-07-14T13:12:44Z</time>
      </trkpt>
      <trkpt lat="45.19081" lon="5.9571">
        <ele>1441.6</ele>
        <time>2026-07-14T13:12:45Z</time>
      </trkpt>
      <trkpt lat="45.1908" lon="5.95711">
        <ele>1441.4</ele>
        <time>2026-07-14T13:12:46Z</time>
      </trkpt>
      <trkpt lat="45.19079" lon="5.95714">
        <ele>1440.8</ele>
        <time>2026-07-14T13:12:47Z</time>
      </trkpt>
      <trkpt lat="45.19077" lon="5.95715">
        <ele>1440.5</ele>
        <time>2026-07-14T13:12:49Z</time>
      </trkpt>
      <trkpt lat="45.19077" lon="5.95716">
        <ele>1440.2</ele>
        <time>2026-07-14T13:12:50Z</time>
      </trkpt>
      <trkpt lat="45.19076" lon="5.95717">
        <ele>1440</ele>
        <time>2026-07-14T13:12:51Z</time>
      </trkpt>
      <trkpt lat="45.19075" lon="5.95719">
        <ele>1439.7</ele>
        <time>2026-07-14T13:12:52Z</time>
      </trkpt>
      <trkpt lat="45.19075" lon="5.95719">
        <ele>1439.6</ele>
        <time>2026-07-14T13:12:53Z</time>
      </trkpt>
      <trkpt lat="45.19074" lon="5.95721">
        <ele>1439.4</ele>
        <time>2026-07-14T13:12:54Z</time>
      </trkpt>
      <trkpt lat="45.19075" lon="5.95722">
        <ele>1439.2</ele>
        <time>2026-07-14T13:12:55Z</time>
      </trkpt>
      <trkpt lat="45.19075" lon="5.95722">
        <ele>1439.1</ele>
        <time>2026-07-14T13:12:56Z</time>
      </trkpt>
      <trkpt lat="45.19075" lon="5.95722">
        <ele>1439</ele>
        <time>2026-07-14T13:12:57Z</time>
      </trkpt>
      <trkpt lat="45.19075" lon="5.95722">
        <ele>1438.9</ele>
        <time>2026-07-14T13:12:58Z</time>
      </trkpt>
      <trkpt lat="45.19076" lon="5.95722">
        <ele>1438.7</ele>
        <time>2026-07-14T13:12:59Z</time>
      </trkpt>
      <trkpt lat="45.19076" lon="5.95722">
        <ele>1438.7</ele>
        <time>2026-07-14T13:13:00Z</time>
      </trkpt>
      <trkpt lat="45.19076" lon="5.95722">
        <ele>1438.7</ele>
        <time>2026-07-14T13:13:01Z</time>
      </trkpt>
      <trkpt lat="45.19077" lon="5.95722">
        <ele>1438.6</ele>
        <time>2026-07-14T13:13:02Z</time>
      </trkpt>
      <trkpt lat="45.19077" lon="5.95722">
        <ele>1438.5</ele>
        <time>2026-07-14T13:13:03Z</time>
      </trkpt>
      <trkpt lat="45.19078" lon="5.95723">
        <ele>1438.3</ele>
        <time>2026-07-14T13:13:04Z</time>
      </trkpt>
      <trkpt lat="45.19077" lon="5.95722">
        <ele>1438.2</ele>
        <time>2026-07-14T13:13:05Z</time>
      </trkpt>
      <trkpt lat="45.19076" lon="5.95724">
        <ele>1437.9</ele>
        <time>2026-07-14T13:13:06Z</time>
      </trkpt>
      <trkpt lat="45.19075" lon="5.95724">
        <ele>1437.6</ele>
        <time>2026-07-14T13:13:08Z</time>
      </trkpt>
      <trkpt lat="45.19074" lon="5.95724">
        <ele>1437.4</ele>
        <time>2026-07-14T13:13:09Z</time>
      </trkpt>
      <trkpt lat="45.19073" lon="5.95725">
        <ele>1437.2</ele>
        <time>2026-07-14T13:13:10Z</time>
      </trkpt>
      <trkpt lat="45.19072" lon="5.95726">
        <ele>1436.9</ele>
        <time>2026-07-14T13:13:11Z</time>
      </trkpt>
      <trkpt lat="45.19071" lon="5.95727">
        <ele>1436.7</ele>
        <time>2026-07-14T13:13:12Z</time>
      </trkpt>
      <trkpt lat="45.19071" lon="5.95727">
        <ele>1436.6</ele>
        <time>2026-07-14T13:13:13Z</time>
      </trkpt>
      <trkpt lat="45.1907" lon="5.95727">
        <ele>1436.4</ele>
        <time>2026-07-14T13:13:14Z</time>
      </trkpt>
      <trkpt lat="45.19069" lon="5.95728">
        <ele>1436.3</ele>
        <time>2026-07-14T13:13:15Z</time>
      </trkpt>
      <trkpt lat="45.19069" lon="5.95729">
        <ele>1436.1</ele>
        <time>2026-07-14T13:13:16Z</time>
      </trkpt>
      <trkpt lat="45.19068" lon="5.9573">
        <ele>1435.9</ele>
        <time>2026-07-14T13:13:17Z</time>
      </trkpt>
      <trkpt lat="45.19068" lon="5.95731">
        <ele>1435.8</ele>
        <time>2026-07-14T13:13:18Z</time>
      </trkpt>
      <trkpt lat="45.19068" lon="5.95732">
        <ele>1435.7</ele>
        <time>2026-07-14T13:13:19Z</time>
      </trkpt>
      <trkpt lat="45.19068" lon="5.95732">
        <ele>1435.6</ele>
        <time>2026-07-14T13:13:20Z</time>
      </trkpt>
      <trkpt lat="45.19069" lon="5.95734">
        <ele>1435.4</ele>
        <time>2026-07-14T13:13:21Z</time>
      </trkpt>
      <trkpt lat="45.1907" lon="5.95734">
        <ele>1435.1</ele>
        <time>2026-07-14T13:13:22Z</time>
      </trkpt>
      <trkpt lat="45.19071" lon="5.95734">
        <ele>1434.9</ele>
        <time>2026-07-14T13:13:23Z</time>
      </trkpt>
      <trkpt lat="45.19072" lon="5.95732">
        <ele>1434.6</ele>
        <time>2026-07-14T13:13:24Z</time>
      </trkpt>
      <trkpt lat="45.19073" lon="5.95731">
        <ele>1434.4</ele>
        <time>2026-07-14T13:13:25Z</time>
      </trkpt>
      <trkpt lat="45.19074" lon="5.95731">
        <ele>1434.2</ele>
        <time>2026-07-14T13:13:26Z</time>
      </trkpt>
      <trkpt lat="45.19074" lon="5.9573">
        <ele>1434</ele>
        <time>2026-07-14T13:13:27Z</time>
      </trkpt>
      <trkpt lat="45.19075" lon="5.9573">
        <ele>1433.9</ele>
        <time>2026-07-14T13:13:28Z</time>
      </trkpt>
      <trkpt lat="45.19075" lon="5.9573">
        <ele>1433.8</ele>
        <time>2026-07-14T13:13:29Z</time>
      </trkpt>
      <trkpt lat="45.19076" lon="5.9573">
        <ele>1433.7</ele>
        <time>2026-07-14T13:13:30Z</time>
      </trkpt>
      <trkpt lat="45.19077" lon="5.9573">
        <ele>1433.4</ele>
        <time>2026-07-14T13:13:31Z</time>
      </trkpt>
      <trkpt lat="45.19079" lon="5.9573">
        <ele>1432.9</ele>
        <time>2026-07-14T13:13:32Z</time>
      </trkpt>
      <trkpt lat="45.19081" lon="5.9573">
        <ele>1432.5</ele>
        <time>2026-07-14T13:13:33Z</time>
      </trkpt>
      <trkpt lat="45.19084" lon="5.9573">
        <ele>1431.9</ele>
        <time>2026-07-14T13:13:34Z</time>
      </trkpt>
      <trkpt lat="45.19086" lon="5.9573">
        <ele>1431.6</ele>
        <time>2026-07-14T13:13:36Z</time>
      </trkpt>
      <trkpt lat="45.19087" lon="5.9573">
        <ele>1431.4</ele>
        <time>2026-07-14T13:13:37Z</time>
      </trkpt>
      <trkpt lat="45.19087" lon="5.95729">
        <ele>1431.3</ele>
        <time>2026-07-14T13:13:38Z</time>
      </trkpt>
      <trkpt lat="45.19088" lon="5.95729">
        <ele>1431.1</ele>
        <time>2026-07-14T13:13:39Z</time>
      </trkpt>
      <trkpt lat="45.1909" lon="5.95728">
        <ele>1430.7</ele>
        <time>2026-07-14T13:13:40Z</time>
      </trkpt>
      <trkpt lat="45.19091" lon="5.95728">
        <ele>1430.5</ele>
        <time>2026-07-14T13:13:42Z</time>
      </trkpt>
      <trkpt lat="45.19092" lon="5.95728">
        <ele>1430.3</ele>
        <time>2026-07-14T13:13:43Z</time>
      </trkpt>
      <trkpt lat="45.19092" lon="5.95727">
        <ele>1430.2</ele>
        <time>2026-07-14T13:13:45Z</time>
      </trkpt>
      <trkpt lat="45.19092" lon="5.95726">
        <ele>1430.1</ele>
        <time>2026-07-14T13:13:46Z</time>
      </trkpt>
      <trkpt lat="45.19093" lon="5.95725">
        <ele>1429.8</ele>
        <time>2026-07-14T13:13:47Z</time>
      </trkpt>
      <trkpt lat="45.19094" lon="5.95724">
        <ele>1429.6</ele>
        <time>2026-07-14T13:13:48Z</time>
      </trkpt>
      <trkpt lat="45.19094" lon="5.95722">
        <ele>1429.4</ele>
        <time>2026-07-14T13:13:50Z</time>
      </trkpt>
      <trkpt lat="45.19095" lon="5.95722">
        <ele>1429.1</ele>
        <time>2026-07-14T13:13:51Z</time>
      </trkpt>
      <trkpt lat="45.19096" lon="5.95723">
        <ele>1428.9</ele>
        <time>2026-07-14T13:13:52Z</time>
      </trkpt>
      <trkpt lat="45.19096" lon="5.95725">
        <ele>1428.7</ele>
        <time>2026-07-14T13:13:54Z</time>
      </trkpt>
      <trkpt lat="45.19096" lon="5.95726">
        <ele>1428.6</ele>
        <time>2026-07-14T13:13:55Z</time>
      </trkpt>
      <trkpt lat="45.19096" lon="5.95726">
        <ele>1428.5</ele>
        <time>2026-07-14T13:13:56Z</time>
      </trkpt>
      <trkpt lat="45.19095" lon="5.95727">
        <ele>1428.4</ele>
        <time>2026-07-14T13:13:57Z</time>
      </trkpt>
      <trkpt lat="45.19095" lon="5.95727">
        <ele>1428.4</ele>
        <time>2026-07-14T13:13:58Z</time>
      </trkpt>
      <trkpt lat="45.19095" lon="5.95727">
        <ele>1428.3</ele>
        <time>2026-07-14T13:13:59Z</time>
      </trkpt>
      <trkpt lat="45.19095" lon="5.95728">
        <ele>1428.2</ele>
        <time>2026-07-14T13:14:00Z</time>
      </trkpt>
      <trkpt lat="45.19095" lon="5.95728">
        <ele>1428.2</ele>
        <time>2026-07-14T13:14:01Z</time>
      </trkpt>
      <trkpt lat="45.19094" lon="5.95729">
        <ele>1428</ele>
        <time>2026-07-14T13:14:02Z</time>
      </trkpt>
      <trkpt lat="45.19094" lon="5.95729">
        <ele>1428</ele>
        <time>2026-07-14T13:14:03Z</time>
      </trkpt>
      <trkpt lat="45.19094" lon="5.9573">
        <ele>1427.9</ele>
        <time>2026-07-14T13:14:04Z</time>
      </trkpt>
      <trkpt lat="45.19094" lon="5.9573">
        <ele>1427.8</ele>
        <time>2026-07-14T13:14:05Z</time>
      </trkpt>
      <trkpt lat="45.19094" lon="5.9573">
        <ele>1427.8</ele>
        <time>2026-07-14T13:14:06Z</time>
      </trkpt>
      <trkpt lat="45.19094" lon="5.95731">
        <ele>1427.7</ele>
        <time>2026-07-14T13:14:07Z</time>
      </trkpt>
      <trkpt lat="45.19093" lon="5.95731">
        <ele>1427.7</ele>
        <time>2026-07-14T13:14:08Z</time>
      </trkpt>
      <trkpt lat="45.19093" lon="5.95731">
        <ele>1427.7</ele>
        <time>2026-07-14T13:14:09Z</time>
      </trkpt>
      <trkpt lat="45.19093" lon="5.95731">
        <ele>1427.6</ele>
        <time>2026-07-14T13:14:10Z</time>
      </trkpt>
      <trkpt lat="45.19093" lon="5.95731">
        <ele>1427.6</ele>
        <time>2026-07-14T13:14:11Z</time>
      </trkpt>
      <trkpt lat="45.19093" lon="5.95731">
        <ele>1427.5</ele>
        <time>2026-07-14T13:14:12Z</time>
      </trkpt>
      <trkpt lat="45.19093" lon="5.95731">
        <ele>1427.5</ele>
        <time>2026-07-14T13:14:13Z</time>
      </trkpt>
      <trkpt lat="45.19092" lon="5.95732">
        <ele>1427.4</ele>
        <time>2026-07-14T13:14:14Z</time>
      </trkpt>
      <trkpt lat="45.19092" lon="5.95733">
        <ele>1427.3</ele>
        <time>2026-07-14T13:14:15Z</time>
      </trkpt>
      <trkpt lat="45.19092" lon="5.95733">
        <ele>1427.2</ele>
        <time>2026-07-14T13:14:17Z</time>
      </trkpt>
      <trkpt lat="45.19092" lon="5.95734">
        <ele>1427.1</ele>
        <time>2026-07-14T13:14:18Z</time>
      </trkpt>
      <trkpt lat="45.19092" lon="5.95735">
        <ele>1426.9</ele>
        <time>2026-07-14T13:14:19Z</time>
      </trkpt>
      <trkpt lat="45.19091" lon="5.95738">
        <ele>1426.5</ele>
        <time>2026-07-14T13:14:20Z</time>
      </trkpt>
      <trkpt lat="45.19091" lon="5.9574">
        <ele>1426.3</ele>
        <time>2026-07-14T13:14:22Z</time>
      </trkpt>
      <trkpt lat="45.19092" lon="5.95741">
        <ele>1426.1</ele>
        <time>2026-07-14T13:14:23Z</time>
      </trkpt>
      <trkpt lat="45.19092" lon="5.95742">
        <ele>1425.9</ele>
        <time>2026-07-14T13:14:24Z</time>
      </trkpt>
      <trkpt lat="45.19093" lon="5.95743">
        <ele>1425.7</ele>
        <time>2026-07-14T13:14:25Z</time>
      </trkpt>
      <trkpt lat="45.19092" lon="5.95743">
        <ele>1425.7</ele>
        <time>2026-07-14T13:14:26Z</time>
      </trkpt>
      <trkpt lat="45.19093" lon="5.95743">
        <ele>1425.7</ele>
        <time>2026-07-14T13:14:27Z</time>
      </trkpt>
      <trkpt lat="45.19093" lon="5.95743">
        <ele>1425.6</ele>
        <time>2026-07-14T13:14:28Z</time>
      </trkpt>
      <trkpt lat="45.19093" lon="5.95742">
        <ele>1425.5</ele>
        <time>2026-07-14T13:14:29Z</time>
      </trkpt>
      <trkpt lat="45.19093" lon="5.95741">
        <ele>1425.4</ele>
        <time>2026-07-14T13:14:30Z</time>
      </trkpt>
      <trkpt lat="45.19093" lon="5.95741">
        <ele>1425.3</ele>
        <time>2026-07-14T13:14:31Z</time>
      </trkpt>
      <trkpt lat="45.19092" lon="5.95741">
        <ele>1425.3</ele>
        <time>2026-07-14T13:14:32Z</time>
      </trkpt>
      <trkpt lat="45.19092" lon="5.95741">
        <ele>1425.2</ele>
        <time>2026-07-14T13:14:33Z</time>
      </trkpt>
      <trkpt lat="45.19092" lon="5.95741">
        <ele>1425.1</ele>
        <time>2026-07-14T13:14:34Z</time>
      </trkpt>
      <trkpt lat="45.19092" lon="5.95741">
        <ele>1425.1</ele>
        <time>2026-07-14T13:14:35Z</time>
      </trkpt>
      <trkpt lat="45.19092" lon="5.9574">
        <ele>1425.1</ele>
        <time>2026-07-14T13:14:36Z</time>
      </trkpt>
      <trkpt lat="45.19092" lon="5.9574">
        <ele>1425.1</ele>
        <time>2026-07-14T13:14:37Z</time>
      </trkpt>
      <trkpt lat="45.19092" lon="5.9574">
        <ele>1425.1</ele>
        <time>2026-07-14T13:14:38Z</time>
      </trkpt>
      <trkpt lat="45.19092" lon="5.9574">
        <ele>1425.1</ele>
        <time>2026-07-14T13:14:39Z</time>
      </trkpt>
      <trkpt lat="45.19092" lon="5.9574">
        <ele>1425</ele>
        <time>2026-07-14T13:14:40Z</time>
      </trkpt>
      <trkpt lat="45.19092" lon="5.9574">
        <ele>1425</ele>
        <time>2026-07-14T13:14:41Z</time>
      </trkpt>
      <trkpt lat="45.19092" lon="5.9574">
        <ele>1425</ele>
        <time>2026-07-14T13:14:42Z</time>
      </trkpt>
      <trkpt lat="45.19092" lon="5.9574">
        <ele>1425</ele>
        <time>2026-07-14T13:14:43Z</time>
      </trkpt>
      <trkpt lat="45.19092" lon="5.9574">
        <ele>1424.9</ele>
        <time>2026-07-14T13:14:45Z</time>
      </trkpt>
      <trkpt lat="45.19092" lon="5.9574">
        <ele>1424.9</ele>
        <time>2026-07-14T13:14:46Z</time>
      </trkpt>
      <trkpt lat="45.19092" lon="5.9574">
        <ele>1424.8</ele>
        <time>2026-07-14T13:14:47Z</time>
      </trkpt>
      <trkpt lat="45.19092" lon="5.9574">
        <ele>1424.8</ele>
        <time>2026-07-14T13:14:48Z</time>
      </trkpt>
      <trkpt lat="45.19093" lon="5.9574">
        <ele>1424.7</ele>
        <time>2026-07-14T13:14:49Z</time>
      </trkpt>
      <trkpt lat="45.19093" lon="5.9574">
        <ele>1424.7</ele>
        <time>2026-07-14T13:14:50Z</time>
      </trkpt>
      <trkpt lat="45.19093" lon="5.9574">
        <ele>1424.6</ele>
        <time>2026-07-14T13:14:51Z</time>
      </trkpt>
      <trkpt lat="45.19095" lon="5.9574">
        <ele>1424.4</ele>
        <time>2026-07-14T13:14:52Z</time>
      </trkpt>
      <trkpt lat="45.19099" lon="5.9574">
        <ele>1423.5</ele>
        <time>2026-07-14T13:14:53Z</time>
      </trkpt>
      <trkpt lat="45.19101" lon="5.95739">
        <ele>1423</ele>
        <time>2026-07-14T13:14:54Z</time>
      </trkpt>
      <trkpt lat="45.19103" lon="5.95737">
        <ele>1422.7</ele>
        <time>2026-07-14T13:14:55Z</time>
      </trkpt>
      <trkpt lat="45.19104" lon="5.95736">
        <ele>1422.4</ele>
        <time>2026-07-14T13:14:56Z</time>
      </trkpt>
      <trkpt lat="45.19105" lon="5.95736">
        <ele>1422.1</ele>
        <time>2026-07-14T13:14:57Z</time>
      </trkpt>
      <trkpt lat="45.19106" lon="5.95736">
        <ele>1421.9</ele>
        <time>2026-07-14T13:14:58Z</time>
      </trkpt>
      <trkpt lat="45.19107" lon="5.95735">
        <ele>1421.7</ele>
        <time>2026-07-14T13:14:59Z</time>
      </trkpt>
      <trkpt lat="45.19108" lon="5.95735">
        <ele>1421.5</ele>
        <time>2026-07-14T13:15:00Z</time>
      </trkpt>
      <trkpt lat="45.19109" lon="5.95736">
        <ele>1421.3</ele>
        <time>2026-07-14T13:15:02Z</time>
      </trkpt>
      <trkpt lat="45.1911" lon="5.95738">
        <ele>1421.1</ele>
        <time>2026-07-14T13:15:03Z</time>
      </trkpt>
      <trkpt lat="45.19111" lon="5.95739">
        <ele>1420.9</ele>
        <time>2026-07-14T13:15:04Z</time>
      </trkpt>
      <trkpt lat="45.19112" lon="5.95742">
        <ele>1420.5</ele>
        <time>2026-07-14T13:15:05Z</time>
      </trkpt>
      <trkpt lat="45.19113" lon="5.95745">
        <ele>1420.1</ele>
        <time>2026-07-14T13:15:07Z</time>
      </trkpt>
      <trkpt lat="45.19113" lon="5.95745">
        <ele>1420</ele>
        <time>2026-07-14T13:15:09Z</time>
      </trkpt>
      <trkpt lat="45.19114" lon="5.95747">
        <ele>1419.7</ele>
        <time>2026-07-14T13:15:10Z</time>
      </trkpt>
      <trkpt lat="45.19114" lon="5.95747">
        <ele>1419.6</ele>
        <time>2026-07-14T13:15:11Z</time>
      </trkpt>
      <trkpt lat="45.19115" lon="5.95748">
        <ele>1419.4</ele>
        <time>2026-07-14T13:15:12Z</time>
      </trkpt>
      <trkpt lat="45.19116" lon="5.95748">
        <ele>1419.3</ele>
        <time>2026-07-14T13:15:13Z</time>
      </trkpt>
      <trkpt lat="45.19118" lon="5.95746">
        <ele>1418.9</ele>
        <time>2026-07-14T13:15:14Z</time>
      </trkpt>
      <trkpt lat="45.19119" lon="5.95745">
        <ele>1418.7</ele>
        <time>2026-07-14T13:15:16Z</time>
      </trkpt>
      <trkpt lat="45.1912" lon="5.95744">
        <ele>1418.5</ele>
        <time>2026-07-14T13:15:17Z</time>
      </trkpt>
      <trkpt lat="45.1912" lon="5.95745">
        <ele>1418.5</ele>
        <time>2026-07-14T13:15:18Z</time>
      </trkpt>
      <trkpt lat="45.19121" lon="5.95747">
        <ele>1418.2</ele>
        <time>2026-07-14T13:15:19Z</time>
      </trkpt>
      <trkpt lat="45.19122" lon="5.95748">
        <ele>1418</ele>
        <time>2026-07-14T13:15:20Z</time>
      </trkpt>
      <trkpt lat="45.19123" lon="5.95748">
        <ele>1417.8</ele>
        <time>2026-07-14T13:15:22Z</time>
      </trkpt>
      <trkpt lat="45.19124" lon="5.95748">
        <ele>1417.7</ele>
        <time>2026-07-14T13:15:23Z</time>
      </trkpt>
      <trkpt lat="45.19124" lon="5.95747">
        <ele>1417.6</ele>
        <time>2026-07-14T13:15:24Z</time>
      </trkpt>
      <trkpt lat="45.19125" lon="5.95747">
        <ele>1417.5</ele>
        <time>2026-07-14T13:15:25Z</time>
      </trkpt>
      <trkpt lat="45.19125" lon="5.95748">
        <ele>1417.3</ele>
        <time>2026-07-14T13:15:26Z</time>
      </trkpt>
      <trkpt lat="45.19126" lon="5.95749">
        <ele>1417.3</ele>
        <time>2026-07-14T13:15:27Z</time>
      </trkpt>
      <trkpt lat="45.19126" lon="5.95749">
        <ele>1417.2</ele>
        <time>2026-07-14T13:15:28Z</time>
      </trkpt>
      <trkpt lat="45.19127" lon="5.95749">
        <ele>1417.1</ele>
        <time>2026-07-14T13:15:29Z</time>
      </trkpt>
      <trkpt lat="45.19127" lon="5.95749">
        <ele>1417</ele>
        <time>2026-07-14T13:15:30Z</time>
      </trkpt>
      <trkpt lat="45.19128" lon="5.95748">
        <ele>1416.8</ele>
        <time>2026-07-14T13:15:31Z</time>
      </trkpt>
      <trkpt lat="45.19128" lon="5.95749">
        <ele>1416.8</ele>
        <time>2026-07-14T13:15:33Z</time>
      </trkpt>
      <trkpt lat="45.19129" lon="5.95749">
        <ele>1416.7</ele>
        <time>2026-07-14T13:15:34Z</time>
      </trkpt>
      <trkpt lat="45.1913" lon="5.95749">
        <ele>1416.6</ele>
        <time>2026-07-14T13:15:35Z</time>
      </trkpt>
      <trkpt lat="45.19131" lon="5.95749">
        <ele>1416.4</ele>
        <time>2026-07-14T13:15:36Z</time>
      </trkpt>
      <trkpt lat="45.1913" lon="5.95751">
        <ele>1416.3</ele>
        <time>2026-07-14T13:15:37Z</time>
      </trkpt>
      <trkpt lat="45.1913" lon="5.95752">
        <ele>1416.1</ele>
        <time>2026-07-14T13:15:38Z</time>
      </trkpt>
      <trkpt lat="45.1913" lon="5.95752">
        <ele>1416</ele>
        <time>2026-07-14T13:15:39Z</time>
      </trkpt>
      <trkpt lat="45.19129" lon="5.95752">
        <ele>1416</ele>
        <time>2026-07-14T13:15:40Z</time>
      </trkpt>
      <trkpt lat="45.19129" lon="5.95751">
        <ele>1415.9</ele>
        <time>2026-07-14T13:15:41Z</time>
      </trkpt>
      <trkpt lat="45.19129" lon="5.95751">
        <ele>1415.9</ele>
        <time>2026-07-14T13:15:42Z</time>
      </trkpt>
      <trkpt lat="45.19129" lon="5.95751">
        <ele>1415.8</ele>
        <time>2026-07-14T13:15:43Z</time>
      </trkpt>
      <trkpt lat="45.19129" lon="5.95751">
        <ele>1415.8</ele>
        <time>2026-07-14T13:15:44Z</time>
      </trkpt>
      <trkpt lat="45.19128" lon="5.9575">
        <ele>1415.7</ele>
        <time>2026-07-14T13:15:45Z</time>
      </trkpt>
      <trkpt lat="45.19128" lon="5.95749">
        <ele>1415.6</ele>
        <time>2026-07-14T13:15:46Z</time>
      </trkpt>
      <trkpt lat="45.19129" lon="5.95748">
        <ele>1415.5</ele>
        <time>2026-07-14T13:15:48Z</time>
      </trkpt>
      <trkpt lat="45.1913" lon="5.95746">
        <ele>1415.2</ele>
        <time>2026-07-14T13:15:49Z</time>
      </trkpt>
      <trkpt lat="45.19133" lon="5.95744">
        <ele>1414.7</ele>
        <time>2026-07-14T13:15:50Z</time>
      </trkpt>
      <trkpt lat="45.19134" lon="5.95745">
        <ele>1414.5</ele>
        <time>2026-07-14T13:15:52Z</time>
      </trkpt>
      <trkpt lat="45.19135" lon="5.95746">
        <ele>1414.3</ele>
        <time>2026-07-14T13:15:53Z</time>
      </trkpt>
      <trkpt lat="45.19136" lon="5.95747">
        <ele>1414.1</ele>
        <time>2026-07-14T13:15:54Z</time>
      </trkpt>
      <trkpt lat="45.19137" lon="5.95747">
        <ele>1414</ele>
        <time>2026-07-14T13:15:56Z</time>
      </trkpt>
      <trkpt lat="45.19137" lon="5.95748">
        <ele>1413.9</ele>
        <time>2026-07-14T13:15:57Z</time>
      </trkpt>
      <trkpt lat="45.19139" lon="5.9575">
        <ele>1413.6</ele>
        <time>2026-07-14T13:15:58Z</time>
      </trkpt>
      <trkpt lat="45.1914" lon="5.9575">
        <ele>1413.4</ele>
        <time>2026-07-14T13:15:59Z</time>
      </trkpt>
      <trkpt lat="45.19141" lon="5.95751">
        <ele>1413.3</ele>
        <time>2026-07-14T13:16:01Z</time>
      </trkpt>
      <trkpt lat="45.19142" lon="5.95752">
        <ele>1413</ele>
        <time>2026-07-14T13:16:02Z</time>
      </trkpt>
      <trkpt lat="45.19143" lon="5.95753">
        <ele>1412.9</ele>
        <time>2026-07-14T13:16:03Z</time>
      </trkpt>
      <trkpt lat="45.19143" lon="5.95753">
        <ele>1412.8</ele>
        <time>2026-07-14T13:16:05Z</time>
      </trkpt>
      <trkpt lat="45.19144" lon="5.95753">
        <ele>1412.8</ele>
        <time>2026-07-14T13:16:06Z</time>
      </trkpt>
      <trkpt lat="45.19145" lon="5.95753">
        <ele>1412.6</ele>
        <time>2026-07-14T13:16:07Z</time>
      </trkpt>
      <trkpt lat="45.19145" lon="5.95752">
        <ele>1412.5</ele>
        <time>2026-07-14T13:16:08Z</time>
      </trkpt>
      <trkpt lat="45.19146" lon="5.95752">
        <ele>1412.4</ele>
        <time>2026-07-14T13:16:09Z</time>
      </trkpt>
      <trkpt lat="45.19147" lon="5.95753">
        <ele>1412.2</ele>
        <time>2026-07-14T13:16:10Z</time>
      </trkpt>
      <trkpt lat="45.19148" lon="5.95753">
        <ele>1412.1</ele>
        <time>2026-07-14T13:16:12Z</time>
      </trkpt>
      <trkpt lat="45.19149" lon="5.95753">
        <ele>1412</ele>
        <time>2026-07-14T13:16:13Z</time>
      </trkpt>
      <trkpt lat="45.19149" lon="5.95752">
        <ele>1411.9</ele>
        <time>2026-07-14T13:16:14Z</time>
      </trkpt>
      <trkpt lat="45.1915" lon="5.9575">
        <ele>1411.7</ele>
        <time>2026-07-14T13:16:15Z</time>
      </trkpt>
      <trkpt lat="45.19151" lon="5.9575">
        <ele>1411.6</ele>
        <time>2026-07-14T13:16:16Z</time>
      </trkpt>
      <trkpt lat="45.19152" lon="5.95751">
        <ele>1411.4</ele>
        <time>2026-07-14T13:16:17Z</time>
      </trkpt>
      <trkpt lat="45.19153" lon="5.95752">
        <ele>1411.2</ele>
        <time>2026-07-14T13:16:19Z</time>
      </trkpt>
      <trkpt lat="45.19153" lon="5.95752">
        <ele>1411.1</ele>
        <time>2026-07-14T13:16:20Z</time>
      </trkpt>
      <trkpt lat="45.19155" lon="5.95752">
        <ele>1410.9</ele>
        <time>2026-07-14T13:16:21Z</time>
      </trkpt>
      <trkpt lat="45.19156" lon="5.95751">
        <ele>1410.7</ele>
        <time>2026-07-14T13:16:23Z</time>
      </trkpt>
      <trkpt lat="45.19157" lon="5.9575">
        <ele>1410.5</ele>
        <time>2026-07-14T13:16:24Z</time>
      </trkpt>
      <trkpt lat="45.19157" lon="5.95748">
        <ele>1410.4</ele>
        <time>2026-07-14T13:16:25Z</time>
      </trkpt>
      <trkpt lat="45.19158" lon="5.95747">
        <ele>1410.2</ele>
        <time>2026-07-14T13:16:26Z</time>
      </trkpt>
      <trkpt lat="45.19158" lon="5.95746">
        <ele>1410.1</ele>
        <time>2026-07-14T13:16:27Z</time>
      </trkpt>
      <trkpt lat="45.1916" lon="5.95745">
        <ele>1409.8</ele>
        <time>2026-07-14T13:16:28Z</time>
      </trkpt>
      <trkpt lat="45.19161" lon="5.95744">
        <ele>1409.7</ele>
        <time>2026-07-14T13:16:30Z</time>
      </trkpt>
      <trkpt lat="45.19162" lon="5.95742">
        <ele>1409.5</ele>
        <time>2026-07-14T13:16:31Z</time>
      </trkpt>
      <trkpt lat="45.19162" lon="5.95742">
        <ele>1409.4</ele>
        <time>2026-07-14T13:16:33Z</time>
      </trkpt>
      <trkpt lat="45.19162" lon="5.95741">
        <ele>1409.3</ele>
        <time>2026-07-14T13:16:34Z</time>
      </trkpt>
      <trkpt lat="45.19163" lon="5.95741">
        <ele>1409.3</ele>
        <time>2026-07-14T13:16:35Z</time>
      </trkpt>
      <trkpt lat="45.19164" lon="5.95742">
        <ele>1409.1</ele>
        <time>2026-07-14T13:16:36Z</time>
      </trkpt>
      <trkpt lat="45.19165" lon="5.95743">
        <ele>1408.9</ele>
        <time>2026-07-14T13:16:38Z</time>
      </trkpt>
      <trkpt lat="45.19165" lon="5.95744">
        <ele>1408.8</ele>
        <time>2026-07-14T13:16:39Z</time>
      </trkpt>
      <trkpt lat="45.19165" lon="5.95745">
        <ele>1408.7</ele>
        <time>2026-07-14T13:16:40Z</time>
      </trkpt>
      <trkpt lat="45.19166" lon="5.95747">
        <ele>1408.5</ele>
        <time>2026-07-14T13:16:41Z</time>
      </trkpt>
      <trkpt lat="45.19167" lon="5.95747">
        <ele>1408.3</ele>
        <time>2026-07-14T13:16:43Z</time>
      </trkpt>
      <trkpt lat="45.19168" lon="5.95746">
        <ele>1408.2</ele>
        <time>2026-07-14T13:16:44Z</time>
      </trkpt>
      <trkpt lat="45.19169" lon="5.95746">
        <ele>1408.1</ele>
        <time>2026-07-14T13:16:45Z</time>
      </trkpt>
      <trkpt lat="45.19169" lon="5.95745">
        <ele>1408</ele>
        <time>2026-07-14T13:16:46Z</time>
      </trkpt>
      <trkpt lat="45.1917" lon="5.95744">
        <ele>1407.8</ele>
        <time>2026-07-14T13:16:47Z</time>
      </trkpt>
      <trkpt lat="45.1917" lon="5.95743">
        <ele>1407.7</ele>
        <time>2026-07-14T13:16:48Z</time>
      </trkpt>
      <trkpt lat="45.19171" lon="5.95742">
        <ele>1407.6</ele>
        <time>2026-07-14T13:16:49Z</time>
      </trkpt>
      <trkpt lat="45.19172" lon="5.95741">
        <ele>1407.5</ele>
        <time>2026-07-14T13:16:50Z</time>
      </trkpt>
      <trkpt lat="45.19172" lon="5.95739">
        <ele>1407.3</ele>
        <time>2026-07-14T13:16:51Z</time>
      </trkpt>
      <trkpt lat="45.19172" lon="5.95738">
        <ele>1407.2</ele>
        <time>2026-07-14T13:16:52Z</time>
      </trkpt>
      <trkpt lat="45.19173" lon="5.95738">
        <ele>1407.1</ele>
        <time>2026-07-14T13:16:53Z</time>
      </trkpt>
      <trkpt lat="45.19174" lon="5.95739">
        <ele>1407</ele>
        <time>2026-07-14T13:16:54Z</time>
      </trkpt>
      <trkpt lat="45.19175" lon="5.9574">
        <ele>1406.8</ele>
        <time>2026-07-14T13:16:55Z</time>
      </trkpt>
      <trkpt lat="45.19176" lon="5.9574">
        <ele>1406.7</ele>
        <time>2026-07-14T13:16:56Z</time>
      </trkpt>
      <trkpt lat="45.19177" lon="5.95741">
        <ele>1406.5</ele>
        <time>2026-07-14T13:16:57Z</time>
      </trkpt>
      <trkpt lat="45.19178" lon="5.9574">
        <ele>1406.4</ele>
        <time>2026-07-14T13:16:58Z</time>
      </trkpt>
      <trkpt lat="45.19178" lon="5.95739">
        <ele>1406.3</ele>
        <time>2026-07-14T13:16:59Z</time>
      </trkpt>
      <trkpt lat="45.19179" lon="5.95739">
        <ele>1406.3</ele>
        <time>2026-07-14T13:17:00Z</time>
      </trkpt>
      <trkpt lat="45.19179" lon="5.95739">
        <ele>1406.2</ele>
        <time>2026-07-14T13:17:01Z</time>
      </trkpt>
      <trkpt lat="45.1918" lon="5.95739">
        <ele>1406.1</ele>
        <time>2026-07-14T13:17:02Z</time>
      </trkpt>
      <trkpt lat="45.19179" lon="5.95739">
        <ele>1406</ele>
        <time>2026-07-14T13:17:03Z</time>
      </trkpt>
      <trkpt lat="45.19178" lon="5.9574">
        <ele>1405.9</ele>
        <time>2026-07-14T13:17:04Z</time>
      </trkpt>
      <trkpt lat="45.19178" lon="5.9574">
        <ele>1405.8</ele>
        <time>2026-07-14T13:17:05Z</time>
      </trkpt>
      <trkpt lat="45.19178" lon="5.9574">
        <ele>1405.8</ele>
        <time>2026-07-14T13:17:06Z</time>
      </trkpt>
      <trkpt lat="45.19177" lon="5.9574">
        <ele>1405.8</ele>
        <time>2026-07-14T13:17:07Z</time>
      </trkpt>
      <trkpt lat="45.19177" lon="5.9574">
        <ele>1405.7</ele>
        <time>2026-07-14T13:17:08Z</time>
      </trkpt>
      <trkpt lat="45.19177" lon="5.9574">
        <ele>1405.7</ele>
        <time>2026-07-14T13:17:09Z</time>
      </trkpt>
      <trkpt lat="45.19177" lon="5.9574">
        <ele>1405.7</ele>
        <time>2026-07-14T13:17:10Z</time>
      </trkpt>
      <trkpt lat="45.19177" lon="5.9574">
        <ele>1405.7</ele>
        <time>2026-07-14T13:17:11Z</time>
      </trkpt>
      <trkpt lat="45.19177" lon="5.9574">
        <ele>1405.7</ele>
        <time>2026-07-14T13:17:12Z</time>
      </trkpt>
      <trkpt lat="45.19177" lon="5.9574">
        <ele>1405.7</ele>
        <time>2026-07-14T13:17:13Z</time>
      </trkpt>
      <trkpt lat="45.19177" lon="5.9574">
        <ele>1405.6</ele>
        <time>2026-07-14T13:17:14Z</time>
      </trkpt>
      <trkpt lat="45.19176" lon="5.9574">
        <ele>1405.6</ele>
        <time>2026-07-14T13:17:15Z</time>
      </trkpt>
      <trkpt lat="45.19176" lon="5.9574">
        <ele>1405.6</ele>
        <time>2026-07-14T13:17:16Z</time>
      </trkpt>
      <trkpt lat="45.19176" lon="5.9574">
        <ele>1405.6</ele>
        <time>2026-07-14T13:17:17Z</time>
      </trkpt>
      <trkpt lat="45.19176" lon="5.9574">
        <ele>1405.6</ele>
        <time>2026-07-14T13:17:18Z</time>
      </trkpt>
      <trkpt lat="45.19176" lon="5.9574">
        <ele>1405.6</ele>
        <time>2026-07-14T13:17:19Z</time>
      </trkpt>
      <trkpt lat="45.19176" lon="5.9574">
        <ele>1405.6</ele>
        <time>2026-07-14T13:17:20Z</time>
      </trkpt>
      <trkpt lat="45.19176" lon="5.9574">
        <ele>1405.6</ele>
        <time>2026-07-14T13:17:21Z</time>
      </trkpt>
      <trkpt lat="45.19176" lon="5.9574">
        <ele>1405.6</ele>
        <time>2026-07-14T13:17:22Z</time>
      </trkpt>
      <trkpt lat="45.19176" lon="5.9574">
        <ele>1405.5</ele>
        <time>2026-07-14T13:17:23Z</time>
      </trkpt>
      <trkpt lat="45.19176" lon="5.9574">
        <ele>1405.5</ele>
        <time>2026-07-14T13:17:24Z</time>
      </trkpt>
      <trkpt lat="45.19176" lon="5.9574">
        <ele>1405.5</ele>
        <time>2026-07-14T13:17:25Z</time>
      </trkpt>
      <trkpt lat="45.19176" lon="5.9574">
        <ele>1405.5</ele>
        <time>2026-07-14T13:17:26Z</time>
      </trkpt>
      <trkpt lat="45.19176" lon="5.9574">
        <ele>1405.5</ele>
        <time>2026-07-14T13:17:27Z</time>
      </trkpt>
      <trkpt lat="45.19176" lon="5.9574">
        <ele>1405.5</ele>
        <time>2026-07-14T13:17:28Z</time>
      </trkpt>
      <trkpt lat="45.19176" lon="5.9574">
        <ele>1405.5</ele>
        <time>2026-07-14T13:17:29Z</time>
      </trkpt>
      <trkpt lat="45.19176" lon="5.9574">
        <ele>1405.5</ele>
        <time>2026-07-14T13:17:30Z</time>
      </trkpt>
      <trkpt lat="45.19176" lon="5.9574">
        <ele>1405.5</ele>
        <time>2026-07-14T13:17:31Z</time>
      </trkpt>
      <trkpt lat="45.19176" lon="5.9574">
        <ele>1405.5</ele>
        <time>2026-07-14T13:17:32Z</time>
      </trkpt>
      <trkpt lat="45.19176" lon="5.9574">
        <ele>1405.5</ele>
        <time>2026-07-14T13:17:33Z</time>
      </trkpt>
      <trkpt lat="45.19176" lon="5.9574">
        <ele>1405.5</ele>
        <time>2026-07-14T13:17:34Z</time>
      </trkpt>
      <trkpt lat="45.19176" lon="5.9574">
        <ele>1405.4</ele>
        <time>2026-07-14T13:17:35Z</time>
      </trkpt>
      <trkpt lat="45.19176" lon="5.9574">
        <ele>1405.4</ele>
        <time>2026-07-14T13:17:36Z</time>
      </trkpt>
      <trkpt lat="45.19177" lon="5.95741">
        <ele>1405.3</ele>
        <time>2026-07-14T13:17:37Z</time>
      </trkpt>
      <trkpt lat="45.19178" lon="5.95741">
        <ele>1405.2</ele>
        <time>2026-07-14T13:17:38Z</time>
      </trkpt>
      <trkpt lat="45.19179" lon="5.95741">
        <ele>1405</ele>
        <time>2026-07-14T13:17:40Z</time>
      </trkpt>
      <trkpt lat="45.1918" lon="5.95741">
        <ele>1404.9</ele>
        <time>2026-07-14T13:17:41Z</time>
      </trkpt>
      <trkpt lat="45.19181" lon="5.9574">
        <ele>1404.8</ele>
        <time>2026-07-14T13:17:42Z</time>
      </trkpt>
      <trkpt lat="45.19182" lon="5.95739">
        <ele>1404.7</ele>
        <time>2026-07-14T13:17:43Z</time>
      </trkpt>
      <trkpt lat="45.19183" lon="5.95739">
        <ele>1404.5</ele>
        <time>2026-07-14T13:17:44Z</time>
      </trkpt>
      <trkpt lat="45.19185" lon="5.9574">
        <ele>1404.3</ele>
        <time>2026-07-14T13:17:45Z</time>
      </trkpt>
      <trkpt lat="45.19185" lon="5.95741">
        <ele>1404.1</ele>
        <time>2026-07-14T13:17:47Z</time>
      </trkpt>
      <trkpt lat="45.19186" lon="5.95743">
        <ele>1404</ele>
        <time>2026-07-14T13:17:48Z</time>
      </trkpt>
      <trkpt lat="45.19187" lon="5.95744">
        <ele>1403.8</ele>
        <time>2026-07-14T13:17:49Z</time>
      </trkpt>
      <trkpt lat="45.19188" lon="5.95745">
        <ele>1403.7</ele>
        <time>2026-07-14T13:17:50Z</time>
      </trkpt>
      <trkpt lat="45.19189" lon="5.95746">
        <ele>1403.5</ele>
        <time>2026-07-14T13:17:51Z</time>
      </trkpt>
      <trkpt lat="45.19191" lon="5.95746">
        <ele>1403.3</ele>
        <time>2026-07-14T13:17:52Z</time>
      </trkpt>
      <trkpt lat="45.19194" lon="5.95747">
        <ele>1402.9</ele>
        <time>2026-07-14T13:17:53Z</time>
      </trkpt>
      <trkpt lat="45.19195" lon="5.95747">
        <ele>1402.8</ele>
        <time>2026-07-14T13:17:55Z</time>
      </trkpt>
      <trkpt lat="45.19196" lon="5.95747">
        <ele>1402.6</ele>
        <time>2026-07-14T13:17:56Z</time>
      </trkpt>
      <trkpt lat="45.19198" lon="5.95746">
        <ele>1402.5</ele>
        <time>2026-07-14T13:17:57Z</time>
      </trkpt>
      <trkpt lat="45.19199" lon="5.95746">
        <ele>1402.3</ele>
        <time>2026-07-14T13:17:58Z</time>
      </trkpt>
      <trkpt lat="45.19201" lon="5.95744">
        <ele>1402</ele>
        <time>2026-07-14T13:17:59Z</time>
      </trkpt>
      <trkpt lat="45.19202" lon="5.95743">
        <ele>1401.9</ele>
        <time>2026-07-14T13:18:01Z</time>
      </trkpt>
      <trkpt lat="45.19202" lon="5.95742">
        <ele>1401.8</ele>
        <time>2026-07-14T13:18:02Z</time>
      </trkpt>
      <trkpt lat="45.19204" lon="5.95739">
        <ele>1401.4</ele>
        <time>2026-07-14T13:18:03Z</time>
      </trkpt>
      <trkpt lat="45.19204" lon="5.95738">
        <ele>1401.3</ele>
        <time>2026-07-14T13:18:05Z</time>
      </trkpt>
      <trkpt lat="45.19204" lon="5.95736">
        <ele>1401.2</ele>
        <time>2026-07-14T13:18:06Z</time>
      </trkpt>
      <trkpt lat="45.19205" lon="5.95734">
        <ele>1401</ele>
        <time>2026-07-14T13:18:07Z</time>
      </trkpt>
      <trkpt lat="45.19206" lon="5.95732">
        <ele>1400.8</ele>
        <time>2026-07-14T13:18:09Z</time>
      </trkpt>
      <trkpt lat="45.19207" lon="5.95731">
        <ele>1400.7</ele>
        <time>2026-07-14T13:18:11Z</time>
      </trkpt>
      <trkpt lat="45.19207" lon="5.9573">
        <ele>1400.6</ele>
        <time>2026-07-14T13:18:12Z</time>
      </trkpt>
      <trkpt lat="45.19207" lon="5.95729">
        <ele>1400.4</ele>
        <time>2026-07-14T13:18:13Z</time>
      </trkpt>
      <trkpt lat="45.19207" lon="5.95727">
        <ele>1400.2</ele>
        <time>2026-07-14T13:18:14Z</time>
      </trkpt>
      <trkpt lat="45.19206" lon="5.95726">
        <ele>1400.1</ele>
        <time>2026-07-14T13:18:15Z</time>
      </trkpt>
      <trkpt lat="45.19206" lon="5.95724">
        <ele>1399.9</ele>
        <time>2026-07-14T13:18:16Z</time>
      </trkpt>
      <trkpt lat="45.19206" lon="5.95723">
        <ele>1399.8</ele>
        <time>2026-07-14T13:18:17Z</time>
      </trkpt>
      <trkpt lat="45.19206" lon="5.95722">
        <ele>1399.7</ele>
        <time>2026-07-14T13:18:18Z</time>
      </trkpt>
      <trkpt lat="45.19207" lon="5.95722">
        <ele>1399.6</ele>
        <time>2026-07-14T13:18:19Z</time>
      </trkpt>
      <trkpt lat="45.19208" lon="5.95722">
        <ele>1399.5</ele>
        <time>2026-07-14T13:18:20Z</time>
      </trkpt>
      <trkpt lat="45.1921" lon="5.95723">
        <ele>1399.2</ele>
        <time>2026-07-14T13:18:21Z</time>
      </trkpt>
      <trkpt lat="45.19211" lon="5.95723">
        <ele>1399.1</ele>
        <time>2026-07-14T13:18:23Z</time>
      </trkpt>
      <trkpt lat="45.19211" lon="5.95723">
        <ele>1399</ele>
        <time>2026-07-14T13:18:24Z</time>
      </trkpt>
      <trkpt lat="45.19212" lon="5.95723">
        <ele>1398.9</ele>
        <time>2026-07-14T13:18:25Z</time>
      </trkpt>
      <trkpt lat="45.19213" lon="5.95723">
        <ele>1398.8</ele>
        <time>2026-07-14T13:18:26Z</time>
      </trkpt>
      <trkpt lat="45.19213" lon="5.95724">
        <ele>1398.7</ele>
        <time>2026-07-14T13:18:27Z</time>
      </trkpt>
      <trkpt lat="45.19215" lon="5.95724">
        <ele>1398.4</ele>
        <time>2026-07-14T13:18:28Z</time>
      </trkpt>
      <trkpt lat="45.19216" lon="5.95725">
        <ele>1398.3</ele>
        <time>2026-07-14T13:18:30Z</time>
      </trkpt>
      <trkpt lat="45.19216" lon="5.95725">
        <ele>1398.3</ele>
        <time>2026-07-14T13:18:31Z</time>
      </trkpt>
      <trkpt lat="45.19217" lon="5.95725">
        <ele>1398.2</ele>
        <time>2026-07-14T13:18:32Z</time>
      </trkpt>
      <trkpt lat="45.19217" lon="5.95725">
        <ele>1398.1</ele>
        <time>2026-07-14T13:18:33Z</time>
      </trkpt>
      <trkpt lat="45.19218" lon="5.95724">
        <ele>1398</ele>
        <time>2026-07-14T13:18:34Z</time>
      </trkpt>
      <trkpt lat="45.19218" lon="5.95724">
        <ele>1397.9</ele>
        <time>2026-07-14T13:18:35Z</time>
      </trkpt>
      <trkpt lat="45.19219" lon="5.95723">
        <ele>1397.8</ele>
        <time>2026-07-14T13:18:36Z</time>
      </trkpt>
      <trkpt lat="45.1922" lon="5.95723">
        <ele>1397.7</ele>
        <time>2026-07-14T13:18:37Z</time>
      </trkpt>
      <trkpt lat="45.1922" lon="5.95724">
        <ele>1397.5</ele>
        <time>2026-07-14T13:18:38Z</time>
      </trkpt>
      <trkpt lat="45.1922" lon="5.95725">
        <ele>1397.4</ele>
        <time>2026-07-14T13:18:39Z</time>
      </trkpt>
      <trkpt lat="45.1922" lon="5.95726">
        <ele>1397.3</ele>
        <time>2026-07-14T13:18:40Z</time>
      </trkpt>
      <trkpt lat="45.1922" lon="5.95725">
        <ele>1397.3</ele>
        <time>2026-07-14T13:18:41Z</time>
      </trkpt>
      <trkpt lat="45.19221" lon="5.95724">
        <ele>1397.2</ele>
        <time>2026-07-14T13:18:42Z</time>
      </trkpt>
      <trkpt lat="45.19221" lon="5.95724">
        <ele>1397.1</ele>
        <time>2026-07-14T13:18:43Z</time>
      </trkpt>
      <trkpt lat="45.19221" lon="5.95723">
        <ele>1397</ele>
        <time>2026-07-14T13:18:45Z</time>
      </trkpt>
      <trkpt lat="45.19222" lon="5.95723">
        <ele>1396.9</ele>
        <time>2026-07-14T13:18:46Z</time>
      </trkpt>
      <trkpt lat="45.19223" lon="5.95722">
        <ele>1396.7</ele>
        <time>2026-07-14T13:18:47Z</time>
      </trkpt>
      <trkpt lat="45.19224" lon="5.95722">
        <ele>1396.6</ele>
        <time>2026-07-14T13:18:48Z</time>
      </trkpt>
      <trkpt lat="45.19225" lon="5.95722">
        <ele>1396.4</ele>
        <time>2026-07-14T13:18:49Z</time>
      </trkpt>
      <trkpt lat="45.19226" lon="5.95722">
        <ele>1396.3</ele>
        <time>2026-07-14T13:18:50Z</time>
      </trkpt>
      <trkpt lat="45.19226" lon="5.95722">
        <ele>1396.1</ele>
        <time>2026-07-14T13:18:51Z</time>
      </trkpt>
      <trkpt lat="45.19227" lon="5.95722">
        <ele>1396</ele>
        <time>2026-07-14T13:18:52Z</time>
      </trkpt>
      <trkpt lat="45.19228" lon="5.95722">
        <ele>1395.8</ele>
        <time>2026-07-14T13:18:53Z</time>
      </trkpt>
      <trkpt lat="45.19229" lon="5.95721">
        <ele>1395.6</ele>
        <time>2026-07-14T13:18:54Z</time>
      </trkpt>
      <trkpt lat="45.1923" lon="5.9572">
        <ele>1395.5</ele>
        <time>2026-07-14T13:18:55Z</time>
      </trkpt>
      <trkpt lat="45.19231" lon="5.95721">
        <ele>1395.4</ele>
        <time>2026-07-14T13:18:56Z</time>
      </trkpt>
      <trkpt lat="45.19231" lon="5.95721">
        <ele>1395.3</ele>
        <time>2026-07-14T13:18:57Z</time>
      </trkpt>
      <trkpt lat="45.19232" lon="5.95721">
        <ele>1395.2</ele>
        <time>2026-07-14T13:18:58Z</time>
      </trkpt>
      <trkpt lat="45.19233" lon="5.9572">
        <ele>1395</ele>
        <time>2026-07-14T13:18:59Z</time>
      </trkpt>
      <trkpt lat="45.19233" lon="5.9572">
        <ele>1394.8</ele>
        <time>2026-07-14T13:19:01Z</time>
      </trkpt>
      <trkpt lat="45.19235" lon="5.95718">
        <ele>1394.5</ele>
        <time>2026-07-14T13:19:02Z</time>
      </trkpt>
      <trkpt lat="45.19235" lon="5.95717">
        <ele>1394.4</ele>
        <time>2026-07-14T13:19:04Z</time>
      </trkpt>
      <trkpt lat="45.19236" lon="5.95715">
        <ele>1394.1</ele>
        <time>2026-07-14T13:19:05Z</time>
      </trkpt>
      <trkpt lat="45.19237" lon="5.95714">
        <ele>1393.9</ele>
        <time>2026-07-14T13:19:07Z</time>
      </trkpt>
      <trkpt lat="45.19237" lon="5.95713">
        <ele>1393.8</ele>
        <time>2026-07-14T13:19:08Z</time>
      </trkpt>
      <trkpt lat="45.19238" lon="5.95713">
        <ele>1393.7</ele>
        <time>2026-07-14T13:19:09Z</time>
      </trkpt>
      <trkpt lat="45.19238" lon="5.95712">
        <ele>1393.6</ele>
        <time>2026-07-14T13:19:10Z</time>
      </trkpt>
      <trkpt lat="45.19238" lon="5.95713">
        <ele>1393.5</ele>
        <time>2026-07-14T13:19:11Z</time>
      </trkpt>
      <trkpt lat="45.19238" lon="5.95714">
        <ele>1393.4</ele>
        <time>2026-07-14T13:19:12Z</time>
      </trkpt>
      <trkpt lat="45.19239" lon="5.95714">
        <ele>1393.2</ele>
        <time>2026-07-14T13:19:13Z</time>
      </trkpt>
      <trkpt lat="45.19239" lon="5.95714">
        <ele>1393.2</ele>
        <time>2026-07-14T13:19:14Z</time>
      </trkpt>
      <trkpt lat="45.1924" lon="5.95714">
        <ele>1393</ele>
        <time>2026-07-14T13:19:15Z</time>
      </trkpt>
      <trkpt lat="45.1924" lon="5.95713">
        <ele>1392.9</ele>
        <time>2026-07-14T13:19:16Z</time>
      </trkpt>
      <trkpt lat="45.1924" lon="5.95711">
        <ele>1392.8</ele>
        <time>2026-07-14T13:19:17Z</time>
      </trkpt>
      <trkpt lat="45.1924" lon="5.9571">
        <ele>1392.7</ele>
        <time>2026-07-14T13:19:18Z</time>
      </trkpt>
      <trkpt lat="45.1924" lon="5.9571">
        <ele>1392.6</ele>
        <time>2026-07-14T13:19:19Z</time>
      </trkpt>
      <trkpt lat="45.1924" lon="5.95709">
        <ele>1392.5</ele>
        <time>2026-07-14T13:19:20Z</time>
      </trkpt>
      <trkpt lat="45.1924" lon="5.95708">
        <ele>1392.4</ele>
        <time>2026-07-14T13:19:21Z</time>
      </trkpt>
      <trkpt lat="45.1924" lon="5.95707">
        <ele>1392.2</ele>
        <time>2026-07-14T13:19:22Z</time>
      </trkpt>
      <trkpt lat="45.1924" lon="5.95706">
        <ele>1392.1</ele>
        <time>2026-07-14T13:19:24Z</time>
      </trkpt>
      <trkpt lat="45.1924" lon="5.95705">
        <ele>1392</ele>
        <time>2026-07-14T13:19:25Z</time>
      </trkpt>
      <trkpt lat="45.19239" lon="5.95704">
        <ele>1391.8</ele>
        <time>2026-07-14T13:19:26Z</time>
      </trkpt>
      <trkpt lat="45.19239" lon="5.95702">
        <ele>1391.7</ele>
        <time>2026-07-14T13:19:27Z</time>
      </trkpt>
      <trkpt lat="45.19239" lon="5.95702">
        <ele>1391.6</ele>
        <time>2026-07-14T13:19:28Z</time>
      </trkpt>
      <trkpt lat="45.19238" lon="5.95701">
        <ele>1391.5</ele>
        <time>2026-07-14T13:19:30Z</time>
      </trkpt>
      <trkpt lat="45.19238" lon="5.957">
        <ele>1391.4</ele>
        <time>2026-07-14T13:19:31Z</time>
      </trkpt>
      <trkpt lat="45.19238" lon="5.95699">
        <ele>1391.3</ele>
        <time>2026-07-14T13:19:32Z</time>
      </trkpt>
      <trkpt lat="45.19238" lon="5.95698">
        <ele>1391.2</ele>
        <time>2026-07-14T13:19:33Z</time>
      </trkpt>
      <trkpt lat="45.19238" lon="5.95696">
        <ele>1391</ele>
        <time>2026-07-14T13:19:34Z</time>
      </trkpt>
      <trkpt lat="45.19238" lon="5.95694">
        <ele>1390.8</ele>
        <time>2026-07-14T13:19:35Z</time>
      </trkpt>
      <trkpt lat="45.1924" lon="5.95692">
        <ele>1390.6</ele>
        <time>2026-07-14T13:19:36Z</time>
      </trkpt>
      <trkpt lat="45.1924" lon="5.95691">
        <ele>1390.4</ele>
        <time>2026-07-14T13:19:38Z</time>
      </trkpt>
      <trkpt lat="45.1924" lon="5.9569">
        <ele>1390.3</ele>
        <time>2026-07-14T13:19:39Z</time>
      </trkpt>
      <trkpt lat="45.1924" lon="5.95689">
        <ele>1390.2</ele>
        <time>2026-07-14T13:19:40Z</time>
      </trkpt>
      <trkpt lat="45.19241" lon="5.95687">
        <ele>1390</ele>
        <time>2026-07-14T13:19:41Z</time>
      </trkpt>
      <trkpt lat="45.19241" lon="5.95686">
        <ele>1389.9</ele>
        <time>2026-07-14T13:19:42Z</time>
      </trkpt>
      <trkpt lat="45.19241" lon="5.95684">
        <ele>1389.8</ele>
        <time>2026-07-14T13:19:43Z</time>
      </trkpt>
      <trkpt lat="45.19241" lon="5.95682">
        <ele>1389.6</ele>
        <time>2026-07-14T13:19:44Z</time>
      </trkpt>
      <trkpt lat="45.19241" lon="5.95681">
        <ele>1389.5</ele>
        <time>2026-07-14T13:19:45Z</time>
      </trkpt>
      <trkpt lat="45.19242" lon="5.9568">
        <ele>1389.4</ele>
        <time>2026-07-14T13:19:46Z</time>
      </trkpt>
      <trkpt lat="45.19242" lon="5.95679">
        <ele>1389.3</ele>
        <time>2026-07-14T13:19:47Z</time>
      </trkpt>
      <trkpt lat="45.19243" lon="5.95678">
        <ele>1389.2</ele>
        <time>2026-07-14T13:19:48Z</time>
      </trkpt>
      <trkpt lat="45.19243" lon="5.95678">
        <ele>1389.2</ele>
        <time>2026-07-14T13:19:49Z</time>
      </trkpt>
      <trkpt lat="45.19244" lon="5.95677">
        <ele>1389.1</ele>
        <time>2026-07-14T13:19:50Z</time>
      </trkpt>
      <trkpt lat="45.19245" lon="5.95676">
        <ele>1389</ele>
        <time>2026-07-14T13:19:51Z</time>
      </trkpt>
      <trkpt lat="45.19245" lon="5.95675">
        <ele>1388.9</ele>
        <time>2026-07-14T13:19:52Z</time>
      </trkpt>
      <trkpt lat="45.19246" lon="5.95673">
        <ele>1388.8</ele>
        <time>2026-07-14T13:19:53Z</time>
      </trkpt>
      <trkpt lat="45.19247" lon="5.95671">
        <ele>1388.6</ele>
        <time>2026-07-14T13:19:54Z</time>
      </trkpt>
      <trkpt lat="45.19248" lon="5.95671">
        <ele>1388.5</ele>
        <time>2026-07-14T13:19:56Z</time>
      </trkpt>
      <trkpt lat="45.19249" lon="5.95671">
        <ele>1388.4</ele>
        <time>2026-07-14T13:19:58Z</time>
      </trkpt>
      <trkpt lat="45.1925" lon="5.95672">
        <ele>1388.3</ele>
        <time>2026-07-14T13:19:59Z</time>
      </trkpt>
      <trkpt lat="45.19251" lon="5.95673">
        <ele>1388.2</ele>
        <time>2026-07-14T13:20:00Z</time>
      </trkpt>
      <trkpt lat="45.19251" lon="5.95673">
        <ele>1388.1</ele>
        <time>2026-07-14T13:20:01Z</time>
      </trkpt>
      <trkpt lat="45.19252" lon="5.95674">
        <ele>1388.1</ele>
        <time>2026-07-14T13:20:02Z</time>
      </trkpt>
      <trkpt lat="45.19254" lon="5.95674">
        <ele>1387.9</ele>
        <time>2026-07-14T13:20:03Z</time>
      </trkpt>
      <trkpt lat="45.19255" lon="5.95674">
        <ele>1387.8</ele>
        <time>2026-07-14T13:20:05Z</time>
      </trkpt>
      <trkpt lat="45.19256" lon="5.95674">
        <ele>1387.8</ele>
        <time>2026-07-14T13:20:07Z</time>
      </trkpt>
      <trkpt lat="45.19257" lon="5.95674">
        <ele>1387.7</ele>
        <time>2026-07-14T13:20:08Z</time>
      </trkpt>
      <trkpt lat="45.19257" lon="5.95674">
        <ele>1387.7</ele>
        <time>2026-07-14T13:20:09Z</time>
      </trkpt>
      <trkpt lat="45.19258" lon="5.95674">
        <ele>1387.6</ele>
        <time>2026-07-14T13:20:10Z</time>
      </trkpt>
      <trkpt lat="45.19258" lon="5.95675">
        <ele>1387.6</ele>
        <time>2026-07-14T13:20:11Z</time>
      </trkpt>
      <trkpt lat="45.19259" lon="5.95675">
        <ele>1387.5</ele>
        <time>2026-07-14T13:20:12Z</time>
      </trkpt>
      <trkpt lat="45.1926" lon="5.95675">
        <ele>1387.5</ele>
        <time>2026-07-14T13:20:13Z</time>
      </trkpt>
      <trkpt lat="45.19261" lon="5.95676">
        <ele>1387.4</ele>
        <time>2026-07-14T13:20:14Z</time>
      </trkpt>
      <trkpt lat="45.19261" lon="5.95676">
        <ele>1387.4</ele>
        <time>2026-07-14T13:20:16Z</time>
      </trkpt>
      <trkpt lat="45.19262" lon="5.95676">
        <ele>1387.3</ele>
        <time>2026-07-14T13:20:17Z</time>
      </trkpt>
      <trkpt lat="45.19262" lon="5.95677">
        <ele>1387.3</ele>
        <time>2026-07-14T13:20:18Z</time>
      </trkpt>
      <trkpt lat="45.19263" lon="5.95677">
        <ele>1387.3</ele>
        <time>2026-07-14T13:20:19Z</time>
      </trkpt>
      <trkpt lat="45.19264" lon="5.95677">
        <ele>1387.2</ele>
        <time>2026-07-14T13:20:20Z</time>
      </trkpt>
      <trkpt lat="45.19265" lon="5.95677">
        <ele>1387.2</ele>
        <time>2026-07-14T13:20:21Z</time>
      </trkpt>
      <trkpt lat="45.19265" lon="5.95678">
        <ele>1387.1</ele>
        <time>2026-07-14T13:20:22Z</time>
      </trkpt>
      <trkpt lat="45.19266" lon="5.95678">
        <ele>1387.1</ele>
        <time>2026-07-14T13:20:23Z</time>
      </trkpt>
      <trkpt lat="45.19267" lon="5.9568">
        <ele>1387</ele>
        <time>2026-07-14T13:20:24Z</time>
      </trkpt>
      <trkpt lat="45.19267" lon="5.95681">
        <ele>1387</ele>
        <time>2026-07-14T13:20:26Z</time>
      </trkpt>
      <trkpt lat="45.19267" lon="5.95682">
        <ele>1386.9</ele>
        <time>2026-07-14T13:20:27Z</time>
      </trkpt>
      <trkpt lat="45.19268" lon="5.95682">
        <ele>1386.9</ele>
        <time>2026-07-14T13:20:29Z</time>
      </trkpt>
      <trkpt lat="45.19268" lon="5.95682">
        <ele>1386.9</ele>
        <time>2026-07-14T13:20:30Z</time>
      </trkpt>
      <trkpt lat="45.19269" lon="5.95683">
        <ele>1386.9</ele>
        <time>2026-07-14T13:20:31Z</time>
      </trkpt>
      <trkpt lat="45.19269" lon="5.95683">
        <ele>1386.8</ele>
        <time>2026-07-14T13:20:32Z</time>
      </trkpt>
      <trkpt lat="45.1927" lon="5.95683">
        <ele>1386.8</ele>
        <time>2026-07-14T13:20:33Z</time>
      </trkpt>
      <trkpt lat="45.19271" lon="5.95682">
        <ele>1386.7</ele>
        <time>2026-07-14T13:20:34Z</time>
      </trkpt>
      <trkpt lat="45.19272" lon="5.95682">
        <ele>1386.7</ele>
        <time>2026-07-14T13:20:35Z</time>
      </trkpt>
      <trkpt lat="45.19273" lon="5.95681">
        <ele>1386.7</ele>
        <time>2026-07-14T13:20:36Z</time>
      </trkpt>
      <trkpt lat="45.19273" lon="5.95681">
        <ele>1386.6</ele>
        <time>2026-07-14T13:20:37Z</time>
      </trkpt>
      <trkpt lat="45.19273" lon="5.95681">
        <ele>1386.6</ele>
        <time>2026-07-14T13:20:38Z</time>
      </trkpt>
      <trkpt lat="45.19274" lon="5.95679">
        <ele>1386.6</ele>
        <time>2026-07-14T13:20:39Z</time>
      </trkpt>
      <trkpt lat="45.19275" lon="5.95678">
        <ele>1386.5</ele>
        <time>2026-07-14T13:20:41Z</time>
      </trkpt>
      <trkpt lat="45.19275" lon="5.95678">
        <ele>1386.5</ele>
        <time>2026-07-14T13:20:42Z</time>
      </trkpt>
      <trkpt lat="45.19276" lon="5.95677">
        <ele>1386.5</ele>
        <time>2026-07-14T13:20:43Z</time>
      </trkpt>
      <trkpt lat="45.19276" lon="5.95677">
        <ele>1386.5</ele>
        <time>2026-07-14T13:20:44Z</time>
      </trkpt>
      <trkpt lat="45.19276" lon="5.95677">
        <ele>1386.5</ele>
        <time>2026-07-14T13:20:45Z</time>
      </trkpt>
      <trkpt lat="45.19276" lon="5.95677">
        <ele>1386.4</ele>
        <time>2026-07-14T13:20:46Z</time>
      </trkpt>
      <trkpt lat="45.19276" lon="5.95675">
        <ele>1386.4</ele>
        <time>2026-07-14T13:20:47Z</time>
      </trkpt>
      <trkpt lat="45.19276" lon="5.95674">
        <ele>1386.4</ele>
        <time>2026-07-14T13:20:48Z</time>
      </trkpt>
      <trkpt lat="45.19275" lon="5.95672">
        <ele>1386.3</ele>
        <time>2026-07-14T13:20:49Z</time>
      </trkpt>
      <trkpt lat="45.19275" lon="5.95671">
        <ele>1386.3</ele>
        <time>2026-07-14T13:20:50Z</time>
      </trkpt>
      <trkpt lat="45.19275" lon="5.9567">
        <ele>1386.2</ele>
        <time>2026-07-14T13:20:51Z</time>
      </trkpt>
      <trkpt lat="45.19276" lon="5.95668">
        <ele>1386.2</ele>
        <time>2026-07-14T13:20:52Z</time>
      </trkpt>
      <trkpt lat="45.19277" lon="5.95668">
        <ele>1386.2</ele>
        <time>2026-07-14T13:20:54Z</time>
      </trkpt>
      <trkpt lat="45.19277" lon="5.95668">
        <ele>1386.2</ele>
        <time>2026-07-14T13:20:55Z</time>
      </trkpt>
      <trkpt lat="45.19278" lon="5.95668">
        <ele>1386.1</ele>
        <time>2026-07-14T13:20:56Z</time>
      </trkpt>
      <trkpt lat="45.19279" lon="5.95667">
        <ele>1386.1</ele>
        <time>2026-07-14T13:20:57Z</time>
      </trkpt>
      <trkpt lat="45.1928" lon="5.95667">
        <ele>1386.1</ele>
        <time>2026-07-14T13:20:59Z</time>
      </trkpt>
      <trkpt lat="45.19281" lon="5.95666">
        <ele>1386</ele>
        <time>2026-07-14T13:21:00Z</time>
      </trkpt>
      <trkpt lat="45.19281" lon="5.95666">
        <ele>1386</ele>
        <time>2026-07-14T13:21:01Z</time>
      </trkpt>
      <trkpt lat="45.19282" lon="5.95665">
        <ele>1386</ele>
        <time>2026-07-14T13:21:02Z</time>
      </trkpt>
      <trkpt lat="45.19283" lon="5.95664">
        <ele>1385.9</ele>
        <time>2026-07-14T13:21:04Z</time>
      </trkpt>
      <trkpt lat="45.19284" lon="5.95664">
        <ele>1385.9</ele>
        <time>2026-07-14T13:21:05Z</time>
      </trkpt>
      <trkpt lat="45.19285" lon="5.95664">
        <ele>1385.9</ele>
        <time>2026-07-14T13:21:06Z</time>
      </trkpt>
      <trkpt lat="45.19285" lon="5.95664">
        <ele>1385.9</ele>
        <time>2026-07-14T13:21:07Z</time>
      </trkpt>
      <trkpt lat="45.19285" lon="5.95665">
        <ele>1385.8</ele>
        <time>2026-07-14T13:21:08Z</time>
      </trkpt>
      <trkpt lat="45.19286" lon="5.95668">
        <ele>1385.8</ele>
        <time>2026-07-14T13:21:09Z</time>
      </trkpt>
      <trkpt lat="45.19285" lon="5.95669">
        <ele>1385.7</ele>
        <time>2026-07-14T13:21:11Z</time>
      </trkpt>
      <trkpt lat="45.19286" lon="5.95671">
        <ele>1385.7</ele>
        <time>2026-07-14T13:21:12Z</time>
      </trkpt>
      <trkpt lat="45.19285" lon="5.95672">
        <ele>1385.7</ele>
        <time>2026-07-14T13:21:13Z</time>
      </trkpt>
      <trkpt lat="45.19285" lon="5.95673">
        <ele>1385.7</ele>
        <time>2026-07-14T13:21:14Z</time>
      </trkpt>
      <trkpt lat="45.19285" lon="5.95674">
        <ele>1385.6</ele>
        <time>2026-07-14T13:21:15Z</time>
      </trkpt>
      <trkpt lat="45.19285" lon="5.95675">
        <ele>1385.6</ele>
        <time>2026-07-14T13:21:17Z</time>
      </trkpt>
      <trkpt lat="45.19284" lon="5.95676">
        <ele>1385.6</ele>
        <time>2026-07-14T13:21:18Z</time>
      </trkpt>
      <trkpt lat="45.19284" lon="5.95678">
        <ele>1385.5</ele>
        <time>2026-07-14T13:21:19Z</time>
      </trkpt>
      <trkpt lat="45.19286" lon="5.9568">
        <ele>1385.5</ele>
        <time>2026-07-14T13:21:20Z</time>
      </trkpt>
      <trkpt lat="45.19286" lon="5.95681">
        <ele>1385.5</ele>
        <time>2026-07-14T13:21:22Z</time>
      </trkpt>
      <trkpt lat="45.19287" lon="5.95682">
        <ele>1385.4</ele>
        <time>2026-07-14T13:21:23Z</time>
      </trkpt>
      <trkpt lat="45.19288" lon="5.95683">
        <ele>1385.4</ele>
        <time>2026-07-14T13:21:24Z</time>
      </trkpt>
      <trkpt lat="45.19288" lon="5.95685">
        <ele>1385.3</ele>
        <time>2026-07-14T13:21:25Z</time>
      </trkpt>
      <trkpt lat="45.1929" lon="5.95686">
        <ele>1385.3</ele>
        <time>2026-07-14T13:21:26Z</time>
      </trkpt>
      <trkpt lat="45.19291" lon="5.95685">
        <ele>1385.3</ele>
        <time>2026-07-14T13:21:28Z</time>
      </trkpt>
      <trkpt lat="45.19292" lon="5.95686">
        <ele>1385.2</ele>
        <time>2026-07-14T13:21:29Z</time>
      </trkpt>
      <trkpt lat="45.19294" lon="5.95687">
        <ele>1385.2</ele>
        <time>2026-07-14T13:21:30Z</time>
      </trkpt>
      <trkpt lat="45.19294" lon="5.95687">
        <ele>1385.2</ele>
        <time>2026-07-14T13:21:32Z</time>
      </trkpt>
      <trkpt lat="45.19295" lon="5.95687">
        <ele>1385.1</ele>
        <time>2026-07-14T13:21:33Z</time>
      </trkpt>
      <trkpt lat="45.19295" lon="5.95687">
        <ele>1385.1</ele>
        <time>2026-07-14T13:21:34Z</time>
      </trkpt>
      <trkpt lat="45.19295" lon="5.95688">
        <ele>1385.1</ele>
        <time>2026-07-14T13:21:35Z</time>
      </trkpt>
      <trkpt lat="45.19297" lon="5.95688">
        <ele>1385.1</ele>
        <time>2026-07-14T13:21:36Z</time>
      </trkpt>
      <trkpt lat="45.19298" lon="5.95688">
        <ele>1385</ele>
        <time>2026-07-14T13:21:38Z</time>
      </trkpt>
      <trkpt lat="45.19299" lon="5.95686">
        <ele>1385</ele>
        <time>2026-07-14T13:21:39Z</time>
      </trkpt>
      <trkpt lat="45.193" lon="5.95684">
        <ele>1384.9</ele>
        <time>2026-07-14T13:21:40Z</time>
      </trkpt>
      <trkpt lat="45.193" lon="5.95682">
        <ele>1384.8</ele>
        <time>2026-07-14T13:21:42Z</time>
      </trkpt>
      <trkpt lat="45.19299" lon="5.9568">
        <ele>1384.8</ele>
        <time>2026-07-14T13:21:43Z</time>
      </trkpt>
      <trkpt lat="45.19299" lon="5.95679">
        <ele>1384.8</ele>
        <time>2026-07-14T13:21:44Z</time>
      </trkpt>
      <trkpt lat="45.193" lon="5.95678">
        <ele>1384.7</ele>
        <time>2026-07-14T13:21:45Z</time>
      </trkpt>
      <trkpt lat="45.193" lon="5.95678">
        <ele>1384.7</ele>
        <time>2026-07-14T13:21:46Z</time>
      </trkpt>
      <trkpt lat="45.193" lon="5.95678">
        <ele>1384.7</ele>
        <time>2026-07-14T13:21:47Z</time>
      </trkpt>
      <trkpt lat="45.19302" lon="5.95678">
        <ele>1384.6</ele>
        <time>2026-07-14T13:21:48Z</time>
      </trkpt>
      <trkpt lat="45.19303" lon="5.95678">
        <ele>1384.6</ele>
        <time>2026-07-14T13:21:50Z</time>
      </trkpt>
      <trkpt lat="45.19304" lon="5.95678">
        <ele>1384.6</ele>
        <time>2026-07-14T13:21:51Z</time>
      </trkpt>
      <trkpt lat="45.19304" lon="5.95678">
        <ele>1384.5</ele>
        <time>2026-07-14T13:21:52Z</time>
      </trkpt>
      <trkpt lat="45.19305" lon="5.95678">
        <ele>1384.5</ele>
        <time>2026-07-14T13:21:53Z</time>
      </trkpt>
      <trkpt lat="45.19306" lon="5.95679">
        <ele>1384.4</ele>
        <time>2026-07-14T13:21:54Z</time>
      </trkpt>
      <trkpt lat="45.19306" lon="5.9568">
        <ele>1384.4</ele>
        <time>2026-07-14T13:21:55Z</time>
      </trkpt>
      <trkpt lat="45.19307" lon="5.9568">
        <ele>1384.4</ele>
        <time>2026-07-14T13:21:56Z</time>
      </trkpt>
      <trkpt lat="45.19307" lon="5.9568">
        <ele>1384.3</ele>
        <time>2026-07-14T13:21:57Z</time>
      </trkpt>
      <trkpt lat="45.19308" lon="5.9568">
        <ele>1384.3</ele>
        <time>2026-07-14T13:21:58Z</time>
      </trkpt>
      <trkpt lat="45.19309" lon="5.9568">
        <ele>1384.3</ele>
        <time>2026-07-14T13:21:59Z</time>
      </trkpt>
      <trkpt lat="45.19309" lon="5.9568">
        <ele>1384.2</ele>
        <time>2026-07-14T13:22:00Z</time>
      </trkpt>
      <trkpt lat="45.19309" lon="5.9568">
        <ele>1384.2</ele>
        <time>2026-07-14T13:22:01Z</time>
      </trkpt>
      <trkpt lat="45.1931" lon="5.95681">
        <ele>1384.2</ele>
        <time>2026-07-14T13:22:02Z</time>
      </trkpt>
      <trkpt lat="45.19312" lon="5.9568">
        <ele>1384.1</ele>
        <time>2026-07-14T13:22:03Z</time>
      </trkpt>
      <trkpt lat="45.19312" lon="5.9568">
        <ele>1384.1</ele>
        <time>2026-07-14T13:22:05Z</time>
      </trkpt>
      <trkpt lat="45.19312" lon="5.9568">
        <ele>1384</ele>
        <time>2026-07-14T13:22:06Z</time>
      </trkpt>
      <trkpt lat="45.19313" lon="5.9568">
        <ele>1384</ele>
        <time>2026-07-14T13:22:07Z</time>
      </trkpt>
      <trkpt lat="45.19314" lon="5.95679">
        <ele>1383.9</ele>
        <time>2026-07-14T13:22:08Z</time>
      </trkpt>
      <trkpt lat="45.19314" lon="5.95679">
        <ele>1383.9</ele>
        <time>2026-07-14T13:22:10Z</time>
      </trkpt>
      <trkpt lat="45.19315" lon="5.95679">
        <ele>1383.8</ele>
        <time>2026-07-14T13:22:11Z</time>
      </trkpt>
      <trkpt lat="45.19316" lon="5.9568">
        <ele>1383.8</ele>
        <time>2026-07-14T13:22:12Z</time>
      </trkpt>
      <trkpt lat="45.19316" lon="5.95681">
        <ele>1383.7</ele>
        <time>2026-07-14T13:22:13Z</time>
      </trkpt>
      <trkpt lat="45.19315" lon="5.95683">
        <ele>1383.6</ele>
        <time>2026-07-14T13:22:14Z</time>
      </trkpt>
      <trkpt lat="45.19315" lon="5.95685">
        <ele>1383.5</ele>
        <time>2026-07-14T13:22:15Z</time>
      </trkpt>
      <trkpt lat="45.19315" lon="5.95685">
        <ele>1383.5</ele>
        <time>2026-07-14T13:22:16Z</time>
      </trkpt>
      <trkpt lat="45.19315" lon="5.95686">
        <ele>1383.5</ele>
        <time>2026-07-14T13:22:17Z</time>
      </trkpt>
      <trkpt lat="45.19315" lon="5.95685">
        <ele>1383.5</ele>
        <time>2026-07-14T13:22:18Z</time>
      </trkpt>
      <trkpt lat="45.19315" lon="5.95686">
        <ele>1383.4</ele>
        <time>2026-07-14T13:22:19Z</time>
      </trkpt>
      <trkpt lat="45.19315" lon="5.95687">
        <ele>1383.4</ele>
        <time>2026-07-14T13:22:21Z</time>
      </trkpt>
      <trkpt lat="45.19317" lon="5.95688">
        <ele>1383.3</ele>
        <time>2026-07-14T13:22:22Z</time>
      </trkpt>
      <trkpt lat="45.19317" lon="5.9569">
        <ele>1383.1</ele>
        <time>2026-07-14T13:22:23Z</time>
      </trkpt>
      <trkpt lat="45.19319" lon="5.95693">
        <ele>1382.9</ele>
        <time>2026-07-14T13:22:24Z</time>
      </trkpt>
      <trkpt lat="45.19319" lon="5.95695">
        <ele>1382.8</ele>
        <time>2026-07-14T13:22:26Z</time>
      </trkpt>
      <trkpt lat="45.1932" lon="5.95696">
        <ele>1382.7</ele>
        <time>2026-07-14T13:22:27Z</time>
      </trkpt>
      <trkpt lat="45.1932" lon="5.95698">
        <ele>1382.6</ele>
        <time>2026-07-14T13:22:28Z</time>
      </trkpt>
      <trkpt lat="45.19321" lon="5.95699">
        <ele>1382.5</ele>
        <time>2026-07-14T13:22:29Z</time>
      </trkpt>
      <trkpt lat="45.19321" lon="5.957">
        <ele>1382.4</ele>
        <time>2026-07-14T13:22:30Z</time>
      </trkpt>
      <trkpt lat="45.19322" lon="5.95702">
        <ele>1382.2</ele>
        <time>2026-07-14T13:22:31Z</time>
      </trkpt>
      <trkpt lat="45.19322" lon="5.95704">
        <ele>1382</ele>
        <time>2026-07-14T13:22:32Z</time>
      </trkpt>
      <trkpt lat="45.19323" lon="5.95705">
        <ele>1381.9</ele>
        <time>2026-07-14T13:22:34Z</time>
      </trkpt>
      <trkpt lat="45.19325" lon="5.95706">
        <ele>1381.7</ele>
        <time>2026-07-14T13:22:35Z</time>
      </trkpt>
      <trkpt lat="45.19326" lon="5.95707">
        <ele>1381.6</ele>
        <time>2026-07-14T13:22:37Z</time>
      </trkpt>
      <trkpt lat="45.19327" lon="5.95708">
        <ele>1381.4</ele>
        <time>2026-07-14T13:22:38Z</time>
      </trkpt>
      <trkpt lat="45.19328" lon="5.95709">
        <ele>1381.3</ele>
        <time>2026-07-14T13:22:39Z</time>
      </trkpt>
      <trkpt lat="45.19329" lon="5.95711">
        <ele>1381.2</ele>
        <time>2026-07-14T13:22:40Z</time>
      </trkpt>
      <trkpt lat="45.19329" lon="5.95711">
        <ele>1381.1</ele>
        <time>2026-07-14T13:22:41Z</time>
      </trkpt>
      <trkpt lat="45.1933" lon="5.95713">
        <ele>1380.9</ele>
        <time>2026-07-14T13:22:42Z</time>
      </trkpt>
      <trkpt lat="45.19331" lon="5.95713">
        <ele>1380.8</ele>
        <time>2026-07-14T13:22:43Z</time>
      </trkpt>
      <trkpt lat="45.19332" lon="5.95713">
        <ele>1380.7</ele>
        <time>2026-07-14T13:22:44Z</time>
      </trkpt>
      <trkpt lat="45.19333" lon="5.95712">
        <ele>1380.6</ele>
        <time>2026-07-14T13:22:45Z</time>
      </trkpt>
      <trkpt lat="45.19334" lon="5.95713">
        <ele>1380.4</ele>
        <time>2026-07-14T13:22:46Z</time>
      </trkpt>
      <trkpt lat="45.19335" lon="5.95713">
        <ele>1380.3</ele>
        <time>2026-07-14T13:22:47Z</time>
      </trkpt>
      <trkpt lat="45.19336" lon="5.95714">
        <ele>1380.1</ele>
        <time>2026-07-14T13:22:48Z</time>
      </trkpt>
      <trkpt lat="45.19336" lon="5.95715">
        <ele>1380.1</ele>
        <time>2026-07-14T13:22:50Z</time>
      </trkpt>
      <trkpt lat="45.19337" lon="5.95714">
        <ele>1380</ele>
        <time>2026-07-14T13:22:51Z</time>
      </trkpt>
      <trkpt lat="45.19338" lon="5.95714">
        <ele>1379.9</ele>
        <time>2026-07-14T13:22:52Z</time>
      </trkpt>
      <trkpt lat="45.19338" lon="5.95714">
        <ele>1379.8</ele>
        <time>2026-07-14T13:22:53Z</time>
      </trkpt>
      <trkpt lat="45.19339" lon="5.95714">
        <ele>1379.7</ele>
        <time>2026-07-14T13:22:54Z</time>
      </trkpt>
      <trkpt lat="45.1934" lon="5.95714">
        <ele>1379.6</ele>
        <time>2026-07-14T13:22:55Z</time>
      </trkpt>
      <trkpt lat="45.19341" lon="5.95714">
        <ele>1379.4</ele>
        <time>2026-07-14T13:22:56Z</time>
      </trkpt>
      <trkpt lat="45.19343" lon="5.95714">
        <ele>1379.1</ele>
        <time>2026-07-14T13:22:57Z</time>
      </trkpt>
      <trkpt lat="45.19344" lon="5.95714">
        <ele>1378.9</ele>
        <time>2026-07-14T13:22:59Z</time>
      </trkpt>
      <trkpt lat="45.19345" lon="5.95714">
        <ele>1378.8</ele>
        <time>2026-07-14T13:23:00Z</time>
      </trkpt>
      <trkpt lat="45.19347" lon="5.95714">
        <ele>1378.4</ele>
        <time>2026-07-14T13:23:01Z</time>
      </trkpt>
      <trkpt lat="45.19348" lon="5.95714">
        <ele>1378.3</ele>
        <time>2026-07-14T13:23:03Z</time>
      </trkpt>
      <trkpt lat="45.19349" lon="5.95713">
        <ele>1378.1</ele>
        <time>2026-07-14T13:23:04Z</time>
      </trkpt>
      <trkpt lat="45.1935" lon="5.95713">
        <ele>1377.9</ele>
        <time>2026-07-14T13:23:05Z</time>
      </trkpt>
      <trkpt lat="45.19351" lon="5.95712">
        <ele>1377.7</ele>
        <time>2026-07-14T13:23:06Z</time>
      </trkpt>
      <trkpt lat="45.19352" lon="5.95712">
        <ele>1377.6</ele>
        <time>2026-07-14T13:23:07Z</time>
      </trkpt>
      <trkpt lat="45.19354" lon="5.95711">
        <ele>1377.2</ele>
        <time>2026-07-14T13:23:08Z</time>
      </trkpt>
      <trkpt lat="45.19354" lon="5.95711">
        <ele>1377.1</ele>
        <time>2026-07-14T13:23:10Z</time>
      </trkpt>
      <trkpt lat="45.19355" lon="5.9571">
        <ele>1376.9</ele>
        <time>2026-07-14T13:23:11Z</time>
      </trkpt>
      <trkpt lat="45.19356" lon="5.95709">
        <ele>1376.8</ele>
        <time>2026-07-14T13:23:12Z</time>
      </trkpt>
      <trkpt lat="45.19356" lon="5.95708">
        <ele>1376.6</ele>
        <time>2026-07-14T13:23:13Z</time>
      </trkpt>
      <trkpt lat="45.19356" lon="5.95707">
        <ele>1376.5</ele>
        <time>2026-07-14T13:23:14Z</time>
      </trkpt>
      <trkpt lat="45.19356" lon="5.95706">
        <ele>1376.3</ele>
        <time>2026-07-14T13:23:15Z</time>
      </trkpt>
      <trkpt lat="45.19357" lon="5.95706">
        <ele>1376.2</ele>
        <time>2026-07-14T13:23:16Z</time>
      </trkpt>
      <trkpt lat="45.19357" lon="5.95705">
        <ele>1376.1</ele>
        <time>2026-07-14T13:23:17Z</time>
      </trkpt>
      <trkpt lat="45.19358" lon="5.95705">
        <ele>1376</ele>
        <time>2026-07-14T13:23:18Z</time>
      </trkpt>
      <trkpt lat="45.19358" lon="5.95705">
        <ele>1375.9</ele>
        <time>2026-07-14T13:23:19Z</time>
      </trkpt>
      <trkpt lat="45.19359" lon="5.95705">
        <ele>1375.8</ele>
        <time>2026-07-14T13:23:20Z</time>
      </trkpt>
      <trkpt lat="45.1936" lon="5.95704">
        <ele>1375.6</ele>
        <time>2026-07-14T13:23:21Z</time>
      </trkpt>
      <trkpt lat="45.1936" lon="5.95704">
        <ele>1375.6</ele>
        <time>2026-07-14T13:23:22Z</time>
      </trkpt>
      <trkpt lat="45.19361" lon="5.95703">
        <ele>1375.3</ele>
        <time>2026-07-14T13:23:23Z</time>
      </trkpt>
      <trkpt lat="45.19362" lon="5.95703">
        <ele>1375.2</ele>
        <time>2026-07-14T13:23:25Z</time>
      </trkpt>
      <trkpt lat="45.19362" lon="5.95703">
        <ele>1375.1</ele>
        <time>2026-07-14T13:23:26Z</time>
      </trkpt>
      <trkpt lat="45.19363" lon="5.95702">
        <ele>1374.9</ele>
        <time>2026-07-14T13:23:27Z</time>
      </trkpt>
      <trkpt lat="45.19364" lon="5.957">
        <ele>1374.6</ele>
        <time>2026-07-14T13:23:28Z</time>
      </trkpt>
      <trkpt lat="45.19365" lon="5.95699">
        <ele>1374.4</ele>
        <time>2026-07-14T13:23:30Z</time>
      </trkpt>
      <trkpt lat="45.19365" lon="5.95698">
        <ele>1374.4</ele>
        <time>2026-07-14T13:23:31Z</time>
      </trkpt>
      <trkpt lat="45.19366" lon="5.95698">
        <ele>1374.2</ele>
        <time>2026-07-14T13:23:32Z</time>
      </trkpt>
      <trkpt lat="45.19366" lon="5.95698">
        <ele>1374.1</ele>
        <time>2026-07-14T13:23:33Z</time>
      </trkpt>
      <trkpt lat="45.19367" lon="5.95697">
        <ele>1373.9</ele>
        <time>2026-07-14T13:23:34Z</time>
      </trkpt>
      <trkpt lat="45.19368" lon="5.95696">
        <ele>1373.6</ele>
        <time>2026-07-14T13:23:35Z</time>
      </trkpt>
      <trkpt lat="45.1937" lon="5.95695">
        <ele>1373.3</ele>
        <time>2026-07-14T13:23:37Z</time>
      </trkpt>
      <trkpt lat="45.1937" lon="5.95695">
        <ele>1373.2</ele>
        <time>2026-07-14T13:23:39Z</time>
      </trkpt>
      <trkpt lat="45.19371" lon="5.95694">
        <ele>1373</ele>
        <time>2026-07-14T13:23:40Z</time>
      </trkpt>
      <trkpt lat="45.19372" lon="5.95693">
        <ele>1372.8</ele>
        <time>2026-07-14T13:23:41Z</time>
      </trkpt>
      <trkpt lat="45.19373" lon="5.95693">
        <ele>1372.7</ele>
        <time>2026-07-14T13:23:42Z</time>
      </trkpt>
      <trkpt lat="45.19373" lon="5.95691">
        <ele>1372.5</ele>
        <time>2026-07-14T13:23:43Z</time>
      </trkpt>
      <trkpt lat="45.19374" lon="5.95691">
        <ele>1372.4</ele>
        <time>2026-07-14T13:23:45Z</time>
      </trkpt>
      <trkpt lat="45.19374" lon="5.95691">
        <ele>1372.3</ele>
        <time>2026-07-14T13:23:46Z</time>
      </trkpt>
      <trkpt lat="45.19376" lon="5.9569">
        <ele>1372</ele>
        <time>2026-07-14T13:23:47Z</time>
      </trkpt>
      <trkpt lat="45.19377" lon="5.95691">
        <ele>1371.9</ele>
        <time>2026-07-14T13:23:49Z</time>
      </trkpt>
      <trkpt lat="45.19377" lon="5.95691">
        <ele>1371.8</ele>
        <time>2026-07-14T13:23:50Z</time>
      </trkpt>
      <trkpt lat="45.19378" lon="5.95692">
        <ele>1371.6</ele>
        <time>2026-07-14T13:23:51Z</time>
      </trkpt>
      <trkpt lat="45.19379" lon="5.95693">
        <ele>1371.4</ele>
        <time>2026-07-14T13:23:52Z</time>
      </trkpt>
      <trkpt lat="45.19379" lon="5.95694">
        <ele>1371.2</ele>
        <time>2026-07-14T13:23:53Z</time>
      </trkpt>
      <trkpt lat="45.1938" lon="5.95695">
        <ele>1371.1</ele>
        <time>2026-07-14T13:23:54Z</time>
      </trkpt>
      <trkpt lat="45.1938" lon="5.95696">
        <ele>1371</ele>
        <time>2026-07-14T13:23:55Z</time>
      </trkpt>
      <trkpt lat="45.1938" lon="5.95697">
        <ele>1370.8</ele>
        <time>2026-07-14T13:23:56Z</time>
      </trkpt>
      <trkpt lat="45.19381" lon="5.95698">
        <ele>1370.7</ele>
        <time>2026-07-14T13:23:57Z</time>
      </trkpt>
      <trkpt lat="45.19382" lon="5.95698">
        <ele>1370.5</ele>
        <time>2026-07-14T13:23:58Z</time>
      </trkpt>
      <trkpt lat="45.19383" lon="5.95697">
        <ele>1370.3</ele>
        <time>2026-07-14T13:24:00Z</time>
      </trkpt>
      <trkpt lat="45.19384" lon="5.95696">
        <ele>1370.1</ele>
        <time>2026-07-14T13:24:01Z</time>
      </trkpt>
      <trkpt lat="45.19384" lon="5.95695">
        <ele>1369.9</ele>
        <time>2026-07-14T13:24:02Z</time>
      </trkpt>
      <trkpt lat="45.19385" lon="5.95694">
        <ele>1369.8</ele>
        <time>2026-07-14T13:24:03Z</time>
      </trkpt>
      <trkpt lat="45.19386" lon="5.95694">
        <ele>1369.6</ele>
        <time>2026-07-14T13:24:04Z</time>
      </trkpt>
      <trkpt lat="45.19387" lon="5.95694">
        <ele>1369.6</ele>
        <time>2026-07-14T13:24:05Z</time>
      </trkpt>
      <trkpt lat="45.19387" lon="5.95694">
        <ele>1369.4</ele>
        <time>2026-07-14T13:24:06Z</time>
      </trkpt>
      <trkpt lat="45.19388" lon="5.95694">
        <ele>1369.3</ele>
        <time>2026-07-14T13:24:07Z</time>
      </trkpt>
      <trkpt lat="45.19389" lon="5.95694">
        <ele>1369.2</ele>
        <time>2026-07-14T13:24:08Z</time>
      </trkpt>
      <trkpt lat="45.19389" lon="5.95694">
        <ele>1369.1</ele>
        <time>2026-07-14T13:24:09Z</time>
      </trkpt>
      <trkpt lat="45.1939" lon="5.95693">
        <ele>1369</ele>
        <time>2026-07-14T13:24:10Z</time>
      </trkpt>
      <trkpt lat="45.1939" lon="5.95693">
        <ele>1368.9</ele>
        <time>2026-07-14T13:24:11Z</time>
      </trkpt>
      <trkpt lat="45.1939" lon="5.95692">
        <ele>1368.8</ele>
        <time>2026-07-14T13:24:12Z</time>
      </trkpt>
      <trkpt lat="45.19391" lon="5.95691">
        <ele>1368.7</ele>
        <time>2026-07-14T13:24:13Z</time>
      </trkpt>
      <trkpt lat="45.19391" lon="5.9569">
        <ele>1368.6</ele>
        <time>2026-07-14T13:24:14Z</time>
      </trkpt>
      <trkpt lat="45.19391" lon="5.95689">
        <ele>1368.4</ele>
        <time>2026-07-14T13:24:15Z</time>
      </trkpt>
      <trkpt lat="45.19392" lon="5.95688">
        <ele>1368.3</ele>
        <time>2026-07-14T13:24:16Z</time>
      </trkpt>
      <trkpt lat="45.19392" lon="5.95687">
        <ele>1368.2</ele>
        <time>2026-07-14T13:24:17Z</time>
      </trkpt>
      <trkpt lat="45.19392" lon="5.95686">
        <ele>1368.1</ele>
        <time>2026-07-14T13:24:18Z</time>
      </trkpt>
      <trkpt lat="45.19393" lon="5.95685">
        <ele>1367.8</ele>
        <time>2026-07-14T13:24:19Z</time>
      </trkpt>
      <trkpt lat="45.19394" lon="5.95684">
        <ele>1367.7</ele>
        <time>2026-07-14T13:24:21Z</time>
      </trkpt>
      <trkpt lat="45.19395" lon="5.95684">
        <ele>1367.5</ele>
        <time>2026-07-14T13:24:22Z</time>
      </trkpt>
      <trkpt lat="45.19396" lon="5.95683">
        <ele>1367.4</ele>
        <time>2026-07-14T13:24:23Z</time>
      </trkpt>
      <trkpt lat="45.19396" lon="5.95683">
        <ele>1367.3</ele>
        <time>2026-07-14T13:24:24Z</time>
      </trkpt>
      <trkpt lat="45.19397" lon="5.95683">
        <ele>1367.2</ele>
        <time>2026-07-14T13:24:25Z</time>
      </trkpt>
      <trkpt lat="45.19398" lon="5.95683">
        <ele>1367.1</ele>
        <time>2026-07-14T13:24:26Z</time>
      </trkpt>
      <trkpt lat="45.19398" lon="5.95683">
        <ele>1367</ele>
        <time>2026-07-14T13:24:27Z</time>
      </trkpt>
      <trkpt lat="45.19399" lon="5.95682">
        <ele>1366.9</ele>
        <time>2026-07-14T13:24:28Z</time>
      </trkpt>
      <trkpt lat="45.19399" lon="5.95681">
        <ele>1366.7</ele>
        <time>2026-07-14T13:24:29Z</time>
      </trkpt>
      <trkpt lat="45.194" lon="5.9568">
        <ele>1366.6</ele>
        <time>2026-07-14T13:24:30Z</time>
      </trkpt>
      <trkpt lat="45.194" lon="5.95679">
        <ele>1366.5</ele>
        <time>2026-07-14T13:24:31Z</time>
      </trkpt>
      <trkpt lat="45.19402" lon="5.95677">
        <ele>1366.2</ele>
        <time>2026-07-14T13:24:32Z</time>
      </trkpt>
      <trkpt lat="45.19403" lon="5.95677">
        <ele>1366</ele>
        <time>2026-07-14T13:24:34Z</time>
      </trkpt>
      <trkpt lat="45.19403" lon="5.95677">
        <ele>1366</ele>
        <time>2026-07-14T13:24:35Z</time>
      </trkpt>
      <trkpt lat="45.19404" lon="5.95677">
        <ele>1365.9</ele>
        <time>2026-07-14T13:24:36Z</time>
      </trkpt>
      <trkpt lat="45.19404" lon="5.95678">
        <ele>1365.8</ele>
        <time>2026-07-14T13:24:37Z</time>
      </trkpt>
      <trkpt lat="45.19406" lon="5.9568">
        <ele>1365.5</ele>
        <time>2026-07-14T13:24:38Z</time>
      </trkpt>
      <trkpt lat="45.19406" lon="5.9568">
        <ele>1365.5</ele>
        <time>2026-07-14T13:24:40Z</time>
      </trkpt>
      <trkpt lat="45.19407" lon="5.9568">
        <ele>1365.4</ele>
        <time>2026-07-14T13:24:41Z</time>
      </trkpt>
      <trkpt lat="45.19408" lon="5.9568">
        <ele>1365.2</ele>
        <time>2026-07-14T13:24:42Z</time>
      </trkpt>
      <trkpt lat="45.19408" lon="5.9568">
        <ele>1365.2</ele>
        <time>2026-07-14T13:24:43Z</time>
      </trkpt>
      <trkpt lat="45.1941" lon="5.95679">
        <ele>1364.9</ele>
        <time>2026-07-14T13:24:44Z</time>
      </trkpt>
      <trkpt lat="45.19411" lon="5.95679">
        <ele>1364.9</ele>
        <time>2026-07-14T13:24:46Z</time>
      </trkpt>
      <trkpt lat="45.19411" lon="5.95679">
        <ele>1364.8</ele>
        <time>2026-07-14T13:24:47Z</time>
      </trkpt>
      <trkpt lat="45.19412" lon="5.95678">
        <ele>1364.7</ele>
        <time>2026-07-14T13:24:48Z</time>
      </trkpt>
      <trkpt lat="45.19413" lon="5.95678">
        <ele>1364.6</ele>
        <time>2026-07-14T13:24:49Z</time>
      </trkpt>
      <trkpt lat="45.19414" lon="5.95678">
        <ele>1364.5</ele>
        <time>2026-07-14T13:24:50Z</time>
      </trkpt>
      <trkpt lat="45.19415" lon="5.95677">
        <ele>1364.3</ele>
        <time>2026-07-14T13:24:51Z</time>
      </trkpt>
      <trkpt lat="45.19415" lon="5.95676">
        <ele>1364.3</ele>
        <time>2026-07-14T13:24:53Z</time>
      </trkpt>
      <trkpt lat="45.19415" lon="5.95676">
        <ele>1364.2</ele>
        <time>2026-07-14T13:24:54Z</time>
      </trkpt>
      <trkpt lat="45.19415" lon="5.95675">
        <ele>1364.2</ele>
        <time>2026-07-14T13:24:55Z</time>
      </trkpt>
      <trkpt lat="45.19416" lon="5.95675">
        <ele>1364.1</ele>
        <time>2026-07-14T13:24:56Z</time>
      </trkpt>
      <trkpt lat="45.19416" lon="5.95676">
        <ele>1364</ele>
        <time>2026-07-14T13:24:57Z</time>
      </trkpt>
      <trkpt lat="45.19417" lon="5.95677">
        <ele>1363.9</ele>
        <time>2026-07-14T13:24:58Z</time>
      </trkpt>
      <trkpt lat="45.19417" lon="5.95678">
        <ele>1363.8</ele>
        <time>2026-07-14T13:24:59Z</time>
      </trkpt>
      <trkpt lat="45.19418" lon="5.9568">
        <ele>1363.7</ele>
        <time>2026-07-14T13:25:00Z</time>
      </trkpt>
      <trkpt lat="45.19418" lon="5.95681">
        <ele>1363.6</ele>
        <time>2026-07-14T13:25:01Z</time>
      </trkpt>
      <trkpt lat="45.19418" lon="5.95681">
        <ele>1363.5</ele>
        <time>2026-07-14T13:25:02Z</time>
      </trkpt>
      <trkpt lat="45.19419" lon="5.95682">
        <ele>1363.5</ele>
        <time>2026-07-14T13:25:03Z</time>
      </trkpt>
      <trkpt lat="45.1942" lon="5.95683">
        <ele>1363.4</ele>
        <time>2026-07-14T13:25:04Z</time>
      </trkpt>
      <trkpt lat="45.19421" lon="5.95683">
        <ele>1363.2</ele>
        <time>2026-07-14T13:25:05Z</time>
      </trkpt>
      <trkpt lat="45.19422" lon="5.95683">
        <ele>1363.2</ele>
        <time>2026-07-14T13:25:06Z</time>
      </trkpt>
      <trkpt lat="45.19422" lon="5.95682">
        <ele>1363.1</ele>
        <time>2026-07-14T13:25:08Z</time>
      </trkpt>
      <trkpt lat="45.19423" lon="5.95682">
        <ele>1363</ele>
        <time>2026-07-14T13:25:09Z</time>
      </trkpt>
      <trkpt lat="45.19424" lon="5.9568">
        <ele>1362.9</ele>
        <time>2026-07-14T13:25:10Z</time>
      </trkpt>
      <trkpt lat="45.19425" lon="5.95679">
        <ele>1362.8</ele>
        <time>2026-07-14T13:25:12Z</time>
      </trkpt>
      <trkpt lat="45.19426" lon="5.95678">
        <ele>1362.7</ele>
        <time>2026-07-14T13:25:13Z</time>
      </trkpt>
      <trkpt lat="45.19426" lon="5.95676">
        <ele>1362.6</ele>
        <time>2026-07-14T13:25:14Z</time>
      </trkpt>
      <trkpt lat="45.19426" lon="5.95675">
        <ele>1362.5</ele>
        <time>2026-07-14T13:25:15Z</time>
      </trkpt>
      <trkpt lat="45.19426" lon="5.95674">
        <ele>1362.4</ele>
        <time>2026-07-14T13:25:16Z</time>
      </trkpt>
      <trkpt lat="45.19427" lon="5.95672">
        <ele>1362.3</ele>
        <time>2026-07-14T13:25:17Z</time>
      </trkpt>
      <trkpt lat="45.19427" lon="5.95671">
        <ele>1362.3</ele>
        <time>2026-07-14T13:25:18Z</time>
      </trkpt>
      <trkpt lat="45.19427" lon="5.95669">
        <ele>1362.1</ele>
        <time>2026-07-14T13:25:19Z</time>
      </trkpt>
      <trkpt lat="45.19428" lon="5.95669">
        <ele>1362.1</ele>
        <time>2026-07-14T13:25:21Z</time>
      </trkpt>
      <trkpt lat="45.19428" lon="5.95669">
        <ele>1362</ele>
        <time>2026-07-14T13:25:22Z</time>
      </trkpt>
      <trkpt lat="45.1943" lon="5.95669">
        <ele>1361.9</ele>
        <time>2026-07-14T13:25:23Z</time>
      </trkpt>
      <trkpt lat="45.19431" lon="5.95668">
        <ele>1361.8</ele>
        <time>2026-07-14T13:25:25Z</time>
      </trkpt>
      <trkpt lat="45.19433" lon="5.95668">
        <ele>1361.6</ele>
        <time>2026-07-14T13:25:26Z</time>
      </trkpt>
      <trkpt lat="45.19434" lon="5.95669">
        <ele>1361.5</ele>
        <time>2026-07-14T13:25:27Z</time>
      </trkpt>
      <trkpt lat="45.19435" lon="5.9567">
        <ele>1361.4</ele>
        <time>2026-07-14T13:25:29Z</time>
      </trkpt>
      <trkpt lat="45.19436" lon="5.95672">
        <ele>1361.2</ele>
        <time>2026-07-14T13:25:30Z</time>
      </trkpt>
      <trkpt lat="45.19438" lon="5.95675">
        <ele>1361</ele>
        <time>2026-07-14T13:25:31Z</time>
      </trkpt>
      <trkpt lat="45.19439" lon="5.95675">
        <ele>1360.9</ele>
        <time>2026-07-14T13:25:33Z</time>
      </trkpt>
      <trkpt lat="45.1944" lon="5.95676">
        <ele>1360.8</ele>
        <time>2026-07-14T13:25:34Z</time>
      </trkpt>
      <trkpt lat="45.1944" lon="5.95676">
        <ele>1360.7</ele>
        <time>2026-07-14T13:25:35Z</time>
      </trkpt>
      <trkpt lat="45.19441" lon="5.95676">
        <ele>1360.6</ele>
        <time>2026-07-14T13:25:36Z</time>
      </trkpt>
      <trkpt lat="45.19442" lon="5.95676">
        <ele>1360.6</ele>
        <time>2026-07-14T13:25:37Z</time>
      </trkpt>
      <trkpt lat="45.19443" lon="5.95676">
        <ele>1360.5</ele>
        <time>2026-07-14T13:25:38Z</time>
      </trkpt>
      <trkpt lat="45.19443" lon="5.95676">
        <ele>1360.4</ele>
        <time>2026-07-14T13:25:39Z</time>
      </trkpt>
      <trkpt lat="45.19444" lon="5.95676">
        <ele>1360.3</ele>
        <time>2026-07-14T13:25:40Z</time>
      </trkpt>
      <trkpt lat="45.19445" lon="5.95676">
        <ele>1360.2</ele>
        <time>2026-07-14T13:25:41Z</time>
      </trkpt>
      <trkpt lat="45.19447" lon="5.95674">
        <ele>1360</ele>
        <time>2026-07-14T13:25:42Z</time>
      </trkpt>
      <trkpt lat="45.19447" lon="5.95673">
        <ele>1360</ele>
        <time>2026-07-14T13:25:44Z</time>
      </trkpt>
      <trkpt lat="45.19448" lon="5.95673">
        <ele>1359.9</ele>
        <time>2026-07-14T13:25:45Z</time>
      </trkpt>
      <trkpt lat="45.19449" lon="5.95673">
        <ele>1359.8</ele>
        <time>2026-07-14T13:25:46Z</time>
      </trkpt>
      <trkpt lat="45.19451" lon="5.95673">
        <ele>1359.7</ele>
        <time>2026-07-14T13:25:47Z</time>
      </trkpt>
      <trkpt lat="45.19451" lon="5.95673">
        <ele>1359.6</ele>
        <time>2026-07-14T13:25:49Z</time>
      </trkpt>
      <trkpt lat="45.19452" lon="5.95673">
        <ele>1359.5</ele>
        <time>2026-07-14T13:25:50Z</time>
      </trkpt>
      <trkpt lat="45.19453" lon="5.95674">
        <ele>1359.4</ele>
        <time>2026-07-14T13:25:51Z</time>
      </trkpt>
      <trkpt lat="45.19453" lon="5.95675">
        <ele>1359.4</ele>
        <time>2026-07-14T13:25:52Z</time>
      </trkpt>
      <trkpt lat="45.19454" lon="5.95677">
        <ele>1359.3</ele>
        <time>2026-07-14T13:25:53Z</time>
      </trkpt>
      <trkpt lat="45.19455" lon="5.95677">
        <ele>1359.2</ele>
        <time>2026-07-14T13:25:54Z</time>
      </trkpt>
      <trkpt lat="45.19456" lon="5.95678">
        <ele>1359.1</ele>
        <time>2026-07-14T13:25:55Z</time>
      </trkpt>
      <trkpt lat="45.19456" lon="5.95679">
        <ele>1359</ele>
        <time>2026-07-14T13:25:56Z</time>
      </trkpt>
      <trkpt lat="45.19457" lon="5.9568">
        <ele>1359</ele>
        <time>2026-07-14T13:25:57Z</time>
      </trkpt>
      <trkpt lat="45.19457" lon="5.95681">
        <ele>1358.9</ele>
        <time>2026-07-14T13:25:58Z</time>
      </trkpt>
      <trkpt lat="45.19458" lon="5.95681">
        <ele>1358.9</ele>
        <time>2026-07-14T13:25:59Z</time>
      </trkpt>
      <trkpt lat="45.19459" lon="5.9568">
        <ele>1358.8</ele>
        <time>2026-07-14T13:26:00Z</time>
      </trkpt>
      <trkpt lat="45.19459" lon="5.9568">
        <ele>1358.7</ele>
        <time>2026-07-14T13:26:01Z</time>
      </trkpt>
      <trkpt lat="45.19459" lon="5.95678">
        <ele>1358.7</ele>
        <time>2026-07-14T13:26:02Z</time>
      </trkpt>
      <trkpt lat="45.19458" lon="5.95678">
        <ele>1358.6</ele>
        <time>2026-07-14T13:26:03Z</time>
      </trkpt>
      <trkpt lat="45.19458" lon="5.95678">
        <ele>1358.5</ele>
        <time>2026-07-14T13:26:04Z</time>
      </trkpt>
      <trkpt lat="45.19457" lon="5.95677">
        <ele>1358.5</ele>
        <time>2026-07-14T13:26:05Z</time>
      </trkpt>
      <trkpt lat="45.19457" lon="5.95677">
        <ele>1358.5</ele>
        <time>2026-07-14T13:26:06Z</time>
      </trkpt>
      <trkpt lat="45.19457" lon="5.95677">
        <ele>1358.5</ele>
        <time>2026-07-14T13:26:07Z</time>
      </trkpt>
      <trkpt lat="45.19457" lon="5.95677">
        <ele>1358.5</ele>
        <time>2026-07-14T13:26:08Z</time>
      </trkpt>
      <trkpt lat="45.19457" lon="5.95677">
        <ele>1358.5</ele>
        <time>2026-07-14T13:26:09Z</time>
      </trkpt>
      <trkpt lat="45.19457" lon="5.95677">
        <ele>1358.4</ele>
        <time>2026-07-14T13:26:10Z</time>
      </trkpt>
      <trkpt lat="45.19457" lon="5.95676">
        <ele>1358.4</ele>
        <time>2026-07-14T13:26:11Z</time>
      </trkpt>
      <trkpt lat="45.19457" lon="5.95676">
        <ele>1358.4</ele>
        <time>2026-07-14T13:26:12Z</time>
      </trkpt>
      <trkpt lat="45.19457" lon="5.95675">
        <ele>1358.3</ele>
        <time>2026-07-14T13:26:13Z</time>
      </trkpt>
      <trkpt lat="45.19456" lon="5.95675">
        <ele>1358.3</ele>
        <time>2026-07-14T13:26:14Z</time>
      </trkpt>
      <trkpt lat="45.19456" lon="5.95674">
        <ele>1358.3</ele>
        <time>2026-07-14T13:26:15Z</time>
      </trkpt>
      <trkpt lat="45.19456" lon="5.95674">
        <ele>1358.3</ele>
        <time>2026-07-14T13:26:17Z</time>
      </trkpt>
      <trkpt lat="45.19456" lon="5.95674">
        <ele>1358.3</ele>
        <time>2026-07-14T13:26:18Z</time>
      </trkpt>
      <trkpt lat="45.19456" lon="5.95674">
        <ele>1358.3</ele>
        <time>2026-07-14T13:26:19Z</time>
      </trkpt>
      <trkpt lat="45.19457" lon="5.95673">
        <ele>1358.2</ele>
        <time>2026-07-14T13:26:20Z</time>
      </trkpt>
      <trkpt lat="45.19457" lon="5.95673">
        <ele>1358.2</ele>
        <time>2026-07-14T13:26:21Z</time>
      </trkpt>
      <trkpt lat="45.19458" lon="5.9567">
        <ele>1358.1</ele>
        <time>2026-07-14T13:26:22Z</time>
      </trkpt>
      <trkpt lat="45.19459" lon="5.95667">
        <ele>1357.9</ele>
        <time>2026-07-14T13:26:23Z</time>
      </trkpt>
      <trkpt lat="45.19461" lon="5.95664">
        <ele>1357.7</ele>
        <time>2026-07-14T13:26:24Z</time>
      </trkpt>
      <trkpt lat="45.19463" lon="5.95661">
        <ele>1357.6</ele>
        <time>2026-07-14T13:26:25Z</time>
      </trkpt>
      <trkpt lat="45.19465" lon="5.9566">
        <ele>1357.4</ele>
        <time>2026-07-14T13:26:27Z</time>
      </trkpt>
      <trkpt lat="45.19466" lon="5.9566">
        <ele>1357.3</ele>
        <time>2026-07-14T13:26:29Z</time>
      </trkpt>
      <trkpt lat="45.19468" lon="5.9566">
        <ele>1357.2</ele>
        <time>2026-07-14T13:26:30Z</time>
      </trkpt>
      <trkpt lat="45.19469" lon="5.9566">
        <ele>1356.9</ele>
        <time>2026-07-14T13:26:31Z</time>
      </trkpt>
      <trkpt lat="45.1947" lon="5.95661">
        <ele>1356.7</ele>
        <time>2026-07-14T13:26:32Z</time>
      </trkpt>
      <trkpt lat="45.19471" lon="5.95661">
        <ele>1356.5</ele>
        <time>2026-07-14T13:26:33Z</time>
      </trkpt>
      <trkpt lat="45.19473" lon="5.95662">
        <ele>1356.3</ele>
        <time>2026-07-14T13:26:34Z</time>
      </trkpt>
      <trkpt lat="45.19475" lon="5.95661">
        <ele>1355.9</ele>
        <time>2026-07-14T13:26:35Z</time>
      </trkpt>
      <trkpt lat="45.19476" lon="5.95661">
        <ele>1355.7</ele>
        <time>2026-07-14T13:26:37Z</time>
      </trkpt>
      <trkpt lat="45.19477" lon="5.95661">
        <ele>1355.5</ele>
        <time>2026-07-14T13:26:38Z</time>
      </trkpt>
      <trkpt lat="45.19478" lon="5.95662">
        <ele>1355.4</ele>
        <time>2026-07-14T13:26:39Z</time>
      </trkpt>
      <trkpt lat="45.19479" lon="5.95662">
        <ele>1355.1</ele>
        <time>2026-07-14T13:26:40Z</time>
      </trkpt>
      <trkpt lat="45.1948" lon="5.95662">
        <ele>1355</ele>
        <time>2026-07-14T13:26:41Z</time>
      </trkpt>
      <trkpt lat="45.19482" lon="5.95663">
        <ele>1354.7</ele>
        <time>2026-07-14T13:26:42Z</time>
      </trkpt>
      <trkpt lat="45.19483" lon="5.95662">
        <ele>1354.6</ele>
        <time>2026-07-14T13:26:44Z</time>
      </trkpt>
      <trkpt lat="45.19484" lon="5.95662">
        <ele>1354.4</ele>
        <time>2026-07-14T13:26:45Z</time>
      </trkpt>
      <trkpt lat="45.19484" lon="5.95661">
        <ele>1354.2</ele>
        <time>2026-07-14T13:26:46Z</time>
      </trkpt>
      <trkpt lat="45.19485" lon="5.9566">
        <ele>1354.1</ele>
        <time>2026-07-14T13:26:47Z</time>
      </trkpt>
      <trkpt lat="45.19486" lon="5.95659">
        <ele>1353.9</ele>
        <time>2026-07-14T13:26:48Z</time>
      </trkpt>
      <trkpt lat="45.19486" lon="5.95659">
        <ele>1353.9</ele>
        <time>2026-07-14T13:26:49Z</time>
      </trkpt>
      <trkpt lat="45.19487" lon="5.95659">
        <ele>1353.8</ele>
        <time>2026-07-14T13:26:50Z</time>
      </trkpt>
      <trkpt lat="45.19487" lon="5.95659">
        <ele>1353.7</ele>
        <time>2026-07-14T13:26:51Z</time>
      </trkpt>
      <trkpt lat="45.19488" lon="5.95659">
        <ele>1353.6</ele>
        <time>2026-07-14T13:26:52Z</time>
      </trkpt>
      <trkpt lat="45.19489" lon="5.95659">
        <ele>1353.3</ele>
        <time>2026-07-14T13:26:53Z</time>
      </trkpt>
      <trkpt lat="45.1949" lon="5.95659">
        <ele>1353.3</ele>
        <time>2026-07-14T13:26:55Z</time>
      </trkpt>
      <trkpt lat="45.1949" lon="5.95659">
        <ele>1353.2</ele>
        <time>2026-07-14T13:26:56Z</time>
      </trkpt>
      <trkpt lat="45.19491" lon="5.95659">
        <ele>1353</ele>
        <time>2026-07-14T13:26:57Z</time>
      </trkpt>
      <trkpt lat="45.1949" lon="5.95659">
        <ele>1352.8</ele>
        <time>2026-07-14T13:26:59Z</time>
      </trkpt>
      <trkpt lat="45.19489" lon="5.95659">
        <ele>1352.6</ele>
        <time>2026-07-14T13:27:00Z</time>
      </trkpt>
      <trkpt lat="45.19488" lon="5.95659">
        <ele>1352.5</ele>
        <time>2026-07-14T13:27:01Z</time>
      </trkpt>
      <trkpt lat="45.19487" lon="5.95659">
        <ele>1352.4</ele>
        <time>2026-07-14T13:27:02Z</time>
      </trkpt>
      <trkpt lat="45.19487" lon="5.9566">
        <ele>1352.4</ele>
        <time>2026-07-14T13:27:03Z</time>
      </trkpt>
      <trkpt lat="45.19487" lon="5.9566">
        <ele>1352.3</ele>
        <time>2026-07-14T13:27:04Z</time>
      </trkpt>
      <trkpt lat="45.19487" lon="5.9566">
        <ele>1352.3</ele>
        <time>2026-07-14T13:27:05Z</time>
      </trkpt>
      <trkpt lat="45.19486" lon="5.9566">
        <ele>1352.3</ele>
        <time>2026-07-14T13:27:06Z</time>
      </trkpt>
      <trkpt lat="45.19486" lon="5.9566">
        <ele>1352.3</ele>
        <time>2026-07-14T13:27:07Z</time>
      </trkpt>
      <trkpt lat="45.19486" lon="5.9566">
        <ele>1352.2</ele>
        <time>2026-07-14T13:27:08Z</time>
      </trkpt>
      <trkpt lat="45.19486" lon="5.9566">
        <ele>1352.2</ele>
        <time>2026-07-14T13:27:09Z</time>
      </trkpt>
      <trkpt lat="45.19486" lon="5.9566">
        <ele>1352.2</ele>
        <time>2026-07-14T13:27:10Z</time>
      </trkpt>
      <trkpt lat="45.19486" lon="5.9566">
        <ele>1352.2</ele>
        <time>2026-07-14T13:27:11Z</time>
      </trkpt>
      <trkpt lat="45.19486" lon="5.9566">
        <ele>1352.2</ele>
        <time>2026-07-14T13:27:12Z</time>
      </trkpt>
      <trkpt lat="45.19486" lon="5.9566">
        <ele>1352.2</ele>
        <time>2026-07-14T13:27:13Z</time>
      </trkpt>
      <trkpt lat="45.19486" lon="5.95659">
        <ele>1352.2</ele>
        <time>2026-07-14T13:27:14Z</time>
      </trkpt>
      <trkpt lat="45.19486" lon="5.95659">
        <ele>1352.2</ele>
        <time>2026-07-14T13:27:15Z</time>
      </trkpt>
      <trkpt lat="45.19486" lon="5.95659">
        <ele>1352.2</ele>
        <time>2026-07-14T13:27:16Z</time>
      </trkpt>
      <trkpt lat="45.19486" lon="5.95659">
        <ele>1352.1</ele>
        <time>2026-07-14T13:27:17Z</time>
      </trkpt>
      <trkpt lat="45.19486" lon="5.95659">
        <ele>1352.1</ele>
        <time>2026-07-14T13:27:18Z</time>
      </trkpt>
      <trkpt lat="45.19486" lon="5.9566">
        <ele>1352.1</ele>
        <time>2026-07-14T13:27:19Z</time>
      </trkpt>
      <trkpt lat="45.19486" lon="5.9566">
        <ele>1352.1</ele>
        <time>2026-07-14T13:27:20Z</time>
      </trkpt>
      <trkpt lat="45.19486" lon="5.9566">
        <ele>1352.1</ele>
        <time>2026-07-14T13:27:21Z</time>
      </trkpt>
      <trkpt lat="45.19486" lon="5.9566">
        <ele>1352.1</ele>
        <time>2026-07-14T13:27:22Z</time>
      </trkpt>
      <trkpt lat="45.19486" lon="5.95659">
        <ele>1352.1</ele>
        <time>2026-07-14T13:27:23Z</time>
      </trkpt>
      <trkpt lat="45.19486" lon="5.95659">
        <ele>1352.1</ele>
        <time>2026-07-14T13:27:24Z</time>
      </trkpt>
      <trkpt lat="45.19486" lon="5.95659">
        <ele>1352.1</ele>
        <time>2026-07-14T13:27:25Z</time>
      </trkpt>
      <trkpt lat="45.19486" lon="5.95659">
        <ele>1352.1</ele>
        <time>2026-07-14T13:27:26Z</time>
      </trkpt>
      <trkpt lat="45.19486" lon="5.95659">
        <ele>1352.1</ele>
        <time>2026-07-14T13:27:27Z</time>
      </trkpt>
      <trkpt lat="45.19486" lon="5.95659">
        <ele>1352.1</ele>
        <time>2026-07-14T13:27:28Z</time>
      </trkpt>
      <trkpt lat="45.19486" lon="5.95659">
        <ele>1352.1</ele>
        <time>2026-07-14T13:27:29Z</time>
      </trkpt>
      <trkpt lat="45.19486" lon="5.95659">
        <ele>1352.1</ele>
        <time>2026-07-14T13:27:30Z</time>
      </trkpt>
      <trkpt lat="45.19486" lon="5.95659">
        <ele>1352.1</ele>
        <time>2026-07-14T13:27:31Z</time>
      </trkpt>
      <trkpt lat="45.19486" lon="5.95659">
        <ele>1352.1</ele>
        <time>2026-07-14T13:27:32Z</time>
      </trkpt>
      <trkpt lat="45.19486" lon="5.95659">
        <ele>1352.1</ele>
        <time>2026-07-14T13:27:33Z</time>
      </trkpt>
      <trkpt lat="45.19486" lon="5.95659">
        <ele>1352</ele>
        <time>2026-07-14T13:27:34Z</time>
      </trkpt>
      <trkpt lat="45.19486" lon="5.95659">
        <ele>1352</ele>
        <time>2026-07-14T13:27:35Z</time>
      </trkpt>
      <trkpt lat="45.19486" lon="5.95659">
        <ele>1352</ele>
        <time>2026-07-14T13:27:36Z</time>
      </trkpt>
      <trkpt lat="45.19486" lon="5.95659">
        <ele>1352</ele>
        <time>2026-07-14T13:27:37Z</time>
      </trkpt>
      <trkpt lat="45.19486" lon="5.95659">
        <ele>1352</ele>
        <time>2026-07-14T13:27:38Z</time>
      </trkpt>
      <trkpt lat="45.19486" lon="5.95659">
        <ele>1352</ele>
        <time>2026-07-14T13:27:39Z</time>
      </trkpt>
      <trkpt lat="45.19486" lon="5.95659">
        <ele>1352</ele>
        <time>2026-07-14T13:27:40Z</time>
      </trkpt>
      <trkpt lat="45.19486" lon="5.95658">
        <ele>1352</ele>
        <time>2026-07-14T13:27:41Z</time>
      </trkpt>
      <trkpt lat="45.19486" lon="5.95658">
        <ele>1352</ele>
        <time>2026-07-14T13:27:42Z</time>
      </trkpt>
      <trkpt lat="45.19486" lon="5.95658">
        <ele>1351.9</ele>
        <time>2026-07-14T13:27:43Z</time>
      </trkpt>
      <trkpt lat="45.19486" lon="5.95658">
        <ele>1351.9</ele>
        <time>2026-07-14T13:27:44Z</time>
      </trkpt>
      <trkpt lat="45.19486" lon="5.95658">
        <ele>1351.9</ele>
        <time>2026-07-14T13:27:45Z</time>
      </trkpt>
      <trkpt lat="45.19486" lon="5.95658">
        <ele>1351.9</ele>
        <time>2026-07-14T13:27:46Z</time>
      </trkpt>
      <trkpt lat="45.19486" lon="5.95658">
        <ele>1351.9</ele>
        <time>2026-07-14T13:27:47Z</time>
      </trkpt>
      <trkpt lat="45.19486" lon="5.95658">
        <ele>1351.9</ele>
        <time>2026-07-14T13:27:48Z</time>
      </trkpt>
      <trkpt lat="45.19486" lon="5.95658">
        <ele>1351.8</ele>
        <time>2026-07-14T13:27:50Z</time>
      </trkpt>
      <trkpt lat="45.19485" lon="5.95658">
        <ele>1351.8</ele>
        <time>2026-07-14T13:27:51Z</time>
      </trkpt>
      <trkpt lat="45.19485" lon="5.95658">
        <ele>1351.7</ele>
        <time>2026-07-14T13:27:52Z</time>
      </trkpt>
      <trkpt lat="45.19483" lon="5.95658">
        <ele>1351.6</ele>
        <time>2026-07-14T13:27:53Z</time>
      </trkpt>
      <trkpt lat="45.19482" lon="5.95659">
        <ele>1351.4</ele>
        <time>2026-07-14T13:27:54Z</time>
      </trkpt>
      <trkpt lat="45.19481" lon="5.9566">
        <ele>1351.3</ele>
        <time>2026-07-14T13:27:55Z</time>
      </trkpt>
      <trkpt lat="45.1948" lon="5.95662">
        <ele>1351.1</ele>
        <time>2026-07-14T13:27:56Z</time>
      </trkpt>
      <trkpt lat="45.19478" lon="5.95663">
        <ele>1351</ele>
        <time>2026-07-14T13:27:57Z</time>
      </trkpt>
      <trkpt lat="45.19478" lon="5.95663">
        <ele>1350.9</ele>
        <time>2026-07-14T13:27:58Z</time>
      </trkpt>
      <trkpt lat="45.19477" lon="5.95663">
        <ele>1350.8</ele>
        <time>2026-07-14T13:27:59Z</time>
      </trkpt>
      <trkpt lat="45.19476" lon="5.95663">
        <ele>1350.7</ele>
        <time>2026-07-14T13:28:01Z</time>
      </trkpt>
      <trkpt lat="45.19476" lon="5.95664">
        <ele>1350.7</ele>
        <time>2026-07-14T13:28:02Z</time>
      </trkpt>
      <trkpt lat="45.19475" lon="5.95664">
        <ele>1350.6</ele>
        <time>2026-07-14T13:28:03Z</time>
      </trkpt>
      <trkpt lat="45.19474" lon="5.95665">
        <ele>1350.5</ele>
        <time>2026-07-14T13:28:04Z</time>
      </trkpt>
      <trkpt lat="45.19473" lon="5.95666">
        <ele>1350.4</ele>
        <time>2026-07-14T13:28:06Z</time>
      </trkpt>
      <trkpt lat="45.19473" lon="5.95666">
        <ele>1350.4</ele>
        <time>2026-07-14T13:28:07Z</time>
      </trkpt>
      <trkpt lat="45.19473" lon="5.95667">
        <ele>1350.3</ele>
        <time>2026-07-14T13:28:08Z</time>
      </trkpt>
      <trkpt lat="45.19473" lon="5.95667">
        <ele>1350.3</ele>
        <time>2026-07-14T13:28:09Z</time>
      </trkpt>
      <trkpt lat="45.19473" lon="5.95666">
        <ele>1350.3</ele>
        <time>2026-07-14T13:28:10Z</time>
      </trkpt>
      <trkpt lat="45.19473" lon="5.95667">
        <ele>1350.2</ele>
        <time>2026-07-14T13:28:11Z</time>
      </trkpt>
      <trkpt lat="45.19473" lon="5.95667">
        <ele>1350.2</ele>
        <time>2026-07-14T13:28:12Z</time>
      </trkpt>
      <trkpt lat="45.19473" lon="5.95667">
        <ele>1350.2</ele>
        <time>2026-07-14T13:28:13Z</time>
      </trkpt>
      <trkpt lat="45.19473" lon="5.95668">
        <ele>1350.1</ele>
        <time>2026-07-14T13:28:14Z</time>
      </trkpt>
      <trkpt lat="45.19473" lon="5.95669">
        <ele>1350.1</ele>
        <time>2026-07-14T13:28:15Z</time>
      </trkpt>
      <trkpt lat="45.19472" lon="5.95669">
        <ele>1350</ele>
        <time>2026-07-14T13:28:16Z</time>
      </trkpt>
      <trkpt lat="45.19472" lon="5.9567">
        <ele>1349.9</ele>
        <time>2026-07-14T13:28:17Z</time>
      </trkpt>
      <trkpt lat="45.19472" lon="5.9567">
        <ele>1349.9</ele>
        <time>2026-07-14T13:28:18Z</time>
      </trkpt>
      <trkpt lat="45.19471" lon="5.95671">
        <ele>1349.9</ele>
        <time>2026-07-14T13:28:19Z</time>
      </trkpt>
      <trkpt lat="45.19471" lon="5.95671">
        <ele>1349.8</ele>
        <time>2026-07-14T13:28:20Z</time>
      </trkpt>
      <trkpt lat="45.19471" lon="5.95671">
        <ele>1349.8</ele>
        <time>2026-07-14T13:28:21Z</time>
      </trkpt>
      <trkpt lat="45.19471" lon="5.95671">
        <ele>1349.8</ele>
        <time>2026-07-14T13:28:22Z</time>
      </trkpt>
      <trkpt lat="45.19471" lon="5.95671">
        <ele>1349.8</ele>
        <time>2026-07-14T13:28:23Z</time>
      </trkpt>
      <trkpt lat="45.19471" lon="5.95671">
        <ele>1349.8</ele>
        <time>2026-07-14T13:28:24Z</time>
      </trkpt>
      <trkpt lat="45.19471" lon="5.95671">
        <ele>1349.8</ele>
        <time>2026-07-14T13:28:25Z</time>
      </trkpt>
      <trkpt lat="45.19471" lon="5.95671">
        <ele>1349.7</ele>
        <time>2026-07-14T13:28:26Z</time>
      </trkpt>
      <trkpt lat="45.1947" lon="5.95671">
        <ele>1349.7</ele>
        <time>2026-07-14T13:28:27Z</time>
      </trkpt>
      <trkpt lat="45.19471" lon="5.95671">
        <ele>1349.7</ele>
        <time>2026-07-14T13:28:28Z</time>
      </trkpt>
      <trkpt lat="45.19471" lon="5.95671">
        <ele>1349.7</ele>
        <time>2026-07-14T13:28:30Z</time>
      </trkpt>
      <trkpt lat="45.19472" lon="5.9567">
        <ele>1349.6</ele>
        <time>2026-07-14T13:28:31Z</time>
      </trkpt>
      <trkpt lat="45.19473" lon="5.95669">
        <ele>1349.4</ele>
        <time>2026-07-14T13:28:32Z</time>
      </trkpt>
      <trkpt lat="45.19474" lon="5.95669">
        <ele>1349.3</ele>
        <time>2026-07-14T13:28:34Z</time>
      </trkpt>
      <trkpt lat="45.19474" lon="5.9567">
        <ele>1349.2</ele>
        <time>2026-07-14T13:28:35Z</time>
      </trkpt>
      <trkpt lat="45.19475" lon="5.95672">
        <ele>1349</ele>
        <time>2026-07-14T13:28:36Z</time>
      </trkpt>
      <trkpt lat="45.19475" lon="5.95672">
        <ele>1348.9</ele>
        <time>2026-07-14T13:28:38Z</time>
      </trkpt>
      <trkpt lat="45.19476" lon="5.95673">
        <ele>1348.7</ele>
        <time>2026-07-14T13:28:39Z</time>
      </trkpt>
      <trkpt lat="45.19478" lon="5.95675">
        <ele>1348.4</ele>
        <time>2026-07-14T13:28:40Z</time>
      </trkpt>
      <trkpt lat="45.19479" lon="5.95675">
        <ele>1348.2</ele>
        <time>2026-07-14T13:28:42Z</time>
      </trkpt>
      <trkpt lat="45.1948" lon="5.95675">
        <ele>1348</ele>
        <time>2026-07-14T13:28:43Z</time>
      </trkpt>
      <trkpt lat="45.19481" lon="5.95675">
        <ele>1347.8</ele>
        <time>2026-07-14T13:28:44Z</time>
      </trkpt>
      <trkpt lat="45.19482" lon="5.95674">
        <ele>1347.7</ele>
        <time>2026-07-14T13:28:45Z</time>
      </trkpt>
      <trkpt lat="45.19483" lon="5.95674">
        <ele>1347.6</ele>
        <time>2026-07-14T13:28:46Z</time>
      </trkpt>
      <trkpt lat="45.19483" lon="5.95675">
        <ele>1347.5</ele>
        <time>2026-07-14T13:28:47Z</time>
      </trkpt>
      <trkpt lat="45.19484" lon="5.95675">
        <ele>1347.4</ele>
        <time>2026-07-14T13:28:48Z</time>
      </trkpt>
      <trkpt lat="45.19484" lon="5.95675">
        <ele>1347.3</ele>
        <time>2026-07-14T13:28:49Z</time>
      </trkpt>
      <trkpt lat="45.19484" lon="5.95674">
        <ele>1347.3</ele>
        <time>2026-07-14T13:28:50Z</time>
      </trkpt>
      <trkpt lat="45.19484" lon="5.95674">
        <ele>1347.2</ele>
        <time>2026-07-14T13:28:51Z</time>
      </trkpt>
      <trkpt lat="45.19484" lon="5.95674">
        <ele>1347.1</ele>
        <time>2026-07-14T13:28:52Z</time>
      </trkpt>
      <trkpt lat="45.19484" lon="5.95674">
        <ele>1347.1</ele>
        <time>2026-07-14T13:28:53Z</time>
      </trkpt>
      <trkpt lat="45.19484" lon="5.95673">
        <ele>1347</ele>
        <time>2026-07-14T13:28:54Z</time>
      </trkpt>
      <trkpt lat="45.19484" lon="5.95672">
        <ele>1346.9</ele>
        <time>2026-07-14T13:28:56Z</time>
      </trkpt>
      <trkpt lat="45.19484" lon="5.95672">
        <ele>1346.9</ele>
        <time>2026-07-14T13:28:57Z</time>
      </trkpt>
      <trkpt lat="45.19484" lon="5.95672">
        <ele>1346.8</ele>
        <time>2026-07-14T13:28:58Z</time>
      </trkpt>
      <trkpt lat="45.19484" lon="5.95671">
        <ele>1346.7</ele>
        <time>2026-07-14T13:28:59Z</time>
      </trkpt>
      <trkpt lat="45.19484" lon="5.95671">
        <ele>1346.7</ele>
        <time>2026-07-14T13:29:00Z</time>
      </trkpt>
      <trkpt lat="45.19484" lon="5.95671">
        <ele>1346.7</ele>
        <time>2026-07-14T13:29:01Z</time>
      </trkpt>
      <trkpt lat="45.19485" lon="5.9567">
        <ele>1346.6</ele>
        <time>2026-07-14T13:29:02Z</time>
      </trkpt>
      <trkpt lat="45.19485" lon="5.9567">
        <ele>1346.6</ele>
        <time>2026-07-14T13:29:03Z</time>
      </trkpt>
      <trkpt lat="45.19485" lon="5.9567">
        <ele>1346.4</ele>
        <time>2026-07-14T13:29:04Z</time>
      </trkpt>
      <trkpt lat="45.19486" lon="5.95669">
        <ele>1346.3</ele>
        <time>2026-07-14T13:29:05Z</time>
      </trkpt>
      <trkpt lat="45.19486" lon="5.95669">
        <ele>1346.2</ele>
        <time>2026-07-14T13:29:06Z</time>
      </trkpt>
      <trkpt lat="45.19487" lon="5.95668">
        <ele>1346</ele>
        <time>2026-07-14T13:29:07Z</time>
      </trkpt>
      <trkpt lat="45.19487" lon="5.95668">
        <ele>1345.9</ele>
        <time>2026-07-14T13:29:08Z</time>
      </trkpt>
      <trkpt lat="45.19488" lon="5.95667">
        <ele>1345.7</ele>
        <time>2026-07-14T13:29:09Z</time>
      </trkpt>
      <trkpt lat="45.19488" lon="5.95666">
        <ele>1345.7</ele>
        <time>2026-07-14T13:29:10Z</time>
      </trkpt>
      <trkpt lat="45.19489" lon="5.95665">
        <ele>1345.5</ele>
        <time>2026-07-14T13:29:11Z</time>
      </trkpt>
      <trkpt lat="45.19489" lon="5.95665">
        <ele>1345.4</ele>
        <time>2026-07-14T13:29:12Z</time>
      </trkpt>
      <trkpt lat="45.19489" lon="5.95665">
        <ele>1345.4</ele>
        <time>2026-07-14T13:29:13Z</time>
      </trkpt>
      <trkpt lat="45.19489" lon="5.95665">
        <ele>1345.4</ele>
        <time>2026-07-14T13:29:14Z</time>
      </trkpt>
      <trkpt lat="45.19489" lon="5.95664">
        <ele>1345.3</ele>
        <time>2026-07-14T13:29:15Z</time>
      </trkpt>
      <trkpt lat="45.19488" lon="5.95664">
        <ele>1345.3</ele>
        <time>2026-07-14T13:29:16Z</time>
      </trkpt>
      <trkpt lat="45.19488" lon="5.95664">
        <ele>1345.2</ele>
        <time>2026-07-14T13:29:17Z</time>
      </trkpt>
      <trkpt lat="45.19488" lon="5.95663">
        <ele>1345.2</ele>
        <time>2026-07-14T13:29:18Z</time>
      </trkpt>
      <trkpt lat="45.19488" lon="5.95663">
        <ele>1345.1</ele>
        <time>2026-07-14T13:29:19Z</time>
      </trkpt>
      <trkpt lat="45.19488" lon="5.95663">
        <ele>1345.1</ele>
        <time>2026-07-14T13:29:20Z</time>
      </trkpt>
      <trkpt lat="45.19488" lon="5.95663">
        <ele>1345</ele>
        <time>2026-07-14T13:29:21Z</time>
      </trkpt>
      <trkpt lat="45.19488" lon="5.95662">
        <ele>1344.9</ele>
        <time>2026-07-14T13:29:23Z</time>
      </trkpt>
      <trkpt lat="45.19488" lon="5.95661">
        <ele>1344.8</ele>
        <time>2026-07-14T13:29:24Z</time>
      </trkpt>
      <trkpt lat="45.19488" lon="5.95661">
        <ele>1344.8</ele>
        <time>2026-07-14T13:29:25Z</time>
      </trkpt>
      <trkpt lat="45.19489" lon="5.9566">
        <ele>1344.7</ele>
        <time>2026-07-14T13:29:26Z</time>
      </trkpt>
      <trkpt lat="45.19489" lon="5.9566">
        <ele>1344.5</ele>
        <time>2026-07-14T13:29:27Z</time>
      </trkpt>
      <trkpt lat="45.1949" lon="5.95658">
        <ele>1344.2</ele>
        <time>2026-07-14T13:29:28Z</time>
      </trkpt>
      <trkpt lat="45.1949" lon="5.95657">
        <ele>1344.1</ele>
        <time>2026-07-14T13:29:29Z</time>
      </trkpt>
      <trkpt lat="45.19489" lon="5.95657">
        <ele>1343.9</ele>
        <time>2026-07-14T13:29:30Z</time>
      </trkpt>
      <trkpt lat="45.19489" lon="5.95657">
        <ele>1343.8</ele>
        <time>2026-07-14T13:29:31Z</time>
      </trkpt>
      <trkpt lat="45.19489" lon="5.95657">
        <ele>1343.8</ele>
        <time>2026-07-14T13:29:32Z</time>
      </trkpt>
      <trkpt lat="45.19489" lon="5.95657">
        <ele>1343.7</ele>
        <time>2026-07-14T13:29:33Z</time>
      </trkpt>
      <trkpt lat="45.19489" lon="5.95657">
        <ele>1343.7</ele>
        <time>2026-07-14T13:29:34Z</time>
      </trkpt>
      <trkpt lat="45.19489" lon="5.95657">
        <ele>1343.6</ele>
        <time>2026-07-14T13:29:35Z</time>
      </trkpt>
      <trkpt lat="45.19489" lon="5.95657">
        <ele>1343.6</ele>
        <time>2026-07-14T13:29:36Z</time>
      </trkpt>
      <trkpt lat="45.19489" lon="5.95656">
        <ele>1343.6</ele>
        <time>2026-07-14T13:29:37Z</time>
      </trkpt>
      <trkpt lat="45.1949" lon="5.95656">
        <ele>1343.5</ele>
        <time>2026-07-14T13:29:38Z</time>
      </trkpt>
      <trkpt lat="45.1949" lon="5.95656">
        <ele>1343.5</ele>
        <time>2026-07-14T13:29:39Z</time>
      </trkpt>
      <trkpt lat="45.1949" lon="5.95656">
        <ele>1343.5</ele>
        <time>2026-07-14T13:29:40Z</time>
      </trkpt>
      <trkpt lat="45.1949" lon="5.95656">
        <ele>1343.5</ele>
        <time>2026-07-14T13:29:41Z</time>
      </trkpt>
      <trkpt lat="45.1949" lon="5.95656">
        <ele>1343.4</ele>
        <time>2026-07-14T13:29:42Z</time>
      </trkpt>
      <trkpt lat="45.1949" lon="5.95656">
        <ele>1343.4</ele>
        <time>2026-07-14T13:29:43Z</time>
      </trkpt>
      <trkpt lat="45.1949" lon="5.95656">
        <ele>1343.4</ele>
        <time>2026-07-14T13:29:44Z</time>
      </trkpt>
      <trkpt lat="45.1949" lon="5.95656">
        <ele>1343.4</ele>
        <time>2026-07-14T13:29:45Z</time>
      </trkpt>
      <trkpt lat="45.1949" lon="5.95656">
        <ele>1343.4</ele>
        <time>2026-07-14T13:29:46Z</time>
      </trkpt>
      <trkpt lat="45.1949" lon="5.95656">
        <ele>1343.4</ele>
        <time>2026-07-14T13:29:47Z</time>
      </trkpt>
      <trkpt lat="45.1949" lon="5.95656">
        <ele>1343.4</ele>
        <time>2026-07-14T13:29:48Z</time>
      </trkpt>
      <trkpt lat="45.1949" lon="5.95656">
        <ele>1343.3</ele>
        <time>2026-07-14T13:29:49Z</time>
      </trkpt>
      <trkpt lat="45.1949" lon="5.95656">
        <ele>1343.3</ele>
        <time>2026-07-14T13:29:50Z</time>
      </trkpt>
      <trkpt lat="45.1949" lon="5.95656">
        <ele>1343.3</ele>
        <time>2026-07-14T13:29:51Z</time>
      </trkpt>
      <trkpt lat="45.1949" lon="5.95656">
        <ele>1343.3</ele>
        <time>2026-07-14T13:29:52Z</time>
      </trkpt>
      <trkpt lat="45.1949" lon="5.95656">
        <ele>1343.3</ele>
        <time>2026-07-14T13:29:53Z</time>
      </trkpt>
      <trkpt lat="45.1949" lon="5.95655">
        <ele>1343.2</ele>
        <time>2026-07-14T13:29:54Z</time>
      </trkpt>
      <trkpt lat="45.1949" lon="5.95655">
        <ele>1343.2</ele>
        <time>2026-07-14T13:29:55Z</time>
      </trkpt>
      <trkpt lat="45.1949" lon="5.95655">
        <ele>1343.2</ele>
        <time>2026-07-14T13:29:56Z</time>
      </trkpt>
      <trkpt lat="45.1949" lon="5.95655">
        <ele>1343.2</ele>
        <time>2026-07-14T13:29:57Z</time>
      </trkpt>
      <trkpt lat="45.1949" lon="5.95655">
        <ele>1343.2</ele>
        <time>2026-07-14T13:29:58Z</time>
      </trkpt>
      <trkpt lat="45.1949" lon="5.95655">
        <ele>1343.2</ele>
        <time>2026-07-14T13:29:59Z</time>
      </trkpt>
      <trkpt lat="45.1949" lon="5.95655">
        <ele>1343.2</ele>
        <time>2026-07-14T13:30:00Z</time>
      </trkpt>
      <trkpt lat="45.1949" lon="5.95655">
        <ele>1343.2</ele>
        <time>2026-07-14T13:30:01Z</time>
      </trkpt>
      <trkpt lat="45.1949" lon="5.95655">
        <ele>1343.2</ele>
        <time>2026-07-14T13:30:02Z</time>
      </trkpt>
      <trkpt lat="45.1949" lon="5.95655">
        <ele>1343.1</ele>
        <time>2026-07-14T13:30:03Z</time>
      </trkpt>
      <trkpt lat="45.19489" lon="5.95655">
        <ele>1343.1</ele>
        <time>2026-07-14T13:30:04Z</time>
      </trkpt>
      <trkpt lat="45.19489" lon="5.95655">
        <ele>1343</ele>
        <time>2026-07-14T13:30:05Z</time>
      </trkpt>
      <trkpt lat="45.19489" lon="5.95655">
        <ele>1343</ele>
        <time>2026-07-14T13:30:06Z</time>
      </trkpt>
      <trkpt lat="45.19489" lon="5.95654">
        <ele>1342.9</ele>
        <time>2026-07-14T13:30:07Z</time>
      </trkpt>
      <trkpt lat="45.1949" lon="5.95654">
        <ele>1342.9</ele>
        <time>2026-07-14T13:30:08Z</time>
      </trkpt>
      <trkpt lat="45.1949" lon="5.95654">
        <ele>1342.8</ele>
        <time>2026-07-14T13:30:09Z</time>
      </trkpt>
      <trkpt lat="45.1949" lon="5.95654">
        <ele>1342.8</ele>
        <time>2026-07-14T13:30:10Z</time>
      </trkpt>
      <trkpt lat="45.1949" lon="5.95654">
        <ele>1342.8</ele>
        <time>2026-07-14T13:30:11Z</time>
      </trkpt>
      <trkpt lat="45.1949" lon="5.95654">
        <ele>1342.8</ele>
        <time>2026-07-14T13:30:12Z</time>
      </trkpt>
      <trkpt lat="45.1949" lon="5.95654">
        <ele>1342.7</ele>
        <time>2026-07-14T13:30:13Z</time>
      </trkpt>
      <trkpt lat="45.1949" lon="5.95654">
        <ele>1342.7</ele>
        <time>2026-07-14T13:30:14Z</time>
      </trkpt>
      <trkpt lat="45.1949" lon="5.95654">
        <ele>1342.7</ele>
        <time>2026-07-14T13:30:15Z</time>
      </trkpt>
      <trkpt lat="45.1949" lon="5.95654">
        <ele>1342.7</ele>
        <time>2026-07-14T13:30:16Z</time>
      </trkpt>
      <trkpt lat="45.1949" lon="5.95654">
        <ele>1342.7</ele>
        <time>2026-07-14T13:30:17Z</time>
      </trkpt>
      <trkpt lat="45.1949" lon="5.95654">
        <ele>1342.6</ele>
        <time>2026-07-14T13:30:18Z</time>
      </trkpt>
      <trkpt lat="45.19491" lon="5.95654">
        <ele>1342.6</ele>
        <time>2026-07-14T13:30:19Z</time>
      </trkpt>
      <trkpt lat="45.19491" lon="5.95654">
        <ele>1342.6</ele>
        <time>2026-07-14T13:30:20Z</time>
      </trkpt>
      <trkpt lat="45.19491" lon="5.95654">
        <ele>1342.6</ele>
        <time>2026-07-14T13:30:21Z</time>
      </trkpt>
      <trkpt lat="45.19491" lon="5.95654">
        <ele>1342.5</ele>
        <time>2026-07-14T13:30:22Z</time>
      </trkpt>
      <trkpt lat="45.19491" lon="5.95654">
        <ele>1342.5</ele>
        <time>2026-07-14T13:30:23Z</time>
      </trkpt>
      <trkpt lat="45.19491" lon="5.95654">
        <ele>1342.5</ele>
        <time>2026-07-14T13:30:24Z</time>
      </trkpt>
      <trkpt lat="45.19491" lon="5.95654">
        <ele>1342.4</ele>
        <time>2026-07-14T13:30:25Z</time>
      </trkpt>
      <trkpt lat="45.19491" lon="5.95654">
        <ele>1342.4</ele>
        <time>2026-07-14T13:30:26Z</time>
      </trkpt>
      <trkpt lat="45.19492" lon="5.95654">
        <ele>1342.3</ele>
        <time>2026-07-14T13:30:27Z</time>
      </trkpt>
      <trkpt lat="45.19492" lon="5.95654">
        <ele>1342.2</ele>
        <time>2026-07-14T13:30:28Z</time>
      </trkpt>
      <trkpt lat="45.19493" lon="5.95654">
        <ele>1342.1</ele>
        <time>2026-07-14T13:30:30Z</time>
      </trkpt>
      <trkpt lat="45.19494" lon="5.95652">
        <ele>1341.5</ele>
        <time>2026-07-14T13:30:31Z</time>
      </trkpt>
      <trkpt lat="45.19495" lon="5.9565">
        <ele>1341.2</ele>
        <time>2026-07-14T13:30:33Z</time>
      </trkpt>
      <trkpt lat="45.19496" lon="5.9565">
        <ele>1341</ele>
        <time>2026-07-14T13:30:34Z</time>
      </trkpt>
      <trkpt lat="45.19497" lon="5.95649">
        <ele>1340.8</ele>
        <time>2026-07-14T13:30:35Z</time>
      </trkpt>
      <trkpt lat="45.19498" lon="5.95648">
        <ele>1340.6</ele>
        <time>2026-07-14T13:30:36Z</time>
      </trkpt>
      <trkpt lat="45.19497" lon="5.95647">
        <ele>1340.4</ele>
        <time>2026-07-14T13:30:37Z</time>
      </trkpt>
      <trkpt lat="45.19497" lon="5.95647">
        <ele>1340.2</ele>
        <time>2026-07-14T13:30:38Z</time>
      </trkpt>
      <trkpt lat="45.19496" lon="5.95647">
        <ele>1340.1</ele>
        <time>2026-07-14T13:30:39Z</time>
      </trkpt>
      <trkpt lat="45.19496" lon="5.95647">
        <ele>1340.1</ele>
        <time>2026-07-14T13:30:40Z</time>
      </trkpt>
      <trkpt lat="45.19496" lon="5.95647">
        <ele>1340</ele>
        <time>2026-07-14T13:30:41Z</time>
      </trkpt>
      <trkpt lat="45.19496" lon="5.95646">
        <ele>1340</ele>
        <time>2026-07-14T13:30:42Z</time>
      </trkpt>
      <trkpt lat="45.19496" lon="5.95646">
        <ele>1340</ele>
        <time>2026-07-14T13:30:43Z</time>
      </trkpt>
      <trkpt lat="45.19496" lon="5.95646">
        <ele>1340</ele>
        <time>2026-07-14T13:30:44Z</time>
      </trkpt>
      <trkpt lat="45.19496" lon="5.95646">
        <ele>1340</ele>
        <time>2026-07-14T13:30:45Z</time>
      </trkpt>
      <trkpt lat="45.19496" lon="5.95646">
        <ele>1340</ele>
        <time>2026-07-14T13:30:46Z</time>
      </trkpt>
      <trkpt lat="45.19496" lon="5.95647">
        <ele>1340</ele>
        <time>2026-07-14T13:30:47Z</time>
      </trkpt>
      <trkpt lat="45.19496" lon="5.95647">
        <ele>1339.9</ele>
        <time>2026-07-14T13:30:48Z</time>
      </trkpt>
      <trkpt lat="45.19496" lon="5.95647">
        <ele>1339.9</ele>
        <time>2026-07-14T13:30:49Z</time>
      </trkpt>
      <trkpt lat="45.19496" lon="5.95647">
        <ele>1339.9</ele>
        <time>2026-07-14T13:30:50Z</time>
      </trkpt>
      <trkpt lat="45.19496" lon="5.95647">
        <ele>1339.8</ele>
        <time>2026-07-14T13:30:51Z</time>
      </trkpt>
      <trkpt lat="45.19496" lon="5.95647">
        <ele>1339.8</ele>
        <time>2026-07-14T13:30:52Z</time>
      </trkpt>
      <trkpt lat="45.19496" lon="5.95647">
        <ele>1339.8</ele>
        <time>2026-07-14T13:30:53Z</time>
      </trkpt>
      <trkpt lat="45.19496" lon="5.95647">
        <ele>1339.8</ele>
        <time>2026-07-14T13:30:54Z</time>
      </trkpt>
      <trkpt lat="45.19496" lon="5.95647">
        <ele>1339.7</ele>
        <time>2026-07-14T13:30:55Z</time>
      </trkpt>
      <trkpt lat="45.19496" lon="5.95647">
        <ele>1339.7</ele>
        <time>2026-07-14T13:30:57Z</time>
      </trkpt>
      <trkpt lat="45.19496" lon="5.95646">
        <ele>1339.6</ele>
        <time>2026-07-14T13:30:58Z</time>
      </trkpt>
      <trkpt lat="45.19497" lon="5.95645">
        <ele>1339.5</ele>
        <time>2026-07-14T13:30:59Z</time>
      </trkpt>
      <trkpt lat="45.19497" lon="5.95645">
        <ele>1339.3</ele>
        <time>2026-07-14T13:31:00Z</time>
      </trkpt>
      <trkpt lat="45.19498" lon="5.95644">
        <ele>1339.1</ele>
        <time>2026-07-14T13:31:01Z</time>
      </trkpt>
      <trkpt lat="45.19499" lon="5.95643">
        <ele>1338.9</ele>
        <time>2026-07-14T13:31:02Z</time>
      </trkpt>
      <trkpt lat="45.19499" lon="5.95643">
        <ele>1338.8</ele>
        <time>2026-07-14T13:31:03Z</time>
      </trkpt>
      <trkpt lat="45.195" lon="5.95643">
        <ele>1338.6</ele>
        <time>2026-07-14T13:31:04Z</time>
      </trkpt>
      <trkpt lat="45.19501" lon="5.95643">
        <ele>1338.4</ele>
        <time>2026-07-14T13:31:05Z</time>
      </trkpt>
      <trkpt lat="45.19502" lon="5.95643">
        <ele>1338.2</ele>
        <time>2026-07-14T13:31:06Z</time>
      </trkpt>
      <trkpt lat="45.19503" lon="5.95643">
        <ele>1337.9</ele>
        <time>2026-07-14T13:31:07Z</time>
      </trkpt>
      <trkpt lat="45.19504" lon="5.95642">
        <ele>1337.6</ele>
        <time>2026-07-14T13:31:08Z</time>
      </trkpt>
      <trkpt lat="45.19505" lon="5.95641">
        <ele>1337.4</ele>
        <time>2026-07-14T13:31:09Z</time>
      </trkpt>
      <trkpt lat="45.19506" lon="5.9564">
        <ele>1337.1</ele>
        <time>2026-07-14T13:31:10Z</time>
      </trkpt>
      <trkpt lat="45.19507" lon="5.95639">
        <ele>1336.8</ele>
        <time>2026-07-14T13:31:11Z</time>
      </trkpt>
      <trkpt lat="45.19509" lon="5.95639">
        <ele>1336.4</ele>
        <time>2026-07-14T13:31:12Z</time>
      </trkpt>
      <trkpt lat="45.1951" lon="5.95638">
        <ele>1336</ele>
        <time>2026-07-14T13:31:14Z</time>
      </trkpt>
      <trkpt lat="45.19511" lon="5.95636">
        <ele>1335.7</ele>
        <time>2026-07-14T13:31:16Z</time>
      </trkpt>
      <trkpt lat="45.19512" lon="5.95636">
        <ele>1335.5</ele>
        <time>2026-07-14T13:31:17Z</time>
      </trkpt>
      <trkpt lat="45.19513" lon="5.95635">
        <ele>1335.2</ele>
        <time>2026-07-14T13:31:18Z</time>
      </trkpt>
      <trkpt lat="45.19514" lon="5.95634">
        <ele>1335</ele>
        <time>2026-07-14T13:31:19Z</time>
      </trkpt>
      <trkpt lat="45.19515" lon="5.95634">
        <ele>1334.7</ele>
        <time>2026-07-14T13:31:20Z</time>
      </trkpt>
      <trkpt lat="45.19517" lon="5.95633">
        <ele>1334.2</ele>
        <time>2026-07-14T13:31:21Z</time>
      </trkpt>
      <trkpt lat="45.19519" lon="5.95633">
        <ele>1333.7</ele>
        <time>2026-07-14T13:31:23Z</time>
      </trkpt>
      <trkpt lat="45.1952" lon="5.95634">
        <ele>1333.5</ele>
        <time>2026-07-14T13:31:25Z</time>
      </trkpt>
      <trkpt lat="45.19521" lon="5.95634">
        <ele>1333.2</ele>
        <time>2026-07-14T13:31:26Z</time>
      </trkpt>
      <trkpt lat="45.19522" lon="5.95635">
        <ele>1332.9</ele>
        <time>2026-07-14T13:31:27Z</time>
      </trkpt>
      <trkpt lat="45.19523" lon="5.95635">
        <ele>1332.7</ele>
        <time>2026-07-14T13:31:28Z</time>
      </trkpt>
      <trkpt lat="45.19525" lon="5.95636">
        <ele>1332.2</ele>
        <time>2026-07-14T13:31:29Z</time>
      </trkpt>
      <trkpt lat="45.19526" lon="5.95636">
        <ele>1332</ele>
        <time>2026-07-14T13:31:31Z</time>
      </trkpt>
      <trkpt lat="45.19526" lon="5.95637">
        <ele>1331.9</ele>
        <time>2026-07-14T13:31:32Z</time>
      </trkpt>
      <trkpt lat="45.19526" lon="5.95638">
        <ele>1331.7</ele>
        <time>2026-07-14T13:31:33Z</time>
      </trkpt>
      <trkpt lat="45.19526" lon="5.95638">
        <ele>1331.6</ele>
        <time>2026-07-14T13:31:34Z</time>
      </trkpt>
      <trkpt lat="45.19526" lon="5.95638">
        <ele>1331.6</ele>
        <time>2026-07-14T13:31:35Z</time>
      </trkpt>
      <trkpt lat="45.19526" lon="5.95638">
        <ele>1331.6</ele>
        <time>2026-07-14T13:31:36Z</time>
      </trkpt>
      <trkpt lat="45.19526" lon="5.95638">
        <ele>1331.6</ele>
        <time>2026-07-14T13:31:37Z</time>
      </trkpt>
      <trkpt lat="45.19527" lon="5.95638">
        <ele>1331.3</ele>
        <time>2026-07-14T13:31:38Z</time>
      </trkpt>
      <trkpt lat="45.19527" lon="5.95638">
        <ele>1331.3</ele>
        <time>2026-07-14T13:31:40Z</time>
      </trkpt>
      <trkpt lat="45.19528" lon="5.95638">
        <ele>1331.1</ele>
        <time>2026-07-14T13:31:41Z</time>
      </trkpt>
      <trkpt lat="45.19528" lon="5.95638">
        <ele>1331.1</ele>
        <time>2026-07-14T13:31:42Z</time>
      </trkpt>
      <trkpt lat="45.19528" lon="5.95638">
        <ele>1331</ele>
        <time>2026-07-14T13:31:43Z</time>
      </trkpt>
      <trkpt lat="45.19529" lon="5.95639">
        <ele>1330.7</ele>
        <time>2026-07-14T13:31:44Z</time>
      </trkpt>
      <trkpt lat="45.19529" lon="5.95639">
        <ele>1330.5</ele>
        <time>2026-07-14T13:31:46Z</time>
      </trkpt>
      <trkpt lat="45.1953" lon="5.95638">
        <ele>1330.3</ele>
        <time>2026-07-14T13:31:47Z</time>
      </trkpt>
      <trkpt lat="45.19531" lon="5.95636">
        <ele>1330</ele>
        <time>2026-07-14T13:31:48Z</time>
      </trkpt>
      <trkpt lat="45.19531" lon="5.95635">
        <ele>1329.7</ele>
        <time>2026-07-14T13:31:49Z</time>
      </trkpt>
      <trkpt lat="45.19532" lon="5.95634">
        <ele>1329.5</ele>
        <time>2026-07-14T13:31:50Z</time>
      </trkpt>
      <trkpt lat="45.19533" lon="5.95633">
        <ele>1329.2</ele>
        <time>2026-07-14T13:31:51Z</time>
      </trkpt>
      <trkpt lat="45.19534" lon="5.95632">
        <ele>1329</ele>
        <time>2026-07-14T13:31:52Z</time>
      </trkpt>
      <trkpt lat="45.19535" lon="5.95631">
        <ele>1328.5</ele>
        <time>2026-07-14T13:31:53Z</time>
      </trkpt>
      <trkpt lat="45.19536" lon="5.9563">
        <ele>1328.3</ele>
        <time>2026-07-14T13:31:55Z</time>
      </trkpt>
      <trkpt lat="45.19536" lon="5.95629">
        <ele>1328.2</ele>
        <time>2026-07-14T13:31:56Z</time>
      </trkpt>
      <trkpt lat="45.19537" lon="5.95629">
        <ele>1328</ele>
        <time>2026-07-14T13:31:57Z</time>
      </trkpt>
      <trkpt lat="45.19538" lon="5.95629">
        <ele>1327.8</ele>
        <time>2026-07-14T13:31:58Z</time>
      </trkpt>
      <trkpt lat="45.19538" lon="5.95629">
        <ele>1327.7</ele>
        <time>2026-07-14T13:31:59Z</time>
      </trkpt>
      <trkpt lat="45.1954" lon="5.95629">
        <ele>1327.4</ele>
        <time>2026-07-14T13:32:00Z</time>
      </trkpt>
      <trkpt lat="45.19541" lon="5.95628">
        <ele>1327.1</ele>
        <time>2026-07-14T13:32:02Z</time>
      </trkpt>
      <trkpt lat="45.19541" lon="5.95627">
        <ele>1326.9</ele>
        <time>2026-07-14T13:32:03Z</time>
      </trkpt>
      <trkpt lat="45.19543" lon="5.95626">
        <ele>1326.6</ele>
        <time>2026-07-14T13:32:04Z</time>
      </trkpt>
      <trkpt lat="45.19543" lon="5.95625">
        <ele>1326.4</ele>
        <time>2026-07-14T13:32:05Z</time>
      </trkpt>
      <trkpt lat="45.19544" lon="5.95625">
        <ele>1326.2</ele>
        <time>2026-07-14T13:32:06Z</time>
      </trkpt>
      <trkpt lat="45.19545" lon="5.95626">
        <ele>1325.8</ele>
        <time>2026-07-14T13:32:07Z</time>
      </trkpt>
      <trkpt lat="45.19546" lon="5.95626">
        <ele>1325.7</ele>
        <time>2026-07-14T13:32:09Z</time>
      </trkpt>
      <trkpt lat="45.19547" lon="5.95626">
        <ele>1325.6</ele>
        <time>2026-07-14T13:32:10Z</time>
      </trkpt>
      <trkpt lat="45.19547" lon="5.95625">
        <ele>1325.4</ele>
        <time>2026-07-14T13:32:11Z</time>
      </trkpt>
      <trkpt lat="45.19548" lon="5.95624">
        <ele>1325.2</ele>
        <time>2026-07-14T13:32:12Z</time>
      </trkpt>
      <trkpt lat="45.19548" lon="5.95623">
        <ele>1325</ele>
        <time>2026-07-14T13:32:13Z</time>
      </trkpt>
      <trkpt lat="45.19548" lon="5.95623">
        <ele>1324.9</ele>
        <time>2026-07-14T13:32:14Z</time>
      </trkpt>
      <trkpt lat="45.19548" lon="5.95622">
        <ele>1324.8</ele>
        <time>2026-07-14T13:32:15Z</time>
      </trkpt>
      <trkpt lat="45.19549" lon="5.95622">
        <ele>1324.6</ele>
        <time>2026-07-14T13:32:16Z</time>
      </trkpt>
      <trkpt lat="45.19549" lon="5.95621">
        <ele>1324.5</ele>
        <time>2026-07-14T13:32:17Z</time>
      </trkpt>
      <trkpt lat="45.19549" lon="5.95621">
        <ele>1324.4</ele>
        <time>2026-07-14T13:32:18Z</time>
      </trkpt>
      <trkpt lat="45.1955" lon="5.9562">
        <ele>1324.1</ele>
        <time>2026-07-14T13:32:19Z</time>
      </trkpt>
      <trkpt lat="45.19551" lon="5.9562">
        <ele>1323.9</ele>
        <time>2026-07-14T13:32:21Z</time>
      </trkpt>
      <trkpt lat="45.19551" lon="5.95619">
        <ele>1323.8</ele>
        <time>2026-07-14T13:32:22Z</time>
      </trkpt>
      <trkpt lat="45.19552" lon="5.95619">
        <ele>1323.6</ele>
        <time>2026-07-14T13:32:23Z</time>
      </trkpt>
      <trkpt lat="45.19552" lon="5.95618">
        <ele>1323.5</ele>
        <time>2026-07-14T13:32:24Z</time>
      </trkpt>
      <trkpt lat="45.19552" lon="5.95617">
        <ele>1323.3</ele>
        <time>2026-07-14T13:32:25Z</time>
      </trkpt>
      <trkpt lat="45.19553" lon="5.95616">
        <ele>1323</ele>
        <time>2026-07-14T13:32:26Z</time>
      </trkpt>
      <trkpt lat="45.19554" lon="5.95616">
        <ele>1322.8</ele>
        <time>2026-07-14T13:32:28Z</time>
      </trkpt>
      <trkpt lat="45.19554" lon="5.95616">
        <ele>1322.8</ele>
        <time>2026-07-14T13:32:29Z</time>
      </trkpt>
      <trkpt lat="45.19555" lon="5.95615">
        <ele>1322.6</ele>
        <time>2026-07-14T13:32:30Z</time>
      </trkpt>
      <trkpt lat="45.19555" lon="5.95615">
        <ele>1322.5</ele>
        <time>2026-07-14T13:32:31Z</time>
      </trkpt>
      <trkpt lat="45.19556" lon="5.95614">
        <ele>1322.1</ele>
        <time>2026-07-14T13:32:32Z</time>
      </trkpt>
      <trkpt lat="45.19557" lon="5.95613">
        <ele>1322</ele>
        <time>2026-07-14T13:32:34Z</time>
      </trkpt>
      <trkpt lat="45.19557" lon="5.95612">
        <ele>1321.7</ele>
        <time>2026-07-14T13:32:35Z</time>
      </trkpt>
      <trkpt lat="45.19558" lon="5.95612">
        <ele>1321.5</ele>
        <time>2026-07-14T13:32:36Z</time>
      </trkpt>
      <trkpt lat="45.19559" lon="5.95611">
        <ele>1321.3</ele>
        <time>2026-07-14T13:32:37Z</time>
      </trkpt>
      <trkpt lat="45.19559" lon="5.9561">
        <ele>1321.1</ele>
        <time>2026-07-14T13:32:38Z</time>
      </trkpt>
      <trkpt lat="45.19559" lon="5.95609">
        <ele>1320.9</ele>
        <time>2026-07-14T13:32:40Z</time>
      </trkpt>
      <trkpt lat="45.19559" lon="5.95609">
        <ele>1320.8</ele>
        <time>2026-07-14T13:32:41Z</time>
      </trkpt>
      <trkpt lat="45.1956" lon="5.95608">
        <ele>1320.5</ele>
        <time>2026-07-14T13:32:42Z</time>
      </trkpt>
      <trkpt lat="45.1956" lon="5.95607">
        <ele>1320.3</ele>
        <time>2026-07-14T13:32:43Z</time>
      </trkpt>
      <trkpt lat="45.19561" lon="5.95606">
        <ele>1320.1</ele>
        <time>2026-07-14T13:32:44Z</time>
      </trkpt>
      <trkpt lat="45.19561" lon="5.95604">
        <ele>1319.9</ele>
        <time>2026-07-14T13:32:45Z</time>
      </trkpt>
      <trkpt lat="45.19561" lon="5.95603">
        <ele>1319.6</ele>
        <time>2026-07-14T13:32:46Z</time>
      </trkpt>
      <trkpt lat="45.19563" lon="5.95601">
        <ele>1319</ele>
        <time>2026-07-14T13:32:47Z</time>
      </trkpt>
      <trkpt lat="45.19564" lon="5.95601">
        <ele>1318.7</ele>
        <time>2026-07-14T13:32:48Z</time>
      </trkpt>
      <trkpt lat="45.19565" lon="5.956">
        <ele>1318.4</ele>
        <time>2026-07-14T13:32:49Z</time>
      </trkpt>
      <trkpt lat="45.19565" lon="5.95599">
        <ele>1318.2</ele>
        <time>2026-07-14T13:32:50Z</time>
      </trkpt>
      <trkpt lat="45.19566" lon="5.95598">
        <ele>1318</ele>
        <time>2026-07-14T13:32:52Z</time>
      </trkpt>
      <trkpt lat="45.19567" lon="5.95597">
        <ele>1317.7</ele>
        <time>2026-07-14T13:32:53Z</time>
      </trkpt>
      <trkpt lat="45.19568" lon="5.95596">
        <ele>1317.4</ele>
        <time>2026-07-14T13:32:54Z</time>
      </trkpt>
      <trkpt lat="45.19569" lon="5.95595">
        <ele>1317.1</ele>
        <time>2026-07-14T13:32:55Z</time>
      </trkpt>
      <trkpt lat="45.1957" lon="5.95595">
        <ele>1316.8</ele>
        <time>2026-07-14T13:32:56Z</time>
      </trkpt>
      <trkpt lat="45.19571" lon="5.95594">
        <ele>1316.4</ele>
        <time>2026-07-14T13:32:57Z</time>
      </trkpt>
      <trkpt lat="45.19572" lon="5.95593">
        <ele>1316.1</ele>
        <time>2026-07-14T13:32:58Z</time>
      </trkpt>
      <trkpt lat="45.19573" lon="5.95592">
        <ele>1315.7</ele>
        <time>2026-07-14T13:32:59Z</time>
      </trkpt>
      <trkpt lat="45.19574" lon="5.95592">
        <ele>1315.5</ele>
        <time>2026-07-14T13:33:00Z</time>
      </trkpt>
      <trkpt lat="45.19575" lon="5.95591">
        <ele>1315.2</ele>
        <time>2026-07-14T13:33:01Z</time>
      </trkpt>
      <trkpt lat="45.19576" lon="5.95592">
        <ele>1315</ele>
        <time>2026-07-14T13:33:02Z</time>
      </trkpt>
      <trkpt lat="45.19577" lon="5.95593">
        <ele>1314.5</ele>
        <time>2026-07-14T13:33:03Z</time>
      </trkpt>
      <trkpt lat="45.19578" lon="5.95594">
        <ele>1314.2</ele>
        <time>2026-07-14T13:33:05Z</time>
      </trkpt>
      <trkpt lat="45.19579" lon="5.95594">
        <ele>1314</ele>
        <time>2026-07-14T13:33:06Z</time>
      </trkpt>
      <trkpt lat="45.1958" lon="5.95595">
        <ele>1313.6</ele>
        <time>2026-07-14T13:33:07Z</time>
      </trkpt>
      <trkpt lat="45.19581" lon="5.95596">
        <ele>1313.4</ele>
        <time>2026-07-14T13:33:08Z</time>
      </trkpt>
      <trkpt lat="45.19582" lon="5.95595">
        <ele>1313</ele>
        <time>2026-07-14T13:33:09Z</time>
      </trkpt>
      <trkpt lat="45.19582" lon="5.95593">
        <ele>1312.7</ele>
        <time>2026-07-14T13:33:11Z</time>
      </trkpt>
      <trkpt lat="45.19583" lon="5.95592">
        <ele>1312.5</ele>
        <time>2026-07-14T13:33:12Z</time>
      </trkpt>
      <trkpt lat="45.19583" lon="5.95592">
        <ele>1312.3</ele>
        <time>2026-07-14T13:33:13Z</time>
      </trkpt>
      <trkpt lat="45.19584" lon="5.95592">
        <ele>1312.1</ele>
        <time>2026-07-14T13:33:14Z</time>
      </trkpt>
      <trkpt lat="45.19585" lon="5.95592">
        <ele>1311.9</ele>
        <time>2026-07-14T13:33:15Z</time>
      </trkpt>
      <trkpt lat="45.19586" lon="5.95593">
        <ele>1311.7</ele>
        <time>2026-07-14T13:33:16Z</time>
      </trkpt>
      <trkpt lat="45.19586" lon="5.95593">
        <ele>1311.5</ele>
        <time>2026-07-14T13:33:17Z</time>
      </trkpt>
      <trkpt lat="45.19587" lon="5.95594">
        <ele>1311.2</ele>
        <time>2026-07-14T13:33:18Z</time>
      </trkpt>
      <trkpt lat="45.19588" lon="5.95594">
        <ele>1311.1</ele>
        <time>2026-07-14T13:33:19Z</time>
      </trkpt>
      <trkpt lat="45.1959" lon="5.95595">
        <ele>1310.6</ele>
        <time>2026-07-14T13:33:20Z</time>
      </trkpt>
      <trkpt lat="45.19591" lon="5.95595">
        <ele>1310.3</ele>
        <time>2026-07-14T13:33:22Z</time>
      </trkpt>
      <trkpt lat="45.19591" lon="5.95596">
        <ele>1310.2</ele>
        <time>2026-07-14T13:33:23Z</time>
      </trkpt>
      <trkpt lat="45.1959" lon="5.95596">
        <ele>1310.1</ele>
        <time>2026-07-14T13:33:24Z</time>
      </trkpt>
      <trkpt lat="45.19591" lon="5.95597">
        <ele>1309.8</ele>
        <time>2026-07-14T13:33:25Z</time>
      </trkpt>
      <trkpt lat="45.19591" lon="5.95597">
        <ele>1309.7</ele>
        <time>2026-07-14T13:33:26Z</time>
      </trkpt>
      <trkpt lat="45.19592" lon="5.95597">
        <ele>1309.6</ele>
        <time>2026-07-14T13:33:27Z</time>
      </trkpt>
      <trkpt lat="45.19592" lon="5.95596">
        <ele>1309.5</ele>
        <time>2026-07-14T13:33:28Z</time>
      </trkpt>
      <trkpt lat="45.19593" lon="5.95596">
        <ele>1309.3</ele>
        <time>2026-07-14T13:33:29Z</time>
      </trkpt>
      <trkpt lat="45.19594" lon="5.95595">
        <ele>1309</ele>
        <time>2026-07-14T13:33:30Z</time>
      </trkpt>
      <trkpt lat="45.19594" lon="5.95594">
        <ele>1308.9</ele>
        <time>2026-07-14T13:33:32Z</time>
      </trkpt>
      <trkpt lat="45.19595" lon="5.95594">
        <ele>1308.6</ele>
        <time>2026-07-14T13:33:33Z</time>
      </trkpt>
      <trkpt lat="45.19596" lon="5.95594">
        <ele>1308.4</ele>
        <time>2026-07-14T13:33:35Z</time>
      </trkpt>
      <trkpt lat="45.19596" lon="5.95593">
        <ele>1308.3</ele>
        <time>2026-07-14T13:33:37Z</time>
      </trkpt>
      <trkpt lat="45.19596" lon="5.95593">
        <ele>1308.2</ele>
        <time>2026-07-14T13:33:38Z</time>
      </trkpt>
      <trkpt lat="45.19597" lon="5.95593">
        <ele>1308.1</ele>
        <time>2026-07-14T13:33:40Z</time>
      </trkpt>
      <trkpt lat="45.19598" lon="5.95592">
        <ele>1307.9</ele>
        <time>2026-07-14T13:33:41Z</time>
      </trkpt>
      <trkpt lat="45.19598" lon="5.95591">
        <ele>1307.7</ele>
        <time>2026-07-14T13:33:43Z</time>
      </trkpt>
      <trkpt lat="45.196" lon="5.95591">
        <ele>1307.4</ele>
        <time>2026-07-14T13:33:45Z</time>
      </trkpt>
      <trkpt lat="45.19601" lon="5.95591">
        <ele>1307.2</ele>
        <time>2026-07-14T13:33:47Z</time>
      </trkpt>
      <trkpt lat="45.19601" lon="5.9559">
        <ele>1307</ele>
        <time>2026-07-14T13:33:49Z</time>
      </trkpt>
      <trkpt lat="45.19601" lon="5.95591">
        <ele>1306.8</ele>
        <time>2026-07-14T13:33:51Z</time>
      </trkpt>
      <trkpt lat="45.19601" lon="5.95592">
        <ele>1306.6</ele>
        <time>2026-07-14T13:33:52Z</time>
      </trkpt>
      <trkpt lat="45.19602" lon="5.95593">
        <ele>1306.4</ele>
        <time>2026-07-14T13:33:53Z</time>
      </trkpt>
      <trkpt lat="45.19603" lon="5.95594">
        <ele>1306.2</ele>
        <time>2026-07-14T13:33:54Z</time>
      </trkpt>
      <trkpt lat="45.19604" lon="5.95595">
        <ele>1306</ele>
        <time>2026-07-14T13:33:56Z</time>
      </trkpt>
      <trkpt lat="45.19604" lon="5.95595">
        <ele>1305.9</ele>
        <time>2026-07-14T13:33:57Z</time>
      </trkpt>
      <trkpt lat="45.19606" lon="5.95594">
        <ele>1305.5</ele>
        <time>2026-07-14T13:33:58Z</time>
      </trkpt>
      <trkpt lat="45.19606" lon="5.95593">
        <ele>1305.4</ele>
        <time>2026-07-14T13:34:00Z</time>
      </trkpt>
      <trkpt lat="45.19606" lon="5.9559">
        <ele>1304.9</ele>
        <time>2026-07-14T13:34:01Z</time>
      </trkpt>
      <trkpt lat="45.19606" lon="5.95588">
        <ele>1304.7</ele>
        <time>2026-07-14T13:34:03Z</time>
      </trkpt>
      <trkpt lat="45.19606" lon="5.95587">
        <ele>1304.4</ele>
        <time>2026-07-14T13:34:04Z</time>
      </trkpt>
      <trkpt lat="45.19606" lon="5.95585">
        <ele>1304.2</ele>
        <time>2026-07-14T13:34:05Z</time>
      </trkpt>
      <trkpt lat="45.19606" lon="5.95585">
        <ele>1304.1</ele>
        <time>2026-07-14T13:34:06Z</time>
      </trkpt>
      <trkpt lat="45.19606" lon="5.95583">
        <ele>1303.9</ele>
        <time>2026-07-14T13:34:07Z</time>
      </trkpt>
      <trkpt lat="45.19607" lon="5.95582">
        <ele>1303.7</ele>
        <time>2026-07-14T13:34:08Z</time>
      </trkpt>
      <trkpt lat="45.19607" lon="5.95582">
        <ele>1303.6</ele>
        <time>2026-07-14T13:34:10Z</time>
      </trkpt>
      <trkpt lat="45.19608" lon="5.95581">
        <ele>1303.3</ele>
        <time>2026-07-14T13:34:11Z</time>
      </trkpt>
      <trkpt lat="45.19609" lon="5.9558">
        <ele>1303.2</ele>
        <time>2026-07-14T13:34:13Z</time>
      </trkpt>
      <trkpt lat="45.1961" lon="5.9558">
        <ele>1302.9</ele>
        <time>2026-07-14T13:34:14Z</time>
      </trkpt>
      <trkpt lat="45.19611" lon="5.9558">
        <ele>1302.7</ele>
        <time>2026-07-14T13:34:16Z</time>
      </trkpt>
      <trkpt lat="45.19611" lon="5.9558">
        <ele>1302.6</ele>
        <time>2026-07-14T13:34:17Z</time>
      </trkpt>
      <trkpt lat="45.19612" lon="5.9558">
        <ele>1302.5</ele>
        <time>2026-07-14T13:34:18Z</time>
      </trkpt>
      <trkpt lat="45.19614" lon="5.9558">
        <ele>1302.2</ele>
        <time>2026-07-14T13:34:19Z</time>
      </trkpt>
      <trkpt lat="45.19615" lon="5.9558">
        <ele>1302</ele>
        <time>2026-07-14T13:34:21Z</time>
      </trkpt>
      <trkpt lat="45.19615" lon="5.95581">
        <ele>1301.8</ele>
        <time>2026-07-14T13:34:22Z</time>
      </trkpt>
      <trkpt lat="45.19616" lon="5.95581">
        <ele>1301.6</ele>
        <time>2026-07-14T13:34:23Z</time>
      </trkpt>
      <trkpt lat="45.19617" lon="5.95582">
        <ele>1301.4</ele>
        <time>2026-07-14T13:34:24Z</time>
      </trkpt>
      <trkpt lat="45.19618" lon="5.95583">
        <ele>1301.1</ele>
        <time>2026-07-14T13:34:25Z</time>
      </trkpt>
      <trkpt lat="45.19619" lon="5.95584">
        <ele>1300.9</ele>
        <time>2026-07-14T13:34:26Z</time>
      </trkpt>
      <trkpt lat="45.1962" lon="5.95584">
        <ele>1300.6</ele>
        <time>2026-07-14T13:34:27Z</time>
      </trkpt>
      <trkpt lat="45.19621" lon="5.95585">
        <ele>1300.4</ele>
        <time>2026-07-14T13:34:28Z</time>
      </trkpt>
      <trkpt lat="45.19622" lon="5.95585">
        <ele>1300.2</ele>
        <time>2026-07-14T13:34:29Z</time>
      </trkpt>
      <trkpt lat="45.19623" lon="5.95586">
        <ele>1300</ele>
        <time>2026-07-14T13:34:30Z</time>
      </trkpt>
      <trkpt lat="45.19623" lon="5.95586">
        <ele>1299.9</ele>
        <time>2026-07-14T13:34:31Z</time>
      </trkpt>
      <trkpt lat="45.19624" lon="5.95586">
        <ele>1299.7</ele>
        <time>2026-07-14T13:34:32Z</time>
      </trkpt>
      <trkpt lat="45.19626" lon="5.95586">
        <ele>1299.3</ele>
        <time>2026-07-14T13:34:33Z</time>
      </trkpt>
      <trkpt lat="45.19626" lon="5.95586">
        <ele>1299.2</ele>
        <time>2026-07-14T13:34:35Z</time>
      </trkpt>
      <trkpt lat="45.19627" lon="5.95588">
        <ele>1298.8</ele>
        <time>2026-07-14T13:34:36Z</time>
      </trkpt>
      <trkpt lat="45.19628" lon="5.95588">
        <ele>1298.6</ele>
        <time>2026-07-14T13:34:38Z</time>
      </trkpt>
      <trkpt lat="45.19629" lon="5.95589">
        <ele>1298.4</ele>
        <time>2026-07-14T13:34:39Z</time>
      </trkpt>
      <trkpt lat="45.19629" lon="5.95591">
        <ele>1298</ele>
        <time>2026-07-14T13:34:40Z</time>
      </trkpt>
      <trkpt lat="45.19629" lon="5.95593">
        <ele>1297.6</ele>
        <time>2026-07-14T13:34:42Z</time>
      </trkpt>
      <trkpt lat="45.1963" lon="5.95595">
        <ele>1297.4</ele>
        <time>2026-07-14T13:34:44Z</time>
      </trkpt>
      <trkpt lat="45.19631" lon="5.95595">
        <ele>1297.2</ele>
        <time>2026-07-14T13:34:45Z</time>
      </trkpt>
      <trkpt lat="45.19631" lon="5.95595">
        <ele>1297</ele>
        <time>2026-07-14T13:34:46Z</time>
      </trkpt>
      <trkpt lat="45.19632" lon="5.95594">
        <ele>1296.8</ele>
        <time>2026-07-14T13:34:47Z</time>
      </trkpt>
      <trkpt lat="45.19633" lon="5.95593">
        <ele>1296.5</ele>
        <time>2026-07-14T13:34:48Z</time>
      </trkpt>
      <trkpt lat="45.19634" lon="5.95592">
        <ele>1296.2</ele>
        <time>2026-07-14T13:34:49Z</time>
      </trkpt>
      <trkpt lat="45.19635" lon="5.95593">
        <ele>1295.9</ele>
        <time>2026-07-14T13:34:50Z</time>
      </trkpt>
      <trkpt lat="45.19637" lon="5.95592">
        <ele>1295.5</ele>
        <time>2026-07-14T13:34:51Z</time>
      </trkpt>
      <trkpt lat="45.19638" lon="5.95591">
        <ele>1295.3</ele>
        <time>2026-07-14T13:34:53Z</time>
      </trkpt>
      <trkpt lat="45.19638" lon="5.95591">
        <ele>1295.1</ele>
        <time>2026-07-14T13:34:54Z</time>
      </trkpt>
      <trkpt lat="45.19639" lon="5.95591">
        <ele>1294.9</ele>
        <time>2026-07-14T13:34:55Z</time>
      </trkpt>
      <trkpt lat="45.1964" lon="5.95591">
        <ele>1294.7</ele>
        <time>2026-07-14T13:34:56Z</time>
      </trkpt>
      <trkpt lat="45.19641" lon="5.9559">
        <ele>1294.5</ele>
        <time>2026-07-14T13:34:57Z</time>
      </trkpt>
      <trkpt lat="45.19641" lon="5.95589">
        <ele>1294.2</ele>
        <time>2026-07-14T13:34:59Z</time>
      </trkpt>
      <trkpt lat="45.19642" lon="5.95588">
        <ele>1294</ele>
        <time>2026-07-14T13:35:00Z</time>
      </trkpt>
      <trkpt lat="45.19643" lon="5.95588">
        <ele>1293.9</ele>
        <time>2026-07-14T13:35:01Z</time>
      </trkpt>
      <trkpt lat="45.19643" lon="5.95588">
        <ele>1293.7</ele>
        <time>2026-07-14T13:35:02Z</time>
      </trkpt>
      <trkpt lat="45.19645" lon="5.95588">
        <ele>1293.4</ele>
        <time>2026-07-14T13:35:03Z</time>
      </trkpt>
      <trkpt lat="45.19646" lon="5.95587">
        <ele>1293.2</ele>
        <time>2026-07-14T13:35:05Z</time>
      </trkpt>
      <trkpt lat="45.19646" lon="5.95586">
        <ele>1292.9</ele>
        <time>2026-07-14T13:35:06Z</time>
      </trkpt>
      <trkpt lat="45.19647" lon="5.95586">
        <ele>1292.8</ele>
        <time>2026-07-14T13:35:07Z</time>
      </trkpt>
      <trkpt lat="45.19647" lon="5.95584">
        <ele>1292.5</ele>
        <time>2026-07-14T13:35:09Z</time>
      </trkpt>
      <trkpt lat="45.19647" lon="5.95582">
        <ele>1292.1</ele>
        <time>2026-07-14T13:35:11Z</time>
      </trkpt>
      <trkpt lat="45.19647" lon="5.95581">
        <ele>1291.9</ele>
        <time>2026-07-14T13:35:13Z</time>
      </trkpt>
      <trkpt lat="45.19648" lon="5.9558">
        <ele>1291.7</ele>
        <time>2026-07-14T13:35:14Z</time>
      </trkpt>
      <trkpt lat="45.19648" lon="5.9558">
        <ele>1291.6</ele>
        <time>2026-07-14T13:35:15Z</time>
      </trkpt>
      <trkpt lat="45.19649" lon="5.95579">
        <ele>1291.5</ele>
        <time>2026-07-14T13:35:16Z</time>
      </trkpt>
      <trkpt lat="45.1965" lon="5.95579">
        <ele>1291.2</ele>
        <time>2026-07-14T13:35:17Z</time>
      </trkpt>
      <trkpt lat="45.1965" lon="5.95579">
        <ele>1291.1</ele>
        <time>2026-07-14T13:35:18Z</time>
      </trkpt>
      <trkpt lat="45.19651" lon="5.95579">
        <ele>1290.9</ele>
        <time>2026-07-14T13:35:19Z</time>
      </trkpt>
      <trkpt lat="45.19652" lon="5.95578">
        <ele>1290.6</ele>
        <time>2026-07-14T13:35:20Z</time>
      </trkpt>
      <trkpt lat="45.19653" lon="5.95579">
        <ele>1290.4</ele>
        <time>2026-07-14T13:35:22Z</time>
      </trkpt>
      <trkpt lat="45.19653" lon="5.95579">
        <ele>1290.3</ele>
        <time>2026-07-14T13:35:23Z</time>
      </trkpt>
      <trkpt lat="45.19654" lon="5.9558">
        <ele>1290.1</ele>
        <time>2026-07-14T13:35:24Z</time>
      </trkpt>
      <trkpt lat="45.19655" lon="5.95581">
        <ele>1289.8</ele>
        <time>2026-07-14T13:35:25Z</time>
      </trkpt>
      <trkpt lat="45.19656" lon="5.95582">
        <ele>1289.5</ele>
        <time>2026-07-14T13:35:26Z</time>
      </trkpt>
      <trkpt lat="45.19657" lon="5.95582">
        <ele>1289.3</ele>
        <time>2026-07-14T13:35:27Z</time>
      </trkpt>
      <trkpt lat="45.19657" lon="5.95583">
        <ele>1289.1</ele>
        <time>2026-07-14T13:35:28Z</time>
      </trkpt>
      <trkpt lat="45.19658" lon="5.95582">
        <ele>1288.9</ele>
        <time>2026-07-14T13:35:29Z</time>
      </trkpt>
      <trkpt lat="45.19658" lon="5.95582">
        <ele>1288.8</ele>
        <time>2026-07-14T13:35:30Z</time>
      </trkpt>
      <trkpt lat="45.19659" lon="5.95581">
        <ele>1288.7</ele>
        <time>2026-07-14T13:35:31Z</time>
      </trkpt>
      <trkpt lat="45.1966" lon="5.95581">
        <ele>1288.5</ele>
        <time>2026-07-14T13:35:32Z</time>
      </trkpt>
      <trkpt lat="45.1966" lon="5.95581">
        <ele>1288.4</ele>
        <time>2026-07-14T13:35:33Z</time>
      </trkpt>
      <trkpt lat="45.19662" lon="5.95581">
        <ele>1287.9</ele>
        <time>2026-07-14T13:35:34Z</time>
      </trkpt>
      <trkpt lat="45.19664" lon="5.95582">
        <ele>1287.4</ele>
        <time>2026-07-14T13:35:36Z</time>
      </trkpt>
      <trkpt lat="45.19665" lon="5.95582">
        <ele>1287.3</ele>
        <time>2026-07-14T13:35:37Z</time>
      </trkpt>
      <trkpt lat="45.19665" lon="5.95582">
        <ele>1287.1</ele>
        <time>2026-07-14T13:35:39Z</time>
      </trkpt>
      <trkpt lat="45.19666" lon="5.95582">
        <ele>1287</ele>
        <time>2026-07-14T13:35:40Z</time>
      </trkpt>
      <trkpt lat="45.19666" lon="5.95582">
        <ele>1286.8</ele>
        <time>2026-07-14T13:35:41Z</time>
      </trkpt>
      <trkpt lat="45.19666" lon="5.95583">
        <ele>1286.7</ele>
        <time>2026-07-14T13:35:42Z</time>
      </trkpt>
      <trkpt lat="45.19667" lon="5.95583">
        <ele>1286.6</ele>
        <time>2026-07-14T13:35:43Z</time>
      </trkpt>
      <trkpt lat="45.19667" lon="5.95583">
        <ele>1286.5</ele>
        <time>2026-07-14T13:35:44Z</time>
      </trkpt>
      <trkpt lat="45.19668" lon="5.95582">
        <ele>1286.3</ele>
        <time>2026-07-14T13:35:45Z</time>
      </trkpt>
      <trkpt lat="45.19668" lon="5.95581">
        <ele>1286.1</ele>
        <time>2026-07-14T13:35:46Z</time>
      </trkpt>
      <trkpt lat="45.19669" lon="5.95581">
        <ele>1285.9</ele>
        <time>2026-07-14T13:35:47Z</time>
      </trkpt>
      <trkpt lat="45.1967" lon="5.95581">
        <ele>1285.7</ele>
        <time>2026-07-14T13:35:48Z</time>
      </trkpt>
      <trkpt lat="45.19671" lon="5.95581">
        <ele>1285.4</ele>
        <time>2026-07-14T13:35:49Z</time>
      </trkpt>
      <trkpt lat="45.19672" lon="5.95581">
        <ele>1285.1</ele>
        <time>2026-07-14T13:35:51Z</time>
      </trkpt>
      <trkpt lat="45.19673" lon="5.95581">
        <ele>1284.9</ele>
        <time>2026-07-14T13:35:53Z</time>
      </trkpt>
      <trkpt lat="45.19673" lon="5.9558">
        <ele>1284.7</ele>
        <time>2026-07-14T13:35:54Z</time>
      </trkpt>
      <trkpt lat="45.19674" lon="5.95579">
        <ele>1284.6</ele>
        <time>2026-07-14T13:35:55Z</time>
      </trkpt>
      <trkpt lat="45.19674" lon="5.95578">
        <ele>1284.4</ele>
        <time>2026-07-14T13:35:56Z</time>
      </trkpt>
      <trkpt lat="45.19675" lon="5.95578">
        <ele>1284.2</ele>
        <time>2026-07-14T13:35:57Z</time>
      </trkpt>
      <trkpt lat="45.19675" lon="5.95578">
        <ele>1284</ele>
        <time>2026-07-14T13:35:58Z</time>
      </trkpt>
      <trkpt lat="45.19676" lon="5.95577">
        <ele>1283.8</ele>
        <time>2026-07-14T13:35:59Z</time>
      </trkpt>
      <trkpt lat="45.19677" lon="5.95576">
        <ele>1283.5</ele>
        <time>2026-07-14T13:36:00Z</time>
      </trkpt>
      <trkpt lat="45.19677" lon="5.95576">
        <ele>1283.4</ele>
        <time>2026-07-14T13:36:01Z</time>
      </trkpt>
      <trkpt lat="45.19678" lon="5.95575">
        <ele>1283.2</ele>
        <time>2026-07-14T13:36:03Z</time>
      </trkpt>
      <trkpt lat="45.19678" lon="5.95574">
        <ele>1283.1</ele>
        <time>2026-07-14T13:36:04Z</time>
      </trkpt>
      <trkpt lat="45.19679" lon="5.95573">
        <ele>1282.9</ele>
        <time>2026-07-14T13:36:05Z</time>
      </trkpt>
      <trkpt lat="45.1968" lon="5.95573">
        <ele>1282.5</ele>
        <time>2026-07-14T13:36:06Z</time>
      </trkpt>
      <trkpt lat="45.19681" lon="5.95574">
        <ele>1282.2</ele>
        <time>2026-07-14T13:36:08Z</time>
      </trkpt>
      <trkpt lat="45.19681" lon="5.95575">
        <ele>1282</ele>
        <time>2026-07-14T13:36:09Z</time>
      </trkpt>
      <trkpt lat="45.19682" lon="5.95575">
        <ele>1281.8</ele>
        <time>2026-07-14T13:36:10Z</time>
      </trkpt>
      <trkpt lat="45.19683" lon="5.95575">
        <ele>1281.6</ele>
        <time>2026-07-14T13:36:11Z</time>
      </trkpt>
      <trkpt lat="45.19684" lon="5.95574">
        <ele>1281.3</ele>
        <time>2026-07-14T13:36:12Z</time>
      </trkpt>
      <trkpt lat="45.19684" lon="5.95573">
        <ele>1281.1</ele>
        <time>2026-07-14T13:36:13Z</time>
      </trkpt>
      <trkpt lat="45.19684" lon="5.95572">
        <ele>1280.8</ele>
        <time>2026-07-14T13:36:14Z</time>
      </trkpt>
      <trkpt lat="45.19685" lon="5.95571">
        <ele>1280.6</ele>
        <time>2026-07-14T13:36:15Z</time>
      </trkpt>
      <trkpt lat="45.19686" lon="5.9557">
        <ele>1280.4</ele>
        <time>2026-07-14T13:36:16Z</time>
      </trkpt>
      <trkpt lat="45.19686" lon="5.9557">
        <ele>1280.1</ele>
        <time>2026-07-14T13:36:17Z</time>
      </trkpt>
      <trkpt lat="45.19687" lon="5.9557">
        <ele>1280</ele>
        <time>2026-07-14T13:36:18Z</time>
      </trkpt>
      <trkpt lat="45.19688" lon="5.9557">
        <ele>1279.8</ele>
        <time>2026-07-14T13:36:19Z</time>
      </trkpt>
      <trkpt lat="45.19689" lon="5.95569">
        <ele>1279.5</ele>
        <time>2026-07-14T13:36:20Z</time>
      </trkpt>
      <trkpt lat="45.19689" lon="5.95569">
        <ele>1279.4</ele>
        <time>2026-07-14T13:36:21Z</time>
      </trkpt>
      <trkpt lat="45.19689" lon="5.95568">
        <ele>1279.2</ele>
        <time>2026-07-14T13:36:22Z</time>
      </trkpt>
      <trkpt lat="45.19689" lon="5.95567">
        <ele>1279</ele>
        <time>2026-07-14T13:36:24Z</time>
      </trkpt>
      <trkpt lat="45.19689" lon="5.95566">
        <ele>1278.8</ele>
        <time>2026-07-14T13:36:25Z</time>
      </trkpt>
      <trkpt lat="45.1969" lon="5.95566">
        <ele>1278.7</ele>
        <time>2026-07-14T13:36:26Z</time>
      </trkpt>
      <trkpt lat="45.1969" lon="5.95567">
        <ele>1278.5</ele>
        <time>2026-07-14T13:36:27Z</time>
      </trkpt>
      <trkpt lat="45.1969" lon="5.95567">
        <ele>1278.4</ele>
        <time>2026-07-14T13:36:28Z</time>
      </trkpt>
      <trkpt lat="45.19691" lon="5.95566">
        <ele>1278.2</ele>
        <time>2026-07-14T13:36:29Z</time>
      </trkpt>
      <trkpt lat="45.19691" lon="5.95566">
        <ele>1278</ele>
        <time>2026-07-14T13:36:30Z</time>
      </trkpt>
      <trkpt lat="45.19692" lon="5.95564">
        <ele>1277.7</ele>
        <time>2026-07-14T13:36:31Z</time>
      </trkpt>
      <trkpt lat="45.19692" lon="5.95563">
        <ele>1277.4</ele>
        <time>2026-07-14T13:36:32Z</time>
      </trkpt>
      <trkpt lat="45.19691" lon="5.9556">
        <ele>1276.8</ele>
        <time>2026-07-14T13:36:33Z</time>
      </trkpt>
      <trkpt lat="45.19692" lon="5.95558">
        <ele>1276.4</ele>
        <time>2026-07-14T13:36:35Z</time>
      </trkpt>
      <trkpt lat="45.19693" lon="5.95558">
        <ele>1276.2</ele>
        <time>2026-07-14T13:36:36Z</time>
      </trkpt>
      <trkpt lat="45.19694" lon="5.95558">
        <ele>1276</ele>
        <time>2026-07-14T13:36:37Z</time>
      </trkpt>
      <trkpt lat="45.19694" lon="5.95558">
        <ele>1275.9</ele>
        <time>2026-07-14T13:36:38Z</time>
      </trkpt>
      <trkpt lat="45.19695" lon="5.95559">
        <ele>1275.7</ele>
        <time>2026-07-14T13:36:40Z</time>
      </trkpt>
      <trkpt lat="45.19695" lon="5.95558">
        <ele>1275.5</ele>
        <time>2026-07-14T13:36:41Z</time>
      </trkpt>
      <trkpt lat="45.19696" lon="5.95558">
        <ele>1275.3</ele>
        <time>2026-07-14T13:36:42Z</time>
      </trkpt>
      <trkpt lat="45.19697" lon="5.95556">
        <ele>1274.7</ele>
        <time>2026-07-14T13:36:43Z</time>
      </trkpt>
      <trkpt lat="45.19698" lon="5.95556">
        <ele>1274.4</ele>
        <time>2026-07-14T13:36:45Z</time>
      </trkpt>
      <trkpt lat="45.19701" lon="5.95555">
        <ele>1273.7</ele>
        <time>2026-07-14T13:36:46Z</time>
      </trkpt>
      <trkpt lat="45.19701" lon="5.95555">
        <ele>1273.6</ele>
        <time>2026-07-14T13:36:48Z</time>
      </trkpt>
      <trkpt lat="45.19701" lon="5.95555">
        <ele>1273.5</ele>
        <time>2026-07-14T13:36:49Z</time>
      </trkpt>
      <trkpt lat="45.19702" lon="5.95555">
        <ele>1273.2</ele>
        <time>2026-07-14T13:36:50Z</time>
      </trkpt>
      <trkpt lat="45.19703" lon="5.95556">
        <ele>1272.9</ele>
        <time>2026-07-14T13:36:51Z</time>
      </trkpt>
      <trkpt lat="45.19704" lon="5.95557">
        <ele>1272.6</ele>
        <time>2026-07-14T13:36:52Z</time>
      </trkpt>
      <trkpt lat="45.19704" lon="5.95558">
        <ele>1272.3</ele>
        <time>2026-07-14T13:36:53Z</time>
      </trkpt>
      <trkpt lat="45.19705" lon="5.95559">
        <ele>1272.1</ele>
        <time>2026-07-14T13:36:54Z</time>
      </trkpt>
      <trkpt lat="45.19705" lon="5.95559">
        <ele>1271.9</ele>
        <time>2026-07-14T13:36:55Z</time>
      </trkpt>
      <trkpt lat="45.19706" lon="5.95559">
        <ele>1271.9</ele>
        <time>2026-07-14T13:36:56Z</time>
      </trkpt>
      <trkpt lat="45.19706" lon="5.95559">
        <ele>1271.7</ele>
        <time>2026-07-14T13:36:57Z</time>
      </trkpt>
      <trkpt lat="45.19706" lon="5.95558">
        <ele>1271.7</ele>
        <time>2026-07-14T13:36:58Z</time>
      </trkpt>
      <trkpt lat="45.19706" lon="5.95558">
        <ele>1271.6</ele>
        <time>2026-07-14T13:36:59Z</time>
      </trkpt>
      <trkpt lat="45.19707" lon="5.95559">
        <ele>1271.4</ele>
        <time>2026-07-14T13:37:00Z</time>
      </trkpt>
      <trkpt lat="45.19706" lon="5.95559">
        <ele>1271.3</ele>
        <time>2026-07-14T13:37:01Z</time>
      </trkpt>
      <trkpt lat="45.19706" lon="5.95559">
        <ele>1271.2</ele>
        <time>2026-07-14T13:37:02Z</time>
      </trkpt>
      <trkpt lat="45.19706" lon="5.95559">
        <ele>1271.1</ele>
        <time>2026-07-14T13:37:03Z</time>
      </trkpt>
      <trkpt lat="45.19706" lon="5.95559">
        <ele>1271</ele>
        <time>2026-07-14T13:37:04Z</time>
      </trkpt>
      <trkpt lat="45.19706" lon="5.95559">
        <ele>1271</ele>
        <time>2026-07-14T13:37:05Z</time>
      </trkpt>
      <trkpt lat="45.19706" lon="5.95559">
        <ele>1271</ele>
        <time>2026-07-14T13:37:06Z</time>
      </trkpt>
      <trkpt lat="45.19706" lon="5.95559">
        <ele>1271</ele>
        <time>2026-07-14T13:37:07Z</time>
      </trkpt>
      <trkpt lat="45.19706" lon="5.95559">
        <ele>1270.9</ele>
        <time>2026-07-14T13:37:08Z</time>
      </trkpt>
      <trkpt lat="45.19706" lon="5.95559">
        <ele>1270.9</ele>
        <time>2026-07-14T13:37:09Z</time>
      </trkpt>
      <trkpt lat="45.19706" lon="5.95559">
        <ele>1270.9</ele>
        <time>2026-07-14T13:37:10Z</time>
      </trkpt>
      <trkpt lat="45.19706" lon="5.95559">
        <ele>1270.9</ele>
        <time>2026-07-14T13:37:11Z</time>
      </trkpt>
      <trkpt lat="45.19706" lon="5.95559">
        <ele>1270.9</ele>
        <time>2026-07-14T13:37:12Z</time>
      </trkpt>
      <trkpt lat="45.19706" lon="5.95559">
        <ele>1270.8</ele>
        <time>2026-07-14T13:37:13Z</time>
      </trkpt>
      <trkpt lat="45.19706" lon="5.95559">
        <ele>1270.8</ele>
        <time>2026-07-14T13:37:14Z</time>
      </trkpt>
      <trkpt lat="45.19706" lon="5.95558">
        <ele>1270.8</ele>
        <time>2026-07-14T13:37:15Z</time>
      </trkpt>
      <trkpt lat="45.19706" lon="5.95558">
        <ele>1270.7</ele>
        <time>2026-07-14T13:37:16Z</time>
      </trkpt>
      <trkpt lat="45.19706" lon="5.95558">
        <ele>1270.7</ele>
        <time>2026-07-14T13:37:17Z</time>
      </trkpt>
      <trkpt lat="45.19706" lon="5.95558">
        <ele>1270.6</ele>
        <time>2026-07-14T13:37:18Z</time>
      </trkpt>
      <trkpt lat="45.19706" lon="5.95558">
        <ele>1270.6</ele>
        <time>2026-07-14T13:37:19Z</time>
      </trkpt>
      <trkpt lat="45.19706" lon="5.95558">
        <ele>1270.6</ele>
        <time>2026-07-14T13:37:20Z</time>
      </trkpt>
      <trkpt lat="45.19706" lon="5.95558">
        <ele>1270.6</ele>
        <time>2026-07-14T13:37:21Z</time>
      </trkpt>
      <trkpt lat="45.19706" lon="5.95558">
        <ele>1270.5</ele>
        <time>2026-07-14T13:37:22Z</time>
      </trkpt>
      <trkpt lat="45.19706" lon="5.95557">
        <ele>1270.4</ele>
        <time>2026-07-14T13:37:23Z</time>
      </trkpt>
      <trkpt lat="45.19706" lon="5.95556">
        <ele>1270.1</ele>
        <time>2026-07-14T13:37:24Z</time>
      </trkpt>
      <trkpt lat="45.19707" lon="5.95553">
        <ele>1269.4</ele>
        <time>2026-07-14T13:37:25Z</time>
      </trkpt>
      <trkpt lat="45.19708" lon="5.95553">
        <ele>1269</ele>
        <time>2026-07-14T13:37:27Z</time>
      </trkpt>
      <trkpt lat="45.19709" lon="5.95553">
        <ele>1268.7</ele>
        <time>2026-07-14T13:37:28Z</time>
      </trkpt>
      <trkpt lat="45.1971" lon="5.95554">
        <ele>1268.4</ele>
        <time>2026-07-14T13:37:29Z</time>
      </trkpt>
      <trkpt lat="45.1971" lon="5.95555">
        <ele>1268.2</ele>
        <time>2026-07-14T13:37:30Z</time>
      </trkpt>
      <trkpt lat="45.19711" lon="5.95555">
        <ele>1267.9</ele>
        <time>2026-07-14T13:37:31Z</time>
      </trkpt>
      <trkpt lat="45.19713" lon="5.95556">
        <ele>1267.3</ele>
        <time>2026-07-14T13:37:32Z</time>
      </trkpt>
      <trkpt lat="45.19714" lon="5.95557">
        <ele>1267</ele>
        <time>2026-07-14T13:37:33Z</time>
      </trkpt>
      <trkpt lat="45.19715" lon="5.95557">
        <ele>1266.7</ele>
        <time>2026-07-14T13:37:35Z</time>
      </trkpt>
      <trkpt lat="45.19716" lon="5.95557">
        <ele>1266.5</ele>
        <time>2026-07-14T13:37:36Z</time>
      </trkpt>
      <trkpt lat="45.19717" lon="5.95556">
        <ele>1266.2</ele>
        <time>2026-07-14T13:37:37Z</time>
      </trkpt>
      <trkpt lat="45.19717" lon="5.95555">
        <ele>1266</ele>
        <time>2026-07-14T13:37:38Z</time>
      </trkpt>
      <trkpt lat="45.19718" lon="5.95555">
        <ele>1265.8</ele>
        <time>2026-07-14T13:37:39Z</time>
      </trkpt>
      <trkpt lat="45.19719" lon="5.95554">
        <ele>1265.4</ele>
        <time>2026-07-14T13:37:40Z</time>
      </trkpt>
      <trkpt lat="45.19719" lon="5.95553">
        <ele>1265.2</ele>
        <time>2026-07-14T13:37:41Z</time>
      </trkpt>
      <trkpt lat="45.19719" lon="5.95553">
        <ele>1265.1</ele>
        <time>2026-07-14T13:37:42Z</time>
      </trkpt>
      <trkpt lat="45.19719" lon="5.95552">
        <ele>1264.8</ele>
        <time>2026-07-14T13:37:43Z</time>
      </trkpt>
      <trkpt lat="45.19718" lon="5.9555">
        <ele>1264.5</ele>
        <time>2026-07-14T13:37:44Z</time>
      </trkpt>
      <trkpt lat="45.19718" lon="5.95548">
        <ele>1264.1</ele>
        <time>2026-07-14T13:37:45Z</time>
      </trkpt>
      <trkpt lat="45.19717" lon="5.95547">
        <ele>1263.6</ele>
        <time>2026-07-14T13:37:46Z</time>
      </trkpt>
      <trkpt lat="45.19716" lon="5.95546">
        <ele>1263.2</ele>
        <time>2026-07-14T13:37:47Z</time>
      </trkpt>
      <trkpt lat="45.19715" lon="5.95543">
        <ele>1262.6</ele>
        <time>2026-07-14T13:37:48Z</time>
      </trkpt>
      <trkpt lat="45.19715" lon="5.95542">
        <ele>1262.3</ele>
        <time>2026-07-14T13:37:50Z</time>
      </trkpt>
      <trkpt lat="45.19714" lon="5.95541">
        <ele>1262</ele>
        <time>2026-07-14T13:37:51Z</time>
      </trkpt>
      <trkpt lat="45.19715" lon="5.95539">
        <ele>1261.7</ele>
        <time>2026-07-14T13:37:52Z</time>
      </trkpt>
      <trkpt lat="45.19716" lon="5.95539">
        <ele>1261.5</ele>
        <time>2026-07-14T13:37:53Z</time>
      </trkpt>
      <trkpt lat="45.19717" lon="5.9554">
        <ele>1261.2</ele>
        <time>2026-07-14T13:37:54Z</time>
      </trkpt>
      <trkpt lat="45.19718" lon="5.9554">
        <ele>1260.9</ele>
        <time>2026-07-14T13:37:55Z</time>
      </trkpt>
      <trkpt lat="45.19719" lon="5.9554">
        <ele>1260.6</ele>
        <time>2026-07-14T13:37:56Z</time>
      </trkpt>
      <trkpt lat="45.1972" lon="5.9554">
        <ele>1260.3</ele>
        <time>2026-07-14T13:37:57Z</time>
      </trkpt>
      <trkpt lat="45.1972" lon="5.95541">
        <ele>1260.1</ele>
        <time>2026-07-14T13:37:58Z</time>
      </trkpt>
      <trkpt lat="45.19721" lon="5.95541">
        <ele>1259.9</ele>
        <time>2026-07-14T13:37:59Z</time>
      </trkpt>
      <trkpt lat="45.19721" lon="5.95541">
        <ele>1259.8</ele>
        <time>2026-07-14T13:38:00Z</time>
      </trkpt>
      <trkpt lat="45.19722" lon="5.95541">
        <ele>1259.4</ele>
        <time>2026-07-14T13:38:01Z</time>
      </trkpt>
      <trkpt lat="45.19723" lon="5.95542">
        <ele>1259.2</ele>
        <time>2026-07-14T13:38:03Z</time>
      </trkpt>
      <trkpt lat="45.19723" lon="5.95542">
        <ele>1259</ele>
        <time>2026-07-14T13:38:04Z</time>
      </trkpt>
      <trkpt lat="45.19723" lon="5.95543">
        <ele>1258.9</ele>
        <time>2026-07-14T13:38:05Z</time>
      </trkpt>
      <trkpt lat="45.19724" lon="5.95542">
        <ele>1258.6</ele>
        <time>2026-07-14T13:38:06Z</time>
      </trkpt>
      <trkpt lat="45.19725" lon="5.95542">
        <ele>1258.4</ele>
        <time>2026-07-14T13:38:07Z</time>
      </trkpt>
      <trkpt lat="45.19726" lon="5.95541">
        <ele>1258.1</ele>
        <time>2026-07-14T13:38:08Z</time>
      </trkpt>
      <trkpt lat="45.19726" lon="5.9554">
        <ele>1257.8</ele>
        <time>2026-07-14T13:38:09Z</time>
      </trkpt>
      <trkpt lat="45.19726" lon="5.95539">
        <ele>1257.6</ele>
        <time>2026-07-14T13:38:10Z</time>
      </trkpt>
      <trkpt lat="45.19726" lon="5.95539">
        <ele>1257.5</ele>
        <time>2026-07-14T13:38:11Z</time>
      </trkpt>
      <trkpt lat="45.19725" lon="5.95538">
        <ele>1257.1</ele>
        <time>2026-07-14T13:38:12Z</time>
      </trkpt>
      <trkpt lat="45.19724" lon="5.95537">
        <ele>1256.9</ele>
        <time>2026-07-14T13:38:13Z</time>
      </trkpt>
      <trkpt lat="45.19723" lon="5.95536">
        <ele>1256.5</ele>
        <time>2026-07-14T13:38:14Z</time>
      </trkpt>
      <trkpt lat="45.19722" lon="5.95535">
        <ele>1256</ele>
        <time>2026-07-14T13:38:15Z</time>
      </trkpt>
      <trkpt lat="45.19722" lon="5.95534">
        <ele>1255.8</ele>
        <time>2026-07-14T13:38:17Z</time>
      </trkpt>
      <trkpt lat="45.19722" lon="5.95533">
        <ele>1255.6</ele>
        <time>2026-07-14T13:38:18Z</time>
      </trkpt>
      <trkpt lat="45.19721" lon="5.95532">
        <ele>1255.4</ele>
        <time>2026-07-14T13:38:19Z</time>
      </trkpt>
      <trkpt lat="45.19722" lon="5.95531">
        <ele>1255.2</ele>
        <time>2026-07-14T13:38:20Z</time>
      </trkpt>
      <trkpt lat="45.19722" lon="5.95529">
        <ele>1254.7</ele>
        <time>2026-07-14T13:38:21Z</time>
      </trkpt>
      <trkpt lat="45.19722" lon="5.95527">
        <ele>1254.4</ele>
        <time>2026-07-14T13:38:23Z</time>
      </trkpt>
      <trkpt lat="45.19722" lon="5.95526">
        <ele>1254.1</ele>
        <time>2026-07-14T13:38:24Z</time>
      </trkpt>
      <trkpt lat="45.19723" lon="5.95525">
        <ele>1253.8</ele>
        <time>2026-07-14T13:38:25Z</time>
      </trkpt>
      <trkpt lat="45.19723" lon="5.95525">
        <ele>1253.7</ele>
        <time>2026-07-14T13:38:26Z</time>
      </trkpt>
      <trkpt lat="45.19723" lon="5.95524">
        <ele>1253.5</ele>
        <time>2026-07-14T13:38:27Z</time>
      </trkpt>
      <trkpt lat="45.19724" lon="5.95523">
        <ele>1253.3</ele>
        <time>2026-07-14T13:38:28Z</time>
      </trkpt>
      <trkpt lat="45.19724" lon="5.95523">
        <ele>1253.1</ele>
        <time>2026-07-14T13:38:29Z</time>
      </trkpt>
      <trkpt lat="45.19725" lon="5.95522">
        <ele>1252.7</ele>
        <time>2026-07-14T13:38:30Z</time>
      </trkpt>
      <trkpt lat="45.19726" lon="5.95522">
        <ele>1252.5</ele>
        <time>2026-07-14T13:38:31Z</time>
      </trkpt>
      <trkpt lat="45.19727" lon="5.9552">
        <ele>1252</ele>
        <time>2026-07-14T13:38:32Z</time>
      </trkpt>
      <trkpt lat="45.19728" lon="5.95519">
        <ele>1251.8</ele>
        <time>2026-07-14T13:38:33Z</time>
      </trkpt>
      <trkpt lat="45.19729" lon="5.95519">
        <ele>1251.5</ele>
        <time>2026-07-14T13:38:35Z</time>
      </trkpt>
      <trkpt lat="45.19729" lon="5.9552">
        <ele>1251.2</ele>
        <time>2026-07-14T13:38:36Z</time>
      </trkpt>
      <trkpt lat="45.1973" lon="5.95519">
        <ele>1250.9</ele>
        <time>2026-07-14T13:38:37Z</time>
      </trkpt>
      <trkpt lat="45.19731" lon="5.95519">
        <ele>1250.7</ele>
        <time>2026-07-14T13:38:38Z</time>
      </trkpt>
      <trkpt lat="45.19731" lon="5.95518">
        <ele>1250.5</ele>
        <time>2026-07-14T13:38:39Z</time>
      </trkpt>
      <trkpt lat="45.1973" lon="5.95517">
        <ele>1250.3</ele>
        <time>2026-07-14T13:38:40Z</time>
      </trkpt>
      <trkpt lat="45.1973" lon="5.95516">
        <ele>1250.1</ele>
        <time>2026-07-14T13:38:41Z</time>
      </trkpt>
      <trkpt lat="45.19731" lon="5.95516">
        <ele>1249.9</ele>
        <time>2026-07-14T13:38:42Z</time>
      </trkpt>
      <trkpt lat="45.19731" lon="5.95515">
        <ele>1249.7</ele>
        <time>2026-07-14T13:38:43Z</time>
      </trkpt>
      <trkpt lat="45.19732" lon="5.95515">
        <ele>1249.6</ele>
        <time>2026-07-14T13:38:44Z</time>
      </trkpt>
      <trkpt lat="45.19732" lon="5.95515">
        <ele>1249.4</ele>
        <time>2026-07-14T13:38:45Z</time>
      </trkpt>
      <trkpt lat="45.19733" lon="5.95515">
        <ele>1249.2</ele>
        <time>2026-07-14T13:38:46Z</time>
      </trkpt>
      <trkpt lat="45.19734" lon="5.95516">
        <ele>1248.9</ele>
        <time>2026-07-14T13:38:47Z</time>
      </trkpt>
      <trkpt lat="45.19734" lon="5.95517">
        <ele>1248.6</ele>
        <time>2026-07-14T13:38:48Z</time>
      </trkpt>
      <trkpt lat="45.19735" lon="5.95518">
        <ele>1248.3</ele>
        <time>2026-07-14T13:38:49Z</time>
      </trkpt>
      <trkpt lat="45.19736" lon="5.95519">
        <ele>1247.9</ele>
        <time>2026-07-14T13:38:50Z</time>
      </trkpt>
      <trkpt lat="45.19736" lon="5.9552">
        <ele>1247.6</ele>
        <time>2026-07-14T13:38:51Z</time>
      </trkpt>
      <trkpt lat="45.19737" lon="5.95521">
        <ele>1247.4</ele>
        <time>2026-07-14T13:38:52Z</time>
      </trkpt>
      <trkpt lat="45.19738" lon="5.9552">
        <ele>1247.1</ele>
        <time>2026-07-14T13:38:53Z</time>
      </trkpt>
      <trkpt lat="45.19739" lon="5.95518">
        <ele>1246.5</ele>
        <time>2026-07-14T13:38:54Z</time>
      </trkpt>
      <trkpt lat="45.19738" lon="5.95517">
        <ele>1246.2</ele>
        <time>2026-07-14T13:38:56Z</time>
      </trkpt>
      <trkpt lat="45.19737" lon="5.95516">
        <ele>1245.9</ele>
        <time>2026-07-14T13:38:57Z</time>
      </trkpt>
      <trkpt lat="45.19737" lon="5.95515">
        <ele>1245.7</ele>
        <time>2026-07-14T13:38:58Z</time>
      </trkpt>
      <trkpt lat="45.19737" lon="5.95514">
        <ele>1245.4</ele>
        <time>2026-07-14T13:38:59Z</time>
      </trkpt>
      <trkpt lat="45.19737" lon="5.95513">
        <ele>1245.2</ele>
        <time>2026-07-14T13:39:00Z</time>
      </trkpt>
      <trkpt lat="45.19737" lon="5.95513">
        <ele>1245.1</ele>
        <time>2026-07-14T13:39:01Z</time>
      </trkpt>
      <trkpt lat="45.19737" lon="5.95512">
        <ele>1244.9</ele>
        <time>2026-07-14T13:39:02Z</time>
      </trkpt>
      <trkpt lat="45.19738" lon="5.9551">
        <ele>1244.5</ele>
        <time>2026-07-14T13:39:03Z</time>
      </trkpt>
      <trkpt lat="45.19738" lon="5.95509">
        <ele>1244.2</ele>
        <time>2026-07-14T13:39:05Z</time>
      </trkpt>
      <trkpt lat="45.19739" lon="5.95509">
        <ele>1243.9</ele>
        <time>2026-07-14T13:39:06Z</time>
      </trkpt>
      <trkpt lat="45.1974" lon="5.95509">
        <ele>1243.6</ele>
        <time>2026-07-14T13:39:07Z</time>
      </trkpt>
      <trkpt lat="45.19742" lon="5.9551">
        <ele>1243.1</ele>
        <time>2026-07-14T13:39:08Z</time>
      </trkpt>
      <trkpt lat="45.19742" lon="5.9551">
        <ele>1242.8</ele>
        <time>2026-07-14T13:39:09Z</time>
      </trkpt>
      <trkpt lat="45.19743" lon="5.9551">
        <ele>1242.6</ele>
        <time>2026-07-14T13:39:11Z</time>
      </trkpt>
      <trkpt lat="45.19744" lon="5.95511">
        <ele>1242.4</ele>
        <time>2026-07-14T13:39:12Z</time>
      </trkpt>
      <trkpt lat="45.19744" lon="5.95512">
        <ele>1242.1</ele>
        <time>2026-07-14T13:39:13Z</time>
      </trkpt>
      <trkpt lat="45.19744" lon="5.95512">
        <ele>1242</ele>
        <time>2026-07-14T13:39:14Z</time>
      </trkpt>
      <trkpt lat="45.19745" lon="5.95513">
        <ele>1241.7</ele>
        <time>2026-07-14T13:39:15Z</time>
      </trkpt>
      <trkpt lat="45.19746" lon="5.95513">
        <ele>1241.4</ele>
        <time>2026-07-14T13:39:16Z</time>
      </trkpt>
      <trkpt lat="45.19748" lon="5.95512">
        <ele>1240.8</ele>
        <time>2026-07-14T13:39:17Z</time>
      </trkpt>
      <trkpt lat="45.19748" lon="5.95511">
        <ele>1240.6</ele>
        <time>2026-07-14T13:39:19Z</time>
      </trkpt>
      <trkpt lat="45.19748" lon="5.95508">
        <ele>1239.9</ele>
        <time>2026-07-14T13:39:20Z</time>
      </trkpt>
      <trkpt lat="45.19748" lon="5.95507">
        <ele>1239.6</ele>
        <time>2026-07-14T13:39:22Z</time>
      </trkpt>
      <trkpt lat="45.19749" lon="5.95504">
        <ele>1238.9</ele>
        <time>2026-07-14T13:39:23Z</time>
      </trkpt>
      <trkpt lat="45.19751" lon="5.95503">
        <ele>1238.4</ele>
        <time>2026-07-14T13:39:25Z</time>
      </trkpt>
      <trkpt lat="45.19752" lon="5.95503">
        <ele>1238.1</ele>
        <time>2026-07-14T13:39:27Z</time>
      </trkpt>
      <trkpt lat="45.19753" lon="5.95502">
        <ele>1237.6</ele>
        <time>2026-07-14T13:39:28Z</time>
      </trkpt>
      <trkpt lat="45.19754" lon="5.95501">
        <ele>1237.3</ele>
        <time>2026-07-14T13:39:30Z</time>
      </trkpt>
      <trkpt lat="45.19754" lon="5.95499">
        <ele>1236.8</ele>
        <time>2026-07-14T13:39:31Z</time>
      </trkpt>
      <trkpt lat="45.19755" lon="5.95498">
        <ele>1236.6</ele>
        <time>2026-07-14T13:39:33Z</time>
      </trkpt>
      <trkpt lat="45.19755" lon="5.95498">
        <ele>1236.4</ele>
        <time>2026-07-14T13:39:34Z</time>
      </trkpt>
      <trkpt lat="45.19755" lon="5.95498">
        <ele>1236.3</ele>
        <time>2026-07-14T13:39:35Z</time>
      </trkpt>
      <trkpt lat="45.19756" lon="5.95497">
        <ele>1236.1</ele>
        <time>2026-07-14T13:39:36Z</time>
      </trkpt>
      <trkpt lat="45.19756" lon="5.95495">
        <ele>1235.8</ele>
        <time>2026-07-14T13:39:37Z</time>
      </trkpt>
      <trkpt lat="45.19756" lon="5.95494">
        <ele>1235.6</ele>
        <time>2026-07-14T13:39:38Z</time>
      </trkpt>
      <trkpt lat="45.19758" lon="5.95494">
        <ele>1235</ele>
        <time>2026-07-14T13:39:39Z</time>
      </trkpt>
      <trkpt lat="45.19758" lon="5.95495">
        <ele>1234.7</ele>
        <time>2026-07-14T13:39:41Z</time>
      </trkpt>
      <trkpt lat="45.19759" lon="5.95497">
        <ele>1234.3</ele>
        <time>2026-07-14T13:39:42Z</time>
      </trkpt>
      <trkpt lat="45.19759" lon="5.95497">
        <ele>1234</ele>
        <time>2026-07-14T13:39:44Z</time>
      </trkpt>
      <trkpt lat="45.19759" lon="5.95498">
        <ele>1233.8</ele>
        <time>2026-07-14T13:39:45Z</time>
      </trkpt>
      <trkpt lat="45.19759" lon="5.95499">
        <ele>1233.6</ele>
        <time>2026-07-14T13:39:46Z</time>
      </trkpt>
      <trkpt lat="45.19759" lon="5.955">
        <ele>1233.4</ele>
        <time>2026-07-14T13:39:47Z</time>
      </trkpt>
      <trkpt lat="45.19759" lon="5.95501">
        <ele>1233.2</ele>
        <time>2026-07-14T13:39:48Z</time>
      </trkpt>
      <trkpt lat="45.1976" lon="5.95501">
        <ele>1233.1</ele>
        <time>2026-07-14T13:39:49Z</time>
      </trkpt>
      <trkpt lat="45.19761" lon="5.95501">
        <ele>1232.7</ele>
        <time>2026-07-14T13:39:50Z</time>
      </trkpt>
      <trkpt lat="45.19761" lon="5.955">
        <ele>1232.5</ele>
        <time>2026-07-14T13:39:52Z</time>
      </trkpt>
      <trkpt lat="45.19761" lon="5.95499">
        <ele>1232.2</ele>
        <time>2026-07-14T13:39:53Z</time>
      </trkpt>
      <trkpt lat="45.19761" lon="5.95496">
        <ele>1231.6</ele>
        <time>2026-07-14T13:39:54Z</time>
      </trkpt>
      <trkpt lat="45.19762" lon="5.95495">
        <ele>1231.3</ele>
        <time>2026-07-14T13:39:56Z</time>
      </trkpt>
      <trkpt lat="45.19763" lon="5.95494">
        <ele>1230.8</ele>
        <time>2026-07-14T13:39:57Z</time>
      </trkpt>
      <trkpt lat="45.19764" lon="5.95493">
        <ele>1230.5</ele>
        <time>2026-07-14T13:39:58Z</time>
      </trkpt>
      <trkpt lat="45.19764" lon="5.95493">
        <ele>1230.3</ele>
        <time>2026-07-14T13:39:59Z</time>
      </trkpt>
      <trkpt lat="45.19765" lon="5.95494">
        <ele>1230.1</ele>
        <time>2026-07-14T13:40:01Z</time>
      </trkpt>
      <trkpt lat="45.19766" lon="5.95494">
        <ele>1229.8</ele>
        <time>2026-07-14T13:40:02Z</time>
      </trkpt>
      <trkpt lat="45.19767" lon="5.95494">
        <ele>1229.5</ele>
        <time>2026-07-14T13:40:03Z</time>
      </trkpt>
      <trkpt lat="45.19767" lon="5.95494">
        <ele>1229.3</ele>
        <time>2026-07-14T13:40:04Z</time>
      </trkpt>
      <trkpt lat="45.19768" lon="5.95493">
        <ele>1229.1</ele>
        <time>2026-07-14T13:40:05Z</time>
      </trkpt>
      <trkpt lat="45.19768" lon="5.95492">
        <ele>1228.9</ele>
        <time>2026-07-14T13:40:07Z</time>
      </trkpt>
      <trkpt lat="45.19768" lon="5.95492">
        <ele>1228.8</ele>
        <time>2026-07-14T13:40:08Z</time>
      </trkpt>
      <trkpt lat="45.19769" lon="5.95492">
        <ele>1228.4</ele>
        <time>2026-07-14T13:40:09Z</time>
      </trkpt>
      <trkpt lat="45.1977" lon="5.95492">
        <ele>1228.1</ele>
        <time>2026-07-14T13:40:11Z</time>
      </trkpt>
      <trkpt lat="45.19771" lon="5.95491">
        <ele>1227.6</ele>
        <time>2026-07-14T13:40:12Z</time>
      </trkpt>
      <trkpt lat="45.19772" lon="5.9549">
        <ele>1227.3</ele>
        <time>2026-07-14T13:40:13Z</time>
      </trkpt>
      <trkpt lat="45.19773" lon="5.95489">
        <ele>1227.1</ele>
        <time>2026-07-14T13:40:15Z</time>
      </trkpt>
      <trkpt lat="45.19773" lon="5.9549">
        <ele>1227</ele>
        <time>2026-07-14T13:40:16Z</time>
      </trkpt>
      <trkpt lat="45.19773" lon="5.95489">
        <ele>1226.9</ele>
        <time>2026-07-14T13:40:17Z</time>
      </trkpt>
      <trkpt lat="45.19774" lon="5.95489">
        <ele>1226.8</ele>
        <time>2026-07-14T13:40:18Z</time>
      </trkpt>
      <trkpt lat="45.19774" lon="5.95489">
        <ele>1226.7</ele>
        <time>2026-07-14T13:40:19Z</time>
      </trkpt>
      <trkpt lat="45.19774" lon="5.95488">
        <ele>1226.5</ele>
        <time>2026-07-14T13:40:20Z</time>
      </trkpt>
      <trkpt lat="45.19774" lon="5.95486">
        <ele>1226.2</ele>
        <time>2026-07-14T13:40:21Z</time>
      </trkpt>
      <trkpt lat="45.19775" lon="5.95485">
        <ele>1225.9</ele>
        <time>2026-07-14T13:40:22Z</time>
      </trkpt>
      <trkpt lat="45.19775" lon="5.95485">
        <ele>1225.8</ele>
        <time>2026-07-14T13:40:23Z</time>
      </trkpt>
      <trkpt lat="45.19776" lon="5.95484">
        <ele>1225.4</ele>
        <time>2026-07-14T13:40:24Z</time>
      </trkpt>
      <trkpt lat="45.19777" lon="5.95484">
        <ele>1225.2</ele>
        <time>2026-07-14T13:40:25Z</time>
      </trkpt>
      <trkpt lat="45.19777" lon="5.95484">
        <ele>1224.9</ele>
        <time>2026-07-14T13:40:26Z</time>
      </trkpt>
      <trkpt lat="45.19778" lon="5.95484">
        <ele>1224.6</ele>
        <time>2026-07-14T13:40:27Z</time>
      </trkpt>
      <trkpt lat="45.19779" lon="5.95484">
        <ele>1224.4</ele>
        <time>2026-07-14T13:40:28Z</time>
      </trkpt>
      <trkpt lat="45.19781" lon="5.95483">
        <ele>1223.8</ele>
        <time>2026-07-14T13:40:29Z</time>
      </trkpt>
      <trkpt lat="45.19781" lon="5.95482">
        <ele>1223.5</ele>
        <time>2026-07-14T13:40:30Z</time>
      </trkpt>
      <trkpt lat="45.19782" lon="5.95481">
        <ele>1223.2</ele>
        <time>2026-07-14T13:40:32Z</time>
      </trkpt>
      <trkpt lat="45.19783" lon="5.9548">
        <ele>1222.9</ele>
        <time>2026-07-14T13:40:33Z</time>
      </trkpt>
      <trkpt lat="45.19784" lon="5.95479">
        <ele>1222.5</ele>
        <time>2026-07-14T13:40:34Z</time>
      </trkpt>
      <trkpt lat="45.19784" lon="5.95478">
        <ele>1222.2</ele>
        <time>2026-07-14T13:40:35Z</time>
      </trkpt>
      <trkpt lat="45.19786" lon="5.95477">
        <ele>1221.7</ele>
        <time>2026-07-14T13:40:36Z</time>
      </trkpt>
      <trkpt lat="45.19786" lon="5.95476">
        <ele>1221.4</ele>
        <time>2026-07-14T13:40:38Z</time>
      </trkpt>
      <trkpt lat="45.19788" lon="5.95474">
        <ele>1220.8</ele>
        <time>2026-07-14T13:40:39Z</time>
      </trkpt>
      <trkpt lat="45.19789" lon="5.95473">
        <ele>1220.2</ele>
        <time>2026-07-14T13:40:41Z</time>
      </trkpt>
      <trkpt lat="45.1979" lon="5.95473">
        <ele>1220</ele>
        <time>2026-07-14T13:40:43Z</time>
      </trkpt>
      <trkpt lat="45.1979" lon="5.95472">
        <ele>1219.8</ele>
        <time>2026-07-14T13:40:44Z</time>
      </trkpt>
      <trkpt lat="45.19791" lon="5.95471">
        <ele>1219.6</ele>
        <time>2026-07-14T13:40:45Z</time>
      </trkpt>
      <trkpt lat="45.19791" lon="5.9547">
        <ele>1219.4</ele>
        <time>2026-07-14T13:40:46Z</time>
      </trkpt>
      <trkpt lat="45.19791" lon="5.9547">
        <ele>1219.3</ele>
        <time>2026-07-14T13:40:47Z</time>
      </trkpt>
      <trkpt lat="45.19791" lon="5.95469">
        <ele>1219.1</ele>
        <time>2026-07-14T13:40:48Z</time>
      </trkpt>
      <trkpt lat="45.19792" lon="5.95469">
        <ele>1218.8</ele>
        <time>2026-07-14T13:40:49Z</time>
      </trkpt>
      <trkpt lat="45.19792" lon="5.95468">
        <ele>1218.6</ele>
        <time>2026-07-14T13:40:50Z</time>
      </trkpt>
      <trkpt lat="45.19793" lon="5.95468">
        <ele>1218.3</ele>
        <time>2026-07-14T13:40:51Z</time>
      </trkpt>
      <trkpt lat="45.19794" lon="5.95467">
        <ele>1217.9</ele>
        <time>2026-07-14T13:40:52Z</time>
      </trkpt>
      <trkpt lat="45.19795" lon="5.95465">
        <ele>1217.3</ele>
        <time>2026-07-14T13:40:53Z</time>
      </trkpt>
      <trkpt lat="45.19795" lon="5.95464">
        <ele>1217</ele>
        <time>2026-07-14T13:40:55Z</time>
      </trkpt>
      <trkpt lat="45.19796" lon="5.95462">
        <ele>1216.6</ele>
        <time>2026-07-14T13:40:56Z</time>
      </trkpt>
      <trkpt lat="45.19796" lon="5.95461">
        <ele>1216.2</ele>
        <time>2026-07-14T13:40:57Z</time>
      </trkpt>
      <trkpt lat="45.19797" lon="5.9546">
        <ele>1215.9</ele>
        <time>2026-07-14T13:40:58Z</time>
      </trkpt>
      <trkpt lat="45.19798" lon="5.9546">
        <ele>1215.6</ele>
        <time>2026-07-14T13:40:59Z</time>
      </trkpt>
      <trkpt lat="45.19799" lon="5.9546">
        <ele>1215.2</ele>
        <time>2026-07-14T13:41:00Z</time>
      </trkpt>
      <trkpt lat="45.198" lon="5.95459">
        <ele>1214.7</ele>
        <time>2026-07-14T13:41:01Z</time>
      </trkpt>
      <trkpt lat="45.19801" lon="5.95458">
        <ele>1214.5</ele>
        <time>2026-07-14T13:41:03Z</time>
      </trkpt>
      <trkpt lat="45.19801" lon="5.95458">
        <ele>1214.2</ele>
        <time>2026-07-14T13:41:04Z</time>
      </trkpt>
      <trkpt lat="45.19802" lon="5.95457">
        <ele>1213.8</ele>
        <time>2026-07-14T13:41:05Z</time>
      </trkpt>
      <trkpt lat="45.19803" lon="5.95457">
        <ele>1213.6</ele>
        <time>2026-07-14T13:41:06Z</time>
      </trkpt>
      <trkpt lat="45.19803" lon="5.95458">
        <ele>1213.5</ele>
        <time>2026-07-14T13:41:07Z</time>
      </trkpt>
      <trkpt lat="45.19803" lon="5.95458">
        <ele>1213.4</ele>
        <time>2026-07-14T13:41:08Z</time>
      </trkpt>
      <trkpt lat="45.19803" lon="5.95458">
        <ele>1213.3</ele>
        <time>2026-07-14T13:41:09Z</time>
      </trkpt>
      <trkpt lat="45.19805" lon="5.95457">
        <ele>1212.7</ele>
        <time>2026-07-14T13:41:10Z</time>
      </trkpt>
      <trkpt lat="45.19805" lon="5.95458">
        <ele>1212.6</ele>
        <time>2026-07-14T13:41:11Z</time>
      </trkpt>
      <trkpt lat="45.19805" lon="5.95459">
        <ele>1212.3</ele>
        <time>2026-07-14T13:41:13Z</time>
      </trkpt>
      <trkpt lat="45.19806" lon="5.95459">
        <ele>1212.1</ele>
        <time>2026-07-14T13:41:14Z</time>
      </trkpt>
      <trkpt lat="45.19806" lon="5.95458">
        <ele>1212</ele>
        <time>2026-07-14T13:41:15Z</time>
      </trkpt>
      <trkpt lat="45.19806" lon="5.95458">
        <ele>1211.8</ele>
        <time>2026-07-14T13:41:16Z</time>
      </trkpt>
      <trkpt lat="45.19807" lon="5.95457">
        <ele>1211.5</ele>
        <time>2026-07-14T13:41:17Z</time>
      </trkpt>
      <trkpt lat="45.19806" lon="5.95456">
        <ele>1211.3</ele>
        <time>2026-07-14T13:41:18Z</time>
      </trkpt>
      <trkpt lat="45.19807" lon="5.95456">
        <ele>1210.9</ele>
        <time>2026-07-14T13:41:19Z</time>
      </trkpt>
      <trkpt lat="45.19807" lon="5.95455">
        <ele>1210.7</ele>
        <time>2026-07-14T13:41:20Z</time>
      </trkpt>
      <trkpt lat="45.19807" lon="5.95455">
        <ele>1210.5</ele>
        <time>2026-07-14T13:41:21Z</time>
      </trkpt>
      <trkpt lat="45.19807" lon="5.95454">
        <ele>1210.4</ele>
        <time>2026-07-14T13:41:22Z</time>
      </trkpt>
      <trkpt lat="45.19808" lon="5.95454">
        <ele>1210.1</ele>
        <time>2026-07-14T13:41:23Z</time>
      </trkpt>
      <trkpt lat="45.19807" lon="5.95454">
        <ele>1209.8</ele>
        <time>2026-07-14T13:41:25Z</time>
      </trkpt>
      <trkpt lat="45.19807" lon="5.95454">
        <ele>1209.8</ele>
        <time>2026-07-14T13:41:26Z</time>
      </trkpt>
      <trkpt lat="45.19807" lon="5.95455">
        <ele>1209.6</ele>
        <time>2026-07-14T13:41:27Z</time>
      </trkpt>
      <trkpt lat="45.19807" lon="5.95455">
        <ele>1209.4</ele>
        <time>2026-07-14T13:41:28Z</time>
      </trkpt>
      <trkpt lat="45.19806" lon="5.95456">
        <ele>1209</ele>
        <time>2026-07-14T13:41:29Z</time>
      </trkpt>
      <trkpt lat="45.19805" lon="5.95457">
        <ele>1208.5</ele>
        <time>2026-07-14T13:41:31Z</time>
      </trkpt>
      <trkpt lat="45.19804" lon="5.95458">
        <ele>1208.1</ele>
        <time>2026-07-14T13:41:32Z</time>
      </trkpt>
      <trkpt lat="45.19804" lon="5.95458">
        <ele>1208</ele>
        <time>2026-07-14T13:41:33Z</time>
      </trkpt>
      <trkpt lat="45.19804" lon="5.95458">
        <ele>1207.9</ele>
        <time>2026-07-14T13:41:34Z</time>
      </trkpt>
      <trkpt lat="45.19803" lon="5.95459">
        <ele>1207.8</ele>
        <time>2026-07-14T13:41:35Z</time>
      </trkpt>
      <trkpt lat="45.19803" lon="5.95459">
        <ele>1207.7</ele>
        <time>2026-07-14T13:41:36Z</time>
      </trkpt>
      <trkpt lat="45.19803" lon="5.95459">
        <ele>1207.6</ele>
        <time>2026-07-14T13:41:37Z</time>
      </trkpt>
      <trkpt lat="45.19803" lon="5.95459">
        <ele>1207.5</ele>
        <time>2026-07-14T13:41:38Z</time>
      </trkpt>
      <trkpt lat="45.19803" lon="5.95459">
        <ele>1207.5</ele>
        <time>2026-07-14T13:41:39Z</time>
      </trkpt>
      <trkpt lat="45.19803" lon="5.95459">
        <ele>1207.4</ele>
        <time>2026-07-14T13:41:40Z</time>
      </trkpt>
      <trkpt lat="45.19803" lon="5.95459">
        <ele>1207.3</ele>
        <time>2026-07-14T13:41:41Z</time>
      </trkpt>
      <trkpt lat="45.19802" lon="5.95459">
        <ele>1207.2</ele>
        <time>2026-07-14T13:41:42Z</time>
      </trkpt>
      <trkpt lat="45.19802" lon="5.95458">
        <ele>1207.2</ele>
        <time>2026-07-14T13:41:44Z</time>
      </trkpt>
      <trkpt lat="45.19802" lon="5.95458">
        <ele>1207.2</ele>
        <time>2026-07-14T13:41:45Z</time>
      </trkpt>
      <trkpt lat="45.19802" lon="5.95458">
        <ele>1207.2</ele>
        <time>2026-07-14T13:41:46Z</time>
      </trkpt>
      <trkpt lat="45.19802" lon="5.95459">
        <ele>1207.1</ele>
        <time>2026-07-14T13:41:47Z</time>
      </trkpt>
      <trkpt lat="45.19803" lon="5.95459">
        <ele>1207.1</ele>
        <time>2026-07-14T13:41:48Z</time>
      </trkpt>
      <trkpt lat="45.19802" lon="5.95458">
        <ele>1207</ele>
        <time>2026-07-14T13:41:49Z</time>
      </trkpt>
      <trkpt lat="45.19802" lon="5.95458">
        <ele>1207</ele>
        <time>2026-07-14T13:41:50Z</time>
      </trkpt>
      <trkpt lat="45.19802" lon="5.95459">
        <ele>1207</ele>
        <time>2026-07-14T13:41:51Z</time>
      </trkpt>
      <trkpt lat="45.19802" lon="5.95459">
        <ele>1207</ele>
        <time>2026-07-14T13:41:52Z</time>
      </trkpt>
      <trkpt lat="45.19802" lon="5.95458">
        <ele>1206.9</ele>
        <time>2026-07-14T13:41:53Z</time>
      </trkpt>
      <trkpt lat="45.19803" lon="5.95458">
        <ele>1206.9</ele>
        <time>2026-07-14T13:41:54Z</time>
      </trkpt>
      <trkpt lat="45.19803" lon="5.95458">
        <ele>1206.9</ele>
        <time>2026-07-14T13:41:55Z</time>
      </trkpt>
      <trkpt lat="45.19803" lon="5.95458">
        <ele>1206.8</ele>
        <time>2026-07-14T13:41:56Z</time>
      </trkpt>
      <trkpt lat="45.19802" lon="5.95457">
        <ele>1206.5</ele>
        <time>2026-07-14T13:41:57Z</time>
      </trkpt>
      <trkpt lat="45.19801" lon="5.95456">
        <ele>1206.1</ele>
        <time>2026-07-14T13:41:58Z</time>
      </trkpt>
      <trkpt lat="45.198" lon="5.95456">
        <ele>1205.8</ele>
        <time>2026-07-14T13:41:59Z</time>
      </trkpt>
      <trkpt lat="45.198" lon="5.95455">
        <ele>1205.7</ele>
        <time>2026-07-14T13:42:00Z</time>
      </trkpt>
      <trkpt lat="45.198" lon="5.95455">
        <ele>1205.7</ele>
        <time>2026-07-14T13:42:01Z</time>
      </trkpt>
      <trkpt lat="45.198" lon="5.95455">
        <ele>1205.7</ele>
        <time>2026-07-14T13:42:02Z</time>
      </trkpt>
      <trkpt lat="45.198" lon="5.95455">
        <ele>1205.7</ele>
        <time>2026-07-14T13:42:03Z</time>
      </trkpt>
      <trkpt lat="45.198" lon="5.95455">
        <ele>1205.7</ele>
        <time>2026-07-14T13:42:04Z</time>
      </trkpt>
      <trkpt lat="45.198" lon="5.95455">
        <ele>1205.6</ele>
        <time>2026-07-14T13:42:05Z</time>
      </trkpt>
      <trkpt lat="45.198" lon="5.95455">
        <ele>1205.6</ele>
        <time>2026-07-14T13:42:06Z</time>
      </trkpt>
      <trkpt lat="45.198" lon="5.95455">
        <ele>1205.6</ele>
        <time>2026-07-14T13:42:07Z</time>
      </trkpt>
      <trkpt lat="45.198" lon="5.95455">
        <ele>1205.6</ele>
        <time>2026-07-14T13:42:08Z</time>
      </trkpt>
      <trkpt lat="45.198" lon="5.95455">
        <ele>1205.5</ele>
        <time>2026-07-14T13:42:09Z</time>
      </trkpt>
      <trkpt lat="45.198" lon="5.95455">
        <ele>1205.5</ele>
        <time>2026-07-14T13:42:10Z</time>
      </trkpt>
      <trkpt lat="45.19801" lon="5.95455">
        <ele>1205.4</ele>
        <time>2026-07-14T13:42:11Z</time>
      </trkpt>
      <trkpt lat="45.19801" lon="5.95454">
        <ele>1205.1</ele>
        <time>2026-07-14T13:42:12Z</time>
      </trkpt>
      <trkpt lat="45.19803" lon="5.95453">
        <ele>1204.4</ele>
        <time>2026-07-14T13:42:13Z</time>
      </trkpt>
      <trkpt lat="45.19806" lon="5.95452">
        <ele>1203.5</ele>
        <time>2026-07-14T13:42:14Z</time>
      </trkpt>
      <trkpt lat="45.19806" lon="5.95451">
        <ele>1203.2</ele>
        <time>2026-07-14T13:42:15Z</time>
      </trkpt>
      <trkpt lat="45.19807" lon="5.95451">
        <ele>1202.9</ele>
        <time>2026-07-14T13:42:16Z</time>
      </trkpt>
      <trkpt lat="45.19808" lon="5.95451">
        <ele>1202.5</ele>
        <time>2026-07-14T13:42:17Z</time>
      </trkpt>
      <trkpt lat="45.19809" lon="5.95451">
        <ele>1202.2</ele>
        <time>2026-07-14T13:42:18Z</time>
      </trkpt>
      <trkpt lat="45.1981" lon="5.95452">
        <ele>1201.8</ele>
        <time>2026-07-14T13:42:19Z</time>
      </trkpt>
      <trkpt lat="45.19811" lon="5.95453">
        <ele>1201.5</ele>
        <time>2026-07-14T13:42:20Z</time>
      </trkpt>
      <trkpt lat="45.19812" lon="5.95453">
        <ele>1201.1</ele>
        <time>2026-07-14T13:42:21Z</time>
      </trkpt>
      <trkpt lat="45.19813" lon="5.95453">
        <ele>1201</ele>
        <time>2026-07-14T13:42:22Z</time>
      </trkpt>
      <trkpt lat="45.19813" lon="5.95453">
        <ele>1200.9</ele>
        <time>2026-07-14T13:42:23Z</time>
      </trkpt>
      <trkpt lat="45.19813" lon="5.95452">
        <ele>1200.7</ele>
        <time>2026-07-14T13:42:24Z</time>
      </trkpt>
      <trkpt lat="45.19813" lon="5.95451">
        <ele>1200.5</ele>
        <time>2026-07-14T13:42:25Z</time>
      </trkpt>
      <trkpt lat="45.19814" lon="5.95451">
        <ele>1200.3</ele>
        <time>2026-07-14T13:42:26Z</time>
      </trkpt>
      <trkpt lat="45.19812" lon="5.95448">
        <ele>1199.6</ele>
        <time>2026-07-14T13:42:27Z</time>
      </trkpt>
      <trkpt lat="45.19812" lon="5.95448">
        <ele>1199.6</ele>
        <time>2026-07-14T13:42:29Z</time>
      </trkpt>
      <trkpt lat="45.19812" lon="5.95448">
        <ele>1199.6</ele>
        <time>2026-07-14T13:42:30Z</time>
      </trkpt>
      <trkpt lat="45.19813" lon="5.95447">
        <ele>1199.1</ele>
        <time>2026-07-14T13:42:31Z</time>
      </trkpt>
      <trkpt lat="45.19813" lon="5.95447">
        <ele>1199.1</ele>
        <time>2026-07-14T13:42:32Z</time>
      </trkpt>
      <trkpt lat="45.19813" lon="5.95447">
        <ele>1199.1</ele>
        <time>2026-07-14T13:42:33Z</time>
      </trkpt>
      <trkpt lat="45.19814" lon="5.95446">
        <ele>1198.7</ele>
        <time>2026-07-14T13:42:34Z</time>
      </trkpt>
      <trkpt lat="45.19814" lon="5.95446">
        <ele>1198.7</ele>
        <time>2026-07-14T13:42:35Z</time>
      </trkpt>
      <trkpt lat="45.19814" lon="5.95446">
        <ele>1198.7</ele>
        <time>2026-07-14T13:42:36Z</time>
      </trkpt>
      <trkpt lat="45.19815" lon="5.95445">
        <ele>1198.3</ele>
        <time>2026-07-14T13:42:38Z</time>
      </trkpt>
      <trkpt lat="45.19815" lon="5.95445">
        <ele>1198.3</ele>
        <time>2026-07-14T13:42:40Z</time>
      </trkpt>
      <trkpt lat="45.19815" lon="5.95445">
        <ele>1198.3</ele>
        <time>2026-07-14T13:42:41Z</time>
      </trkpt>
      <trkpt lat="45.19816" lon="5.95444">
        <ele>1197.8</ele>
        <time>2026-07-14T13:42:42Z</time>
      </trkpt>
      <trkpt lat="45.19816" lon="5.95444">
        <ele>1197.8</ele>
        <time>2026-07-14T13:42:43Z</time>
      </trkpt>
      <trkpt lat="45.19816" lon="5.95444">
        <ele>1197.8</ele>
        <time>2026-07-14T13:42:44Z</time>
      </trkpt>
      <trkpt lat="45.19816" lon="5.95444">
        <ele>1197.8</ele>
        <time>2026-07-14T13:42:45Z</time>
      </trkpt>
      <trkpt lat="45.19816" lon="5.95444">
        <ele>1197.8</ele>
        <time>2026-07-14T13:42:46Z</time>
      </trkpt>
      <trkpt lat="45.19816" lon="5.95444">
        <ele>1197.8</ele>
        <time>2026-07-14T13:42:47Z</time>
      </trkpt>
      <trkpt lat="45.19816" lon="5.95444">
        <ele>1197.8</ele>
        <time>2026-07-14T13:42:48Z</time>
      </trkpt>
      <trkpt lat="45.19816" lon="5.95444">
        <ele>1197.8</ele>
        <time>2026-07-14T13:42:49Z</time>
      </trkpt>
      <trkpt lat="45.19816" lon="5.95444">
        <ele>1197.8</ele>
        <time>2026-07-14T13:42:50Z</time>
      </trkpt>
      <trkpt lat="45.19816" lon="5.95444">
        <ele>1197.8</ele>
        <time>2026-07-14T13:42:52Z</time>
      </trkpt>
      <trkpt lat="45.19816" lon="5.95444">
        <ele>1197.8</ele>
        <time>2026-07-14T13:42:53Z</time>
      </trkpt>
      <trkpt lat="45.19816" lon="5.95444">
        <ele>1197.8</ele>
        <time>2026-07-14T13:42:54Z</time>
      </trkpt>
      <trkpt lat="45.19816" lon="5.95444">
        <ele>1197.8</ele>
        <time>2026-07-14T13:42:55Z</time>
      </trkpt>
      <trkpt lat="45.19816" lon="5.95444">
        <ele>1197.8</ele>
        <time>2026-07-14T13:42:56Z</time>
      </trkpt>
      <trkpt lat="45.19816" lon="5.95444">
        <ele>1197.8</ele>
        <time>2026-07-14T13:42:57Z</time>
      </trkpt>
      <trkpt lat="45.19816" lon="5.95444">
        <ele>1197.8</ele>
        <time>2026-07-14T13:42:58Z</time>
      </trkpt>
      <trkpt lat="45.19816" lon="5.95444">
        <ele>1197.8</ele>
        <time>2026-07-14T13:42:59Z</time>
      </trkpt>
      <trkpt lat="45.19816" lon="5.95444">
        <ele>1197.8</ele>
        <time>2026-07-14T13:43:00Z</time>
      </trkpt>
      <trkpt lat="45.19816" lon="5.95444">
        <ele>1197.8</ele>
        <time>2026-07-14T13:43:01Z</time>
      </trkpt>
      <trkpt lat="45.19816" lon="5.95444">
        <ele>1197.8</ele>
        <time>2026-07-14T13:43:02Z</time>
      </trkpt>
      <trkpt lat="45.19816" lon="5.95444">
        <ele>1197.8</ele>
        <time>2026-07-14T13:43:03Z</time>
      </trkpt>
      <trkpt lat="45.19816" lon="5.95444">
        <ele>1197.8</ele>
        <time>2026-07-14T13:43:04Z</time>
      </trkpt>
      <trkpt lat="45.19816" lon="5.95444">
        <ele>1197.8</ele>
        <time>2026-07-14T13:43:05Z</time>
      </trkpt>
      <trkpt lat="45.19816" lon="5.95444">
        <ele>1197.8</ele>
        <time>2026-07-14T13:43:06Z</time>
      </trkpt>
      <trkpt lat="45.19816" lon="5.95444">
        <ele>1197.8</ele>
        <time>2026-07-14T13:43:07Z</time>
      </trkpt>
      <trkpt lat="45.19816" lon="5.95444">
        <ele>1197.8</ele>
        <time>2026-07-14T13:43:08Z</time>
      </trkpt>
      <trkpt lat="45.19816" lon="5.95444">
        <ele>1197.8</ele>
        <time>2026-07-14T13:43:09Z</time>
      </trkpt>
      <trkpt lat="45.19816" lon="5.95444">
        <ele>1197.8</ele>
        <time>2026-07-14T13:43:10Z</time>
      </trkpt>
      <trkpt lat="45.19816" lon="5.95444">
        <ele>1197.8</ele>
        <time>2026-07-14T13:43:11Z</time>
      </trkpt>
      <trkpt lat="45.19816" lon="5.95444">
        <ele>1197.8</ele>
        <time>2026-07-14T13:43:12Z</time>
      </trkpt>
      <trkpt lat="45.19816" lon="5.95444">
        <ele>1197.8</ele>
        <time>2026-07-14T13:43:13Z</time>
      </trkpt>
      <trkpt lat="45.19816" lon="5.95444">
        <ele>1197.8</ele>
        <time>2026-07-14T13:43:14Z</time>
      </trkpt>
      <trkpt lat="45.19816" lon="5.95444">
        <ele>1197.8</ele>
        <time>2026-07-14T13:43:15Z</time>
      </trkpt>
      <trkpt lat="45.19816" lon="5.95444">
        <ele>1197.8</ele>
        <time>2026-07-14T13:43:16Z</time>
      </trkpt>
      <trkpt lat="45.19816" lon="5.95444">
        <ele>1197.8</ele>
        <time>2026-07-14T13:43:17Z</time>
      </trkpt>
      <trkpt lat="45.19816" lon="5.95444">
        <ele>1197.8</ele>
        <time>2026-07-14T13:43:18Z</time>
      </trkpt>
      <trkpt lat="45.19817" lon="5.95443">
        <ele>1197.4</ele>
        <time>2026-07-14T13:43:19Z</time>
      </trkpt>
      <trkpt lat="45.19817" lon="5.95443">
        <ele>1197.4</ele>
        <time>2026-07-14T13:43:20Z</time>
      </trkpt>
      <trkpt lat="45.19817" lon="5.95443">
        <ele>1197.4</ele>
        <time>2026-07-14T13:43:21Z</time>
      </trkpt>
      <trkpt lat="45.19817" lon="5.95443">
        <ele>1197.4</ele>
        <time>2026-07-14T13:43:22Z</time>
      </trkpt>
      <trkpt lat="45.19817" lon="5.95443">
        <ele>1197.4</ele>
        <time>2026-07-14T13:43:23Z</time>
      </trkpt>
      <trkpt lat="45.19817" lon="5.95443">
        <ele>1197.4</ele>
        <time>2026-07-14T13:43:24Z</time>
      </trkpt>
      <trkpt lat="45.19817" lon="5.95443">
        <ele>1197.4</ele>
        <time>2026-07-14T13:43:25Z</time>
      </trkpt>
      <trkpt lat="45.19817" lon="5.95443">
        <ele>1197.4</ele>
        <time>2026-07-14T13:43:26Z</time>
      </trkpt>
      <trkpt lat="45.19817" lon="5.95443">
        <ele>1197.4</ele>
        <time>2026-07-14T13:43:27Z</time>
      </trkpt>
      <trkpt lat="45.19819" lon="5.95441">
        <ele>1197</ele>
        <time>2026-07-14T13:43:28Z</time>
      </trkpt>
      <trkpt lat="45.19819" lon="5.95441">
        <ele>1197</ele>
        <time>2026-07-14T13:43:29Z</time>
      </trkpt>
      <trkpt lat="45.19819" lon="5.95441">
        <ele>1197</ele>
        <time>2026-07-14T13:43:30Z</time>
      </trkpt>
      <trkpt lat="45.1982" lon="5.9544">
        <ele>1196.5</ele>
        <time>2026-07-14T13:43:31Z</time>
      </trkpt>
      <trkpt lat="45.1982" lon="5.9544">
        <ele>1196.5</ele>
        <time>2026-07-14T13:43:32Z</time>
      </trkpt>
      <trkpt lat="45.1982" lon="5.9544">
        <ele>1196.5</ele>
        <time>2026-07-14T13:43:33Z</time>
      </trkpt>
      <trkpt lat="45.1982" lon="5.9544">
        <ele>1196.5</ele>
        <time>2026-07-14T13:43:34Z</time>
      </trkpt>
      <trkpt lat="45.1982" lon="5.9544">
        <ele>1196.5</ele>
        <time>2026-07-14T13:43:35Z</time>
      </trkpt>
      <trkpt lat="45.19821" lon="5.95439">
        <ele>1196.1</ele>
        <time>2026-07-14T13:43:36Z</time>
      </trkpt>
      <trkpt lat="45.19821" lon="5.95439">
        <ele>1196.1</ele>
        <time>2026-07-14T13:43:37Z</time>
      </trkpt>
      <trkpt lat="45.19821" lon="5.95439">
        <ele>1196.1</ele>
        <time>2026-07-14T13:43:38Z</time>
      </trkpt>
      <trkpt lat="45.19822" lon="5.95438">
        <ele>1195.7</ele>
        <time>2026-07-14T13:43:39Z</time>
      </trkpt>
      <trkpt lat="45.19823" lon="5.95437">
        <ele>1195.3</ele>
        <time>2026-07-14T13:43:40Z</time>
      </trkpt>
      <trkpt lat="45.19823" lon="5.95436">
        <ele>1195</ele>
        <time>2026-07-14T13:43:41Z</time>
      </trkpt>
      <trkpt lat="45.19824" lon="5.95435">
        <ele>1194.7</ele>
        <time>2026-07-14T13:43:42Z</time>
      </trkpt>
      <trkpt lat="45.19825" lon="5.95435">
        <ele>1194.4</ele>
        <time>2026-07-14T13:43:44Z</time>
      </trkpt>
      <trkpt lat="45.19826" lon="5.95435">
        <ele>1194.1</ele>
        <time>2026-07-14T13:43:45Z</time>
      </trkpt>
      <trkpt lat="45.19827" lon="5.95435">
        <ele>1193.9</ele>
        <time>2026-07-14T13:43:46Z</time>
      </trkpt>
      <trkpt lat="45.19828" lon="5.95435">
        <ele>1193.5</ele>
        <time>2026-07-14T13:43:47Z</time>
      </trkpt>
      <trkpt lat="45.19829" lon="5.95434">
        <ele>1193.2</ele>
        <time>2026-07-14T13:43:48Z</time>
      </trkpt>
      <trkpt lat="45.1983" lon="5.95433">
        <ele>1192.6</ele>
        <time>2026-07-14T13:43:49Z</time>
      </trkpt>
      <trkpt lat="45.19831" lon="5.95433">
        <ele>1192.3</ele>
        <time>2026-07-14T13:43:50Z</time>
      </trkpt>
      <trkpt lat="45.19832" lon="5.95432">
        <ele>1192</ele>
        <time>2026-07-14T13:43:51Z</time>
      </trkpt>
      <trkpt lat="45.19833" lon="5.95432">
        <ele>1191.7</ele>
        <time>2026-07-14T13:43:52Z</time>
      </trkpt>
      <trkpt lat="45.19834" lon="5.95431">
        <ele>1191.3</ele>
        <time>2026-07-14T13:43:53Z</time>
      </trkpt>
      <trkpt lat="45.19835" lon="5.9543">
        <ele>1191</ele>
        <time>2026-07-14T13:43:55Z</time>
      </trkpt>
      <trkpt lat="45.19837" lon="5.95429">
        <ele>1190.4</ele>
        <time>2026-07-14T13:43:56Z</time>
      </trkpt>
      <trkpt lat="45.19837" lon="5.95429">
        <ele>1190.1</ele>
        <time>2026-07-14T13:43:57Z</time>
      </trkpt>
      <trkpt lat="45.19839" lon="5.95428">
        <ele>1189.6</ele>
        <time>2026-07-14T13:43:59Z</time>
      </trkpt>
      <trkpt lat="45.19839" lon="5.95427">
        <ele>1189.4</ele>
        <time>2026-07-14T13:44:00Z</time>
      </trkpt>
      <trkpt lat="45.1984" lon="5.95428">
        <ele>1189.1</ele>
        <time>2026-07-14T13:44:01Z</time>
      </trkpt>
      <trkpt lat="45.19841" lon="5.95429">
        <ele>1188.8</ele>
        <time>2026-07-14T13:44:02Z</time>
      </trkpt>
      <trkpt lat="45.19841" lon="5.9543">
        <ele>1188.6</ele>
        <time>2026-07-14T13:44:03Z</time>
      </trkpt>
      <trkpt lat="45.19842" lon="5.95431">
        <ele>1188.3</ele>
        <time>2026-07-14T13:44:04Z</time>
      </trkpt>
      <trkpt lat="45.19842" lon="5.95432">
        <ele>1188.1</ele>
        <time>2026-07-14T13:44:05Z</time>
      </trkpt>
      <trkpt lat="45.19843" lon="5.95433">
        <ele>1187.8</ele>
        <time>2026-07-14T13:44:06Z</time>
      </trkpt>
      <trkpt lat="45.19843" lon="5.95434">
        <ele>1187.5</ele>
        <time>2026-07-14T13:44:07Z</time>
      </trkpt>
      <trkpt lat="45.19844" lon="5.95434">
        <ele>1187.4</ele>
        <time>2026-07-14T13:44:09Z</time>
      </trkpt>
      <trkpt lat="45.19845" lon="5.95433">
        <ele>1186.9</ele>
        <time>2026-07-14T13:44:10Z</time>
      </trkpt>
      <trkpt lat="45.19845" lon="5.95429">
        <ele>1186.2</ele>
        <time>2026-07-14T13:44:12Z</time>
      </trkpt>
      <trkpt lat="45.19845" lon="5.95427">
        <ele>1185.7</ele>
        <time>2026-07-14T13:44:13Z</time>
      </trkpt>
      <trkpt lat="45.19844" lon="5.95422">
        <ele>1184.5</ele>
        <time>2026-07-14T13:44:14Z</time>
      </trkpt>
      <trkpt lat="45.19844" lon="5.95419">
        <ele>1184.1</ele>
        <time>2026-07-14T13:44:15Z</time>
      </trkpt>
      <trkpt lat="45.19845" lon="5.95417">
        <ele>1183.6</ele>
        <time>2026-07-14T13:44:16Z</time>
      </trkpt>
      <trkpt lat="45.19845" lon="5.95416">
        <ele>1183.2</ele>
        <time>2026-07-14T13:44:18Z</time>
      </trkpt>
      <trkpt lat="45.19846" lon="5.95414">
        <ele>1182.9</ele>
        <time>2026-07-14T13:44:19Z</time>
      </trkpt>
      <trkpt lat="45.19846" lon="5.95413">
        <ele>1182.5</ele>
        <time>2026-07-14T13:44:20Z</time>
      </trkpt>
      <trkpt lat="45.19848" lon="5.95411">
        <ele>1182</ele>
        <time>2026-07-14T13:44:21Z</time>
      </trkpt>
      <trkpt lat="45.19849" lon="5.95409">
        <ele>1181.5</ele>
        <time>2026-07-14T13:44:23Z</time>
      </trkpt>
      <trkpt lat="45.19849" lon="5.95408">
        <ele>1181.3</ele>
        <time>2026-07-14T13:44:24Z</time>
      </trkpt>
      <trkpt lat="45.1985" lon="5.95408">
        <ele>1181.2</ele>
        <time>2026-07-14T13:44:25Z</time>
      </trkpt>
      <trkpt lat="45.19851" lon="5.95407">
        <ele>1180.8</ele>
        <time>2026-07-14T13:44:27Z</time>
      </trkpt>
      <trkpt lat="45.19851" lon="5.95406">
        <ele>1180.5</ele>
        <time>2026-07-14T13:44:28Z</time>
      </trkpt>
      <trkpt lat="45.19853" lon="5.95406">
        <ele>1180.2</ele>
        <time>2026-07-14T13:44:29Z</time>
      </trkpt>
      <trkpt lat="45.19853" lon="5.95405">
        <ele>1180</ele>
        <time>2026-07-14T13:44:31Z</time>
      </trkpt>
      <trkpt lat="45.19853" lon="5.95403">
        <ele>1179.7</ele>
        <time>2026-07-14T13:44:32Z</time>
      </trkpt>
      <trkpt lat="45.19854" lon="5.95403">
        <ele>1179.5</ele>
        <time>2026-07-14T13:44:34Z</time>
      </trkpt>
      <trkpt lat="45.19853" lon="5.95402">
        <ele>1179.4</ele>
        <time>2026-07-14T13:44:35Z</time>
      </trkpt>
      <trkpt lat="45.19853" lon="5.95401">
        <ele>1179.3</ele>
        <time>2026-07-14T13:44:36Z</time>
      </trkpt>
      <trkpt lat="45.19853" lon="5.95401">
        <ele>1179.1</ele>
        <time>2026-07-14T13:44:37Z</time>
      </trkpt>
      <trkpt lat="45.19854" lon="5.95399">
        <ele>1178.7</ele>
        <time>2026-07-14T13:44:38Z</time>
      </trkpt>
      <trkpt lat="45.19855" lon="5.95398">
        <ele>1178.4</ele>
        <time>2026-07-14T13:44:39Z</time>
      </trkpt>
      <trkpt lat="45.19856" lon="5.95396">
        <ele>1178</ele>
        <time>2026-07-14T13:44:40Z</time>
      </trkpt>
      <trkpt lat="45.19855" lon="5.95395">
        <ele>1177.6</ele>
        <time>2026-07-14T13:44:41Z</time>
      </trkpt>
      <trkpt lat="45.19855" lon="5.95392">
        <ele>1177.2</ele>
        <time>2026-07-14T13:44:42Z</time>
      </trkpt>
      <trkpt lat="45.19856" lon="5.95391">
        <ele>1176.8</ele>
        <time>2026-07-14T13:44:43Z</time>
      </trkpt>
      <trkpt lat="45.19856" lon="5.95389">
        <ele>1176.4</ele>
        <time>2026-07-14T13:44:45Z</time>
      </trkpt>
      <trkpt lat="45.19856" lon="5.95388">
        <ele>1176.2</ele>
        <time>2026-07-14T13:44:46Z</time>
      </trkpt>
      <trkpt lat="45.19856" lon="5.95388">
        <ele>1176.2</ele>
        <time>2026-07-14T13:44:47Z</time>
      </trkpt>
      <trkpt lat="45.19855" lon="5.95388">
        <ele>1175.9</ele>
        <time>2026-07-14T13:44:48Z</time>
      </trkpt>
      <trkpt lat="45.19854" lon="5.95389">
        <ele>1175.4</ele>
        <time>2026-07-14T13:44:49Z</time>
      </trkpt>
      <trkpt lat="45.19854" lon="5.95391">
        <ele>1175.1</ele>
        <time>2026-07-14T13:44:51Z</time>
      </trkpt>
      <trkpt lat="45.19854" lon="5.95393">
        <ele>1174.7</ele>
        <time>2026-07-14T13:44:52Z</time>
      </trkpt>
      <trkpt lat="45.19853" lon="5.95394">
        <ele>1174.4</ele>
        <time>2026-07-14T13:44:53Z</time>
      </trkpt>
      <trkpt lat="45.19853" lon="5.95395">
        <ele>1174.3</ele>
        <time>2026-07-14T13:44:54Z</time>
      </trkpt>
      <trkpt lat="45.19852" lon="5.95395">
        <ele>1174</ele>
        <time>2026-07-14T13:44:55Z</time>
      </trkpt>
      <trkpt lat="45.19852" lon="5.95395">
        <ele>1174</ele>
        <time>2026-07-14T13:44:56Z</time>
      </trkpt>
      <trkpt lat="45.19852" lon="5.95395">
        <ele>1174</ele>
        <time>2026-07-14T13:44:57Z</time>
      </trkpt>
      <trkpt lat="45.19852" lon="5.95395">
        <ele>1173.9</ele>
        <time>2026-07-14T13:44:58Z</time>
      </trkpt>
      <trkpt lat="45.19852" lon="5.95395">
        <ele>1173.9</ele>
        <time>2026-07-14T13:44:59Z</time>
      </trkpt>
      <trkpt lat="45.19852" lon="5.95395">
        <ele>1173.9</ele>
        <time>2026-07-14T13:45:00Z</time>
      </trkpt>
      <trkpt lat="45.19852" lon="5.95395">
        <ele>1173.9</ele>
        <time>2026-07-14T13:45:01Z</time>
      </trkpt>
      <trkpt lat="45.19852" lon="5.95395">
        <ele>1173.9</ele>
        <time>2026-07-14T13:45:02Z</time>
      </trkpt>
      <trkpt lat="45.19852" lon="5.95395">
        <ele>1173.8</ele>
        <time>2026-07-14T13:45:03Z</time>
      </trkpt>
      <trkpt lat="45.19852" lon="5.95395">
        <ele>1173.8</ele>
        <time>2026-07-14T13:45:04Z</time>
      </trkpt>
      <trkpt lat="45.1985" lon="5.95397">
        <ele>1173.2</ele>
        <time>2026-07-14T13:45:05Z</time>
      </trkpt>
      <trkpt lat="45.19848" lon="5.95397">
        <ele>1172.7</ele>
        <time>2026-07-14T13:45:07Z</time>
      </trkpt>
      <trkpt lat="45.19847" lon="5.95394">
        <ele>1171.9</ele>
        <time>2026-07-14T13:45:08Z</time>
      </trkpt>
      <trkpt lat="45.19846" lon="5.95392">
        <ele>1171.6</ele>
        <time>2026-07-14T13:45:09Z</time>
      </trkpt>
      <trkpt lat="45.19846" lon="5.95393">
        <ele>1171.5</ele>
        <time>2026-07-14T13:45:11Z</time>
      </trkpt>
      <trkpt lat="45.19845" lon="5.95394">
        <ele>1171.3</ele>
        <time>2026-07-14T13:45:12Z</time>
      </trkpt>
      <trkpt lat="45.19844" lon="5.95395">
        <ele>1170.9</ele>
        <time>2026-07-14T13:45:13Z</time>
      </trkpt>
      <trkpt lat="45.19843" lon="5.95396">
        <ele>1170.6</ele>
        <time>2026-07-14T13:45:14Z</time>
      </trkpt>
      <trkpt lat="45.19842" lon="5.95396">
        <ele>1170.3</ele>
        <time>2026-07-14T13:45:15Z</time>
      </trkpt>
      <trkpt lat="45.19841" lon="5.95396">
        <ele>1170.1</ele>
        <time>2026-07-14T13:45:16Z</time>
      </trkpt>
      <trkpt lat="45.19841" lon="5.95396">
        <ele>1169.9</ele>
        <time>2026-07-14T13:45:17Z</time>
      </trkpt>
      <trkpt lat="45.19841" lon="5.95394">
        <ele>1169.7</ele>
        <time>2026-07-14T13:45:18Z</time>
      </trkpt>
      <trkpt lat="45.19842" lon="5.95391">
        <ele>1169.1</ele>
        <time>2026-07-14T13:45:19Z</time>
      </trkpt>
      <trkpt lat="45.19842" lon="5.9539">
        <ele>1168.9</ele>
        <time>2026-07-14T13:45:21Z</time>
      </trkpt>
      <trkpt lat="45.19841" lon="5.9539">
        <ele>1168.7</ele>
        <time>2026-07-14T13:45:22Z</time>
      </trkpt>
      <trkpt lat="45.19841" lon="5.9539">
        <ele>1168.5</ele>
        <time>2026-07-14T13:45:24Z</time>
      </trkpt>
      <trkpt lat="45.1984" lon="5.95391">
        <ele>1168.3</ele>
        <time>2026-07-14T13:45:25Z</time>
      </trkpt>
      <trkpt lat="45.19839" lon="5.95391">
        <ele>1168.1</ele>
        <time>2026-07-14T13:45:26Z</time>
      </trkpt>
      <trkpt lat="45.19838" lon="5.9539">
        <ele>1167.9</ele>
        <time>2026-07-14T13:45:27Z</time>
      </trkpt>
      <trkpt lat="45.19839" lon="5.95388">
        <ele>1167.6</ele>
        <time>2026-07-14T13:45:28Z</time>
      </trkpt>
      <trkpt lat="45.19839" lon="5.95385">
        <ele>1167.1</ele>
        <time>2026-07-14T13:45:29Z</time>
      </trkpt>
      <trkpt lat="45.19841" lon="5.95383">
        <ele>1166.7</ele>
        <time>2026-07-14T13:45:31Z</time>
      </trkpt>
      <trkpt lat="45.19843" lon="5.9538">
        <ele>1166.1</ele>
        <time>2026-07-14T13:45:32Z</time>
      </trkpt>
      <trkpt lat="45.19845" lon="5.95379">
        <ele>1165.9</ele>
        <time>2026-07-14T13:45:33Z</time>
      </trkpt>
      <trkpt lat="45.19846" lon="5.95378">
        <ele>1165.7</ele>
        <time>2026-07-14T13:45:34Z</time>
      </trkpt>
      <trkpt lat="45.19847" lon="5.95377">
        <ele>1165.6</ele>
        <time>2026-07-14T13:45:35Z</time>
      </trkpt>
      <trkpt lat="45.19846" lon="5.95376">
        <ele>1165.4</ele>
        <time>2026-07-14T13:45:36Z</time>
      </trkpt>
      <trkpt lat="45.19845" lon="5.95375">
        <ele>1165.4</ele>
        <time>2026-07-14T13:45:38Z</time>
      </trkpt>
      <trkpt lat="45.19845" lon="5.95375">
        <ele>1165.2</ele>
        <time>2026-07-14T13:45:39Z</time>
      </trkpt>
      <trkpt lat="45.19845" lon="5.95374">
        <ele>1165.2</ele>
        <time>2026-07-14T13:45:40Z</time>
      </trkpt>
      <trkpt lat="45.19845" lon="5.95373">
        <ele>1165.2</ele>
        <time>2026-07-14T13:45:41Z</time>
      </trkpt>
      <trkpt lat="45.19845" lon="5.95372">
        <ele>1165.1</ele>
        <time>2026-07-14T13:45:42Z</time>
      </trkpt>
      <trkpt lat="45.19846" lon="5.95371">
        <ele>1165.1</ele>
        <time>2026-07-14T13:45:43Z</time>
      </trkpt>
      <trkpt lat="45.19846" lon="5.9537">
        <ele>1165</ele>
        <time>2026-07-14T13:45:44Z</time>
      </trkpt>
      <trkpt lat="45.19847" lon="5.95369">
        <ele>1165</ele>
        <time>2026-07-14T13:45:45Z</time>
      </trkpt>
      <trkpt lat="45.19847" lon="5.95368">
        <ele>1164.9</ele>
        <time>2026-07-14T13:45:46Z</time>
      </trkpt>
      <trkpt lat="45.19848" lon="5.95366">
        <ele>1164.8</ele>
        <time>2026-07-14T13:45:47Z</time>
      </trkpt>
      <trkpt lat="45.19848" lon="5.95365">
        <ele>1164.8</ele>
        <time>2026-07-14T13:45:49Z</time>
      </trkpt>
      <trkpt lat="45.19848" lon="5.95364">
        <ele>1164.8</ele>
        <time>2026-07-14T13:45:50Z</time>
      </trkpt>
      <trkpt lat="45.19848" lon="5.95363">
        <ele>1164.8</ele>
        <time>2026-07-14T13:45:51Z</time>
      </trkpt>
      <trkpt lat="45.19848" lon="5.95362">
        <ele>1164.8</ele>
        <time>2026-07-14T13:45:52Z</time>
      </trkpt>
      <trkpt lat="45.19849" lon="5.95361">
        <ele>1164.8</ele>
        <time>2026-07-14T13:45:53Z</time>
      </trkpt>
      <trkpt lat="45.19849" lon="5.95362">
        <ele>1164.8</ele>
        <time>2026-07-14T13:45:54Z</time>
      </trkpt>
      <trkpt lat="45.1985" lon="5.95361">
        <ele>1164.8</ele>
        <time>2026-07-14T13:45:55Z</time>
      </trkpt>
      <trkpt lat="45.1985" lon="5.95361">
        <ele>1164.8</ele>
        <time>2026-07-14T13:45:56Z</time>
      </trkpt>
      <trkpt lat="45.19851" lon="5.95359">
        <ele>1164.8</ele>
        <time>2026-07-14T13:45:57Z</time>
      </trkpt>
      <trkpt lat="45.19852" lon="5.95358">
        <ele>1164.8</ele>
        <time>2026-07-14T13:45:59Z</time>
      </trkpt>
      <trkpt lat="45.19853" lon="5.95358">
        <ele>1164.9</ele>
        <time>2026-07-14T13:46:00Z</time>
      </trkpt>
      <trkpt lat="45.19856" lon="5.95359">
        <ele>1164.9</ele>
        <time>2026-07-14T13:46:01Z</time>
      </trkpt>
      <trkpt lat="45.19857" lon="5.95359">
        <ele>1165</ele>
        <time>2026-07-14T13:46:03Z</time>
      </trkpt>
      <trkpt lat="45.19858" lon="5.9536">
        <ele>1165</ele>
        <time>2026-07-14T13:46:04Z</time>
      </trkpt>
      <trkpt lat="45.1986" lon="5.9536">
        <ele>1165.1</ele>
        <time>2026-07-14T13:46:05Z</time>
      </trkpt>
      <trkpt lat="45.19861" lon="5.95361">
        <ele>1165.2</ele>
        <time>2026-07-14T13:46:06Z</time>
      </trkpt>
      <trkpt lat="45.19862" lon="5.95361">
        <ele>1165.2</ele>
        <time>2026-07-14T13:46:07Z</time>
      </trkpt>
      <trkpt lat="45.19863" lon="5.95362">
        <ele>1165.3</ele>
        <time>2026-07-14T13:46:08Z</time>
      </trkpt>
      <trkpt lat="45.19865" lon="5.95363">
        <ele>1165.4</ele>
        <time>2026-07-14T13:46:09Z</time>
      </trkpt>
      <trkpt lat="45.19866" lon="5.95364">
        <ele>1165.5</ele>
        <time>2026-07-14T13:46:11Z</time>
      </trkpt>
      <trkpt lat="45.19867" lon="5.95364">
        <ele>1165.5</ele>
        <time>2026-07-14T13:46:12Z</time>
      </trkpt>
      <trkpt lat="45.19869" lon="5.95365">
        <ele>1165.6</ele>
        <time>2026-07-14T13:46:13Z</time>
      </trkpt>
      <trkpt lat="45.1987" lon="5.95365">
        <ele>1165.7</ele>
        <time>2026-07-14T13:46:14Z</time>
      </trkpt>
      <trkpt lat="45.19871" lon="5.95365">
        <ele>1165.8</ele>
        <time>2026-07-14T13:46:15Z</time>
      </trkpt>
      <trkpt lat="45.19872" lon="5.95365">
        <ele>1165.8</ele>
        <time>2026-07-14T13:46:16Z</time>
      </trkpt>
      <trkpt lat="45.19873" lon="5.95366">
        <ele>1165.9</ele>
        <time>2026-07-14T13:46:17Z</time>
      </trkpt>
      <trkpt lat="45.19875" lon="5.95366">
        <ele>1166</ele>
        <time>2026-07-14T13:46:18Z</time>
      </trkpt>
      <trkpt lat="45.19876" lon="5.95366">
        <ele>1166.1</ele>
        <time>2026-07-14T13:46:20Z</time>
      </trkpt>
      <trkpt lat="45.19876" lon="5.95366">
        <ele>1166.1</ele>
        <time>2026-07-14T13:46:21Z</time>
      </trkpt>
      <trkpt lat="45.19878" lon="5.95367">
        <ele>1166.2</ele>
        <time>2026-07-14T13:46:22Z</time>
      </trkpt>
      <trkpt lat="45.19878" lon="5.95367">
        <ele>1166.2</ele>
        <time>2026-07-14T13:46:23Z</time>
      </trkpt>
      <trkpt lat="45.19879" lon="5.95367">
        <ele>1166.3</ele>
        <time>2026-07-14T13:46:25Z</time>
      </trkpt>
      <trkpt lat="45.19879" lon="5.95366">
        <ele>1166.3</ele>
        <time>2026-07-14T13:46:26Z</time>
      </trkpt>
      <trkpt lat="45.1988" lon="5.95366">
        <ele>1166.3</ele>
        <time>2026-07-14T13:46:27Z</time>
      </trkpt>
      <trkpt lat="45.1988" lon="5.95365">
        <ele>1166.4</ele>
        <time>2026-07-14T13:46:28Z</time>
      </trkpt>
      <trkpt lat="45.19881" lon="5.95365">
        <ele>1166.4</ele>
        <time>2026-07-14T13:46:29Z</time>
      </trkpt>
      <trkpt lat="45.19882" lon="5.95364">
        <ele>1166.5</ele>
        <time>2026-07-14T13:46:30Z</time>
      </trkpt>
      <trkpt lat="45.19882" lon="5.95362">
        <ele>1166.6</ele>
        <time>2026-07-14T13:46:32Z</time>
      </trkpt>
      <trkpt lat="45.19882" lon="5.9536">
        <ele>1166.7</ele>
        <time>2026-07-14T13:46:33Z</time>
      </trkpt>
      <trkpt lat="45.19882" lon="5.95359">
        <ele>1166.7</ele>
        <time>2026-07-14T13:46:34Z</time>
      </trkpt>
      <trkpt lat="45.19882" lon="5.95356">
        <ele>1166.9</ele>
        <time>2026-07-14T13:46:35Z</time>
      </trkpt>
      <trkpt lat="45.19882" lon="5.95355">
        <ele>1166.9</ele>
        <time>2026-07-14T13:46:37Z</time>
      </trkpt>
      <trkpt lat="45.19882" lon="5.95354">
        <ele>1167</ele>
        <time>2026-07-14T13:46:38Z</time>
      </trkpt>
      <trkpt lat="45.19883" lon="5.95353">
        <ele>1167</ele>
        <time>2026-07-14T13:46:39Z</time>
      </trkpt>
      <trkpt lat="45.19883" lon="5.95353">
        <ele>1167</ele>
        <time>2026-07-14T13:46:40Z</time>
      </trkpt>
      <trkpt lat="45.19884" lon="5.95352">
        <ele>1167.1</ele>
        <time>2026-07-14T13:46:41Z</time>
      </trkpt>
      <trkpt lat="45.19884" lon="5.95351">
        <ele>1167.1</ele>
        <time>2026-07-14T13:46:42Z</time>
      </trkpt>
      <trkpt lat="45.19885" lon="5.95349">
        <ele>1167.2</ele>
        <time>2026-07-14T13:46:43Z</time>
      </trkpt>
      <trkpt lat="45.19884" lon="5.95348">
        <ele>1167.2</ele>
        <time>2026-07-14T13:46:45Z</time>
      </trkpt>
      <trkpt lat="45.19885" lon="5.95348">
        <ele>1167.3</ele>
        <time>2026-07-14T13:46:46Z</time>
      </trkpt>
      <trkpt lat="45.19885" lon="5.95346">
        <ele>1167.3</ele>
        <time>2026-07-14T13:46:47Z</time>
      </trkpt>
      <trkpt lat="45.19884" lon="5.95345">
        <ele>1167.4</ele>
        <time>2026-07-14T13:46:49Z</time>
      </trkpt>
      <trkpt lat="45.19884" lon="5.95344">
        <ele>1167.4</ele>
        <time>2026-07-14T13:46:50Z</time>
      </trkpt>
      <trkpt lat="45.19883" lon="5.95343">
        <ele>1167.5</ele>
        <time>2026-07-14T13:46:51Z</time>
      </trkpt>
      <trkpt lat="45.19881" lon="5.95344">
        <ele>1167.6</ele>
        <time>2026-07-14T13:46:52Z</time>
      </trkpt>
      <trkpt lat="45.19881" lon="5.95344">
        <ele>1167.6</ele>
        <time>2026-07-14T13:46:53Z</time>
      </trkpt>
      <trkpt lat="45.19881" lon="5.95344">
        <ele>1167.6</ele>
        <time>2026-07-14T13:46:54Z</time>
      </trkpt>
      <trkpt lat="45.19881" lon="5.95344">
        <ele>1167.6</ele>
        <time>2026-07-14T13:46:55Z</time>
      </trkpt>
      <trkpt lat="45.19881" lon="5.95344">
        <ele>1167.7</ele>
        <time>2026-07-14T13:46:56Z</time>
      </trkpt>
      <trkpt lat="45.1988" lon="5.95344">
        <ele>1167.7</ele>
        <time>2026-07-14T13:46:57Z</time>
      </trkpt>
      <trkpt lat="45.19881" lon="5.95344">
        <ele>1167.7</ele>
        <time>2026-07-14T13:46:58Z</time>
      </trkpt>
      <trkpt lat="45.1988" lon="5.95344">
        <ele>1167.7</ele>
        <time>2026-07-14T13:46:59Z</time>
      </trkpt>
      <trkpt lat="45.1988" lon="5.95344">
        <ele>1167.7</ele>
        <time>2026-07-14T13:47:00Z</time>
      </trkpt>
      <trkpt lat="45.1988" lon="5.95344">
        <ele>1167.7</ele>
        <time>2026-07-14T13:47:01Z</time>
      </trkpt>
      <trkpt lat="45.1988" lon="5.95344">
        <ele>1167.7</ele>
        <time>2026-07-14T13:47:02Z</time>
      </trkpt>
      <trkpt lat="45.1988" lon="5.95344">
        <ele>1167.7</ele>
        <time>2026-07-14T13:47:03Z</time>
      </trkpt>
      <trkpt lat="45.1988" lon="5.95344">
        <ele>1167.7</ele>
        <time>2026-07-14T13:47:04Z</time>
      </trkpt>
      <trkpt lat="45.1988" lon="5.95344">
        <ele>1167.7</ele>
        <time>2026-07-14T13:47:05Z</time>
      </trkpt>
      <trkpt lat="45.1988" lon="5.95345">
        <ele>1167.7</ele>
        <time>2026-07-14T13:47:06Z</time>
      </trkpt>
      <trkpt lat="45.1988" lon="5.95344">
        <ele>1167.7</ele>
        <time>2026-07-14T13:47:07Z</time>
      </trkpt>
      <trkpt lat="45.19879" lon="5.95344">
        <ele>1167.8</ele>
        <time>2026-07-14T13:47:08Z</time>
      </trkpt>
      <trkpt lat="45.19878" lon="5.95343">
        <ele>1167.8</ele>
        <time>2026-07-14T13:47:10Z</time>
      </trkpt>
      <trkpt lat="45.19877" lon="5.95341">
        <ele>1167.9</ele>
        <time>2026-07-14T13:47:12Z</time>
      </trkpt>
      <trkpt lat="45.19876" lon="5.95337">
        <ele>1168.1</ele>
        <time>2026-07-14T13:47:13Z</time>
      </trkpt>
      <trkpt lat="45.19875" lon="5.95336">
        <ele>1168.2</ele>
        <time>2026-07-14T13:47:15Z</time>
      </trkpt>
      <trkpt lat="45.19875" lon="5.95335">
        <ele>1168.3</ele>
        <time>2026-07-14T13:47:16Z</time>
      </trkpt>
      <trkpt lat="45.19875" lon="5.95333">
        <ele>1168.3</ele>
        <time>2026-07-14T13:47:17Z</time>
      </trkpt>
      <trkpt lat="45.19875" lon="5.9533">
        <ele>1168.5</ele>
        <time>2026-07-14T13:47:18Z</time>
      </trkpt>
      <trkpt lat="45.19875" lon="5.95327">
        <ele>1168.7</ele>
        <time>2026-07-14T13:47:20Z</time>
      </trkpt>
      <trkpt lat="45.19875" lon="5.95326">
        <ele>1168.8</ele>
        <time>2026-07-14T13:47:22Z</time>
      </trkpt>
      <trkpt lat="45.19876" lon="5.95325">
        <ele>1168.9</ele>
        <time>2026-07-14T13:47:23Z</time>
      </trkpt>
      <trkpt lat="45.19877" lon="5.95324">
        <ele>1169</ele>
        <time>2026-07-14T13:47:24Z</time>
      </trkpt>
      <trkpt lat="45.19878" lon="5.95323">
        <ele>1169.1</ele>
        <time>2026-07-14T13:47:25Z</time>
      </trkpt>
      <trkpt lat="45.19879" lon="5.95322">
        <ele>1169.2</ele>
        <time>2026-07-14T13:47:27Z</time>
      </trkpt>
      <trkpt lat="45.19881" lon="5.95321">
        <ele>1169.4</ele>
        <time>2026-07-14T13:47:28Z</time>
      </trkpt>
      <trkpt lat="45.19882" lon="5.9532">
        <ele>1169.5</ele>
        <time>2026-07-14T13:47:30Z</time>
      </trkpt>
      <trkpt lat="45.19883" lon="5.95319">
        <ele>1169.7</ele>
        <time>2026-07-14T13:47:31Z</time>
      </trkpt>
      <trkpt lat="45.19883" lon="5.95319">
        <ele>1169.8</ele>
        <time>2026-07-14T13:47:33Z</time>
      </trkpt>
      <trkpt lat="45.19885" lon="5.95318">
        <ele>1170</ele>
        <time>2026-07-14T13:47:34Z</time>
      </trkpt>
      <trkpt lat="45.19886" lon="5.95318">
        <ele>1170.1</ele>
        <time>2026-07-14T13:47:36Z</time>
      </trkpt>
      <trkpt lat="45.19887" lon="5.95318">
        <ele>1170.3</ele>
        <time>2026-07-14T13:47:37Z</time>
      </trkpt>
      <trkpt lat="45.19887" lon="5.95318">
        <ele>1170.3</ele>
        <time>2026-07-14T13:47:39Z</time>
      </trkpt>
      <trkpt lat="45.19888" lon="5.95318">
        <ele>1170.4</ele>
        <time>2026-07-14T13:47:40Z</time>
      </trkpt>
      <trkpt lat="45.19889" lon="5.95317">
        <ele>1170.5</ele>
        <time>2026-07-14T13:47:41Z</time>
      </trkpt>
      <trkpt lat="45.19889" lon="5.95317">
        <ele>1170.5</ele>
        <time>2026-07-14T13:47:42Z</time>
      </trkpt>
      <trkpt lat="45.1989" lon="5.95317">
        <ele>1170.6</ele>
        <time>2026-07-14T13:47:43Z</time>
      </trkpt>
      <trkpt lat="45.19891" lon="5.95317">
        <ele>1170.7</ele>
        <time>2026-07-14T13:47:44Z</time>
      </trkpt>
      <trkpt lat="45.19891" lon="5.95317">
        <ele>1170.8</ele>
        <time>2026-07-14T13:47:45Z</time>
      </trkpt>
      <trkpt lat="45.19892" lon="5.95317">
        <ele>1170.9</ele>
        <time>2026-07-14T13:47:47Z</time>
      </trkpt>
      <trkpt lat="45.19892" lon="5.95317">
        <ele>1170.9</ele>
        <time>2026-07-14T13:47:48Z</time>
      </trkpt>
      <trkpt lat="45.19893" lon="5.95316">
        <ele>1171</ele>
        <time>2026-07-14T13:47:49Z</time>
      </trkpt>
      <trkpt lat="45.19894" lon="5.95316">
        <ele>1171.2</ele>
        <time>2026-07-14T13:47:50Z</time>
      </trkpt>
      <trkpt lat="45.19895" lon="5.95315">
        <ele>1171.2</ele>
        <time>2026-07-14T13:47:51Z</time>
      </trkpt>
      <trkpt lat="45.19895" lon="5.95315">
        <ele>1171.3</ele>
        <time>2026-07-14T13:47:52Z</time>
      </trkpt>
      <trkpt lat="45.19896" lon="5.95315">
        <ele>1171.3</ele>
        <time>2026-07-14T13:47:53Z</time>
      </trkpt>
      <trkpt lat="45.19896" lon="5.95314">
        <ele>1171.4</ele>
        <time>2026-07-14T13:47:54Z</time>
      </trkpt>
      <trkpt lat="45.19897" lon="5.95314">
        <ele>1171.5</ele>
        <time>2026-07-14T13:47:55Z</time>
      </trkpt>
      <trkpt lat="45.19897" lon="5.95314">
        <ele>1171.5</ele>
        <time>2026-07-14T13:47:56Z</time>
      </trkpt>
      <trkpt lat="45.19898" lon="5.95314">
        <ele>1171.6</ele>
        <time>2026-07-14T13:47:57Z</time>
      </trkpt>
      <trkpt lat="45.19898" lon="5.95313">
        <ele>1171.6</ele>
        <time>2026-07-14T13:47:58Z</time>
      </trkpt>
      <trkpt lat="45.19899" lon="5.95313">
        <ele>1171.7</ele>
        <time>2026-07-14T13:47:59Z</time>
      </trkpt>
      <trkpt lat="45.19899" lon="5.95312">
        <ele>1171.7</ele>
        <time>2026-07-14T13:48:00Z</time>
      </trkpt>
      <trkpt lat="45.19899" lon="5.95311">
        <ele>1171.7</ele>
        <time>2026-07-14T13:48:01Z</time>
      </trkpt>
      <trkpt lat="45.19899" lon="5.9531">
        <ele>1171.8</ele>
        <time>2026-07-14T13:48:02Z</time>
      </trkpt>
      <trkpt lat="45.199" lon="5.95309">
        <ele>1171.8</ele>
        <time>2026-07-14T13:48:04Z</time>
      </trkpt>
      <trkpt lat="45.199" lon="5.95309">
        <ele>1171.9</ele>
        <time>2026-07-14T13:48:05Z</time>
      </trkpt>
      <trkpt lat="45.19899" lon="5.95308">
        <ele>1171.9</ele>
        <time>2026-07-14T13:48:06Z</time>
      </trkpt>
      <trkpt lat="45.19899" lon="5.95308">
        <ele>1171.9</ele>
        <time>2026-07-14T13:48:07Z</time>
      </trkpt>
      <trkpt lat="45.19899" lon="5.95307">
        <ele>1172</ele>
        <time>2026-07-14T13:48:08Z</time>
      </trkpt>
      <trkpt lat="45.19899" lon="5.95306">
        <ele>1172</ele>
        <time>2026-07-14T13:48:09Z</time>
      </trkpt>
      <trkpt lat="45.19899" lon="5.95306">
        <ele>1172</ele>
        <time>2026-07-14T13:48:10Z</time>
      </trkpt>
      <trkpt lat="45.19899" lon="5.95305">
        <ele>1172.1</ele>
        <time>2026-07-14T13:48:11Z</time>
      </trkpt>
      <trkpt lat="45.19899" lon="5.95304">
        <ele>1172.1</ele>
        <time>2026-07-14T13:48:12Z</time>
      </trkpt>
      <trkpt lat="45.19899" lon="5.95303">
        <ele>1172.1</ele>
        <time>2026-07-14T13:48:13Z</time>
      </trkpt>
      <trkpt lat="45.19898" lon="5.95302">
        <ele>1172.1</ele>
        <time>2026-07-14T13:48:14Z</time>
      </trkpt>
      <trkpt lat="45.19899" lon="5.95301">
        <ele>1172.1</ele>
        <time>2026-07-14T13:48:15Z</time>
      </trkpt>
      <trkpt lat="45.19899" lon="5.95301">
        <ele>1172.1</ele>
        <time>2026-07-14T13:48:16Z</time>
      </trkpt>
      <trkpt lat="45.19899" lon="5.95301">
        <ele>1172.1</ele>
        <time>2026-07-14T13:48:17Z</time>
      </trkpt>
      <trkpt lat="45.199" lon="5.95301">
        <ele>1172.1</ele>
        <time>2026-07-14T13:48:18Z</time>
      </trkpt>
      <trkpt lat="45.199" lon="5.95301">
        <ele>1172.1</ele>
        <time>2026-07-14T13:48:19Z</time>
      </trkpt>
      <trkpt lat="45.199" lon="5.95301">
        <ele>1172.1</ele>
        <time>2026-07-14T13:48:20Z</time>
      </trkpt>
      <trkpt lat="45.199" lon="5.95301">
        <ele>1172.1</ele>
        <time>2026-07-14T13:48:21Z</time>
      </trkpt>
      <trkpt lat="45.199" lon="5.95301">
        <ele>1172.1</ele>
        <time>2026-07-14T13:48:22Z</time>
      </trkpt>
      <trkpt lat="45.199" lon="5.95301">
        <ele>1172.1</ele>
        <time>2026-07-14T13:48:23Z</time>
      </trkpt>
      <trkpt lat="45.199" lon="5.95301">
        <ele>1172.1</ele>
        <time>2026-07-14T13:48:24Z</time>
      </trkpt>
      <trkpt lat="45.199" lon="5.95301">
        <ele>1172.1</ele>
        <time>2026-07-14T13:48:25Z</time>
      </trkpt>
      <trkpt lat="45.199" lon="5.95301">
        <ele>1172.1</ele>
        <time>2026-07-14T13:48:26Z</time>
      </trkpt>
      <trkpt lat="45.199" lon="5.95301">
        <ele>1172.1</ele>
        <time>2026-07-14T13:48:27Z</time>
      </trkpt>
      <trkpt lat="45.199" lon="5.95301">
        <ele>1172.1</ele>
        <time>2026-07-14T13:48:28Z</time>
      </trkpt>
      <trkpt lat="45.199" lon="5.95302">
        <ele>1172.1</ele>
        <time>2026-07-14T13:48:29Z</time>
      </trkpt>
      <trkpt lat="45.199" lon="5.95301">
        <ele>1172.1</ele>
        <time>2026-07-14T13:48:30Z</time>
      </trkpt>
      <trkpt lat="45.199" lon="5.95301">
        <ele>1172.1</ele>
        <time>2026-07-14T13:48:31Z</time>
      </trkpt>
      <trkpt lat="45.199" lon="5.95301">
        <ele>1172.1</ele>
        <time>2026-07-14T13:48:33Z</time>
      </trkpt>
      <trkpt lat="45.199" lon="5.95301">
        <ele>1172.1</ele>
        <time>2026-07-14T13:48:34Z</time>
      </trkpt>
      <trkpt lat="45.199" lon="5.95301">
        <ele>1172.1</ele>
        <time>2026-07-14T13:48:35Z</time>
      </trkpt>
      <trkpt lat="45.199" lon="5.95301">
        <ele>1172.1</ele>
        <time>2026-07-14T13:48:36Z</time>
      </trkpt>
      <trkpt lat="45.199" lon="5.95301">
        <ele>1172.1</ele>
        <time>2026-07-14T13:48:37Z</time>
      </trkpt>
      <trkpt lat="45.199" lon="5.95302">
        <ele>1172.1</ele>
        <time>2026-07-14T13:48:38Z</time>
      </trkpt>
      <trkpt lat="45.199" lon="5.95302">
        <ele>1172.1</ele>
        <time>2026-07-14T13:48:39Z</time>
      </trkpt>
      <trkpt lat="45.199" lon="5.95302">
        <ele>1172.1</ele>
        <time>2026-07-14T13:48:40Z</time>
      </trkpt>
      <trkpt lat="45.199" lon="5.95302">
        <ele>1172.1</ele>
        <time>2026-07-14T13:48:41Z</time>
      </trkpt>
      <trkpt lat="45.199" lon="5.95302">
        <ele>1172.1</ele>
        <time>2026-07-14T13:48:42Z</time>
      </trkpt>
      <trkpt lat="45.199" lon="5.95302">
        <ele>1172.1</ele>
        <time>2026-07-14T13:48:43Z</time>
      </trkpt>
      <trkpt lat="45.199" lon="5.95302">
        <ele>1172.1</ele>
        <time>2026-07-14T13:48:44Z</time>
      </trkpt>
      <trkpt lat="45.199" lon="5.95302">
        <ele>1172.1</ele>
        <time>2026-07-14T13:48:45Z</time>
      </trkpt>
      <trkpt lat="45.199" lon="5.95302">
        <ele>1172.1</ele>
        <time>2026-07-14T13:48:46Z</time>
      </trkpt>
      <trkpt lat="45.199" lon="5.95302">
        <ele>1172.1</ele>
        <time>2026-07-14T13:48:47Z</time>
      </trkpt>
      <trkpt lat="45.199" lon="5.95302">
        <ele>1172.1</ele>
        <time>2026-07-14T13:48:48Z</time>
      </trkpt>
      <trkpt lat="45.199" lon="5.95302">
        <ele>1172.1</ele>
        <time>2026-07-14T13:48:49Z</time>
      </trkpt>
      <trkpt lat="45.199" lon="5.95302">
        <ele>1172.1</ele>
        <time>2026-07-14T13:48:50Z</time>
      </trkpt>
      <trkpt lat="45.199" lon="5.95302">
        <ele>1172.1</ele>
        <time>2026-07-14T13:48:51Z</time>
      </trkpt>
      <trkpt lat="45.199" lon="5.95302">
        <ele>1172.1</ele>
        <time>2026-07-14T13:48:52Z</time>
      </trkpt>
      <trkpt lat="45.199" lon="5.95302">
        <ele>1172.1</ele>
        <time>2026-07-14T13:48:53Z</time>
      </trkpt>
      <trkpt lat="45.199" lon="5.95302">
        <ele>1172.1</ele>
        <time>2026-07-14T13:48:54Z</time>
      </trkpt>
      <trkpt lat="45.199" lon="5.95302">
        <ele>1172.1</ele>
        <time>2026-07-14T13:48:55Z</time>
      </trkpt>
      <trkpt lat="45.199" lon="5.95302">
        <ele>1172.1</ele>
        <time>2026-07-14T13:48:56Z</time>
      </trkpt>
      <trkpt lat="45.199" lon="5.95302">
        <ele>1172.1</ele>
        <time>2026-07-14T13:48:57Z</time>
      </trkpt>
      <trkpt lat="45.199" lon="5.95302">
        <ele>1172.1</ele>
        <time>2026-07-14T13:48:58Z</time>
      </trkpt>
      <trkpt lat="45.199" lon="5.95302">
        <ele>1172.1</ele>
        <time>2026-07-14T13:48:59Z</time>
      </trkpt>
      <trkpt lat="45.199" lon="5.95302">
        <ele>1172.1</ele>
        <time>2026-07-14T13:49:00Z</time>
      </trkpt>
      <trkpt lat="45.199" lon="5.95302">
        <ele>1172.1</ele>
        <time>2026-07-14T13:49:01Z</time>
      </trkpt>
      <trkpt lat="45.199" lon="5.95302">
        <ele>1172.1</ele>
        <time>2026-07-14T13:49:02Z</time>
      </trkpt>
      <trkpt lat="45.199" lon="5.95302">
        <ele>1172.1</ele>
        <time>2026-07-14T13:49:03Z</time>
      </trkpt>
      <trkpt lat="45.199" lon="5.95302">
        <ele>1172.1</ele>
        <time>2026-07-14T13:49:04Z</time>
      </trkpt>
      <trkpt lat="45.199" lon="5.95302">
        <ele>1172.1</ele>
        <time>2026-07-14T13:49:05Z</time>
      </trkpt>
      <trkpt lat="45.199" lon="5.95302">
        <ele>1172.1</ele>
        <time>2026-07-14T13:49:06Z</time>
      </trkpt>
      <trkpt lat="45.199" lon="5.95302">
        <ele>1172.1</ele>
        <time>2026-07-14T13:49:07Z</time>
      </trkpt>
      <trkpt lat="45.199" lon="5.95302">
        <ele>1172.1</ele>
        <time>2026-07-14T13:49:08Z</time>
      </trkpt>
      <trkpt lat="45.199" lon="5.95302">
        <ele>1172.1</ele>
        <time>2026-07-14T13:49:09Z</time>
      </trkpt>
      <trkpt lat="45.199" lon="5.95302">
        <ele>1172.1</ele>
        <time>2026-07-14T13:49:10Z</time>
      </trkpt>
      <trkpt lat="45.199" lon="5.95301">
        <ele>1172.1</ele>
        <time>2026-07-14T13:49:11Z</time>
      </trkpt>
      <trkpt lat="45.199" lon="5.953">
        <ele>1172.1</ele>
        <time>2026-07-14T13:49:12Z</time>
      </trkpt>
      <trkpt lat="45.199" lon="5.95297">
        <ele>1172</ele>
        <time>2026-07-14T13:49:13Z</time>
      </trkpt>
      <trkpt lat="45.199" lon="5.95296">
        <ele>1171.9</ele>
        <time>2026-07-14T13:49:15Z</time>
      </trkpt>
      <trkpt lat="45.199" lon="5.95294">
        <ele>1171.9</ele>
        <time>2026-07-14T13:49:16Z</time>
      </trkpt>
      <trkpt lat="45.199" lon="5.95293">
        <ele>1171.8</ele>
        <time>2026-07-14T13:49:17Z</time>
      </trkpt>
      <trkpt lat="45.19901" lon="5.95292">
        <ele>1171.8</ele>
        <time>2026-07-14T13:49:18Z</time>
      </trkpt>
      <trkpt lat="45.19901" lon="5.9529">
        <ele>1171.7</ele>
        <time>2026-07-14T13:49:19Z</time>
      </trkpt>
      <trkpt lat="45.19902" lon="5.9529">
        <ele>1171.5</ele>
        <time>2026-07-14T13:49:20Z</time>
      </trkpt>
      <trkpt lat="45.19903" lon="5.95289">
        <ele>1171.3</ele>
        <time>2026-07-14T13:49:21Z</time>
      </trkpt>
      <trkpt lat="45.19903" lon="5.95288">
        <ele>1171.1</ele>
        <time>2026-07-14T13:49:22Z</time>
      </trkpt>
      <trkpt lat="45.19903" lon="5.95287">
        <ele>1170.8</ele>
        <time>2026-07-14T13:49:23Z</time>
      </trkpt>
      <trkpt lat="45.19904" lon="5.95286">
        <ele>1170.7</ele>
        <time>2026-07-14T13:49:24Z</time>
      </trkpt>
      <trkpt lat="45.19905" lon="5.95285">
        <ele>1170.3</ele>
        <time>2026-07-14T13:49:25Z</time>
      </trkpt>
      <trkpt lat="45.19906" lon="5.95285">
        <ele>1170.1</ele>
        <time>2026-07-14T13:49:27Z</time>
      </trkpt>
      <trkpt lat="45.19907" lon="5.95285">
        <ele>1169.9</ele>
        <time>2026-07-14T13:49:28Z</time>
      </trkpt>
      <trkpt lat="45.19907" lon="5.95284">
        <ele>1169.7</ele>
        <time>2026-07-14T13:49:29Z</time>
      </trkpt>
      <trkpt lat="45.19909" lon="5.95283">
        <ele>1169.2</ele>
        <time>2026-07-14T13:49:30Z</time>
      </trkpt>
      <trkpt lat="45.1991" lon="5.95283">
        <ele>1169</ele>
        <time>2026-07-14T13:49:32Z</time>
      </trkpt>
      <trkpt lat="45.1991" lon="5.95282">
        <ele>1168.9</ele>
        <time>2026-07-14T13:49:33Z</time>
      </trkpt>
      <trkpt lat="45.1991" lon="5.9528">
        <ele>1168.6</ele>
        <time>2026-07-14T13:49:34Z</time>
      </trkpt>
      <trkpt lat="45.1991" lon="5.95279">
        <ele>1168.4</ele>
        <time>2026-07-14T13:49:35Z</time>
      </trkpt>
      <trkpt lat="45.19911" lon="5.95279">
        <ele>1168.3</ele>
        <time>2026-07-14T13:49:36Z</time>
      </trkpt>
      <trkpt lat="45.19911" lon="5.95279">
        <ele>1168.1</ele>
        <time>2026-07-14T13:49:37Z</time>
      </trkpt>
      <trkpt lat="45.19912" lon="5.95279">
        <ele>1168</ele>
        <time>2026-07-14T13:49:38Z</time>
      </trkpt>
      <trkpt lat="45.19912" lon="5.9528">
        <ele>1167.9</ele>
        <time>2026-07-14T13:49:39Z</time>
      </trkpt>
      <trkpt lat="45.19912" lon="5.9528">
        <ele>1167.8</ele>
        <time>2026-07-14T13:49:40Z</time>
      </trkpt>
      <trkpt lat="45.19911" lon="5.95281">
        <ele>1167.7</ele>
        <time>2026-07-14T13:49:41Z</time>
      </trkpt>
      <trkpt lat="45.19911" lon="5.95281">
        <ele>1167.7</ele>
        <time>2026-07-14T13:49:42Z</time>
      </trkpt>
      <trkpt lat="45.19911" lon="5.95281">
        <ele>1167.7</ele>
        <time>2026-07-14T13:49:43Z</time>
      </trkpt>
      <trkpt lat="45.19911" lon="5.95281">
        <ele>1167.6</ele>
        <time>2026-07-14T13:49:44Z</time>
      </trkpt>
      <trkpt lat="45.19912" lon="5.9528">
        <ele>1167.4</ele>
        <time>2026-07-14T13:49:45Z</time>
      </trkpt>
      <trkpt lat="45.19913" lon="5.95279">
        <ele>1167</ele>
        <time>2026-07-14T13:49:46Z</time>
      </trkpt>
      <trkpt lat="45.19915" lon="5.95277">
        <ele>1166.5</ele>
        <time>2026-07-14T13:49:47Z</time>
      </trkpt>
      <trkpt lat="45.19915" lon="5.95275">
        <ele>1166.3</ele>
        <time>2026-07-14T13:49:49Z</time>
      </trkpt>
      <trkpt lat="45.19915" lon="5.95275">
        <ele>1166.1</ele>
        <time>2026-07-14T13:49:50Z</time>
      </trkpt>
      <trkpt lat="45.19916" lon="5.95273">
        <ele>1165.9</ele>
        <time>2026-07-14T13:49:51Z</time>
      </trkpt>
      <trkpt lat="45.19916" lon="5.95272">
        <ele>1165.7</ele>
        <time>2026-07-14T13:49:52Z</time>
      </trkpt>
      <trkpt lat="45.19916" lon="5.95272">
        <ele>1165.6</ele>
        <time>2026-07-14T13:49:53Z</time>
      </trkpt>
      <trkpt lat="45.19917" lon="5.9527">
        <ele>1165.3</ele>
        <time>2026-07-14T13:49:54Z</time>
      </trkpt>
      <trkpt lat="45.19917" lon="5.9527">
        <ele>1165.2</ele>
        <time>2026-07-14T13:49:55Z</time>
      </trkpt>
      <trkpt lat="45.19918" lon="5.95269">
        <ele>1165</ele>
        <time>2026-07-14T13:49:56Z</time>
      </trkpt>
      <trkpt lat="45.19918" lon="5.95268">
        <ele>1164.8</ele>
        <time>2026-07-14T13:49:57Z</time>
      </trkpt>
      <trkpt lat="45.19919" lon="5.95267">
        <ele>1164.5</ele>
        <time>2026-07-14T13:49:58Z</time>
      </trkpt>
      <trkpt lat="45.19919" lon="5.95265">
        <ele>1164</ele>
        <time>2026-07-14T13:49:59Z</time>
      </trkpt>
      <trkpt lat="45.1992" lon="5.95263">
        <ele>1163.7</ele>
        <time>2026-07-14T13:50:00Z</time>
      </trkpt>
      <trkpt lat="45.1992" lon="5.95262">
        <ele>1163.6</ele>
        <time>2026-07-14T13:50:02Z</time>
      </trkpt>
      <trkpt lat="45.1992" lon="5.95261">
        <ele>1163.3</ele>
        <time>2026-07-14T13:50:03Z</time>
      </trkpt>
      <trkpt lat="45.19921" lon="5.9526">
        <ele>1163.1</ele>
        <time>2026-07-14T13:50:04Z</time>
      </trkpt>
      <trkpt lat="45.19921" lon="5.95259">
        <ele>1162.9</ele>
        <time>2026-07-14T13:50:05Z</time>
      </trkpt>
      <trkpt lat="45.19922" lon="5.95258">
        <ele>1162.6</ele>
        <time>2026-07-14T13:50:06Z</time>
      </trkpt>
      <trkpt lat="45.19922" lon="5.95257">
        <ele>1162.3</ele>
        <time>2026-07-14T13:50:07Z</time>
      </trkpt>
      <trkpt lat="45.19923" lon="5.95256">
        <ele>1162.1</ele>
        <time>2026-07-14T13:50:08Z</time>
      </trkpt>
      <trkpt lat="45.19924" lon="5.95256">
        <ele>1162</ele>
        <time>2026-07-14T13:50:09Z</time>
      </trkpt>
      <trkpt lat="45.19925" lon="5.95255">
        <ele>1161.7</ele>
        <time>2026-07-14T13:50:10Z</time>
      </trkpt>
      <trkpt lat="45.19925" lon="5.95255">
        <ele>1161.5</ele>
        <time>2026-07-14T13:50:11Z</time>
      </trkpt>
      <trkpt lat="45.19927" lon="5.95253">
        <ele>1161</ele>
        <time>2026-07-14T13:50:12Z</time>
      </trkpt>
      <trkpt lat="45.19927" lon="5.95252">
        <ele>1160.8</ele>
        <time>2026-07-14T13:50:14Z</time>
      </trkpt>
      <trkpt lat="45.19928" lon="5.95251">
        <ele>1160.3</ele>
        <time>2026-07-14T13:50:15Z</time>
      </trkpt>
      <trkpt lat="45.19929" lon="5.95249">
        <ele>1160</ele>
        <time>2026-07-14T13:50:17Z</time>
      </trkpt>
      <trkpt lat="45.1993" lon="5.95249">
        <ele>1159.9</ele>
        <time>2026-07-14T13:50:18Z</time>
      </trkpt>
      <trkpt lat="45.19931" lon="5.95248">
        <ele>1159.5</ele>
        <time>2026-07-14T13:50:19Z</time>
      </trkpt>
      <trkpt lat="45.19931" lon="5.95247">
        <ele>1159.4</ele>
        <time>2026-07-14T13:50:21Z</time>
      </trkpt>
      <trkpt lat="45.19931" lon="5.95246">
        <ele>1159.2</ele>
        <time>2026-07-14T13:50:22Z</time>
      </trkpt>
      <trkpt lat="45.19931" lon="5.95245">
        <ele>1159</ele>
        <time>2026-07-14T13:50:23Z</time>
      </trkpt>
      <trkpt lat="45.19931" lon="5.95244">
        <ele>1158.8</ele>
        <time>2026-07-14T13:50:24Z</time>
      </trkpt>
      <trkpt lat="45.19931" lon="5.95242">
        <ele>1158.6</ele>
        <time>2026-07-14T13:50:25Z</time>
      </trkpt>
      <trkpt lat="45.1993" lon="5.95241">
        <ele>1158.4</ele>
        <time>2026-07-14T13:50:26Z</time>
      </trkpt>
      <trkpt lat="45.1993" lon="5.9524">
        <ele>1158.1</ele>
        <time>2026-07-14T13:50:27Z</time>
      </trkpt>
      <trkpt lat="45.1993" lon="5.95239">
        <ele>1158</ele>
        <time>2026-07-14T13:50:28Z</time>
      </trkpt>
      <trkpt lat="45.1993" lon="5.95238">
        <ele>1157.8</ele>
        <time>2026-07-14T13:50:29Z</time>
      </trkpt>
      <trkpt lat="45.1993" lon="5.95237">
        <ele>1157.7</ele>
        <time>2026-07-14T13:50:30Z</time>
      </trkpt>
      <trkpt lat="45.1993" lon="5.95236">
        <ele>1157.5</ele>
        <time>2026-07-14T13:50:31Z</time>
      </trkpt>
      <trkpt lat="45.1993" lon="5.95235">
        <ele>1157.2</ele>
        <time>2026-07-14T13:50:32Z</time>
      </trkpt>
      <trkpt lat="45.1993" lon="5.95234">
        <ele>1157</ele>
        <time>2026-07-14T13:50:33Z</time>
      </trkpt>
      <trkpt lat="45.1993" lon="5.95233">
        <ele>1156.8</ele>
        <time>2026-07-14T13:50:34Z</time>
      </trkpt>
      <trkpt lat="45.1993" lon="5.95232">
        <ele>1156.6</ele>
        <time>2026-07-14T13:50:35Z</time>
      </trkpt>
      <trkpt lat="45.19931" lon="5.9523">
        <ele>1156.3</ele>
        <time>2026-07-14T13:50:36Z</time>
      </trkpt>
      <trkpt lat="45.19932" lon="5.95228">
        <ele>1155.8</ele>
        <time>2026-07-14T13:50:37Z</time>
      </trkpt>
      <trkpt lat="45.19933" lon="5.95227">
        <ele>1155.6</ele>
        <time>2026-07-14T13:50:39Z</time>
      </trkpt>
      <trkpt lat="45.19933" lon="5.95226">
        <ele>1155.4</ele>
        <time>2026-07-14T13:50:40Z</time>
      </trkpt>
      <trkpt lat="45.19933" lon="5.95224">
        <ele>1155</ele>
        <time>2026-07-14T13:50:41Z</time>
      </trkpt>
      <trkpt lat="45.19934" lon="5.95223">
        <ele>1154.8</ele>
        <time>2026-07-14T13:50:42Z</time>
      </trkpt>
      <trkpt lat="45.19934" lon="5.95222">
        <ele>1154.6</ele>
        <time>2026-07-14T13:50:44Z</time>
      </trkpt>
      <trkpt lat="45.19935" lon="5.9522">
        <ele>1154.1</ele>
        <time>2026-07-14T13:50:45Z</time>
      </trkpt>
      <trkpt lat="45.19936" lon="5.95219">
        <ele>1153.9</ele>
        <time>2026-07-14T13:50:47Z</time>
      </trkpt>
      <trkpt lat="45.19936" lon="5.95218">
        <ele>1153.7</ele>
        <time>2026-07-14T13:50:48Z</time>
      </trkpt>
      <trkpt lat="45.19936" lon="5.95217">
        <ele>1153.4</ele>
        <time>2026-07-14T13:50:49Z</time>
      </trkpt>
      <trkpt lat="45.19936" lon="5.95214">
        <ele>1152.9</ele>
        <time>2026-07-14T13:50:50Z</time>
      </trkpt>
      <trkpt lat="45.19936" lon="5.95212">
        <ele>1152.5</ele>
        <time>2026-07-14T13:50:52Z</time>
      </trkpt>
      <trkpt lat="45.19936" lon="5.9521">
        <ele>1151.9</ele>
        <time>2026-07-14T13:50:53Z</time>
      </trkpt>
      <trkpt lat="45.19937" lon="5.95209">
        <ele>1151.6</ele>
        <time>2026-07-14T13:50:54Z</time>
      </trkpt>
      <trkpt lat="45.19938" lon="5.95208">
        <ele>1151.3</ele>
        <time>2026-07-14T13:50:56Z</time>
      </trkpt>
      <trkpt lat="45.19938" lon="5.95206">
        <ele>1151</ele>
        <time>2026-07-14T13:50:57Z</time>
      </trkpt>
      <trkpt lat="45.19939" lon="5.95205">
        <ele>1150.7</ele>
        <time>2026-07-14T13:50:58Z</time>
      </trkpt>
      <trkpt lat="45.19939" lon="5.95205">
        <ele>1150.5</ele>
        <time>2026-07-14T13:50:59Z</time>
      </trkpt>
      <trkpt lat="45.1994" lon="5.95206">
        <ele>1150.3</ele>
        <time>2026-07-14T13:51:00Z</time>
      </trkpt>
      <trkpt lat="45.1994" lon="5.95206">
        <ele>1150.1</ele>
        <time>2026-07-14T13:51:01Z</time>
      </trkpt>
      <trkpt lat="45.19941" lon="5.95206">
        <ele>1149.9</ele>
        <time>2026-07-14T13:51:02Z</time>
      </trkpt>
      <trkpt lat="45.19942" lon="5.95206">
        <ele>1149.6</ele>
        <time>2026-07-14T13:51:03Z</time>
      </trkpt>
      <trkpt lat="45.19943" lon="5.95205">
        <ele>1149.2</ele>
        <time>2026-07-14T13:51:04Z</time>
      </trkpt>
      <trkpt lat="45.19942" lon="5.95204">
        <ele>1149</ele>
        <time>2026-07-14T13:51:06Z</time>
      </trkpt>
      <trkpt lat="45.19943" lon="5.95203">
        <ele>1148.8</ele>
        <time>2026-07-14T13:51:07Z</time>
      </trkpt>
      <trkpt lat="45.19943" lon="5.95202">
        <ele>1148.5</ele>
        <time>2026-07-14T13:51:08Z</time>
      </trkpt>
      <trkpt lat="45.19943" lon="5.952">
        <ele>1148.1</ele>
        <time>2026-07-14T13:51:09Z</time>
      </trkpt>
      <trkpt lat="45.19943" lon="5.95199">
        <ele>1147.8</ele>
        <time>2026-07-14T13:51:11Z</time>
      </trkpt>
      <trkpt lat="45.19943" lon="5.95199">
        <ele>1147.6</ele>
        <time>2026-07-14T13:51:12Z</time>
      </trkpt>
      <trkpt lat="45.19944" lon="5.95198">
        <ele>1147.2</ele>
        <time>2026-07-14T13:51:13Z</time>
      </trkpt>
      <trkpt lat="45.19945" lon="5.95197">
        <ele>1146.8</ele>
        <time>2026-07-14T13:51:14Z</time>
      </trkpt>
      <trkpt lat="45.19946" lon="5.95196">
        <ele>1146.4</ele>
        <time>2026-07-14T13:51:15Z</time>
      </trkpt>
      <trkpt lat="45.19947" lon="5.95195">
        <ele>1146.2</ele>
        <time>2026-07-14T13:51:16Z</time>
      </trkpt>
      <trkpt lat="45.19946" lon="5.95193">
        <ele>1145.5</ele>
        <time>2026-07-14T13:51:17Z</time>
      </trkpt>
      <trkpt lat="45.19947" lon="5.95192">
        <ele>1145.3</ele>
        <time>2026-07-14T13:51:19Z</time>
      </trkpt>
      <trkpt lat="45.19947" lon="5.95191">
        <ele>1145</ele>
        <time>2026-07-14T13:51:20Z</time>
      </trkpt>
      <trkpt lat="45.19948" lon="5.95191">
        <ele>1144.7</ele>
        <time>2026-07-14T13:51:21Z</time>
      </trkpt>
      <trkpt lat="45.19949" lon="5.9519">
        <ele>1144.4</ele>
        <time>2026-07-14T13:51:22Z</time>
      </trkpt>
      <trkpt lat="45.1995" lon="5.95189">
        <ele>1144.1</ele>
        <time>2026-07-14T13:51:23Z</time>
      </trkpt>
      <trkpt lat="45.1995" lon="5.95189">
        <ele>1143.8</ele>
        <time>2026-07-14T13:51:24Z</time>
      </trkpt>
      <trkpt lat="45.19951" lon="5.95186">
        <ele>1143.2</ele>
        <time>2026-07-14T13:51:25Z</time>
      </trkpt>
      <trkpt lat="45.1995" lon="5.95185">
        <ele>1142.9</ele>
        <time>2026-07-14T13:51:27Z</time>
      </trkpt>
      <trkpt lat="45.19951" lon="5.95183">
        <ele>1142.4</ele>
        <time>2026-07-14T13:51:28Z</time>
      </trkpt>
      <trkpt lat="45.19951" lon="5.95183">
        <ele>1142.3</ele>
        <time>2026-07-14T13:51:30Z</time>
      </trkpt>
      <trkpt lat="45.19951" lon="5.95182">
        <ele>1142.2</ele>
        <time>2026-07-14T13:51:31Z</time>
      </trkpt>
      <trkpt lat="45.19952" lon="5.95181">
        <ele>1141.8</ele>
        <time>2026-07-14T13:51:32Z</time>
      </trkpt>
      <trkpt lat="45.19953" lon="5.95181">
        <ele>1141.5</ele>
        <time>2026-07-14T13:51:34Z</time>
      </trkpt>
      <trkpt lat="45.19953" lon="5.95181">
        <ele>1141.2</ele>
        <time>2026-07-14T13:51:35Z</time>
      </trkpt>
      <trkpt lat="45.19954" lon="5.95181">
        <ele>1141</ele>
        <time>2026-07-14T13:51:36Z</time>
      </trkpt>
      <trkpt lat="45.19955" lon="5.9518">
        <ele>1140.5</ele>
        <time>2026-07-14T13:51:37Z</time>
      </trkpt>
      <trkpt lat="45.19955" lon="5.95179">
        <ele>1140.3</ele>
        <time>2026-07-14T13:51:39Z</time>
      </trkpt>
      <trkpt lat="45.19955" lon="5.95178">
        <ele>1140</ele>
        <time>2026-07-14T13:51:40Z</time>
      </trkpt>
      <trkpt lat="45.19954" lon="5.95176">
        <ele>1139.5</ele>
        <time>2026-07-14T13:51:41Z</time>
      </trkpt>
      <trkpt lat="45.19955" lon="5.95176">
        <ele>1139.3</ele>
        <time>2026-07-14T13:51:43Z</time>
      </trkpt>
      <trkpt lat="45.19955" lon="5.95176">
        <ele>1139.1</ele>
        <time>2026-07-14T13:51:44Z</time>
      </trkpt>
      <trkpt lat="45.19956" lon="5.95176">
        <ele>1138.8</ele>
        <time>2026-07-14T13:51:45Z</time>
      </trkpt>
      <trkpt lat="45.19957" lon="5.95176">
        <ele>1138.5</ele>
        <time>2026-07-14T13:51:46Z</time>
      </trkpt>
      <trkpt lat="45.19958" lon="5.95176">
        <ele>1138.3</ele>
        <time>2026-07-14T13:51:47Z</time>
      </trkpt>
      <trkpt lat="45.19958" lon="5.95176">
        <ele>1138</ele>
        <time>2026-07-14T13:51:48Z</time>
      </trkpt>
      <trkpt lat="45.19958" lon="5.95176">
        <ele>1138</ele>
        <time>2026-07-14T13:51:49Z</time>
      </trkpt>
      <trkpt lat="45.19959" lon="5.95176">
        <ele>1137.8</ele>
        <time>2026-07-14T13:51:50Z</time>
      </trkpt>
      <trkpt lat="45.19959" lon="5.95176">
        <ele>1137.7</ele>
        <time>2026-07-14T13:51:51Z</time>
      </trkpt>
      <trkpt lat="45.1996" lon="5.95176">
        <ele>1137.5</ele>
        <time>2026-07-14T13:51:52Z</time>
      </trkpt>
      <trkpt lat="45.19961" lon="5.95175">
        <ele>1137.2</ele>
        <time>2026-07-14T13:51:53Z</time>
      </trkpt>
      <trkpt lat="45.19961" lon="5.95174">
        <ele>1136.8</ele>
        <time>2026-07-14T13:51:54Z</time>
      </trkpt>
      <trkpt lat="45.19961" lon="5.95173">
        <ele>1136.7</ele>
        <time>2026-07-14T13:51:56Z</time>
      </trkpt>
      <trkpt lat="45.19962" lon="5.95171">
        <ele>1136.2</ele>
        <time>2026-07-14T13:51:57Z</time>
      </trkpt>
      <trkpt lat="45.19962" lon="5.95171">
        <ele>1136.1</ele>
        <time>2026-07-14T13:51:59Z</time>
      </trkpt>
      <trkpt lat="45.19962" lon="5.9517">
        <ele>1135.9</ele>
        <time>2026-07-14T13:52:00Z</time>
      </trkpt>
      <trkpt lat="45.19962" lon="5.9517">
        <ele>1135.8</ele>
        <time>2026-07-14T13:52:01Z</time>
      </trkpt>
      <trkpt lat="45.19963" lon="5.9517">
        <ele>1135.5</ele>
        <time>2026-07-14T13:52:02Z</time>
      </trkpt>
      <trkpt lat="45.19964" lon="5.9517">
        <ele>1135.3</ele>
        <time>2026-07-14T13:52:03Z</time>
      </trkpt>
      <trkpt lat="45.19965" lon="5.95168">
        <ele>1134.8</ele>
        <time>2026-07-14T13:52:04Z</time>
      </trkpt>
      <trkpt lat="45.19965" lon="5.95168">
        <ele>1134.7</ele>
        <time>2026-07-14T13:52:06Z</time>
      </trkpt>
      <trkpt lat="45.19966" lon="5.95167">
        <ele>1134.4</ele>
        <time>2026-07-14T13:52:07Z</time>
      </trkpt>
      <trkpt lat="45.19966" lon="5.95167">
        <ele>1134.2</ele>
        <time>2026-07-14T13:52:08Z</time>
      </trkpt>
      <trkpt lat="45.19967" lon="5.95166">
        <ele>1134</ele>
        <time>2026-07-14T13:52:09Z</time>
      </trkpt>
      <trkpt lat="45.19968" lon="5.95166">
        <ele>1133.6</ele>
        <time>2026-07-14T13:52:10Z</time>
      </trkpt>
      <trkpt lat="45.19968" lon="5.95165">
        <ele>1133.5</ele>
        <time>2026-07-14T13:52:11Z</time>
      </trkpt>
      <trkpt lat="45.19968" lon="5.95164">
        <ele>1133.2</ele>
        <time>2026-07-14T13:52:12Z</time>
      </trkpt>
      <trkpt lat="45.19968" lon="5.95163">
        <ele>1133</ele>
        <time>2026-07-14T13:52:13Z</time>
      </trkpt>
      <trkpt lat="45.19969" lon="5.95162">
        <ele>1132.8</ele>
        <time>2026-07-14T13:52:14Z</time>
      </trkpt>
      <trkpt lat="45.19969" lon="5.95162">
        <ele>1132.6</ele>
        <time>2026-07-14T13:52:15Z</time>
      </trkpt>
      <trkpt lat="45.19969" lon="5.95161">
        <ele>1132.4</ele>
        <time>2026-07-14T13:52:16Z</time>
      </trkpt>
      <trkpt lat="45.1997" lon="5.9516">
        <ele>1132.1</ele>
        <time>2026-07-14T13:52:17Z</time>
      </trkpt>
      <trkpt lat="45.1997" lon="5.9516">
        <ele>1132</ele>
        <time>2026-07-14T13:52:18Z</time>
      </trkpt>
      <trkpt lat="45.1997" lon="5.95159">
        <ele>1131.8</ele>
        <time>2026-07-14T13:52:19Z</time>
      </trkpt>
      <trkpt lat="45.1997" lon="5.95158">
        <ele>1131.7</ele>
        <time>2026-07-14T13:52:20Z</time>
      </trkpt>
      <trkpt lat="45.1997" lon="5.95158">
        <ele>1131.5</ele>
        <time>2026-07-14T13:52:21Z</time>
      </trkpt>
      <trkpt lat="45.19971" lon="5.95156">
        <ele>1131</ele>
        <time>2026-07-14T13:52:22Z</time>
      </trkpt>
      <trkpt lat="45.19971" lon="5.95155">
        <ele>1130.8</ele>
        <time>2026-07-14T13:52:24Z</time>
      </trkpt>
      <trkpt lat="45.19971" lon="5.95153">
        <ele>1130.4</ele>
        <time>2026-07-14T13:52:25Z</time>
      </trkpt>
      <trkpt lat="45.1997" lon="5.95153">
        <ele>1130.2</ele>
        <time>2026-07-14T13:52:27Z</time>
      </trkpt>
      <trkpt lat="45.19971" lon="5.95153">
        <ele>1130</ele>
        <time>2026-07-14T13:52:28Z</time>
      </trkpt>
      <trkpt lat="45.19972" lon="5.95153">
        <ele>1129.7</ele>
        <time>2026-07-14T13:52:29Z</time>
      </trkpt>
      <trkpt lat="45.19973" lon="5.95153">
        <ele>1129.4</ele>
        <time>2026-07-14T13:52:30Z</time>
      </trkpt>
      <trkpt lat="45.19974" lon="5.95152">
        <ele>1129</ele>
        <time>2026-07-14T13:52:31Z</time>
      </trkpt>
      <trkpt lat="45.19974" lon="5.9515">
        <ele>1128.7</ele>
        <time>2026-07-14T13:52:32Z</time>
      </trkpt>
      <trkpt lat="45.19975" lon="5.95149">
        <ele>1128.3</ele>
        <time>2026-07-14T13:52:33Z</time>
      </trkpt>
      <trkpt lat="45.19975" lon="5.95148">
        <ele>1128</ele>
        <time>2026-07-14T13:52:34Z</time>
      </trkpt>
      <trkpt lat="45.19975" lon="5.95147">
        <ele>1127.9</ele>
        <time>2026-07-14T13:52:35Z</time>
      </trkpt>
      <trkpt lat="45.19977" lon="5.95147">
        <ele>1127.3</ele>
        <time>2026-07-14T13:52:36Z</time>
      </trkpt>
      <trkpt lat="45.19978" lon="5.95147">
        <ele>1127.1</ele>
        <time>2026-07-14T13:52:38Z</time>
      </trkpt>
      <trkpt lat="45.19978" lon="5.95146">
        <ele>1126.8</ele>
        <time>2026-07-14T13:52:39Z</time>
      </trkpt>
      <trkpt lat="45.19979" lon="5.95145">
        <ele>1126.6</ele>
        <time>2026-07-14T13:52:40Z</time>
      </trkpt>
      <trkpt lat="45.19979" lon="5.95144">
        <ele>1126.3</ele>
        <time>2026-07-14T13:52:41Z</time>
      </trkpt>
      <trkpt lat="45.1998" lon="5.95143">
        <ele>1125.9</ele>
        <time>2026-07-14T13:52:42Z</time>
      </trkpt>
      <trkpt lat="45.1998" lon="5.9514">
        <ele>1125.4</ele>
        <time>2026-07-14T13:52:43Z</time>
      </trkpt>
      <trkpt lat="45.1998" lon="5.95139">
        <ele>1125.2</ele>
        <time>2026-07-14T13:52:45Z</time>
      </trkpt>
      <trkpt lat="45.1998" lon="5.95138">
        <ele>1124.8</ele>
        <time>2026-07-14T13:52:46Z</time>
      </trkpt>
      <trkpt lat="45.19982" lon="5.95137">
        <ele>1124.2</ele>
        <time>2026-07-14T13:52:47Z</time>
      </trkpt>
      <trkpt lat="45.19983" lon="5.95137">
        <ele>1123.8</ele>
        <time>2026-07-14T13:52:48Z</time>
      </trkpt>
      <trkpt lat="45.19984" lon="5.95138">
        <ele>1123.5</ele>
        <time>2026-07-14T13:52:49Z</time>
      </trkpt>
      <trkpt lat="45.19985" lon="5.95138">
        <ele>1123.3</ele>
        <time>2026-07-14T13:52:51Z</time>
      </trkpt>
      <trkpt lat="45.19986" lon="5.95137">
        <ele>1123</ele>
        <time>2026-07-14T13:52:52Z</time>
      </trkpt>
      <trkpt lat="45.19987" lon="5.95136">
        <ele>1122.7</ele>
        <time>2026-07-14T13:52:53Z</time>
      </trkpt>
      <trkpt lat="45.19987" lon="5.95135">
        <ele>1122.4</ele>
        <time>2026-07-14T13:52:54Z</time>
      </trkpt>
      <trkpt lat="45.19987" lon="5.95133">
        <ele>1122.1</ele>
        <time>2026-07-14T13:52:55Z</time>
      </trkpt>
      <trkpt lat="45.19986" lon="5.95133">
        <ele>1121.9</ele>
        <time>2026-07-14T13:52:56Z</time>
      </trkpt>
      <trkpt lat="45.19986" lon="5.95133">
        <ele>1121.8</ele>
        <time>2026-07-14T13:52:57Z</time>
      </trkpt>
      <trkpt lat="45.19986" lon="5.95132">
        <ele>1121.7</ele>
        <time>2026-07-14T13:52:58Z</time>
      </trkpt>
      <trkpt lat="45.19986" lon="5.95132">
        <ele>1121.5</ele>
        <time>2026-07-14T13:52:59Z</time>
      </trkpt>
      <trkpt lat="45.19987" lon="5.9513">
        <ele>1121.2</ele>
        <time>2026-07-14T13:53:00Z</time>
      </trkpt>
      <trkpt lat="45.19987" lon="5.9513">
        <ele>1121.1</ele>
        <time>2026-07-14T13:53:01Z</time>
      </trkpt>
      <trkpt lat="45.19987" lon="5.95129">
        <ele>1120.8</ele>
        <time>2026-07-14T13:53:02Z</time>
      </trkpt>
      <trkpt lat="45.19988" lon="5.95128">
        <ele>1120.6</ele>
        <time>2026-07-14T13:53:03Z</time>
      </trkpt>
      <trkpt lat="45.19989" lon="5.95128">
        <ele>1120.4</ele>
        <time>2026-07-14T13:53:05Z</time>
      </trkpt>
      <trkpt lat="45.19989" lon="5.95128">
        <ele>1120.2</ele>
        <time>2026-07-14T13:53:06Z</time>
      </trkpt>
      <trkpt lat="45.1999" lon="5.95128">
        <ele>1120</ele>
        <time>2026-07-14T13:53:07Z</time>
      </trkpt>
      <trkpt lat="45.1999" lon="5.95128">
        <ele>1119.9</ele>
        <time>2026-07-14T13:53:08Z</time>
      </trkpt>
      <trkpt lat="45.19991" lon="5.95127">
        <ele>1119.7</ele>
        <time>2026-07-14T13:53:09Z</time>
      </trkpt>
      <trkpt lat="45.19991" lon="5.95126">
        <ele>1119.6</ele>
        <time>2026-07-14T13:53:10Z</time>
      </trkpt>
      <trkpt lat="45.19991" lon="5.95126">
        <ele>1119.5</ele>
        <time>2026-07-14T13:53:11Z</time>
      </trkpt>
      <trkpt lat="45.19991" lon="5.95125">
        <ele>1119.4</ele>
        <time>2026-07-14T13:53:12Z</time>
      </trkpt>
      <trkpt lat="45.19991" lon="5.95125">
        <ele>1119.3</ele>
        <time>2026-07-14T13:53:13Z</time>
      </trkpt>
      <trkpt lat="45.19991" lon="5.95124">
        <ele>1119</ele>
        <time>2026-07-14T13:53:14Z</time>
      </trkpt>
      <trkpt lat="45.19991" lon="5.95123">
        <ele>1118.9</ele>
        <time>2026-07-14T13:53:15Z</time>
      </trkpt>
      <trkpt lat="45.19991" lon="5.95123">
        <ele>1118.8</ele>
        <time>2026-07-14T13:53:16Z</time>
      </trkpt>
      <trkpt lat="45.19992" lon="5.95122">
        <ele>1118.6</ele>
        <time>2026-07-14T13:53:17Z</time>
      </trkpt>
      <trkpt lat="45.19992" lon="5.95121">
        <ele>1118.5</ele>
        <time>2026-07-14T13:53:18Z</time>
      </trkpt>
      <trkpt lat="45.19993" lon="5.95121">
        <ele>1118.3</ele>
        <time>2026-07-14T13:53:19Z</time>
      </trkpt>
      <trkpt lat="45.19993" lon="5.95119">
        <ele>1117.9</ele>
        <time>2026-07-14T13:53:20Z</time>
      </trkpt>
      <trkpt lat="45.19993" lon="5.95118">
        <ele>1117.7</ele>
        <time>2026-07-14T13:53:22Z</time>
      </trkpt>
      <trkpt lat="45.19994" lon="5.95116">
        <ele>1117.4</ele>
        <time>2026-07-14T13:53:23Z</time>
      </trkpt>
      <trkpt lat="45.19994" lon="5.95113">
        <ele>1116.9</ele>
        <time>2026-07-14T13:53:24Z</time>
      </trkpt>
      <trkpt lat="45.19994" lon="5.95112">
        <ele>1116.6</ele>
        <time>2026-07-14T13:53:26Z</time>
      </trkpt>
      <trkpt lat="45.19994" lon="5.95109">
        <ele>1116.2</ele>
        <time>2026-07-14T13:53:27Z</time>
      </trkpt>
      <trkpt lat="45.19995" lon="5.95108">
        <ele>1116</ele>
        <time>2026-07-14T13:53:29Z</time>
      </trkpt>
      <trkpt lat="45.19995" lon="5.95106">
        <ele>1115.5</ele>
        <time>2026-07-14T13:53:30Z</time>
      </trkpt>
      <trkpt lat="45.19996" lon="5.95105">
        <ele>1115.3</ele>
        <time>2026-07-14T13:53:32Z</time>
      </trkpt>
      <trkpt lat="45.19997" lon="5.95104">
        <ele>1114.9</ele>
        <time>2026-07-14T13:53:33Z</time>
      </trkpt>
      <trkpt lat="45.19998" lon="5.95101">
        <ele>1114.4</ele>
        <time>2026-07-14T13:53:34Z</time>
      </trkpt>
      <trkpt lat="45.19999" lon="5.951">
        <ele>1114.1</ele>
        <time>2026-07-14T13:53:36Z</time>
      </trkpt>
      <trkpt lat="45.19999" lon="5.95099">
        <ele>1113.9</ele>
        <time>2026-07-14T13:53:37Z</time>
      </trkpt>
      <trkpt lat="45.19999" lon="5.95097">
        <ele>1113.7</ele>
        <time>2026-07-14T13:53:38Z</time>
      </trkpt>
      <trkpt lat="45.2" lon="5.95095">
        <ele>1113.2</ele>
        <time>2026-07-14T13:53:39Z</time>
      </trkpt>
      <trkpt lat="45.20001" lon="5.95093">
        <ele>1112.9</ele>
        <time>2026-07-14T13:53:41Z</time>
      </trkpt>
      <trkpt lat="45.20001" lon="5.95093">
        <ele>1112.8</ele>
        <time>2026-07-14T13:53:42Z</time>
      </trkpt>
      <trkpt lat="45.20002" lon="5.95092">
        <ele>1112.6</ele>
        <time>2026-07-14T13:53:43Z</time>
      </trkpt>
      <trkpt lat="45.20002" lon="5.95091">
        <ele>1112.4</ele>
        <time>2026-07-14T13:53:44Z</time>
      </trkpt>
      <trkpt lat="45.20003" lon="5.9509">
        <ele>1112.1</ele>
        <time>2026-07-14T13:53:45Z</time>
      </trkpt>
      <trkpt lat="45.20004" lon="5.95091">
        <ele>1112</ele>
        <time>2026-07-14T13:53:46Z</time>
      </trkpt>
      <trkpt lat="45.20004" lon="5.9509">
        <ele>1111.7</ele>
        <time>2026-07-14T13:53:47Z</time>
      </trkpt>
      <trkpt lat="45.20005" lon="5.95089">
        <ele>1111.5</ele>
        <time>2026-07-14T13:53:48Z</time>
      </trkpt>
      <trkpt lat="45.20006" lon="5.95087">
        <ele>1111.2</ele>
        <time>2026-07-14T13:53:49Z</time>
      </trkpt>
      <trkpt lat="45.20006" lon="5.95086">
        <ele>1111</ele>
        <time>2026-07-14T13:53:50Z</time>
      </trkpt>
      <trkpt lat="45.20007" lon="5.95086">
        <ele>1110.9</ele>
        <time>2026-07-14T13:53:51Z</time>
      </trkpt>
      <trkpt lat="45.20007" lon="5.95085">
        <ele>1110.6</ele>
        <time>2026-07-14T13:53:52Z</time>
      </trkpt>
      <trkpt lat="45.20007" lon="5.95084">
        <ele>1110.5</ele>
        <time>2026-07-14T13:53:53Z</time>
      </trkpt>
      <trkpt lat="45.20007" lon="5.95083">
        <ele>1110.3</ele>
        <time>2026-07-14T13:53:54Z</time>
      </trkpt>
      <trkpt lat="45.20007" lon="5.95082">
        <ele>1110.1</ele>
        <time>2026-07-14T13:53:55Z</time>
      </trkpt>
      <trkpt lat="45.20007" lon="5.9508">
        <ele>1109.9</ele>
        <time>2026-07-14T13:53:56Z</time>
      </trkpt>
      <trkpt lat="45.20008" lon="5.95079">
        <ele>1109.6</ele>
        <time>2026-07-14T13:53:57Z</time>
      </trkpt>
      <trkpt lat="45.20008" lon="5.95079">
        <ele>1109.4</ele>
        <time>2026-07-14T13:53:58Z</time>
      </trkpt>
      <trkpt lat="45.2001" lon="5.95077">
        <ele>1109</ele>
        <time>2026-07-14T13:53:59Z</time>
      </trkpt>
      <trkpt lat="45.2001" lon="5.95077">
        <ele>1108.8</ele>
        <time>2026-07-14T13:54:01Z</time>
      </trkpt>
      <trkpt lat="45.20011" lon="5.95076">
        <ele>1108.6</ele>
        <time>2026-07-14T13:54:02Z</time>
      </trkpt>
      <trkpt lat="45.20012" lon="5.95076">
        <ele>1108.4</ele>
        <time>2026-07-14T13:54:03Z</time>
      </trkpt>
      <trkpt lat="45.20013" lon="5.95077">
        <ele>1108.1</ele>
        <time>2026-07-14T13:54:04Z</time>
      </trkpt>
      <trkpt lat="45.20013" lon="5.95079">
        <ele>1107.8</ele>
        <time>2026-07-14T13:54:05Z</time>
      </trkpt>
      <trkpt lat="45.20014" lon="5.9508">
        <ele>1107.6</ele>
        <time>2026-07-14T13:54:06Z</time>
      </trkpt>
      <trkpt lat="45.20014" lon="5.95081">
        <ele>1107.4</ele>
        <time>2026-07-14T13:54:07Z</time>
      </trkpt>
      <trkpt lat="45.20015" lon="5.95083">
        <ele>1106.9</ele>
        <time>2026-07-14T13:54:08Z</time>
      </trkpt>
      <trkpt lat="45.20015" lon="5.95085">
        <ele>1106.6</ele>
        <time>2026-07-14T13:54:10Z</time>
      </trkpt>
      <trkpt lat="45.20015" lon="5.95085">
        <ele>1106.4</ele>
        <time>2026-07-14T13:54:11Z</time>
      </trkpt>
      <trkpt lat="45.20015" lon="5.95086">
        <ele>1106.3</ele>
        <time>2026-07-14T13:54:12Z</time>
      </trkpt>
      <trkpt lat="45.20017" lon="5.95087">
        <ele>1105.9</ele>
        <time>2026-07-14T13:54:13Z</time>
      </trkpt>
      <trkpt lat="45.20018" lon="5.95087">
        <ele>1105.6</ele>
        <time>2026-07-14T13:54:14Z</time>
      </trkpt>
      <trkpt lat="45.20018" lon="5.95088">
        <ele>1105.4</ele>
        <time>2026-07-14T13:54:16Z</time>
      </trkpt>
      <trkpt lat="45.20019" lon="5.95089">
        <ele>1105.3</ele>
        <time>2026-07-14T13:54:17Z</time>
      </trkpt>
      <trkpt lat="45.20019" lon="5.95091">
        <ele>1104.8</ele>
        <time>2026-07-14T13:54:18Z</time>
      </trkpt>
      <trkpt lat="45.2002" lon="5.95091">
        <ele>1104.7</ele>
        <time>2026-07-14T13:54:20Z</time>
      </trkpt>
      <trkpt lat="45.2002" lon="5.95092">
        <ele>1104.5</ele>
        <time>2026-07-14T13:54:21Z</time>
      </trkpt>
      <trkpt lat="45.20021" lon="5.95092">
        <ele>1104.3</ele>
        <time>2026-07-14T13:54:22Z</time>
      </trkpt>
      <trkpt lat="45.20022" lon="5.95092">
        <ele>1104.1</ele>
        <time>2026-07-14T13:54:23Z</time>
      </trkpt>
      <trkpt lat="45.20022" lon="5.9509">
        <ele>1103.5</ele>
        <time>2026-07-14T13:54:24Z</time>
      </trkpt>
      <trkpt lat="45.20022" lon="5.95088">
        <ele>1103.2</ele>
        <time>2026-07-14T13:54:25Z</time>
      </trkpt>
      <trkpt lat="45.20022" lon="5.95087">
        <ele>1102.9</ele>
        <time>2026-07-14T13:54:26Z</time>
      </trkpt>
      <trkpt lat="45.20021" lon="5.95086">
        <ele>1102.7</ele>
        <time>2026-07-14T13:54:27Z</time>
      </trkpt>
      <trkpt lat="45.20021" lon="5.95086">
        <ele>1102.7</ele>
        <time>2026-07-14T13:54:28Z</time>
      </trkpt>
      <trkpt lat="45.20021" lon="5.95086">
        <ele>1102.5</ele>
        <time>2026-07-14T13:54:29Z</time>
      </trkpt>
      <trkpt lat="45.20021" lon="5.95086">
        <ele>1102.5</ele>
        <time>2026-07-14T13:54:30Z</time>
      </trkpt>
      <trkpt lat="45.20021" lon="5.95085">
        <ele>1102.4</ele>
        <time>2026-07-14T13:54:31Z</time>
      </trkpt>
      <trkpt lat="45.20021" lon="5.95085">
        <ele>1102.3</ele>
        <time>2026-07-14T13:54:32Z</time>
      </trkpt>
      <trkpt lat="45.20021" lon="5.95084">
        <ele>1102.2</ele>
        <time>2026-07-14T13:54:33Z</time>
      </trkpt>
      <trkpt lat="45.20021" lon="5.95084">
        <ele>1102.2</ele>
        <time>2026-07-14T13:54:34Z</time>
      </trkpt>
      <trkpt lat="45.20021" lon="5.95084">
        <ele>1102.1</ele>
        <time>2026-07-14T13:54:35Z</time>
      </trkpt>
      <trkpt lat="45.20021" lon="5.95083">
        <ele>1102</ele>
        <time>2026-07-14T13:54:36Z</time>
      </trkpt>
      <trkpt lat="45.20021" lon="5.95083">
        <ele>1102</ele>
        <time>2026-07-14T13:54:37Z</time>
      </trkpt>
      <trkpt lat="45.20021" lon="5.95083">
        <ele>1101.9</ele>
        <time>2026-07-14T13:54:38Z</time>
      </trkpt>
      <trkpt lat="45.20021" lon="5.95083">
        <ele>1101.9</ele>
        <time>2026-07-14T13:54:39Z</time>
      </trkpt>
      <trkpt lat="45.20021" lon="5.95083">
        <ele>1101.8</ele>
        <time>2026-07-14T13:54:40Z</time>
      </trkpt>
      <trkpt lat="45.20021" lon="5.95082">
        <ele>1101.8</ele>
        <time>2026-07-14T13:54:41Z</time>
      </trkpt>
      <trkpt lat="45.20021" lon="5.95082">
        <ele>1101.8</ele>
        <time>2026-07-14T13:54:42Z</time>
      </trkpt>
      <trkpt lat="45.20021" lon="5.95082">
        <ele>1101.7</ele>
        <time>2026-07-14T13:54:43Z</time>
      </trkpt>
      <trkpt lat="45.20021" lon="5.95082">
        <ele>1101.7</ele>
        <time>2026-07-14T13:54:44Z</time>
      </trkpt>
      <trkpt lat="45.20021" lon="5.95082">
        <ele>1101.7</ele>
        <time>2026-07-14T13:54:45Z</time>
      </trkpt>
      <trkpt lat="45.20021" lon="5.95082">
        <ele>1101.6</ele>
        <time>2026-07-14T13:54:46Z</time>
      </trkpt>
      <trkpt lat="45.20021" lon="5.95082">
        <ele>1101.5</ele>
        <time>2026-07-14T13:54:47Z</time>
      </trkpt>
      <trkpt lat="45.20022" lon="5.95082">
        <ele>1101.5</ele>
        <time>2026-07-14T13:54:48Z</time>
      </trkpt>
      <trkpt lat="45.20023" lon="5.95085">
        <ele>1100.8</ele>
        <time>2026-07-14T13:54:49Z</time>
      </trkpt>
      <trkpt lat="45.20023" lon="5.95087">
        <ele>1100.4</ele>
        <time>2026-07-14T13:54:51Z</time>
      </trkpt>
      <trkpt lat="45.20024" lon="5.95088">
        <ele>1100</ele>
        <time>2026-07-14T13:54:52Z</time>
      </trkpt>
      <trkpt lat="45.20024" lon="5.95089">
        <ele>1099.8</ele>
        <time>2026-07-14T13:54:53Z</time>
      </trkpt>
      <trkpt lat="45.20026" lon="5.9509">
        <ele>1099.3</ele>
        <time>2026-07-14T13:54:54Z</time>
      </trkpt>
      <trkpt lat="45.20026" lon="5.9509">
        <ele>1099.1</ele>
        <time>2026-07-14T13:54:56Z</time>
      </trkpt>
      <trkpt lat="45.20026" lon="5.95091">
        <ele>1098.9</ele>
        <time>2026-07-14T13:54:57Z</time>
      </trkpt>
      <trkpt lat="45.20026" lon="5.95092">
        <ele>1098.7</ele>
        <time>2026-07-14T13:54:58Z</time>
      </trkpt>
      <trkpt lat="45.20026" lon="5.95094">
        <ele>1098.2</ele>
        <time>2026-07-14T13:54:59Z</time>
      </trkpt>
      <trkpt lat="45.20026" lon="5.95095">
        <ele>1098</ele>
        <time>2026-07-14T13:55:01Z</time>
      </trkpt>
      <trkpt lat="45.20026" lon="5.95097">
        <ele>1097.6</ele>
        <time>2026-07-14T13:55:02Z</time>
      </trkpt>
      <trkpt lat="45.20026" lon="5.95098">
        <ele>1097.3</ele>
        <time>2026-07-14T13:55:03Z</time>
      </trkpt>
      <trkpt lat="45.20026" lon="5.95099">
        <ele>1097.1</ele>
        <time>2026-07-14T13:55:05Z</time>
      </trkpt>
      <trkpt lat="45.20026" lon="5.951">
        <ele>1096.8</ele>
        <time>2026-07-14T13:55:06Z</time>
      </trkpt>
      <trkpt lat="45.20026" lon="5.95101">
        <ele>1096.7</ele>
        <time>2026-07-14T13:55:07Z</time>
      </trkpt>
      <trkpt lat="45.20027" lon="5.95101">
        <ele>1096.4</ele>
        <time>2026-07-14T13:55:08Z</time>
      </trkpt>
      <trkpt lat="45.20028" lon="5.95101">
        <ele>1096.2</ele>
        <time>2026-07-14T13:55:09Z</time>
      </trkpt>
      <trkpt lat="45.20029" lon="5.95101">
        <ele>1095.9</ele>
        <time>2026-07-14T13:55:10Z</time>
      </trkpt>
      <trkpt lat="45.20031" lon="5.95101">
        <ele>1095.3</ele>
        <time>2026-07-14T13:55:11Z</time>
      </trkpt>
      <trkpt lat="45.20031" lon="5.95101">
        <ele>1095.1</ele>
        <time>2026-07-14T13:55:13Z</time>
      </trkpt>
      <trkpt lat="45.20031" lon="5.95101">
        <ele>1095</ele>
        <time>2026-07-14T13:55:14Z</time>
      </trkpt>
      <trkpt lat="45.20032" lon="5.95101">
        <ele>1094.8</ele>
        <time>2026-07-14T13:55:15Z</time>
      </trkpt>
      <trkpt lat="45.20032" lon="5.95102">
        <ele>1094.6</ele>
        <time>2026-07-14T13:55:16Z</time>
      </trkpt>
      <trkpt lat="45.20032" lon="5.95103">
        <ele>1094.4</ele>
        <time>2026-07-14T13:55:17Z</time>
      </trkpt>
      <trkpt lat="45.20032" lon="5.95104">
        <ele>1094</ele>
        <time>2026-07-14T13:55:18Z</time>
      </trkpt>
      <trkpt lat="45.20032" lon="5.95106">
        <ele>1093.7</ele>
        <time>2026-07-14T13:55:19Z</time>
      </trkpt>
      <trkpt lat="45.20032" lon="5.95107">
        <ele>1093.3</ele>
        <time>2026-07-14T13:55:20Z</time>
      </trkpt>
      <trkpt lat="45.20032" lon="5.95108">
        <ele>1093</ele>
        <time>2026-07-14T13:55:21Z</time>
      </trkpt>
      <trkpt lat="45.20032" lon="5.95109">
        <ele>1092.8</ele>
        <time>2026-07-14T13:55:22Z</time>
      </trkpt>
      <trkpt lat="45.20033" lon="5.95111">
        <ele>1092.2</ele>
        <time>2026-07-14T13:55:23Z</time>
      </trkpt>
      <trkpt lat="45.20033" lon="5.95112">
        <ele>1092.1</ele>
        <time>2026-07-14T13:55:25Z</time>
      </trkpt>
      <trkpt lat="45.20033" lon="5.95112">
        <ele>1092</ele>
        <time>2026-07-14T13:55:26Z</time>
      </trkpt>
      <trkpt lat="45.20035" lon="5.95112">
        <ele>1091.5</ele>
        <time>2026-07-14T13:55:27Z</time>
      </trkpt>
      <trkpt lat="45.20035" lon="5.95111">
        <ele>1091.2</ele>
        <time>2026-07-14T13:55:28Z</time>
      </trkpt>
      <trkpt lat="45.20036" lon="5.9511">
        <ele>1090.6</ele>
        <time>2026-07-14T13:55:30Z</time>
      </trkpt>
      <trkpt lat="45.20036" lon="5.95108">
        <ele>1090.3</ele>
        <time>2026-07-14T13:55:31Z</time>
      </trkpt>
      <trkpt lat="45.20037" lon="5.95107">
        <ele>1089.9</ele>
        <time>2026-07-14T13:55:32Z</time>
      </trkpt>
      <trkpt lat="45.20037" lon="5.95106">
        <ele>1089.7</ele>
        <time>2026-07-14T13:55:33Z</time>
      </trkpt>
      <trkpt lat="45.20037" lon="5.95106">
        <ele>1089.6</ele>
        <time>2026-07-14T13:55:34Z</time>
      </trkpt>
      <trkpt lat="45.20037" lon="5.95106">
        <ele>1089.5</ele>
        <time>2026-07-14T13:55:35Z</time>
      </trkpt>
      <trkpt lat="45.20037" lon="5.95105">
        <ele>1089.4</ele>
        <time>2026-07-14T13:55:36Z</time>
      </trkpt>
      <trkpt lat="45.20038" lon="5.95105">
        <ele>1089.1</ele>
        <time>2026-07-14T13:55:37Z</time>
      </trkpt>
      <trkpt lat="45.20038" lon="5.95105">
        <ele>1089</ele>
        <time>2026-07-14T13:55:38Z</time>
      </trkpt>
      <trkpt lat="45.20039" lon="5.95106">
        <ele>1088.7</ele>
        <time>2026-07-14T13:55:39Z</time>
      </trkpt>
      <trkpt lat="45.20039" lon="5.95107">
        <ele>1088.5</ele>
        <time>2026-07-14T13:55:41Z</time>
      </trkpt>
      <trkpt lat="45.2004" lon="5.95107">
        <ele>1088.2</ele>
        <time>2026-07-14T13:55:42Z</time>
      </trkpt>
      <trkpt lat="45.2004" lon="5.95108">
        <ele>1087.8</ele>
        <time>2026-07-14T13:55:43Z</time>
      </trkpt>
      <trkpt lat="45.2004" lon="5.95109">
        <ele>1087.6</ele>
        <time>2026-07-14T13:55:45Z</time>
      </trkpt>
      <trkpt lat="45.2004" lon="5.95109">
        <ele>1087.4</ele>
        <time>2026-07-14T13:55:46Z</time>
      </trkpt>
      <trkpt lat="45.2004" lon="5.95111">
        <ele>1087.1</ele>
        <time>2026-07-14T13:55:47Z</time>
      </trkpt>
      <trkpt lat="45.2004" lon="5.95111">
        <ele>1086.9</ele>
        <time>2026-07-14T13:55:48Z</time>
      </trkpt>
      <trkpt lat="45.2004" lon="5.95113">
        <ele>1086.6</ele>
        <time>2026-07-14T13:55:49Z</time>
      </trkpt>
      <trkpt lat="45.20042" lon="5.95114">
        <ele>1086</ele>
        <time>2026-07-14T13:55:50Z</time>
      </trkpt>
      <trkpt lat="45.20042" lon="5.95114">
        <ele>1085.7</ele>
        <time>2026-07-14T13:55:51Z</time>
      </trkpt>
      <trkpt lat="45.20043" lon="5.95113">
        <ele>1085.2</ele>
        <time>2026-07-14T13:55:53Z</time>
      </trkpt>
      <trkpt lat="45.20044" lon="5.95112">
        <ele>1084.9</ele>
        <time>2026-07-14T13:55:54Z</time>
      </trkpt>
      <trkpt lat="45.20045" lon="5.95112">
        <ele>1084.7</ele>
        <time>2026-07-14T13:55:55Z</time>
      </trkpt>
      <trkpt lat="45.20046" lon="5.95112">
        <ele>1084.4</ele>
        <time>2026-07-14T13:55:56Z</time>
      </trkpt>
      <trkpt lat="45.20047" lon="5.95113">
        <ele>1083.8</ele>
        <time>2026-07-14T13:55:57Z</time>
      </trkpt>
      <trkpt lat="45.20047" lon="5.95114">
        <ele>1083.6</ele>
        <time>2026-07-14T13:55:59Z</time>
      </trkpt>
      <trkpt lat="45.20048" lon="5.95114">
        <ele>1083.4</ele>
        <time>2026-07-14T13:56:00Z</time>
      </trkpt>
      <trkpt lat="45.20049" lon="5.95115">
        <ele>1082.8</ele>
        <time>2026-07-14T13:56:01Z</time>
      </trkpt>
      <trkpt lat="45.2005" lon="5.95116">
        <ele>1082.6</ele>
        <time>2026-07-14T13:56:03Z</time>
      </trkpt>
      <trkpt lat="45.2005" lon="5.95116">
        <ele>1082.5</ele>
        <time>2026-07-14T13:56:04Z</time>
      </trkpt>
      <trkpt lat="45.2005" lon="5.95116">
        <ele>1082.3</ele>
        <time>2026-07-14T13:56:05Z</time>
      </trkpt>
      <trkpt lat="45.20051" lon="5.95117">
        <ele>1082</ele>
        <time>2026-07-14T13:56:06Z</time>
      </trkpt>
      <trkpt lat="45.20052" lon="5.95117">
        <ele>1081.7</ele>
        <time>2026-07-14T13:56:07Z</time>
      </trkpt>
      <trkpt lat="45.20053" lon="5.95118">
        <ele>1081.4</ele>
        <time>2026-07-14T13:56:08Z</time>
      </trkpt>
      <trkpt lat="45.20053" lon="5.95117">
        <ele>1081.3</ele>
        <time>2026-07-14T13:56:09Z</time>
      </trkpt>
      <trkpt lat="45.20053" lon="5.95117">
        <ele>1081</ele>
        <time>2026-07-14T13:56:10Z</time>
      </trkpt>
      <trkpt lat="45.20053" lon="5.95116">
        <ele>1080.7</ele>
        <time>2026-07-14T13:56:11Z</time>
      </trkpt>
      <trkpt lat="45.20052" lon="5.95114">
        <ele>1080.4</ele>
        <time>2026-07-14T13:56:12Z</time>
      </trkpt>
      <trkpt lat="45.20052" lon="5.95113">
        <ele>1080.1</ele>
        <time>2026-07-14T13:56:13Z</time>
      </trkpt>
      <trkpt lat="45.20052" lon="5.95113">
        <ele>1079.9</ele>
        <time>2026-07-14T13:56:14Z</time>
      </trkpt>
      <trkpt lat="45.20052" lon="5.95112">
        <ele>1079.7</ele>
        <time>2026-07-14T13:56:15Z</time>
      </trkpt>
      <trkpt lat="45.20052" lon="5.95111">
        <ele>1079.6</ele>
        <time>2026-07-14T13:56:16Z</time>
      </trkpt>
      <trkpt lat="45.20053" lon="5.95111">
        <ele>1079.3</ele>
        <time>2026-07-14T13:56:17Z</time>
      </trkpt>
      <trkpt lat="45.20053" lon="5.95112">
        <ele>1079.1</ele>
        <time>2026-07-14T13:56:18Z</time>
      </trkpt>
      <trkpt lat="45.20054" lon="5.95113">
        <ele>1078.9</ele>
        <time>2026-07-14T13:56:19Z</time>
      </trkpt>
      <trkpt lat="45.20054" lon="5.95114">
        <ele>1078.7</ele>
        <time>2026-07-14T13:56:21Z</time>
      </trkpt>
      <trkpt lat="45.20055" lon="5.95115">
        <ele>1078.2</ele>
        <time>2026-07-14T13:56:23Z</time>
      </trkpt>
      <trkpt lat="45.20056" lon="5.95117">
        <ele>1077.6</ele>
        <time>2026-07-14T13:56:24Z</time>
      </trkpt>
      <trkpt lat="45.20056" lon="5.95118">
        <ele>1077.4</ele>
        <time>2026-07-14T13:56:25Z</time>
      </trkpt>
      <trkpt lat="45.20057" lon="5.95119">
        <ele>1077.1</ele>
        <time>2026-07-14T13:56:27Z</time>
      </trkpt>
      <trkpt lat="45.20057" lon="5.9512">
        <ele>1076.9</ele>
        <time>2026-07-14T13:56:28Z</time>
      </trkpt>
      <trkpt lat="45.20058" lon="5.95121">
        <ele>1076.5</ele>
        <time>2026-07-14T13:56:29Z</time>
      </trkpt>
      <trkpt lat="45.20058" lon="5.95122">
        <ele>1076.3</ele>
        <time>2026-07-14T13:56:31Z</time>
      </trkpt>
      <trkpt lat="45.20059" lon="5.95122">
        <ele>1076.1</ele>
        <time>2026-07-14T13:56:32Z</time>
      </trkpt>
      <trkpt lat="45.2006" lon="5.95121">
        <ele>1075.7</ele>
        <time>2026-07-14T13:56:33Z</time>
      </trkpt>
      <trkpt lat="45.20061" lon="5.95121">
        <ele>1075.6</ele>
        <time>2026-07-14T13:56:35Z</time>
      </trkpt>
      <trkpt lat="45.20061" lon="5.9512">
        <ele>1075.4</ele>
        <time>2026-07-14T13:56:36Z</time>
      </trkpt>
      <trkpt lat="45.20061" lon="5.95119">
        <ele>1075.2</ele>
        <time>2026-07-14T13:56:37Z</time>
      </trkpt>
      <trkpt lat="45.2006" lon="5.95118">
        <ele>1074.9</ele>
        <time>2026-07-14T13:56:38Z</time>
      </trkpt>
      <trkpt lat="45.2006" lon="5.95117">
        <ele>1074.7</ele>
        <time>2026-07-14T13:56:40Z</time>
      </trkpt>
      <trkpt lat="45.2006" lon="5.95117">
        <ele>1074.5</ele>
        <time>2026-07-14T13:56:41Z</time>
      </trkpt>
      <trkpt lat="45.2006" lon="5.95117">
        <ele>1074.4</ele>
        <time>2026-07-14T13:56:43Z</time>
      </trkpt>
      <trkpt lat="45.2006" lon="5.95117">
        <ele>1074.4</ele>
        <time>2026-07-14T13:56:44Z</time>
      </trkpt>
      <trkpt lat="45.2006" lon="5.95116">
        <ele>1074.1</ele>
        <time>2026-07-14T13:56:45Z</time>
      </trkpt>
      <trkpt lat="45.2006" lon="5.95116">
        <ele>1074.1</ele>
        <time>2026-07-14T13:56:47Z</time>
      </trkpt>
      <trkpt lat="45.20059" lon="5.95116">
        <ele>1073.9</ele>
        <time>2026-07-14T13:56:48Z</time>
      </trkpt>
      <trkpt lat="45.20058" lon="5.95116">
        <ele>1073.5</ele>
        <time>2026-07-14T13:56:49Z</time>
      </trkpt>
      <trkpt lat="45.20057" lon="5.95115">
        <ele>1073.3</ele>
        <time>2026-07-14T13:56:50Z</time>
      </trkpt>
      <trkpt lat="45.20057" lon="5.95114">
        <ele>1073</ele>
        <time>2026-07-14T13:56:51Z</time>
      </trkpt>
      <trkpt lat="45.20057" lon="5.95114">
        <ele>1073</ele>
        <time>2026-07-14T13:56:52Z</time>
      </trkpt>
      <trkpt lat="45.20057" lon="5.95113">
        <ele>1072.8</ele>
        <time>2026-07-14T13:56:53Z</time>
      </trkpt>
      <trkpt lat="45.20057" lon="5.95113">
        <ele>1072.8</ele>
        <time>2026-07-14T13:56:54Z</time>
      </trkpt>
      <trkpt lat="45.20057" lon="5.95112">
        <ele>1072.7</ele>
        <time>2026-07-14T13:56:55Z</time>
      </trkpt>
      <trkpt lat="45.20057" lon="5.95112">
        <ele>1072.6</ele>
        <time>2026-07-14T13:56:56Z</time>
      </trkpt>
      <trkpt lat="45.20057" lon="5.95111">
        <ele>1072.4</ele>
        <time>2026-07-14T13:56:57Z</time>
      </trkpt>
      <trkpt lat="45.20057" lon="5.9511">
        <ele>1072.2</ele>
        <time>2026-07-14T13:56:58Z</time>
      </trkpt>
      <trkpt lat="45.20057" lon="5.95109">
        <ele>1072</ele>
        <time>2026-07-14T13:56:59Z</time>
      </trkpt>
      <trkpt lat="45.20058" lon="5.95108">
        <ele>1071.8</ele>
        <time>2026-07-14T13:57:00Z</time>
      </trkpt>
      <trkpt lat="45.20058" lon="5.95107">
        <ele>1071.6</ele>
        <time>2026-07-14T13:57:01Z</time>
      </trkpt>
      <trkpt lat="45.20059" lon="5.95106">
        <ele>1071.4</ele>
        <time>2026-07-14T13:57:02Z</time>
      </trkpt>
      <trkpt lat="45.20059" lon="5.95105">
        <ele>1071.1</ele>
        <time>2026-07-14T13:57:03Z</time>
      </trkpt>
      <trkpt lat="45.2006" lon="5.95105">
        <ele>1071</ele>
        <time>2026-07-14T13:57:04Z</time>
      </trkpt>
      <trkpt lat="45.2006" lon="5.95104">
        <ele>1070.8</ele>
        <time>2026-07-14T13:57:05Z</time>
      </trkpt>
      <trkpt lat="45.2006" lon="5.95102">
        <ele>1070.5</ele>
        <time>2026-07-14T13:57:06Z</time>
      </trkpt>
      <trkpt lat="45.20061" lon="5.95102">
        <ele>1070.4</ele>
        <time>2026-07-14T13:57:07Z</time>
      </trkpt>
      <trkpt lat="45.20061" lon="5.95101">
        <ele>1070.2</ele>
        <time>2026-07-14T13:57:08Z</time>
      </trkpt>
      <trkpt lat="45.20061" lon="5.95101">
        <ele>1070.2</ele>
        <time>2026-07-14T13:57:09Z</time>
      </trkpt>
      <trkpt lat="45.20062" lon="5.951">
        <ele>1070</ele>
        <time>2026-07-14T13:57:10Z</time>
      </trkpt>
      <trkpt lat="45.20062" lon="5.95101">
        <ele>1069.9</ele>
        <time>2026-07-14T13:57:11Z</time>
      </trkpt>
      <trkpt lat="45.20061" lon="5.951">
        <ele>1069.9</ele>
        <time>2026-07-14T13:57:12Z</time>
      </trkpt>
      <trkpt lat="45.20062" lon="5.95099">
        <ele>1069.7</ele>
        <time>2026-07-14T13:57:13Z</time>
      </trkpt>
      <trkpt lat="45.20062" lon="5.95099">
        <ele>1069.6</ele>
        <time>2026-07-14T13:57:14Z</time>
      </trkpt>
      <trkpt lat="45.20062" lon="5.95098">
        <ele>1069.5</ele>
        <time>2026-07-14T13:57:15Z</time>
      </trkpt>
      <trkpt lat="45.20063" lon="5.95096">
        <ele>1069</ele>
        <time>2026-07-14T13:57:16Z</time>
      </trkpt>
      <trkpt lat="45.20063" lon="5.95095">
        <ele>1068.9</ele>
        <time>2026-07-14T13:57:18Z</time>
      </trkpt>
      <trkpt lat="45.20063" lon="5.95094">
        <ele>1068.7</ele>
        <time>2026-07-14T13:57:19Z</time>
      </trkpt>
      <trkpt lat="45.20063" lon="5.95093">
        <ele>1068.5</ele>
        <time>2026-07-14T13:57:20Z</time>
      </trkpt>
      <trkpt lat="45.20064" lon="5.95091">
        <ele>1068.2</ele>
        <time>2026-07-14T13:57:21Z</time>
      </trkpt>
      <trkpt lat="45.20064" lon="5.9509">
        <ele>1068</ele>
        <time>2026-07-14T13:57:22Z</time>
      </trkpt>
      <trkpt lat="45.20064" lon="5.95089">
        <ele>1067.9</ele>
        <time>2026-07-14T13:57:23Z</time>
      </trkpt>
      <trkpt lat="45.20064" lon="5.95088">
        <ele>1067.6</ele>
        <time>2026-07-14T13:57:24Z</time>
      </trkpt>
      <trkpt lat="45.20064" lon="5.95087">
        <ele>1067.5</ele>
        <time>2026-07-14T13:57:25Z</time>
      </trkpt>
      <trkpt lat="45.20065" lon="5.95085">
        <ele>1067.1</ele>
        <time>2026-07-14T13:57:26Z</time>
      </trkpt>
      <trkpt lat="45.20065" lon="5.95084">
        <ele>1066.9</ele>
        <time>2026-07-14T13:57:28Z</time>
      </trkpt>
      <trkpt lat="45.20066" lon="5.95083">
        <ele>1066.7</ele>
        <time>2026-07-14T13:57:29Z</time>
      </trkpt>
      <trkpt lat="45.20067" lon="5.95081">
        <ele>1066.3</ele>
        <time>2026-07-14T13:57:30Z</time>
      </trkpt>
      <trkpt lat="45.20067" lon="5.9508">
        <ele>1066.2</ele>
        <time>2026-07-14T13:57:32Z</time>
      </trkpt>
      <trkpt lat="45.20067" lon="5.95079">
        <ele>1066</ele>
        <time>2026-07-14T13:57:33Z</time>
      </trkpt>
      <trkpt lat="45.20068" lon="5.95079">
        <ele>1065.8</ele>
        <time>2026-07-14T13:57:34Z</time>
      </trkpt>
      <trkpt lat="45.20069" lon="5.95077">
        <ele>1065.4</ele>
        <time>2026-07-14T13:57:35Z</time>
      </trkpt>
      <trkpt lat="45.20068" lon="5.95076">
        <ele>1065.3</ele>
        <time>2026-07-14T13:57:37Z</time>
      </trkpt>
      <trkpt lat="45.20068" lon="5.95075">
        <ele>1065.1</ele>
        <time>2026-07-14T13:57:38Z</time>
      </trkpt>
      <trkpt lat="45.20068" lon="5.95074">
        <ele>1065</ele>
        <time>2026-07-14T13:57:39Z</time>
      </trkpt>
      <trkpt lat="45.20068" lon="5.95073">
        <ele>1064.8</ele>
        <time>2026-07-14T13:57:40Z</time>
      </trkpt>
      <trkpt lat="45.20068" lon="5.95071">
        <ele>1064.4</ele>
        <time>2026-07-14T13:57:41Z</time>
      </trkpt>
      <trkpt lat="45.20068" lon="5.95069">
        <ele>1064.2</ele>
        <time>2026-07-14T13:57:43Z</time>
      </trkpt>
      <trkpt lat="45.20069" lon="5.95067">
        <ele>1063.8</ele>
        <time>2026-07-14T13:57:44Z</time>
      </trkpt>
      <trkpt lat="45.20069" lon="5.95065">
        <ele>1063.5</ele>
        <time>2026-07-14T13:57:46Z</time>
      </trkpt>
      <trkpt lat="45.2007" lon="5.95064">
        <ele>1063.2</ele>
        <time>2026-07-14T13:57:47Z</time>
      </trkpt>
      <trkpt lat="45.20071" lon="5.95063">
        <ele>1063</ele>
        <time>2026-07-14T13:57:48Z</time>
      </trkpt>
      <trkpt lat="45.20072" lon="5.95062">
        <ele>1062.6</ele>
        <time>2026-07-14T13:57:49Z</time>
      </trkpt>
      <trkpt lat="45.20074" lon="5.95059">
        <ele>1062</ele>
        <time>2026-07-14T13:57:50Z</time>
      </trkpt>
      <trkpt lat="45.20075" lon="5.95058">
        <ele>1061.7</ele>
        <time>2026-07-14T13:57:52Z</time>
      </trkpt>
      <trkpt lat="45.20075" lon="5.95056">
        <ele>1061.4</ele>
        <time>2026-07-14T13:57:53Z</time>
      </trkpt>
      <trkpt lat="45.20077" lon="5.95054">
        <ele>1060.8</ele>
        <time>2026-07-14T13:57:54Z</time>
      </trkpt>
      <trkpt lat="45.20078" lon="5.95052">
        <ele>1060.4</ele>
        <time>2026-07-14T13:57:56Z</time>
      </trkpt>
      <trkpt lat="45.20079" lon="5.95051">
        <ele>1060.1</ele>
        <time>2026-07-14T13:57:57Z</time>
      </trkpt>
      <trkpt lat="45.2008" lon="5.9505">
        <ele>1059.8</ele>
        <time>2026-07-14T13:57:58Z</time>
      </trkpt>
      <trkpt lat="45.20081" lon="5.9505">
        <ele>1059.5</ele>
        <time>2026-07-14T13:57:59Z</time>
      </trkpt>
      <trkpt lat="45.20082" lon="5.95051">
        <ele>1059.2</ele>
        <time>2026-07-14T13:58:00Z</time>
      </trkpt>
      <trkpt lat="45.20081" lon="5.95054">
        <ele>1058.7</ele>
        <time>2026-07-14T13:58:01Z</time>
      </trkpt>
      <trkpt lat="45.2008" lon="5.95054">
        <ele>1058.5</ele>
        <time>2026-07-14T13:58:02Z</time>
      </trkpt>
      <trkpt lat="45.2008" lon="5.95054">
        <ele>1058.3</ele>
        <time>2026-07-14T13:58:03Z</time>
      </trkpt>
      <trkpt lat="45.20079" lon="5.95054">
        <ele>1058.1</ele>
        <time>2026-07-14T13:58:05Z</time>
      </trkpt>
      <trkpt lat="45.20079" lon="5.95054">
        <ele>1058</ele>
        <time>2026-07-14T13:58:06Z</time>
      </trkpt>
      <trkpt lat="45.20078" lon="5.95054">
        <ele>1058</ele>
        <time>2026-07-14T13:58:07Z</time>
      </trkpt>
      <trkpt lat="45.20078" lon="5.95054">
        <ele>1057.9</ele>
        <time>2026-07-14T13:58:08Z</time>
      </trkpt>
      <trkpt lat="45.20078" lon="5.95054">
        <ele>1057.9</ele>
        <time>2026-07-14T13:58:09Z</time>
      </trkpt>
      <trkpt lat="45.20078" lon="5.95054">
        <ele>1057.9</ele>
        <time>2026-07-14T13:58:10Z</time>
      </trkpt>
      <trkpt lat="45.20078" lon="5.95054">
        <ele>1057.9</ele>
        <time>2026-07-14T13:58:11Z</time>
      </trkpt>
      <trkpt lat="45.20078" lon="5.95054">
        <ele>1057.9</ele>
        <time>2026-07-14T13:58:12Z</time>
      </trkpt>
      <trkpt lat="45.20078" lon="5.95054">
        <ele>1057.9</ele>
        <time>2026-07-14T13:58:13Z</time>
      </trkpt>
      <trkpt lat="45.20078" lon="5.95054">
        <ele>1057.9</ele>
        <time>2026-07-14T13:58:14Z</time>
      </trkpt>
      <trkpt lat="45.20078" lon="5.95055">
        <ele>1057.8</ele>
        <time>2026-07-14T13:58:15Z</time>
      </trkpt>
      <trkpt lat="45.20078" lon="5.95055">
        <ele>1057.7</ele>
        <time>2026-07-14T13:58:16Z</time>
      </trkpt>
      <trkpt lat="45.20078" lon="5.95055">
        <ele>1057.7</ele>
        <time>2026-07-14T13:58:17Z</time>
      </trkpt>
      <trkpt lat="45.20078" lon="5.95055">
        <ele>1057.7</ele>
        <time>2026-07-14T13:58:18Z</time>
      </trkpt>
      <trkpt lat="45.20078" lon="5.95055">
        <ele>1057.7</ele>
        <time>2026-07-14T13:58:19Z</time>
      </trkpt>
      <trkpt lat="45.20078" lon="5.95055">
        <ele>1057.6</ele>
        <time>2026-07-14T13:58:20Z</time>
      </trkpt>
      <trkpt lat="45.20078" lon="5.95055">
        <ele>1057.6</ele>
        <time>2026-07-14T13:58:21Z</time>
      </trkpt>
      <trkpt lat="45.20078" lon="5.95055">
        <ele>1057.6</ele>
        <time>2026-07-14T13:58:22Z</time>
      </trkpt>
      <trkpt lat="45.20078" lon="5.95055">
        <ele>1057.6</ele>
        <time>2026-07-14T13:58:23Z</time>
      </trkpt>
      <trkpt lat="45.20078" lon="5.95055">
        <ele>1057.6</ele>
        <time>2026-07-14T13:58:24Z</time>
      </trkpt>
      <trkpt lat="45.20078" lon="5.95055">
        <ele>1057.5</ele>
        <time>2026-07-14T13:58:25Z</time>
      </trkpt>
      <trkpt lat="45.20078" lon="5.95055">
        <ele>1057.5</ele>
        <time>2026-07-14T13:58:26Z</time>
      </trkpt>
      <trkpt lat="45.20077" lon="5.95055">
        <ele>1057.4</ele>
        <time>2026-07-14T13:58:27Z</time>
      </trkpt>
      <trkpt lat="45.20077" lon="5.95055">
        <ele>1057.4</ele>
        <time>2026-07-14T13:58:28Z</time>
      </trkpt>
      <trkpt lat="45.20077" lon="5.95055">
        <ele>1057.3</ele>
        <time>2026-07-14T13:58:29Z</time>
      </trkpt>
      <trkpt lat="45.20077" lon="5.95055">
        <ele>1057.3</ele>
        <time>2026-07-14T13:58:30Z</time>
      </trkpt>
      <trkpt lat="45.20077" lon="5.95055">
        <ele>1057.2</ele>
        <time>2026-07-14T13:58:31Z</time>
      </trkpt>
      <trkpt lat="45.20077" lon="5.95055">
        <ele>1057.2</ele>
        <time>2026-07-14T13:58:32Z</time>
      </trkpt>
      <trkpt lat="45.20077" lon="5.95055">
        <ele>1057.1</ele>
        <time>2026-07-14T13:58:33Z</time>
      </trkpt>
      <trkpt lat="45.20077" lon="5.95055">
        <ele>1057.1</ele>
        <time>2026-07-14T13:58:34Z</time>
      </trkpt>
      <trkpt lat="45.20077" lon="5.95055">
        <ele>1057.1</ele>
        <time>2026-07-14T13:58:35Z</time>
      </trkpt>
      <trkpt lat="45.20077" lon="5.95055">
        <ele>1057</ele>
        <time>2026-07-14T13:58:36Z</time>
      </trkpt>
      <trkpt lat="45.20076" lon="5.95055">
        <ele>1057</ele>
        <time>2026-07-14T13:58:37Z</time>
      </trkpt>
      <trkpt lat="45.20076" lon="5.95055">
        <ele>1057</ele>
        <time>2026-07-14T13:58:38Z</time>
      </trkpt>
      <trkpt lat="45.20076" lon="5.95055">
        <ele>1057</ele>
        <time>2026-07-14T13:58:39Z</time>
      </trkpt>
      <trkpt lat="45.20076" lon="5.95055">
        <ele>1056.9</ele>
        <time>2026-07-14T13:58:40Z</time>
      </trkpt>
      <trkpt lat="45.20076" lon="5.95055">
        <ele>1056.9</ele>
        <time>2026-07-14T13:58:41Z</time>
      </trkpt>
      <trkpt lat="45.20076" lon="5.95056">
        <ele>1056.9</ele>
        <time>2026-07-14T13:58:42Z</time>
      </trkpt>
      <trkpt lat="45.20076" lon="5.95056">
        <ele>1056.8</ele>
        <time>2026-07-14T13:58:43Z</time>
      </trkpt>
      <trkpt lat="45.20076" lon="5.95055">
        <ele>1056.8</ele>
        <time>2026-07-14T13:58:44Z</time>
      </trkpt>
      <trkpt lat="45.20075" lon="5.95056">
        <ele>1056.7</ele>
        <time>2026-07-14T13:58:45Z</time>
      </trkpt>
      <trkpt lat="45.20075" lon="5.95056">
        <ele>1056.6</ele>
        <time>2026-07-14T13:58:46Z</time>
      </trkpt>
      <trkpt lat="45.20075" lon="5.95056">
        <ele>1056.6</ele>
        <time>2026-07-14T13:58:47Z</time>
      </trkpt>
      <trkpt lat="45.20075" lon="5.95056">
        <ele>1056.6</ele>
        <time>2026-07-14T13:58:48Z</time>
      </trkpt>
      <trkpt lat="45.20075" lon="5.95056">
        <ele>1056.6</ele>
        <time>2026-07-14T13:58:49Z</time>
      </trkpt>
      <trkpt lat="45.20075" lon="5.95056">
        <ele>1056.6</ele>
        <time>2026-07-14T13:58:50Z</time>
      </trkpt>
      <trkpt lat="45.20075" lon="5.95056">
        <ele>1056.6</ele>
        <time>2026-07-14T13:58:51Z</time>
      </trkpt>
      <trkpt lat="45.20075" lon="5.95056">
        <ele>1056.6</ele>
        <time>2026-07-14T13:58:52Z</time>
      </trkpt>
      <trkpt lat="45.20075" lon="5.95056">
        <ele>1056.5</ele>
        <time>2026-07-14T13:58:53Z</time>
      </trkpt>
      <trkpt lat="45.20075" lon="5.95055">
        <ele>1056.5</ele>
        <time>2026-07-14T13:58:54Z</time>
      </trkpt>
      <trkpt lat="45.20075" lon="5.95055">
        <ele>1056.5</ele>
        <time>2026-07-14T13:58:55Z</time>
      </trkpt>
      <trkpt lat="45.20075" lon="5.95055">
        <ele>1056.5</ele>
        <time>2026-07-14T13:58:56Z</time>
      </trkpt>
      <trkpt lat="45.20075" lon="5.95055">
        <ele>1056.4</ele>
        <time>2026-07-14T13:58:57Z</time>
      </trkpt>
      <trkpt lat="45.20075" lon="5.95055">
        <ele>1056.4</ele>
        <time>2026-07-14T13:58:58Z</time>
      </trkpt>
      <trkpt lat="45.20075" lon="5.95055">
        <ele>1056.4</ele>
        <time>2026-07-14T13:58:59Z</time>
      </trkpt>
      <trkpt lat="45.20074" lon="5.95055">
        <ele>1056.4</ele>
        <time>2026-07-14T13:59:00Z</time>
      </trkpt>
      <trkpt lat="45.20074" lon="5.95055">
        <ele>1056.4</ele>
        <time>2026-07-14T13:59:01Z</time>
      </trkpt>
      <trkpt lat="45.20074" lon="5.95055">
        <ele>1056.3</ele>
        <time>2026-07-14T13:59:02Z</time>
      </trkpt>
      <trkpt lat="45.20074" lon="5.95055">
        <ele>1056.3</ele>
        <time>2026-07-14T13:59:03Z</time>
      </trkpt>
      <trkpt lat="45.20074" lon="5.95055">
        <ele>1056.3</ele>
        <time>2026-07-14T13:59:04Z</time>
      </trkpt>
      <trkpt lat="45.20074" lon="5.95055">
        <ele>1056.3</ele>
        <time>2026-07-14T13:59:05Z</time>
      </trkpt>
      <trkpt lat="45.20074" lon="5.95054">
        <ele>1056.2</ele>
        <time>2026-07-14T13:59:06Z</time>
      </trkpt>
      <trkpt lat="45.20074" lon="5.95054">
        <ele>1056.2</ele>
        <time>2026-07-14T13:59:07Z</time>
      </trkpt>
      <trkpt lat="45.20074" lon="5.95054">
        <ele>1056.2</ele>
        <time>2026-07-14T13:59:08Z</time>
      </trkpt>
      <trkpt lat="45.20074" lon="5.95054">
        <ele>1056.2</ele>
        <time>2026-07-14T13:59:09Z</time>
      </trkpt>
      <trkpt lat="45.20074" lon="5.95054">
        <ele>1056.2</ele>
        <time>2026-07-14T13:59:10Z</time>
      </trkpt>
      <trkpt lat="45.20074" lon="5.95054">
        <ele>1056.2</ele>
        <time>2026-07-14T13:59:11Z</time>
      </trkpt>
      <trkpt lat="45.20074" lon="5.95054">
        <ele>1056.1</ele>
        <time>2026-07-14T13:59:12Z</time>
      </trkpt>
      <trkpt lat="45.20074" lon="5.95054">
        <ele>1056.1</ele>
        <time>2026-07-14T13:59:13Z</time>
      </trkpt>
      <trkpt lat="45.20074" lon="5.95054">
        <ele>1056.1</ele>
        <time>2026-07-14T13:59:14Z</time>
      </trkpt>
      <trkpt lat="45.20074" lon="5.95054">
        <ele>1056.1</ele>
        <time>2026-07-14T13:59:15Z</time>
      </trkpt>
      <trkpt lat="45.20074" lon="5.95054">
        <ele>1056.1</ele>
        <time>2026-07-14T13:59:16Z</time>
      </trkpt>
      <trkpt lat="45.20074" lon="5.95054">
        <ele>1056</ele>
        <time>2026-07-14T13:59:17Z</time>
      </trkpt>
      <trkpt lat="45.20074" lon="5.95054">
        <ele>1056</ele>
        <time>2026-07-14T13:59:18Z</time>
      </trkpt>
      <trkpt lat="45.20073" lon="5.95054">
        <ele>1056</ele>
        <time>2026-07-14T13:59:19Z</time>
      </trkpt>
      <trkpt lat="45.20073" lon="5.95053">
        <ele>1056</ele>
        <time>2026-07-14T13:59:20Z</time>
      </trkpt>
      <trkpt lat="45.20073" lon="5.95054">
        <ele>1055.9</ele>
        <time>2026-07-14T13:59:21Z</time>
      </trkpt>
      <trkpt lat="45.20073" lon="5.95052">
        <ele>1055.6</ele>
        <time>2026-07-14T13:59:22Z</time>
      </trkpt>
      <trkpt lat="45.20073" lon="5.95049">
        <ele>1055.2</ele>
        <time>2026-07-14T13:59:24Z</time>
      </trkpt>
      <trkpt lat="45.20074" lon="5.95045">
        <ele>1054.4</ele>
        <time>2026-07-14T13:59:25Z</time>
      </trkpt>
      <trkpt lat="45.20076" lon="5.95042">
        <ele>1053.8</ele>
        <time>2026-07-14T13:59:26Z</time>
      </trkpt>
      <trkpt lat="45.20077" lon="5.9504">
        <ele>1053.4</ele>
        <time>2026-07-14T13:59:27Z</time>
      </trkpt>
      <trkpt lat="45.20078" lon="5.95036">
        <ele>1052.8</ele>
        <time>2026-07-14T13:59:28Z</time>
      </trkpt>
      <trkpt lat="45.20079" lon="5.95034">
        <ele>1052.5</ele>
        <time>2026-07-14T13:59:29Z</time>
      </trkpt>
      <trkpt lat="45.20079" lon="5.95032">
        <ele>1052.2</ele>
        <time>2026-07-14T13:59:31Z</time>
      </trkpt>
      <trkpt lat="45.20079" lon="5.95031">
        <ele>1052</ele>
        <time>2026-07-14T13:59:32Z</time>
      </trkpt>
      <trkpt lat="45.2008" lon="5.95029">
        <ele>1051.8</ele>
        <time>2026-07-14T13:59:33Z</time>
      </trkpt>
      <trkpt lat="45.20082" lon="5.95028">
        <ele>1051.4</ele>
        <time>2026-07-14T13:59:34Z</time>
      </trkpt>
      <trkpt lat="45.20083" lon="5.95026">
        <ele>1051.2</ele>
        <time>2026-07-14T13:59:36Z</time>
      </trkpt>
      <trkpt lat="45.20083" lon="5.95025">
        <ele>1051</ele>
        <time>2026-07-14T13:59:37Z</time>
      </trkpt>
      <trkpt lat="45.20083" lon="5.95023">
        <ele>1050.8</ele>
        <time>2026-07-14T13:59:38Z</time>
      </trkpt>
      <trkpt lat="45.20083" lon="5.95022">
        <ele>1050.6</ele>
        <time>2026-07-14T13:59:39Z</time>
      </trkpt>
      <trkpt lat="45.20083" lon="5.9502">
        <ele>1050.4</ele>
        <time>2026-07-14T13:59:40Z</time>
      </trkpt>
      <trkpt lat="45.20084" lon="5.95019">
        <ele>1050.3</ele>
        <time>2026-07-14T13:59:41Z</time>
      </trkpt>
      <trkpt lat="45.20084" lon="5.95018">
        <ele>1050.1</ele>
        <time>2026-07-14T13:59:42Z</time>
      </trkpt>
      <trkpt lat="45.20085" lon="5.95017">
        <ele>1050</ele>
        <time>2026-07-14T13:59:43Z</time>
      </trkpt>
      <trkpt lat="45.20086" lon="5.95015">
        <ele>1049.7</ele>
        <time>2026-07-14T13:59:44Z</time>
      </trkpt>
      <trkpt lat="45.20087" lon="5.95014">
        <ele>1049.5</ele>
        <time>2026-07-14T13:59:45Z</time>
      </trkpt>
      <trkpt lat="45.20087" lon="5.95012">
        <ele>1049.3</ele>
        <time>2026-07-14T13:59:46Z</time>
      </trkpt>
      <trkpt lat="45.20087" lon="5.95011">
        <ele>1049.2</ele>
        <time>2026-07-14T13:59:48Z</time>
      </trkpt>
      <trkpt lat="45.20087" lon="5.9501">
        <ele>1049.1</ele>
        <time>2026-07-14T13:59:49Z</time>
      </trkpt>
      <trkpt lat="45.20088" lon="5.95008">
        <ele>1048.9</ele>
        <time>2026-07-14T13:59:50Z</time>
      </trkpt>
      <trkpt lat="45.20088" lon="5.95007">
        <ele>1048.8</ele>
        <time>2026-07-14T13:59:51Z</time>
      </trkpt>
      <trkpt lat="45.20088" lon="5.95005">
        <ele>1048.6</ele>
        <time>2026-07-14T13:59:52Z</time>
      </trkpt>
      <trkpt lat="45.20088" lon="5.95003">
        <ele>1048.4</ele>
        <time>2026-07-14T13:59:53Z</time>
      </trkpt>
      <trkpt lat="45.20088" lon="5.95002">
        <ele>1048.3</ele>
        <time>2026-07-14T13:59:55Z</time>
      </trkpt>
      <trkpt lat="45.20089" lon="5.95001">
        <ele>1048.2</ele>
        <time>2026-07-14T13:59:56Z</time>
      </trkpt>
      <trkpt lat="45.20089" lon="5.94998">
        <ele>1047.9</ele>
        <time>2026-07-14T13:59:57Z</time>
      </trkpt>
      <trkpt lat="45.2009" lon="5.94996">
        <ele>1047.8</ele>
        <time>2026-07-14T13:59:58Z</time>
      </trkpt>
      <trkpt lat="45.2009" lon="5.94995">
        <ele>1047.7</ele>
        <time>2026-07-14T14:00:00Z</time>
      </trkpt>
      <trkpt lat="45.2009" lon="5.94994">
        <ele>1047.5</ele>
        <time>2026-07-14T14:00:01Z</time>
      </trkpt>
      <trkpt lat="45.2009" lon="5.94991">
        <ele>1047.3</ele>
        <time>2026-07-14T14:00:02Z</time>
      </trkpt>
      <trkpt lat="45.2009" lon="5.9499">
        <ele>1047.2</ele>
        <time>2026-07-14T14:00:03Z</time>
      </trkpt>
      <trkpt lat="45.2009" lon="5.94989">
        <ele>1047.1</ele>
        <time>2026-07-14T14:00:05Z</time>
      </trkpt>
      <trkpt lat="45.20089" lon="5.94986">
        <ele>1046.8</ele>
        <time>2026-07-14T14:00:06Z</time>
      </trkpt>
      <trkpt lat="45.20089" lon="5.94985">
        <ele>1046.7</ele>
        <time>2026-07-14T14:00:07Z</time>
      </trkpt>
      <trkpt lat="45.20089" lon="5.94984">
        <ele>1046.6</ele>
        <time>2026-07-14T14:00:09Z</time>
      </trkpt>
      <trkpt lat="45.20089" lon="5.94983">
        <ele>1046.5</ele>
        <time>2026-07-14T14:00:10Z</time>
      </trkpt>
      <trkpt lat="45.20088" lon="5.94982">
        <ele>1046.4</ele>
        <time>2026-07-14T14:00:11Z</time>
      </trkpt>
      <trkpt lat="45.20088" lon="5.94981">
        <ele>1046.2</ele>
        <time>2026-07-14T14:00:12Z</time>
      </trkpt>
      <trkpt lat="45.20088" lon="5.9498">
        <ele>1046.1</ele>
        <time>2026-07-14T14:00:13Z</time>
      </trkpt>
      <trkpt lat="45.20087" lon="5.94978">
        <ele>1045.9</ele>
        <time>2026-07-14T14:00:14Z</time>
      </trkpt>
      <trkpt lat="45.20086" lon="5.94975">
        <ele>1045.5</ele>
        <time>2026-07-14T14:00:15Z</time>
      </trkpt>
      <trkpt lat="45.20086" lon="5.94974">
        <ele>1045.3</ele>
        <time>2026-07-14T14:00:17Z</time>
      </trkpt>
      <trkpt lat="45.20085" lon="5.94971">
        <ele>1044.9</ele>
        <time>2026-07-14T14:00:18Z</time>
      </trkpt>
      <trkpt lat="45.20084" lon="5.9497">
        <ele>1044.8</ele>
        <time>2026-07-14T14:00:20Z</time>
      </trkpt>
      <trkpt lat="45.20084" lon="5.94969">
        <ele>1044.6</ele>
        <time>2026-07-14T14:00:21Z</time>
      </trkpt>
      <trkpt lat="45.20083" lon="5.94968">
        <ele>1044.3</ele>
        <time>2026-07-14T14:00:22Z</time>
      </trkpt>
      <trkpt lat="45.20082" lon="5.94967">
        <ele>1044.1</ele>
        <time>2026-07-14T14:00:23Z</time>
      </trkpt>
      <trkpt lat="45.20082" lon="5.94966">
        <ele>1043.9</ele>
        <time>2026-07-14T14:00:24Z</time>
      </trkpt>
      <trkpt lat="45.20081" lon="5.94965">
        <ele>1043.7</ele>
        <time>2026-07-14T14:00:25Z</time>
      </trkpt>
      <trkpt lat="45.2008" lon="5.94964">
        <ele>1043.5</ele>
        <time>2026-07-14T14:00:26Z</time>
      </trkpt>
      <trkpt lat="45.2008" lon="5.94963">
        <ele>1043.3</ele>
        <time>2026-07-14T14:00:27Z</time>
      </trkpt>
      <trkpt lat="45.20079" lon="5.9496">
        <ele>1042.8</ele>
        <time>2026-07-14T14:00:28Z</time>
      </trkpt>
      <trkpt lat="45.20079" lon="5.94959">
        <ele>1042.6</ele>
        <time>2026-07-14T14:00:30Z</time>
      </trkpt>
      <trkpt lat="45.20079" lon="5.94958">
        <ele>1042.5</ele>
        <time>2026-07-14T14:00:31Z</time>
      </trkpt>
      <trkpt lat="45.20079" lon="5.94957">
        <ele>1042.3</ele>
        <time>2026-07-14T14:00:32Z</time>
      </trkpt>
      <trkpt lat="45.20078" lon="5.94955">
        <ele>1041.9</ele>
        <time>2026-07-14T14:00:33Z</time>
      </trkpt>
      <trkpt lat="45.20078" lon="5.94954">
        <ele>1041.7</ele>
        <time>2026-07-14T14:00:35Z</time>
      </trkpt>
      <trkpt lat="45.20078" lon="5.94953">
        <ele>1041.5</ele>
        <time>2026-07-14T14:00:36Z</time>
      </trkpt>
      <trkpt lat="45.20078" lon="5.94953">
        <ele>1041.4</ele>
        <time>2026-07-14T14:00:38Z</time>
      </trkpt>
      <trkpt lat="45.20078" lon="5.94952">
        <ele>1041.3</ele>
        <time>2026-07-14T14:00:39Z</time>
      </trkpt>
      <trkpt lat="45.20078" lon="5.94951">
        <ele>1041.1</ele>
        <time>2026-07-14T14:00:40Z</time>
      </trkpt>
      <trkpt lat="45.20078" lon="5.9495">
        <ele>1040.9</ele>
        <time>2026-07-14T14:00:41Z</time>
      </trkpt>
      <trkpt lat="45.20077" lon="5.94949">
        <ele>1040.7</ele>
        <time>2026-07-14T14:00:42Z</time>
      </trkpt>
      <trkpt lat="45.20077" lon="5.94949">
        <ele>1040.6</ele>
        <time>2026-07-14T14:00:43Z</time>
      </trkpt>
      <trkpt lat="45.20077" lon="5.94948">
        <ele>1040.4</ele>
        <time>2026-07-14T14:00:44Z</time>
      </trkpt>
      <trkpt lat="45.20078" lon="5.94947">
        <ele>1040.2</ele>
        <time>2026-07-14T14:00:45Z</time>
      </trkpt>
      <trkpt lat="45.20079" lon="5.94946">
        <ele>1039.8</ele>
        <time>2026-07-14T14:00:46Z</time>
      </trkpt>
      <trkpt lat="45.2008" lon="5.94943">
        <ele>1039.1</ele>
        <time>2026-07-14T14:00:47Z</time>
      </trkpt>
      <trkpt lat="45.20081" lon="5.94942">
        <ele>1038.7</ele>
        <time>2026-07-14T14:00:49Z</time>
      </trkpt>
      <trkpt lat="45.20083" lon="5.94942">
        <ele>1038.2</ele>
        <time>2026-07-14T14:00:50Z</time>
      </trkpt>
      <trkpt lat="45.20084" lon="5.94941">
        <ele>1037.9</ele>
        <time>2026-07-14T14:00:51Z</time>
      </trkpt>
      <trkpt lat="45.20085" lon="5.94941">
        <ele>1037.7</ele>
        <time>2026-07-14T14:00:52Z</time>
      </trkpt>
      <trkpt lat="45.20085" lon="5.9494">
        <ele>1037.4</ele>
        <time>2026-07-14T14:00:53Z</time>
      </trkpt>
      <trkpt lat="45.20086" lon="5.94939">
        <ele>1037.2</ele>
        <time>2026-07-14T14:00:54Z</time>
      </trkpt>
      <trkpt lat="45.20087" lon="5.94939">
        <ele>1037</ele>
        <time>2026-07-14T14:00:55Z</time>
      </trkpt>
      <trkpt lat="45.20087" lon="5.94938">
        <ele>1036.8</ele>
        <time>2026-07-14T14:00:56Z</time>
      </trkpt>
      <trkpt lat="45.20088" lon="5.94938">
        <ele>1036.7</ele>
        <time>2026-07-14T14:00:57Z</time>
      </trkpt>
      <trkpt lat="45.20088" lon="5.94937">
        <ele>1036.5</ele>
        <time>2026-07-14T14:00:58Z</time>
      </trkpt>
      <trkpt lat="45.20088" lon="5.94937">
        <ele>1036.3</ele>
        <time>2026-07-14T14:00:59Z</time>
      </trkpt>
      <trkpt lat="45.20088" lon="5.94936">
        <ele>1036.1</ele>
        <time>2026-07-14T14:01:00Z</time>
      </trkpt>
      <trkpt lat="45.20087" lon="5.94934">
        <ele>1035.7</ele>
        <time>2026-07-14T14:01:01Z</time>
      </trkpt>
      <trkpt lat="45.20086" lon="5.94932">
        <ele>1035.2</ele>
        <time>2026-07-14T14:01:03Z</time>
      </trkpt>
      <trkpt lat="45.20085" lon="5.9493">
        <ele>1034.6</ele>
        <time>2026-07-14T14:01:05Z</time>
      </trkpt>
      <trkpt lat="45.20084" lon="5.9493">
        <ele>1034.4</ele>
        <time>2026-07-14T14:01:07Z</time>
      </trkpt>
      <trkpt lat="45.20084" lon="5.94928">
        <ele>1034.1</ele>
        <time>2026-07-14T14:01:08Z</time>
      </trkpt>
      <trkpt lat="45.20085" lon="5.94927">
        <ele>1033.8</ele>
        <time>2026-07-14T14:01:09Z</time>
      </trkpt>
      <trkpt lat="45.20085" lon="5.94926">
        <ele>1033.6</ele>
        <time>2026-07-14T14:01:11Z</time>
      </trkpt>
      <trkpt lat="45.20085" lon="5.94925">
        <ele>1033.4</ele>
        <time>2026-07-14T14:01:12Z</time>
      </trkpt>
      <trkpt lat="45.20085" lon="5.94924">
        <ele>1033.2</ele>
        <time>2026-07-14T14:01:13Z</time>
      </trkpt>
      <trkpt lat="45.20087" lon="5.94926">
        <ele>1032.6</ele>
        <time>2026-07-14T14:01:14Z</time>
      </trkpt>
      <trkpt lat="45.20087" lon="5.94926">
        <ele>1032.3</ele>
        <time>2026-07-14T14:01:15Z</time>
      </trkpt>
      <trkpt lat="45.20087" lon="5.94926">
        <ele>1032.3</ele>
        <time>2026-07-14T14:01:16Z</time>
      </trkpt>
      <trkpt lat="45.20087" lon="5.94927">
        <ele>1032.1</ele>
        <time>2026-07-14T14:01:18Z</time>
      </trkpt>
      <trkpt lat="45.20088" lon="5.94926">
        <ele>1031.8</ele>
        <time>2026-07-14T14:01:19Z</time>
      </trkpt>
      <trkpt lat="45.20089" lon="5.94925">
        <ele>1031.5</ele>
        <time>2026-07-14T14:01:21Z</time>
      </trkpt>
      <trkpt lat="45.2009" lon="5.94924">
        <ele>1031.3</ele>
        <time>2026-07-14T14:01:22Z</time>
      </trkpt>
      <trkpt lat="45.2009" lon="5.94924">
        <ele>1031</ele>
        <time>2026-07-14T14:01:23Z</time>
      </trkpt>
      <trkpt lat="45.20091" lon="5.94923">
        <ele>1030.9</ele>
        <time>2026-07-14T14:01:24Z</time>
      </trkpt>
      <trkpt lat="45.20091" lon="5.94922">
        <ele>1030.8</ele>
        <time>2026-07-14T14:01:25Z</time>
      </trkpt>
      <trkpt lat="45.20091" lon="5.94922">
        <ele>1030.6</ele>
        <time>2026-07-14T14:01:26Z</time>
      </trkpt>
      <trkpt lat="45.20091" lon="5.94921">
        <ele>1030.4</ele>
        <time>2026-07-14T14:01:27Z</time>
      </trkpt>
      <trkpt lat="45.20091" lon="5.9492">
        <ele>1030.2</ele>
        <time>2026-07-14T14:01:28Z</time>
      </trkpt>
      <trkpt lat="45.20091" lon="5.94919">
        <ele>1030.1</ele>
        <time>2026-07-14T14:01:29Z</time>
      </trkpt>
      <trkpt lat="45.20091" lon="5.94919">
        <ele>1029.9</ele>
        <time>2026-07-14T14:01:30Z</time>
      </trkpt>
      <trkpt lat="45.20091" lon="5.94918">
        <ele>1029.7</ele>
        <time>2026-07-14T14:01:31Z</time>
      </trkpt>
      <trkpt lat="45.20091" lon="5.94918">
        <ele>1029.5</ele>
        <time>2026-07-14T14:01:33Z</time>
      </trkpt>
      <trkpt lat="45.2009" lon="5.94917">
        <ele>1029.4</ele>
        <time>2026-07-14T14:01:34Z</time>
      </trkpt>
      <trkpt lat="45.2009" lon="5.94916">
        <ele>1029.2</ele>
        <time>2026-07-14T14:01:35Z</time>
      </trkpt>
      <trkpt lat="45.2009" lon="5.94915">
        <ele>1029</ele>
        <time>2026-07-14T14:01:36Z</time>
      </trkpt>
      <trkpt lat="45.2009" lon="5.94914">
        <ele>1028.9</ele>
        <time>2026-07-14T14:01:37Z</time>
      </trkpt>
      <trkpt lat="45.2009" lon="5.94914">
        <ele>1028.8</ele>
        <time>2026-07-14T14:01:38Z</time>
      </trkpt>
      <trkpt lat="45.2009" lon="5.94913">
        <ele>1028.6</ele>
        <time>2026-07-14T14:01:39Z</time>
      </trkpt>
      <trkpt lat="45.2009" lon="5.94913">
        <ele>1028.6</ele>
        <time>2026-07-14T14:01:40Z</time>
      </trkpt>
      <trkpt lat="45.20089" lon="5.94913">
        <ele>1028.5</ele>
        <time>2026-07-14T14:01:41Z</time>
      </trkpt>
      <trkpt lat="45.20089" lon="5.94913">
        <ele>1028.4</ele>
        <time>2026-07-14T14:01:42Z</time>
      </trkpt>
      <trkpt lat="45.20089" lon="5.94912">
        <ele>1028.4</ele>
        <time>2026-07-14T14:01:43Z</time>
      </trkpt>
      <trkpt lat="45.20089" lon="5.94912">
        <ele>1028.4</ele>
        <time>2026-07-14T14:01:44Z</time>
      </trkpt>
      <trkpt lat="45.20089" lon="5.94913">
        <ele>1028.3</ele>
        <time>2026-07-14T14:01:45Z</time>
      </trkpt>
      <trkpt lat="45.20089" lon="5.94913">
        <ele>1028.3</ele>
        <time>2026-07-14T14:01:46Z</time>
      </trkpt>
      <trkpt lat="45.20089" lon="5.94912">
        <ele>1028.2</ele>
        <time>2026-07-14T14:01:47Z</time>
      </trkpt>
      <trkpt lat="45.20089" lon="5.94912">
        <ele>1028.1</ele>
        <time>2026-07-14T14:01:48Z</time>
      </trkpt>
      <trkpt lat="45.20089" lon="5.94911">
        <ele>1028</ele>
        <time>2026-07-14T14:01:49Z</time>
      </trkpt>
      <trkpt lat="45.20089" lon="5.9491">
        <ele>1027.8</ele>
        <time>2026-07-14T14:01:50Z</time>
      </trkpt>
      <trkpt lat="45.2009" lon="5.94908">
        <ele>1027.4</ele>
        <time>2026-07-14T14:01:52Z</time>
      </trkpt>
      <trkpt lat="45.2009" lon="5.94907">
        <ele>1027.1</ele>
        <time>2026-07-14T14:01:54Z</time>
      </trkpt>
      <trkpt lat="45.2009" lon="5.94905">
        <ele>1026.9</ele>
        <time>2026-07-14T14:01:55Z</time>
      </trkpt>
      <trkpt lat="45.2009" lon="5.94904">
        <ele>1026.7</ele>
        <time>2026-07-14T14:01:57Z</time>
      </trkpt>
      <trkpt lat="45.2009" lon="5.94903">
        <ele>1026.5</ele>
        <time>2026-07-14T14:01:58Z</time>
      </trkpt>
      <trkpt lat="45.2009" lon="5.94902">
        <ele>1026.4</ele>
        <time>2026-07-14T14:01:59Z</time>
      </trkpt>
      <trkpt lat="45.20091" lon="5.94902">
        <ele>1026.2</ele>
        <time>2026-07-14T14:02:00Z</time>
      </trkpt>
      <trkpt lat="45.20091" lon="5.94902">
        <ele>1026</ele>
        <time>2026-07-14T14:02:01Z</time>
      </trkpt>
      <trkpt lat="45.20092" lon="5.94902">
        <ele>1025.9</ele>
        <time>2026-07-14T14:02:02Z</time>
      </trkpt>
      <trkpt lat="45.20092" lon="5.94902">
        <ele>1025.8</ele>
        <time>2026-07-14T14:02:03Z</time>
      </trkpt>
      <trkpt lat="45.20092" lon="5.94902">
        <ele>1025.8</ele>
        <time>2026-07-14T14:02:04Z</time>
      </trkpt>
      <trkpt lat="45.20092" lon="5.94901">
        <ele>1025.7</ele>
        <time>2026-07-14T14:02:05Z</time>
      </trkpt>
      <trkpt lat="45.20092" lon="5.94902">
        <ele>1025.6</ele>
        <time>2026-07-14T14:02:06Z</time>
      </trkpt>
      <trkpt lat="45.20092" lon="5.94902">
        <ele>1025.6</ele>
        <time>2026-07-14T14:02:07Z</time>
      </trkpt>
      <trkpt lat="45.20092" lon="5.94902">
        <ele>1025.5</ele>
        <time>2026-07-14T14:02:08Z</time>
      </trkpt>
      <trkpt lat="45.20092" lon="5.94902">
        <ele>1025.5</ele>
        <time>2026-07-14T14:02:10Z</time>
      </trkpt>
      <trkpt lat="45.20092" lon="5.94902">
        <ele>1025.5</ele>
        <time>2026-07-14T14:02:11Z</time>
      </trkpt>
      <trkpt lat="45.20092" lon="5.94902">
        <ele>1025.4</ele>
        <time>2026-07-14T14:02:12Z</time>
      </trkpt>
      <trkpt lat="45.20092" lon="5.94902">
        <ele>1025.4</ele>
        <time>2026-07-14T14:02:13Z</time>
      </trkpt>
      <trkpt lat="45.20091" lon="5.94902">
        <ele>1025.3</ele>
        <time>2026-07-14T14:02:14Z</time>
      </trkpt>
      <trkpt lat="45.20091" lon="5.94901">
        <ele>1025.1</ele>
        <time>2026-07-14T14:02:16Z</time>
      </trkpt>
      <trkpt lat="45.20091" lon="5.949">
        <ele>1025</ele>
        <time>2026-07-14T14:02:17Z</time>
      </trkpt>
      <trkpt lat="45.20091" lon="5.949">
        <ele>1024.9</ele>
        <time>2026-07-14T14:02:18Z</time>
      </trkpt>
      <trkpt lat="45.20092" lon="5.94899">
        <ele>1024.7</ele>
        <time>2026-07-14T14:02:19Z</time>
      </trkpt>
      <trkpt lat="45.20092" lon="5.94897">
        <ele>1024.3</ele>
        <time>2026-07-14T14:02:20Z</time>
      </trkpt>
      <trkpt lat="45.20092" lon="5.94895">
        <ele>1024.1</ele>
        <time>2026-07-14T14:02:22Z</time>
      </trkpt>
      <trkpt lat="45.20092" lon="5.94895">
        <ele>1024</ele>
        <time>2026-07-14T14:02:23Z</time>
      </trkpt>
      <trkpt lat="45.20092" lon="5.94894">
        <ele>1023.9</ele>
        <time>2026-07-14T14:02:24Z</time>
      </trkpt>
      <trkpt lat="45.20092" lon="5.94894">
        <ele>1023.9</ele>
        <time>2026-07-14T14:02:25Z</time>
      </trkpt>
      <trkpt lat="45.20092" lon="5.94894">
        <ele>1023.8</ele>
        <time>2026-07-14T14:02:26Z</time>
      </trkpt>
      <trkpt lat="45.20092" lon="5.94893">
        <ele>1023.7</ele>
        <time>2026-07-14T14:02:27Z</time>
      </trkpt>
      <trkpt lat="45.20093" lon="5.94892">
        <ele>1023.5</ele>
        <time>2026-07-14T14:02:28Z</time>
      </trkpt>
      <trkpt lat="45.20093" lon="5.94891">
        <ele>1023.4</ele>
        <time>2026-07-14T14:02:30Z</time>
      </trkpt>
      <trkpt lat="45.20093" lon="5.94889">
        <ele>1023</ele>
        <time>2026-07-14T14:02:31Z</time>
      </trkpt>
      <trkpt lat="45.20093" lon="5.9489">
        <ele>1023</ele>
        <time>2026-07-14T14:02:33Z</time>
      </trkpt>
      <trkpt lat="45.20094" lon="5.94889">
        <ele>1022.8</ele>
        <time>2026-07-14T14:02:34Z</time>
      </trkpt>
      <trkpt lat="45.20094" lon="5.94889">
        <ele>1022.8</ele>
        <time>2026-07-14T14:02:35Z</time>
      </trkpt>
      <trkpt lat="45.20094" lon="5.94888">
        <ele>1022.6</ele>
        <time>2026-07-14T14:02:36Z</time>
      </trkpt>
      <trkpt lat="45.20094" lon="5.94888">
        <ele>1022.5</ele>
        <time>2026-07-14T14:02:37Z</time>
      </trkpt>
      <trkpt lat="45.20094" lon="5.94888">
        <ele>1022.5</ele>
        <time>2026-07-14T14:02:38Z</time>
      </trkpt>
      <trkpt lat="45.20095" lon="5.94887">
        <ele>1022.4</ele>
        <time>2026-07-14T14:02:39Z</time>
      </trkpt>
      <trkpt lat="45.20095" lon="5.94886">
        <ele>1022.2</ele>
        <time>2026-07-14T14:02:40Z</time>
      </trkpt>
      <trkpt lat="45.20095" lon="5.94885">
        <ele>1022</ele>
        <time>2026-07-14T14:02:41Z</time>
      </trkpt>
      <trkpt lat="45.20096" lon="5.94884">
        <ele>1021.7</ele>
        <time>2026-07-14T14:02:42Z</time>
      </trkpt>
      <trkpt lat="45.20096" lon="5.94884">
        <ele>1021.7</ele>
        <time>2026-07-14T14:02:44Z</time>
      </trkpt>
      <trkpt lat="45.20097" lon="5.94882">
        <ele>1021.4</ele>
        <time>2026-07-14T14:02:45Z</time>
      </trkpt>
      <trkpt lat="45.20097" lon="5.94882">
        <ele>1021.3</ele>
        <time>2026-07-14T14:02:46Z</time>
      </trkpt>
      <trkpt lat="45.20098" lon="5.9488">
        <ele>1021.1</ele>
        <time>2026-07-14T14:02:48Z</time>
      </trkpt>
      <trkpt lat="45.20098" lon="5.9488">
        <ele>1021</ele>
        <time>2026-07-14T14:02:50Z</time>
      </trkpt>
      <trkpt lat="45.20098" lon="5.94879">
        <ele>1020.9</ele>
        <time>2026-07-14T14:02:51Z</time>
      </trkpt>
      <trkpt lat="45.20098" lon="5.94878">
        <ele>1020.7</ele>
        <time>2026-07-14T14:02:52Z</time>
      </trkpt>
      <trkpt lat="45.20099" lon="5.94877">
        <ele>1020.4</ele>
        <time>2026-07-14T14:02:53Z</time>
      </trkpt>
      <trkpt lat="45.20099" lon="5.94877">
        <ele>1020.4</ele>
        <time>2026-07-14T14:02:54Z</time>
      </trkpt>
      <trkpt lat="45.201" lon="5.94877">
        <ele>1020.3</ele>
        <time>2026-07-14T14:02:55Z</time>
      </trkpt>
      <trkpt lat="45.201" lon="5.94875">
        <ele>1019.9</ele>
        <time>2026-07-14T14:02:56Z</time>
      </trkpt>
      <trkpt lat="45.20099" lon="5.94873">
        <ele>1019.6</ele>
        <time>2026-07-14T14:02:57Z</time>
      </trkpt>
      <trkpt lat="45.20099" lon="5.94871">
        <ele>1019.4</ele>
        <time>2026-07-14T14:02:58Z</time>
      </trkpt>
      <trkpt lat="45.20099" lon="5.94869">
        <ele>1019.1</ele>
        <time>2026-07-14T14:02:59Z</time>
      </trkpt>
      <trkpt lat="45.201" lon="5.94866">
        <ele>1018.7</ele>
        <time>2026-07-14T14:03:00Z</time>
      </trkpt>
      <trkpt lat="45.201" lon="5.94864">
        <ele>1018.4</ele>
        <time>2026-07-14T14:03:01Z</time>
      </trkpt>
      <trkpt lat="45.20101" lon="5.94863">
        <ele>1018.2</ele>
        <time>2026-07-14T14:03:03Z</time>
      </trkpt>
      <trkpt lat="45.20102" lon="5.94862">
        <ele>1017.9</ele>
        <time>2026-07-14T14:03:04Z</time>
      </trkpt>
      <trkpt lat="45.20102" lon="5.9486">
        <ele>1017.7</ele>
        <time>2026-07-14T14:03:05Z</time>
      </trkpt>
      <trkpt lat="45.20103" lon="5.94857">
        <ele>1017.3</ele>
        <time>2026-07-14T14:03:06Z</time>
      </trkpt>
      <trkpt lat="45.20104" lon="5.94856">
        <ele>1017.1</ele>
        <time>2026-07-14T14:03:07Z</time>
      </trkpt>
      <trkpt lat="45.20105" lon="5.94855">
        <ele>1016.8</ele>
        <time>2026-07-14T14:03:08Z</time>
      </trkpt>
      <trkpt lat="45.20106" lon="5.94854">
        <ele>1016.6</ele>
        <time>2026-07-14T14:03:10Z</time>
      </trkpt>
      <trkpt lat="45.20106" lon="5.94852">
        <ele>1016.4</ele>
        <time>2026-07-14T14:03:11Z</time>
      </trkpt>
      <trkpt lat="45.20107" lon="5.94851">
        <ele>1016.2</ele>
        <time>2026-07-14T14:03:12Z</time>
      </trkpt>
      <trkpt lat="45.20107" lon="5.9485">
        <ele>1016.1</ele>
        <time>2026-07-14T14:03:13Z</time>
      </trkpt>
      <trkpt lat="45.20109" lon="5.94848">
        <ele>1015.6</ele>
        <time>2026-07-14T14:03:14Z</time>
      </trkpt>
      <trkpt lat="45.2011" lon="5.94847">
        <ele>1015.4</ele>
        <time>2026-07-14T14:03:16Z</time>
      </trkpt>
      <trkpt lat="45.20111" lon="5.94846">
        <ele>1015.2</ele>
        <time>2026-07-14T14:03:17Z</time>
      </trkpt>
      <trkpt lat="45.20112" lon="5.94843">
        <ele>1014.8</ele>
        <time>2026-07-14T14:03:18Z</time>
      </trkpt>
      <trkpt lat="45.20113" lon="5.94842">
        <ele>1014.5</ele>
        <time>2026-07-14T14:03:19Z</time>
      </trkpt>
      <trkpt lat="45.20114" lon="5.94841">
        <ele>1014.3</ele>
        <time>2026-07-14T14:03:21Z</time>
      </trkpt>
      <trkpt lat="45.20115" lon="5.9484">
        <ele>1014.1</ele>
        <time>2026-07-14T14:03:22Z</time>
      </trkpt>
      <trkpt lat="45.20115" lon="5.94839">
        <ele>1013.9</ele>
        <time>2026-07-14T14:03:23Z</time>
      </trkpt>
      <trkpt lat="45.20116" lon="5.94837">
        <ele>1013.7</ele>
        <time>2026-07-14T14:03:24Z</time>
      </trkpt>
      <trkpt lat="45.20116" lon="5.94836">
        <ele>1013.5</ele>
        <time>2026-07-14T14:03:25Z</time>
      </trkpt>
      <trkpt lat="45.20117" lon="5.94835">
        <ele>1013.3</ele>
        <time>2026-07-14T14:03:26Z</time>
      </trkpt>
      <trkpt lat="45.20117" lon="5.94834">
        <ele>1013.1</ele>
        <time>2026-07-14T14:03:27Z</time>
      </trkpt>
      <trkpt lat="45.20118" lon="5.94833">
        <ele>1012.9</ele>
        <time>2026-07-14T14:03:28Z</time>
      </trkpt>
      <trkpt lat="45.20118" lon="5.94832">
        <ele>1012.8</ele>
        <time>2026-07-14T14:03:29Z</time>
      </trkpt>
      <trkpt lat="45.20119" lon="5.94831">
        <ele>1012.6</ele>
        <time>2026-07-14T14:03:30Z</time>
      </trkpt>
      <trkpt lat="45.20119" lon="5.9483">
        <ele>1012.4</ele>
        <time>2026-07-14T14:03:31Z</time>
      </trkpt>
      <trkpt lat="45.20119" lon="5.9483">
        <ele>1012.3</ele>
        <time>2026-07-14T14:03:32Z</time>
      </trkpt>
      <trkpt lat="45.20119" lon="5.9483">
        <ele>1012.3</ele>
        <time>2026-07-14T14:03:33Z</time>
      </trkpt>
      <trkpt lat="45.20119" lon="5.9483">
        <ele>1012.1</ele>
        <time>2026-07-14T14:03:34Z</time>
      </trkpt>
      <trkpt lat="45.20118" lon="5.94831">
        <ele>1012</ele>
        <time>2026-07-14T14:03:35Z</time>
      </trkpt>
      <trkpt lat="45.20118" lon="5.94831">
        <ele>1012</ele>
        <time>2026-07-14T14:03:36Z</time>
      </trkpt>
      <trkpt lat="45.20118" lon="5.94831">
        <ele>1012</ele>
        <time>2026-07-14T14:03:37Z</time>
      </trkpt>
      <trkpt lat="45.20118" lon="5.94831">
        <ele>1012</ele>
        <time>2026-07-14T14:03:38Z</time>
      </trkpt>
      <trkpt lat="45.20118" lon="5.94831">
        <ele>1011.9</ele>
        <time>2026-07-14T14:03:39Z</time>
      </trkpt>
      <trkpt lat="45.20118" lon="5.94831">
        <ele>1011.9</ele>
        <time>2026-07-14T14:03:40Z</time>
      </trkpt>
      <trkpt lat="45.20119" lon="5.94831">
        <ele>1011.9</ele>
        <time>2026-07-14T14:03:41Z</time>
      </trkpt>
      <trkpt lat="45.20119" lon="5.9483">
        <ele>1011.9</ele>
        <time>2026-07-14T14:03:42Z</time>
      </trkpt>
      <trkpt lat="45.20119" lon="5.9483">
        <ele>1011.9</ele>
        <time>2026-07-14T14:03:43Z</time>
      </trkpt>
      <trkpt lat="45.20118" lon="5.9483">
        <ele>1011.8</ele>
        <time>2026-07-14T14:03:44Z</time>
      </trkpt>
      <trkpt lat="45.20119" lon="5.94831">
        <ele>1011.8</ele>
        <time>2026-07-14T14:03:45Z</time>
      </trkpt>
      <trkpt lat="45.20119" lon="5.9483">
        <ele>1011.8</ele>
        <time>2026-07-14T14:03:47Z</time>
      </trkpt>
      <trkpt lat="45.20119" lon="5.9483">
        <ele>1011.7</ele>
        <time>2026-07-14T14:03:48Z</time>
      </trkpt>
      <trkpt lat="45.20119" lon="5.94829">
        <ele>1011.5</ele>
        <time>2026-07-14T14:03:50Z</time>
      </trkpt>
      <trkpt lat="45.20121" lon="5.94826">
        <ele>1010.9</ele>
        <time>2026-07-14T14:03:51Z</time>
      </trkpt>
      <trkpt lat="45.20122" lon="5.94825">
        <ele>1010.5</ele>
        <time>2026-07-14T14:03:52Z</time>
      </trkpt>
      <trkpt lat="45.20124" lon="5.94822">
        <ele>1010</ele>
        <time>2026-07-14T14:03:53Z</time>
      </trkpt>
      <trkpt lat="45.20125" lon="5.94821">
        <ele>1009.6</ele>
        <time>2026-07-14T14:03:55Z</time>
      </trkpt>
      <trkpt lat="45.20126" lon="5.9482">
        <ele>1009.4</ele>
        <time>2026-07-14T14:03:56Z</time>
      </trkpt>
      <trkpt lat="45.20127" lon="5.94819">
        <ele>1009.1</ele>
        <time>2026-07-14T14:03:57Z</time>
      </trkpt>
      <trkpt lat="45.20128" lon="5.94818">
        <ele>1008.8</ele>
        <time>2026-07-14T14:03:58Z</time>
      </trkpt>
      <trkpt lat="45.20128" lon="5.94817">
        <ele>1008.6</ele>
        <time>2026-07-14T14:03:59Z</time>
      </trkpt>
      <trkpt lat="45.2013" lon="5.94815">
        <ele>1008.1</ele>
        <time>2026-07-14T14:04:00Z</time>
      </trkpt>
      <trkpt lat="45.2013" lon="5.94814">
        <ele>1007.9</ele>
        <time>2026-07-14T14:04:02Z</time>
      </trkpt>
      <trkpt lat="45.20131" lon="5.94813">
        <ele>1007.7</ele>
        <time>2026-07-14T14:04:03Z</time>
      </trkpt>
      <trkpt lat="45.20132" lon="5.94813">
        <ele>1007.4</ele>
        <time>2026-07-14T14:04:04Z</time>
      </trkpt>
      <trkpt lat="45.20134" lon="5.94812">
        <ele>1007</ele>
        <time>2026-07-14T14:04:05Z</time>
      </trkpt>
      <trkpt lat="45.20134" lon="5.94811">
        <ele>1006.8</ele>
        <time>2026-07-14T14:04:07Z</time>
      </trkpt>
      <trkpt lat="45.20135" lon="5.94811">
        <ele>1006.6</ele>
        <time>2026-07-14T14:04:08Z</time>
      </trkpt>
      <trkpt lat="45.20136" lon="5.9481">
        <ele>1006.5</ele>
        <time>2026-07-14T14:04:09Z</time>
      </trkpt>
      <trkpt lat="45.20136" lon="5.9481">
        <ele>1006.4</ele>
        <time>2026-07-14T14:04:10Z</time>
      </trkpt>
      <trkpt lat="45.20136" lon="5.9481">
        <ele>1006.3</ele>
        <time>2026-07-14T14:04:11Z</time>
      </trkpt>
      <trkpt lat="45.20137" lon="5.94809">
        <ele>1006.2</ele>
        <time>2026-07-14T14:04:12Z</time>
      </trkpt>
      <trkpt lat="45.20137" lon="5.94809">
        <ele>1006</ele>
        <time>2026-07-14T14:04:13Z</time>
      </trkpt>
      <trkpt lat="45.20138" lon="5.94808">
        <ele>1005.9</ele>
        <time>2026-07-14T14:04:14Z</time>
      </trkpt>
      <trkpt lat="45.20138" lon="5.94808">
        <ele>1005.7</ele>
        <time>2026-07-14T14:04:15Z</time>
      </trkpt>
      <trkpt lat="45.20139" lon="5.94808">
        <ele>1005.5</ele>
        <time>2026-07-14T14:04:16Z</time>
      </trkpt>
      <trkpt lat="45.2014" lon="5.94808">
        <ele>1005.3</ele>
        <time>2026-07-14T14:04:17Z</time>
      </trkpt>
      <trkpt lat="45.2014" lon="5.94808">
        <ele>1005.2</ele>
        <time>2026-07-14T14:04:18Z</time>
      </trkpt>
      <trkpt lat="45.20141" lon="5.94808">
        <ele>1005</ele>
        <time>2026-07-14T14:04:19Z</time>
      </trkpt>
      <trkpt lat="45.20142" lon="5.94809">
        <ele>1004.9</ele>
        <time>2026-07-14T14:04:20Z</time>
      </trkpt>
      <trkpt lat="45.20142" lon="5.94809">
        <ele>1004.6</ele>
        <time>2026-07-14T14:04:21Z</time>
      </trkpt>
      <trkpt lat="45.20143" lon="5.94809">
        <ele>1004.5</ele>
        <time>2026-07-14T14:04:22Z</time>
      </trkpt>
      <trkpt lat="45.20144" lon="5.94809">
        <ele>1004.3</ele>
        <time>2026-07-14T14:04:23Z</time>
      </trkpt>
      <trkpt lat="45.20144" lon="5.94809">
        <ele>1004.1</ele>
        <time>2026-07-14T14:04:24Z</time>
      </trkpt>
      <trkpt lat="45.20146" lon="5.94808">
        <ele>1003.7</ele>
        <time>2026-07-14T14:04:25Z</time>
      </trkpt>
      <trkpt lat="45.20147" lon="5.94809">
        <ele>1003.5</ele>
        <time>2026-07-14T14:04:26Z</time>
      </trkpt>
      <trkpt lat="45.20148" lon="5.94808">
        <ele>1003.3</ele>
        <time>2026-07-14T14:04:28Z</time>
      </trkpt>
      <trkpt lat="45.20149" lon="5.94807">
        <ele>1002.8</ele>
        <time>2026-07-14T14:04:29Z</time>
      </trkpt>
      <trkpt lat="45.2015" lon="5.94806">
        <ele>1002.7</ele>
        <time>2026-07-14T14:04:30Z</time>
      </trkpt>
      <trkpt lat="45.2015" lon="5.94806">
        <ele>1002.5</ele>
        <time>2026-07-14T14:04:32Z</time>
      </trkpt>
      <trkpt lat="45.20151" lon="5.94805">
        <ele>1002.4</ele>
        <time>2026-07-14T14:04:33Z</time>
      </trkpt>
      <trkpt lat="45.20151" lon="5.94805">
        <ele>1002.2</ele>
        <time>2026-07-14T14:04:34Z</time>
      </trkpt>
      <trkpt lat="45.20153" lon="5.94804">
        <ele>1001.8</ele>
        <time>2026-07-14T14:04:35Z</time>
      </trkpt>
      <trkpt lat="45.20153" lon="5.94803">
        <ele>1001.7</ele>
        <time>2026-07-14T14:04:37Z</time>
      </trkpt>
      <trkpt lat="45.20154" lon="5.94801">
        <ele>1001.3</ele>
        <time>2026-07-14T14:04:38Z</time>
      </trkpt>
      <trkpt lat="45.20155" lon="5.948">
        <ele>1001.1</ele>
        <time>2026-07-14T14:04:40Z</time>
      </trkpt>
      <trkpt lat="45.20156" lon="5.948">
        <ele>1000.9</ele>
        <time>2026-07-14T14:04:42Z</time>
      </trkpt>
      <trkpt lat="45.20156" lon="5.94799">
        <ele>1000.8</ele>
        <time>2026-07-14T14:04:43Z</time>
      </trkpt>
      <trkpt lat="45.20157" lon="5.94799">
        <ele>1000.5</ele>
        <time>2026-07-14T14:04:44Z</time>
      </trkpt>
      <trkpt lat="45.20158" lon="5.94799">
        <ele>1000.3</ele>
        <time>2026-07-14T14:04:45Z</time>
      </trkpt>
      <trkpt lat="45.20159" lon="5.94799">
        <ele>1000.1</ele>
        <time>2026-07-14T14:04:46Z</time>
      </trkpt>
      <trkpt lat="45.2016" lon="5.94799">
        <ele>999.8</ele>
        <time>2026-07-14T14:04:47Z</time>
      </trkpt>
      <trkpt lat="45.20161" lon="5.94799">
        <ele>999.7</ele>
        <time>2026-07-14T14:04:48Z</time>
      </trkpt>
      <trkpt lat="45.20162" lon="5.94798">
        <ele>999.5</ele>
        <time>2026-07-14T14:04:49Z</time>
      </trkpt>
      <trkpt lat="45.20163" lon="5.94798">
        <ele>999.3</ele>
        <time>2026-07-14T14:04:50Z</time>
      </trkpt>
      <trkpt lat="45.20163" lon="5.94798">
        <ele>999.1</ele>
        <time>2026-07-14T14:04:51Z</time>
      </trkpt>
      <trkpt lat="45.20164" lon="5.94797">
        <ele>998.9</ele>
        <time>2026-07-14T14:04:52Z</time>
      </trkpt>
      <trkpt lat="45.20166" lon="5.94796">
        <ele>998.6</ele>
        <time>2026-07-14T14:04:53Z</time>
      </trkpt>
      <trkpt lat="45.20166" lon="5.94796">
        <ele>998.4</ele>
        <time>2026-07-14T14:04:55Z</time>
      </trkpt>
      <trkpt lat="45.20167" lon="5.94796">
        <ele>998.2</ele>
        <time>2026-07-14T14:04:56Z</time>
      </trkpt>
      <trkpt lat="45.20168" lon="5.94797">
        <ele>998</ele>
        <time>2026-07-14T14:04:57Z</time>
      </trkpt>
      <trkpt lat="45.20169" lon="5.94796">
        <ele>997.8</ele>
        <time>2026-07-14T14:04:58Z</time>
      </trkpt>
      <trkpt lat="45.20171" lon="5.94796">
        <ele>997.4</ele>
        <time>2026-07-14T14:04:59Z</time>
      </trkpt>
      <trkpt lat="45.20172" lon="5.94795">
        <ele>997.2</ele>
        <time>2026-07-14T14:05:00Z</time>
      </trkpt>
      <trkpt lat="45.20173" lon="5.94795">
        <ele>997</ele>
        <time>2026-07-14T14:05:02Z</time>
      </trkpt>
      <trkpt lat="45.20174" lon="5.94795">
        <ele>996.8</ele>
        <time>2026-07-14T14:05:03Z</time>
      </trkpt>
      <trkpt lat="45.20175" lon="5.94795">
        <ele>996.6</ele>
        <time>2026-07-14T14:05:04Z</time>
      </trkpt>
      <trkpt lat="45.20176" lon="5.94795">
        <ele>996.4</ele>
        <time>2026-07-14T14:05:05Z</time>
      </trkpt>
      <trkpt lat="45.20177" lon="5.94795">
        <ele>996.1</ele>
        <time>2026-07-14T14:05:06Z</time>
      </trkpt>
      <trkpt lat="45.20179" lon="5.94793">
        <ele>995.7</ele>
        <time>2026-07-14T14:05:07Z</time>
      </trkpt>
      <trkpt lat="45.2018" lon="5.94792">
        <ele>995.5</ele>
        <time>2026-07-14T14:05:09Z</time>
      </trkpt>
      <trkpt lat="45.20181" lon="5.94792">
        <ele>995.3</ele>
        <time>2026-07-14T14:05:10Z</time>
      </trkpt>
      <trkpt lat="45.20182" lon="5.94791">
        <ele>995.1</ele>
        <time>2026-07-14T14:05:11Z</time>
      </trkpt>
      <trkpt lat="45.20183" lon="5.94791">
        <ele>994.9</ele>
        <time>2026-07-14T14:05:12Z</time>
      </trkpt>
      <trkpt lat="45.20184" lon="5.9479">
        <ele>994.5</ele>
        <time>2026-07-14T14:05:13Z</time>
      </trkpt>
      <trkpt lat="45.20185" lon="5.94789">
        <ele>994.3</ele>
        <time>2026-07-14T14:05:15Z</time>
      </trkpt>
      <trkpt lat="45.20186" lon="5.94789">
        <ele>994.2</ele>
        <time>2026-07-14T14:05:16Z</time>
      </trkpt>
      <trkpt lat="45.20187" lon="5.94788">
        <ele>994</ele>
        <time>2026-07-14T14:05:17Z</time>
      </trkpt>
      <trkpt lat="45.20188" lon="5.94787">
        <ele>993.7</ele>
        <time>2026-07-14T14:05:18Z</time>
      </trkpt>
      <trkpt lat="45.2019" lon="5.94787">
        <ele>993.4</ele>
        <time>2026-07-14T14:05:19Z</time>
      </trkpt>
      <trkpt lat="45.20191" lon="5.94787">
        <ele>993.2</ele>
        <time>2026-07-14T14:05:21Z</time>
      </trkpt>
      <trkpt lat="45.20192" lon="5.94786">
        <ele>993</ele>
        <time>2026-07-14T14:05:22Z</time>
      </trkpt>
      <trkpt lat="45.20193" lon="5.94786">
        <ele>992.8</ele>
        <time>2026-07-14T14:05:23Z</time>
      </trkpt>
      <trkpt lat="45.20194" lon="5.94785">
        <ele>992.4</ele>
        <time>2026-07-14T14:05:24Z</time>
      </trkpt>
      <trkpt lat="45.20195" lon="5.94784">
        <ele>992.3</ele>
        <time>2026-07-14T14:05:25Z</time>
      </trkpt>
      <trkpt lat="45.20196" lon="5.94783">
        <ele>992.1</ele>
        <time>2026-07-14T14:05:27Z</time>
      </trkpt>
      <trkpt lat="45.20196" lon="5.94782">
        <ele>991.9</ele>
        <time>2026-07-14T14:05:28Z</time>
      </trkpt>
      <trkpt lat="45.20198" lon="5.94782">
        <ele>991.6</ele>
        <time>2026-07-14T14:05:29Z</time>
      </trkpt>
      <trkpt lat="45.20199" lon="5.94781">
        <ele>991.5</ele>
        <time>2026-07-14T14:05:31Z</time>
      </trkpt>
      <trkpt lat="45.20199" lon="5.9478">
        <ele>991.3</ele>
        <time>2026-07-14T14:05:32Z</time>
      </trkpt>
      <trkpt lat="45.20201" lon="5.94779">
        <ele>991.1</ele>
        <time>2026-07-14T14:05:33Z</time>
      </trkpt>
      <trkpt lat="45.20201" lon="5.94779">
        <ele>990.9</ele>
        <time>2026-07-14T14:05:34Z</time>
      </trkpt>
      <trkpt lat="45.20202" lon="5.94779">
        <ele>990.8</ele>
        <time>2026-07-14T14:05:36Z</time>
      </trkpt>
      <trkpt lat="45.20203" lon="5.94779">
        <ele>990.6</ele>
        <time>2026-07-14T14:05:37Z</time>
      </trkpt>
      <trkpt lat="45.20204" lon="5.9478">
        <ele>990.4</ele>
        <time>2026-07-14T14:05:38Z</time>
      </trkpt>
      <trkpt lat="45.20205" lon="5.94781">
        <ele>990.2</ele>
        <time>2026-07-14T14:05:39Z</time>
      </trkpt>
      <trkpt lat="45.20206" lon="5.9478">
        <ele>990</ele>
        <time>2026-07-14T14:05:40Z</time>
      </trkpt>
      <trkpt lat="45.20207" lon="5.9478">
        <ele>989.8</ele>
        <time>2026-07-14T14:05:41Z</time>
      </trkpt>
      <trkpt lat="45.20208" lon="5.94779">
        <ele>989.5</ele>
        <time>2026-07-14T14:05:42Z</time>
      </trkpt>
      <trkpt lat="45.2021" lon="5.94778">
        <ele>989.3</ele>
        <time>2026-07-14T14:05:43Z</time>
      </trkpt>
      <trkpt lat="45.20211" lon="5.94777">
        <ele>989</ele>
        <time>2026-07-14T14:05:44Z</time>
      </trkpt>
      <trkpt lat="45.20212" lon="5.94776">
        <ele>988.7</ele>
        <time>2026-07-14T14:05:45Z</time>
      </trkpt>
      <trkpt lat="45.20214" lon="5.94775">
        <ele>988.5</ele>
        <time>2026-07-14T14:05:46Z</time>
      </trkpt>
      <trkpt lat="45.20215" lon="5.94775">
        <ele>988.2</ele>
        <time>2026-07-14T14:05:47Z</time>
      </trkpt>
      <trkpt lat="45.20217" lon="5.94775">
        <ele>987.8</ele>
        <time>2026-07-14T14:05:48Z</time>
      </trkpt>
      <trkpt lat="45.20218" lon="5.94774">
        <ele>987.7</ele>
        <time>2026-07-14T14:05:50Z</time>
      </trkpt>
      <trkpt lat="45.20219" lon="5.94774">
        <ele>987.5</ele>
        <time>2026-07-14T14:05:51Z</time>
      </trkpt>
      <trkpt lat="45.20219" lon="5.94774">
        <ele>987.4</ele>
        <time>2026-07-14T14:05:52Z</time>
      </trkpt>
      <trkpt lat="45.2022" lon="5.94773">
        <ele>987.2</ele>
        <time>2026-07-14T14:05:53Z</time>
      </trkpt>
      <trkpt lat="45.20222" lon="5.94771">
        <ele>986.8</ele>
        <time>2026-07-14T14:05:54Z</time>
      </trkpt>
      <trkpt lat="45.20222" lon="5.9477">
        <ele>986.6</ele>
        <time>2026-07-14T14:05:56Z</time>
      </trkpt>
      <trkpt lat="45.20223" lon="5.94769">
        <ele>986.5</ele>
        <time>2026-07-14T14:05:57Z</time>
      </trkpt>
      <trkpt lat="45.20224" lon="5.94768">
        <ele>986.1</ele>
        <time>2026-07-14T14:05:58Z</time>
      </trkpt>
      <trkpt lat="45.20225" lon="5.94767">
        <ele>985.9</ele>
        <time>2026-07-14T14:06:00Z</time>
      </trkpt>
      <trkpt lat="45.20226" lon="5.94767">
        <ele>985.8</ele>
        <time>2026-07-14T14:06:01Z</time>
      </trkpt>
      <trkpt lat="45.20227" lon="5.94767">
        <ele>985.6</ele>
        <time>2026-07-14T14:06:02Z</time>
      </trkpt>
      <trkpt lat="45.20228" lon="5.94766">
        <ele>985.4</ele>
        <time>2026-07-14T14:06:03Z</time>
      </trkpt>
      <trkpt lat="45.20229" lon="5.94765">
        <ele>985.1</ele>
        <time>2026-07-14T14:06:04Z</time>
      </trkpt>
      <trkpt lat="45.2023" lon="5.94764">
        <ele>984.9</ele>
        <time>2026-07-14T14:06:06Z</time>
      </trkpt>
      <trkpt lat="45.20231" lon="5.94763">
        <ele>984.6</ele>
        <time>2026-07-14T14:06:07Z</time>
      </trkpt>
      <trkpt lat="45.20233" lon="5.94761">
        <ele>984.2</ele>
        <time>2026-07-14T14:06:08Z</time>
      </trkpt>
      <trkpt lat="45.20233" lon="5.9476">
        <ele>984</ele>
        <time>2026-07-14T14:06:10Z</time>
      </trkpt>
      <trkpt lat="45.20234" lon="5.94759">
        <ele>983.8</ele>
        <time>2026-07-14T14:06:11Z</time>
      </trkpt>
      <trkpt lat="45.20235" lon="5.94758">
        <ele>983.4</ele>
        <time>2026-07-14T14:06:12Z</time>
      </trkpt>
      <trkpt lat="45.20236" lon="5.94757">
        <ele>983.2</ele>
        <time>2026-07-14T14:06:13Z</time>
      </trkpt>
      <trkpt lat="45.20237" lon="5.94755">
        <ele>982.9</ele>
        <time>2026-07-14T14:06:15Z</time>
      </trkpt>
      <trkpt lat="45.20238" lon="5.94754">
        <ele>982.7</ele>
        <time>2026-07-14T14:06:16Z</time>
      </trkpt>
      <trkpt lat="45.2024" lon="5.94752">
        <ele>982.3</ele>
        <time>2026-07-14T14:06:17Z</time>
      </trkpt>
      <trkpt lat="45.2024" lon="5.94751">
        <ele>982.1</ele>
        <time>2026-07-14T14:06:19Z</time>
      </trkpt>
      <trkpt lat="45.2024" lon="5.9475">
        <ele>981.9</ele>
        <time>2026-07-14T14:06:20Z</time>
      </trkpt>
      <trkpt lat="45.2024" lon="5.94749">
        <ele>981.8</ele>
        <time>2026-07-14T14:06:21Z</time>
      </trkpt>
      <trkpt lat="45.20241" lon="5.94748">
        <ele>981.6</ele>
        <time>2026-07-14T14:06:22Z</time>
      </trkpt>
      <trkpt lat="45.20242" lon="5.94748">
        <ele>981.4</ele>
        <time>2026-07-14T14:06:23Z</time>
      </trkpt>
      <trkpt lat="45.20243" lon="5.94748">
        <ele>981.2</ele>
        <time>2026-07-14T14:06:24Z</time>
      </trkpt>
      <trkpt lat="45.20244" lon="5.94747">
        <ele>981</ele>
        <time>2026-07-14T14:06:25Z</time>
      </trkpt>
      <trkpt lat="45.20245" lon="5.94746">
        <ele>980.6</ele>
        <time>2026-07-14T14:06:26Z</time>
      </trkpt>
      <trkpt lat="45.20246" lon="5.94745">
        <ele>980.5</ele>
        <time>2026-07-14T14:06:28Z</time>
      </trkpt>
      <trkpt lat="45.20246" lon="5.94745">
        <ele>980.3</ele>
        <time>2026-07-14T14:06:29Z</time>
      </trkpt>
      <trkpt lat="45.20247" lon="5.94744">
        <ele>980.1</ele>
        <time>2026-07-14T14:06:30Z</time>
      </trkpt>
      <trkpt lat="45.20248" lon="5.94743">
        <ele>979.9</ele>
        <time>2026-07-14T14:06:31Z</time>
      </trkpt>
      <trkpt lat="45.20249" lon="5.94743">
        <ele>979.7</ele>
        <time>2026-07-14T14:06:32Z</time>
      </trkpt>
      <trkpt lat="45.2025" lon="5.94741">
        <ele>979.2</ele>
        <time>2026-07-14T14:06:33Z</time>
      </trkpt>
      <trkpt lat="45.20251" lon="5.9474">
        <ele>978.9</ele>
        <time>2026-07-14T14:06:35Z</time>
      </trkpt>
      <trkpt lat="45.20252" lon="5.94739">
        <ele>978.8</ele>
        <time>2026-07-14T14:06:36Z</time>
      </trkpt>
      <trkpt lat="45.20253" lon="5.94737">
        <ele>978.3</ele>
        <time>2026-07-14T14:06:37Z</time>
      </trkpt>
      <trkpt lat="45.20254" lon="5.94736">
        <ele>978.1</ele>
        <time>2026-07-14T14:06:39Z</time>
      </trkpt>
      <trkpt lat="45.20255" lon="5.94734">
        <ele>977.7</ele>
        <time>2026-07-14T14:06:40Z</time>
      </trkpt>
      <trkpt lat="45.20256" lon="5.94734">
        <ele>977.5</ele>
        <time>2026-07-14T14:06:42Z</time>
      </trkpt>
      <trkpt lat="45.20257" lon="5.94733">
        <ele>977.3</ele>
        <time>2026-07-14T14:06:43Z</time>
      </trkpt>
      <trkpt lat="45.20259" lon="5.94732">
        <ele>976.8</ele>
        <time>2026-07-14T14:06:44Z</time>
      </trkpt>
      <trkpt lat="45.2026" lon="5.94731">
        <ele>976.6</ele>
        <time>2026-07-14T14:06:46Z</time>
      </trkpt>
      <trkpt lat="45.2026" lon="5.9473">
        <ele>976.4</ele>
        <time>2026-07-14T14:06:47Z</time>
      </trkpt>
      <trkpt lat="45.20261" lon="5.94729">
        <ele>976.2</ele>
        <time>2026-07-14T14:06:48Z</time>
      </trkpt>
      <trkpt lat="45.20261" lon="5.94728">
        <ele>976</ele>
        <time>2026-07-14T14:06:49Z</time>
      </trkpt>
      <trkpt lat="45.20262" lon="5.94727">
        <ele>975.8</ele>
        <time>2026-07-14T14:06:50Z</time>
      </trkpt>
      <trkpt lat="45.20262" lon="5.94726">
        <ele>975.7</ele>
        <time>2026-07-14T14:06:51Z</time>
      </trkpt>
      <trkpt lat="45.20263" lon="5.94725">
        <ele>975.5</ele>
        <time>2026-07-14T14:06:52Z</time>
      </trkpt>
      <trkpt lat="45.20264" lon="5.94722">
        <ele>975.1</ele>
        <time>2026-07-14T14:06:53Z</time>
      </trkpt>
      <trkpt lat="45.20265" lon="5.94722">
        <ele>975</ele>
        <time>2026-07-14T14:06:55Z</time>
      </trkpt>
      <trkpt lat="45.20265" lon="5.94722">
        <ele>974.8</ele>
        <time>2026-07-14T14:06:56Z</time>
      </trkpt>
      <trkpt lat="45.20266" lon="5.94721">
        <ele>974.5</ele>
        <time>2026-07-14T14:06:57Z</time>
      </trkpt>
      <trkpt lat="45.20267" lon="5.9472">
        <ele>974.4</ele>
        <time>2026-07-14T14:06:58Z</time>
      </trkpt>
      <trkpt lat="45.20268" lon="5.94719">
        <ele>974.2</ele>
        <time>2026-07-14T14:06:59Z</time>
      </trkpt>
      <trkpt lat="45.20269" lon="5.94718">
        <ele>973.9</ele>
        <time>2026-07-14T14:07:00Z</time>
      </trkpt>
      <trkpt lat="45.20271" lon="5.94717">
        <ele>973.5</ele>
        <time>2026-07-14T14:07:01Z</time>
      </trkpt>
      <trkpt lat="45.20272" lon="5.94716">
        <ele>973.3</ele>
        <time>2026-07-14T14:07:03Z</time>
      </trkpt>
      <trkpt lat="45.20274" lon="5.94716">
        <ele>973</ele>
        <time>2026-07-14T14:07:04Z</time>
      </trkpt>
      <trkpt lat="45.20275" lon="5.94715">
        <ele>972.8</ele>
        <time>2026-07-14T14:07:05Z</time>
      </trkpt>
      <trkpt lat="45.20277" lon="5.94714">
        <ele>972.4</ele>
        <time>2026-07-14T14:07:06Z</time>
      </trkpt>
      <trkpt lat="45.20279" lon="5.94713">
        <ele>972.1</ele>
        <time>2026-07-14T14:07:08Z</time>
      </trkpt>
      <trkpt lat="45.2028" lon="5.94712">
        <ele>971.9</ele>
        <time>2026-07-14T14:07:09Z</time>
      </trkpt>
      <trkpt lat="45.20281" lon="5.94711">
        <ele>971.7</ele>
        <time>2026-07-14T14:07:10Z</time>
      </trkpt>
      <trkpt lat="45.20282" lon="5.9471">
        <ele>971.5</ele>
        <time>2026-07-14T14:07:11Z</time>
      </trkpt>
      <trkpt lat="45.20284" lon="5.94709">
        <ele>971.3</ele>
        <time>2026-07-14T14:07:12Z</time>
      </trkpt>
      <trkpt lat="45.20285" lon="5.94707">
        <ele>971</ele>
        <time>2026-07-14T14:07:13Z</time>
      </trkpt>
      <trkpt lat="45.20287" lon="5.94706">
        <ele>970.7</ele>
        <time>2026-07-14T14:07:14Z</time>
      </trkpt>
      <trkpt lat="45.20288" lon="5.94704">
        <ele>970.5</ele>
        <time>2026-07-14T14:07:16Z</time>
      </trkpt>
      <trkpt lat="45.20289" lon="5.94704">
        <ele>970.3</ele>
        <time>2026-07-14T14:07:17Z</time>
      </trkpt>
      <trkpt lat="45.2029" lon="5.94703">
        <ele>970.2</ele>
        <time>2026-07-14T14:07:18Z</time>
      </trkpt>
      <trkpt lat="45.20291" lon="5.94703">
        <ele>970.1</ele>
        <time>2026-07-14T14:07:19Z</time>
      </trkpt>
      <trkpt lat="45.20292" lon="5.94703">
        <ele>969.9</ele>
        <time>2026-07-14T14:07:20Z</time>
      </trkpt>
      <trkpt lat="45.20293" lon="5.94702">
        <ele>969.8</ele>
        <time>2026-07-14T14:07:21Z</time>
      </trkpt>
      <trkpt lat="45.20294" lon="5.94702">
        <ele>969.6</ele>
        <time>2026-07-14T14:07:22Z</time>
      </trkpt>
      <trkpt lat="45.20295" lon="5.94701">
        <ele>969.5</ele>
        <time>2026-07-14T14:07:23Z</time>
      </trkpt>
      <trkpt lat="45.20298" lon="5.947">
        <ele>969.1</ele>
        <time>2026-07-14T14:07:24Z</time>
      </trkpt>
      <trkpt lat="45.203" lon="5.94699">
        <ele>968.8</ele>
        <time>2026-07-14T14:07:26Z</time>
      </trkpt>
      <trkpt lat="45.20301" lon="5.94698">
        <ele>968.6</ele>
        <time>2026-07-14T14:07:27Z</time>
      </trkpt>
      <trkpt lat="45.20302" lon="5.94697">
        <ele>968.5</ele>
        <time>2026-07-14T14:07:29Z</time>
      </trkpt>
      <trkpt lat="45.20303" lon="5.94696">
        <ele>968.3</ele>
        <time>2026-07-14T14:07:30Z</time>
      </trkpt>
      <trkpt lat="45.20306" lon="5.94695">
        <ele>968</ele>
        <time>2026-07-14T14:07:31Z</time>
      </trkpt>
      <trkpt lat="45.20306" lon="5.94694">
        <ele>967.9</ele>
        <time>2026-07-14T14:07:33Z</time>
      </trkpt>
      <trkpt lat="45.20307" lon="5.94693">
        <ele>967.7</ele>
        <time>2026-07-14T14:07:34Z</time>
      </trkpt>
      <trkpt lat="45.2031" lon="5.94692">
        <ele>967.4</ele>
        <time>2026-07-14T14:07:35Z</time>
      </trkpt>
      <trkpt lat="45.20311" lon="5.94692">
        <ele>967.3</ele>
        <time>2026-07-14T14:07:37Z</time>
      </trkpt>
      <trkpt lat="45.20312" lon="5.94691">
        <ele>967.1</ele>
        <time>2026-07-14T14:07:38Z</time>
      </trkpt>
      <trkpt lat="45.20312" lon="5.94691">
        <ele>967</ele>
        <time>2026-07-14T14:07:39Z</time>
      </trkpt>
      <trkpt lat="45.20313" lon="5.9469">
        <ele>966.9</ele>
        <time>2026-07-14T14:07:40Z</time>
      </trkpt>
      <trkpt lat="45.20314" lon="5.94688">
        <ele>966.6</ele>
        <time>2026-07-14T14:07:41Z</time>
      </trkpt>
      <trkpt lat="45.20315" lon="5.94687">
        <ele>966.4</ele>
        <time>2026-07-14T14:07:42Z</time>
      </trkpt>
      <trkpt lat="45.20316" lon="5.94686">
        <ele>966.3</ele>
        <time>2026-07-14T14:07:44Z</time>
      </trkpt>
      <trkpt lat="45.20317" lon="5.94685">
        <ele>966.1</ele>
        <time>2026-07-14T14:07:45Z</time>
      </trkpt>
      <trkpt lat="45.20317" lon="5.94684">
        <ele>966</ele>
        <time>2026-07-14T14:07:46Z</time>
      </trkpt>
      <trkpt lat="45.20318" lon="5.94683">
        <ele>965.8</ele>
        <time>2026-07-14T14:07:47Z</time>
      </trkpt>
      <trkpt lat="45.20319" lon="5.94682">
        <ele>965.7</ele>
        <time>2026-07-14T14:07:48Z</time>
      </trkpt>
      <trkpt lat="45.2032" lon="5.94681">
        <ele>965.5</ele>
        <time>2026-07-14T14:07:49Z</time>
      </trkpt>
      <trkpt lat="45.20321" lon="5.9468">
        <ele>965.3</ele>
        <time>2026-07-14T14:07:50Z</time>
      </trkpt>
      <trkpt lat="45.20321" lon="5.94679">
        <ele>965.1</ele>
        <time>2026-07-14T14:07:51Z</time>
      </trkpt>
      <trkpt lat="45.20322" lon="5.94678">
        <ele>965</ele>
        <time>2026-07-14T14:07:52Z</time>
      </trkpt>
      <trkpt lat="45.20323" lon="5.94676">
        <ele>964.8</ele>
        <time>2026-07-14T14:07:53Z</time>
      </trkpt>
      <trkpt lat="45.20323" lon="5.94675">
        <ele>964.7</ele>
        <time>2026-07-14T14:07:54Z</time>
      </trkpt>
      <trkpt lat="45.20324" lon="5.94674">
        <ele>964.5</ele>
        <time>2026-07-14T14:07:55Z</time>
      </trkpt>
      <trkpt lat="45.20325" lon="5.94674">
        <ele>964.3</ele>
        <time>2026-07-14T14:07:56Z</time>
      </trkpt>
      <trkpt lat="45.20326" lon="5.94673">
        <ele>964.2</ele>
        <time>2026-07-14T14:07:57Z</time>
      </trkpt>
      <trkpt lat="45.20327" lon="5.94671">
        <ele>963.9</ele>
        <time>2026-07-14T14:07:58Z</time>
      </trkpt>
      <trkpt lat="45.20328" lon="5.9467">
        <ele>963.7</ele>
        <time>2026-07-14T14:08:00Z</time>
      </trkpt>
      <trkpt lat="45.20329" lon="5.94669">
        <ele>963.6</ele>
        <time>2026-07-14T14:08:01Z</time>
      </trkpt>
      <trkpt lat="45.20329" lon="5.94668">
        <ele>963.4</ele>
        <time>2026-07-14T14:08:02Z</time>
      </trkpt>
      <trkpt lat="45.2033" lon="5.94667">
        <ele>963.2</ele>
        <time>2026-07-14T14:08:03Z</time>
      </trkpt>
      <trkpt lat="45.20332" lon="5.94667">
        <ele>963.1</ele>
        <time>2026-07-14T14:08:04Z</time>
      </trkpt>
      <trkpt lat="45.20333" lon="5.94667">
        <ele>962.9</ele>
        <time>2026-07-14T14:08:05Z</time>
      </trkpt>
      <trkpt lat="45.20334" lon="5.94666">
        <ele>962.8</ele>
        <time>2026-07-14T14:08:06Z</time>
      </trkpt>
      <trkpt lat="45.20334" lon="5.94664">
        <ele>962.6</ele>
        <time>2026-07-14T14:08:07Z</time>
      </trkpt>
      <trkpt lat="45.20336" lon="5.94662">
        <ele>962.2</ele>
        <time>2026-07-14T14:08:08Z</time>
      </trkpt>
      <trkpt lat="45.20337" lon="5.94661">
        <ele>962.1</ele>
        <time>2026-07-14T14:08:09Z</time>
      </trkpt>
      <trkpt lat="45.20338" lon="5.9466">
        <ele>961.9</ele>
        <time>2026-07-14T14:08:10Z</time>
      </trkpt>
      <trkpt lat="45.20339" lon="5.94659">
        <ele>961.8</ele>
        <time>2026-07-14T14:08:11Z</time>
      </trkpt>
      <trkpt lat="45.2034" lon="5.94658">
        <ele>961.6</ele>
        <time>2026-07-14T14:08:12Z</time>
      </trkpt>
      <trkpt lat="45.20341" lon="5.94657">
        <ele>961.4</ele>
        <time>2026-07-14T14:08:14Z</time>
      </trkpt>
      <trkpt lat="45.20342" lon="5.94655">
        <ele>961.2</ele>
        <time>2026-07-14T14:08:15Z</time>
      </trkpt>
      <trkpt lat="45.20343" lon="5.94653">
        <ele>961</ele>
        <time>2026-07-14T14:08:16Z</time>
      </trkpt>
      <trkpt lat="45.20344" lon="5.94651">
        <ele>960.8</ele>
        <time>2026-07-14T14:08:17Z</time>
      </trkpt>
      <trkpt lat="45.20344" lon="5.9465">
        <ele>960.6</ele>
        <time>2026-07-14T14:08:18Z</time>
      </trkpt>
      <trkpt lat="45.20345" lon="5.94648">
        <ele>960.4</ele>
        <time>2026-07-14T14:08:19Z</time>
      </trkpt>
      <trkpt lat="45.20346" lon="5.94646">
        <ele>960.2</ele>
        <time>2026-07-14T14:08:20Z</time>
      </trkpt>
      <trkpt lat="45.20346" lon="5.94644">
        <ele>960</ele>
        <time>2026-07-14T14:08:21Z</time>
      </trkpt>
      <trkpt lat="45.20347" lon="5.94643">
        <ele>959.8</ele>
        <time>2026-07-14T14:08:22Z</time>
      </trkpt>
      <trkpt lat="45.20348" lon="5.94641">
        <ele>959.6</ele>
        <time>2026-07-14T14:08:23Z</time>
      </trkpt>
      <trkpt lat="45.2035" lon="5.94639">
        <ele>959.2</ele>
        <time>2026-07-14T14:08:24Z</time>
      </trkpt>
      <trkpt lat="45.20351" lon="5.94638">
        <ele>959.1</ele>
        <time>2026-07-14T14:08:26Z</time>
      </trkpt>
      <trkpt lat="45.20352" lon="5.94637">
        <ele>958.9</ele>
        <time>2026-07-14T14:08:27Z</time>
      </trkpt>
      <trkpt lat="45.20353" lon="5.94635">
        <ele>958.8</ele>
        <time>2026-07-14T14:08:28Z</time>
      </trkpt>
      <trkpt lat="45.20355" lon="5.94633">
        <ele>958.5</ele>
        <time>2026-07-14T14:08:29Z</time>
      </trkpt>
      <trkpt lat="45.20356" lon="5.94633">
        <ele>958.3</ele>
        <time>2026-07-14T14:08:31Z</time>
      </trkpt>
      <trkpt lat="45.20357" lon="5.94632">
        <ele>958.2</ele>
        <time>2026-07-14T14:08:32Z</time>
      </trkpt>
      <trkpt lat="45.20358" lon="5.94631">
        <ele>958</ele>
        <time>2026-07-14T14:08:33Z</time>
      </trkpt>
      <trkpt lat="45.20359" lon="5.94631">
        <ele>957.9</ele>
        <time>2026-07-14T14:08:34Z</time>
      </trkpt>
      <trkpt lat="45.2036" lon="5.9463">
        <ele>957.7</ele>
        <time>2026-07-14T14:08:35Z</time>
      </trkpt>
      <trkpt lat="45.20361" lon="5.94627">
        <ele>957.4</ele>
        <time>2026-07-14T14:08:36Z</time>
      </trkpt>
      <trkpt lat="45.20362" lon="5.94625">
        <ele>957.2</ele>
        <time>2026-07-14T14:08:38Z</time>
      </trkpt>
      <trkpt lat="45.20363" lon="5.94624">
        <ele>957.1</ele>
        <time>2026-07-14T14:08:39Z</time>
      </trkpt>
      <trkpt lat="45.20364" lon="5.94623">
        <ele>957</ele>
        <time>2026-07-14T14:08:40Z</time>
      </trkpt>
      <trkpt lat="45.20365" lon="5.9462">
        <ele>956.7</ele>
        <time>2026-07-14T14:08:41Z</time>
      </trkpt>
      <trkpt lat="45.20366" lon="5.9462">
        <ele>956.6</ele>
        <time>2026-07-14T14:08:43Z</time>
      </trkpt>
      <trkpt lat="45.20366" lon="5.94619">
        <ele>956.5</ele>
        <time>2026-07-14T14:08:44Z</time>
      </trkpt>
      <trkpt lat="45.20367" lon="5.94618">
        <ele>956.4</ele>
        <time>2026-07-14T14:08:45Z</time>
      </trkpt>
      <trkpt lat="45.20368" lon="5.94617">
        <ele>956.2</ele>
        <time>2026-07-14T14:08:46Z</time>
      </trkpt>
      <trkpt lat="45.20369" lon="5.94615">
        <ele>956.1</ele>
        <time>2026-07-14T14:08:47Z</time>
      </trkpt>
      <trkpt lat="45.2037" lon="5.94614">
        <ele>956</ele>
        <time>2026-07-14T14:08:48Z</time>
      </trkpt>
      <trkpt lat="45.2037" lon="5.94613">
        <ele>955.8</ele>
        <time>2026-07-14T14:08:49Z</time>
      </trkpt>
      <trkpt lat="45.20371" lon="5.94612">
        <ele>955.7</ele>
        <time>2026-07-14T14:08:50Z</time>
      </trkpt>
      <trkpt lat="45.20372" lon="5.9461">
        <ele>955.5</ele>
        <time>2026-07-14T14:08:51Z</time>
      </trkpt>
      <trkpt lat="45.20373" lon="5.94609">
        <ele>955.3</ele>
        <time>2026-07-14T14:08:53Z</time>
      </trkpt>
      <trkpt lat="45.20374" lon="5.94607">
        <ele>955.2</ele>
        <time>2026-07-14T14:08:54Z</time>
      </trkpt>
      <trkpt lat="45.20375" lon="5.94606">
        <ele>955</ele>
        <time>2026-07-14T14:08:55Z</time>
      </trkpt>
      <trkpt lat="45.20376" lon="5.94605">
        <ele>954.9</ele>
        <time>2026-07-14T14:08:56Z</time>
      </trkpt>
      <trkpt lat="45.20377" lon="5.94604">
        <ele>954.8</ele>
        <time>2026-07-14T14:08:57Z</time>
      </trkpt>
      <trkpt lat="45.20378" lon="5.94603">
        <ele>954.6</ele>
        <time>2026-07-14T14:08:58Z</time>
      </trkpt>
      <trkpt lat="45.20379" lon="5.94602">
        <ele>954.5</ele>
        <time>2026-07-14T14:08:59Z</time>
      </trkpt>
      <trkpt lat="45.2038" lon="5.94601">
        <ele>954.4</ele>
        <time>2026-07-14T14:09:00Z</time>
      </trkpt>
      <trkpt lat="45.20382" lon="5.946">
        <ele>954.2</ele>
        <time>2026-07-14T14:09:01Z</time>
      </trkpt>
      <trkpt lat="45.20383" lon="5.94599">
        <ele>954.1</ele>
        <time>2026-07-14T14:09:02Z</time>
      </trkpt>
      <trkpt lat="45.20384" lon="5.94598">
        <ele>954</ele>
        <time>2026-07-14T14:09:03Z</time>
      </trkpt>
      <trkpt lat="45.20385" lon="5.94597">
        <ele>953.8</ele>
        <time>2026-07-14T14:09:04Z</time>
      </trkpt>
      <trkpt lat="45.20385" lon="5.94595">
        <ele>953.7</ele>
        <time>2026-07-14T14:09:05Z</time>
      </trkpt>
      <trkpt lat="45.20386" lon="5.94593">
        <ele>953.6</ele>
        <time>2026-07-14T14:09:06Z</time>
      </trkpt>
      <trkpt lat="45.20386" lon="5.9459">
        <ele>953.3</ele>
        <time>2026-07-14T14:09:07Z</time>
      </trkpt>
      <trkpt lat="45.20386" lon="5.94589">
        <ele>953.2</ele>
        <time>2026-07-14T14:09:09Z</time>
      </trkpt>
      <trkpt lat="45.20386" lon="5.94588">
        <ele>953.1</ele>
        <time>2026-07-14T14:09:10Z</time>
      </trkpt>
      <trkpt lat="45.20386" lon="5.94588">
        <ele>953.1</ele>
        <time>2026-07-14T14:09:11Z</time>
      </trkpt>
      <trkpt lat="45.20386" lon="5.94589">
        <ele>953.1</ele>
        <time>2026-07-14T14:09:12Z</time>
      </trkpt>
      <trkpt lat="45.20386" lon="5.94589">
        <ele>953.1</ele>
        <time>2026-07-14T14:09:13Z</time>
      </trkpt>
      <trkpt lat="45.20386" lon="5.94589">
        <ele>953</ele>
        <time>2026-07-14T14:09:14Z</time>
      </trkpt>
      <trkpt lat="45.20386" lon="5.94589">
        <ele>953</ele>
        <time>2026-07-14T14:09:15Z</time>
      </trkpt>
      <trkpt lat="45.20386" lon="5.94589">
        <ele>953</ele>
        <time>2026-07-14T14:09:16Z</time>
      </trkpt>
      <trkpt lat="45.20386" lon="5.94589">
        <ele>953</ele>
        <time>2026-07-14T14:09:17Z</time>
      </trkpt>
      <trkpt lat="45.20386" lon="5.94589">
        <ele>953</ele>
        <time>2026-07-14T14:09:18Z</time>
      </trkpt>
      <trkpt lat="45.20386" lon="5.94589">
        <ele>953</ele>
        <time>2026-07-14T14:09:19Z</time>
      </trkpt>
      <trkpt lat="45.20386" lon="5.94589">
        <ele>953</ele>
        <time>2026-07-14T14:09:20Z</time>
      </trkpt>
      <trkpt lat="45.20386" lon="5.94589">
        <ele>953</ele>
        <time>2026-07-14T14:09:21Z</time>
      </trkpt>
      <trkpt lat="45.20386" lon="5.94589">
        <ele>953</ele>
        <time>2026-07-14T14:09:22Z</time>
      </trkpt>
      <trkpt lat="45.20386" lon="5.94589">
        <ele>953</ele>
        <time>2026-07-14T14:09:23Z</time>
      </trkpt>
      <trkpt lat="45.20386" lon="5.94589">
        <ele>953</ele>
        <time>2026-07-14T14:09:24Z</time>
      </trkpt>
      <trkpt lat="45.20386" lon="5.94589">
        <ele>953</ele>
        <time>2026-07-14T14:09:25Z</time>
      </trkpt>
      <trkpt lat="45.20386" lon="5.94589">
        <ele>953</ele>
        <time>2026-07-14T14:09:26Z</time>
      </trkpt>
      <trkpt lat="45.20386" lon="5.94589">
        <ele>953</ele>
        <time>2026-07-14T14:09:27Z</time>
      </trkpt>
      <trkpt lat="45.20386" lon="5.94589">
        <ele>953</ele>
        <time>2026-07-14T14:09:28Z</time>
      </trkpt>
      <trkpt lat="45.20387" lon="5.94589">
        <ele>953</ele>
        <time>2026-07-14T14:09:29Z</time>
      </trkpt>
      <trkpt lat="45.20387" lon="5.94589">
        <ele>953</ele>
        <time>2026-07-14T14:09:30Z</time>
      </trkpt>
      <trkpt lat="45.20387" lon="5.94589">
        <ele>953</ele>
        <time>2026-07-14T14:09:31Z</time>
      </trkpt>
      <trkpt lat="45.20387" lon="5.94589">
        <ele>953</ele>
        <time>2026-07-14T14:09:32Z</time>
      </trkpt>
      <trkpt lat="45.20387" lon="5.94589">
        <ele>953</ele>
        <time>2026-07-14T14:09:33Z</time>
      </trkpt>
      <trkpt lat="45.20387" lon="5.94589">
        <ele>953</ele>
        <time>2026-07-14T14:09:34Z</time>
      </trkpt>
      <trkpt lat="45.20387" lon="5.94589">
        <ele>953</ele>
        <time>2026-07-14T14:09:35Z</time>
      </trkpt>
      <trkpt lat="45.20387" lon="5.94589">
        <ele>953</ele>
        <time>2026-07-14T14:09:36Z</time>
      </trkpt>
      <trkpt lat="45.20387" lon="5.94589">
        <ele>953</ele>
        <time>2026-07-14T14:09:37Z</time>
      </trkpt>
      <trkpt lat="45.20387" lon="5.94589">
        <ele>953</ele>
        <time>2026-07-14T14:09:38Z</time>
      </trkpt>
      <trkpt lat="45.20387" lon="5.94589">
        <ele>952.9</ele>
        <time>2026-07-14T14:09:39Z</time>
      </trkpt>
      <trkpt lat="45.20387" lon="5.94589">
        <ele>952.9</ele>
        <time>2026-07-14T14:09:40Z</time>
      </trkpt>
      <trkpt lat="45.20387" lon="5.94589">
        <ele>952.9</ele>
        <time>2026-07-14T14:09:41Z</time>
      </trkpt>
      <trkpt lat="45.20387" lon="5.94589">
        <ele>952.9</ele>
        <time>2026-07-14T14:09:42Z</time>
      </trkpt>
      <trkpt lat="45.20388" lon="5.94589">
        <ele>952.8</ele>
        <time>2026-07-14T14:09:44Z</time>
      </trkpt>
      <trkpt lat="45.20388" lon="5.94589">
        <ele>952.8</ele>
        <time>2026-07-14T14:09:45Z</time>
      </trkpt>
      <trkpt lat="45.2039" lon="5.94588">
        <ele>952.6</ele>
        <time>2026-07-14T14:09:46Z</time>
      </trkpt>
      <trkpt lat="45.20391" lon="5.94587">
        <ele>952.5</ele>
        <time>2026-07-14T14:09:48Z</time>
      </trkpt>
      <trkpt lat="45.2039" lon="5.94587">
        <ele>952.4</ele>
        <time>2026-07-14T14:09:49Z</time>
      </trkpt>
      <trkpt lat="45.2039" lon="5.94586">
        <ele>952.4</ele>
        <time>2026-07-14T14:09:50Z</time>
      </trkpt>
      <trkpt lat="45.2039" lon="5.94586">
        <ele>952.4</ele>
        <time>2026-07-14T14:09:51Z</time>
      </trkpt>
      <trkpt lat="45.2039" lon="5.94586">
        <ele>952.4</ele>
        <time>2026-07-14T14:09:52Z</time>
      </trkpt>
      <trkpt lat="45.2039" lon="5.94586">
        <ele>952.4</ele>
        <time>2026-07-14T14:09:53Z</time>
      </trkpt>
      <trkpt lat="45.2039" lon="5.94586">
        <ele>952.4</ele>
        <time>2026-07-14T14:09:54Z</time>
      </trkpt>
      <trkpt lat="45.2039" lon="5.94586">
        <ele>952.4</ele>
        <time>2026-07-14T14:09:55Z</time>
      </trkpt>
      <trkpt lat="45.2039" lon="5.94586">
        <ele>952.4</ele>
        <time>2026-07-14T14:09:56Z</time>
      </trkpt>
      <trkpt lat="45.2039" lon="5.94587">
        <ele>952.4</ele>
        <time>2026-07-14T14:09:57Z</time>
      </trkpt>
      <trkpt lat="45.2039" lon="5.94586">
        <ele>952.4</ele>
        <time>2026-07-14T14:09:58Z</time>
      </trkpt>
      <trkpt lat="45.2039" lon="5.94586">
        <ele>952.4</ele>
        <time>2026-07-14T14:09:59Z</time>
      </trkpt>
      <trkpt lat="45.2039" lon="5.94586">
        <ele>952.3</ele>
        <time>2026-07-14T14:10:00Z</time>
      </trkpt>
      <trkpt lat="45.2039" lon="5.94586">
        <ele>952.3</ele>
        <time>2026-07-14T14:10:01Z</time>
      </trkpt>
      <trkpt lat="45.20391" lon="5.94586">
        <ele>952.3</ele>
        <time>2026-07-14T14:10:02Z</time>
      </trkpt>
      <trkpt lat="45.20391" lon="5.94586">
        <ele>952.3</ele>
        <time>2026-07-14T14:10:03Z</time>
      </trkpt>
      <trkpt lat="45.20391" lon="5.94586">
        <ele>952.3</ele>
        <time>2026-07-14T14:10:04Z</time>
      </trkpt>
      <trkpt lat="45.20391" lon="5.94586">
        <ele>952.3</ele>
        <time>2026-07-14T14:10:05Z</time>
      </trkpt>
      <trkpt lat="45.20391" lon="5.94585">
        <ele>952.2</ele>
        <time>2026-07-14T14:10:07Z</time>
      </trkpt>
      <trkpt lat="45.20391" lon="5.94584">
        <ele>952.2</ele>
        <time>2026-07-14T14:10:08Z</time>
      </trkpt>
      <trkpt lat="45.20392" lon="5.94584">
        <ele>952.1</ele>
        <time>2026-07-14T14:10:09Z</time>
      </trkpt>
      <trkpt lat="45.20394" lon="5.94582">
        <ele>951.8</ele>
        <time>2026-07-14T14:10:10Z</time>
      </trkpt>
      <trkpt lat="45.20395" lon="5.94582">
        <ele>951.7</ele>
        <time>2026-07-14T14:10:11Z</time>
      </trkpt>
      <trkpt lat="45.20395" lon="5.94581">
        <ele>951.6</ele>
        <time>2026-07-14T14:10:13Z</time>
      </trkpt>
      <trkpt lat="45.20395" lon="5.9458">
        <ele>951.5</ele>
        <time>2026-07-14T14:10:14Z</time>
      </trkpt>
      <trkpt lat="45.20396" lon="5.94578">
        <ele>951.4</ele>
        <time>2026-07-14T14:10:15Z</time>
      </trkpt>
      <trkpt lat="45.20395" lon="5.94577">
        <ele>951.3</ele>
        <time>2026-07-14T14:10:16Z</time>
      </trkpt>
      <trkpt lat="45.20395" lon="5.94575">
        <ele>951.2</ele>
        <time>2026-07-14T14:10:17Z</time>
      </trkpt>
      <trkpt lat="45.20396" lon="5.94573">
        <ele>951</ele>
        <time>2026-07-14T14:10:18Z</time>
      </trkpt>
      <trkpt lat="45.20396" lon="5.94571">
        <ele>950.9</ele>
        <time>2026-07-14T14:10:20Z</time>
      </trkpt>
      <trkpt lat="45.20396" lon="5.94571">
        <ele>950.8</ele>
        <time>2026-07-14T14:10:21Z</time>
      </trkpt>
      <trkpt lat="45.20397" lon="5.9457">
        <ele>950.7</ele>
        <time>2026-07-14T14:10:22Z</time>
      </trkpt>
      <trkpt lat="45.20397" lon="5.9457">
        <ele>950.7</ele>
        <time>2026-07-14T14:10:23Z</time>
      </trkpt>
      <trkpt lat="45.20398" lon="5.9457">
        <ele>950.6</ele>
        <time>2026-07-14T14:10:24Z</time>
      </trkpt>
      <trkpt lat="45.20399" lon="5.94568">
        <ele>950.4</ele>
        <time>2026-07-14T14:10:25Z</time>
      </trkpt>
      <trkpt lat="45.204" lon="5.94568">
        <ele>950.3</ele>
        <time>2026-07-14T14:10:26Z</time>
      </trkpt>
      <trkpt lat="45.204" lon="5.94567">
        <ele>950.2</ele>
        <time>2026-07-14T14:10:28Z</time>
      </trkpt>
      <trkpt lat="45.204" lon="5.94566">
        <ele>950.1</ele>
        <time>2026-07-14T14:10:29Z</time>
      </trkpt>
      <trkpt lat="45.204" lon="5.94565">
        <ele>950</ele>
        <time>2026-07-14T14:10:30Z</time>
      </trkpt>
      <trkpt lat="45.204" lon="5.94563">
        <ele>949.8</ele>
        <time>2026-07-14T14:10:31Z</time>
      </trkpt>
      <trkpt lat="45.204" lon="5.94562">
        <ele>949.7</ele>
        <time>2026-07-14T14:10:32Z</time>
      </trkpt>
      <trkpt lat="45.20401" lon="5.94561">
        <ele>949.6</ele>
        <time>2026-07-14T14:10:33Z</time>
      </trkpt>
      <trkpt lat="45.20401" lon="5.94559">
        <ele>949.4</ele>
        <time>2026-07-14T14:10:34Z</time>
      </trkpt>
      <trkpt lat="45.20402" lon="5.94558">
        <ele>949.3</ele>
        <time>2026-07-14T14:10:36Z</time>
      </trkpt>
      <trkpt lat="45.20402" lon="5.94558">
        <ele>949.2</ele>
        <time>2026-07-14T14:10:37Z</time>
      </trkpt>
      <trkpt lat="45.20403" lon="5.94557">
        <ele>949.1</ele>
        <time>2026-07-14T14:10:38Z</time>
      </trkpt>
      <trkpt lat="45.20404" lon="5.94556">
        <ele>948.9</ele>
        <time>2026-07-14T14:10:39Z</time>
      </trkpt>
      <trkpt lat="45.20404" lon="5.94555">
        <ele>948.8</ele>
        <time>2026-07-14T14:10:40Z</time>
      </trkpt>
      <trkpt lat="45.20405" lon="5.94554">
        <ele>948.6</ele>
        <time>2026-07-14T14:10:41Z</time>
      </trkpt>
      <trkpt lat="45.20406" lon="5.94553">
        <ele>948.5</ele>
        <time>2026-07-14T14:10:42Z</time>
      </trkpt>
      <trkpt lat="45.20407" lon="5.94552">
        <ele>948.4</ele>
        <time>2026-07-14T14:10:43Z</time>
      </trkpt>
      <trkpt lat="45.20407" lon="5.94552">
        <ele>948.3</ele>
        <time>2026-07-14T14:10:44Z</time>
      </trkpt>
      <trkpt lat="45.20408" lon="5.94551">
        <ele>948.1</ele>
        <time>2026-07-14T14:10:45Z</time>
      </trkpt>
      <trkpt lat="45.20409" lon="5.9455">
        <ele>947.9</ele>
        <time>2026-07-14T14:10:46Z</time>
      </trkpt>
      <trkpt lat="45.2041" lon="5.94549">
        <ele>947.8</ele>
        <time>2026-07-14T14:10:47Z</time>
      </trkpt>
      <trkpt lat="45.20411" lon="5.94548">
        <ele>947.6</ele>
        <time>2026-07-14T14:10:48Z</time>
      </trkpt>
      <trkpt lat="45.20412" lon="5.94547">
        <ele>947.4</ele>
        <time>2026-07-14T14:10:49Z</time>
      </trkpt>
      <trkpt lat="45.20413" lon="5.94546">
        <ele>947.2</ele>
        <time>2026-07-14T14:10:50Z</time>
      </trkpt>
      <trkpt lat="45.20415" lon="5.94545">
        <ele>946.8</ele>
        <time>2026-07-14T14:10:51Z</time>
      </trkpt>
      <trkpt lat="45.20416" lon="5.94544">
        <ele>946.6</ele>
        <time>2026-07-14T14:10:52Z</time>
      </trkpt>
      <trkpt lat="45.20416" lon="5.94543">
        <ele>946.4</ele>
        <time>2026-07-14T14:10:54Z</time>
      </trkpt>
      <trkpt lat="45.20417" lon="5.94541">
        <ele>946.2</ele>
        <time>2026-07-14T14:10:55Z</time>
      </trkpt>
      <trkpt lat="45.20418" lon="5.9454">
        <ele>946.1</ele>
        <time>2026-07-14T14:10:56Z</time>
      </trkpt>
      <trkpt lat="45.20419" lon="5.94538">
        <ele>945.7</ele>
        <time>2026-07-14T14:10:57Z</time>
      </trkpt>
      <trkpt lat="45.2042" lon="5.94537">
        <ele>945.5</ele>
        <time>2026-07-14T14:10:58Z</time>
      </trkpt>
      <trkpt lat="45.20421" lon="5.94536">
        <ele>945.3</ele>
        <time>2026-07-14T14:11:00Z</time>
      </trkpt>
      <trkpt lat="45.20421" lon="5.94535">
        <ele>945.1</ele>
        <time>2026-07-14T14:11:01Z</time>
      </trkpt>
      <trkpt lat="45.20422" lon="5.94534">
        <ele>944.9</ele>
        <time>2026-07-14T14:11:02Z</time>
      </trkpt>
      <trkpt lat="45.20423" lon="5.94532">
        <ele>944.7</ele>
        <time>2026-07-14T14:11:03Z</time>
      </trkpt>
      <trkpt lat="45.20424" lon="5.94531">
        <ele>944.5</ele>
        <time>2026-07-14T14:11:04Z</time>
      </trkpt>
      <trkpt lat="45.20425" lon="5.9453">
        <ele>944.2</ele>
        <time>2026-07-14T14:11:05Z</time>
      </trkpt>
      <trkpt lat="45.20427" lon="5.94529">
        <ele>943.8</ele>
        <time>2026-07-14T14:11:06Z</time>
      </trkpt>
      <trkpt lat="45.20428" lon="5.94528">
        <ele>943.6</ele>
        <time>2026-07-14T14:11:08Z</time>
      </trkpt>
      <trkpt lat="45.20429" lon="5.94527">
        <ele>943.4</ele>
        <time>2026-07-14T14:11:09Z</time>
      </trkpt>
      <trkpt lat="45.2043" lon="5.94526">
        <ele>943.2</ele>
        <time>2026-07-14T14:11:10Z</time>
      </trkpt>
      <trkpt lat="45.20431" lon="5.94525">
        <ele>942.9</ele>
        <time>2026-07-14T14:11:11Z</time>
      </trkpt>
      <trkpt lat="45.20433" lon="5.94524">
        <ele>942.6</ele>
        <time>2026-07-14T14:11:12Z</time>
      </trkpt>
      <trkpt lat="45.20434" lon="5.94524">
        <ele>942.4</ele>
        <time>2026-07-14T14:11:13Z</time>
      </trkpt>
      <trkpt lat="45.20437" lon="5.94523">
        <ele>941.8</ele>
        <time>2026-07-14T14:11:14Z</time>
      </trkpt>
      <trkpt lat="45.20438" lon="5.94523">
        <ele>941.5</ele>
        <time>2026-07-14T14:11:15Z</time>
      </trkpt>
      <trkpt lat="45.2044" lon="5.94523">
        <ele>941.3</ele>
        <time>2026-07-14T14:11:17Z</time>
      </trkpt>
      <trkpt lat="45.20441" lon="5.94522">
        <ele>941.1</ele>
        <time>2026-07-14T14:11:18Z</time>
      </trkpt>
      <trkpt lat="45.20442" lon="5.94522">
        <ele>940.8</ele>
        <time>2026-07-14T14:11:19Z</time>
      </trkpt>
      <trkpt lat="45.20445" lon="5.94521">
        <ele>940.3</ele>
        <time>2026-07-14T14:11:20Z</time>
      </trkpt>
      <trkpt lat="45.20446" lon="5.94521">
        <ele>940</ele>
        <time>2026-07-14T14:11:22Z</time>
      </trkpt>
      <trkpt lat="45.20447" lon="5.94521">
        <ele>939.8</ele>
        <time>2026-07-14T14:11:23Z</time>
      </trkpt>
      <trkpt lat="45.20449" lon="5.94521">
        <ele>939.6</ele>
        <time>2026-07-14T14:11:24Z</time>
      </trkpt>
      <trkpt lat="45.2045" lon="5.94521">
        <ele>939.3</ele>
        <time>2026-07-14T14:11:25Z</time>
      </trkpt>
      <trkpt lat="45.20451" lon="5.9452">
        <ele>939.1</ele>
        <time>2026-07-14T14:11:26Z</time>
      </trkpt>
      <trkpt lat="45.20453" lon="5.94519">
        <ele>938.8</ele>
        <time>2026-07-14T14:11:27Z</time>
      </trkpt>
      <trkpt lat="45.20454" lon="5.94518">
        <ele>938.5</ele>
        <time>2026-07-14T14:11:28Z</time>
      </trkpt>
      <trkpt lat="45.20456" lon="5.94516">
        <ele>938.1</ele>
        <time>2026-07-14T14:11:29Z</time>
      </trkpt>
      <trkpt lat="45.20457" lon="5.94515">
        <ele>937.9</ele>
        <time>2026-07-14T14:11:31Z</time>
      </trkpt>
      <trkpt lat="45.20457" lon="5.94515">
        <ele>937.9</ele>
        <time>2026-07-14T14:11:32Z</time>
      </trkpt>
      <trkpt lat="45.20456" lon="5.94515">
        <ele>937.8</ele>
        <time>2026-07-14T14:11:33Z</time>
      </trkpt>
      <trkpt lat="45.20456" lon="5.94515">
        <ele>937.7</ele>
        <time>2026-07-14T14:11:34Z</time>
      </trkpt>
      <trkpt lat="45.20456" lon="5.94516">
        <ele>937.6</ele>
        <time>2026-07-14T14:11:35Z</time>
      </trkpt>
      <trkpt lat="45.20456" lon="5.94517">
        <ele>937.6</ele>
        <time>2026-07-14T14:11:36Z</time>
      </trkpt>
      <trkpt lat="45.20456" lon="5.94517">
        <ele>937.5</ele>
        <time>2026-07-14T14:11:37Z</time>
      </trkpt>
      <trkpt lat="45.20455" lon="5.94517">
        <ele>937.5</ele>
        <time>2026-07-14T14:11:38Z</time>
      </trkpt>
      <trkpt lat="45.20455" lon="5.94517">
        <ele>937.5</ele>
        <time>2026-07-14T14:11:39Z</time>
      </trkpt>
      <trkpt lat="45.20455" lon="5.94517">
        <ele>937.5</ele>
        <time>2026-07-14T14:11:40Z</time>
      </trkpt>
      <trkpt lat="45.20455" lon="5.94517">
        <ele>937.4</ele>
        <time>2026-07-14T14:11:41Z</time>
      </trkpt>
      <trkpt lat="45.20455" lon="5.94517">
        <ele>937.4</ele>
        <time>2026-07-14T14:11:42Z</time>
      </trkpt>
      <trkpt lat="45.20455" lon="5.94518">
        <ele>937.4</ele>
        <time>2026-07-14T14:11:43Z</time>
      </trkpt>
      <trkpt lat="45.20455" lon="5.94518">
        <ele>937.4</ele>
        <time>2026-07-14T14:11:44Z</time>
      </trkpt>
      <trkpt lat="45.20455" lon="5.94518">
        <ele>937.4</ele>
        <time>2026-07-14T14:11:45Z</time>
      </trkpt>
      <trkpt lat="45.20455" lon="5.94518">
        <ele>937.4</ele>
        <time>2026-07-14T14:11:46Z</time>
      </trkpt>
      <trkpt lat="45.20455" lon="5.94518">
        <ele>937.4</ele>
        <time>2026-07-14T14:11:47Z</time>
      </trkpt>
      <trkpt lat="45.20455" lon="5.94517">
        <ele>937.3</ele>
        <time>2026-07-14T14:11:48Z</time>
      </trkpt>
      <trkpt lat="45.20455" lon="5.94517">
        <ele>937.3</ele>
        <time>2026-07-14T14:11:49Z</time>
      </trkpt>
      <trkpt lat="45.20455" lon="5.94517">
        <ele>937.3</ele>
        <time>2026-07-14T14:11:50Z</time>
      </trkpt>
      <trkpt lat="45.20455" lon="5.94517">
        <ele>937.3</ele>
        <time>2026-07-14T14:11:51Z</time>
      </trkpt>
      <trkpt lat="45.20455" lon="5.94518">
        <ele>937.3</ele>
        <time>2026-07-14T14:11:52Z</time>
      </trkpt>
      <trkpt lat="45.20456" lon="5.94519">
        <ele>937</ele>
        <time>2026-07-14T14:11:53Z</time>
      </trkpt>
      <trkpt lat="45.20457" lon="5.94521">
        <ele>936.8</ele>
        <time>2026-07-14T14:11:55Z</time>
      </trkpt>
      <trkpt lat="45.20457" lon="5.94522">
        <ele>936.6</ele>
        <time>2026-07-14T14:11:56Z</time>
      </trkpt>
      <trkpt lat="45.20459" lon="5.94525">
        <ele>936.1</ele>
        <time>2026-07-14T14:11:57Z</time>
      </trkpt>
      <trkpt lat="45.2046" lon="5.94526">
        <ele>935.9</ele>
        <time>2026-07-14T14:11:59Z</time>
      </trkpt>
      <trkpt lat="45.20462" lon="5.94528">
        <ele>935.5</ele>
        <time>2026-07-14T14:12:00Z</time>
      </trkpt>
      <trkpt lat="45.20462" lon="5.94529">
        <ele>935.4</ele>
        <time>2026-07-14T14:12:02Z</time>
      </trkpt>
      <trkpt lat="45.20462" lon="5.9453">
        <ele>935.2</ele>
        <time>2026-07-14T14:12:03Z</time>
      </trkpt>
      <trkpt lat="45.20463" lon="5.94533">
        <ele>934.9</ele>
        <time>2026-07-14T14:12:04Z</time>
      </trkpt>
      <trkpt lat="45.20462" lon="5.94534">
        <ele>934.7</ele>
        <time>2026-07-14T14:12:06Z</time>
      </trkpt>
      <trkpt lat="45.20462" lon="5.94537">
        <ele>934.5</ele>
        <time>2026-07-14T14:12:07Z</time>
      </trkpt>
      <trkpt lat="45.20462" lon="5.94538">
        <ele>934.3</ele>
        <time>2026-07-14T14:12:09Z</time>
      </trkpt>
      <trkpt lat="45.20462" lon="5.9454">
        <ele>934.1</ele>
        <time>2026-07-14T14:12:10Z</time>
      </trkpt>
      <trkpt lat="45.20461" lon="5.94542">
        <ele>933.9</ele>
        <time>2026-07-14T14:12:12Z</time>
      </trkpt>
      <trkpt lat="45.20461" lon="5.94543">
        <ele>933.7</ele>
        <time>2026-07-14T14:12:14Z</time>
      </trkpt>
      <trkpt lat="45.20461" lon="5.94544">
        <ele>933.7</ele>
        <time>2026-07-14T14:12:15Z</time>
      </trkpt>
      <trkpt lat="45.20461" lon="5.94544">
        <ele>933.6</ele>
        <time>2026-07-14T14:12:16Z</time>
      </trkpt>
      <trkpt lat="45.20462" lon="5.94545">
        <ele>933.4</ele>
        <time>2026-07-14T14:12:17Z</time>
      </trkpt>
      <trkpt lat="45.20462" lon="5.94545">
        <ele>933.3</ele>
        <time>2026-07-14T14:12:18Z</time>
      </trkpt>
      <trkpt lat="45.20463" lon="5.94544">
        <ele>933.3</ele>
        <time>2026-07-14T14:12:19Z</time>
      </trkpt>
      <trkpt lat="45.20463" lon="5.94544">
        <ele>933.2</ele>
        <time>2026-07-14T14:12:20Z</time>
      </trkpt>
      <trkpt lat="45.20463" lon="5.94544">
        <ele>933.2</ele>
        <time>2026-07-14T14:12:21Z</time>
      </trkpt>
      <trkpt lat="45.20463" lon="5.94544">
        <ele>933.2</ele>
        <time>2026-07-14T14:12:22Z</time>
      </trkpt>
      <trkpt lat="45.20463" lon="5.94544">
        <ele>933.2</ele>
        <time>2026-07-14T14:12:23Z</time>
      </trkpt>
      <trkpt lat="45.20462" lon="5.94544">
        <ele>933.2</ele>
        <time>2026-07-14T14:12:24Z</time>
      </trkpt>
      <trkpt lat="45.20462" lon="5.94544">
        <ele>933.2</ele>
        <time>2026-07-14T14:12:25Z</time>
      </trkpt>
      <trkpt lat="45.20462" lon="5.94544">
        <ele>933.1</ele>
        <time>2026-07-14T14:12:26Z</time>
      </trkpt>
      <trkpt lat="45.20462" lon="5.94544">
        <ele>933.1</ele>
        <time>2026-07-14T14:12:27Z</time>
      </trkpt>
      <trkpt lat="45.20462" lon="5.94544">
        <ele>933.1</ele>
        <time>2026-07-14T14:12:28Z</time>
      </trkpt>
      <trkpt lat="45.20462" lon="5.94544">
        <ele>933.1</ele>
        <time>2026-07-14T14:12:29Z</time>
      </trkpt>
      <trkpt lat="45.20462" lon="5.94544">
        <ele>933.1</ele>
        <time>2026-07-14T14:12:30Z</time>
      </trkpt>
      <trkpt lat="45.20462" lon="5.94544">
        <ele>933.1</ele>
        <time>2026-07-14T14:12:32Z</time>
      </trkpt>
      <trkpt lat="45.20462" lon="5.94543">
        <ele>933.1</ele>
        <time>2026-07-14T14:12:33Z</time>
      </trkpt>
      <trkpt lat="45.20462" lon="5.94543">
        <ele>933</ele>
        <time>2026-07-14T14:12:34Z</time>
      </trkpt>
      <trkpt lat="45.20462" lon="5.94543">
        <ele>933</ele>
        <time>2026-07-14T14:12:35Z</time>
      </trkpt>
      <trkpt lat="45.20462" lon="5.94542">
        <ele>932.9</ele>
        <time>2026-07-14T14:12:36Z</time>
      </trkpt>
      <trkpt lat="45.20462" lon="5.94542">
        <ele>932.9</ele>
        <time>2026-07-14T14:12:37Z</time>
      </trkpt>
      <trkpt lat="45.20462" lon="5.94541">
        <ele>932.8</ele>
        <time>2026-07-14T14:12:38Z</time>
      </trkpt>
      <trkpt lat="45.20461" lon="5.94541">
        <ele>932.8</ele>
        <time>2026-07-14T14:12:39Z</time>
      </trkpt>
      <trkpt lat="45.20461" lon="5.94541">
        <ele>932.7</ele>
        <time>2026-07-14T14:12:40Z</time>
      </trkpt>
      <trkpt lat="45.20461" lon="5.94541">
        <ele>932.7</ele>
        <time>2026-07-14T14:12:41Z</time>
      </trkpt>
      <trkpt lat="45.20461" lon="5.94541">
        <ele>932.7</ele>
        <time>2026-07-14T14:12:42Z</time>
      </trkpt>
      <trkpt lat="45.20462" lon="5.94541">
        <ele>932.7</ele>
        <time>2026-07-14T14:12:43Z</time>
      </trkpt>
      <trkpt lat="45.20462" lon="5.94541">
        <ele>932.7</ele>
        <time>2026-07-14T14:12:44Z</time>
      </trkpt>
      <trkpt lat="45.20462" lon="5.94541">
        <ele>932.6</ele>
        <time>2026-07-14T14:12:45Z</time>
      </trkpt>
      <trkpt lat="45.20462" lon="5.94541">
        <ele>932.6</ele>
        <time>2026-07-14T14:12:46Z</time>
      </trkpt>
      <trkpt lat="45.20462" lon="5.94541">
        <ele>932.6</ele>
        <time>2026-07-14T14:12:47Z</time>
      </trkpt>
      <trkpt lat="45.20462" lon="5.94541">
        <ele>932.6</ele>
        <time>2026-07-14T14:12:48Z</time>
      </trkpt>
      <trkpt lat="45.20462" lon="5.94541">
        <ele>932.6</ele>
        <time>2026-07-14T14:12:49Z</time>
      </trkpt>
      <trkpt lat="45.20462" lon="5.94541">
        <ele>932.6</ele>
        <time>2026-07-14T14:12:50Z</time>
      </trkpt>
      <trkpt lat="45.20462" lon="5.94541">
        <ele>932.6</ele>
        <time>2026-07-14T14:12:51Z</time>
      </trkpt>
      <trkpt lat="45.20462" lon="5.94541">
        <ele>932.6</ele>
        <time>2026-07-14T14:12:52Z</time>
      </trkpt>
      <trkpt lat="45.20462" lon="5.94541">
        <ele>932.6</ele>
        <time>2026-07-14T14:12:53Z</time>
      </trkpt>
      <trkpt lat="45.20462" lon="5.94541">
        <ele>932.6</ele>
        <time>2026-07-14T14:12:54Z</time>
      </trkpt>
      <trkpt lat="45.20462" lon="5.94541">
        <ele>932.6</ele>
        <time>2026-07-14T14:12:55Z</time>
      </trkpt>
      <trkpt lat="45.20462" lon="5.94541">
        <ele>932.6</ele>
        <time>2026-07-14T14:12:56Z</time>
      </trkpt>
      <trkpt lat="45.20462" lon="5.94541">
        <ele>932.6</ele>
        <time>2026-07-14T14:12:57Z</time>
      </trkpt>
      <trkpt lat="45.20462" lon="5.94541">
        <ele>932.6</ele>
        <time>2026-07-14T14:12:58Z</time>
      </trkpt>
      <trkpt lat="45.20462" lon="5.94541">
        <ele>932.6</ele>
        <time>2026-07-14T14:12:59Z</time>
      </trkpt>
      <trkpt lat="45.20462" lon="5.94541">
        <ele>932.5</ele>
        <time>2026-07-14T14:13:00Z</time>
      </trkpt>
      <trkpt lat="45.20462" lon="5.94541">
        <ele>932.5</ele>
        <time>2026-07-14T14:13:01Z</time>
      </trkpt>
      <trkpt lat="45.20462" lon="5.94541">
        <ele>932.5</ele>
        <time>2026-07-14T14:13:02Z</time>
      </trkpt>
      <trkpt lat="45.20462" lon="5.94541">
        <ele>932.5</ele>
        <time>2026-07-14T14:13:03Z</time>
      </trkpt>
      <trkpt lat="45.20462" lon="5.94541">
        <ele>932.4</ele>
        <time>2026-07-14T14:13:04Z</time>
      </trkpt>
      <trkpt lat="45.20462" lon="5.94541">
        <ele>932.4</ele>
        <time>2026-07-14T14:13:05Z</time>
      </trkpt>
      <trkpt lat="45.20463" lon="5.94542">
        <ele>932.3</ele>
        <time>2026-07-14T14:13:06Z</time>
      </trkpt>
      <trkpt lat="45.20463" lon="5.94542">
        <ele>932.3</ele>
        <time>2026-07-14T14:13:07Z</time>
      </trkpt>
      <trkpt lat="45.20463" lon="5.94542">
        <ele>932.3</ele>
        <time>2026-07-14T14:13:08Z</time>
      </trkpt>
      <trkpt lat="45.20463" lon="5.94542">
        <ele>932.3</ele>
        <time>2026-07-14T14:13:09Z</time>
      </trkpt>
      <trkpt lat="45.20463" lon="5.94542">
        <ele>932.3</ele>
        <time>2026-07-14T14:13:10Z</time>
      </trkpt>
      <trkpt lat="45.20463" lon="5.94542">
        <ele>932.3</ele>
        <time>2026-07-14T14:13:11Z</time>
      </trkpt>
      <trkpt lat="45.20463" lon="5.94542">
        <ele>932.3</ele>
        <time>2026-07-14T14:13:12Z</time>
      </trkpt>
      <trkpt lat="45.20463" lon="5.94542">
        <ele>932.3</ele>
        <time>2026-07-14T14:13:13Z</time>
      </trkpt>
      <trkpt lat="45.20463" lon="5.94542">
        <ele>932.3</ele>
        <time>2026-07-14T14:13:14Z</time>
      </trkpt>
      <trkpt lat="45.20463" lon="5.94542">
        <ele>932.3</ele>
        <time>2026-07-14T14:13:15Z</time>
      </trkpt>
      <trkpt lat="45.20463" lon="5.94542">
        <ele>932.3</ele>
        <time>2026-07-14T14:13:16Z</time>
      </trkpt>
      <trkpt lat="45.20463" lon="5.94542">
        <ele>932.3</ele>
        <time>2026-07-14T14:13:17Z</time>
      </trkpt>
      <trkpt lat="45.20463" lon="5.94542">
        <ele>932.3</ele>
        <time>2026-07-14T14:13:18Z</time>
      </trkpt>
    </trkseg>
  </trk>
</gpx>